<?xml version="1.0" encoding="UTF-8" standalone="no" ?>
<gpx xmlns="http://www.topografix.com/GPX/1/1" xmlns:xsi="http://www.w3.org/2001/XMLSchema-instance" xsi:schemaLocation="http://www.topografix.com/GPX/1/1 http://www.topografix.com/GPX/1/1/gpx.xsd" version="1.1" creator="VisuGPX - https://www.visugpx.com">
  <metadata>
    <name>Chalet de Bellecôte (direction lac de Friolin)</name>
    <desc><![CDATA[Départ Parking Les Bauches]]></desc>
  </metadata>
  <trk>
    <name><![CDATA[Chalet de Bellecôte (direction lac de Friolin)_1]]></name>
    <trkseg>
      <trkpt lat="45.5238" lon="6.73979">
        <ele>1781.8</ele>
        <time>2021-08-12T07:53:03Z</time>
      </trkpt>
      <trkpt lat="45.52379" lon="6.73979">
        <ele>1781.9</ele>
        <time>2021-08-12T07:53:04Z</time>
      </trkpt>
      <trkpt lat="45.52378" lon="6.73979">
        <ele>1782</ele>
        <time>2021-08-12T07:53:05Z</time>
      </trkpt>
      <trkpt lat="45.52378" lon="6.73978">
        <ele>1782.1</ele>
        <time>2021-08-12T07:53:06Z</time>
      </trkpt>
      <trkpt lat="45.52377" lon="6.73978">
        <ele>1782.2</ele>
        <time>2021-08-12T07:53:07Z</time>
      </trkpt>
      <trkpt lat="45.52376" lon="6.73978">
        <ele>1782.3</ele>
        <time>2021-08-12T07:53:08Z</time>
      </trkpt>
      <trkpt lat="45.52375" lon="6.73978">
        <ele>1782.4</ele>
        <time>2021-08-12T07:53:09Z</time>
      </trkpt>
      <trkpt lat="45.52374" lon="6.73977">
        <ele>1782.5</ele>
        <time>2021-08-12T07:53:10Z</time>
      </trkpt>
      <trkpt lat="45.52373" lon="6.73977">
        <ele>1782.5</ele>
        <time>2021-08-12T07:53:11Z</time>
      </trkpt>
      <trkpt lat="45.52372" lon="6.73977">
        <ele>1782.6</ele>
        <time>2021-08-12T07:53:12Z</time>
      </trkpt>
      <trkpt lat="45.52371" lon="6.73976">
        <ele>1782.7</ele>
        <time>2021-08-12T07:53:13Z</time>
      </trkpt>
      <trkpt lat="45.52371" lon="6.73976">
        <ele>1782.8</ele>
        <time>2021-08-12T07:53:14Z</time>
      </trkpt>
      <trkpt lat="45.5237" lon="6.73976">
        <ele>1782.9</ele>
        <time>2021-08-12T07:53:15Z</time>
      </trkpt>
      <trkpt lat="45.52369" lon="6.73975">
        <ele>1783</ele>
        <time>2021-08-12T07:53:16Z</time>
      </trkpt>
      <trkpt lat="45.52368" lon="6.73975">
        <ele>1783.1</ele>
        <time>2021-08-12T07:53:17Z</time>
      </trkpt>
      <trkpt lat="45.52367" lon="6.73975">
        <ele>1783.2</ele>
        <time>2021-08-12T07:53:18Z</time>
      </trkpt>
      <trkpt lat="45.52366" lon="6.73974">
        <ele>1783.3</ele>
        <time>2021-08-12T07:53:19Z</time>
      </trkpt>
      <trkpt lat="45.52365" lon="6.73974">
        <ele>1783.4</ele>
        <time>2021-08-12T07:53:20Z</time>
      </trkpt>
      <trkpt lat="45.52364" lon="6.73974">
        <ele>1783.5</ele>
        <time>2021-08-12T07:53:21Z</time>
      </trkpt>
      <trkpt lat="45.52364" lon="6.73973">
        <ele>1783.6</ele>
        <time>2021-08-12T07:53:22Z</time>
      </trkpt>
      <trkpt lat="45.52363" lon="6.73973">
        <ele>1783.7</ele>
        <time>2021-08-12T07:53:23Z</time>
      </trkpt>
      <trkpt lat="45.52362" lon="6.73973">
        <ele>1783.8</ele>
        <time>2021-08-12T07:53:24Z</time>
      </trkpt>
      <trkpt lat="45.52361" lon="6.73972">
        <ele>1783.9</ele>
        <time>2021-08-12T07:53:25Z</time>
      </trkpt>
      <trkpt lat="45.5236" lon="6.73972">
        <ele>1783.9</ele>
        <time>2021-08-12T07:53:26Z</time>
      </trkpt>
      <trkpt lat="45.52359" lon="6.73972">
        <ele>1784</ele>
        <time>2021-08-12T07:53:27Z</time>
      </trkpt>
      <trkpt lat="45.52358" lon="6.73971">
        <ele>1784.1</ele>
        <time>2021-08-12T07:53:28Z</time>
      </trkpt>
      <trkpt lat="45.52358" lon="6.73971">
        <ele>1784.2</ele>
        <time>2021-08-12T07:53:29Z</time>
      </trkpt>
      <trkpt lat="45.52357" lon="6.7397">
        <ele>1784.3</ele>
        <time>2021-08-12T07:53:30Z</time>
      </trkpt>
      <trkpt lat="45.52356" lon="6.7397">
        <ele>1784.4</ele>
        <time>2021-08-12T07:53:31Z</time>
      </trkpt>
      <trkpt lat="45.52355" lon="6.7397">
        <ele>1784.5</ele>
        <time>2021-08-12T07:53:32Z</time>
      </trkpt>
      <trkpt lat="45.52354" lon="6.73969">
        <ele>1784.6</ele>
        <time>2021-08-12T07:53:33Z</time>
      </trkpt>
      <trkpt lat="45.52354" lon="6.73969">
        <ele>1784.7</ele>
        <time>2021-08-12T07:53:34Z</time>
      </trkpt>
      <trkpt lat="45.52353" lon="6.73968">
        <ele>1784.8</ele>
        <time>2021-08-12T07:53:35Z</time>
      </trkpt>
      <trkpt lat="45.52352" lon="6.73968">
        <ele>1784.8</ele>
        <time>2021-08-12T07:53:36Z</time>
      </trkpt>
      <trkpt lat="45.52351" lon="6.73967">
        <ele>1784.9</ele>
        <time>2021-08-12T07:53:37Z</time>
      </trkpt>
      <trkpt lat="45.5235" lon="6.73967">
        <ele>1785</ele>
        <time>2021-08-12T07:53:38Z</time>
      </trkpt>
      <trkpt lat="45.5235" lon="6.73966">
        <ele>1785.1</ele>
        <time>2021-08-12T07:53:39Z</time>
      </trkpt>
      <trkpt lat="45.52349" lon="6.73965">
        <ele>1785.2</ele>
        <time>2021-08-12T07:53:40Z</time>
      </trkpt>
      <trkpt lat="45.52348" lon="6.73965">
        <ele>1785.3</ele>
        <time>2021-08-12T07:53:41Z</time>
      </trkpt>
      <trkpt lat="45.52347" lon="6.73964">
        <ele>1785.4</ele>
        <time>2021-08-12T07:53:42Z</time>
      </trkpt>
      <trkpt lat="45.52346" lon="6.73963">
        <ele>1785.5</ele>
        <time>2021-08-12T07:53:43Z</time>
      </trkpt>
      <trkpt lat="45.52346" lon="6.73963">
        <ele>1785.5</ele>
        <time>2021-08-12T07:53:44Z</time>
      </trkpt>
      <trkpt lat="45.52345" lon="6.73962">
        <ele>1785.6</ele>
        <time>2021-08-12T07:53:45Z</time>
      </trkpt>
      <trkpt lat="45.52344" lon="6.73961">
        <ele>1785.7</ele>
        <time>2021-08-12T07:53:46Z</time>
      </trkpt>
      <trkpt lat="45.52344" lon="6.7396">
        <ele>1785.8</ele>
        <time>2021-08-12T07:53:47Z</time>
      </trkpt>
      <trkpt lat="45.52343" lon="6.7396">
        <ele>1785.9</ele>
        <time>2021-08-12T07:53:48Z</time>
      </trkpt>
      <trkpt lat="45.52342" lon="6.73959">
        <ele>1786</ele>
        <time>2021-08-12T07:53:49Z</time>
      </trkpt>
      <trkpt lat="45.52341" lon="6.73958">
        <ele>1786.1</ele>
        <time>2021-08-12T07:53:50Z</time>
      </trkpt>
      <trkpt lat="45.52341" lon="6.73957">
        <ele>1786.2</ele>
        <time>2021-08-12T07:53:51Z</time>
      </trkpt>
      <trkpt lat="45.5234" lon="6.73956">
        <ele>1786.3</ele>
        <time>2021-08-12T07:53:52Z</time>
      </trkpt>
      <trkpt lat="45.52339" lon="6.73955">
        <ele>1786.4</ele>
        <time>2021-08-12T07:53:53Z</time>
      </trkpt>
      <trkpt lat="45.52338" lon="6.73954">
        <ele>1786.5</ele>
        <time>2021-08-12T07:53:54Z</time>
      </trkpt>
      <trkpt lat="45.52338" lon="6.73952">
        <ele>1786.6</ele>
        <time>2021-08-12T07:53:55Z</time>
      </trkpt>
      <trkpt lat="45.52337" lon="6.73951">
        <ele>1786.7</ele>
        <time>2021-08-12T07:53:56Z</time>
      </trkpt>
      <trkpt lat="45.52336" lon="6.7395">
        <ele>1786.8</ele>
        <time>2021-08-12T07:53:57Z</time>
      </trkpt>
      <trkpt lat="45.52335" lon="6.73949">
        <ele>1786.9</ele>
        <time>2021-08-12T07:53:58Z</time>
      </trkpt>
      <trkpt lat="45.52335" lon="6.73948">
        <ele>1787</ele>
        <time>2021-08-12T07:53:59Z</time>
      </trkpt>
      <trkpt lat="45.52334" lon="6.73946">
        <ele>1787.1</ele>
        <time>2021-08-12T07:54:00Z</time>
      </trkpt>
      <trkpt lat="45.52333" lon="6.73945">
        <ele>1787.2</ele>
        <time>2021-08-12T07:54:01Z</time>
      </trkpt>
      <trkpt lat="45.52332" lon="6.73944">
        <ele>1787.3</ele>
        <time>2021-08-12T07:54:02Z</time>
      </trkpt>
      <trkpt lat="45.52332" lon="6.73943">
        <ele>1787.4</ele>
        <time>2021-08-12T07:54:03Z</time>
      </trkpt>
      <trkpt lat="45.52331" lon="6.73942">
        <ele>1787.5</ele>
        <time>2021-08-12T07:54:04Z</time>
      </trkpt>
      <trkpt lat="45.5233" lon="6.73941">
        <ele>1787.6</ele>
        <time>2021-08-12T07:54:05Z</time>
      </trkpt>
      <trkpt lat="45.52329" lon="6.73939">
        <ele>1787.7</ele>
        <time>2021-08-12T07:54:06Z</time>
      </trkpt>
      <trkpt lat="45.52329" lon="6.73938">
        <ele>1787.8</ele>
        <time>2021-08-12T07:54:07Z</time>
      </trkpt>
      <trkpt lat="45.52328" lon="6.73937">
        <ele>1787.9</ele>
        <time>2021-08-12T07:54:08Z</time>
      </trkpt>
      <trkpt lat="45.52327" lon="6.73936">
        <ele>1788</ele>
        <time>2021-08-12T07:54:09Z</time>
      </trkpt>
      <trkpt lat="45.52327" lon="6.73935">
        <ele>1788.1</ele>
        <time>2021-08-12T07:54:10Z</time>
      </trkpt>
      <trkpt lat="45.52326" lon="6.73934">
        <ele>1788.2</ele>
        <time>2021-08-12T07:54:11Z</time>
      </trkpt>
      <trkpt lat="45.52325" lon="6.73933">
        <ele>1788.3</ele>
        <time>2021-08-12T07:54:12Z</time>
      </trkpt>
      <trkpt lat="45.52325" lon="6.73932">
        <ele>1788.4</ele>
        <time>2021-08-12T07:54:13Z</time>
      </trkpt>
      <trkpt lat="45.52324" lon="6.73931">
        <ele>1788.5</ele>
        <time>2021-08-12T07:54:14Z</time>
      </trkpt>
      <trkpt lat="45.52323" lon="6.7393">
        <ele>1788.6</ele>
        <time>2021-08-12T07:54:15Z</time>
      </trkpt>
      <trkpt lat="45.52323" lon="6.73929">
        <ele>1788.7</ele>
        <time>2021-08-12T07:54:16Z</time>
      </trkpt>
      <trkpt lat="45.52322" lon="6.73928">
        <ele>1788.8</ele>
        <time>2021-08-12T07:54:17Z</time>
      </trkpt>
      <trkpt lat="45.52322" lon="6.73927">
        <ele>1788.9</ele>
        <time>2021-08-12T07:54:18Z</time>
      </trkpt>
      <trkpt lat="45.52321" lon="6.73926">
        <ele>1789</ele>
        <time>2021-08-12T07:54:19Z</time>
      </trkpt>
      <trkpt lat="45.5232" lon="6.73925">
        <ele>1789.1</ele>
        <time>2021-08-12T07:54:20Z</time>
      </trkpt>
      <trkpt lat="45.5232" lon="6.73924">
        <ele>1789.2</ele>
        <time>2021-08-12T07:54:21Z</time>
      </trkpt>
      <trkpt lat="45.52319" lon="6.73923">
        <ele>1789.3</ele>
        <time>2021-08-12T07:54:22Z</time>
      </trkpt>
      <trkpt lat="45.52319" lon="6.73922">
        <ele>1789.4</ele>
        <time>2021-08-12T07:54:23Z</time>
      </trkpt>
      <trkpt lat="45.52318" lon="6.73922">
        <ele>1789.5</ele>
        <time>2021-08-12T07:54:24Z</time>
      </trkpt>
      <trkpt lat="45.52318" lon="6.73921">
        <ele>1789.6</ele>
        <time>2021-08-12T07:54:25Z</time>
      </trkpt>
      <trkpt lat="45.52317" lon="6.7392">
        <ele>1789.6</ele>
        <time>2021-08-12T07:54:26Z</time>
      </trkpt>
      <trkpt lat="45.52317" lon="6.73919">
        <ele>1789.7</ele>
        <time>2021-08-12T07:54:27Z</time>
      </trkpt>
      <trkpt lat="45.52316" lon="6.73918">
        <ele>1789.8</ele>
        <time>2021-08-12T07:54:28Z</time>
      </trkpt>
      <trkpt lat="45.52316" lon="6.73918">
        <ele>1789.9</ele>
        <time>2021-08-12T07:54:29Z</time>
      </trkpt>
      <trkpt lat="45.52316" lon="6.73917">
        <ele>1790</ele>
        <time>2021-08-12T07:54:30Z</time>
      </trkpt>
      <trkpt lat="45.52315" lon="6.73916">
        <ele>1790.1</ele>
        <time>2021-08-12T07:54:31Z</time>
      </trkpt>
      <trkpt lat="45.52315" lon="6.73915">
        <ele>1790.1</ele>
        <time>2021-08-12T07:54:32Z</time>
      </trkpt>
      <trkpt lat="45.52314" lon="6.73914">
        <ele>1790.2</ele>
        <time>2021-08-12T07:54:33Z</time>
      </trkpt>
      <trkpt lat="45.52314" lon="6.73914">
        <ele>1790.3</ele>
        <time>2021-08-12T07:54:34Z</time>
      </trkpt>
      <trkpt lat="45.52313" lon="6.73913">
        <ele>1790.4</ele>
        <time>2021-08-12T07:54:35Z</time>
      </trkpt>
      <trkpt lat="45.52313" lon="6.73912">
        <ele>1790.5</ele>
        <time>2021-08-12T07:54:36Z</time>
      </trkpt>
      <trkpt lat="45.52312" lon="6.73911">
        <ele>1790.6</ele>
        <time>2021-08-12T07:54:37Z</time>
      </trkpt>
      <trkpt lat="45.52312" lon="6.7391">
        <ele>1790.6</ele>
        <time>2021-08-12T07:54:38Z</time>
      </trkpt>
      <trkpt lat="45.52311" lon="6.73909">
        <ele>1790.7</ele>
        <time>2021-08-12T07:54:39Z</time>
      </trkpt>
      <trkpt lat="45.5231" lon="6.73909">
        <ele>1790.8</ele>
        <time>2021-08-12T07:54:40Z</time>
      </trkpt>
      <trkpt lat="45.5231" lon="6.73908">
        <ele>1790.9</ele>
        <time>2021-08-12T07:54:41Z</time>
      </trkpt>
      <trkpt lat="45.52309" lon="6.73907">
        <ele>1791</ele>
        <time>2021-08-12T07:54:42Z</time>
      </trkpt>
      <trkpt lat="45.52309" lon="6.73906">
        <ele>1791.1</ele>
        <time>2021-08-12T07:54:43Z</time>
      </trkpt>
      <trkpt lat="45.52308" lon="6.73905">
        <ele>1791.2</ele>
        <time>2021-08-12T07:54:44Z</time>
      </trkpt>
      <trkpt lat="45.52307" lon="6.73904">
        <ele>1791.3</ele>
        <time>2021-08-12T07:54:45Z</time>
      </trkpt>
      <trkpt lat="45.52307" lon="6.73904">
        <ele>1791.3</ele>
        <time>2021-08-12T07:54:46Z</time>
      </trkpt>
      <trkpt lat="45.52306" lon="6.73903">
        <ele>1791.4</ele>
        <time>2021-08-12T07:54:47Z</time>
      </trkpt>
      <trkpt lat="45.52306" lon="6.73902">
        <ele>1791.5</ele>
        <time>2021-08-12T07:54:48Z</time>
      </trkpt>
      <trkpt lat="45.52305" lon="6.73902">
        <ele>1791.6</ele>
        <time>2021-08-12T07:54:49Z</time>
      </trkpt>
      <trkpt lat="45.52305" lon="6.73901">
        <ele>1791.6</ele>
        <time>2021-08-12T07:54:50Z</time>
      </trkpt>
      <trkpt lat="45.52304" lon="6.73901">
        <ele>1791.7</ele>
        <time>2021-08-12T07:54:51Z</time>
      </trkpt>
      <trkpt lat="45.52304" lon="6.73901">
        <ele>1791.7</ele>
        <time>2021-08-12T07:54:52Z</time>
      </trkpt>
      <trkpt lat="45.52304" lon="6.739">
        <ele>1791.8</ele>
        <time>2021-08-12T07:54:53Z</time>
      </trkpt>
      <trkpt lat="45.52304" lon="6.739">
        <ele>1791.8</ele>
        <time>2021-08-12T07:54:54Z</time>
      </trkpt>
      <trkpt lat="45.52303" lon="6.739">
        <ele>1791.8</ele>
        <time>2021-08-12T07:54:55Z</time>
      </trkpt>
      <trkpt lat="45.52303" lon="6.739">
        <ele>1791.9</ele>
        <time>2021-08-12T07:54:56Z</time>
      </trkpt>
      <trkpt lat="45.52302" lon="6.739">
        <ele>1791.9</ele>
        <time>2021-08-12T07:54:57Z</time>
      </trkpt>
      <trkpt lat="45.52302" lon="6.73899">
        <ele>1792</ele>
        <time>2021-08-12T07:54:58Z</time>
      </trkpt>
      <trkpt lat="45.52301" lon="6.73898">
        <ele>1792</ele>
        <time>2021-08-12T07:54:59Z</time>
      </trkpt>
      <trkpt lat="45.52301" lon="6.73898">
        <ele>1792.1</ele>
        <time>2021-08-12T07:55:00Z</time>
      </trkpt>
      <trkpt lat="45.523" lon="6.73897">
        <ele>1792.2</ele>
        <time>2021-08-12T07:55:01Z</time>
      </trkpt>
      <trkpt lat="45.523" lon="6.73896">
        <ele>1792.3</ele>
        <time>2021-08-12T07:55:02Z</time>
      </trkpt>
      <trkpt lat="45.52299" lon="6.73895">
        <ele>1792.4</ele>
        <time>2021-08-12T07:55:03Z</time>
      </trkpt>
      <trkpt lat="45.52298" lon="6.73895">
        <ele>1792.5</ele>
        <time>2021-08-12T07:55:04Z</time>
      </trkpt>
      <trkpt lat="45.52298" lon="6.73894">
        <ele>1792.6</ele>
        <time>2021-08-12T07:55:05Z</time>
      </trkpt>
      <trkpt lat="45.52297" lon="6.73893">
        <ele>1792.7</ele>
        <time>2021-08-12T07:55:06Z</time>
      </trkpt>
      <trkpt lat="45.52296" lon="6.73892">
        <ele>1792.8</ele>
        <time>2021-08-12T07:55:07Z</time>
      </trkpt>
      <trkpt lat="45.52295" lon="6.73891">
        <ele>1792.9</ele>
        <time>2021-08-12T07:55:08Z</time>
      </trkpt>
      <trkpt lat="45.52295" lon="6.7389">
        <ele>1793</ele>
        <time>2021-08-12T07:55:09Z</time>
      </trkpt>
      <trkpt lat="45.52294" lon="6.73889">
        <ele>1793.1</ele>
        <time>2021-08-12T07:55:10Z</time>
      </trkpt>
      <trkpt lat="45.52293" lon="6.73888">
        <ele>1793.2</ele>
        <time>2021-08-12T07:55:11Z</time>
      </trkpt>
      <trkpt lat="45.52292" lon="6.73887">
        <ele>1793.3</ele>
        <time>2021-08-12T07:55:12Z</time>
      </trkpt>
      <trkpt lat="45.52292" lon="6.73886">
        <ele>1793.4</ele>
        <time>2021-08-12T07:55:13Z</time>
      </trkpt>
      <trkpt lat="45.52291" lon="6.73885">
        <ele>1793.5</ele>
        <time>2021-08-12T07:55:14Z</time>
      </trkpt>
      <trkpt lat="45.5229" lon="6.73884">
        <ele>1793.6</ele>
        <time>2021-08-12T07:55:15Z</time>
      </trkpt>
      <trkpt lat="45.52289" lon="6.73883">
        <ele>1793.7</ele>
        <time>2021-08-12T07:55:16Z</time>
      </trkpt>
      <trkpt lat="45.52289" lon="6.73882">
        <ele>1793.9</ele>
        <time>2021-08-12T07:55:17Z</time>
      </trkpt>
      <trkpt lat="45.52288" lon="6.73881">
        <ele>1794</ele>
        <time>2021-08-12T07:55:18Z</time>
      </trkpt>
      <trkpt lat="45.52287" lon="6.7388">
        <ele>1794.1</ele>
        <time>2021-08-12T07:55:19Z</time>
      </trkpt>
      <trkpt lat="45.52286" lon="6.73879">
        <ele>1794.2</ele>
        <time>2021-08-12T07:55:20Z</time>
      </trkpt>
      <trkpt lat="45.52285" lon="6.73878">
        <ele>1794.3</ele>
        <time>2021-08-12T07:55:21Z</time>
      </trkpt>
      <trkpt lat="45.52285" lon="6.73877">
        <ele>1794.4</ele>
        <time>2021-08-12T07:55:22Z</time>
      </trkpt>
      <trkpt lat="45.52284" lon="6.73876">
        <ele>1794.5</ele>
        <time>2021-08-12T07:55:23Z</time>
      </trkpt>
      <trkpt lat="45.52283" lon="6.73876">
        <ele>1794.6</ele>
        <time>2021-08-12T07:55:24Z</time>
      </trkpt>
      <trkpt lat="45.52282" lon="6.73875">
        <ele>1794.7</ele>
        <time>2021-08-12T07:55:25Z</time>
      </trkpt>
      <trkpt lat="45.52282" lon="6.73874">
        <ele>1794.8</ele>
        <time>2021-08-12T07:55:26Z</time>
      </trkpt>
      <trkpt lat="45.52281" lon="6.73873">
        <ele>1794.9</ele>
        <time>2021-08-12T07:55:27Z</time>
      </trkpt>
      <trkpt lat="45.5228" lon="6.73872">
        <ele>1795</ele>
        <time>2021-08-12T07:55:28Z</time>
      </trkpt>
      <trkpt lat="45.52279" lon="6.73871">
        <ele>1795.1</ele>
        <time>2021-08-12T07:55:29Z</time>
      </trkpt>
      <trkpt lat="45.52278" lon="6.7387">
        <ele>1795.2</ele>
        <time>2021-08-12T07:55:30Z</time>
      </trkpt>
      <trkpt lat="45.52278" lon="6.73869">
        <ele>1795.3</ele>
        <time>2021-08-12T07:55:31Z</time>
      </trkpt>
      <trkpt lat="45.52277" lon="6.73868">
        <ele>1795.4</ele>
        <time>2021-08-12T07:55:32Z</time>
      </trkpt>
      <trkpt lat="45.52276" lon="6.73867">
        <ele>1795.5</ele>
        <time>2021-08-12T07:55:33Z</time>
      </trkpt>
      <trkpt lat="45.52275" lon="6.73867">
        <ele>1795.6</ele>
        <time>2021-08-12T07:55:34Z</time>
      </trkpt>
      <trkpt lat="45.52275" lon="6.73866">
        <ele>1795.7</ele>
        <time>2021-08-12T07:55:35Z</time>
      </trkpt>
      <trkpt lat="45.52274" lon="6.73865">
        <ele>1795.8</ele>
        <time>2021-08-12T07:55:36Z</time>
      </trkpt>
      <trkpt lat="45.52273" lon="6.73864">
        <ele>1795.9</ele>
        <time>2021-08-12T07:55:37Z</time>
      </trkpt>
      <trkpt lat="45.52272" lon="6.73863">
        <ele>1796</ele>
        <time>2021-08-12T07:55:38Z</time>
      </trkpt>
      <trkpt lat="45.52271" lon="6.73862">
        <ele>1796.1</ele>
        <time>2021-08-12T07:55:39Z</time>
      </trkpt>
      <trkpt lat="45.52271" lon="6.73861">
        <ele>1796.2</ele>
        <time>2021-08-12T07:55:40Z</time>
      </trkpt>
      <trkpt lat="45.5227" lon="6.7386">
        <ele>1796.3</ele>
        <time>2021-08-12T07:55:41Z</time>
      </trkpt>
      <trkpt lat="45.52269" lon="6.73859">
        <ele>1796.4</ele>
        <time>2021-08-12T07:55:42Z</time>
      </trkpt>
      <trkpt lat="45.52268" lon="6.73858">
        <ele>1796.5</ele>
        <time>2021-08-12T07:55:43Z</time>
      </trkpt>
      <trkpt lat="45.52267" lon="6.73857">
        <ele>1796.6</ele>
        <time>2021-08-12T07:55:44Z</time>
      </trkpt>
      <trkpt lat="45.52267" lon="6.73857">
        <ele>1796.7</ele>
        <time>2021-08-12T07:55:45Z</time>
      </trkpt>
      <trkpt lat="45.52266" lon="6.73856">
        <ele>1796.8</ele>
        <time>2021-08-12T07:55:46Z</time>
      </trkpt>
      <trkpt lat="45.52265" lon="6.73855">
        <ele>1796.9</ele>
        <time>2021-08-12T07:55:47Z</time>
      </trkpt>
      <trkpt lat="45.52264" lon="6.73854">
        <ele>1797</ele>
        <time>2021-08-12T07:55:48Z</time>
      </trkpt>
      <trkpt lat="45.52263" lon="6.73853">
        <ele>1797.1</ele>
        <time>2021-08-12T07:55:49Z</time>
      </trkpt>
      <trkpt lat="45.52262" lon="6.73853">
        <ele>1797.2</ele>
        <time>2021-08-12T07:55:50Z</time>
      </trkpt>
      <trkpt lat="45.52262" lon="6.73852">
        <ele>1797.3</ele>
        <time>2021-08-12T07:55:51Z</time>
      </trkpt>
      <trkpt lat="45.52261" lon="6.73851">
        <ele>1797.4</ele>
        <time>2021-08-12T07:55:52Z</time>
      </trkpt>
      <trkpt lat="45.5226" lon="6.73851">
        <ele>1797.4</ele>
        <time>2021-08-12T07:55:53Z</time>
      </trkpt>
      <trkpt lat="45.52259" lon="6.7385">
        <ele>1797.5</ele>
        <time>2021-08-12T07:55:54Z</time>
      </trkpt>
      <trkpt lat="45.52258" lon="6.7385">
        <ele>1797.6</ele>
        <time>2021-08-12T07:55:55Z</time>
      </trkpt>
      <trkpt lat="45.52257" lon="6.73849">
        <ele>1797.7</ele>
        <time>2021-08-12T07:55:56Z</time>
      </trkpt>
      <trkpt lat="45.52257" lon="6.73849">
        <ele>1797.8</ele>
        <time>2021-08-12T07:55:57Z</time>
      </trkpt>
      <trkpt lat="45.52256" lon="6.73849">
        <ele>1797.8</ele>
        <time>2021-08-12T07:55:58Z</time>
      </trkpt>
      <trkpt lat="45.52255" lon="6.73849">
        <ele>1797.9</ele>
        <time>2021-08-12T07:55:59Z</time>
      </trkpt>
      <trkpt lat="45.52254" lon="6.73849">
        <ele>1798</ele>
        <time>2021-08-12T07:56:00Z</time>
      </trkpt>
      <trkpt lat="45.52254" lon="6.73849">
        <ele>1798</ele>
        <time>2021-08-12T07:56:01Z</time>
      </trkpt>
      <trkpt lat="45.52253" lon="6.73849">
        <ele>1798.1</ele>
        <time>2021-08-12T07:56:02Z</time>
      </trkpt>
      <trkpt lat="45.52252" lon="6.73849">
        <ele>1798.2</ele>
        <time>2021-08-12T07:56:03Z</time>
      </trkpt>
      <trkpt lat="45.52251" lon="6.73849">
        <ele>1798.3</ele>
        <time>2021-08-12T07:56:04Z</time>
      </trkpt>
      <trkpt lat="45.52251" lon="6.73849">
        <ele>1798.4</ele>
        <time>2021-08-12T07:56:05Z</time>
      </trkpt>
      <trkpt lat="45.5225" lon="6.73849">
        <ele>1798.4</ele>
        <time>2021-08-12T07:56:06Z</time>
      </trkpt>
      <trkpt lat="45.52249" lon="6.73849">
        <ele>1798.5</ele>
        <time>2021-08-12T07:56:07Z</time>
      </trkpt>
      <trkpt lat="45.52248" lon="6.73849">
        <ele>1798.6</ele>
        <time>2021-08-12T07:56:08Z</time>
      </trkpt>
      <trkpt lat="45.52247" lon="6.73849">
        <ele>1798.7</ele>
        <time>2021-08-12T07:56:09Z</time>
      </trkpt>
      <trkpt lat="45.52246" lon="6.73849">
        <ele>1798.8</ele>
        <time>2021-08-12T07:56:10Z</time>
      </trkpt>
      <trkpt lat="45.52245" lon="6.73849">
        <ele>1798.8</ele>
        <time>2021-08-12T07:56:11Z</time>
      </trkpt>
      <trkpt lat="45.52245" lon="6.73849">
        <ele>1798.9</ele>
        <time>2021-08-12T07:56:12Z</time>
      </trkpt>
      <trkpt lat="45.52244" lon="6.73849">
        <ele>1799</ele>
        <time>2021-08-12T07:56:13Z</time>
      </trkpt>
      <trkpt lat="45.52243" lon="6.7385">
        <ele>1799</ele>
        <time>2021-08-12T07:56:14Z</time>
      </trkpt>
      <trkpt lat="45.52242" lon="6.7385">
        <ele>1799.1</ele>
        <time>2021-08-12T07:56:15Z</time>
      </trkpt>
      <trkpt lat="45.52242" lon="6.7385">
        <ele>1799.2</ele>
        <time>2021-08-12T07:56:16Z</time>
      </trkpt>
      <trkpt lat="45.52241" lon="6.7385">
        <ele>1799.2</ele>
        <time>2021-08-12T07:56:17Z</time>
      </trkpt>
      <trkpt lat="45.5224" lon="6.73851">
        <ele>1799.3</ele>
        <time>2021-08-12T07:56:18Z</time>
      </trkpt>
      <trkpt lat="45.52239" lon="6.73851">
        <ele>1799.3</ele>
        <time>2021-08-12T07:56:19Z</time>
      </trkpt>
      <trkpt lat="45.52238" lon="6.73851">
        <ele>1799.4</ele>
        <time>2021-08-12T07:56:20Z</time>
      </trkpt>
      <trkpt lat="45.52238" lon="6.73852">
        <ele>1799.5</ele>
        <time>2021-08-12T07:56:21Z</time>
      </trkpt>
      <trkpt lat="45.52237" lon="6.73852">
        <ele>1799.5</ele>
        <time>2021-08-12T07:56:22Z</time>
      </trkpt>
      <trkpt lat="45.52236" lon="6.73853">
        <ele>1799.6</ele>
        <time>2021-08-12T07:56:23Z</time>
      </trkpt>
      <trkpt lat="45.52235" lon="6.73853">
        <ele>1799.7</ele>
        <time>2021-08-12T07:56:24Z</time>
      </trkpt>
      <trkpt lat="45.52234" lon="6.73853">
        <ele>1799.7</ele>
        <time>2021-08-12T07:56:25Z</time>
      </trkpt>
      <trkpt lat="45.52233" lon="6.73854">
        <ele>1799.8</ele>
        <time>2021-08-12T07:56:26Z</time>
      </trkpt>
      <trkpt lat="45.52232" lon="6.73854">
        <ele>1799.9</ele>
        <time>2021-08-12T07:56:27Z</time>
      </trkpt>
      <trkpt lat="45.52231" lon="6.73854">
        <ele>1799.9</ele>
        <time>2021-08-12T07:56:28Z</time>
      </trkpt>
      <trkpt lat="45.52231" lon="6.73855">
        <ele>1800</ele>
        <time>2021-08-12T07:56:29Z</time>
      </trkpt>
      <trkpt lat="45.5223" lon="6.73855">
        <ele>1800</ele>
        <time>2021-08-12T07:56:30Z</time>
      </trkpt>
      <trkpt lat="45.52229" lon="6.73855">
        <ele>1800.1</ele>
        <time>2021-08-12T07:56:31Z</time>
      </trkpt>
      <trkpt lat="45.52228" lon="6.73855">
        <ele>1800.2</ele>
        <time>2021-08-12T07:56:32Z</time>
      </trkpt>
      <trkpt lat="45.52227" lon="6.73855">
        <ele>1800.2</ele>
        <time>2021-08-12T07:56:33Z</time>
      </trkpt>
      <trkpt lat="45.52226" lon="6.73855">
        <ele>1800.3</ele>
        <time>2021-08-12T07:56:34Z</time>
      </trkpt>
      <trkpt lat="45.52225" lon="6.73855">
        <ele>1800.4</ele>
        <time>2021-08-12T07:56:35Z</time>
      </trkpt>
      <trkpt lat="45.52224" lon="6.73854">
        <ele>1800.4</ele>
        <time>2021-08-12T07:56:36Z</time>
      </trkpt>
      <trkpt lat="45.52224" lon="6.73854">
        <ele>1800.5</ele>
        <time>2021-08-12T07:56:37Z</time>
      </trkpt>
      <trkpt lat="45.52223" lon="6.73854">
        <ele>1800.5</ele>
        <time>2021-08-12T07:56:38Z</time>
      </trkpt>
      <trkpt lat="45.52223" lon="6.73853">
        <ele>1800.5</ele>
        <time>2021-08-12T07:56:39Z</time>
      </trkpt>
      <trkpt lat="45.52223" lon="6.73853">
        <ele>1800.5</ele>
        <time>2021-08-12T07:56:40Z</time>
      </trkpt>
      <trkpt lat="45.52223" lon="6.73853">
        <ele>1800.5</ele>
        <time>2021-08-12T07:56:41Z</time>
      </trkpt>
      <trkpt lat="45.52223" lon="6.73853">
        <ele>1800.5</ele>
        <time>2021-08-12T07:56:42Z</time>
      </trkpt>
      <trkpt lat="45.52223" lon="6.73853">
        <ele>1800.5</ele>
        <time>2021-08-12T07:56:43Z</time>
      </trkpt>
      <trkpt lat="45.52223" lon="6.73853">
        <ele>1800.5</ele>
        <time>2021-08-12T07:56:44Z</time>
      </trkpt>
      <trkpt lat="45.52223" lon="6.73853">
        <ele>1800.5</ele>
        <time>2021-08-12T07:56:45Z</time>
      </trkpt>
      <trkpt lat="45.52223" lon="6.73853">
        <ele>1800.6</ele>
        <time>2021-08-12T07:56:46Z</time>
      </trkpt>
      <trkpt lat="45.52223" lon="6.73853">
        <ele>1800.6</ele>
        <time>2021-08-12T07:56:47Z</time>
      </trkpt>
      <trkpt lat="45.52223" lon="6.73853">
        <ele>1800.6</ele>
        <time>2021-08-12T07:56:48Z</time>
      </trkpt>
      <trkpt lat="45.52222" lon="6.73853">
        <ele>1800.6</ele>
        <time>2021-08-12T07:56:49Z</time>
      </trkpt>
      <trkpt lat="45.52222" lon="6.73853">
        <ele>1800.6</ele>
        <time>2021-08-12T07:56:50Z</time>
      </trkpt>
      <trkpt lat="45.52222" lon="6.73852">
        <ele>1800.6</ele>
        <time>2021-08-12T07:56:51Z</time>
      </trkpt>
      <trkpt lat="45.52222" lon="6.73852">
        <ele>1800.7</ele>
        <time>2021-08-12T07:56:52Z</time>
      </trkpt>
      <trkpt lat="45.52221" lon="6.73851">
        <ele>1800.7</ele>
        <time>2021-08-12T07:56:53Z</time>
      </trkpt>
      <trkpt lat="45.52221" lon="6.73851">
        <ele>1800.7</ele>
        <time>2021-08-12T07:56:54Z</time>
      </trkpt>
      <trkpt lat="45.52221" lon="6.7385">
        <ele>1800.8</ele>
        <time>2021-08-12T07:56:55Z</time>
      </trkpt>
      <trkpt lat="45.5222" lon="6.73849">
        <ele>1800.8</ele>
        <time>2021-08-12T07:56:56Z</time>
      </trkpt>
      <trkpt lat="45.5222" lon="6.73848">
        <ele>1800.9</ele>
        <time>2021-08-12T07:56:57Z</time>
      </trkpt>
      <trkpt lat="45.52219" lon="6.73847">
        <ele>1801</ele>
        <time>2021-08-12T07:56:58Z</time>
      </trkpt>
      <trkpt lat="45.52218" lon="6.73846">
        <ele>1801</ele>
        <time>2021-08-12T07:56:59Z</time>
      </trkpt>
      <trkpt lat="45.52218" lon="6.73845">
        <ele>1801.1</ele>
        <time>2021-08-12T07:57:00Z</time>
      </trkpt>
      <trkpt lat="45.52217" lon="6.73843">
        <ele>1801.2</ele>
        <time>2021-08-12T07:57:01Z</time>
      </trkpt>
      <trkpt lat="45.52216" lon="6.73842">
        <ele>1801.3</ele>
        <time>2021-08-12T07:57:02Z</time>
      </trkpt>
      <trkpt lat="45.52215" lon="6.73841">
        <ele>1801.4</ele>
        <time>2021-08-12T07:57:03Z</time>
      </trkpt>
      <trkpt lat="45.52215" lon="6.73839">
        <ele>1801.5</ele>
        <time>2021-08-12T07:57:04Z</time>
      </trkpt>
      <trkpt lat="45.52214" lon="6.73838">
        <ele>1801.6</ele>
        <time>2021-08-12T07:57:05Z</time>
      </trkpt>
      <trkpt lat="45.52213" lon="6.73836">
        <ele>1801.7</ele>
        <time>2021-08-12T07:57:06Z</time>
      </trkpt>
      <trkpt lat="45.52212" lon="6.73835">
        <ele>1801.8</ele>
        <time>2021-08-12T07:57:07Z</time>
      </trkpt>
      <trkpt lat="45.52211" lon="6.73833">
        <ele>1801.9</ele>
        <time>2021-08-12T07:57:08Z</time>
      </trkpt>
      <trkpt lat="45.52211" lon="6.73832">
        <ele>1802</ele>
        <time>2021-08-12T07:57:09Z</time>
      </trkpt>
      <trkpt lat="45.5221" lon="6.73831">
        <ele>1802.1</ele>
        <time>2021-08-12T07:57:10Z</time>
      </trkpt>
      <trkpt lat="45.52209" lon="6.7383">
        <ele>1802.1</ele>
        <time>2021-08-12T07:57:11Z</time>
      </trkpt>
      <trkpt lat="45.52208" lon="6.73828">
        <ele>1802.2</ele>
        <time>2021-08-12T07:57:12Z</time>
      </trkpt>
      <trkpt lat="45.52207" lon="6.73827">
        <ele>1802.3</ele>
        <time>2021-08-12T07:57:13Z</time>
      </trkpt>
      <trkpt lat="45.52207" lon="6.73826">
        <ele>1802.4</ele>
        <time>2021-08-12T07:57:14Z</time>
      </trkpt>
      <trkpt lat="45.52206" lon="6.73825">
        <ele>1802.5</ele>
        <time>2021-08-12T07:57:15Z</time>
      </trkpt>
      <trkpt lat="45.52205" lon="6.73825">
        <ele>1802.5</ele>
        <time>2021-08-12T07:57:16Z</time>
      </trkpt>
      <trkpt lat="45.52204" lon="6.73824">
        <ele>1802.6</ele>
        <time>2021-08-12T07:57:17Z</time>
      </trkpt>
      <trkpt lat="45.52203" lon="6.73823">
        <ele>1802.7</ele>
        <time>2021-08-12T07:57:18Z</time>
      </trkpt>
      <trkpt lat="45.52202" lon="6.73822">
        <ele>1802.8</ele>
        <time>2021-08-12T07:57:19Z</time>
      </trkpt>
      <trkpt lat="45.52201" lon="6.73822">
        <ele>1802.9</ele>
        <time>2021-08-12T07:57:20Z</time>
      </trkpt>
      <trkpt lat="45.522" lon="6.73821">
        <ele>1802.9</ele>
        <time>2021-08-12T07:57:21Z</time>
      </trkpt>
      <trkpt lat="45.52199" lon="6.7382">
        <ele>1803</ele>
        <time>2021-08-12T07:57:22Z</time>
      </trkpt>
      <trkpt lat="45.52197" lon="6.7382">
        <ele>1803.1</ele>
        <time>2021-08-12T07:57:23Z</time>
      </trkpt>
      <trkpt lat="45.52196" lon="6.73819">
        <ele>1803.2</ele>
        <time>2021-08-12T07:57:24Z</time>
      </trkpt>
      <trkpt lat="45.52195" lon="6.73819">
        <ele>1803.2</ele>
        <time>2021-08-12T07:57:25Z</time>
      </trkpt>
      <trkpt lat="45.52194" lon="6.73818">
        <ele>1803.3</ele>
        <time>2021-08-12T07:57:26Z</time>
      </trkpt>
      <trkpt lat="45.52193" lon="6.73818">
        <ele>1803.4</ele>
        <time>2021-08-12T07:57:27Z</time>
      </trkpt>
      <trkpt lat="45.52192" lon="6.73817">
        <ele>1803.5</ele>
        <time>2021-08-12T07:57:28Z</time>
      </trkpt>
      <trkpt lat="45.52191" lon="6.73816">
        <ele>1803.5</ele>
        <time>2021-08-12T07:57:29Z</time>
      </trkpt>
      <trkpt lat="45.5219" lon="6.73815">
        <ele>1803.6</ele>
        <time>2021-08-12T07:57:30Z</time>
      </trkpt>
      <trkpt lat="45.52189" lon="6.73815">
        <ele>1803.7</ele>
        <time>2021-08-12T07:57:31Z</time>
      </trkpt>
      <trkpt lat="45.52189" lon="6.73814">
        <ele>1803.7</ele>
        <time>2021-08-12T07:57:32Z</time>
      </trkpt>
      <trkpt lat="45.52188" lon="6.73813">
        <ele>1803.8</ele>
        <time>2021-08-12T07:57:33Z</time>
      </trkpt>
      <trkpt lat="45.52187" lon="6.73812">
        <ele>1803.8</ele>
        <time>2021-08-12T07:57:34Z</time>
      </trkpt>
      <trkpt lat="45.52186" lon="6.73811">
        <ele>1803.9</ele>
        <time>2021-08-12T07:57:35Z</time>
      </trkpt>
      <trkpt lat="45.52185" lon="6.7381">
        <ele>1803.9</ele>
        <time>2021-08-12T07:57:36Z</time>
      </trkpt>
      <trkpt lat="45.52184" lon="6.7381">
        <ele>1804</ele>
        <time>2021-08-12T07:57:37Z</time>
      </trkpt>
      <trkpt lat="45.52184" lon="6.73809">
        <ele>1804.1</ele>
        <time>2021-08-12T07:57:38Z</time>
      </trkpt>
      <trkpt lat="45.52183" lon="6.73808">
        <ele>1804.1</ele>
        <time>2021-08-12T07:57:39Z</time>
      </trkpt>
      <trkpt lat="45.52182" lon="6.73807">
        <ele>1804.2</ele>
        <time>2021-08-12T07:57:40Z</time>
      </trkpt>
      <trkpt lat="45.52181" lon="6.73806">
        <ele>1804.2</ele>
        <time>2021-08-12T07:57:41Z</time>
      </trkpt>
      <trkpt lat="45.5218" lon="6.73806">
        <ele>1804.3</ele>
        <time>2021-08-12T07:57:42Z</time>
      </trkpt>
      <trkpt lat="45.52179" lon="6.73805">
        <ele>1804.4</ele>
        <time>2021-08-12T07:57:43Z</time>
      </trkpt>
      <trkpt lat="45.52178" lon="6.73804">
        <ele>1804.4</ele>
        <time>2021-08-12T07:57:44Z</time>
      </trkpt>
      <trkpt lat="45.52177" lon="6.73803">
        <ele>1804.5</ele>
        <time>2021-08-12T07:57:45Z</time>
      </trkpt>
      <trkpt lat="45.52176" lon="6.73802">
        <ele>1804.5</ele>
        <time>2021-08-12T07:57:46Z</time>
      </trkpt>
      <trkpt lat="45.52175" lon="6.73802">
        <ele>1804.6</ele>
        <time>2021-08-12T07:57:47Z</time>
      </trkpt>
      <trkpt lat="45.52174" lon="6.73801">
        <ele>1804.7</ele>
        <time>2021-08-12T07:57:48Z</time>
      </trkpt>
      <trkpt lat="45.52173" lon="6.738">
        <ele>1804.7</ele>
        <time>2021-08-12T07:57:49Z</time>
      </trkpt>
      <trkpt lat="45.52173" lon="6.73799">
        <ele>1804.8</ele>
        <time>2021-08-12T07:57:50Z</time>
      </trkpt>
      <trkpt lat="45.52172" lon="6.73798">
        <ele>1804.8</ele>
        <time>2021-08-12T07:57:51Z</time>
      </trkpt>
      <trkpt lat="45.52171" lon="6.73798">
        <ele>1804.9</ele>
        <time>2021-08-12T07:57:52Z</time>
      </trkpt>
      <trkpt lat="45.5217" lon="6.73797">
        <ele>1805</ele>
        <time>2021-08-12T07:57:53Z</time>
      </trkpt>
      <trkpt lat="45.52169" lon="6.73796">
        <ele>1805</ele>
        <time>2021-08-12T07:57:54Z</time>
      </trkpt>
      <trkpt lat="45.52168" lon="6.73795">
        <ele>1805.1</ele>
        <time>2021-08-12T07:57:55Z</time>
      </trkpt>
      <trkpt lat="45.52167" lon="6.73794">
        <ele>1805.1</ele>
        <time>2021-08-12T07:57:56Z</time>
      </trkpt>
      <trkpt lat="45.52166" lon="6.73793">
        <ele>1805.2</ele>
        <time>2021-08-12T07:57:57Z</time>
      </trkpt>
      <trkpt lat="45.52166" lon="6.73792">
        <ele>1805.3</ele>
        <time>2021-08-12T07:57:58Z</time>
      </trkpt>
      <trkpt lat="45.52165" lon="6.73792">
        <ele>1805.3</ele>
        <time>2021-08-12T07:57:59Z</time>
      </trkpt>
      <trkpt lat="45.52164" lon="6.73791">
        <ele>1805.4</ele>
        <time>2021-08-12T07:58:00Z</time>
      </trkpt>
      <trkpt lat="45.52163" lon="6.7379">
        <ele>1805.5</ele>
        <time>2021-08-12T07:58:01Z</time>
      </trkpt>
      <trkpt lat="45.52162" lon="6.73789">
        <ele>1805.5</ele>
        <time>2021-08-12T07:58:02Z</time>
      </trkpt>
      <trkpt lat="45.52162" lon="6.73788">
        <ele>1805.6</ele>
        <time>2021-08-12T07:58:03Z</time>
      </trkpt>
      <trkpt lat="45.52161" lon="6.73787">
        <ele>1805.7</ele>
        <time>2021-08-12T07:58:04Z</time>
      </trkpt>
      <trkpt lat="45.5216" lon="6.73786">
        <ele>1805.7</ele>
        <time>2021-08-12T07:58:05Z</time>
      </trkpt>
      <trkpt lat="45.52159" lon="6.73785">
        <ele>1805.8</ele>
        <time>2021-08-12T07:58:06Z</time>
      </trkpt>
      <trkpt lat="45.52159" lon="6.73784">
        <ele>1805.9</ele>
        <time>2021-08-12T07:58:07Z</time>
      </trkpt>
      <trkpt lat="45.52158" lon="6.73783">
        <ele>1806</ele>
        <time>2021-08-12T07:58:08Z</time>
      </trkpt>
      <trkpt lat="45.52157" lon="6.73782">
        <ele>1806</ele>
        <time>2021-08-12T07:58:09Z</time>
      </trkpt>
      <trkpt lat="45.52156" lon="6.7378">
        <ele>1806.1</ele>
        <time>2021-08-12T07:58:10Z</time>
      </trkpt>
      <trkpt lat="45.52156" lon="6.73779">
        <ele>1806.2</ele>
        <time>2021-08-12T07:58:11Z</time>
      </trkpt>
      <trkpt lat="45.52155" lon="6.73778">
        <ele>1806.3</ele>
        <time>2021-08-12T07:58:12Z</time>
      </trkpt>
      <trkpt lat="45.52154" lon="6.73777">
        <ele>1806.4</ele>
        <time>2021-08-12T07:58:13Z</time>
      </trkpt>
      <trkpt lat="45.52154" lon="6.73776">
        <ele>1806.4</ele>
        <time>2021-08-12T07:58:14Z</time>
      </trkpt>
      <trkpt lat="45.52153" lon="6.73775">
        <ele>1806.5</ele>
        <time>2021-08-12T07:58:15Z</time>
      </trkpt>
      <trkpt lat="45.52152" lon="6.73774">
        <ele>1806.6</ele>
        <time>2021-08-12T07:58:16Z</time>
      </trkpt>
      <trkpt lat="45.52151" lon="6.73773">
        <ele>1806.7</ele>
        <time>2021-08-12T07:58:17Z</time>
      </trkpt>
      <trkpt lat="45.52151" lon="6.73772">
        <ele>1806.8</ele>
        <time>2021-08-12T07:58:18Z</time>
      </trkpt>
      <trkpt lat="45.5215" lon="6.73771">
        <ele>1806.9</ele>
        <time>2021-08-12T07:58:19Z</time>
      </trkpt>
      <trkpt lat="45.52149" lon="6.7377">
        <ele>1806.9</ele>
        <time>2021-08-12T07:58:20Z</time>
      </trkpt>
      <trkpt lat="45.52149" lon="6.73769">
        <ele>1807</ele>
        <time>2021-08-12T07:58:21Z</time>
      </trkpt>
      <trkpt lat="45.52148" lon="6.73767">
        <ele>1807.1</ele>
        <time>2021-08-12T07:58:22Z</time>
      </trkpt>
      <trkpt lat="45.52147" lon="6.73766">
        <ele>1807.2</ele>
        <time>2021-08-12T07:58:23Z</time>
      </trkpt>
      <trkpt lat="45.52147" lon="6.73765">
        <ele>1807.3</ele>
        <time>2021-08-12T07:58:24Z</time>
      </trkpt>
      <trkpt lat="45.52146" lon="6.73764">
        <ele>1807.3</ele>
        <time>2021-08-12T07:58:25Z</time>
      </trkpt>
      <trkpt lat="45.52145" lon="6.73763">
        <ele>1807.4</ele>
        <time>2021-08-12T07:58:26Z</time>
      </trkpt>
      <trkpt lat="45.52145" lon="6.73762">
        <ele>1807.5</ele>
        <time>2021-08-12T07:58:27Z</time>
      </trkpt>
      <trkpt lat="45.52144" lon="6.73761">
        <ele>1807.6</ele>
        <time>2021-08-12T07:58:28Z</time>
      </trkpt>
      <trkpt lat="45.52143" lon="6.7376">
        <ele>1807.7</ele>
        <time>2021-08-12T07:58:29Z</time>
      </trkpt>
      <trkpt lat="45.52143" lon="6.73759">
        <ele>1807.8</ele>
        <time>2021-08-12T07:58:30Z</time>
      </trkpt>
      <trkpt lat="45.52142" lon="6.73758">
        <ele>1807.9</ele>
        <time>2021-08-12T07:58:31Z</time>
      </trkpt>
      <trkpt lat="45.52141" lon="6.73757">
        <ele>1808</ele>
        <time>2021-08-12T07:58:32Z</time>
      </trkpt>
      <trkpt lat="45.52141" lon="6.73755">
        <ele>1808.1</ele>
        <time>2021-08-12T07:58:33Z</time>
      </trkpt>
      <trkpt lat="45.5214" lon="6.73754">
        <ele>1808.1</ele>
        <time>2021-08-12T07:58:34Z</time>
      </trkpt>
      <trkpt lat="45.52139" lon="6.73753">
        <ele>1808.2</ele>
        <time>2021-08-12T07:58:35Z</time>
      </trkpt>
      <trkpt lat="45.52139" lon="6.73752">
        <ele>1808.3</ele>
        <time>2021-08-12T07:58:36Z</time>
      </trkpt>
      <trkpt lat="45.52138" lon="6.73751">
        <ele>1808.4</ele>
        <time>2021-08-12T07:58:37Z</time>
      </trkpt>
      <trkpt lat="45.52137" lon="6.7375">
        <ele>1808.5</ele>
        <time>2021-08-12T07:58:38Z</time>
      </trkpt>
      <trkpt lat="45.52137" lon="6.73749">
        <ele>1808.6</ele>
        <time>2021-08-12T07:58:39Z</time>
      </trkpt>
      <trkpt lat="45.52136" lon="6.73748">
        <ele>1808.7</ele>
        <time>2021-08-12T07:58:40Z</time>
      </trkpt>
      <trkpt lat="45.52136" lon="6.73747">
        <ele>1808.8</ele>
        <time>2021-08-12T07:58:41Z</time>
      </trkpt>
      <trkpt lat="45.52135" lon="6.73746">
        <ele>1808.9</ele>
        <time>2021-08-12T07:58:42Z</time>
      </trkpt>
      <trkpt lat="45.52134" lon="6.73745">
        <ele>1809</ele>
        <time>2021-08-12T07:58:43Z</time>
      </trkpt>
      <trkpt lat="45.52134" lon="6.73744">
        <ele>1809.1</ele>
        <time>2021-08-12T07:58:44Z</time>
      </trkpt>
      <trkpt lat="45.52133" lon="6.73742">
        <ele>1809.2</ele>
        <time>2021-08-12T07:58:45Z</time>
      </trkpt>
      <trkpt lat="45.52133" lon="6.73741">
        <ele>1809.3</ele>
        <time>2021-08-12T07:58:46Z</time>
      </trkpt>
      <trkpt lat="45.52132" lon="6.7374">
        <ele>1809.4</ele>
        <time>2021-08-12T07:58:47Z</time>
      </trkpt>
      <trkpt lat="45.52132" lon="6.73739">
        <ele>1809.5</ele>
        <time>2021-08-12T07:58:48Z</time>
      </trkpt>
      <trkpt lat="45.52131" lon="6.73738">
        <ele>1809.6</ele>
        <time>2021-08-12T07:58:49Z</time>
      </trkpt>
      <trkpt lat="45.52131" lon="6.73737">
        <ele>1809.7</ele>
        <time>2021-08-12T07:58:50Z</time>
      </trkpt>
      <trkpt lat="45.5213" lon="6.73736">
        <ele>1809.8</ele>
        <time>2021-08-12T07:58:51Z</time>
      </trkpt>
      <trkpt lat="45.5213" lon="6.73735">
        <ele>1809.9</ele>
        <time>2021-08-12T07:58:52Z</time>
      </trkpt>
      <trkpt lat="45.52129" lon="6.73733">
        <ele>1810</ele>
        <time>2021-08-12T07:58:53Z</time>
      </trkpt>
      <trkpt lat="45.52129" lon="6.73732">
        <ele>1810.1</ele>
        <time>2021-08-12T07:58:54Z</time>
      </trkpt>
      <trkpt lat="45.52128" lon="6.73731">
        <ele>1810.2</ele>
        <time>2021-08-12T07:58:55Z</time>
      </trkpt>
      <trkpt lat="45.52128" lon="6.7373">
        <ele>1810.3</ele>
        <time>2021-08-12T07:58:56Z</time>
      </trkpt>
      <trkpt lat="45.52127" lon="6.73729">
        <ele>1810.4</ele>
        <time>2021-08-12T07:58:57Z</time>
      </trkpt>
      <trkpt lat="45.52127" lon="6.73728">
        <ele>1810.5</ele>
        <time>2021-08-12T07:58:58Z</time>
      </trkpt>
      <trkpt lat="45.52126" lon="6.73726">
        <ele>1810.6</ele>
        <time>2021-08-12T07:58:59Z</time>
      </trkpt>
      <trkpt lat="45.52126" lon="6.73725">
        <ele>1810.7</ele>
        <time>2021-08-12T07:59:00Z</time>
      </trkpt>
      <trkpt lat="45.52125" lon="6.73724">
        <ele>1810.8</ele>
        <time>2021-08-12T07:59:01Z</time>
      </trkpt>
      <trkpt lat="45.52125" lon="6.73723">
        <ele>1810.9</ele>
        <time>2021-08-12T07:59:02Z</time>
      </trkpt>
      <trkpt lat="45.52124" lon="6.73722">
        <ele>1811</ele>
        <time>2021-08-12T07:59:03Z</time>
      </trkpt>
      <trkpt lat="45.52124" lon="6.7372">
        <ele>1811</ele>
        <time>2021-08-12T07:59:04Z</time>
      </trkpt>
      <trkpt lat="45.52123" lon="6.73719">
        <ele>1811.2</ele>
        <time>2021-08-12T07:59:05Z</time>
      </trkpt>
      <trkpt lat="45.52123" lon="6.73718">
        <ele>1811.3</ele>
        <time>2021-08-12T07:59:06Z</time>
      </trkpt>
      <trkpt lat="45.52122" lon="6.73717">
        <ele>1811.4</ele>
        <time>2021-08-12T07:59:07Z</time>
      </trkpt>
      <trkpt lat="45.52122" lon="6.73716">
        <ele>1811.5</ele>
        <time>2021-08-12T07:59:08Z</time>
      </trkpt>
      <trkpt lat="45.52121" lon="6.73714">
        <ele>1811.6</ele>
        <time>2021-08-12T07:59:09Z</time>
      </trkpt>
      <trkpt lat="45.52121" lon="6.73713">
        <ele>1811.7</ele>
        <time>2021-08-12T07:59:10Z</time>
      </trkpt>
      <trkpt lat="45.5212" lon="6.73712">
        <ele>1811.8</ele>
        <time>2021-08-12T07:59:11Z</time>
      </trkpt>
      <trkpt lat="45.5212" lon="6.73711">
        <ele>1811.9</ele>
        <time>2021-08-12T07:59:12Z</time>
      </trkpt>
      <trkpt lat="45.52119" lon="6.7371">
        <ele>1812</ele>
        <time>2021-08-12T07:59:13Z</time>
      </trkpt>
      <trkpt lat="45.52118" lon="6.73709">
        <ele>1812.1</ele>
        <time>2021-08-12T07:59:14Z</time>
      </trkpt>
      <trkpt lat="45.52118" lon="6.73708">
        <ele>1812.2</ele>
        <time>2021-08-12T07:59:15Z</time>
      </trkpt>
      <trkpt lat="45.52117" lon="6.73707">
        <ele>1812.3</ele>
        <time>2021-08-12T07:59:16Z</time>
      </trkpt>
      <trkpt lat="45.52116" lon="6.73706">
        <ele>1812.4</ele>
        <time>2021-08-12T07:59:17Z</time>
      </trkpt>
      <trkpt lat="45.52115" lon="6.73705">
        <ele>1812.5</ele>
        <time>2021-08-12T07:59:18Z</time>
      </trkpt>
      <trkpt lat="45.52115" lon="6.73704">
        <ele>1812.6</ele>
        <time>2021-08-12T07:59:19Z</time>
      </trkpt>
      <trkpt lat="45.52114" lon="6.73703">
        <ele>1812.8</ele>
        <time>2021-08-12T07:59:20Z</time>
      </trkpt>
      <trkpt lat="45.52113" lon="6.73702">
        <ele>1812.9</ele>
        <time>2021-08-12T07:59:21Z</time>
      </trkpt>
      <trkpt lat="45.52113" lon="6.73702">
        <ele>1813</ele>
        <time>2021-08-12T07:59:22Z</time>
      </trkpt>
      <trkpt lat="45.52112" lon="6.73701">
        <ele>1813</ele>
        <time>2021-08-12T07:59:23Z</time>
      </trkpt>
      <trkpt lat="45.52111" lon="6.737">
        <ele>1813.1</ele>
        <time>2021-08-12T07:59:24Z</time>
      </trkpt>
      <trkpt lat="45.5211" lon="6.737">
        <ele>1813.2</ele>
        <time>2021-08-12T07:59:25Z</time>
      </trkpt>
      <trkpt lat="45.5211" lon="6.737">
        <ele>1813.3</ele>
        <time>2021-08-12T07:59:26Z</time>
      </trkpt>
      <trkpt lat="45.52109" lon="6.737">
        <ele>1813.4</ele>
        <time>2021-08-12T07:59:27Z</time>
      </trkpt>
      <trkpt lat="45.52109" lon="6.73699">
        <ele>1813.4</ele>
        <time>2021-08-12T07:59:28Z</time>
      </trkpt>
      <trkpt lat="45.52108" lon="6.73699">
        <ele>1813.5</ele>
        <time>2021-08-12T07:59:29Z</time>
      </trkpt>
      <trkpt lat="45.52108" lon="6.73699">
        <ele>1813.5</ele>
        <time>2021-08-12T07:59:30Z</time>
      </trkpt>
      <trkpt lat="45.52107" lon="6.73699">
        <ele>1813.6</ele>
        <time>2021-08-12T07:59:31Z</time>
      </trkpt>
      <trkpt lat="45.52107" lon="6.73699">
        <ele>1813.6</ele>
        <time>2021-08-12T07:59:32Z</time>
      </trkpt>
      <trkpt lat="45.52107" lon="6.73699">
        <ele>1813.6</ele>
        <time>2021-08-12T07:59:33Z</time>
      </trkpt>
      <trkpt lat="45.52106" lon="6.73699">
        <ele>1813.7</ele>
        <time>2021-08-12T07:59:34Z</time>
      </trkpt>
      <trkpt lat="45.52106" lon="6.73699">
        <ele>1813.7</ele>
        <time>2021-08-12T07:59:35Z</time>
      </trkpt>
      <trkpt lat="45.52106" lon="6.73699">
        <ele>1813.7</ele>
        <time>2021-08-12T07:59:36Z</time>
      </trkpt>
      <trkpt lat="45.52106" lon="6.73699">
        <ele>1813.7</ele>
        <time>2021-08-12T07:59:37Z</time>
      </trkpt>
      <trkpt lat="45.52106" lon="6.73699">
        <ele>1813.8</ele>
        <time>2021-08-12T07:59:38Z</time>
      </trkpt>
      <trkpt lat="45.52105" lon="6.73698">
        <ele>1813.8</ele>
        <time>2021-08-12T07:59:39Z</time>
      </trkpt>
      <trkpt lat="45.52105" lon="6.73698">
        <ele>1813.8</ele>
        <time>2021-08-12T07:59:40Z</time>
      </trkpt>
      <trkpt lat="45.52105" lon="6.73698">
        <ele>1813.9</ele>
        <time>2021-08-12T07:59:41Z</time>
      </trkpt>
      <trkpt lat="45.52104" lon="6.73698">
        <ele>1813.9</ele>
        <time>2021-08-12T07:59:42Z</time>
      </trkpt>
      <trkpt lat="45.52103" lon="6.73697">
        <ele>1814</ele>
        <time>2021-08-12T07:59:43Z</time>
      </trkpt>
      <trkpt lat="45.52103" lon="6.73697">
        <ele>1814.1</ele>
        <time>2021-08-12T07:59:44Z</time>
      </trkpt>
      <trkpt lat="45.52102" lon="6.73697">
        <ele>1814.2</ele>
        <time>2021-08-12T07:59:45Z</time>
      </trkpt>
      <trkpt lat="45.52101" lon="6.73696">
        <ele>1814.3</ele>
        <time>2021-08-12T07:59:46Z</time>
      </trkpt>
      <trkpt lat="45.521" lon="6.73696">
        <ele>1814.4</ele>
        <time>2021-08-12T07:59:47Z</time>
      </trkpt>
      <trkpt lat="45.52098" lon="6.73695">
        <ele>1814.5</ele>
        <time>2021-08-12T07:59:48Z</time>
      </trkpt>
      <trkpt lat="45.52097" lon="6.73695">
        <ele>1814.7</ele>
        <time>2021-08-12T07:59:49Z</time>
      </trkpt>
      <trkpt lat="45.52096" lon="6.73694">
        <ele>1814.8</ele>
        <time>2021-08-12T07:59:50Z</time>
      </trkpt>
      <trkpt lat="45.52095" lon="6.73694">
        <ele>1814.9</ele>
        <time>2021-08-12T07:59:51Z</time>
      </trkpt>
      <trkpt lat="45.52094" lon="6.73694">
        <ele>1815</ele>
        <time>2021-08-12T07:59:52Z</time>
      </trkpt>
      <trkpt lat="45.52093" lon="6.73693">
        <ele>1815.1</ele>
        <time>2021-08-12T07:59:53Z</time>
      </trkpt>
      <trkpt lat="45.52092" lon="6.73693">
        <ele>1815.2</ele>
        <time>2021-08-12T07:59:54Z</time>
      </trkpt>
      <trkpt lat="45.52092" lon="6.73693">
        <ele>1815.2</ele>
        <time>2021-08-12T07:59:55Z</time>
      </trkpt>
      <trkpt lat="45.52091" lon="6.73693">
        <ele>1815.2</ele>
        <time>2021-08-12T07:59:56Z</time>
      </trkpt>
      <trkpt lat="45.52091" lon="6.73693">
        <ele>1815.3</ele>
        <time>2021-08-12T07:59:57Z</time>
      </trkpt>
      <trkpt lat="45.52091" lon="6.73693">
        <ele>1815.3</ele>
        <time>2021-08-12T07:59:58Z</time>
      </trkpt>
      <trkpt lat="45.5209" lon="6.73693">
        <ele>1815.4</ele>
        <time>2021-08-12T07:59:59Z</time>
      </trkpt>
      <trkpt lat="45.5209" lon="6.73694">
        <ele>1815.4</ele>
        <time>2021-08-12T08:00:00Z</time>
      </trkpt>
      <trkpt lat="45.5209" lon="6.73694">
        <ele>1815.4</ele>
        <time>2021-08-12T08:00:01Z</time>
      </trkpt>
      <trkpt lat="45.52089" lon="6.73694">
        <ele>1815.5</ele>
        <time>2021-08-12T08:00:02Z</time>
      </trkpt>
      <trkpt lat="45.52089" lon="6.73694">
        <ele>1815.5</ele>
        <time>2021-08-12T08:00:03Z</time>
      </trkpt>
      <trkpt lat="45.52088" lon="6.73694">
        <ele>1815.6</ele>
        <time>2021-08-12T08:00:04Z</time>
      </trkpt>
      <trkpt lat="45.52088" lon="6.73694">
        <ele>1815.6</ele>
        <time>2021-08-12T08:00:05Z</time>
      </trkpt>
      <trkpt lat="45.52087" lon="6.73694">
        <ele>1815.7</ele>
        <time>2021-08-12T08:00:06Z</time>
      </trkpt>
      <trkpt lat="45.52086" lon="6.73694">
        <ele>1815.8</ele>
        <time>2021-08-12T08:00:07Z</time>
      </trkpt>
      <trkpt lat="45.52085" lon="6.73694">
        <ele>1815.9</ele>
        <time>2021-08-12T08:00:08Z</time>
      </trkpt>
      <trkpt lat="45.52084" lon="6.73694">
        <ele>1816</ele>
        <time>2021-08-12T08:00:09Z</time>
      </trkpt>
      <trkpt lat="45.52083" lon="6.73694">
        <ele>1816.1</ele>
        <time>2021-08-12T08:00:10Z</time>
      </trkpt>
      <trkpt lat="45.52082" lon="6.73694">
        <ele>1816.1</ele>
        <time>2021-08-12T08:00:11Z</time>
      </trkpt>
      <trkpt lat="45.52081" lon="6.73694">
        <ele>1816.2</ele>
        <time>2021-08-12T08:00:12Z</time>
      </trkpt>
      <trkpt lat="45.5208" lon="6.73694">
        <ele>1816.3</ele>
        <time>2021-08-12T08:00:13Z</time>
      </trkpt>
      <trkpt lat="45.52079" lon="6.73694">
        <ele>1816.4</ele>
        <time>2021-08-12T08:00:14Z</time>
      </trkpt>
      <trkpt lat="45.52078" lon="6.73694">
        <ele>1816.5</ele>
        <time>2021-08-12T08:00:15Z</time>
      </trkpt>
      <trkpt lat="45.52077" lon="6.73694">
        <ele>1816.6</ele>
        <time>2021-08-12T08:00:16Z</time>
      </trkpt>
      <trkpt lat="45.52077" lon="6.73694">
        <ele>1816.6</ele>
        <time>2021-08-12T08:00:17Z</time>
      </trkpt>
      <trkpt lat="45.52076" lon="6.73694">
        <ele>1816.7</ele>
        <time>2021-08-12T08:00:18Z</time>
      </trkpt>
      <trkpt lat="45.52075" lon="6.73694">
        <ele>1816.8</ele>
        <time>2021-08-12T08:00:19Z</time>
      </trkpt>
      <trkpt lat="45.52074" lon="6.73694">
        <ele>1816.9</ele>
        <time>2021-08-12T08:00:20Z</time>
      </trkpt>
      <trkpt lat="45.52073" lon="6.73694">
        <ele>1817</ele>
        <time>2021-08-12T08:00:21Z</time>
      </trkpt>
      <trkpt lat="45.52072" lon="6.73694">
        <ele>1817.1</ele>
        <time>2021-08-12T08:00:22Z</time>
      </trkpt>
      <trkpt lat="45.52071" lon="6.73695">
        <ele>1817.1</ele>
        <time>2021-08-12T08:00:23Z</time>
      </trkpt>
      <trkpt lat="45.5207" lon="6.73695">
        <ele>1817.2</ele>
        <time>2021-08-12T08:00:24Z</time>
      </trkpt>
      <trkpt lat="45.52069" lon="6.73695">
        <ele>1817.3</ele>
        <time>2021-08-12T08:00:25Z</time>
      </trkpt>
      <trkpt lat="45.52068" lon="6.73696">
        <ele>1817.4</ele>
        <time>2021-08-12T08:00:26Z</time>
      </trkpt>
      <trkpt lat="45.52067" lon="6.73696">
        <ele>1817.5</ele>
        <time>2021-08-12T08:00:27Z</time>
      </trkpt>
      <trkpt lat="45.52066" lon="6.73697">
        <ele>1817.6</ele>
        <time>2021-08-12T08:00:28Z</time>
      </trkpt>
      <trkpt lat="45.52065" lon="6.73697">
        <ele>1817.7</ele>
        <time>2021-08-12T08:00:29Z</time>
      </trkpt>
      <trkpt lat="45.52065" lon="6.73698">
        <ele>1817.8</ele>
        <time>2021-08-12T08:00:30Z</time>
      </trkpt>
      <trkpt lat="45.52064" lon="6.73699">
        <ele>1817.9</ele>
        <time>2021-08-12T08:00:31Z</time>
      </trkpt>
      <trkpt lat="45.52063" lon="6.73699">
        <ele>1818</ele>
        <time>2021-08-12T08:00:32Z</time>
      </trkpt>
      <trkpt lat="45.52062" lon="6.737">
        <ele>1818.1</ele>
        <time>2021-08-12T08:00:33Z</time>
      </trkpt>
      <trkpt lat="45.52061" lon="6.73701">
        <ele>1818.2</ele>
        <time>2021-08-12T08:00:34Z</time>
      </trkpt>
      <trkpt lat="45.5206" lon="6.73701">
        <ele>1818.2</ele>
        <time>2021-08-12T08:00:35Z</time>
      </trkpt>
      <trkpt lat="45.52059" lon="6.73702">
        <ele>1818.3</ele>
        <time>2021-08-12T08:00:36Z</time>
      </trkpt>
      <trkpt lat="45.52059" lon="6.73703">
        <ele>1818.4</ele>
        <time>2021-08-12T08:00:37Z</time>
      </trkpt>
      <trkpt lat="45.52058" lon="6.73703">
        <ele>1818.5</ele>
        <time>2021-08-12T08:00:38Z</time>
      </trkpt>
      <trkpt lat="45.52057" lon="6.73704">
        <ele>1818.6</ele>
        <time>2021-08-12T08:00:39Z</time>
      </trkpt>
      <trkpt lat="45.52056" lon="6.73705">
        <ele>1818.7</ele>
        <time>2021-08-12T08:00:40Z</time>
      </trkpt>
      <trkpt lat="45.52056" lon="6.73706">
        <ele>1818.8</ele>
        <time>2021-08-12T08:00:41Z</time>
      </trkpt>
      <trkpt lat="45.52055" lon="6.73707">
        <ele>1818.9</ele>
        <time>2021-08-12T08:00:42Z</time>
      </trkpt>
      <trkpt lat="45.52054" lon="6.73707">
        <ele>1819</ele>
        <time>2021-08-12T08:00:43Z</time>
      </trkpt>
      <trkpt lat="45.52054" lon="6.73708">
        <ele>1819.1</ele>
        <time>2021-08-12T08:00:44Z</time>
      </trkpt>
      <trkpt lat="45.52053" lon="6.73709">
        <ele>1819.2</ele>
        <time>2021-08-12T08:00:45Z</time>
      </trkpt>
      <trkpt lat="45.52052" lon="6.7371">
        <ele>1819.3</ele>
        <time>2021-08-12T08:00:46Z</time>
      </trkpt>
      <trkpt lat="45.52052" lon="6.73711">
        <ele>1819.4</ele>
        <time>2021-08-12T08:00:47Z</time>
      </trkpt>
      <trkpt lat="45.52051" lon="6.73712">
        <ele>1819.5</ele>
        <time>2021-08-12T08:00:48Z</time>
      </trkpt>
      <trkpt lat="45.52051" lon="6.73713">
        <ele>1819.6</ele>
        <time>2021-08-12T08:00:49Z</time>
      </trkpt>
      <trkpt lat="45.5205" lon="6.73714">
        <ele>1819.7</ele>
        <time>2021-08-12T08:00:50Z</time>
      </trkpt>
      <trkpt lat="45.52049" lon="6.73715">
        <ele>1819.8</ele>
        <time>2021-08-12T08:00:51Z</time>
      </trkpt>
      <trkpt lat="45.52049" lon="6.73716">
        <ele>1819.9</ele>
        <time>2021-08-12T08:00:52Z</time>
      </trkpt>
      <trkpt lat="45.52048" lon="6.73717">
        <ele>1820</ele>
        <time>2021-08-12T08:00:53Z</time>
      </trkpt>
      <trkpt lat="45.52048" lon="6.73718">
        <ele>1820.1</ele>
        <time>2021-08-12T08:00:54Z</time>
      </trkpt>
      <trkpt lat="45.52047" lon="6.73719">
        <ele>1820.2</ele>
        <time>2021-08-12T08:00:55Z</time>
      </trkpt>
      <trkpt lat="45.52047" lon="6.7372">
        <ele>1820.3</ele>
        <time>2021-08-12T08:00:56Z</time>
      </trkpt>
      <trkpt lat="45.52046" lon="6.73721">
        <ele>1820.4</ele>
        <time>2021-08-12T08:00:57Z</time>
      </trkpt>
      <trkpt lat="45.52046" lon="6.73722">
        <ele>1820.5</ele>
        <time>2021-08-12T08:00:58Z</time>
      </trkpt>
      <trkpt lat="45.52045" lon="6.73723">
        <ele>1820.6</ele>
        <time>2021-08-12T08:00:59Z</time>
      </trkpt>
      <trkpt lat="45.52045" lon="6.73724">
        <ele>1820.7</ele>
        <time>2021-08-12T08:01:00Z</time>
      </trkpt>
      <trkpt lat="45.52044" lon="6.73725">
        <ele>1820.8</ele>
        <time>2021-08-12T08:01:01Z</time>
      </trkpt>
      <trkpt lat="45.52043" lon="6.73726">
        <ele>1820.9</ele>
        <time>2021-08-12T08:01:02Z</time>
      </trkpt>
      <trkpt lat="45.52043" lon="6.73727">
        <ele>1821</ele>
        <time>2021-08-12T08:01:03Z</time>
      </trkpt>
      <trkpt lat="45.52042" lon="6.73728">
        <ele>1821.1</ele>
        <time>2021-08-12T08:01:04Z</time>
      </trkpt>
      <trkpt lat="45.52042" lon="6.73729">
        <ele>1821.2</ele>
        <time>2021-08-12T08:01:05Z</time>
      </trkpt>
      <trkpt lat="45.52041" lon="6.7373">
        <ele>1821.3</ele>
        <time>2021-08-12T08:01:06Z</time>
      </trkpt>
      <trkpt lat="45.5204" lon="6.73731">
        <ele>1821.4</ele>
        <time>2021-08-12T08:01:07Z</time>
      </trkpt>
      <trkpt lat="45.5204" lon="6.73732">
        <ele>1821.5</ele>
        <time>2021-08-12T08:01:08Z</time>
      </trkpt>
      <trkpt lat="45.52039" lon="6.73733">
        <ele>1821.6</ele>
        <time>2021-08-12T08:01:09Z</time>
      </trkpt>
      <trkpt lat="45.52038" lon="6.73734">
        <ele>1821.7</ele>
        <time>2021-08-12T08:01:10Z</time>
      </trkpt>
      <trkpt lat="45.52038" lon="6.73735">
        <ele>1821.8</ele>
        <time>2021-08-12T08:01:11Z</time>
      </trkpt>
      <trkpt lat="45.52037" lon="6.73736">
        <ele>1821.9</ele>
        <time>2021-08-12T08:01:12Z</time>
      </trkpt>
      <trkpt lat="45.52036" lon="6.73737">
        <ele>1822</ele>
        <time>2021-08-12T08:01:13Z</time>
      </trkpt>
      <trkpt lat="45.52035" lon="6.73738">
        <ele>1822.1</ele>
        <time>2021-08-12T08:01:14Z</time>
      </trkpt>
      <trkpt lat="45.52034" lon="6.73739">
        <ele>1822.2</ele>
        <time>2021-08-12T08:01:15Z</time>
      </trkpt>
      <trkpt lat="45.52033" lon="6.73739">
        <ele>1822.3</ele>
        <time>2021-08-12T08:01:16Z</time>
      </trkpt>
      <trkpt lat="45.52032" lon="6.7374">
        <ele>1822.4</ele>
        <time>2021-08-12T08:01:17Z</time>
      </trkpt>
      <trkpt lat="45.52031" lon="6.7374">
        <ele>1822.4</ele>
        <time>2021-08-12T08:01:18Z</time>
      </trkpt>
      <trkpt lat="45.52031" lon="6.73741">
        <ele>1822.5</ele>
        <time>2021-08-12T08:01:19Z</time>
      </trkpt>
      <trkpt lat="45.5203" lon="6.73741">
        <ele>1822.6</ele>
        <time>2021-08-12T08:01:20Z</time>
      </trkpt>
      <trkpt lat="45.52029" lon="6.73742">
        <ele>1822.7</ele>
        <time>2021-08-12T08:01:21Z</time>
      </trkpt>
      <trkpt lat="45.52028" lon="6.73742">
        <ele>1822.8</ele>
        <time>2021-08-12T08:01:22Z</time>
      </trkpt>
      <trkpt lat="45.52027" lon="6.73742">
        <ele>1822.9</ele>
        <time>2021-08-12T08:01:23Z</time>
      </trkpt>
      <trkpt lat="45.52026" lon="6.73742">
        <ele>1822.9</ele>
        <time>2021-08-12T08:01:24Z</time>
      </trkpt>
      <trkpt lat="45.52025" lon="6.73742">
        <ele>1823</ele>
        <time>2021-08-12T08:01:25Z</time>
      </trkpt>
      <trkpt lat="45.52024" lon="6.73742">
        <ele>1823.1</ele>
        <time>2021-08-12T08:01:26Z</time>
      </trkpt>
      <trkpt lat="45.52023" lon="6.73742">
        <ele>1823.2</ele>
        <time>2021-08-12T08:01:27Z</time>
      </trkpt>
      <trkpt lat="45.52022" lon="6.73741">
        <ele>1823.3</ele>
        <time>2021-08-12T08:01:28Z</time>
      </trkpt>
      <trkpt lat="45.52021" lon="6.73741">
        <ele>1823.4</ele>
        <time>2021-08-12T08:01:29Z</time>
      </trkpt>
      <trkpt lat="45.5202" lon="6.73741">
        <ele>1823.4</ele>
        <time>2021-08-12T08:01:30Z</time>
      </trkpt>
      <trkpt lat="45.52019" lon="6.73741">
        <ele>1823.5</ele>
        <time>2021-08-12T08:01:31Z</time>
      </trkpt>
      <trkpt lat="45.52018" lon="6.7374">
        <ele>1823.6</ele>
        <time>2021-08-12T08:01:32Z</time>
      </trkpt>
      <trkpt lat="45.52017" lon="6.7374">
        <ele>1823.7</ele>
        <time>2021-08-12T08:01:33Z</time>
      </trkpt>
      <trkpt lat="45.52016" lon="6.7374">
        <ele>1823.8</ele>
        <time>2021-08-12T08:01:34Z</time>
      </trkpt>
      <trkpt lat="45.52015" lon="6.7374">
        <ele>1823.9</ele>
        <time>2021-08-12T08:01:35Z</time>
      </trkpt>
      <trkpt lat="45.52014" lon="6.73739">
        <ele>1824</ele>
        <time>2021-08-12T08:01:36Z</time>
      </trkpt>
      <trkpt lat="45.52013" lon="6.73739">
        <ele>1824.1</ele>
        <time>2021-08-12T08:01:37Z</time>
      </trkpt>
      <trkpt lat="45.52012" lon="6.73738">
        <ele>1824.2</ele>
        <time>2021-08-12T08:01:38Z</time>
      </trkpt>
      <trkpt lat="45.52011" lon="6.73738">
        <ele>1824.3</ele>
        <time>2021-08-12T08:01:39Z</time>
      </trkpt>
      <trkpt lat="45.5201" lon="6.73738">
        <ele>1824.4</ele>
        <time>2021-08-12T08:01:40Z</time>
      </trkpt>
      <trkpt lat="45.52009" lon="6.73737">
        <ele>1824.5</ele>
        <time>2021-08-12T08:01:41Z</time>
      </trkpt>
      <trkpt lat="45.52008" lon="6.73737">
        <ele>1824.6</ele>
        <time>2021-08-12T08:01:42Z</time>
      </trkpt>
      <trkpt lat="45.52007" lon="6.73736">
        <ele>1824.7</ele>
        <time>2021-08-12T08:01:43Z</time>
      </trkpt>
      <trkpt lat="45.52006" lon="6.73735">
        <ele>1824.8</ele>
        <time>2021-08-12T08:01:44Z</time>
      </trkpt>
      <trkpt lat="45.52005" lon="6.73735">
        <ele>1824.9</ele>
        <time>2021-08-12T08:01:45Z</time>
      </trkpt>
      <trkpt lat="45.52004" lon="6.73734">
        <ele>1825</ele>
        <time>2021-08-12T08:01:46Z</time>
      </trkpt>
      <trkpt lat="45.52004" lon="6.73734">
        <ele>1825.1</ele>
        <time>2021-08-12T08:01:47Z</time>
      </trkpt>
      <trkpt lat="45.52003" lon="6.73733">
        <ele>1825.2</ele>
        <time>2021-08-12T08:01:48Z</time>
      </trkpt>
      <trkpt lat="45.52002" lon="6.73733">
        <ele>1825.3</ele>
        <time>2021-08-12T08:01:49Z</time>
      </trkpt>
      <trkpt lat="45.52001" lon="6.73733">
        <ele>1825.4</ele>
        <time>2021-08-12T08:01:50Z</time>
      </trkpt>
      <trkpt lat="45.52" lon="6.73733">
        <ele>1825.5</ele>
        <time>2021-08-12T08:01:51Z</time>
      </trkpt>
      <trkpt lat="45.51999" lon="6.73733">
        <ele>1825.5</ele>
        <time>2021-08-12T08:01:52Z</time>
      </trkpt>
      <trkpt lat="45.51998" lon="6.73733">
        <ele>1825.6</ele>
        <time>2021-08-12T08:01:53Z</time>
      </trkpt>
      <trkpt lat="45.51997" lon="6.73733">
        <ele>1825.7</ele>
        <time>2021-08-12T08:01:54Z</time>
      </trkpt>
      <trkpt lat="45.51996" lon="6.73734">
        <ele>1825.8</ele>
        <time>2021-08-12T08:01:55Z</time>
      </trkpt>
      <trkpt lat="45.51995" lon="6.73734">
        <ele>1825.9</ele>
        <time>2021-08-12T08:01:56Z</time>
      </trkpt>
      <trkpt lat="45.51994" lon="6.73734">
        <ele>1826</ele>
        <time>2021-08-12T08:01:57Z</time>
      </trkpt>
      <trkpt lat="45.51993" lon="6.73735">
        <ele>1826.1</ele>
        <time>2021-08-12T08:01:58Z</time>
      </trkpt>
      <trkpt lat="45.51992" lon="6.73735">
        <ele>1826.2</ele>
        <time>2021-08-12T08:01:59Z</time>
      </trkpt>
      <trkpt lat="45.51991" lon="6.73736">
        <ele>1826.3</ele>
        <time>2021-08-12T08:02:00Z</time>
      </trkpt>
      <trkpt lat="45.5199" lon="6.73736">
        <ele>1826.4</ele>
        <time>2021-08-12T08:02:01Z</time>
      </trkpt>
      <trkpt lat="45.51989" lon="6.73737">
        <ele>1826.5</ele>
        <time>2021-08-12T08:02:02Z</time>
      </trkpt>
      <trkpt lat="45.51988" lon="6.73737">
        <ele>1826.6</ele>
        <time>2021-08-12T08:02:03Z</time>
      </trkpt>
      <trkpt lat="45.51987" lon="6.73738">
        <ele>1826.7</ele>
        <time>2021-08-12T08:02:04Z</time>
      </trkpt>
      <trkpt lat="45.51986" lon="6.73738">
        <ele>1826.8</ele>
        <time>2021-08-12T08:02:05Z</time>
      </trkpt>
      <trkpt lat="45.51985" lon="6.73739">
        <ele>1826.9</ele>
        <time>2021-08-12T08:02:06Z</time>
      </trkpt>
      <trkpt lat="45.51985" lon="6.73739">
        <ele>1827</ele>
        <time>2021-08-12T08:02:07Z</time>
      </trkpt>
      <trkpt lat="45.51984" lon="6.73739">
        <ele>1827</ele>
        <time>2021-08-12T08:02:08Z</time>
      </trkpt>
      <trkpt lat="45.51983" lon="6.7374">
        <ele>1827.1</ele>
        <time>2021-08-12T08:02:09Z</time>
      </trkpt>
      <trkpt lat="45.51982" lon="6.7374">
        <ele>1827.2</ele>
        <time>2021-08-12T08:02:10Z</time>
      </trkpt>
      <trkpt lat="45.51981" lon="6.7374">
        <ele>1827.3</ele>
        <time>2021-08-12T08:02:11Z</time>
      </trkpt>
      <trkpt lat="45.5198" lon="6.7374">
        <ele>1827.4</ele>
        <time>2021-08-12T08:02:12Z</time>
      </trkpt>
      <trkpt lat="45.51979" lon="6.7374">
        <ele>1827.5</ele>
        <time>2021-08-12T08:02:13Z</time>
      </trkpt>
      <trkpt lat="45.51978" lon="6.7374">
        <ele>1827.6</ele>
        <time>2021-08-12T08:02:14Z</time>
      </trkpt>
      <trkpt lat="45.51977" lon="6.7374">
        <ele>1827.7</ele>
        <time>2021-08-12T08:02:15Z</time>
      </trkpt>
      <trkpt lat="45.51976" lon="6.73739">
        <ele>1827.7</ele>
        <time>2021-08-12T08:02:16Z</time>
      </trkpt>
      <trkpt lat="45.51975" lon="6.73739">
        <ele>1827.8</ele>
        <time>2021-08-12T08:02:17Z</time>
      </trkpt>
      <trkpt lat="45.51975" lon="6.73739">
        <ele>1827.9</ele>
        <time>2021-08-12T08:02:18Z</time>
      </trkpt>
      <trkpt lat="45.51974" lon="6.73739">
        <ele>1828</ele>
        <time>2021-08-12T08:02:19Z</time>
      </trkpt>
      <trkpt lat="45.51973" lon="6.73739">
        <ele>1828.1</ele>
        <time>2021-08-12T08:02:20Z</time>
      </trkpt>
      <trkpt lat="45.51972" lon="6.73739">
        <ele>1828.1</ele>
        <time>2021-08-12T08:02:21Z</time>
      </trkpt>
      <trkpt lat="45.51971" lon="6.7374">
        <ele>1828</ele>
        <time>2021-08-12T08:02:22Z</time>
      </trkpt>
      <trkpt lat="45.5197" lon="6.7374">
        <ele>1828</ele>
        <time>2021-08-12T08:02:23Z</time>
      </trkpt>
      <trkpt lat="45.51969" lon="6.7374">
        <ele>1828</ele>
        <time>2021-08-12T08:02:24Z</time>
      </trkpt>
      <trkpt lat="45.51968" lon="6.7374">
        <ele>1828</ele>
        <time>2021-08-12T08:02:25Z</time>
      </trkpt>
      <trkpt lat="45.51967" lon="6.73741">
        <ele>1828</ele>
        <time>2021-08-12T08:02:26Z</time>
      </trkpt>
      <trkpt lat="45.51967" lon="6.73741">
        <ele>1828</ele>
        <time>2021-08-12T08:02:27Z</time>
      </trkpt>
      <trkpt lat="45.51966" lon="6.73741">
        <ele>1827.9</ele>
        <time>2021-08-12T08:02:28Z</time>
      </trkpt>
      <trkpt lat="45.51965" lon="6.73742">
        <ele>1827.9</ele>
        <time>2021-08-12T08:02:29Z</time>
      </trkpt>
      <trkpt lat="45.51965" lon="6.73742">
        <ele>1827.9</ele>
        <time>2021-08-12T08:02:30Z</time>
      </trkpt>
      <trkpt lat="45.51964" lon="6.73743">
        <ele>1827.9</ele>
        <time>2021-08-12T08:02:31Z</time>
      </trkpt>
      <trkpt lat="45.51963" lon="6.73743">
        <ele>1827.9</ele>
        <time>2021-08-12T08:02:32Z</time>
      </trkpt>
      <trkpt lat="45.51963" lon="6.73743">
        <ele>1827.9</ele>
        <time>2021-08-12T08:02:33Z</time>
      </trkpt>
      <trkpt lat="45.51962" lon="6.73744">
        <ele>1827.8</ele>
        <time>2021-08-12T08:02:34Z</time>
      </trkpt>
      <trkpt lat="45.51961" lon="6.73744">
        <ele>1827.8</ele>
        <time>2021-08-12T08:02:35Z</time>
      </trkpt>
      <trkpt lat="45.5196" lon="6.73745">
        <ele>1827.8</ele>
        <time>2021-08-12T08:02:36Z</time>
      </trkpt>
      <trkpt lat="45.51959" lon="6.73745">
        <ele>1827.8</ele>
        <time>2021-08-12T08:02:37Z</time>
      </trkpt>
      <trkpt lat="45.51959" lon="6.73745">
        <ele>1827.7</ele>
        <time>2021-08-12T08:02:38Z</time>
      </trkpt>
      <trkpt lat="45.51959" lon="6.73745">
        <ele>1827.7</ele>
        <time>2021-08-12T08:02:39Z</time>
      </trkpt>
      <trkpt lat="45.51958" lon="6.73745">
        <ele>1827.7</ele>
        <time>2021-08-12T08:02:40Z</time>
      </trkpt>
      <trkpt lat="45.51958" lon="6.73745">
        <ele>1827.7</ele>
        <time>2021-08-12T08:02:41Z</time>
      </trkpt>
      <trkpt lat="45.51958" lon="6.73745">
        <ele>1827.7</ele>
        <time>2021-08-12T08:02:42Z</time>
      </trkpt>
      <trkpt lat="45.51958" lon="6.73745">
        <ele>1827.7</ele>
        <time>2021-08-12T08:02:43Z</time>
      </trkpt>
      <trkpt lat="45.51959" lon="6.73745">
        <ele>1827.7</ele>
        <time>2021-08-12T08:02:44Z</time>
      </trkpt>
      <trkpt lat="45.51959" lon="6.73745">
        <ele>1827.7</ele>
        <time>2021-08-12T08:02:45Z</time>
      </trkpt>
      <trkpt lat="45.51959" lon="6.73745">
        <ele>1827.7</ele>
        <time>2021-08-12T08:02:46Z</time>
      </trkpt>
      <trkpt lat="45.51959" lon="6.73745">
        <ele>1827.7</ele>
        <time>2021-08-12T08:02:47Z</time>
      </trkpt>
      <trkpt lat="45.51959" lon="6.73745">
        <ele>1827.7</ele>
        <time>2021-08-12T08:02:48Z</time>
      </trkpt>
      <trkpt lat="45.51959" lon="6.73745">
        <ele>1827.7</ele>
        <time>2021-08-12T08:02:49Z</time>
      </trkpt>
      <trkpt lat="45.51959" lon="6.73745">
        <ele>1827.7</ele>
        <time>2021-08-12T08:02:50Z</time>
      </trkpt>
      <trkpt lat="45.51959" lon="6.73745">
        <ele>1827.7</ele>
        <time>2021-08-12T08:02:51Z</time>
      </trkpt>
      <trkpt lat="45.51959" lon="6.73745">
        <ele>1827.7</ele>
        <time>2021-08-12T08:02:52Z</time>
      </trkpt>
      <trkpt lat="45.51959" lon="6.73745">
        <ele>1827.7</ele>
        <time>2021-08-12T08:02:53Z</time>
      </trkpt>
      <trkpt lat="45.51959" lon="6.73745">
        <ele>1827.7</ele>
        <time>2021-08-12T08:02:54Z</time>
      </trkpt>
      <trkpt lat="45.51959" lon="6.73745">
        <ele>1827.7</ele>
        <time>2021-08-12T08:02:55Z</time>
      </trkpt>
      <trkpt lat="45.51959" lon="6.73745">
        <ele>1827.7</ele>
        <time>2021-08-12T08:02:56Z</time>
      </trkpt>
      <trkpt lat="45.51959" lon="6.73745">
        <ele>1827.7</ele>
        <time>2021-08-12T08:02:57Z</time>
      </trkpt>
      <trkpt lat="45.51959" lon="6.73745">
        <ele>1827.7</ele>
        <time>2021-08-12T08:02:58Z</time>
      </trkpt>
      <trkpt lat="45.51959" lon="6.73745">
        <ele>1827.7</ele>
        <time>2021-08-12T08:02:59Z</time>
      </trkpt>
      <trkpt lat="45.51959" lon="6.73745">
        <ele>1827.7</ele>
        <time>2021-08-12T08:03:00Z</time>
      </trkpt>
      <trkpt lat="45.51959" lon="6.73745">
        <ele>1827.7</ele>
        <time>2021-08-12T08:03:01Z</time>
      </trkpt>
      <trkpt lat="45.51959" lon="6.73745">
        <ele>1827.7</ele>
        <time>2021-08-12T08:03:02Z</time>
      </trkpt>
      <trkpt lat="45.51959" lon="6.73745">
        <ele>1827.7</ele>
        <time>2021-08-12T08:03:03Z</time>
      </trkpt>
      <trkpt lat="45.51959" lon="6.73745">
        <ele>1827.7</ele>
        <time>2021-08-12T08:03:04Z</time>
      </trkpt>
      <trkpt lat="45.51959" lon="6.73745">
        <ele>1827.7</ele>
        <time>2021-08-12T08:03:05Z</time>
      </trkpt>
      <trkpt lat="45.51959" lon="6.73745">
        <ele>1827.7</ele>
        <time>2021-08-12T08:03:06Z</time>
      </trkpt>
      <trkpt lat="45.51959" lon="6.73745">
        <ele>1827.7</ele>
        <time>2021-08-12T08:03:07Z</time>
      </trkpt>
      <trkpt lat="45.51959" lon="6.73745">
        <ele>1827.7</ele>
        <time>2021-08-12T08:03:08Z</time>
      </trkpt>
      <trkpt lat="45.51959" lon="6.73745">
        <ele>1827.7</ele>
        <time>2021-08-12T08:03:09Z</time>
      </trkpt>
      <trkpt lat="45.51959" lon="6.73745">
        <ele>1827.7</ele>
        <time>2021-08-12T08:03:10Z</time>
      </trkpt>
      <trkpt lat="45.51959" lon="6.73745">
        <ele>1827.7</ele>
        <time>2021-08-12T08:03:11Z</time>
      </trkpt>
      <trkpt lat="45.51959" lon="6.73745">
        <ele>1827.7</ele>
        <time>2021-08-12T08:03:12Z</time>
      </trkpt>
      <trkpt lat="45.51959" lon="6.73745">
        <ele>1827.7</ele>
        <time>2021-08-12T08:03:13Z</time>
      </trkpt>
      <trkpt lat="45.51959" lon="6.73745">
        <ele>1827.7</ele>
        <time>2021-08-12T08:03:14Z</time>
      </trkpt>
      <trkpt lat="45.51959" lon="6.73745">
        <ele>1827.7</ele>
        <time>2021-08-12T08:03:15Z</time>
      </trkpt>
      <trkpt lat="45.51959" lon="6.73745">
        <ele>1827.7</ele>
        <time>2021-08-12T08:03:16Z</time>
      </trkpt>
      <trkpt lat="45.51959" lon="6.73745">
        <ele>1827.7</ele>
        <time>2021-08-12T08:03:17Z</time>
      </trkpt>
      <trkpt lat="45.51959" lon="6.73745">
        <ele>1827.7</ele>
        <time>2021-08-12T08:03:18Z</time>
      </trkpt>
      <trkpt lat="45.51959" lon="6.73745">
        <ele>1827.7</ele>
        <time>2021-08-12T08:03:19Z</time>
      </trkpt>
      <trkpt lat="45.51959" lon="6.73745">
        <ele>1827.7</ele>
        <time>2021-08-12T08:03:20Z</time>
      </trkpt>
      <trkpt lat="45.51958" lon="6.73745">
        <ele>1827.7</ele>
        <time>2021-08-12T08:03:21Z</time>
      </trkpt>
      <trkpt lat="45.51958" lon="6.73745">
        <ele>1827.7</ele>
        <time>2021-08-12T08:03:22Z</time>
      </trkpt>
      <trkpt lat="45.51958" lon="6.73745">
        <ele>1827.7</ele>
        <time>2021-08-12T08:03:23Z</time>
      </trkpt>
      <trkpt lat="45.51957" lon="6.73745">
        <ele>1827.7</ele>
        <time>2021-08-12T08:03:24Z</time>
      </trkpt>
      <trkpt lat="45.51956" lon="6.73746">
        <ele>1827.6</ele>
        <time>2021-08-12T08:03:25Z</time>
      </trkpt>
      <trkpt lat="45.51955" lon="6.73746">
        <ele>1827.6</ele>
        <time>2021-08-12T08:03:26Z</time>
      </trkpt>
      <trkpt lat="45.51954" lon="6.73746">
        <ele>1827.6</ele>
        <time>2021-08-12T08:03:27Z</time>
      </trkpt>
      <trkpt lat="45.51953" lon="6.73746">
        <ele>1827.5</ele>
        <time>2021-08-12T08:03:28Z</time>
      </trkpt>
      <trkpt lat="45.51952" lon="6.73746">
        <ele>1827.5</ele>
        <time>2021-08-12T08:03:29Z</time>
      </trkpt>
      <trkpt lat="45.51951" lon="6.73747">
        <ele>1827.5</ele>
        <time>2021-08-12T08:03:30Z</time>
      </trkpt>
      <trkpt lat="45.51951" lon="6.73747">
        <ele>1827.4</ele>
        <time>2021-08-12T08:03:31Z</time>
      </trkpt>
      <trkpt lat="45.5195" lon="6.73747">
        <ele>1827.4</ele>
        <time>2021-08-12T08:03:32Z</time>
      </trkpt>
      <trkpt lat="45.51948" lon="6.73747">
        <ele>1827.4</ele>
        <time>2021-08-12T08:03:33Z</time>
      </trkpt>
      <trkpt lat="45.51947" lon="6.73747">
        <ele>1827.4</ele>
        <time>2021-08-12T08:03:34Z</time>
      </trkpt>
      <trkpt lat="45.51946" lon="6.73748">
        <ele>1827.3</ele>
        <time>2021-08-12T08:03:35Z</time>
      </trkpt>
      <trkpt lat="45.51945" lon="6.73748">
        <ele>1827.3</ele>
        <time>2021-08-12T08:03:36Z</time>
      </trkpt>
      <trkpt lat="45.51944" lon="6.73748">
        <ele>1827.3</ele>
        <time>2021-08-12T08:03:37Z</time>
      </trkpt>
      <trkpt lat="45.51943" lon="6.73748">
        <ele>1827.3</ele>
        <time>2021-08-12T08:03:38Z</time>
      </trkpt>
      <trkpt lat="45.51942" lon="6.73749">
        <ele>1827.2</ele>
        <time>2021-08-12T08:03:39Z</time>
      </trkpt>
      <trkpt lat="45.51941" lon="6.73749">
        <ele>1827.2</ele>
        <time>2021-08-12T08:03:40Z</time>
      </trkpt>
      <trkpt lat="45.5194" lon="6.7375">
        <ele>1827.2</ele>
        <time>2021-08-12T08:03:41Z</time>
      </trkpt>
      <trkpt lat="45.51939" lon="6.7375">
        <ele>1827.1</ele>
        <time>2021-08-12T08:03:42Z</time>
      </trkpt>
      <trkpt lat="45.51938" lon="6.73751">
        <ele>1827.1</ele>
        <time>2021-08-12T08:03:43Z</time>
      </trkpt>
      <trkpt lat="45.51937" lon="6.73751">
        <ele>1827.1</ele>
        <time>2021-08-12T08:03:44Z</time>
      </trkpt>
      <trkpt lat="45.51936" lon="6.73752">
        <ele>1827.1</ele>
        <time>2021-08-12T08:03:45Z</time>
      </trkpt>
      <trkpt lat="45.51935" lon="6.73752">
        <ele>1827.1</ele>
        <time>2021-08-12T08:03:46Z</time>
      </trkpt>
      <trkpt lat="45.51934" lon="6.73753">
        <ele>1827.1</ele>
        <time>2021-08-12T08:03:47Z</time>
      </trkpt>
      <trkpt lat="45.51933" lon="6.73754">
        <ele>1827</ele>
        <time>2021-08-12T08:03:48Z</time>
      </trkpt>
      <trkpt lat="45.51932" lon="6.73755">
        <ele>1827</ele>
        <time>2021-08-12T08:03:49Z</time>
      </trkpt>
      <trkpt lat="45.51931" lon="6.73756">
        <ele>1827</ele>
        <time>2021-08-12T08:03:50Z</time>
      </trkpt>
      <trkpt lat="45.5193" lon="6.73757">
        <ele>1827</ele>
        <time>2021-08-12T08:03:51Z</time>
      </trkpt>
      <trkpt lat="45.51929" lon="6.73758">
        <ele>1827</ele>
        <time>2021-08-12T08:03:52Z</time>
      </trkpt>
      <trkpt lat="45.51928" lon="6.73759">
        <ele>1827.1</ele>
        <time>2021-08-12T08:03:53Z</time>
      </trkpt>
      <trkpt lat="45.51927" lon="6.7376">
        <ele>1827.3</ele>
        <time>2021-08-12T08:03:54Z</time>
      </trkpt>
      <trkpt lat="45.51926" lon="6.73761">
        <ele>1827.4</ele>
        <time>2021-08-12T08:03:55Z</time>
      </trkpt>
      <trkpt lat="45.51925" lon="6.73762">
        <ele>1827.6</ele>
        <time>2021-08-12T08:03:56Z</time>
      </trkpt>
      <trkpt lat="45.51924" lon="6.73763">
        <ele>1827.8</ele>
        <time>2021-08-12T08:03:57Z</time>
      </trkpt>
      <trkpt lat="45.51924" lon="6.73764">
        <ele>1827.9</ele>
        <time>2021-08-12T08:03:58Z</time>
      </trkpt>
      <trkpt lat="45.51923" lon="6.73765">
        <ele>1828</ele>
        <time>2021-08-12T08:03:59Z</time>
      </trkpt>
      <trkpt lat="45.51922" lon="6.73765">
        <ele>1828.2</ele>
        <time>2021-08-12T08:04:00Z</time>
      </trkpt>
      <trkpt lat="45.51921" lon="6.73766">
        <ele>1828.3</ele>
        <time>2021-08-12T08:04:01Z</time>
      </trkpt>
      <trkpt lat="45.5192" lon="6.73767">
        <ele>1828.5</ele>
        <time>2021-08-12T08:04:02Z</time>
      </trkpt>
      <trkpt lat="45.51919" lon="6.73768">
        <ele>1828.6</ele>
        <time>2021-08-12T08:04:03Z</time>
      </trkpt>
      <trkpt lat="45.51918" lon="6.73768">
        <ele>1828.8</ele>
        <time>2021-08-12T08:04:04Z</time>
      </trkpt>
      <trkpt lat="45.51917" lon="6.73769">
        <ele>1828.9</ele>
        <time>2021-08-12T08:04:05Z</time>
      </trkpt>
      <trkpt lat="45.51917" lon="6.73769">
        <ele>1829.1</ele>
        <time>2021-08-12T08:04:06Z</time>
      </trkpt>
      <trkpt lat="45.51916" lon="6.73769">
        <ele>1829.2</ele>
        <time>2021-08-12T08:04:07Z</time>
      </trkpt>
      <trkpt lat="45.51915" lon="6.73769">
        <ele>1829.3</ele>
        <time>2021-08-12T08:04:08Z</time>
      </trkpt>
      <trkpt lat="45.51914" lon="6.73769">
        <ele>1829.5</ele>
        <time>2021-08-12T08:04:09Z</time>
      </trkpt>
      <trkpt lat="45.51913" lon="6.73769">
        <ele>1829.6</ele>
        <time>2021-08-12T08:04:10Z</time>
      </trkpt>
      <trkpt lat="45.51912" lon="6.73769">
        <ele>1829.7</ele>
        <time>2021-08-12T08:04:11Z</time>
      </trkpt>
      <trkpt lat="45.51911" lon="6.73769">
        <ele>1829.9</ele>
        <time>2021-08-12T08:04:12Z</time>
      </trkpt>
      <trkpt lat="45.5191" lon="6.73769">
        <ele>1830</ele>
        <time>2021-08-12T08:04:13Z</time>
      </trkpt>
      <trkpt lat="45.51909" lon="6.73769">
        <ele>1830.2</ele>
        <time>2021-08-12T08:04:14Z</time>
      </trkpt>
      <trkpt lat="45.51908" lon="6.73769">
        <ele>1830.3</ele>
        <time>2021-08-12T08:04:15Z</time>
      </trkpt>
      <trkpt lat="45.51907" lon="6.73769">
        <ele>1830.5</ele>
        <time>2021-08-12T08:04:16Z</time>
      </trkpt>
      <trkpt lat="45.51907" lon="6.73768">
        <ele>1830.6</ele>
        <time>2021-08-12T08:04:17Z</time>
      </trkpt>
      <trkpt lat="45.51906" lon="6.73768">
        <ele>1830.7</ele>
        <time>2021-08-12T08:04:18Z</time>
      </trkpt>
      <trkpt lat="45.51905" lon="6.73768">
        <ele>1830.9</ele>
        <time>2021-08-12T08:04:19Z</time>
      </trkpt>
      <trkpt lat="45.51904" lon="6.73768">
        <ele>1831</ele>
        <time>2021-08-12T08:04:20Z</time>
      </trkpt>
      <trkpt lat="45.51903" lon="6.73768">
        <ele>1831.2</ele>
        <time>2021-08-12T08:04:21Z</time>
      </trkpt>
      <trkpt lat="45.51902" lon="6.73768">
        <ele>1831.3</ele>
        <time>2021-08-12T08:04:22Z</time>
      </trkpt>
      <trkpt lat="45.51901" lon="6.73768">
        <ele>1831.4</ele>
        <time>2021-08-12T08:04:23Z</time>
      </trkpt>
      <trkpt lat="45.519" lon="6.73768">
        <ele>1831.5</ele>
        <time>2021-08-12T08:04:24Z</time>
      </trkpt>
      <trkpt lat="45.51899" lon="6.73768">
        <ele>1831.7</ele>
        <time>2021-08-12T08:04:25Z</time>
      </trkpt>
      <trkpt lat="45.51899" lon="6.73768">
        <ele>1831.8</ele>
        <time>2021-08-12T08:04:26Z</time>
      </trkpt>
      <trkpt lat="45.51898" lon="6.73768">
        <ele>1831.9</ele>
        <time>2021-08-12T08:04:27Z</time>
      </trkpt>
      <trkpt lat="45.51897" lon="6.73768">
        <ele>1832</ele>
        <time>2021-08-12T08:04:28Z</time>
      </trkpt>
      <trkpt lat="45.51896" lon="6.73769">
        <ele>1832.1</ele>
        <time>2021-08-12T08:04:29Z</time>
      </trkpt>
      <trkpt lat="45.51895" lon="6.73769">
        <ele>1832.3</ele>
        <time>2021-08-12T08:04:30Z</time>
      </trkpt>
      <trkpt lat="45.51895" lon="6.7377">
        <ele>1832.4</ele>
        <time>2021-08-12T08:04:31Z</time>
      </trkpt>
      <trkpt lat="45.51894" lon="6.7377">
        <ele>1832.5</ele>
        <time>2021-08-12T08:04:32Z</time>
      </trkpt>
      <trkpt lat="45.51893" lon="6.7377">
        <ele>1832.6</ele>
        <time>2021-08-12T08:04:33Z</time>
      </trkpt>
      <trkpt lat="45.51892" lon="6.73771">
        <ele>1832.7</ele>
        <time>2021-08-12T08:04:34Z</time>
      </trkpt>
      <trkpt lat="45.51891" lon="6.73771">
        <ele>1832.8</ele>
        <time>2021-08-12T08:04:35Z</time>
      </trkpt>
      <trkpt lat="45.5189" lon="6.73771">
        <ele>1833</ele>
        <time>2021-08-12T08:04:36Z</time>
      </trkpt>
      <trkpt lat="45.5189" lon="6.73772">
        <ele>1833.1</ele>
        <time>2021-08-12T08:04:37Z</time>
      </trkpt>
      <trkpt lat="45.51889" lon="6.73772">
        <ele>1833.2</ele>
        <time>2021-08-12T08:04:38Z</time>
      </trkpt>
      <trkpt lat="45.51888" lon="6.73772">
        <ele>1833.3</ele>
        <time>2021-08-12T08:04:39Z</time>
      </trkpt>
      <trkpt lat="45.51887" lon="6.73772">
        <ele>1833.5</ele>
        <time>2021-08-12T08:04:40Z</time>
      </trkpt>
      <trkpt lat="45.51886" lon="6.73772">
        <ele>1833.6</ele>
        <time>2021-08-12T08:04:41Z</time>
      </trkpt>
      <trkpt lat="45.51885" lon="6.73773">
        <ele>1833.7</ele>
        <time>2021-08-12T08:04:42Z</time>
      </trkpt>
      <trkpt lat="45.51884" lon="6.73773">
        <ele>1833.8</ele>
        <time>2021-08-12T08:04:43Z</time>
      </trkpt>
      <trkpt lat="45.51883" lon="6.73773">
        <ele>1833.9</ele>
        <time>2021-08-12T08:04:44Z</time>
      </trkpt>
      <trkpt lat="45.51882" lon="6.73773">
        <ele>1834.1</ele>
        <time>2021-08-12T08:04:45Z</time>
      </trkpt>
      <trkpt lat="45.51881" lon="6.73773">
        <ele>1834.2</ele>
        <time>2021-08-12T08:04:46Z</time>
      </trkpt>
      <trkpt lat="45.51881" lon="6.73774">
        <ele>1834.3</ele>
        <time>2021-08-12T08:04:47Z</time>
      </trkpt>
      <trkpt lat="45.5188" lon="6.73774">
        <ele>1834.4</ele>
        <time>2021-08-12T08:04:48Z</time>
      </trkpt>
      <trkpt lat="45.51879" lon="6.73774">
        <ele>1834.5</ele>
        <time>2021-08-12T08:04:49Z</time>
      </trkpt>
      <trkpt lat="45.51878" lon="6.73775">
        <ele>1834.6</ele>
        <time>2021-08-12T08:04:50Z</time>
      </trkpt>
      <trkpt lat="45.51877" lon="6.73775">
        <ele>1834.8</ele>
        <time>2021-08-12T08:04:51Z</time>
      </trkpt>
      <trkpt lat="45.51876" lon="6.73775">
        <ele>1834.9</ele>
        <time>2021-08-12T08:04:52Z</time>
      </trkpt>
      <trkpt lat="45.51875" lon="6.73775">
        <ele>1835</ele>
        <time>2021-08-12T08:04:53Z</time>
      </trkpt>
      <trkpt lat="45.51874" lon="6.73776">
        <ele>1835.1</ele>
        <time>2021-08-12T08:04:54Z</time>
      </trkpt>
      <trkpt lat="45.51874" lon="6.73776">
        <ele>1835.2</ele>
        <time>2021-08-12T08:04:55Z</time>
      </trkpt>
      <trkpt lat="45.51873" lon="6.73776">
        <ele>1835.3</ele>
        <time>2021-08-12T08:04:56Z</time>
      </trkpt>
      <trkpt lat="45.51872" lon="6.73776">
        <ele>1835.4</ele>
        <time>2021-08-12T08:04:57Z</time>
      </trkpt>
      <trkpt lat="45.51871" lon="6.73777">
        <ele>1835.5</ele>
        <time>2021-08-12T08:04:58Z</time>
      </trkpt>
      <trkpt lat="45.5187" lon="6.73777">
        <ele>1835.6</ele>
        <time>2021-08-12T08:04:59Z</time>
      </trkpt>
      <trkpt lat="45.51869" lon="6.73777">
        <ele>1835.7</ele>
        <time>2021-08-12T08:05:00Z</time>
      </trkpt>
      <trkpt lat="45.51868" lon="6.73777">
        <ele>1835.8</ele>
        <time>2021-08-12T08:05:01Z</time>
      </trkpt>
      <trkpt lat="45.51868" lon="6.73778">
        <ele>1835.9</ele>
        <time>2021-08-12T08:05:02Z</time>
      </trkpt>
      <trkpt lat="45.51867" lon="6.73778">
        <ele>1836</ele>
        <time>2021-08-12T08:05:03Z</time>
      </trkpt>
      <trkpt lat="45.51866" lon="6.73778">
        <ele>1836.1</ele>
        <time>2021-08-12T08:05:04Z</time>
      </trkpt>
      <trkpt lat="45.51865" lon="6.73778">
        <ele>1836.2</ele>
        <time>2021-08-12T08:05:05Z</time>
      </trkpt>
      <trkpt lat="45.51864" lon="6.73778">
        <ele>1836.3</ele>
        <time>2021-08-12T08:05:06Z</time>
      </trkpt>
      <trkpt lat="45.51863" lon="6.73778">
        <ele>1836.3</ele>
        <time>2021-08-12T08:05:07Z</time>
      </trkpt>
      <trkpt lat="45.51862" lon="6.73778">
        <ele>1836.4</ele>
        <time>2021-08-12T08:05:08Z</time>
      </trkpt>
      <trkpt lat="45.51862" lon="6.73778">
        <ele>1836.5</ele>
        <time>2021-08-12T08:05:09Z</time>
      </trkpt>
      <trkpt lat="45.51861" lon="6.73779">
        <ele>1836.6</ele>
        <time>2021-08-12T08:05:10Z</time>
      </trkpt>
      <trkpt lat="45.5186" lon="6.73779">
        <ele>1836.7</ele>
        <time>2021-08-12T08:05:11Z</time>
      </trkpt>
      <trkpt lat="45.51859" lon="6.73779">
        <ele>1836.8</ele>
        <time>2021-08-12T08:05:12Z</time>
      </trkpt>
      <trkpt lat="45.51858" lon="6.73779">
        <ele>1836.8</ele>
        <time>2021-08-12T08:05:13Z</time>
      </trkpt>
      <trkpt lat="45.51857" lon="6.73779">
        <ele>1836.9</ele>
        <time>2021-08-12T08:05:14Z</time>
      </trkpt>
      <trkpt lat="45.51856" lon="6.73779">
        <ele>1837</ele>
        <time>2021-08-12T08:05:15Z</time>
      </trkpt>
      <trkpt lat="45.51856" lon="6.73779">
        <ele>1837.1</ele>
        <time>2021-08-12T08:05:16Z</time>
      </trkpt>
      <trkpt lat="45.51855" lon="6.73779">
        <ele>1837.1</ele>
        <time>2021-08-12T08:05:17Z</time>
      </trkpt>
      <trkpt lat="45.51854" lon="6.73779">
        <ele>1837.2</ele>
        <time>2021-08-12T08:05:18Z</time>
      </trkpt>
      <trkpt lat="45.51853" lon="6.73779">
        <ele>1837.3</ele>
        <time>2021-08-12T08:05:19Z</time>
      </trkpt>
      <trkpt lat="45.51852" lon="6.73778">
        <ele>1837.4</ele>
        <time>2021-08-12T08:05:20Z</time>
      </trkpt>
      <trkpt lat="45.51851" lon="6.73778">
        <ele>1837.5</ele>
        <time>2021-08-12T08:05:21Z</time>
      </trkpt>
      <trkpt lat="45.5185" lon="6.73778">
        <ele>1837.6</ele>
        <time>2021-08-12T08:05:22Z</time>
      </trkpt>
      <trkpt lat="45.51849" lon="6.73778">
        <ele>1837.6</ele>
        <time>2021-08-12T08:05:23Z</time>
      </trkpt>
      <trkpt lat="45.51848" lon="6.73778">
        <ele>1837.7</ele>
        <time>2021-08-12T08:05:24Z</time>
      </trkpt>
      <trkpt lat="45.51847" lon="6.73778">
        <ele>1837.8</ele>
        <time>2021-08-12T08:05:25Z</time>
      </trkpt>
      <trkpt lat="45.51846" lon="6.73778">
        <ele>1837.9</ele>
        <time>2021-08-12T08:05:26Z</time>
      </trkpt>
      <trkpt lat="45.51845" lon="6.73778">
        <ele>1838</ele>
        <time>2021-08-12T08:05:27Z</time>
      </trkpt>
      <trkpt lat="45.51844" lon="6.73778">
        <ele>1838.1</ele>
        <time>2021-08-12T08:05:28Z</time>
      </trkpt>
      <trkpt lat="45.51843" lon="6.73778">
        <ele>1838.2</ele>
        <time>2021-08-12T08:05:29Z</time>
      </trkpt>
      <trkpt lat="45.51842" lon="6.73778">
        <ele>1838.3</ele>
        <time>2021-08-12T08:05:30Z</time>
      </trkpt>
      <trkpt lat="45.51841" lon="6.73778">
        <ele>1838.4</ele>
        <time>2021-08-12T08:05:31Z</time>
      </trkpt>
      <trkpt lat="45.5184" lon="6.73778">
        <ele>1838.4</ele>
        <time>2021-08-12T08:05:32Z</time>
      </trkpt>
      <trkpt lat="45.51839" lon="6.73778">
        <ele>1838.5</ele>
        <time>2021-08-12T08:05:33Z</time>
      </trkpt>
      <trkpt lat="45.51839" lon="6.73778">
        <ele>1838.6</ele>
        <time>2021-08-12T08:05:34Z</time>
      </trkpt>
      <trkpt lat="45.51838" lon="6.73778">
        <ele>1838.6</ele>
        <time>2021-08-12T08:05:35Z</time>
      </trkpt>
      <trkpt lat="45.51837" lon="6.73777">
        <ele>1838.7</ele>
        <time>2021-08-12T08:05:36Z</time>
      </trkpt>
      <trkpt lat="45.51837" lon="6.73777">
        <ele>1838.8</ele>
        <time>2021-08-12T08:05:37Z</time>
      </trkpt>
      <trkpt lat="45.51836" lon="6.73777">
        <ele>1838.8</ele>
        <time>2021-08-12T08:05:38Z</time>
      </trkpt>
      <trkpt lat="45.51836" lon="6.73777">
        <ele>1838.8</ele>
        <time>2021-08-12T08:05:39Z</time>
      </trkpt>
      <trkpt lat="45.51835" lon="6.73777">
        <ele>1838.9</ele>
        <time>2021-08-12T08:05:40Z</time>
      </trkpt>
      <trkpt lat="45.51835" lon="6.73777">
        <ele>1838.9</ele>
        <time>2021-08-12T08:05:41Z</time>
      </trkpt>
      <trkpt lat="45.51835" lon="6.73777">
        <ele>1838.9</ele>
        <time>2021-08-12T08:05:42Z</time>
      </trkpt>
      <trkpt lat="45.51835" lon="6.73776">
        <ele>1838.9</ele>
        <time>2021-08-12T08:05:43Z</time>
      </trkpt>
      <trkpt lat="45.51835" lon="6.73776">
        <ele>1838.9</ele>
        <time>2021-08-12T08:05:44Z</time>
      </trkpt>
      <trkpt lat="45.51835" lon="6.73776">
        <ele>1838.9</ele>
        <time>2021-08-12T08:05:45Z</time>
      </trkpt>
      <trkpt lat="45.51835" lon="6.73776">
        <ele>1838.9</ele>
        <time>2021-08-12T08:05:46Z</time>
      </trkpt>
      <trkpt lat="45.51835" lon="6.73777">
        <ele>1839</ele>
        <time>2021-08-12T08:05:47Z</time>
      </trkpt>
      <trkpt lat="45.51835" lon="6.73777">
        <ele>1839</ele>
        <time>2021-08-12T08:05:48Z</time>
      </trkpt>
      <trkpt lat="45.51835" lon="6.73777">
        <ele>1839</ele>
        <time>2021-08-12T08:05:49Z</time>
      </trkpt>
      <trkpt lat="45.51836" lon="6.73777">
        <ele>1839</ele>
        <time>2021-08-12T08:05:50Z</time>
      </trkpt>
      <trkpt lat="45.51836" lon="6.73777">
        <ele>1839</ele>
        <time>2021-08-12T08:05:51Z</time>
      </trkpt>
      <trkpt lat="45.51836" lon="6.73777">
        <ele>1839</ele>
        <time>2021-08-12T08:05:52Z</time>
      </trkpt>
      <trkpt lat="45.51836" lon="6.73777">
        <ele>1839</ele>
        <time>2021-08-12T08:05:53Z</time>
      </trkpt>
      <trkpt lat="45.51835" lon="6.73777">
        <ele>1839</ele>
        <time>2021-08-12T08:05:54Z</time>
      </trkpt>
      <trkpt lat="45.51835" lon="6.73777">
        <ele>1839.1</ele>
        <time>2021-08-12T08:05:55Z</time>
      </trkpt>
      <trkpt lat="45.51835" lon="6.73776">
        <ele>1839.1</ele>
        <time>2021-08-12T08:05:56Z</time>
      </trkpt>
      <trkpt lat="45.51834" lon="6.73776">
        <ele>1839.1</ele>
        <time>2021-08-12T08:05:57Z</time>
      </trkpt>
      <trkpt lat="45.51834" lon="6.73776">
        <ele>1839.2</ele>
        <time>2021-08-12T08:05:58Z</time>
      </trkpt>
      <trkpt lat="45.51833" lon="6.73776">
        <ele>1839.2</ele>
        <time>2021-08-12T08:05:59Z</time>
      </trkpt>
      <trkpt lat="45.51833" lon="6.73776">
        <ele>1839.3</ele>
        <time>2021-08-12T08:06:00Z</time>
      </trkpt>
      <trkpt lat="45.51832" lon="6.73775">
        <ele>1839.3</ele>
        <time>2021-08-12T08:06:01Z</time>
      </trkpt>
      <trkpt lat="45.51832" lon="6.73775">
        <ele>1839.4</ele>
        <time>2021-08-12T08:06:02Z</time>
      </trkpt>
      <trkpt lat="45.51831" lon="6.73775">
        <ele>1839.4</ele>
        <time>2021-08-12T08:06:03Z</time>
      </trkpt>
      <trkpt lat="45.5183" lon="6.73775">
        <ele>1839.5</ele>
        <time>2021-08-12T08:06:04Z</time>
      </trkpt>
      <trkpt lat="45.5183" lon="6.73775">
        <ele>1839.6</ele>
        <time>2021-08-12T08:06:05Z</time>
      </trkpt>
      <trkpt lat="45.51829" lon="6.73774">
        <ele>1839.6</ele>
        <time>2021-08-12T08:06:06Z</time>
      </trkpt>
      <trkpt lat="45.51828" lon="6.73774">
        <ele>1839.7</ele>
        <time>2021-08-12T08:06:07Z</time>
      </trkpt>
      <trkpt lat="45.51827" lon="6.73774">
        <ele>1839.8</ele>
        <time>2021-08-12T08:06:08Z</time>
      </trkpt>
      <trkpt lat="45.51827" lon="6.73774">
        <ele>1839.8</ele>
        <time>2021-08-12T08:06:09Z</time>
      </trkpt>
      <trkpt lat="45.51826" lon="6.73774">
        <ele>1839.9</ele>
        <time>2021-08-12T08:06:10Z</time>
      </trkpt>
      <trkpt lat="45.51825" lon="6.73773">
        <ele>1840</ele>
        <time>2021-08-12T08:06:11Z</time>
      </trkpt>
      <trkpt lat="45.51824" lon="6.73773">
        <ele>1840.1</ele>
        <time>2021-08-12T08:06:12Z</time>
      </trkpt>
      <trkpt lat="45.51824" lon="6.73773">
        <ele>1840.1</ele>
        <time>2021-08-12T08:06:13Z</time>
      </trkpt>
      <trkpt lat="45.51823" lon="6.73773">
        <ele>1840.2</ele>
        <time>2021-08-12T08:06:14Z</time>
      </trkpt>
      <trkpt lat="45.51822" lon="6.73772">
        <ele>1840.3</ele>
        <time>2021-08-12T08:06:15Z</time>
      </trkpt>
      <trkpt lat="45.51821" lon="6.73772">
        <ele>1840.4</ele>
        <time>2021-08-12T08:06:16Z</time>
      </trkpt>
      <trkpt lat="45.51821" lon="6.73772">
        <ele>1840.4</ele>
        <time>2021-08-12T08:06:17Z</time>
      </trkpt>
      <trkpt lat="45.5182" lon="6.73771">
        <ele>1840.5</ele>
        <time>2021-08-12T08:06:18Z</time>
      </trkpt>
      <trkpt lat="45.51819" lon="6.73771">
        <ele>1840.6</ele>
        <time>2021-08-12T08:06:19Z</time>
      </trkpt>
      <trkpt lat="45.51818" lon="6.73771">
        <ele>1840.7</ele>
        <time>2021-08-12T08:06:20Z</time>
      </trkpt>
      <trkpt lat="45.51817" lon="6.7377">
        <ele>1840.8</ele>
        <time>2021-08-12T08:06:21Z</time>
      </trkpt>
      <trkpt lat="45.51817" lon="6.7377">
        <ele>1840.8</ele>
        <time>2021-08-12T08:06:22Z</time>
      </trkpt>
      <trkpt lat="45.51816" lon="6.7377">
        <ele>1840.9</ele>
        <time>2021-08-12T08:06:23Z</time>
      </trkpt>
      <trkpt lat="45.51815" lon="6.73769">
        <ele>1841</ele>
        <time>2021-08-12T08:06:24Z</time>
      </trkpt>
      <trkpt lat="45.51814" lon="6.73769">
        <ele>1841.1</ele>
        <time>2021-08-12T08:06:25Z</time>
      </trkpt>
      <trkpt lat="45.51813" lon="6.73769">
        <ele>1841.1</ele>
        <time>2021-08-12T08:06:26Z</time>
      </trkpt>
      <trkpt lat="45.51813" lon="6.73768">
        <ele>1841.2</ele>
        <time>2021-08-12T08:06:27Z</time>
      </trkpt>
      <trkpt lat="45.51812" lon="6.73768">
        <ele>1841.3</ele>
        <time>2021-08-12T08:06:28Z</time>
      </trkpt>
      <trkpt lat="45.51811" lon="6.73768">
        <ele>1841.3</ele>
        <time>2021-08-12T08:06:29Z</time>
      </trkpt>
      <trkpt lat="45.5181" lon="6.73768">
        <ele>1841.4</ele>
        <time>2021-08-12T08:06:30Z</time>
      </trkpt>
      <trkpt lat="45.51809" lon="6.73767">
        <ele>1841.5</ele>
        <time>2021-08-12T08:06:31Z</time>
      </trkpt>
      <trkpt lat="45.51808" lon="6.73767">
        <ele>1841.5</ele>
        <time>2021-08-12T08:06:32Z</time>
      </trkpt>
      <trkpt lat="45.51807" lon="6.73767">
        <ele>1841.6</ele>
        <time>2021-08-12T08:06:33Z</time>
      </trkpt>
      <trkpt lat="45.51806" lon="6.73767">
        <ele>1841.7</ele>
        <time>2021-08-12T08:06:34Z</time>
      </trkpt>
      <trkpt lat="45.51805" lon="6.73768">
        <ele>1841.8</ele>
        <time>2021-08-12T08:06:35Z</time>
      </trkpt>
      <trkpt lat="45.51804" lon="6.73768">
        <ele>1841.8</ele>
        <time>2021-08-12T08:06:36Z</time>
      </trkpt>
      <trkpt lat="45.51803" lon="6.73768">
        <ele>1841.9</ele>
        <time>2021-08-12T08:06:37Z</time>
      </trkpt>
      <trkpt lat="45.51802" lon="6.73768">
        <ele>1842</ele>
        <time>2021-08-12T08:06:38Z</time>
      </trkpt>
      <trkpt lat="45.51801" lon="6.73769">
        <ele>1842</ele>
        <time>2021-08-12T08:06:39Z</time>
      </trkpt>
      <trkpt lat="45.518" lon="6.73769">
        <ele>1842.1</ele>
        <time>2021-08-12T08:06:40Z</time>
      </trkpt>
      <trkpt lat="45.51799" lon="6.73769">
        <ele>1842.2</ele>
        <time>2021-08-12T08:06:41Z</time>
      </trkpt>
      <trkpt lat="45.51798" lon="6.73769">
        <ele>1842.2</ele>
        <time>2021-08-12T08:06:42Z</time>
      </trkpt>
      <trkpt lat="45.51797" lon="6.7377">
        <ele>1842.3</ele>
        <time>2021-08-12T08:06:43Z</time>
      </trkpt>
      <trkpt lat="45.51796" lon="6.7377">
        <ele>1842.3</ele>
        <time>2021-08-12T08:06:44Z</time>
      </trkpt>
      <trkpt lat="45.51795" lon="6.7377">
        <ele>1842.4</ele>
        <time>2021-08-12T08:06:45Z</time>
      </trkpt>
      <trkpt lat="45.51794" lon="6.7377">
        <ele>1842.4</ele>
        <time>2021-08-12T08:06:46Z</time>
      </trkpt>
      <trkpt lat="45.51793" lon="6.7377">
        <ele>1842.5</ele>
        <time>2021-08-12T08:06:47Z</time>
      </trkpt>
      <trkpt lat="45.51792" lon="6.7377">
        <ele>1842.5</ele>
        <time>2021-08-12T08:06:48Z</time>
      </trkpt>
      <trkpt lat="45.51791" lon="6.7377">
        <ele>1842.6</ele>
        <time>2021-08-12T08:06:49Z</time>
      </trkpt>
      <trkpt lat="45.5179" lon="6.7377">
        <ele>1842.6</ele>
        <time>2021-08-12T08:06:50Z</time>
      </trkpt>
      <trkpt lat="45.51789" lon="6.7377">
        <ele>1842.6</ele>
        <time>2021-08-12T08:06:51Z</time>
      </trkpt>
      <trkpt lat="45.51788" lon="6.7377">
        <ele>1842.7</ele>
        <time>2021-08-12T08:06:52Z</time>
      </trkpt>
      <trkpt lat="45.51787" lon="6.7377">
        <ele>1842.7</ele>
        <time>2021-08-12T08:06:53Z</time>
      </trkpt>
      <trkpt lat="45.51786" lon="6.7377">
        <ele>1842.7</ele>
        <time>2021-08-12T08:06:54Z</time>
      </trkpt>
      <trkpt lat="45.51785" lon="6.7377">
        <ele>1842.8</ele>
        <time>2021-08-12T08:06:55Z</time>
      </trkpt>
      <trkpt lat="45.51784" lon="6.7377">
        <ele>1842.8</ele>
        <time>2021-08-12T08:06:56Z</time>
      </trkpt>
      <trkpt lat="45.51783" lon="6.7377">
        <ele>1842.8</ele>
        <time>2021-08-12T08:06:57Z</time>
      </trkpt>
      <trkpt lat="45.51782" lon="6.7377">
        <ele>1842.9</ele>
        <time>2021-08-12T08:06:58Z</time>
      </trkpt>
      <trkpt lat="45.51781" lon="6.7377">
        <ele>1842.9</ele>
        <time>2021-08-12T08:06:59Z</time>
      </trkpt>
      <trkpt lat="45.5178" lon="6.73769">
        <ele>1842.9</ele>
        <time>2021-08-12T08:07:00Z</time>
      </trkpt>
      <trkpt lat="45.51779" lon="6.73769">
        <ele>1842.9</ele>
        <time>2021-08-12T08:07:01Z</time>
      </trkpt>
      <trkpt lat="45.51778" lon="6.73769">
        <ele>1842.9</ele>
        <time>2021-08-12T08:07:02Z</time>
      </trkpt>
      <trkpt lat="45.51777" lon="6.73769">
        <ele>1842.9</ele>
        <time>2021-08-12T08:07:03Z</time>
      </trkpt>
      <trkpt lat="45.51776" lon="6.73769">
        <ele>1842.9</ele>
        <time>2021-08-12T08:07:04Z</time>
      </trkpt>
      <trkpt lat="45.51775" lon="6.73768">
        <ele>1843</ele>
        <time>2021-08-12T08:07:05Z</time>
      </trkpt>
      <trkpt lat="45.51774" lon="6.73768">
        <ele>1843</ele>
        <time>2021-08-12T08:07:06Z</time>
      </trkpt>
      <trkpt lat="45.51773" lon="6.73768">
        <ele>1843</ele>
        <time>2021-08-12T08:07:07Z</time>
      </trkpt>
      <trkpt lat="45.51772" lon="6.73767">
        <ele>1843</ele>
        <time>2021-08-12T08:07:08Z</time>
      </trkpt>
      <trkpt lat="45.51771" lon="6.73767">
        <ele>1843</ele>
        <time>2021-08-12T08:07:09Z</time>
      </trkpt>
      <trkpt lat="45.5177" lon="6.73766">
        <ele>1843</ele>
        <time>2021-08-12T08:07:10Z</time>
      </trkpt>
      <trkpt lat="45.5177" lon="6.73766">
        <ele>1843</ele>
        <time>2021-08-12T08:07:11Z</time>
      </trkpt>
      <trkpt lat="45.51769" lon="6.73765">
        <ele>1843</ele>
        <time>2021-08-12T08:07:12Z</time>
      </trkpt>
      <trkpt lat="45.51768" lon="6.73765">
        <ele>1843</ele>
        <time>2021-08-12T08:07:13Z</time>
      </trkpt>
      <trkpt lat="45.51767" lon="6.73764">
        <ele>1842.9</ele>
        <time>2021-08-12T08:07:14Z</time>
      </trkpt>
      <trkpt lat="45.51766" lon="6.73764">
        <ele>1842.9</ele>
        <time>2021-08-12T08:07:15Z</time>
      </trkpt>
      <trkpt lat="45.51765" lon="6.73763">
        <ele>1842.9</ele>
        <time>2021-08-12T08:07:16Z</time>
      </trkpt>
      <trkpt lat="45.51764" lon="6.73763">
        <ele>1842.9</ele>
        <time>2021-08-12T08:07:17Z</time>
      </trkpt>
      <trkpt lat="45.51764" lon="6.73762">
        <ele>1842.9</ele>
        <time>2021-08-12T08:07:18Z</time>
      </trkpt>
      <trkpt lat="45.51763" lon="6.73761">
        <ele>1842.9</ele>
        <time>2021-08-12T08:07:19Z</time>
      </trkpt>
      <trkpt lat="45.51762" lon="6.73761">
        <ele>1842.8</ele>
        <time>2021-08-12T08:07:20Z</time>
      </trkpt>
      <trkpt lat="45.51761" lon="6.7376">
        <ele>1842.8</ele>
        <time>2021-08-12T08:07:21Z</time>
      </trkpt>
      <trkpt lat="45.5176" lon="6.73759">
        <ele>1842.8</ele>
        <time>2021-08-12T08:07:22Z</time>
      </trkpt>
      <trkpt lat="45.5176" lon="6.73758">
        <ele>1842.8</ele>
        <time>2021-08-12T08:07:23Z</time>
      </trkpt>
      <trkpt lat="45.51759" lon="6.73758">
        <ele>1842.8</ele>
        <time>2021-08-12T08:07:24Z</time>
      </trkpt>
      <trkpt lat="45.51758" lon="6.73757">
        <ele>1842.7</ele>
        <time>2021-08-12T08:07:25Z</time>
      </trkpt>
      <trkpt lat="45.51757" lon="6.73756">
        <ele>1842.7</ele>
        <time>2021-08-12T08:07:26Z</time>
      </trkpt>
      <trkpt lat="45.51756" lon="6.73756">
        <ele>1842.7</ele>
        <time>2021-08-12T08:07:27Z</time>
      </trkpt>
      <trkpt lat="45.51755" lon="6.73755">
        <ele>1842.6</ele>
        <time>2021-08-12T08:07:28Z</time>
      </trkpt>
      <trkpt lat="45.51754" lon="6.73755">
        <ele>1842.6</ele>
        <time>2021-08-12T08:07:29Z</time>
      </trkpt>
      <trkpt lat="45.51754" lon="6.73754">
        <ele>1842.6</ele>
        <time>2021-08-12T08:07:30Z</time>
      </trkpt>
      <trkpt lat="45.51753" lon="6.73754">
        <ele>1842.6</ele>
        <time>2021-08-12T08:07:31Z</time>
      </trkpt>
      <trkpt lat="45.51753" lon="6.73753">
        <ele>1842.6</ele>
        <time>2021-08-12T08:07:32Z</time>
      </trkpt>
      <trkpt lat="45.51752" lon="6.73753">
        <ele>1842.5</ele>
        <time>2021-08-12T08:07:33Z</time>
      </trkpt>
      <trkpt lat="45.51751" lon="6.73752">
        <ele>1842.5</ele>
        <time>2021-08-12T08:07:34Z</time>
      </trkpt>
      <trkpt lat="45.5175" lon="6.73752">
        <ele>1842.5</ele>
        <time>2021-08-12T08:07:35Z</time>
      </trkpt>
      <trkpt lat="45.51749" lon="6.73751">
        <ele>1842.4</ele>
        <time>2021-08-12T08:07:36Z</time>
      </trkpt>
      <trkpt lat="45.51748" lon="6.73751">
        <ele>1842.4</ele>
        <time>2021-08-12T08:07:37Z</time>
      </trkpt>
      <trkpt lat="45.51747" lon="6.7375">
        <ele>1842.4</ele>
        <time>2021-08-12T08:07:38Z</time>
      </trkpt>
      <trkpt lat="45.51746" lon="6.73749">
        <ele>1842.3</ele>
        <time>2021-08-12T08:07:39Z</time>
      </trkpt>
      <trkpt lat="45.51745" lon="6.73749">
        <ele>1842.3</ele>
        <time>2021-08-12T08:07:40Z</time>
      </trkpt>
      <trkpt lat="45.51744" lon="6.73748">
        <ele>1842.2</ele>
        <time>2021-08-12T08:07:41Z</time>
      </trkpt>
      <trkpt lat="45.51743" lon="6.73748">
        <ele>1842.2</ele>
        <time>2021-08-12T08:07:42Z</time>
      </trkpt>
      <trkpt lat="45.51742" lon="6.73747">
        <ele>1842.2</ele>
        <time>2021-08-12T08:07:43Z</time>
      </trkpt>
      <trkpt lat="45.51741" lon="6.73747">
        <ele>1842.1</ele>
        <time>2021-08-12T08:07:44Z</time>
      </trkpt>
      <trkpt lat="45.5174" lon="6.73746">
        <ele>1842.1</ele>
        <time>2021-08-12T08:07:45Z</time>
      </trkpt>
      <trkpt lat="45.51739" lon="6.73746">
        <ele>1842</ele>
        <time>2021-08-12T08:07:46Z</time>
      </trkpt>
      <trkpt lat="45.51737" lon="6.73745">
        <ele>1842</ele>
        <time>2021-08-12T08:07:47Z</time>
      </trkpt>
      <trkpt lat="45.51736" lon="6.73745">
        <ele>1841.9</ele>
        <time>2021-08-12T08:07:48Z</time>
      </trkpt>
      <trkpt lat="45.51735" lon="6.73744">
        <ele>1841.9</ele>
        <time>2021-08-12T08:07:49Z</time>
      </trkpt>
      <trkpt lat="45.51734" lon="6.73744">
        <ele>1841.8</ele>
        <time>2021-08-12T08:07:50Z</time>
      </trkpt>
      <trkpt lat="45.51733" lon="6.73743">
        <ele>1841.8</ele>
        <time>2021-08-12T08:07:51Z</time>
      </trkpt>
      <trkpt lat="45.51732" lon="6.73743">
        <ele>1841.7</ele>
        <time>2021-08-12T08:07:52Z</time>
      </trkpt>
      <trkpt lat="45.51731" lon="6.73742">
        <ele>1841.7</ele>
        <time>2021-08-12T08:07:53Z</time>
      </trkpt>
      <trkpt lat="45.5173" lon="6.73742">
        <ele>1841.6</ele>
        <time>2021-08-12T08:07:54Z</time>
      </trkpt>
      <trkpt lat="45.51728" lon="6.73742">
        <ele>1841.6</ele>
        <time>2021-08-12T08:07:55Z</time>
      </trkpt>
      <trkpt lat="45.51727" lon="6.73741">
        <ele>1841.5</ele>
        <time>2021-08-12T08:07:56Z</time>
      </trkpt>
      <trkpt lat="45.51726" lon="6.73741">
        <ele>1841.5</ele>
        <time>2021-08-12T08:07:57Z</time>
      </trkpt>
      <trkpt lat="45.51725" lon="6.7374">
        <ele>1841.4</ele>
        <time>2021-08-12T08:07:58Z</time>
      </trkpt>
      <trkpt lat="45.51724" lon="6.7374">
        <ele>1841.4</ele>
        <time>2021-08-12T08:07:59Z</time>
      </trkpt>
      <trkpt lat="45.51723" lon="6.7374">
        <ele>1841.4</ele>
        <time>2021-08-12T08:08:00Z</time>
      </trkpt>
      <trkpt lat="45.51722" lon="6.73739">
        <ele>1841.3</ele>
        <time>2021-08-12T08:08:01Z</time>
      </trkpt>
      <trkpt lat="45.51721" lon="6.73739">
        <ele>1841.3</ele>
        <time>2021-08-12T08:08:02Z</time>
      </trkpt>
      <trkpt lat="45.5172" lon="6.73739">
        <ele>1841.2</ele>
        <time>2021-08-12T08:08:03Z</time>
      </trkpt>
      <trkpt lat="45.51719" lon="6.73738">
        <ele>1841.2</ele>
        <time>2021-08-12T08:08:04Z</time>
      </trkpt>
      <trkpt lat="45.51717" lon="6.73738">
        <ele>1841.2</ele>
        <time>2021-08-12T08:08:05Z</time>
      </trkpt>
      <trkpt lat="45.51716" lon="6.73738">
        <ele>1841.1</ele>
        <time>2021-08-12T08:08:06Z</time>
      </trkpt>
      <trkpt lat="45.51715" lon="6.73737">
        <ele>1841.1</ele>
        <time>2021-08-12T08:08:07Z</time>
      </trkpt>
      <trkpt lat="45.51714" lon="6.73737">
        <ele>1841.1</ele>
        <time>2021-08-12T08:08:08Z</time>
      </trkpt>
      <trkpt lat="45.51713" lon="6.73737">
        <ele>1841.1</ele>
        <time>2021-08-12T08:08:09Z</time>
      </trkpt>
      <trkpt lat="45.51712" lon="6.73736">
        <ele>1841</ele>
        <time>2021-08-12T08:08:10Z</time>
      </trkpt>
      <trkpt lat="45.51711" lon="6.73736">
        <ele>1841</ele>
        <time>2021-08-12T08:08:11Z</time>
      </trkpt>
      <trkpt lat="45.5171" lon="6.73736">
        <ele>1841</ele>
        <time>2021-08-12T08:08:12Z</time>
      </trkpt>
      <trkpt lat="45.51709" lon="6.73735">
        <ele>1841</ele>
        <time>2021-08-12T08:08:13Z</time>
      </trkpt>
      <trkpt lat="45.51708" lon="6.73735">
        <ele>1841</ele>
        <time>2021-08-12T08:08:14Z</time>
      </trkpt>
      <trkpt lat="45.51707" lon="6.73735">
        <ele>1841</ele>
        <time>2021-08-12T08:08:15Z</time>
      </trkpt>
      <trkpt lat="45.51706" lon="6.73734">
        <ele>1841</ele>
        <time>2021-08-12T08:08:16Z</time>
      </trkpt>
      <trkpt lat="45.51705" lon="6.73734">
        <ele>1841</ele>
        <time>2021-08-12T08:08:17Z</time>
      </trkpt>
      <trkpt lat="45.51704" lon="6.73734">
        <ele>1841</ele>
        <time>2021-08-12T08:08:18Z</time>
      </trkpt>
      <trkpt lat="45.51703" lon="6.73733">
        <ele>1841</ele>
        <time>2021-08-12T08:08:19Z</time>
      </trkpt>
      <trkpt lat="45.51702" lon="6.73733">
        <ele>1841</ele>
        <time>2021-08-12T08:08:20Z</time>
      </trkpt>
      <trkpt lat="45.51701" lon="6.73732">
        <ele>1841</ele>
        <time>2021-08-12T08:08:21Z</time>
      </trkpt>
      <trkpt lat="45.517" lon="6.73732">
        <ele>1841</ele>
        <time>2021-08-12T08:08:22Z</time>
      </trkpt>
      <trkpt lat="45.51699" lon="6.73732">
        <ele>1841</ele>
        <time>2021-08-12T08:08:23Z</time>
      </trkpt>
      <trkpt lat="45.51698" lon="6.73731">
        <ele>1841</ele>
        <time>2021-08-12T08:08:24Z</time>
      </trkpt>
      <trkpt lat="45.51697" lon="6.73731">
        <ele>1841</ele>
        <time>2021-08-12T08:08:25Z</time>
      </trkpt>
      <trkpt lat="45.51696" lon="6.7373">
        <ele>1841</ele>
        <time>2021-08-12T08:08:26Z</time>
      </trkpt>
      <trkpt lat="45.51694" lon="6.7373">
        <ele>1841</ele>
        <time>2021-08-12T08:08:27Z</time>
      </trkpt>
      <trkpt lat="45.51693" lon="6.73729">
        <ele>1841.1</ele>
        <time>2021-08-12T08:08:28Z</time>
      </trkpt>
      <trkpt lat="45.51692" lon="6.73729">
        <ele>1841.1</ele>
        <time>2021-08-12T08:08:29Z</time>
      </trkpt>
      <trkpt lat="45.51691" lon="6.73728">
        <ele>1841.1</ele>
        <time>2021-08-12T08:08:30Z</time>
      </trkpt>
      <trkpt lat="45.5169" lon="6.73728">
        <ele>1841.2</ele>
        <time>2021-08-12T08:08:31Z</time>
      </trkpt>
      <trkpt lat="45.51689" lon="6.73727">
        <ele>1841.2</ele>
        <time>2021-08-12T08:08:32Z</time>
      </trkpt>
      <trkpt lat="45.51687" lon="6.73727">
        <ele>1841.3</ele>
        <time>2021-08-12T08:08:33Z</time>
      </trkpt>
      <trkpt lat="45.51686" lon="6.73726">
        <ele>1841.3</ele>
        <time>2021-08-12T08:08:34Z</time>
      </trkpt>
      <trkpt lat="45.51685" lon="6.73726">
        <ele>1841.4</ele>
        <time>2021-08-12T08:08:35Z</time>
      </trkpt>
      <trkpt lat="45.51684" lon="6.73726">
        <ele>1841.4</ele>
        <time>2021-08-12T08:08:36Z</time>
      </trkpt>
      <trkpt lat="45.51684" lon="6.73725">
        <ele>1841.4</ele>
        <time>2021-08-12T08:08:37Z</time>
      </trkpt>
      <trkpt lat="45.51683" lon="6.73725">
        <ele>1841.4</ele>
        <time>2021-08-12T08:08:38Z</time>
      </trkpt>
      <trkpt lat="45.51683" lon="6.73725">
        <ele>1841.5</ele>
        <time>2021-08-12T08:08:39Z</time>
      </trkpt>
      <trkpt lat="45.51683" lon="6.73725">
        <ele>1841.5</ele>
        <time>2021-08-12T08:08:40Z</time>
      </trkpt>
      <trkpt lat="45.51683" lon="6.73725">
        <ele>1841.5</ele>
        <time>2021-08-12T08:08:41Z</time>
      </trkpt>
      <trkpt lat="45.51683" lon="6.73725">
        <ele>1841.5</ele>
        <time>2021-08-12T08:08:42Z</time>
      </trkpt>
      <trkpt lat="45.51683" lon="6.73725">
        <ele>1841.5</ele>
        <time>2021-08-12T08:08:43Z</time>
      </trkpt>
      <trkpt lat="45.51683" lon="6.73725">
        <ele>1841.5</ele>
        <time>2021-08-12T08:08:44Z</time>
      </trkpt>
      <trkpt lat="45.51683" lon="6.73725">
        <ele>1841.5</ele>
        <time>2021-08-12T08:08:45Z</time>
      </trkpt>
      <trkpt lat="45.51683" lon="6.73725">
        <ele>1841.5</ele>
        <time>2021-08-12T08:08:46Z</time>
      </trkpt>
      <trkpt lat="45.51683" lon="6.73725">
        <ele>1841.5</ele>
        <time>2021-08-12T08:08:47Z</time>
      </trkpt>
      <trkpt lat="45.51683" lon="6.73725">
        <ele>1841.5</ele>
        <time>2021-08-12T08:08:48Z</time>
      </trkpt>
      <trkpt lat="45.51683" lon="6.73725">
        <ele>1841.5</ele>
        <time>2021-08-12T08:08:49Z</time>
      </trkpt>
      <trkpt lat="45.51682" lon="6.73725">
        <ele>1841.5</ele>
        <time>2021-08-12T08:08:50Z</time>
      </trkpt>
      <trkpt lat="45.51682" lon="6.73725">
        <ele>1841.5</ele>
        <time>2021-08-12T08:08:51Z</time>
      </trkpt>
      <trkpt lat="45.51681" lon="6.73725">
        <ele>1841.6</ele>
        <time>2021-08-12T08:08:52Z</time>
      </trkpt>
      <trkpt lat="45.5168" lon="6.73725">
        <ele>1841.6</ele>
        <time>2021-08-12T08:08:53Z</time>
      </trkpt>
      <trkpt lat="45.51679" lon="6.73724">
        <ele>1841.6</ele>
        <time>2021-08-12T08:08:54Z</time>
      </trkpt>
      <trkpt lat="45.51679" lon="6.73724">
        <ele>1841.6</ele>
        <time>2021-08-12T08:08:55Z</time>
      </trkpt>
      <trkpt lat="45.51678" lon="6.73724">
        <ele>1841.7</ele>
        <time>2021-08-12T08:08:56Z</time>
      </trkpt>
      <trkpt lat="45.51677" lon="6.73724">
        <ele>1841.7</ele>
        <time>2021-08-12T08:08:57Z</time>
      </trkpt>
      <trkpt lat="45.51676" lon="6.73723">
        <ele>1841.8</ele>
        <time>2021-08-12T08:08:58Z</time>
      </trkpt>
      <trkpt lat="45.51675" lon="6.73723">
        <ele>1841.8</ele>
        <time>2021-08-12T08:08:59Z</time>
      </trkpt>
      <trkpt lat="45.51674" lon="6.73723">
        <ele>1841.8</ele>
        <time>2021-08-12T08:09:00Z</time>
      </trkpt>
      <trkpt lat="45.51673" lon="6.73723">
        <ele>1841.9</ele>
        <time>2021-08-12T08:09:01Z</time>
      </trkpt>
      <trkpt lat="45.51672" lon="6.73722">
        <ele>1841.9</ele>
        <time>2021-08-12T08:09:02Z</time>
      </trkpt>
      <trkpt lat="45.51671" lon="6.73722">
        <ele>1842</ele>
        <time>2021-08-12T08:09:03Z</time>
      </trkpt>
      <trkpt lat="45.5167" lon="6.73722">
        <ele>1842</ele>
        <time>2021-08-12T08:09:04Z</time>
      </trkpt>
      <trkpt lat="45.51669" lon="6.73721">
        <ele>1842</ele>
        <time>2021-08-12T08:09:05Z</time>
      </trkpt>
      <trkpt lat="45.51668" lon="6.73721">
        <ele>1842.1</ele>
        <time>2021-08-12T08:09:06Z</time>
      </trkpt>
      <trkpt lat="45.51667" lon="6.73721">
        <ele>1842.1</ele>
        <time>2021-08-12T08:09:07Z</time>
      </trkpt>
      <trkpt lat="45.51666" lon="6.7372">
        <ele>1842.2</ele>
        <time>2021-08-12T08:09:08Z</time>
      </trkpt>
      <trkpt lat="45.51665" lon="6.7372">
        <ele>1842.2</ele>
        <time>2021-08-12T08:09:09Z</time>
      </trkpt>
      <trkpt lat="45.51664" lon="6.7372">
        <ele>1842.3</ele>
        <time>2021-08-12T08:09:10Z</time>
      </trkpt>
      <trkpt lat="45.51663" lon="6.7372">
        <ele>1842.3</ele>
        <time>2021-08-12T08:09:11Z</time>
      </trkpt>
      <trkpt lat="45.51662" lon="6.73719">
        <ele>1842.4</ele>
        <time>2021-08-12T08:09:12Z</time>
      </trkpt>
      <trkpt lat="45.51661" lon="6.73719">
        <ele>1842.4</ele>
        <time>2021-08-12T08:09:13Z</time>
      </trkpt>
      <trkpt lat="45.5166" lon="6.73718">
        <ele>1842.5</ele>
        <time>2021-08-12T08:09:14Z</time>
      </trkpt>
      <trkpt lat="45.51659" lon="6.73718">
        <ele>1842.5</ele>
        <time>2021-08-12T08:09:15Z</time>
      </trkpt>
      <trkpt lat="45.51658" lon="6.73718">
        <ele>1842.6</ele>
        <time>2021-08-12T08:09:16Z</time>
      </trkpt>
      <trkpt lat="45.51657" lon="6.73717">
        <ele>1842.6</ele>
        <time>2021-08-12T08:09:17Z</time>
      </trkpt>
      <trkpt lat="45.51656" lon="6.73717">
        <ele>1842.7</ele>
        <time>2021-08-12T08:09:18Z</time>
      </trkpt>
      <trkpt lat="45.51655" lon="6.73717">
        <ele>1842.7</ele>
        <time>2021-08-12T08:09:19Z</time>
      </trkpt>
      <trkpt lat="45.51653" lon="6.73716">
        <ele>1842.8</ele>
        <time>2021-08-12T08:09:20Z</time>
      </trkpt>
      <trkpt lat="45.51652" lon="6.73716">
        <ele>1842.8</ele>
        <time>2021-08-12T08:09:21Z</time>
      </trkpt>
      <trkpt lat="45.51651" lon="6.73715">
        <ele>1842.9</ele>
        <time>2021-08-12T08:09:22Z</time>
      </trkpt>
      <trkpt lat="45.5165" lon="6.73715">
        <ele>1842.9</ele>
        <time>2021-08-12T08:09:23Z</time>
      </trkpt>
      <trkpt lat="45.5165" lon="6.73715">
        <ele>1843</ele>
        <time>2021-08-12T08:09:24Z</time>
      </trkpt>
      <trkpt lat="45.51649" lon="6.73714">
        <ele>1843</ele>
        <time>2021-08-12T08:09:25Z</time>
      </trkpt>
      <trkpt lat="45.51648" lon="6.73714">
        <ele>1843.1</ele>
        <time>2021-08-12T08:09:26Z</time>
      </trkpt>
      <trkpt lat="45.51647" lon="6.73714">
        <ele>1843.1</ele>
        <time>2021-08-12T08:09:27Z</time>
      </trkpt>
      <trkpt lat="45.51647" lon="6.73714">
        <ele>1843.1</ele>
        <time>2021-08-12T08:09:28Z</time>
      </trkpt>
      <trkpt lat="45.51646" lon="6.73713">
        <ele>1843.2</ele>
        <time>2021-08-12T08:09:29Z</time>
      </trkpt>
      <trkpt lat="45.51646" lon="6.73713">
        <ele>1843.2</ele>
        <time>2021-08-12T08:09:30Z</time>
      </trkpt>
      <trkpt lat="45.51646" lon="6.73713">
        <ele>1843.2</ele>
        <time>2021-08-12T08:09:31Z</time>
      </trkpt>
      <trkpt lat="45.51646" lon="6.73713">
        <ele>1843.2</ele>
        <time>2021-08-12T08:09:32Z</time>
      </trkpt>
      <trkpt lat="45.51645" lon="6.73713">
        <ele>1843.2</ele>
        <time>2021-08-12T08:09:33Z</time>
      </trkpt>
      <trkpt lat="45.51645" lon="6.73713">
        <ele>1843.2</ele>
        <time>2021-08-12T08:09:34Z</time>
      </trkpt>
      <trkpt lat="45.51645" lon="6.73713">
        <ele>1843.2</ele>
        <time>2021-08-12T08:09:35Z</time>
      </trkpt>
      <trkpt lat="45.51645" lon="6.73713">
        <ele>1843.2</ele>
        <time>2021-08-12T08:09:36Z</time>
      </trkpt>
      <trkpt lat="45.51645" lon="6.73713">
        <ele>1843.2</ele>
        <time>2021-08-12T08:09:37Z</time>
      </trkpt>
      <trkpt lat="45.51646" lon="6.73713">
        <ele>1843.2</ele>
        <time>2021-08-12T08:09:38Z</time>
      </trkpt>
      <trkpt lat="45.51646" lon="6.73713">
        <ele>1843.2</ele>
        <time>2021-08-12T08:09:39Z</time>
      </trkpt>
      <trkpt lat="45.51646" lon="6.73713">
        <ele>1843.2</ele>
        <time>2021-08-12T08:09:40Z</time>
      </trkpt>
      <trkpt lat="45.51646" lon="6.73713">
        <ele>1843.2</ele>
        <time>2021-08-12T08:09:41Z</time>
      </trkpt>
      <trkpt lat="45.51646" lon="6.73713">
        <ele>1843.2</ele>
        <time>2021-08-12T08:09:42Z</time>
      </trkpt>
      <trkpt lat="45.51646" lon="6.73713">
        <ele>1843.2</ele>
        <time>2021-08-12T08:09:43Z</time>
      </trkpt>
      <trkpt lat="45.51646" lon="6.73713">
        <ele>1843.2</ele>
        <time>2021-08-12T08:09:44Z</time>
      </trkpt>
      <trkpt lat="45.51646" lon="6.73713">
        <ele>1843.2</ele>
        <time>2021-08-12T08:09:45Z</time>
      </trkpt>
      <trkpt lat="45.51645" lon="6.73713">
        <ele>1843.3</ele>
        <time>2021-08-12T08:09:46Z</time>
      </trkpt>
      <trkpt lat="45.51645" lon="6.73713">
        <ele>1843.3</ele>
        <time>2021-08-12T08:09:47Z</time>
      </trkpt>
      <trkpt lat="45.51644" lon="6.73713">
        <ele>1843.3</ele>
        <time>2021-08-12T08:09:48Z</time>
      </trkpt>
      <trkpt lat="45.51644" lon="6.73713">
        <ele>1843.3</ele>
        <time>2021-08-12T08:09:49Z</time>
      </trkpt>
      <trkpt lat="45.51643" lon="6.73713">
        <ele>1843.3</ele>
        <time>2021-08-12T08:09:50Z</time>
      </trkpt>
      <trkpt lat="45.51643" lon="6.73713">
        <ele>1843.4</ele>
        <time>2021-08-12T08:09:51Z</time>
      </trkpt>
      <trkpt lat="45.51642" lon="6.73713">
        <ele>1843.4</ele>
        <time>2021-08-12T08:09:52Z</time>
      </trkpt>
      <trkpt lat="45.51641" lon="6.73713">
        <ele>1843.5</ele>
        <time>2021-08-12T08:09:53Z</time>
      </trkpt>
      <trkpt lat="45.5164" lon="6.73713">
        <ele>1843.5</ele>
        <time>2021-08-12T08:09:54Z</time>
      </trkpt>
      <trkpt lat="45.51639" lon="6.73713">
        <ele>1843.6</ele>
        <time>2021-08-12T08:09:55Z</time>
      </trkpt>
      <trkpt lat="45.51638" lon="6.73712">
        <ele>1843.6</ele>
        <time>2021-08-12T08:09:56Z</time>
      </trkpt>
      <trkpt lat="45.51637" lon="6.73712">
        <ele>1843.7</ele>
        <time>2021-08-12T08:09:57Z</time>
      </trkpt>
      <trkpt lat="45.51636" lon="6.73712">
        <ele>1843.7</ele>
        <time>2021-08-12T08:09:58Z</time>
      </trkpt>
      <trkpt lat="45.51635" lon="6.73712">
        <ele>1843.8</ele>
        <time>2021-08-12T08:09:59Z</time>
      </trkpt>
      <trkpt lat="45.51634" lon="6.73712">
        <ele>1843.8</ele>
        <time>2021-08-12T08:10:00Z</time>
      </trkpt>
      <trkpt lat="45.51633" lon="6.73712">
        <ele>1843.8</ele>
        <time>2021-08-12T08:10:01Z</time>
      </trkpt>
      <trkpt lat="45.51632" lon="6.73711">
        <ele>1843.9</ele>
        <time>2021-08-12T08:10:02Z</time>
      </trkpt>
      <trkpt lat="45.51631" lon="6.73711">
        <ele>1844</ele>
        <time>2021-08-12T08:10:03Z</time>
      </trkpt>
      <trkpt lat="45.5163" lon="6.73711">
        <ele>1844</ele>
        <time>2021-08-12T08:10:04Z</time>
      </trkpt>
      <trkpt lat="45.51629" lon="6.7371">
        <ele>1844.1</ele>
        <time>2021-08-12T08:10:05Z</time>
      </trkpt>
      <trkpt lat="45.51628" lon="6.7371">
        <ele>1844.1</ele>
        <time>2021-08-12T08:10:06Z</time>
      </trkpt>
      <trkpt lat="45.51627" lon="6.7371">
        <ele>1844.2</ele>
        <time>2021-08-12T08:10:07Z</time>
      </trkpt>
      <trkpt lat="45.51626" lon="6.73709">
        <ele>1844.2</ele>
        <time>2021-08-12T08:10:08Z</time>
      </trkpt>
      <trkpt lat="45.51625" lon="6.73709">
        <ele>1844.3</ele>
        <time>2021-08-12T08:10:09Z</time>
      </trkpt>
      <trkpt lat="45.51624" lon="6.73709">
        <ele>1844.3</ele>
        <time>2021-08-12T08:10:10Z</time>
      </trkpt>
      <trkpt lat="45.51623" lon="6.73708">
        <ele>1844.4</ele>
        <time>2021-08-12T08:10:11Z</time>
      </trkpt>
      <trkpt lat="45.51622" lon="6.73708">
        <ele>1844.4</ele>
        <time>2021-08-12T08:10:12Z</time>
      </trkpt>
      <trkpt lat="45.5162" lon="6.73708">
        <ele>1844.5</ele>
        <time>2021-08-12T08:10:13Z</time>
      </trkpt>
      <trkpt lat="45.51619" lon="6.73707">
        <ele>1844.5</ele>
        <time>2021-08-12T08:10:14Z</time>
      </trkpt>
      <trkpt lat="45.51618" lon="6.73707">
        <ele>1844.6</ele>
        <time>2021-08-12T08:10:15Z</time>
      </trkpt>
      <trkpt lat="45.51617" lon="6.73706">
        <ele>1844.7</ele>
        <time>2021-08-12T08:10:16Z</time>
      </trkpt>
      <trkpt lat="45.51616" lon="6.73706">
        <ele>1844.7</ele>
        <time>2021-08-12T08:10:17Z</time>
      </trkpt>
      <trkpt lat="45.51615" lon="6.73705">
        <ele>1844.8</ele>
        <time>2021-08-12T08:10:18Z</time>
      </trkpt>
      <trkpt lat="45.51614" lon="6.73705">
        <ele>1844.8</ele>
        <time>2021-08-12T08:10:19Z</time>
      </trkpt>
      <trkpt lat="45.51613" lon="6.73704">
        <ele>1844.9</ele>
        <time>2021-08-12T08:10:20Z</time>
      </trkpt>
      <trkpt lat="45.51612" lon="6.73704">
        <ele>1845</ele>
        <time>2021-08-12T08:10:21Z</time>
      </trkpt>
      <trkpt lat="45.51611" lon="6.73703">
        <ele>1845</ele>
        <time>2021-08-12T08:10:22Z</time>
      </trkpt>
      <trkpt lat="45.5161" lon="6.73702">
        <ele>1845.1</ele>
        <time>2021-08-12T08:10:23Z</time>
      </trkpt>
      <trkpt lat="45.51609" lon="6.73702">
        <ele>1845.1</ele>
        <time>2021-08-12T08:10:24Z</time>
      </trkpt>
      <trkpt lat="45.51608" lon="6.73701">
        <ele>1845.2</ele>
        <time>2021-08-12T08:10:25Z</time>
      </trkpt>
      <trkpt lat="45.51607" lon="6.73701">
        <ele>1845.3</ele>
        <time>2021-08-12T08:10:26Z</time>
      </trkpt>
      <trkpt lat="45.51606" lon="6.737">
        <ele>1845.3</ele>
        <time>2021-08-12T08:10:27Z</time>
      </trkpt>
      <trkpt lat="45.51605" lon="6.737">
        <ele>1845.4</ele>
        <time>2021-08-12T08:10:28Z</time>
      </trkpt>
      <trkpt lat="45.51604" lon="6.73699">
        <ele>1845.5</ele>
        <time>2021-08-12T08:10:29Z</time>
      </trkpt>
      <trkpt lat="45.51603" lon="6.73699">
        <ele>1845.5</ele>
        <time>2021-08-12T08:10:30Z</time>
      </trkpt>
      <trkpt lat="45.51602" lon="6.73698">
        <ele>1845.6</ele>
        <time>2021-08-12T08:10:31Z</time>
      </trkpt>
      <trkpt lat="45.51601" lon="6.73697">
        <ele>1845.7</ele>
        <time>2021-08-12T08:10:32Z</time>
      </trkpt>
      <trkpt lat="45.516" lon="6.73697">
        <ele>1845.8</ele>
        <time>2021-08-12T08:10:33Z</time>
      </trkpt>
      <trkpt lat="45.51599" lon="6.73696">
        <ele>1845.8</ele>
        <time>2021-08-12T08:10:34Z</time>
      </trkpt>
      <trkpt lat="45.51598" lon="6.73696">
        <ele>1845.9</ele>
        <time>2021-08-12T08:10:35Z</time>
      </trkpt>
      <trkpt lat="45.51597" lon="6.73696">
        <ele>1846</ele>
        <time>2021-08-12T08:10:36Z</time>
      </trkpt>
      <trkpt lat="45.51596" lon="6.73695">
        <ele>1846</ele>
        <time>2021-08-12T08:10:37Z</time>
      </trkpt>
      <trkpt lat="45.51595" lon="6.73695">
        <ele>1846.1</ele>
        <time>2021-08-12T08:10:38Z</time>
      </trkpt>
      <trkpt lat="45.51594" lon="6.73694">
        <ele>1846.2</ele>
        <time>2021-08-12T08:10:39Z</time>
      </trkpt>
      <trkpt lat="45.51593" lon="6.73694">
        <ele>1846.3</ele>
        <time>2021-08-12T08:10:40Z</time>
      </trkpt>
      <trkpt lat="45.51592" lon="6.73693">
        <ele>1846.4</ele>
        <time>2021-08-12T08:10:41Z</time>
      </trkpt>
      <trkpt lat="45.51591" lon="6.73693">
        <ele>1846.5</ele>
        <time>2021-08-12T08:10:42Z</time>
      </trkpt>
      <trkpt lat="45.5159" lon="6.73693">
        <ele>1846.5</ele>
        <time>2021-08-12T08:10:43Z</time>
      </trkpt>
      <trkpt lat="45.51589" lon="6.73692">
        <ele>1846.6</ele>
        <time>2021-08-12T08:10:44Z</time>
      </trkpt>
      <trkpt lat="45.51588" lon="6.73692">
        <ele>1846.7</ele>
        <time>2021-08-12T08:10:45Z</time>
      </trkpt>
      <trkpt lat="45.51587" lon="6.73692">
        <ele>1846.8</ele>
        <time>2021-08-12T08:10:46Z</time>
      </trkpt>
      <trkpt lat="45.51586" lon="6.73691">
        <ele>1846.9</ele>
        <time>2021-08-12T08:10:47Z</time>
      </trkpt>
      <trkpt lat="45.51585" lon="6.73691">
        <ele>1847</ele>
        <time>2021-08-12T08:10:48Z</time>
      </trkpt>
      <trkpt lat="45.51584" lon="6.73691">
        <ele>1847.1</ele>
        <time>2021-08-12T08:10:49Z</time>
      </trkpt>
      <trkpt lat="45.51583" lon="6.7369">
        <ele>1847.2</ele>
        <time>2021-08-12T08:10:50Z</time>
      </trkpt>
      <trkpt lat="45.51581" lon="6.7369">
        <ele>1847.2</ele>
        <time>2021-08-12T08:10:51Z</time>
      </trkpt>
      <trkpt lat="45.5158" lon="6.7369">
        <ele>1847.3</ele>
        <time>2021-08-12T08:10:52Z</time>
      </trkpt>
      <trkpt lat="45.51579" lon="6.7369">
        <ele>1847.4</ele>
        <time>2021-08-12T08:10:53Z</time>
      </trkpt>
      <trkpt lat="45.51578" lon="6.73689">
        <ele>1847.5</ele>
        <time>2021-08-12T08:10:54Z</time>
      </trkpt>
      <trkpt lat="45.51577" lon="6.73689">
        <ele>1847.6</ele>
        <time>2021-08-12T08:10:55Z</time>
      </trkpt>
      <trkpt lat="45.51576" lon="6.73689">
        <ele>1847.7</ele>
        <time>2021-08-12T08:10:56Z</time>
      </trkpt>
      <trkpt lat="45.51575" lon="6.73689">
        <ele>1847.7</ele>
        <time>2021-08-12T08:10:57Z</time>
      </trkpt>
      <trkpt lat="45.51574" lon="6.73688">
        <ele>1847.8</ele>
        <time>2021-08-12T08:10:58Z</time>
      </trkpt>
      <trkpt lat="45.51573" lon="6.73688">
        <ele>1847.9</ele>
        <time>2021-08-12T08:10:59Z</time>
      </trkpt>
      <trkpt lat="45.51572" lon="6.73688">
        <ele>1848</ele>
        <time>2021-08-12T08:11:00Z</time>
      </trkpt>
      <trkpt lat="45.51571" lon="6.73688">
        <ele>1848.1</ele>
        <time>2021-08-12T08:11:01Z</time>
      </trkpt>
      <trkpt lat="45.5157" lon="6.73688">
        <ele>1848.1</ele>
        <time>2021-08-12T08:11:02Z</time>
      </trkpt>
      <trkpt lat="45.51569" lon="6.73687">
        <ele>1848.2</ele>
        <time>2021-08-12T08:11:03Z</time>
      </trkpt>
      <trkpt lat="45.51568" lon="6.73687">
        <ele>1848.3</ele>
        <time>2021-08-12T08:11:04Z</time>
      </trkpt>
      <trkpt lat="45.51567" lon="6.73687">
        <ele>1848.4</ele>
        <time>2021-08-12T08:11:05Z</time>
      </trkpt>
      <trkpt lat="45.51566" lon="6.73687">
        <ele>1848.4</ele>
        <time>2021-08-12T08:11:06Z</time>
      </trkpt>
      <trkpt lat="45.51565" lon="6.73687">
        <ele>1848.5</ele>
        <time>2021-08-12T08:11:07Z</time>
      </trkpt>
      <trkpt lat="45.51564" lon="6.73686">
        <ele>1848.6</ele>
        <time>2021-08-12T08:11:08Z</time>
      </trkpt>
      <trkpt lat="45.51563" lon="6.73686">
        <ele>1848.7</ele>
        <time>2021-08-12T08:11:09Z</time>
      </trkpt>
      <trkpt lat="45.51562" lon="6.73686">
        <ele>1848.7</ele>
        <time>2021-08-12T08:11:10Z</time>
      </trkpt>
      <trkpt lat="45.51561" lon="6.73686">
        <ele>1848.8</ele>
        <time>2021-08-12T08:11:11Z</time>
      </trkpt>
      <trkpt lat="45.51561" lon="6.73686">
        <ele>1848.9</ele>
        <time>2021-08-12T08:11:12Z</time>
      </trkpt>
      <trkpt lat="45.5156" lon="6.73685">
        <ele>1848.9</ele>
        <time>2021-08-12T08:11:13Z</time>
      </trkpt>
      <trkpt lat="45.51559" lon="6.73685">
        <ele>1849</ele>
        <time>2021-08-12T08:11:14Z</time>
      </trkpt>
      <trkpt lat="45.51558" lon="6.73685">
        <ele>1849.1</ele>
        <time>2021-08-12T08:11:15Z</time>
      </trkpt>
      <trkpt lat="45.51557" lon="6.73685">
        <ele>1849.2</ele>
        <time>2021-08-12T08:11:16Z</time>
      </trkpt>
      <trkpt lat="45.51556" lon="6.73685">
        <ele>1849.2</ele>
        <time>2021-08-12T08:11:17Z</time>
      </trkpt>
      <trkpt lat="45.51555" lon="6.73684">
        <ele>1849.3</ele>
        <time>2021-08-12T08:11:18Z</time>
      </trkpt>
      <trkpt lat="45.51554" lon="6.73684">
        <ele>1849.4</ele>
        <time>2021-08-12T08:11:19Z</time>
      </trkpt>
      <trkpt lat="45.51553" lon="6.73684">
        <ele>1849.4</ele>
        <time>2021-08-12T08:11:20Z</time>
      </trkpt>
      <trkpt lat="45.51552" lon="6.73684">
        <ele>1849.5</ele>
        <time>2021-08-12T08:11:21Z</time>
      </trkpt>
      <trkpt lat="45.51551" lon="6.73684">
        <ele>1849.6</ele>
        <time>2021-08-12T08:11:22Z</time>
      </trkpt>
      <trkpt lat="45.5155" lon="6.73684">
        <ele>1849.6</ele>
        <time>2021-08-12T08:11:23Z</time>
      </trkpt>
      <trkpt lat="45.51549" lon="6.73683">
        <ele>1849.7</ele>
        <time>2021-08-12T08:11:24Z</time>
      </trkpt>
      <trkpt lat="45.51548" lon="6.73683">
        <ele>1849.7</ele>
        <time>2021-08-12T08:11:25Z</time>
      </trkpt>
      <trkpt lat="45.51547" lon="6.73683">
        <ele>1849.8</ele>
        <time>2021-08-12T08:11:26Z</time>
      </trkpt>
      <trkpt lat="45.51546" lon="6.73683">
        <ele>1849.9</ele>
        <time>2021-08-12T08:11:27Z</time>
      </trkpt>
      <trkpt lat="45.51545" lon="6.73683">
        <ele>1849.9</ele>
        <time>2021-08-12T08:11:28Z</time>
      </trkpt>
      <trkpt lat="45.51544" lon="6.73683">
        <ele>1850</ele>
        <time>2021-08-12T08:11:29Z</time>
      </trkpt>
      <trkpt lat="45.51543" lon="6.73682">
        <ele>1850.1</ele>
        <time>2021-08-12T08:11:30Z</time>
      </trkpt>
      <trkpt lat="45.51542" lon="6.73682">
        <ele>1850.1</ele>
        <time>2021-08-12T08:11:31Z</time>
      </trkpt>
      <trkpt lat="45.51541" lon="6.73682">
        <ele>1850.2</ele>
        <time>2021-08-12T08:11:32Z</time>
      </trkpt>
      <trkpt lat="45.5154" lon="6.73682">
        <ele>1850.2</ele>
        <time>2021-08-12T08:11:33Z</time>
      </trkpt>
      <trkpt lat="45.51539" lon="6.73682">
        <ele>1850.3</ele>
        <time>2021-08-12T08:11:34Z</time>
      </trkpt>
      <trkpt lat="45.51538" lon="6.73681">
        <ele>1850.4</ele>
        <time>2021-08-12T08:11:35Z</time>
      </trkpt>
      <trkpt lat="45.51537" lon="6.73681">
        <ele>1850.4</ele>
        <time>2021-08-12T08:11:36Z</time>
      </trkpt>
      <trkpt lat="45.51536" lon="6.73681">
        <ele>1850.5</ele>
        <time>2021-08-12T08:11:37Z</time>
      </trkpt>
      <trkpt lat="45.51535" lon="6.73681">
        <ele>1850.5</ele>
        <time>2021-08-12T08:11:38Z</time>
      </trkpt>
      <trkpt lat="45.51535" lon="6.73681">
        <ele>1850.6</ele>
        <time>2021-08-12T08:11:39Z</time>
      </trkpt>
      <trkpt lat="45.51534" lon="6.7368">
        <ele>1850.7</ele>
        <time>2021-08-12T08:11:40Z</time>
      </trkpt>
      <trkpt lat="45.51533" lon="6.7368">
        <ele>1850.7</ele>
        <time>2021-08-12T08:11:41Z</time>
      </trkpt>
      <trkpt lat="45.51532" lon="6.7368">
        <ele>1850.8</ele>
        <time>2021-08-12T08:11:42Z</time>
      </trkpt>
      <trkpt lat="45.51531" lon="6.7368">
        <ele>1850.9</ele>
        <time>2021-08-12T08:11:43Z</time>
      </trkpt>
      <trkpt lat="45.5153" lon="6.7368">
        <ele>1850.9</ele>
        <time>2021-08-12T08:11:44Z</time>
      </trkpt>
      <trkpt lat="45.51529" lon="6.73679">
        <ele>1851</ele>
        <time>2021-08-12T08:11:45Z</time>
      </trkpt>
      <trkpt lat="45.51528" lon="6.73679">
        <ele>1851</ele>
        <time>2021-08-12T08:11:46Z</time>
      </trkpt>
      <trkpt lat="45.51527" lon="6.73679">
        <ele>1851.1</ele>
        <time>2021-08-12T08:11:47Z</time>
      </trkpt>
      <trkpt lat="45.51525" lon="6.73679">
        <ele>1851.2</ele>
        <time>2021-08-12T08:11:48Z</time>
      </trkpt>
      <trkpt lat="45.51524" lon="6.73678">
        <ele>1851.2</ele>
        <time>2021-08-12T08:11:49Z</time>
      </trkpt>
      <trkpt lat="45.51523" lon="6.73678">
        <ele>1851.3</ele>
        <time>2021-08-12T08:11:50Z</time>
      </trkpt>
      <trkpt lat="45.51522" lon="6.73678">
        <ele>1851.4</ele>
        <time>2021-08-12T08:11:51Z</time>
      </trkpt>
      <trkpt lat="45.51521" lon="6.73678">
        <ele>1851.5</ele>
        <time>2021-08-12T08:11:52Z</time>
      </trkpt>
      <trkpt lat="45.5152" lon="6.73677">
        <ele>1851.5</ele>
        <time>2021-08-12T08:11:53Z</time>
      </trkpt>
      <trkpt lat="45.51519" lon="6.73677">
        <ele>1851.6</ele>
        <time>2021-08-12T08:11:54Z</time>
      </trkpt>
      <trkpt lat="45.51518" lon="6.73677">
        <ele>1851.7</ele>
        <time>2021-08-12T08:11:55Z</time>
      </trkpt>
      <trkpt lat="45.51517" lon="6.73677">
        <ele>1851.7</ele>
        <time>2021-08-12T08:11:56Z</time>
      </trkpt>
      <trkpt lat="45.51516" lon="6.73676">
        <ele>1851.8</ele>
        <time>2021-08-12T08:11:57Z</time>
      </trkpt>
      <trkpt lat="45.51515" lon="6.73676">
        <ele>1851.9</ele>
        <time>2021-08-12T08:11:58Z</time>
      </trkpt>
      <trkpt lat="45.51514" lon="6.73676">
        <ele>1852</ele>
        <time>2021-08-12T08:11:59Z</time>
      </trkpt>
      <trkpt lat="45.51513" lon="6.73676">
        <ele>1852</ele>
        <time>2021-08-12T08:12:00Z</time>
      </trkpt>
      <trkpt lat="45.51512" lon="6.73675">
        <ele>1852.1</ele>
        <time>2021-08-12T08:12:01Z</time>
      </trkpt>
      <trkpt lat="45.51511" lon="6.73675">
        <ele>1852.2</ele>
        <time>2021-08-12T08:12:02Z</time>
      </trkpt>
      <trkpt lat="45.5151" lon="6.73675">
        <ele>1852.2</ele>
        <time>2021-08-12T08:12:03Z</time>
      </trkpt>
      <trkpt lat="45.51509" lon="6.73675">
        <ele>1852.3</ele>
        <time>2021-08-12T08:12:04Z</time>
      </trkpt>
      <trkpt lat="45.51508" lon="6.73675">
        <ele>1852.4</ele>
        <time>2021-08-12T08:12:05Z</time>
      </trkpt>
      <trkpt lat="45.51507" lon="6.73675">
        <ele>1852.4</ele>
        <time>2021-08-12T08:12:06Z</time>
      </trkpt>
      <trkpt lat="45.51506" lon="6.73674">
        <ele>1852.5</ele>
        <time>2021-08-12T08:12:07Z</time>
      </trkpt>
      <trkpt lat="45.51505" lon="6.73674">
        <ele>1852.6</ele>
        <time>2021-08-12T08:12:08Z</time>
      </trkpt>
      <trkpt lat="45.51504" lon="6.73674">
        <ele>1852.6</ele>
        <time>2021-08-12T08:12:09Z</time>
      </trkpt>
      <trkpt lat="45.51503" lon="6.73674">
        <ele>1852.7</ele>
        <time>2021-08-12T08:12:10Z</time>
      </trkpt>
      <trkpt lat="45.51502" lon="6.73674">
        <ele>1852.8</ele>
        <time>2021-08-12T08:12:11Z</time>
      </trkpt>
      <trkpt lat="45.51501" lon="6.73674">
        <ele>1852.8</ele>
        <time>2021-08-12T08:12:12Z</time>
      </trkpt>
      <trkpt lat="45.515" lon="6.73673">
        <ele>1852.9</ele>
        <time>2021-08-12T08:12:13Z</time>
      </trkpt>
      <trkpt lat="45.51499" lon="6.73673">
        <ele>1853</ele>
        <time>2021-08-12T08:12:14Z</time>
      </trkpt>
      <trkpt lat="45.51498" lon="6.73673">
        <ele>1853</ele>
        <time>2021-08-12T08:12:15Z</time>
      </trkpt>
      <trkpt lat="45.51497" lon="6.73672">
        <ele>1853.1</ele>
        <time>2021-08-12T08:12:16Z</time>
      </trkpt>
      <trkpt lat="45.51497" lon="6.73672">
        <ele>1853.2</ele>
        <time>2021-08-12T08:12:17Z</time>
      </trkpt>
      <trkpt lat="45.51496" lon="6.73671">
        <ele>1853.2</ele>
        <time>2021-08-12T08:12:18Z</time>
      </trkpt>
      <trkpt lat="45.51495" lon="6.7367">
        <ele>1853.3</ele>
        <time>2021-08-12T08:12:19Z</time>
      </trkpt>
      <trkpt lat="45.51494" lon="6.7367">
        <ele>1853.4</ele>
        <time>2021-08-12T08:12:20Z</time>
      </trkpt>
      <trkpt lat="45.51493" lon="6.73669">
        <ele>1853.4</ele>
        <time>2021-08-12T08:12:21Z</time>
      </trkpt>
      <trkpt lat="45.51493" lon="6.73668">
        <ele>1853.5</ele>
        <time>2021-08-12T08:12:22Z</time>
      </trkpt>
      <trkpt lat="45.51492" lon="6.73668">
        <ele>1853.6</ele>
        <time>2021-08-12T08:12:23Z</time>
      </trkpt>
      <trkpt lat="45.51491" lon="6.73667">
        <ele>1853.6</ele>
        <time>2021-08-12T08:12:24Z</time>
      </trkpt>
      <trkpt lat="45.5149" lon="6.73666">
        <ele>1853.7</ele>
        <time>2021-08-12T08:12:25Z</time>
      </trkpt>
      <trkpt lat="45.51489" lon="6.73665">
        <ele>1853.8</ele>
        <time>2021-08-12T08:12:26Z</time>
      </trkpt>
      <trkpt lat="45.51489" lon="6.73664">
        <ele>1853.9</ele>
        <time>2021-08-12T08:12:27Z</time>
      </trkpt>
      <trkpt lat="45.51488" lon="6.73664">
        <ele>1853.9</ele>
        <time>2021-08-12T08:12:28Z</time>
      </trkpt>
      <trkpt lat="45.51487" lon="6.73663">
        <ele>1854</ele>
        <time>2021-08-12T08:12:29Z</time>
      </trkpt>
      <trkpt lat="45.51486" lon="6.73662">
        <ele>1854.1</ele>
        <time>2021-08-12T08:12:30Z</time>
      </trkpt>
      <trkpt lat="45.51485" lon="6.73661">
        <ele>1854.2</ele>
        <time>2021-08-12T08:12:31Z</time>
      </trkpt>
      <trkpt lat="45.51484" lon="6.73661">
        <ele>1854.3</ele>
        <time>2021-08-12T08:12:32Z</time>
      </trkpt>
      <trkpt lat="45.51484" lon="6.7366">
        <ele>1854.3</ele>
        <time>2021-08-12T08:12:33Z</time>
      </trkpt>
      <trkpt lat="45.51483" lon="6.73659">
        <ele>1854.4</ele>
        <time>2021-08-12T08:12:34Z</time>
      </trkpt>
      <trkpt lat="45.51482" lon="6.73658">
        <ele>1854.5</ele>
        <time>2021-08-12T08:12:35Z</time>
      </trkpt>
      <trkpt lat="45.51481" lon="6.73658">
        <ele>1854.6</ele>
        <time>2021-08-12T08:12:36Z</time>
      </trkpt>
      <trkpt lat="45.5148" lon="6.73657">
        <ele>1854.6</ele>
        <time>2021-08-12T08:12:37Z</time>
      </trkpt>
      <trkpt lat="45.51479" lon="6.73656">
        <ele>1854.7</ele>
        <time>2021-08-12T08:12:38Z</time>
      </trkpt>
      <trkpt lat="45.51479" lon="6.73655">
        <ele>1854.8</ele>
        <time>2021-08-12T08:12:39Z</time>
      </trkpt>
      <trkpt lat="45.51478" lon="6.73655">
        <ele>1854.9</ele>
        <time>2021-08-12T08:12:40Z</time>
      </trkpt>
      <trkpt lat="45.51477" lon="6.73654">
        <ele>1854.9</ele>
        <time>2021-08-12T08:12:41Z</time>
      </trkpt>
      <trkpt lat="45.51477" lon="6.73653">
        <ele>1855</ele>
        <time>2021-08-12T08:12:42Z</time>
      </trkpt>
      <trkpt lat="45.51476" lon="6.73652">
        <ele>1855.1</ele>
        <time>2021-08-12T08:12:43Z</time>
      </trkpt>
      <trkpt lat="45.51476" lon="6.73652">
        <ele>1855.1</ele>
        <time>2021-08-12T08:12:44Z</time>
      </trkpt>
      <trkpt lat="45.51475" lon="6.73651">
        <ele>1855.2</ele>
        <time>2021-08-12T08:12:45Z</time>
      </trkpt>
      <trkpt lat="45.51475" lon="6.7365">
        <ele>1855.2</ele>
        <time>2021-08-12T08:12:46Z</time>
      </trkpt>
      <trkpt lat="45.51474" lon="6.73649">
        <ele>1855.3</ele>
        <time>2021-08-12T08:12:47Z</time>
      </trkpt>
      <trkpt lat="45.51474" lon="6.73648">
        <ele>1855.3</ele>
        <time>2021-08-12T08:12:48Z</time>
      </trkpt>
      <trkpt lat="45.51473" lon="6.73648">
        <ele>1855.4</ele>
        <time>2021-08-12T08:12:49Z</time>
      </trkpt>
      <trkpt lat="45.51473" lon="6.73647">
        <ele>1855.4</ele>
        <time>2021-08-12T08:12:50Z</time>
      </trkpt>
      <trkpt lat="45.51472" lon="6.73646">
        <ele>1855.5</ele>
        <time>2021-08-12T08:12:51Z</time>
      </trkpt>
      <trkpt lat="45.51472" lon="6.73646">
        <ele>1855.5</ele>
        <time>2021-08-12T08:12:52Z</time>
      </trkpt>
      <trkpt lat="45.51471" lon="6.73645">
        <ele>1855.6</ele>
        <time>2021-08-12T08:12:53Z</time>
      </trkpt>
      <trkpt lat="45.5147" lon="6.73645">
        <ele>1855.7</ele>
        <time>2021-08-12T08:12:54Z</time>
      </trkpt>
      <trkpt lat="45.51469" lon="6.73645">
        <ele>1855.7</ele>
        <time>2021-08-12T08:12:55Z</time>
      </trkpt>
      <trkpt lat="45.51468" lon="6.73644">
        <ele>1855.8</ele>
        <time>2021-08-12T08:12:56Z</time>
      </trkpt>
      <trkpt lat="45.51467" lon="6.73644">
        <ele>1855.9</ele>
        <time>2021-08-12T08:12:57Z</time>
      </trkpt>
      <trkpt lat="45.51466" lon="6.73644">
        <ele>1855.9</ele>
        <time>2021-08-12T08:12:58Z</time>
      </trkpt>
      <trkpt lat="45.51465" lon="6.73644">
        <ele>1856</ele>
        <time>2021-08-12T08:12:59Z</time>
      </trkpt>
      <trkpt lat="45.51464" lon="6.73644">
        <ele>1856</ele>
        <time>2021-08-12T08:13:00Z</time>
      </trkpt>
      <trkpt lat="45.51463" lon="6.73644">
        <ele>1856.1</ele>
        <time>2021-08-12T08:13:01Z</time>
      </trkpt>
      <trkpt lat="45.51462" lon="6.73644">
        <ele>1856.2</ele>
        <time>2021-08-12T08:13:02Z</time>
      </trkpt>
      <trkpt lat="45.51461" lon="6.73644">
        <ele>1856.2</ele>
        <time>2021-08-12T08:13:03Z</time>
      </trkpt>
      <trkpt lat="45.5146" lon="6.73644">
        <ele>1856.3</ele>
        <time>2021-08-12T08:13:04Z</time>
      </trkpt>
      <trkpt lat="45.51459" lon="6.73644">
        <ele>1856.4</ele>
        <time>2021-08-12T08:13:05Z</time>
      </trkpt>
      <trkpt lat="45.51458" lon="6.73645">
        <ele>1856.4</ele>
        <time>2021-08-12T08:13:06Z</time>
      </trkpt>
      <trkpt lat="45.51457" lon="6.73645">
        <ele>1856.5</ele>
        <time>2021-08-12T08:13:07Z</time>
      </trkpt>
      <trkpt lat="45.51456" lon="6.73645">
        <ele>1856.5</ele>
        <time>2021-08-12T08:13:08Z</time>
      </trkpt>
      <trkpt lat="45.51455" lon="6.73645">
        <ele>1856.6</ele>
        <time>2021-08-12T08:13:09Z</time>
      </trkpt>
      <trkpt lat="45.51454" lon="6.73645">
        <ele>1856.6</ele>
        <time>2021-08-12T08:13:10Z</time>
      </trkpt>
      <trkpt lat="45.51453" lon="6.73646">
        <ele>1856.7</ele>
        <time>2021-08-12T08:13:11Z</time>
      </trkpt>
      <trkpt lat="45.51452" lon="6.73646">
        <ele>1856.7</ele>
        <time>2021-08-12T08:13:12Z</time>
      </trkpt>
      <trkpt lat="45.51451" lon="6.73646">
        <ele>1856.8</ele>
        <time>2021-08-12T08:13:13Z</time>
      </trkpt>
      <trkpt lat="45.5145" lon="6.73645">
        <ele>1856.8</ele>
        <time>2021-08-12T08:13:14Z</time>
      </trkpt>
      <trkpt lat="45.51449" lon="6.73645">
        <ele>1856.8</ele>
        <time>2021-08-12T08:13:15Z</time>
      </trkpt>
      <trkpt lat="45.51448" lon="6.73645">
        <ele>1856.9</ele>
        <time>2021-08-12T08:13:16Z</time>
      </trkpt>
      <trkpt lat="45.51448" lon="6.73645">
        <ele>1856.9</ele>
        <time>2021-08-12T08:13:17Z</time>
      </trkpt>
      <trkpt lat="45.51447" lon="6.73645">
        <ele>1857</ele>
        <time>2021-08-12T08:13:18Z</time>
      </trkpt>
      <trkpt lat="45.51446" lon="6.73644">
        <ele>1857</ele>
        <time>2021-08-12T08:13:19Z</time>
      </trkpt>
      <trkpt lat="45.51445" lon="6.73644">
        <ele>1857</ele>
        <time>2021-08-12T08:13:20Z</time>
      </trkpt>
      <trkpt lat="45.51444" lon="6.73643">
        <ele>1857.1</ele>
        <time>2021-08-12T08:13:21Z</time>
      </trkpt>
      <trkpt lat="45.51443" lon="6.73643">
        <ele>1857.1</ele>
        <time>2021-08-12T08:13:22Z</time>
      </trkpt>
      <trkpt lat="45.51443" lon="6.73642">
        <ele>1857.2</ele>
        <time>2021-08-12T08:13:23Z</time>
      </trkpt>
      <trkpt lat="45.51442" lon="6.73642">
        <ele>1857.2</ele>
        <time>2021-08-12T08:13:24Z</time>
      </trkpt>
      <trkpt lat="45.51441" lon="6.73641">
        <ele>1857.3</ele>
        <time>2021-08-12T08:13:25Z</time>
      </trkpt>
      <trkpt lat="45.5144" lon="6.7364">
        <ele>1857.3</ele>
        <time>2021-08-12T08:13:26Z</time>
      </trkpt>
      <trkpt lat="45.5144" lon="6.7364">
        <ele>1857.3</ele>
        <time>2021-08-12T08:13:27Z</time>
      </trkpt>
      <trkpt lat="45.51439" lon="6.73639">
        <ele>1857.4</ele>
        <time>2021-08-12T08:13:28Z</time>
      </trkpt>
      <trkpt lat="45.51438" lon="6.73638">
        <ele>1857.4</ele>
        <time>2021-08-12T08:13:29Z</time>
      </trkpt>
      <trkpt lat="45.51437" lon="6.73637">
        <ele>1857.5</ele>
        <time>2021-08-12T08:13:30Z</time>
      </trkpt>
      <trkpt lat="45.51437" lon="6.73637">
        <ele>1857.5</ele>
        <time>2021-08-12T08:13:31Z</time>
      </trkpt>
      <trkpt lat="45.51436" lon="6.73636">
        <ele>1857.6</ele>
        <time>2021-08-12T08:13:32Z</time>
      </trkpt>
      <trkpt lat="45.51435" lon="6.73635">
        <ele>1857.6</ele>
        <time>2021-08-12T08:13:33Z</time>
      </trkpt>
      <trkpt lat="45.51434" lon="6.73634">
        <ele>1857.6</ele>
        <time>2021-08-12T08:13:34Z</time>
      </trkpt>
      <trkpt lat="45.51434" lon="6.73633">
        <ele>1857.7</ele>
        <time>2021-08-12T08:13:35Z</time>
      </trkpt>
      <trkpt lat="45.51433" lon="6.73632">
        <ele>1857.7</ele>
        <time>2021-08-12T08:13:36Z</time>
      </trkpt>
      <trkpt lat="45.51432" lon="6.73631">
        <ele>1857.8</ele>
        <time>2021-08-12T08:13:37Z</time>
      </trkpt>
      <trkpt lat="45.51432" lon="6.7363">
        <ele>1857.8</ele>
        <time>2021-08-12T08:13:38Z</time>
      </trkpt>
      <trkpt lat="45.51431" lon="6.73629">
        <ele>1857.9</ele>
        <time>2021-08-12T08:13:39Z</time>
      </trkpt>
      <trkpt lat="45.5143" lon="6.73628">
        <ele>1857.9</ele>
        <time>2021-08-12T08:13:40Z</time>
      </trkpt>
      <trkpt lat="45.51429" lon="6.73628">
        <ele>1858</ele>
        <time>2021-08-12T08:13:41Z</time>
      </trkpt>
      <trkpt lat="45.51429" lon="6.73627">
        <ele>1858</ele>
        <time>2021-08-12T08:13:42Z</time>
      </trkpt>
      <trkpt lat="45.51428" lon="6.73626">
        <ele>1858.1</ele>
        <time>2021-08-12T08:13:43Z</time>
      </trkpt>
      <trkpt lat="45.51427" lon="6.73625">
        <ele>1858.1</ele>
        <time>2021-08-12T08:13:44Z</time>
      </trkpt>
      <trkpt lat="45.51427" lon="6.73624">
        <ele>1858.2</ele>
        <time>2021-08-12T08:13:45Z</time>
      </trkpt>
      <trkpt lat="45.51426" lon="6.73623">
        <ele>1858.2</ele>
        <time>2021-08-12T08:13:46Z</time>
      </trkpt>
      <trkpt lat="45.51426" lon="6.73622">
        <ele>1858.2</ele>
        <time>2021-08-12T08:13:47Z</time>
      </trkpt>
      <trkpt lat="45.51425" lon="6.73621">
        <ele>1858.3</ele>
        <time>2021-08-12T08:13:48Z</time>
      </trkpt>
      <trkpt lat="45.51424" lon="6.7362">
        <ele>1858.3</ele>
        <time>2021-08-12T08:13:49Z</time>
      </trkpt>
      <trkpt lat="45.51424" lon="6.73619">
        <ele>1858.4</ele>
        <time>2021-08-12T08:13:50Z</time>
      </trkpt>
      <trkpt lat="45.51423" lon="6.73618">
        <ele>1858.4</ele>
        <time>2021-08-12T08:13:51Z</time>
      </trkpt>
      <trkpt lat="45.51422" lon="6.73617">
        <ele>1858.5</ele>
        <time>2021-08-12T08:13:52Z</time>
      </trkpt>
      <trkpt lat="45.51422" lon="6.73617">
        <ele>1858.5</ele>
        <time>2021-08-12T08:13:53Z</time>
      </trkpt>
      <trkpt lat="45.51421" lon="6.73616">
        <ele>1858.5</ele>
        <time>2021-08-12T08:13:54Z</time>
      </trkpt>
      <trkpt lat="45.51421" lon="6.73615">
        <ele>1858.6</ele>
        <time>2021-08-12T08:13:55Z</time>
      </trkpt>
      <trkpt lat="45.5142" lon="6.73615">
        <ele>1858.6</ele>
        <time>2021-08-12T08:13:56Z</time>
      </trkpt>
      <trkpt lat="45.5142" lon="6.73614">
        <ele>1858.6</ele>
        <time>2021-08-12T08:13:57Z</time>
      </trkpt>
      <trkpt lat="45.5142" lon="6.73613">
        <ele>1858.6</ele>
        <time>2021-08-12T08:13:58Z</time>
      </trkpt>
      <trkpt lat="45.5142" lon="6.73613">
        <ele>1858.6</ele>
        <time>2021-08-12T08:13:59Z</time>
      </trkpt>
      <trkpt lat="45.5142" lon="6.73613">
        <ele>1858.6</ele>
        <time>2021-08-12T08:14:00Z</time>
      </trkpt>
      <trkpt lat="45.51419" lon="6.73612">
        <ele>1858.7</ele>
        <time>2021-08-12T08:14:01Z</time>
      </trkpt>
      <trkpt lat="45.51419" lon="6.73612">
        <ele>1858.7</ele>
        <time>2021-08-12T08:14:02Z</time>
      </trkpt>
      <trkpt lat="45.51419" lon="6.73612">
        <ele>1858.7</ele>
        <time>2021-08-12T08:14:03Z</time>
      </trkpt>
      <trkpt lat="45.51419" lon="6.73612">
        <ele>1858.7</ele>
        <time>2021-08-12T08:14:04Z</time>
      </trkpt>
      <trkpt lat="45.51418" lon="6.73612">
        <ele>1858.7</ele>
        <time>2021-08-12T08:14:05Z</time>
      </trkpt>
      <trkpt lat="45.51417" lon="6.73611">
        <ele>1858.8</ele>
        <time>2021-08-12T08:14:06Z</time>
      </trkpt>
      <trkpt lat="45.51417" lon="6.73611">
        <ele>1858.8</ele>
        <time>2021-08-12T08:14:07Z</time>
      </trkpt>
      <trkpt lat="45.51416" lon="6.73611">
        <ele>1858.8</ele>
        <time>2021-08-12T08:14:08Z</time>
      </trkpt>
      <trkpt lat="45.51415" lon="6.7361">
        <ele>1858.9</ele>
        <time>2021-08-12T08:14:09Z</time>
      </trkpt>
      <trkpt lat="45.51414" lon="6.7361">
        <ele>1858.9</ele>
        <time>2021-08-12T08:14:10Z</time>
      </trkpt>
      <trkpt lat="45.51413" lon="6.7361">
        <ele>1858.9</ele>
        <time>2021-08-12T08:14:11Z</time>
      </trkpt>
      <trkpt lat="45.51411" lon="6.73609">
        <ele>1859</ele>
        <time>2021-08-12T08:14:12Z</time>
      </trkpt>
      <trkpt lat="45.5141" lon="6.73609">
        <ele>1859</ele>
        <time>2021-08-12T08:14:13Z</time>
      </trkpt>
      <trkpt lat="45.51409" lon="6.73608">
        <ele>1859.1</ele>
        <time>2021-08-12T08:14:14Z</time>
      </trkpt>
      <trkpt lat="45.51408" lon="6.73608">
        <ele>1859.1</ele>
        <time>2021-08-12T08:14:15Z</time>
      </trkpt>
      <trkpt lat="45.51407" lon="6.73608">
        <ele>1859.1</ele>
        <time>2021-08-12T08:14:16Z</time>
      </trkpt>
      <trkpt lat="45.51406" lon="6.73608">
        <ele>1859.2</ele>
        <time>2021-08-12T08:14:17Z</time>
      </trkpt>
      <trkpt lat="45.51406" lon="6.73607">
        <ele>1859.2</ele>
        <time>2021-08-12T08:14:18Z</time>
      </trkpt>
      <trkpt lat="45.51405" lon="6.73607">
        <ele>1859.2</ele>
        <time>2021-08-12T08:14:19Z</time>
      </trkpt>
      <trkpt lat="45.51404" lon="6.73607">
        <ele>1859.2</ele>
        <time>2021-08-12T08:14:20Z</time>
      </trkpt>
      <trkpt lat="45.51404" lon="6.73607">
        <ele>1859.2</ele>
        <time>2021-08-12T08:14:21Z</time>
      </trkpt>
      <trkpt lat="45.51404" lon="6.73607">
        <ele>1859.2</ele>
        <time>2021-08-12T08:14:22Z</time>
      </trkpt>
      <trkpt lat="45.51404" lon="6.73607">
        <ele>1859.2</ele>
        <time>2021-08-12T08:14:23Z</time>
      </trkpt>
      <trkpt lat="45.51404" lon="6.73607">
        <ele>1859.2</ele>
        <time>2021-08-12T08:14:24Z</time>
      </trkpt>
      <trkpt lat="45.51404" lon="6.73607">
        <ele>1859.2</ele>
        <time>2021-08-12T08:14:25Z</time>
      </trkpt>
      <trkpt lat="45.51404" lon="6.73607">
        <ele>1859.3</ele>
        <time>2021-08-12T08:14:26Z</time>
      </trkpt>
      <trkpt lat="45.51404" lon="6.73607">
        <ele>1859.3</ele>
        <time>2021-08-12T08:14:27Z</time>
      </trkpt>
      <trkpt lat="45.51404" lon="6.73607">
        <ele>1859.3</ele>
        <time>2021-08-12T08:14:28Z</time>
      </trkpt>
      <trkpt lat="45.51404" lon="6.73607">
        <ele>1859.3</ele>
        <time>2021-08-12T08:14:29Z</time>
      </trkpt>
      <trkpt lat="45.51404" lon="6.73607">
        <ele>1859.3</ele>
        <time>2021-08-12T08:14:30Z</time>
      </trkpt>
      <trkpt lat="45.51404" lon="6.73607">
        <ele>1859.3</ele>
        <time>2021-08-12T08:14:31Z</time>
      </trkpt>
      <trkpt lat="45.51403" lon="6.73607">
        <ele>1859.3</ele>
        <time>2021-08-12T08:14:32Z</time>
      </trkpt>
      <trkpt lat="45.51403" lon="6.73607">
        <ele>1859.3</ele>
        <time>2021-08-12T08:14:33Z</time>
      </trkpt>
      <trkpt lat="45.51402" lon="6.73607">
        <ele>1859.3</ele>
        <time>2021-08-12T08:14:34Z</time>
      </trkpt>
      <trkpt lat="45.51402" lon="6.73608">
        <ele>1859.3</ele>
        <time>2021-08-12T08:14:35Z</time>
      </trkpt>
      <trkpt lat="45.51401" lon="6.73608">
        <ele>1859.4</ele>
        <time>2021-08-12T08:14:36Z</time>
      </trkpt>
      <trkpt lat="45.514" lon="6.73608">
        <ele>1859.4</ele>
        <time>2021-08-12T08:14:37Z</time>
      </trkpt>
      <trkpt lat="45.51399" lon="6.73608">
        <ele>1859.4</ele>
        <time>2021-08-12T08:14:38Z</time>
      </trkpt>
      <trkpt lat="45.51399" lon="6.73608">
        <ele>1859.4</ele>
        <time>2021-08-12T08:14:39Z</time>
      </trkpt>
      <trkpt lat="45.51398" lon="6.73608">
        <ele>1859.4</ele>
        <time>2021-08-12T08:14:40Z</time>
      </trkpt>
      <trkpt lat="45.51397" lon="6.73608">
        <ele>1859.4</ele>
        <time>2021-08-12T08:14:41Z</time>
      </trkpt>
      <trkpt lat="45.51396" lon="6.73609">
        <ele>1859.5</ele>
        <time>2021-08-12T08:14:42Z</time>
      </trkpt>
      <trkpt lat="45.51395" lon="6.73609">
        <ele>1859.5</ele>
        <time>2021-08-12T08:14:43Z</time>
      </trkpt>
      <trkpt lat="45.51394" lon="6.73609">
        <ele>1859.5</ele>
        <time>2021-08-12T08:14:44Z</time>
      </trkpt>
      <trkpt lat="45.51393" lon="6.73609">
        <ele>1859.6</ele>
        <time>2021-08-12T08:14:45Z</time>
      </trkpt>
      <trkpt lat="45.51392" lon="6.73609">
        <ele>1859.6</ele>
        <time>2021-08-12T08:14:46Z</time>
      </trkpt>
      <trkpt lat="45.5139" lon="6.7361">
        <ele>1859.6</ele>
        <time>2021-08-12T08:14:47Z</time>
      </trkpt>
      <trkpt lat="45.51389" lon="6.7361">
        <ele>1859.7</ele>
        <time>2021-08-12T08:14:48Z</time>
      </trkpt>
      <trkpt lat="45.51388" lon="6.7361">
        <ele>1859.7</ele>
        <time>2021-08-12T08:14:49Z</time>
      </trkpt>
      <trkpt lat="45.51387" lon="6.7361">
        <ele>1859.7</ele>
        <time>2021-08-12T08:14:50Z</time>
      </trkpt>
      <trkpt lat="45.51386" lon="6.73611">
        <ele>1859.8</ele>
        <time>2021-08-12T08:14:51Z</time>
      </trkpt>
      <trkpt lat="45.51385" lon="6.73611">
        <ele>1859.8</ele>
        <time>2021-08-12T08:14:52Z</time>
      </trkpt>
      <trkpt lat="45.51384" lon="6.73611">
        <ele>1859.9</ele>
        <time>2021-08-12T08:14:53Z</time>
      </trkpt>
      <trkpt lat="45.51383" lon="6.73612">
        <ele>1859.9</ele>
        <time>2021-08-12T08:14:54Z</time>
      </trkpt>
      <trkpt lat="45.51381" lon="6.73612">
        <ele>1859.9</ele>
        <time>2021-08-12T08:14:55Z</time>
      </trkpt>
      <trkpt lat="45.5138" lon="6.73612">
        <ele>1860</ele>
        <time>2021-08-12T08:14:56Z</time>
      </trkpt>
      <trkpt lat="45.51379" lon="6.73613">
        <ele>1860</ele>
        <time>2021-08-12T08:14:57Z</time>
      </trkpt>
      <trkpt lat="45.51378" lon="6.73613">
        <ele>1860</ele>
        <time>2021-08-12T08:14:58Z</time>
      </trkpt>
      <trkpt lat="45.51377" lon="6.73613">
        <ele>1860.1</ele>
        <time>2021-08-12T08:14:59Z</time>
      </trkpt>
      <trkpt lat="45.51376" lon="6.73614">
        <ele>1860.1</ele>
        <time>2021-08-12T08:15:00Z</time>
      </trkpt>
      <trkpt lat="45.51375" lon="6.73614">
        <ele>1860.2</ele>
        <time>2021-08-12T08:15:01Z</time>
      </trkpt>
      <trkpt lat="45.51373" lon="6.73614">
        <ele>1860.2</ele>
        <time>2021-08-12T08:15:02Z</time>
      </trkpt>
      <trkpt lat="45.51372" lon="6.73614">
        <ele>1860.2</ele>
        <time>2021-08-12T08:15:03Z</time>
      </trkpt>
      <trkpt lat="45.51371" lon="6.73615">
        <ele>1860.3</ele>
        <time>2021-08-12T08:15:04Z</time>
      </trkpt>
      <trkpt lat="45.5137" lon="6.73615">
        <ele>1860.3</ele>
        <time>2021-08-12T08:15:05Z</time>
      </trkpt>
      <trkpt lat="45.51369" lon="6.73615">
        <ele>1860.4</ele>
        <time>2021-08-12T08:15:06Z</time>
      </trkpt>
      <trkpt lat="45.51368" lon="6.73616">
        <ele>1860.4</ele>
        <time>2021-08-12T08:15:07Z</time>
      </trkpt>
      <trkpt lat="45.51367" lon="6.73616">
        <ele>1860.4</ele>
        <time>2021-08-12T08:15:08Z</time>
      </trkpt>
      <trkpt lat="45.51366" lon="6.73616">
        <ele>1860.5</ele>
        <time>2021-08-12T08:15:09Z</time>
      </trkpt>
      <trkpt lat="45.51365" lon="6.73616">
        <ele>1860.5</ele>
        <time>2021-08-12T08:15:10Z</time>
      </trkpt>
      <trkpt lat="45.51364" lon="6.73616">
        <ele>1860.5</ele>
        <time>2021-08-12T08:15:11Z</time>
      </trkpt>
      <trkpt lat="45.51363" lon="6.73617">
        <ele>1860.6</ele>
        <time>2021-08-12T08:15:12Z</time>
      </trkpt>
      <trkpt lat="45.51362" lon="6.73617">
        <ele>1860.6</ele>
        <time>2021-08-12T08:15:13Z</time>
      </trkpt>
      <trkpt lat="45.51361" lon="6.73617">
        <ele>1860.6</ele>
        <time>2021-08-12T08:15:14Z</time>
      </trkpt>
      <trkpt lat="45.5136" lon="6.73617">
        <ele>1860.7</ele>
        <time>2021-08-12T08:15:15Z</time>
      </trkpt>
      <trkpt lat="45.51358" lon="6.73616">
        <ele>1860.7</ele>
        <time>2021-08-12T08:15:16Z</time>
      </trkpt>
      <trkpt lat="45.51357" lon="6.73616">
        <ele>1860.8</ele>
        <time>2021-08-12T08:15:17Z</time>
      </trkpt>
      <trkpt lat="45.51356" lon="6.73616">
        <ele>1860.8</ele>
        <time>2021-08-12T08:15:18Z</time>
      </trkpt>
      <trkpt lat="45.51355" lon="6.73616">
        <ele>1860.8</ele>
        <time>2021-08-12T08:15:19Z</time>
      </trkpt>
      <trkpt lat="45.51354" lon="6.73615">
        <ele>1860.9</ele>
        <time>2021-08-12T08:15:20Z</time>
      </trkpt>
      <trkpt lat="45.51352" lon="6.73615">
        <ele>1860.9</ele>
        <time>2021-08-12T08:15:21Z</time>
      </trkpt>
      <trkpt lat="45.51351" lon="6.73614">
        <ele>1861</ele>
        <time>2021-08-12T08:15:22Z</time>
      </trkpt>
      <trkpt lat="45.5135" lon="6.73614">
        <ele>1861</ele>
        <time>2021-08-12T08:15:23Z</time>
      </trkpt>
      <trkpt lat="45.51349" lon="6.73613">
        <ele>1861</ele>
        <time>2021-08-12T08:15:24Z</time>
      </trkpt>
      <trkpt lat="45.51348" lon="6.73613">
        <ele>1861.1</ele>
        <time>2021-08-12T08:15:25Z</time>
      </trkpt>
      <trkpt lat="45.51346" lon="6.73613">
        <ele>1861.1</ele>
        <time>2021-08-12T08:15:26Z</time>
      </trkpt>
      <trkpt lat="45.51345" lon="6.73612">
        <ele>1861.2</ele>
        <time>2021-08-12T08:15:27Z</time>
      </trkpt>
      <trkpt lat="45.51344" lon="6.73612">
        <ele>1861.2</ele>
        <time>2021-08-12T08:15:28Z</time>
      </trkpt>
      <trkpt lat="45.51343" lon="6.73612">
        <ele>1861.2</ele>
        <time>2021-08-12T08:15:29Z</time>
      </trkpt>
      <trkpt lat="45.51342" lon="6.73612">
        <ele>1861.3</ele>
        <time>2021-08-12T08:15:30Z</time>
      </trkpt>
      <trkpt lat="45.51341" lon="6.73612">
        <ele>1861.3</ele>
        <time>2021-08-12T08:15:31Z</time>
      </trkpt>
      <trkpt lat="45.5134" lon="6.73612">
        <ele>1861.3</ele>
        <time>2021-08-12T08:15:32Z</time>
      </trkpt>
      <trkpt lat="45.51339" lon="6.73612">
        <ele>1861.4</ele>
        <time>2021-08-12T08:15:33Z</time>
      </trkpt>
      <trkpt lat="45.51338" lon="6.73612">
        <ele>1861.4</ele>
        <time>2021-08-12T08:15:34Z</time>
      </trkpt>
      <trkpt lat="45.51337" lon="6.73611">
        <ele>1861.5</ele>
        <time>2021-08-12T08:15:35Z</time>
      </trkpt>
      <trkpt lat="45.51336" lon="6.73611">
        <ele>1861.5</ele>
        <time>2021-08-12T08:15:36Z</time>
      </trkpt>
      <trkpt lat="45.51335" lon="6.73611">
        <ele>1861.5</ele>
        <time>2021-08-12T08:15:37Z</time>
      </trkpt>
      <trkpt lat="45.51334" lon="6.73611">
        <ele>1861.6</ele>
        <time>2021-08-12T08:15:38Z</time>
      </trkpt>
      <trkpt lat="45.51333" lon="6.73611">
        <ele>1861.6</ele>
        <time>2021-08-12T08:15:39Z</time>
      </trkpt>
      <trkpt lat="45.51332" lon="6.73611">
        <ele>1861.6</ele>
        <time>2021-08-12T08:15:40Z</time>
      </trkpt>
      <trkpt lat="45.51331" lon="6.73611">
        <ele>1861.7</ele>
        <time>2021-08-12T08:15:41Z</time>
      </trkpt>
      <trkpt lat="45.5133" lon="6.73611">
        <ele>1861.7</ele>
        <time>2021-08-12T08:15:42Z</time>
      </trkpt>
      <trkpt lat="45.51329" lon="6.73611">
        <ele>1861.8</ele>
        <time>2021-08-12T08:15:43Z</time>
      </trkpt>
      <trkpt lat="45.51328" lon="6.7361">
        <ele>1861.8</ele>
        <time>2021-08-12T08:15:44Z</time>
      </trkpt>
      <trkpt lat="45.51327" lon="6.7361">
        <ele>1861.8</ele>
        <time>2021-08-12T08:15:45Z</time>
      </trkpt>
      <trkpt lat="45.51326" lon="6.7361">
        <ele>1861.9</ele>
        <time>2021-08-12T08:15:46Z</time>
      </trkpt>
      <trkpt lat="45.51325" lon="6.7361">
        <ele>1861.9</ele>
        <time>2021-08-12T08:15:47Z</time>
      </trkpt>
      <trkpt lat="45.51324" lon="6.7361">
        <ele>1862</ele>
        <time>2021-08-12T08:15:48Z</time>
      </trkpt>
      <trkpt lat="45.51323" lon="6.73609">
        <ele>1862</ele>
        <time>2021-08-12T08:15:49Z</time>
      </trkpt>
      <trkpt lat="45.51322" lon="6.73609">
        <ele>1862.1</ele>
        <time>2021-08-12T08:15:50Z</time>
      </trkpt>
      <trkpt lat="45.51321" lon="6.73609">
        <ele>1862.1</ele>
        <time>2021-08-12T08:15:51Z</time>
      </trkpt>
      <trkpt lat="45.5132" lon="6.73609">
        <ele>1862.2</ele>
        <time>2021-08-12T08:15:52Z</time>
      </trkpt>
      <trkpt lat="45.51319" lon="6.73609">
        <ele>1862.2</ele>
        <time>2021-08-12T08:15:53Z</time>
      </trkpt>
      <trkpt lat="45.51318" lon="6.73609">
        <ele>1862.3</ele>
        <time>2021-08-12T08:15:54Z</time>
      </trkpt>
      <trkpt lat="45.51317" lon="6.73608">
        <ele>1862.3</ele>
        <time>2021-08-12T08:15:55Z</time>
      </trkpt>
      <trkpt lat="45.51316" lon="6.73608">
        <ele>1862.4</ele>
        <time>2021-08-12T08:15:56Z</time>
      </trkpt>
      <trkpt lat="45.51315" lon="6.73608">
        <ele>1862.4</ele>
        <time>2021-08-12T08:15:57Z</time>
      </trkpt>
      <trkpt lat="45.51314" lon="6.73608">
        <ele>1862.5</ele>
        <time>2021-08-12T08:15:58Z</time>
      </trkpt>
      <trkpt lat="45.51313" lon="6.73607">
        <ele>1862.5</ele>
        <time>2021-08-12T08:15:59Z</time>
      </trkpt>
      <trkpt lat="45.51312" lon="6.73607">
        <ele>1862.6</ele>
        <time>2021-08-12T08:16:00Z</time>
      </trkpt>
      <trkpt lat="45.51311" lon="6.73607">
        <ele>1862.6</ele>
        <time>2021-08-12T08:16:01Z</time>
      </trkpt>
      <trkpt lat="45.5131" lon="6.73606">
        <ele>1862.7</ele>
        <time>2021-08-12T08:16:02Z</time>
      </trkpt>
      <trkpt lat="45.51309" lon="6.73606">
        <ele>1862.7</ele>
        <time>2021-08-12T08:16:03Z</time>
      </trkpt>
      <trkpt lat="45.51308" lon="6.73605">
        <ele>1862.8</ele>
        <time>2021-08-12T08:16:04Z</time>
      </trkpt>
      <trkpt lat="45.51307" lon="6.73605">
        <ele>1862.8</ele>
        <time>2021-08-12T08:16:05Z</time>
      </trkpt>
      <trkpt lat="45.51306" lon="6.73604">
        <ele>1862.9</ele>
        <time>2021-08-12T08:16:06Z</time>
      </trkpt>
      <trkpt lat="45.51305" lon="6.73604">
        <ele>1862.9</ele>
        <time>2021-08-12T08:16:07Z</time>
      </trkpt>
      <trkpt lat="45.51305" lon="6.73603">
        <ele>1863</ele>
        <time>2021-08-12T08:16:08Z</time>
      </trkpt>
      <trkpt lat="45.51304" lon="6.73603">
        <ele>1863</ele>
        <time>2021-08-12T08:16:09Z</time>
      </trkpt>
      <trkpt lat="45.51303" lon="6.73602">
        <ele>1863.1</ele>
        <time>2021-08-12T08:16:10Z</time>
      </trkpt>
      <trkpt lat="45.51302" lon="6.73601">
        <ele>1863.1</ele>
        <time>2021-08-12T08:16:11Z</time>
      </trkpt>
      <trkpt lat="45.51301" lon="6.73601">
        <ele>1863.2</ele>
        <time>2021-08-12T08:16:12Z</time>
      </trkpt>
      <trkpt lat="45.513" lon="6.736">
        <ele>1863.2</ele>
        <time>2021-08-12T08:16:13Z</time>
      </trkpt>
      <trkpt lat="45.51299" lon="6.736">
        <ele>1863.3</ele>
        <time>2021-08-12T08:16:14Z</time>
      </trkpt>
      <trkpt lat="45.51298" lon="6.73599">
        <ele>1863.3</ele>
        <time>2021-08-12T08:16:15Z</time>
      </trkpt>
      <trkpt lat="45.51298" lon="6.73599">
        <ele>1863.4</ele>
        <time>2021-08-12T08:16:16Z</time>
      </trkpt>
      <trkpt lat="45.51297" lon="6.73598">
        <ele>1863.4</ele>
        <time>2021-08-12T08:16:17Z</time>
      </trkpt>
      <trkpt lat="45.51296" lon="6.73598">
        <ele>1863.4</ele>
        <time>2021-08-12T08:16:18Z</time>
      </trkpt>
      <trkpt lat="45.51295" lon="6.73597">
        <ele>1863.5</ele>
        <time>2021-08-12T08:16:19Z</time>
      </trkpt>
      <trkpt lat="45.51294" lon="6.73597">
        <ele>1863.5</ele>
        <time>2021-08-12T08:16:20Z</time>
      </trkpt>
      <trkpt lat="45.51293" lon="6.73597">
        <ele>1863.6</ele>
        <time>2021-08-12T08:16:21Z</time>
      </trkpt>
      <trkpt lat="45.51293" lon="6.73596">
        <ele>1863.6</ele>
        <time>2021-08-12T08:16:22Z</time>
      </trkpt>
      <trkpt lat="45.51292" lon="6.73596">
        <ele>1863.7</ele>
        <time>2021-08-12T08:16:23Z</time>
      </trkpt>
      <trkpt lat="45.51291" lon="6.73596">
        <ele>1863.7</ele>
        <time>2021-08-12T08:16:24Z</time>
      </trkpt>
      <trkpt lat="45.5129" lon="6.73595">
        <ele>1863.8</ele>
        <time>2021-08-12T08:16:25Z</time>
      </trkpt>
      <trkpt lat="45.51289" lon="6.73595">
        <ele>1863.8</ele>
        <time>2021-08-12T08:16:26Z</time>
      </trkpt>
      <trkpt lat="45.51289" lon="6.73595">
        <ele>1863.9</ele>
        <time>2021-08-12T08:16:27Z</time>
      </trkpt>
      <trkpt lat="45.51288" lon="6.73595">
        <ele>1863.9</ele>
        <time>2021-08-12T08:16:28Z</time>
      </trkpt>
      <trkpt lat="45.51287" lon="6.73594">
        <ele>1864</ele>
        <time>2021-08-12T08:16:29Z</time>
      </trkpt>
      <trkpt lat="45.51286" lon="6.73594">
        <ele>1864</ele>
        <time>2021-08-12T08:16:30Z</time>
      </trkpt>
      <trkpt lat="45.51285" lon="6.73594">
        <ele>1864.1</ele>
        <time>2021-08-12T08:16:31Z</time>
      </trkpt>
      <trkpt lat="45.51285" lon="6.73593">
        <ele>1864.1</ele>
        <time>2021-08-12T08:16:32Z</time>
      </trkpt>
      <trkpt lat="45.51284" lon="6.73593">
        <ele>1864.2</ele>
        <time>2021-08-12T08:16:33Z</time>
      </trkpt>
      <trkpt lat="45.51283" lon="6.73592">
        <ele>1864.2</ele>
        <time>2021-08-12T08:16:34Z</time>
      </trkpt>
      <trkpt lat="45.51282" lon="6.73592">
        <ele>1864.3</ele>
        <time>2021-08-12T08:16:35Z</time>
      </trkpt>
      <trkpt lat="45.51282" lon="6.73592">
        <ele>1864.3</ele>
        <time>2021-08-12T08:16:36Z</time>
      </trkpt>
      <trkpt lat="45.51281" lon="6.73591">
        <ele>1864.4</ele>
        <time>2021-08-12T08:16:37Z</time>
      </trkpt>
      <trkpt lat="45.5128" lon="6.73591">
        <ele>1864.4</ele>
        <time>2021-08-12T08:16:38Z</time>
      </trkpt>
      <trkpt lat="45.51279" lon="6.7359">
        <ele>1864.5</ele>
        <time>2021-08-12T08:16:39Z</time>
      </trkpt>
      <trkpt lat="45.51278" lon="6.7359">
        <ele>1864.6</ele>
        <time>2021-08-12T08:16:40Z</time>
      </trkpt>
      <trkpt lat="45.51278" lon="6.7359">
        <ele>1864.6</ele>
        <time>2021-08-12T08:16:41Z</time>
      </trkpt>
      <trkpt lat="45.51277" lon="6.73589">
        <ele>1864.7</ele>
        <time>2021-08-12T08:16:42Z</time>
      </trkpt>
      <trkpt lat="45.51276" lon="6.73589">
        <ele>1864.8</ele>
        <time>2021-08-12T08:16:43Z</time>
      </trkpt>
      <trkpt lat="45.51275" lon="6.73588">
        <ele>1864.8</ele>
        <time>2021-08-12T08:16:44Z</time>
      </trkpt>
      <trkpt lat="45.51274" lon="6.73588">
        <ele>1864.9</ele>
        <time>2021-08-12T08:16:45Z</time>
      </trkpt>
      <trkpt lat="45.51273" lon="6.73588">
        <ele>1865</ele>
        <time>2021-08-12T08:16:46Z</time>
      </trkpt>
      <trkpt lat="45.51273" lon="6.73588">
        <ele>1865</ele>
        <time>2021-08-12T08:16:47Z</time>
      </trkpt>
      <trkpt lat="45.51272" lon="6.73587">
        <ele>1865.1</ele>
        <time>2021-08-12T08:16:48Z</time>
      </trkpt>
      <trkpt lat="45.51271" lon="6.73587">
        <ele>1865.1</ele>
        <time>2021-08-12T08:16:49Z</time>
      </trkpt>
      <trkpt lat="45.5127" lon="6.73587">
        <ele>1865.2</ele>
        <time>2021-08-12T08:16:50Z</time>
      </trkpt>
      <trkpt lat="45.51269" lon="6.73587">
        <ele>1865.3</ele>
        <time>2021-08-12T08:16:51Z</time>
      </trkpt>
      <trkpt lat="45.51269" lon="6.73586">
        <ele>1865.3</ele>
        <time>2021-08-12T08:16:52Z</time>
      </trkpt>
      <trkpt lat="45.51268" lon="6.73586">
        <ele>1865.4</ele>
        <time>2021-08-12T08:16:53Z</time>
      </trkpt>
      <trkpt lat="45.51267" lon="6.73586">
        <ele>1865.5</ele>
        <time>2021-08-12T08:16:54Z</time>
      </trkpt>
      <trkpt lat="45.51266" lon="6.73586">
        <ele>1865.5</ele>
        <time>2021-08-12T08:16:55Z</time>
      </trkpt>
      <trkpt lat="45.51265" lon="6.73585">
        <ele>1865.6</ele>
        <time>2021-08-12T08:16:56Z</time>
      </trkpt>
      <trkpt lat="45.51265" lon="6.73585">
        <ele>1865.7</ele>
        <time>2021-08-12T08:16:57Z</time>
      </trkpt>
      <trkpt lat="45.51264" lon="6.73585">
        <ele>1865.7</ele>
        <time>2021-08-12T08:16:58Z</time>
      </trkpt>
      <trkpt lat="45.51263" lon="6.73584">
        <ele>1865.8</ele>
        <time>2021-08-12T08:16:59Z</time>
      </trkpt>
      <trkpt lat="45.51262" lon="6.73584">
        <ele>1865.9</ele>
        <time>2021-08-12T08:17:00Z</time>
      </trkpt>
      <trkpt lat="45.51261" lon="6.73584">
        <ele>1866</ele>
        <time>2021-08-12T08:17:01Z</time>
      </trkpt>
      <trkpt lat="45.51261" lon="6.73583">
        <ele>1866</ele>
        <time>2021-08-12T08:17:02Z</time>
      </trkpt>
      <trkpt lat="45.5126" lon="6.73583">
        <ele>1866.1</ele>
        <time>2021-08-12T08:17:03Z</time>
      </trkpt>
      <trkpt lat="45.51259" lon="6.73583">
        <ele>1866.2</ele>
        <time>2021-08-12T08:17:04Z</time>
      </trkpt>
      <trkpt lat="45.51258" lon="6.73582">
        <ele>1866.2</ele>
        <time>2021-08-12T08:17:05Z</time>
      </trkpt>
      <trkpt lat="45.51257" lon="6.73582">
        <ele>1866.3</ele>
        <time>2021-08-12T08:17:06Z</time>
      </trkpt>
      <trkpt lat="45.51257" lon="6.73581">
        <ele>1866.4</ele>
        <time>2021-08-12T08:17:07Z</time>
      </trkpt>
      <trkpt lat="45.51256" lon="6.73581">
        <ele>1866.5</ele>
        <time>2021-08-12T08:17:08Z</time>
      </trkpt>
      <trkpt lat="45.51255" lon="6.7358">
        <ele>1866.5</ele>
        <time>2021-08-12T08:17:09Z</time>
      </trkpt>
      <trkpt lat="45.51254" lon="6.7358">
        <ele>1866.6</ele>
        <time>2021-08-12T08:17:10Z</time>
      </trkpt>
      <trkpt lat="45.51254" lon="6.73579">
        <ele>1866.7</ele>
        <time>2021-08-12T08:17:11Z</time>
      </trkpt>
      <trkpt lat="45.51253" lon="6.73578">
        <ele>1866.8</ele>
        <time>2021-08-12T08:17:12Z</time>
      </trkpt>
      <trkpt lat="45.51252" lon="6.73578">
        <ele>1866.9</ele>
        <time>2021-08-12T08:17:13Z</time>
      </trkpt>
      <trkpt lat="45.51251" lon="6.73577">
        <ele>1867</ele>
        <time>2021-08-12T08:17:14Z</time>
      </trkpt>
      <trkpt lat="45.5125" lon="6.73577">
        <ele>1867.1</ele>
        <time>2021-08-12T08:17:15Z</time>
      </trkpt>
      <trkpt lat="45.51249" lon="6.73576">
        <ele>1867.2</ele>
        <time>2021-08-12T08:17:16Z</time>
      </trkpt>
      <trkpt lat="45.51249" lon="6.73576">
        <ele>1867.3</ele>
        <time>2021-08-12T08:17:17Z</time>
      </trkpt>
      <trkpt lat="45.51248" lon="6.73576">
        <ele>1867.3</ele>
        <time>2021-08-12T08:17:18Z</time>
      </trkpt>
      <trkpt lat="45.51247" lon="6.73576">
        <ele>1867.4</ele>
        <time>2021-08-12T08:17:19Z</time>
      </trkpt>
      <trkpt lat="45.51246" lon="6.73576">
        <ele>1867.5</ele>
        <time>2021-08-12T08:17:20Z</time>
      </trkpt>
      <trkpt lat="45.51245" lon="6.73576">
        <ele>1867.6</ele>
        <time>2021-08-12T08:17:21Z</time>
      </trkpt>
      <trkpt lat="45.51244" lon="6.73577">
        <ele>1867.7</ele>
        <time>2021-08-12T08:17:22Z</time>
      </trkpt>
      <trkpt lat="45.51243" lon="6.73577">
        <ele>1867.8</ele>
        <time>2021-08-12T08:17:23Z</time>
      </trkpt>
      <trkpt lat="45.51243" lon="6.73578">
        <ele>1867.9</ele>
        <time>2021-08-12T08:17:24Z</time>
      </trkpt>
      <trkpt lat="45.51242" lon="6.73578">
        <ele>1868</ele>
        <time>2021-08-12T08:17:25Z</time>
      </trkpt>
      <trkpt lat="45.51241" lon="6.73579">
        <ele>1868</ele>
        <time>2021-08-12T08:17:26Z</time>
      </trkpt>
      <trkpt lat="45.51241" lon="6.73579">
        <ele>1868.1</ele>
        <time>2021-08-12T08:17:27Z</time>
      </trkpt>
      <trkpt lat="45.51241" lon="6.73579">
        <ele>1868.1</ele>
        <time>2021-08-12T08:17:28Z</time>
      </trkpt>
      <trkpt lat="45.5124" lon="6.7358">
        <ele>1868.2</ele>
        <time>2021-08-12T08:17:29Z</time>
      </trkpt>
      <trkpt lat="45.5124" lon="6.7358">
        <ele>1868.2</ele>
        <time>2021-08-12T08:17:30Z</time>
      </trkpt>
      <trkpt lat="45.5124" lon="6.7358">
        <ele>1868.2</ele>
        <time>2021-08-12T08:17:31Z</time>
      </trkpt>
      <trkpt lat="45.5124" lon="6.7358">
        <ele>1868.3</ele>
        <time>2021-08-12T08:17:32Z</time>
      </trkpt>
      <trkpt lat="45.5124" lon="6.73581">
        <ele>1868.3</ele>
        <time>2021-08-12T08:17:33Z</time>
      </trkpt>
      <trkpt lat="45.5124" lon="6.73581">
        <ele>1868.3</ele>
        <time>2021-08-12T08:17:34Z</time>
      </trkpt>
      <trkpt lat="45.5124" lon="6.73581">
        <ele>1868.3</ele>
        <time>2021-08-12T08:17:35Z</time>
      </trkpt>
      <trkpt lat="45.5124" lon="6.73581">
        <ele>1868.3</ele>
        <time>2021-08-12T08:17:36Z</time>
      </trkpt>
      <trkpt lat="45.5124" lon="6.73581">
        <ele>1868.3</ele>
        <time>2021-08-12T08:17:37Z</time>
      </trkpt>
      <trkpt lat="45.5124" lon="6.73581">
        <ele>1868.3</ele>
        <time>2021-08-12T08:17:38Z</time>
      </trkpt>
      <trkpt lat="45.5124" lon="6.73581">
        <ele>1868.3</ele>
        <time>2021-08-12T08:17:39Z</time>
      </trkpt>
      <trkpt lat="45.5124" lon="6.73581">
        <ele>1868.3</ele>
        <time>2021-08-12T08:17:40Z</time>
      </trkpt>
      <trkpt lat="45.5124" lon="6.73581">
        <ele>1868.3</ele>
        <time>2021-08-12T08:17:41Z</time>
      </trkpt>
      <trkpt lat="45.5124" lon="6.73581">
        <ele>1868.3</ele>
        <time>2021-08-12T08:17:42Z</time>
      </trkpt>
      <trkpt lat="45.5124" lon="6.73581">
        <ele>1868.3</ele>
        <time>2021-08-12T08:17:43Z</time>
      </trkpt>
      <trkpt lat="45.5124" lon="6.73581">
        <ele>1868.3</ele>
        <time>2021-08-12T08:17:44Z</time>
      </trkpt>
      <trkpt lat="45.5124" lon="6.73581">
        <ele>1868.3</ele>
        <time>2021-08-12T08:17:45Z</time>
      </trkpt>
      <trkpt lat="45.5124" lon="6.73581">
        <ele>1868.3</ele>
        <time>2021-08-12T08:17:46Z</time>
      </trkpt>
      <trkpt lat="45.5124" lon="6.73581">
        <ele>1868.3</ele>
        <time>2021-08-12T08:17:47Z</time>
      </trkpt>
      <trkpt lat="45.5124" lon="6.73581">
        <ele>1868.3</ele>
        <time>2021-08-12T08:17:48Z</time>
      </trkpt>
      <trkpt lat="45.5124" lon="6.73581">
        <ele>1868.3</ele>
        <time>2021-08-12T08:17:49Z</time>
      </trkpt>
      <trkpt lat="45.5124" lon="6.73581">
        <ele>1868.3</ele>
        <time>2021-08-12T08:17:50Z</time>
      </trkpt>
      <trkpt lat="45.5124" lon="6.73581">
        <ele>1868.3</ele>
        <time>2021-08-12T08:17:51Z</time>
      </trkpt>
      <trkpt lat="45.5124" lon="6.73581">
        <ele>1868.3</ele>
        <time>2021-08-12T08:17:52Z</time>
      </trkpt>
      <trkpt lat="45.5124" lon="6.73581">
        <ele>1868.3</ele>
        <time>2021-08-12T08:17:53Z</time>
      </trkpt>
      <trkpt lat="45.5124" lon="6.73581">
        <ele>1868.3</ele>
        <time>2021-08-12T08:17:54Z</time>
      </trkpt>
      <trkpt lat="45.5124" lon="6.73581">
        <ele>1868.3</ele>
        <time>2021-08-12T08:17:55Z</time>
      </trkpt>
      <trkpt lat="45.5124" lon="6.73581">
        <ele>1868.3</ele>
        <time>2021-08-12T08:17:56Z</time>
      </trkpt>
      <trkpt lat="45.5124" lon="6.73581">
        <ele>1868.4</ele>
        <time>2021-08-12T08:17:57Z</time>
      </trkpt>
      <trkpt lat="45.5124" lon="6.7358">
        <ele>1868.4</ele>
        <time>2021-08-12T08:17:58Z</time>
      </trkpt>
      <trkpt lat="45.5124" lon="6.7358">
        <ele>1868.4</ele>
        <time>2021-08-12T08:17:59Z</time>
      </trkpt>
      <trkpt lat="45.5124" lon="6.7358">
        <ele>1868.4</ele>
        <time>2021-08-12T08:18:00Z</time>
      </trkpt>
      <trkpt lat="45.51239" lon="6.7358">
        <ele>1868.4</ele>
        <time>2021-08-12T08:18:01Z</time>
      </trkpt>
      <trkpt lat="45.51239" lon="6.73579">
        <ele>1868.5</ele>
        <time>2021-08-12T08:18:02Z</time>
      </trkpt>
      <trkpt lat="45.51239" lon="6.73579">
        <ele>1868.5</ele>
        <time>2021-08-12T08:18:03Z</time>
      </trkpt>
      <trkpt lat="45.51238" lon="6.73578">
        <ele>1868.6</ele>
        <time>2021-08-12T08:18:04Z</time>
      </trkpt>
      <trkpt lat="45.51238" lon="6.73577">
        <ele>1868.7</ele>
        <time>2021-08-12T08:18:05Z</time>
      </trkpt>
      <trkpt lat="45.51237" lon="6.73576">
        <ele>1868.8</ele>
        <time>2021-08-12T08:18:06Z</time>
      </trkpt>
      <trkpt lat="45.51237" lon="6.73575">
        <ele>1868.9</ele>
        <time>2021-08-12T08:18:07Z</time>
      </trkpt>
      <trkpt lat="45.51236" lon="6.73574">
        <ele>1869</ele>
        <time>2021-08-12T08:18:08Z</time>
      </trkpt>
      <trkpt lat="45.51235" lon="6.73573">
        <ele>1869.1</ele>
        <time>2021-08-12T08:18:09Z</time>
      </trkpt>
      <trkpt lat="45.51235" lon="6.73572">
        <ele>1869.2</ele>
        <time>2021-08-12T08:18:10Z</time>
      </trkpt>
      <trkpt lat="45.51234" lon="6.73571">
        <ele>1869.3</ele>
        <time>2021-08-12T08:18:11Z</time>
      </trkpt>
      <trkpt lat="45.51233" lon="6.73571">
        <ele>1869.4</ele>
        <time>2021-08-12T08:18:12Z</time>
      </trkpt>
      <trkpt lat="45.51232" lon="6.7357">
        <ele>1869.5</ele>
        <time>2021-08-12T08:18:13Z</time>
      </trkpt>
      <trkpt lat="45.51232" lon="6.73569">
        <ele>1869.6</ele>
        <time>2021-08-12T08:18:14Z</time>
      </trkpt>
      <trkpt lat="45.51231" lon="6.73569">
        <ele>1869.7</ele>
        <time>2021-08-12T08:18:15Z</time>
      </trkpt>
      <trkpt lat="45.5123" lon="6.73568">
        <ele>1869.8</ele>
        <time>2021-08-12T08:18:16Z</time>
      </trkpt>
      <trkpt lat="45.51229" lon="6.73568">
        <ele>1869.9</ele>
        <time>2021-08-12T08:18:17Z</time>
      </trkpt>
      <trkpt lat="45.51228" lon="6.73568">
        <ele>1870</ele>
        <time>2021-08-12T08:18:18Z</time>
      </trkpt>
      <trkpt lat="45.51227" lon="6.73568">
        <ele>1870.1</ele>
        <time>2021-08-12T08:18:19Z</time>
      </trkpt>
      <trkpt lat="45.51226" lon="6.73567">
        <ele>1870.2</ele>
        <time>2021-08-12T08:18:20Z</time>
      </trkpt>
      <trkpt lat="45.51226" lon="6.73567">
        <ele>1870.3</ele>
        <time>2021-08-12T08:18:21Z</time>
      </trkpt>
      <trkpt lat="45.51225" lon="6.73567">
        <ele>1870.4</ele>
        <time>2021-08-12T08:18:22Z</time>
      </trkpt>
      <trkpt lat="45.51224" lon="6.73567">
        <ele>1870.5</ele>
        <time>2021-08-12T08:18:23Z</time>
      </trkpt>
      <trkpt lat="45.51223" lon="6.73567">
        <ele>1870.6</ele>
        <time>2021-08-12T08:18:24Z</time>
      </trkpt>
      <trkpt lat="45.51222" lon="6.73567">
        <ele>1870.7</ele>
        <time>2021-08-12T08:18:25Z</time>
      </trkpt>
      <trkpt lat="45.51221" lon="6.73566">
        <ele>1870.8</ele>
        <time>2021-08-12T08:18:26Z</time>
      </trkpt>
      <trkpt lat="45.5122" lon="6.73566">
        <ele>1870.9</ele>
        <time>2021-08-12T08:18:27Z</time>
      </trkpt>
      <trkpt lat="45.51219" lon="6.73566">
        <ele>1871</ele>
        <time>2021-08-12T08:18:28Z</time>
      </trkpt>
      <trkpt lat="45.51218" lon="6.73566">
        <ele>1871.1</ele>
        <time>2021-08-12T08:18:29Z</time>
      </trkpt>
      <trkpt lat="45.51217" lon="6.73565">
        <ele>1871.2</ele>
        <time>2021-08-12T08:18:30Z</time>
      </trkpt>
      <trkpt lat="45.51216" lon="6.73565">
        <ele>1871.3</ele>
        <time>2021-08-12T08:18:31Z</time>
      </trkpt>
      <trkpt lat="45.51215" lon="6.73565">
        <ele>1871.4</ele>
        <time>2021-08-12T08:18:32Z</time>
      </trkpt>
      <trkpt lat="45.51215" lon="6.73565">
        <ele>1871.5</ele>
        <time>2021-08-12T08:18:33Z</time>
      </trkpt>
      <trkpt lat="45.51214" lon="6.73565">
        <ele>1871.6</ele>
        <time>2021-08-12T08:18:34Z</time>
      </trkpt>
      <trkpt lat="45.51213" lon="6.73564">
        <ele>1871.7</ele>
        <time>2021-08-12T08:18:35Z</time>
      </trkpt>
      <trkpt lat="45.51212" lon="6.73564">
        <ele>1871.8</ele>
        <time>2021-08-12T08:18:36Z</time>
      </trkpt>
      <trkpt lat="45.51211" lon="6.73564">
        <ele>1871.9</ele>
        <time>2021-08-12T08:18:37Z</time>
      </trkpt>
      <trkpt lat="45.5121" lon="6.73564">
        <ele>1872</ele>
        <time>2021-08-12T08:18:38Z</time>
      </trkpt>
      <trkpt lat="45.51209" lon="6.73564">
        <ele>1872.1</ele>
        <time>2021-08-12T08:18:39Z</time>
      </trkpt>
      <trkpt lat="45.51208" lon="6.73564">
        <ele>1872.2</ele>
        <time>2021-08-12T08:18:40Z</time>
      </trkpt>
      <trkpt lat="45.51207" lon="6.73564">
        <ele>1872.3</ele>
        <time>2021-08-12T08:18:41Z</time>
      </trkpt>
      <trkpt lat="45.51206" lon="6.73564">
        <ele>1872.4</ele>
        <time>2021-08-12T08:18:42Z</time>
      </trkpt>
      <trkpt lat="45.51205" lon="6.73564">
        <ele>1872.4</ele>
        <time>2021-08-12T08:18:43Z</time>
      </trkpt>
      <trkpt lat="45.51204" lon="6.73564">
        <ele>1872.5</ele>
        <time>2021-08-12T08:18:44Z</time>
      </trkpt>
      <trkpt lat="45.51203" lon="6.73564">
        <ele>1872.6</ele>
        <time>2021-08-12T08:18:45Z</time>
      </trkpt>
      <trkpt lat="45.51202" lon="6.73564">
        <ele>1872.7</ele>
        <time>2021-08-12T08:18:46Z</time>
      </trkpt>
      <trkpt lat="45.51201" lon="6.73564">
        <ele>1872.8</ele>
        <time>2021-08-12T08:18:47Z</time>
      </trkpt>
      <trkpt lat="45.512" lon="6.73564">
        <ele>1872.9</ele>
        <time>2021-08-12T08:18:48Z</time>
      </trkpt>
      <trkpt lat="45.51199" lon="6.73564">
        <ele>1873</ele>
        <time>2021-08-12T08:18:49Z</time>
      </trkpt>
      <trkpt lat="45.51198" lon="6.73565">
        <ele>1873.1</ele>
        <time>2021-08-12T08:18:50Z</time>
      </trkpt>
      <trkpt lat="45.51197" lon="6.73565">
        <ele>1873.2</ele>
        <time>2021-08-12T08:18:51Z</time>
      </trkpt>
      <trkpt lat="45.51196" lon="6.73565">
        <ele>1873.3</ele>
        <time>2021-08-12T08:18:52Z</time>
      </trkpt>
      <trkpt lat="45.51195" lon="6.73565">
        <ele>1873.3</ele>
        <time>2021-08-12T08:18:53Z</time>
      </trkpt>
      <trkpt lat="45.51194" lon="6.73565">
        <ele>1873.4</ele>
        <time>2021-08-12T08:18:54Z</time>
      </trkpt>
      <trkpt lat="45.51193" lon="6.73565">
        <ele>1873.5</ele>
        <time>2021-08-12T08:18:55Z</time>
      </trkpt>
      <trkpt lat="45.51192" lon="6.73566">
        <ele>1873.6</ele>
        <time>2021-08-12T08:18:56Z</time>
      </trkpt>
      <trkpt lat="45.51191" lon="6.73566">
        <ele>1873.6</ele>
        <time>2021-08-12T08:18:57Z</time>
      </trkpt>
      <trkpt lat="45.5119" lon="6.73566">
        <ele>1873.7</ele>
        <time>2021-08-12T08:18:58Z</time>
      </trkpt>
      <trkpt lat="45.51189" lon="6.73566">
        <ele>1873.8</ele>
        <time>2021-08-12T08:18:59Z</time>
      </trkpt>
      <trkpt lat="45.51188" lon="6.73566">
        <ele>1873.9</ele>
        <time>2021-08-12T08:19:00Z</time>
      </trkpt>
      <trkpt lat="45.51187" lon="6.73567">
        <ele>1874</ele>
        <time>2021-08-12T08:19:01Z</time>
      </trkpt>
      <trkpt lat="45.51186" lon="6.73567">
        <ele>1874</ele>
        <time>2021-08-12T08:19:02Z</time>
      </trkpt>
      <trkpt lat="45.51185" lon="6.73567">
        <ele>1874</ele>
        <time>2021-08-12T08:19:03Z</time>
      </trkpt>
      <trkpt lat="45.51184" lon="6.73567">
        <ele>1874.1</ele>
        <time>2021-08-12T08:19:04Z</time>
      </trkpt>
      <trkpt lat="45.51184" lon="6.73567">
        <ele>1874.1</ele>
        <time>2021-08-12T08:19:05Z</time>
      </trkpt>
      <trkpt lat="45.51183" lon="6.73567">
        <ele>1874.1</ele>
        <time>2021-08-12T08:19:06Z</time>
      </trkpt>
      <trkpt lat="45.51182" lon="6.73567">
        <ele>1874.2</ele>
        <time>2021-08-12T08:19:07Z</time>
      </trkpt>
      <trkpt lat="45.51181" lon="6.73568">
        <ele>1874.2</ele>
        <time>2021-08-12T08:19:08Z</time>
      </trkpt>
      <trkpt lat="45.5118" lon="6.73568">
        <ele>1874.2</ele>
        <time>2021-08-12T08:19:09Z</time>
      </trkpt>
      <trkpt lat="45.51179" lon="6.73568">
        <ele>1874.3</ele>
        <time>2021-08-12T08:19:10Z</time>
      </trkpt>
      <trkpt lat="45.51178" lon="6.73568">
        <ele>1874.3</ele>
        <time>2021-08-12T08:19:11Z</time>
      </trkpt>
      <trkpt lat="45.51177" lon="6.73569">
        <ele>1874.4</ele>
        <time>2021-08-12T08:19:12Z</time>
      </trkpt>
      <trkpt lat="45.51176" lon="6.73569">
        <ele>1874.4</ele>
        <time>2021-08-12T08:19:13Z</time>
      </trkpt>
      <trkpt lat="45.51175" lon="6.7357">
        <ele>1874.4</ele>
        <time>2021-08-12T08:19:14Z</time>
      </trkpt>
      <trkpt lat="45.51174" lon="6.7357">
        <ele>1874.5</ele>
        <time>2021-08-12T08:19:15Z</time>
      </trkpt>
      <trkpt lat="45.51174" lon="6.7357">
        <ele>1874.5</ele>
        <time>2021-08-12T08:19:16Z</time>
      </trkpt>
      <trkpt lat="45.51173" lon="6.73571">
        <ele>1874.5</ele>
        <time>2021-08-12T08:19:17Z</time>
      </trkpt>
      <trkpt lat="45.51172" lon="6.73571">
        <ele>1874.6</ele>
        <time>2021-08-12T08:19:18Z</time>
      </trkpt>
      <trkpt lat="45.51172" lon="6.73572">
        <ele>1874.7</ele>
        <time>2021-08-12T08:19:19Z</time>
      </trkpt>
      <trkpt lat="45.51171" lon="6.73572">
        <ele>1874.8</ele>
        <time>2021-08-12T08:19:20Z</time>
      </trkpt>
      <trkpt lat="45.51171" lon="6.73572">
        <ele>1874.8</ele>
        <time>2021-08-12T08:19:21Z</time>
      </trkpt>
      <trkpt lat="45.51171" lon="6.73573">
        <ele>1874.9</ele>
        <time>2021-08-12T08:19:22Z</time>
      </trkpt>
      <trkpt lat="45.51171" lon="6.73573">
        <ele>1874.9</ele>
        <time>2021-08-12T08:19:23Z</time>
      </trkpt>
      <trkpt lat="45.51171" lon="6.73573">
        <ele>1874.9</ele>
        <time>2021-08-12T08:19:24Z</time>
      </trkpt>
      <trkpt lat="45.51171" lon="6.73573">
        <ele>1874.9</ele>
        <time>2021-08-12T08:19:25Z</time>
      </trkpt>
      <trkpt lat="45.5117" lon="6.73573">
        <ele>1875</ele>
        <time>2021-08-12T08:19:26Z</time>
      </trkpt>
      <trkpt lat="45.5117" lon="6.73573">
        <ele>1875.1</ele>
        <time>2021-08-12T08:19:27Z</time>
      </trkpt>
      <trkpt lat="45.51169" lon="6.73574">
        <ele>1875.2</ele>
        <time>2021-08-12T08:19:28Z</time>
      </trkpt>
      <trkpt lat="45.51169" lon="6.73574">
        <ele>1875.4</ele>
        <time>2021-08-12T08:19:29Z</time>
      </trkpt>
      <trkpt lat="45.51168" lon="6.73575">
        <ele>1875.6</ele>
        <time>2021-08-12T08:19:30Z</time>
      </trkpt>
      <trkpt lat="45.51167" lon="6.73575">
        <ele>1875.8</ele>
        <time>2021-08-12T08:19:31Z</time>
      </trkpt>
      <trkpt lat="45.51166" lon="6.73575">
        <ele>1876</ele>
        <time>2021-08-12T08:19:32Z</time>
      </trkpt>
      <trkpt lat="45.51165" lon="6.73576">
        <ele>1876.2</ele>
        <time>2021-08-12T08:19:33Z</time>
      </trkpt>
      <trkpt lat="45.51164" lon="6.73576">
        <ele>1876.4</ele>
        <time>2021-08-12T08:19:34Z</time>
      </trkpt>
      <trkpt lat="45.51163" lon="6.73577">
        <ele>1876.6</ele>
        <time>2021-08-12T08:19:35Z</time>
      </trkpt>
      <trkpt lat="45.51163" lon="6.73578">
        <ele>1876.8</ele>
        <time>2021-08-12T08:19:36Z</time>
      </trkpt>
      <trkpt lat="45.51162" lon="6.73578">
        <ele>1877</ele>
        <time>2021-08-12T08:19:37Z</time>
      </trkpt>
      <trkpt lat="45.51161" lon="6.73579">
        <ele>1877.2</ele>
        <time>2021-08-12T08:19:38Z</time>
      </trkpt>
      <trkpt lat="45.5116" lon="6.73579">
        <ele>1877.4</ele>
        <time>2021-08-12T08:19:39Z</time>
      </trkpt>
      <trkpt lat="45.51159" lon="6.7358">
        <ele>1877.6</ele>
        <time>2021-08-12T08:19:40Z</time>
      </trkpt>
      <trkpt lat="45.51158" lon="6.7358">
        <ele>1877.8</ele>
        <time>2021-08-12T08:19:41Z</time>
      </trkpt>
      <trkpt lat="45.51157" lon="6.73581">
        <ele>1878</ele>
        <time>2021-08-12T08:19:42Z</time>
      </trkpt>
      <trkpt lat="45.51156" lon="6.73581">
        <ele>1878.2</ele>
        <time>2021-08-12T08:19:43Z</time>
      </trkpt>
      <trkpt lat="45.51156" lon="6.73582">
        <ele>1878.4</ele>
        <time>2021-08-12T08:19:44Z</time>
      </trkpt>
      <trkpt lat="45.51155" lon="6.73582">
        <ele>1878.6</ele>
        <time>2021-08-12T08:19:45Z</time>
      </trkpt>
      <trkpt lat="45.51154" lon="6.73583">
        <ele>1878.8</ele>
        <time>2021-08-12T08:19:46Z</time>
      </trkpt>
      <trkpt lat="45.51153" lon="6.73584">
        <ele>1879</ele>
        <time>2021-08-12T08:19:47Z</time>
      </trkpt>
      <trkpt lat="45.51152" lon="6.73584">
        <ele>1879.2</ele>
        <time>2021-08-12T08:19:48Z</time>
      </trkpt>
      <trkpt lat="45.51151" lon="6.73585">
        <ele>1879.4</ele>
        <time>2021-08-12T08:19:49Z</time>
      </trkpt>
      <trkpt lat="45.5115" lon="6.73585">
        <ele>1879.6</ele>
        <time>2021-08-12T08:19:50Z</time>
      </trkpt>
      <trkpt lat="45.51149" lon="6.73586">
        <ele>1879.9</ele>
        <time>2021-08-12T08:19:51Z</time>
      </trkpt>
      <trkpt lat="45.51148" lon="6.73586">
        <ele>1880.1</ele>
        <time>2021-08-12T08:19:52Z</time>
      </trkpt>
      <trkpt lat="45.51147" lon="6.73587">
        <ele>1880.3</ele>
        <time>2021-08-12T08:19:53Z</time>
      </trkpt>
      <trkpt lat="45.51146" lon="6.73587">
        <ele>1880.5</ele>
        <time>2021-08-12T08:19:54Z</time>
      </trkpt>
      <trkpt lat="45.51146" lon="6.73588">
        <ele>1880.7</ele>
        <time>2021-08-12T08:19:55Z</time>
      </trkpt>
      <trkpt lat="45.51145" lon="6.73588">
        <ele>1880.9</ele>
        <time>2021-08-12T08:19:56Z</time>
      </trkpt>
      <trkpt lat="45.51144" lon="6.73589">
        <ele>1881.1</ele>
        <time>2021-08-12T08:19:57Z</time>
      </trkpt>
      <trkpt lat="45.51143" lon="6.73589">
        <ele>1881.3</ele>
        <time>2021-08-12T08:19:58Z</time>
      </trkpt>
      <trkpt lat="45.51142" lon="6.7359">
        <ele>1881.5</ele>
        <time>2021-08-12T08:19:59Z</time>
      </trkpt>
      <trkpt lat="45.51141" lon="6.7359">
        <ele>1881.7</ele>
        <time>2021-08-12T08:20:00Z</time>
      </trkpt>
      <trkpt lat="45.5114" lon="6.73591">
        <ele>1881.9</ele>
        <time>2021-08-12T08:20:01Z</time>
      </trkpt>
      <trkpt lat="45.51139" lon="6.73591">
        <ele>1882.1</ele>
        <time>2021-08-12T08:20:02Z</time>
      </trkpt>
      <trkpt lat="45.51138" lon="6.73592">
        <ele>1882.3</ele>
        <time>2021-08-12T08:20:03Z</time>
      </trkpt>
      <trkpt lat="45.51137" lon="6.73592">
        <ele>1882.5</ele>
        <time>2021-08-12T08:20:04Z</time>
      </trkpt>
      <trkpt lat="45.51137" lon="6.73593">
        <ele>1882.7</ele>
        <time>2021-08-12T08:20:05Z</time>
      </trkpt>
      <trkpt lat="45.51136" lon="6.73593">
        <ele>1882.9</ele>
        <time>2021-08-12T08:20:06Z</time>
      </trkpt>
      <trkpt lat="45.51135" lon="6.73594">
        <ele>1883.1</ele>
        <time>2021-08-12T08:20:07Z</time>
      </trkpt>
      <trkpt lat="45.51134" lon="6.73594">
        <ele>1883.3</ele>
        <time>2021-08-12T08:20:08Z</time>
      </trkpt>
      <trkpt lat="45.51133" lon="6.73595">
        <ele>1883.5</ele>
        <time>2021-08-12T08:20:09Z</time>
      </trkpt>
      <trkpt lat="45.51132" lon="6.73595">
        <ele>1883.7</ele>
        <time>2021-08-12T08:20:10Z</time>
      </trkpt>
      <trkpt lat="45.51131" lon="6.73596">
        <ele>1883.9</ele>
        <time>2021-08-12T08:20:11Z</time>
      </trkpt>
      <trkpt lat="45.5113" lon="6.73596">
        <ele>1884.1</ele>
        <time>2021-08-12T08:20:12Z</time>
      </trkpt>
      <trkpt lat="45.5113" lon="6.73597">
        <ele>1884.2</ele>
        <time>2021-08-12T08:20:13Z</time>
      </trkpt>
      <trkpt lat="45.51129" lon="6.73597">
        <ele>1884.5</ele>
        <time>2021-08-12T08:20:14Z</time>
      </trkpt>
      <trkpt lat="45.51128" lon="6.73598">
        <ele>1884.6</ele>
        <time>2021-08-12T08:20:15Z</time>
      </trkpt>
      <trkpt lat="45.51127" lon="6.73598">
        <ele>1884.8</ele>
        <time>2021-08-12T08:20:16Z</time>
      </trkpt>
      <trkpt lat="45.51126" lon="6.73599">
        <ele>1885</ele>
        <time>2021-08-12T08:20:17Z</time>
      </trkpt>
      <trkpt lat="45.51125" lon="6.73599">
        <ele>1885.2</ele>
        <time>2021-08-12T08:20:18Z</time>
      </trkpt>
      <trkpt lat="45.51125" lon="6.736">
        <ele>1885.4</ele>
        <time>2021-08-12T08:20:19Z</time>
      </trkpt>
      <trkpt lat="45.51124" lon="6.73601">
        <ele>1885.6</ele>
        <time>2021-08-12T08:20:20Z</time>
      </trkpt>
      <trkpt lat="45.51123" lon="6.73601">
        <ele>1885.8</ele>
        <time>2021-08-12T08:20:21Z</time>
      </trkpt>
      <trkpt lat="45.51122" lon="6.73602">
        <ele>1886</ele>
        <time>2021-08-12T08:20:22Z</time>
      </trkpt>
      <trkpt lat="45.51121" lon="6.73602">
        <ele>1886.2</ele>
        <time>2021-08-12T08:20:23Z</time>
      </trkpt>
      <trkpt lat="45.5112" lon="6.73603">
        <ele>1886.4</ele>
        <time>2021-08-12T08:20:24Z</time>
      </trkpt>
      <trkpt lat="45.5112" lon="6.73604">
        <ele>1886.6</ele>
        <time>2021-08-12T08:20:25Z</time>
      </trkpt>
      <trkpt lat="45.51119" lon="6.73604">
        <ele>1886.8</ele>
        <time>2021-08-12T08:20:26Z</time>
      </trkpt>
      <trkpt lat="45.51118" lon="6.73605">
        <ele>1886.9</ele>
        <time>2021-08-12T08:20:27Z</time>
      </trkpt>
      <trkpt lat="45.51117" lon="6.73606">
        <ele>1887.1</ele>
        <time>2021-08-12T08:20:28Z</time>
      </trkpt>
      <trkpt lat="45.51117" lon="6.73606">
        <ele>1887.3</ele>
        <time>2021-08-12T08:20:29Z</time>
      </trkpt>
      <trkpt lat="45.51116" lon="6.73607">
        <ele>1887.5</ele>
        <time>2021-08-12T08:20:30Z</time>
      </trkpt>
      <trkpt lat="45.51115" lon="6.73608">
        <ele>1887.6</ele>
        <time>2021-08-12T08:20:31Z</time>
      </trkpt>
      <trkpt lat="45.51115" lon="6.73608">
        <ele>1887.8</ele>
        <time>2021-08-12T08:20:32Z</time>
      </trkpt>
      <trkpt lat="45.51114" lon="6.73609">
        <ele>1888</ele>
        <time>2021-08-12T08:20:33Z</time>
      </trkpt>
      <trkpt lat="45.51114" lon="6.7361">
        <ele>1888.1</ele>
        <time>2021-08-12T08:20:34Z</time>
      </trkpt>
      <trkpt lat="45.51113" lon="6.73611">
        <ele>1888.3</ele>
        <time>2021-08-12T08:20:35Z</time>
      </trkpt>
      <trkpt lat="45.51113" lon="6.73611">
        <ele>1888.5</ele>
        <time>2021-08-12T08:20:36Z</time>
      </trkpt>
      <trkpt lat="45.51112" lon="6.73612">
        <ele>1888.6</ele>
        <time>2021-08-12T08:20:37Z</time>
      </trkpt>
      <trkpt lat="45.51111" lon="6.73613">
        <ele>1888.8</ele>
        <time>2021-08-12T08:20:38Z</time>
      </trkpt>
      <trkpt lat="45.51111" lon="6.73613">
        <ele>1888.9</ele>
        <time>2021-08-12T08:20:39Z</time>
      </trkpt>
      <trkpt lat="45.5111" lon="6.73614">
        <ele>1889.1</ele>
        <time>2021-08-12T08:20:40Z</time>
      </trkpt>
      <trkpt lat="45.5111" lon="6.73614">
        <ele>1889.2</ele>
        <time>2021-08-12T08:20:41Z</time>
      </trkpt>
      <trkpt lat="45.51109" lon="6.73615">
        <ele>1889.4</ele>
        <time>2021-08-12T08:20:42Z</time>
      </trkpt>
      <trkpt lat="45.51108" lon="6.73615">
        <ele>1889.5</ele>
        <time>2021-08-12T08:20:43Z</time>
      </trkpt>
      <trkpt lat="45.51108" lon="6.73616">
        <ele>1889.7</ele>
        <time>2021-08-12T08:20:44Z</time>
      </trkpt>
      <trkpt lat="45.51107" lon="6.73616">
        <ele>1889.9</ele>
        <time>2021-08-12T08:20:45Z</time>
      </trkpt>
      <trkpt lat="45.51106" lon="6.73617">
        <ele>1890</ele>
        <time>2021-08-12T08:20:46Z</time>
      </trkpt>
      <trkpt lat="45.51106" lon="6.73617">
        <ele>1890.2</ele>
        <time>2021-08-12T08:20:47Z</time>
      </trkpt>
      <trkpt lat="45.51105" lon="6.73617">
        <ele>1890.3</ele>
        <time>2021-08-12T08:20:48Z</time>
      </trkpt>
      <trkpt lat="45.51104" lon="6.73618">
        <ele>1890.5</ele>
        <time>2021-08-12T08:20:49Z</time>
      </trkpt>
      <trkpt lat="45.51103" lon="6.73618">
        <ele>1890.6</ele>
        <time>2021-08-12T08:20:50Z</time>
      </trkpt>
      <trkpt lat="45.51103" lon="6.73618">
        <ele>1890.8</ele>
        <time>2021-08-12T08:20:51Z</time>
      </trkpt>
      <trkpt lat="45.51102" lon="6.73618">
        <ele>1890.9</ele>
        <time>2021-08-12T08:20:52Z</time>
      </trkpt>
      <trkpt lat="45.51101" lon="6.73619">
        <ele>1891.1</ele>
        <time>2021-08-12T08:20:53Z</time>
      </trkpt>
      <trkpt lat="45.51101" lon="6.73619">
        <ele>1891.2</ele>
        <time>2021-08-12T08:20:54Z</time>
      </trkpt>
      <trkpt lat="45.511" lon="6.73619">
        <ele>1891.4</ele>
        <time>2021-08-12T08:20:55Z</time>
      </trkpt>
      <trkpt lat="45.51099" lon="6.73619">
        <ele>1891.6</ele>
        <time>2021-08-12T08:20:56Z</time>
      </trkpt>
      <trkpt lat="45.51098" lon="6.73619">
        <ele>1891.7</ele>
        <time>2021-08-12T08:20:57Z</time>
      </trkpt>
      <trkpt lat="45.51098" lon="6.73619">
        <ele>1891.8</ele>
        <time>2021-08-12T08:20:58Z</time>
      </trkpt>
      <trkpt lat="45.51097" lon="6.73619">
        <ele>1892</ele>
        <time>2021-08-12T08:20:59Z</time>
      </trkpt>
      <trkpt lat="45.51096" lon="6.73619">
        <ele>1892.2</ele>
        <time>2021-08-12T08:21:00Z</time>
      </trkpt>
      <trkpt lat="45.51095" lon="6.73619">
        <ele>1892.3</ele>
        <time>2021-08-12T08:21:01Z</time>
      </trkpt>
      <trkpt lat="45.51095" lon="6.73619">
        <ele>1892.5</ele>
        <time>2021-08-12T08:21:02Z</time>
      </trkpt>
      <trkpt lat="45.51094" lon="6.73619">
        <ele>1892.6</ele>
        <time>2021-08-12T08:21:03Z</time>
      </trkpt>
      <trkpt lat="45.51093" lon="6.73619">
        <ele>1892.8</ele>
        <time>2021-08-12T08:21:04Z</time>
      </trkpt>
      <trkpt lat="45.51093" lon="6.73619">
        <ele>1892.9</ele>
        <time>2021-08-12T08:21:05Z</time>
      </trkpt>
      <trkpt lat="45.51092" lon="6.73619">
        <ele>1893.1</ele>
        <time>2021-08-12T08:21:06Z</time>
      </trkpt>
      <trkpt lat="45.51091" lon="6.73619">
        <ele>1893.2</ele>
        <time>2021-08-12T08:21:07Z</time>
      </trkpt>
      <trkpt lat="45.5109" lon="6.73619">
        <ele>1893.4</ele>
        <time>2021-08-12T08:21:08Z</time>
      </trkpt>
      <trkpt lat="45.5109" lon="6.73619">
        <ele>1893.5</ele>
        <time>2021-08-12T08:21:09Z</time>
      </trkpt>
      <trkpt lat="45.51089" lon="6.73619">
        <ele>1893.7</ele>
        <time>2021-08-12T08:21:10Z</time>
      </trkpt>
      <trkpt lat="45.51088" lon="6.73619">
        <ele>1893.9</ele>
        <time>2021-08-12T08:21:11Z</time>
      </trkpt>
      <trkpt lat="45.51087" lon="6.73619">
        <ele>1894</ele>
        <time>2021-08-12T08:21:12Z</time>
      </trkpt>
      <trkpt lat="45.51087" lon="6.73619">
        <ele>1894.2</ele>
        <time>2021-08-12T08:21:13Z</time>
      </trkpt>
      <trkpt lat="45.51086" lon="6.7362">
        <ele>1894.3</ele>
        <time>2021-08-12T08:21:14Z</time>
      </trkpt>
      <trkpt lat="45.51085" lon="6.7362">
        <ele>1894.5</ele>
        <time>2021-08-12T08:21:15Z</time>
      </trkpt>
      <trkpt lat="45.51084" lon="6.7362">
        <ele>1894.7</ele>
        <time>2021-08-12T08:21:16Z</time>
      </trkpt>
      <trkpt lat="45.51083" lon="6.7362">
        <ele>1894.9</ele>
        <time>2021-08-12T08:21:17Z</time>
      </trkpt>
      <trkpt lat="45.51083" lon="6.7362">
        <ele>1895</ele>
        <time>2021-08-12T08:21:18Z</time>
      </trkpt>
      <trkpt lat="45.51082" lon="6.73621">
        <ele>1895.2</ele>
        <time>2021-08-12T08:21:19Z</time>
      </trkpt>
      <trkpt lat="45.51081" lon="6.73621">
        <ele>1895.4</ele>
        <time>2021-08-12T08:21:20Z</time>
      </trkpt>
      <trkpt lat="45.5108" lon="6.73621">
        <ele>1895.6</ele>
        <time>2021-08-12T08:21:21Z</time>
      </trkpt>
      <trkpt lat="45.51079" lon="6.73622">
        <ele>1895.8</ele>
        <time>2021-08-12T08:21:22Z</time>
      </trkpt>
      <trkpt lat="45.51078" lon="6.73622">
        <ele>1895.9</ele>
        <time>2021-08-12T08:21:23Z</time>
      </trkpt>
      <trkpt lat="45.51077" lon="6.73623">
        <ele>1896.1</ele>
        <time>2021-08-12T08:21:24Z</time>
      </trkpt>
      <trkpt lat="45.51077" lon="6.73623">
        <ele>1896.3</ele>
        <time>2021-08-12T08:21:25Z</time>
      </trkpt>
      <trkpt lat="45.51076" lon="6.73623">
        <ele>1896.5</ele>
        <time>2021-08-12T08:21:26Z</time>
      </trkpt>
      <trkpt lat="45.51075" lon="6.73624">
        <ele>1896.7</ele>
        <time>2021-08-12T08:21:27Z</time>
      </trkpt>
      <trkpt lat="45.51074" lon="6.73624">
        <ele>1896.9</ele>
        <time>2021-08-12T08:21:28Z</time>
      </trkpt>
      <trkpt lat="45.51073" lon="6.73625">
        <ele>1897.1</ele>
        <time>2021-08-12T08:21:29Z</time>
      </trkpt>
      <trkpt lat="45.51072" lon="6.73625">
        <ele>1897.3</ele>
        <time>2021-08-12T08:21:30Z</time>
      </trkpt>
      <trkpt lat="45.51072" lon="6.73626">
        <ele>1897.4</ele>
        <time>2021-08-12T08:21:31Z</time>
      </trkpt>
      <trkpt lat="45.51071" lon="6.73626">
        <ele>1897.6</ele>
        <time>2021-08-12T08:21:32Z</time>
      </trkpt>
      <trkpt lat="45.5107" lon="6.73626">
        <ele>1897.8</ele>
        <time>2021-08-12T08:21:33Z</time>
      </trkpt>
      <trkpt lat="45.51069" lon="6.73627">
        <ele>1898</ele>
        <time>2021-08-12T08:21:34Z</time>
      </trkpt>
      <trkpt lat="45.51069" lon="6.73627">
        <ele>1898.1</ele>
        <time>2021-08-12T08:21:35Z</time>
      </trkpt>
      <trkpt lat="45.51068" lon="6.73628">
        <ele>1898.3</ele>
        <time>2021-08-12T08:21:36Z</time>
      </trkpt>
      <trkpt lat="45.51067" lon="6.73628">
        <ele>1898.5</ele>
        <time>2021-08-12T08:21:37Z</time>
      </trkpt>
      <trkpt lat="45.51066" lon="6.73628">
        <ele>1898.6</ele>
        <time>2021-08-12T08:21:38Z</time>
      </trkpt>
      <trkpt lat="45.51066" lon="6.73629">
        <ele>1898.8</ele>
        <time>2021-08-12T08:21:39Z</time>
      </trkpt>
      <trkpt lat="45.51065" lon="6.73629">
        <ele>1898.9</ele>
        <time>2021-08-12T08:21:40Z</time>
      </trkpt>
      <trkpt lat="45.51064" lon="6.73629">
        <ele>1899.1</ele>
        <time>2021-08-12T08:21:41Z</time>
      </trkpt>
      <trkpt lat="45.51064" lon="6.7363">
        <ele>1899.2</ele>
        <time>2021-08-12T08:21:42Z</time>
      </trkpt>
      <trkpt lat="45.51063" lon="6.7363">
        <ele>1899.4</ele>
        <time>2021-08-12T08:21:43Z</time>
      </trkpt>
      <trkpt lat="45.51062" lon="6.7363">
        <ele>1899.5</ele>
        <time>2021-08-12T08:21:44Z</time>
      </trkpt>
      <trkpt lat="45.51062" lon="6.73631">
        <ele>1899.7</ele>
        <time>2021-08-12T08:21:45Z</time>
      </trkpt>
      <trkpt lat="45.51061" lon="6.73631">
        <ele>1899.9</ele>
        <time>2021-08-12T08:21:46Z</time>
      </trkpt>
      <trkpt lat="45.5106" lon="6.73632">
        <ele>1900</ele>
        <time>2021-08-12T08:21:47Z</time>
      </trkpt>
      <trkpt lat="45.51059" lon="6.73632">
        <ele>1900.2</ele>
        <time>2021-08-12T08:21:48Z</time>
      </trkpt>
      <trkpt lat="45.51058" lon="6.73632">
        <ele>1900.4</ele>
        <time>2021-08-12T08:21:49Z</time>
      </trkpt>
      <trkpt lat="45.51058" lon="6.73633">
        <ele>1900.6</ele>
        <time>2021-08-12T08:21:50Z</time>
      </trkpt>
      <trkpt lat="45.51057" lon="6.73633">
        <ele>1900.7</ele>
        <time>2021-08-12T08:21:51Z</time>
      </trkpt>
      <trkpt lat="45.51057" lon="6.73633">
        <ele>1900.8</ele>
        <time>2021-08-12T08:21:52Z</time>
      </trkpt>
      <trkpt lat="45.51056" lon="6.73633">
        <ele>1900.9</ele>
        <time>2021-08-12T08:21:53Z</time>
      </trkpt>
      <trkpt lat="45.51056" lon="6.73633">
        <ele>1900.9</ele>
        <time>2021-08-12T08:21:54Z</time>
      </trkpt>
      <trkpt lat="45.51056" lon="6.73633">
        <ele>1900.9</ele>
        <time>2021-08-12T08:21:55Z</time>
      </trkpt>
      <trkpt lat="45.51056" lon="6.73633">
        <ele>1900.9</ele>
        <time>2021-08-12T08:21:56Z</time>
      </trkpt>
      <trkpt lat="45.51056" lon="6.73633">
        <ele>1900.9</ele>
        <time>2021-08-12T08:21:57Z</time>
      </trkpt>
      <trkpt lat="45.51056" lon="6.73634">
        <ele>1900.9</ele>
        <time>2021-08-12T08:21:58Z</time>
      </trkpt>
      <trkpt lat="45.51056" lon="6.73634">
        <ele>1901</ele>
        <time>2021-08-12T08:21:59Z</time>
      </trkpt>
      <trkpt lat="45.51056" lon="6.73634">
        <ele>1901</ele>
        <time>2021-08-12T08:22:00Z</time>
      </trkpt>
      <trkpt lat="45.51055" lon="6.73634">
        <ele>1901.1</ele>
        <time>2021-08-12T08:22:01Z</time>
      </trkpt>
      <trkpt lat="45.51055" lon="6.73634">
        <ele>1901.2</ele>
        <time>2021-08-12T08:22:02Z</time>
      </trkpt>
      <trkpt lat="45.51054" lon="6.73634">
        <ele>1901.4</ele>
        <time>2021-08-12T08:22:03Z</time>
      </trkpt>
      <trkpt lat="45.51054" lon="6.73634">
        <ele>1901.5</ele>
        <time>2021-08-12T08:22:04Z</time>
      </trkpt>
      <trkpt lat="45.51053" lon="6.73635">
        <ele>1901.6</ele>
        <time>2021-08-12T08:22:05Z</time>
      </trkpt>
      <trkpt lat="45.51052" lon="6.73635">
        <ele>1901.8</ele>
        <time>2021-08-12T08:22:06Z</time>
      </trkpt>
      <trkpt lat="45.51052" lon="6.73635">
        <ele>1901.9</ele>
        <time>2021-08-12T08:22:07Z</time>
      </trkpt>
      <trkpt lat="45.51051" lon="6.73635">
        <ele>1902.1</ele>
        <time>2021-08-12T08:22:08Z</time>
      </trkpt>
      <trkpt lat="45.5105" lon="6.73635">
        <ele>1902.2</ele>
        <time>2021-08-12T08:22:09Z</time>
      </trkpt>
      <trkpt lat="45.51049" lon="6.73635">
        <ele>1902.4</ele>
        <time>2021-08-12T08:22:10Z</time>
      </trkpt>
      <trkpt lat="45.51049" lon="6.73636">
        <ele>1902.5</ele>
        <time>2021-08-12T08:22:11Z</time>
      </trkpt>
      <trkpt lat="45.51048" lon="6.73636">
        <ele>1902.7</ele>
        <time>2021-08-12T08:22:12Z</time>
      </trkpt>
      <trkpt lat="45.51047" lon="6.73636">
        <ele>1902.9</ele>
        <time>2021-08-12T08:22:13Z</time>
      </trkpt>
      <trkpt lat="45.51046" lon="6.73636">
        <ele>1903</ele>
        <time>2021-08-12T08:22:14Z</time>
      </trkpt>
      <trkpt lat="45.51046" lon="6.73636">
        <ele>1903.2</ele>
        <time>2021-08-12T08:22:15Z</time>
      </trkpt>
      <trkpt lat="45.51045" lon="6.73636">
        <ele>1903.3</ele>
        <time>2021-08-12T08:22:16Z</time>
      </trkpt>
      <trkpt lat="45.51044" lon="6.73636">
        <ele>1903.5</ele>
        <time>2021-08-12T08:22:17Z</time>
      </trkpt>
      <trkpt lat="45.51043" lon="6.73636">
        <ele>1903.6</ele>
        <time>2021-08-12T08:22:18Z</time>
      </trkpt>
      <trkpt lat="45.51043" lon="6.73637">
        <ele>1903.8</ele>
        <time>2021-08-12T08:22:19Z</time>
      </trkpt>
      <trkpt lat="45.51042" lon="6.73637">
        <ele>1903.9</ele>
        <time>2021-08-12T08:22:20Z</time>
      </trkpt>
      <trkpt lat="45.51041" lon="6.73637">
        <ele>1904.1</ele>
        <time>2021-08-12T08:22:21Z</time>
      </trkpt>
      <trkpt lat="45.51041" lon="6.73637">
        <ele>1904.2</ele>
        <time>2021-08-12T08:22:22Z</time>
      </trkpt>
      <trkpt lat="45.5104" lon="6.73638">
        <ele>1904.4</ele>
        <time>2021-08-12T08:22:23Z</time>
      </trkpt>
      <trkpt lat="45.51039" lon="6.73638">
        <ele>1904.5</ele>
        <time>2021-08-12T08:22:24Z</time>
      </trkpt>
      <trkpt lat="45.51039" lon="6.73638">
        <ele>1904.7</ele>
        <time>2021-08-12T08:22:25Z</time>
      </trkpt>
      <trkpt lat="45.51038" lon="6.73638">
        <ele>1904.8</ele>
        <time>2021-08-12T08:22:26Z</time>
      </trkpt>
      <trkpt lat="45.51037" lon="6.73639">
        <ele>1905</ele>
        <time>2021-08-12T08:22:27Z</time>
      </trkpt>
      <trkpt lat="45.51037" lon="6.73639">
        <ele>1905.1</ele>
        <time>2021-08-12T08:22:28Z</time>
      </trkpt>
      <trkpt lat="45.51036" lon="6.73639">
        <ele>1905.3</ele>
        <time>2021-08-12T08:22:29Z</time>
      </trkpt>
      <trkpt lat="45.51035" lon="6.7364">
        <ele>1905.4</ele>
        <time>2021-08-12T08:22:30Z</time>
      </trkpt>
      <trkpt lat="45.51035" lon="6.7364">
        <ele>1905.6</ele>
        <time>2021-08-12T08:22:31Z</time>
      </trkpt>
      <trkpt lat="45.51034" lon="6.73641">
        <ele>1905.8</ele>
        <time>2021-08-12T08:22:32Z</time>
      </trkpt>
      <trkpt lat="45.51033" lon="6.73641">
        <ele>1905.9</ele>
        <time>2021-08-12T08:22:33Z</time>
      </trkpt>
      <trkpt lat="45.51032" lon="6.73641">
        <ele>1906.1</ele>
        <time>2021-08-12T08:22:34Z</time>
      </trkpt>
      <trkpt lat="45.51032" lon="6.73642">
        <ele>1906.2</ele>
        <time>2021-08-12T08:22:35Z</time>
      </trkpt>
      <trkpt lat="45.51031" lon="6.73642">
        <ele>1906.4</ele>
        <time>2021-08-12T08:22:36Z</time>
      </trkpt>
      <trkpt lat="45.5103" lon="6.73643">
        <ele>1906.5</ele>
        <time>2021-08-12T08:22:37Z</time>
      </trkpt>
      <trkpt lat="45.5103" lon="6.73643">
        <ele>1906.7</ele>
        <time>2021-08-12T08:22:38Z</time>
      </trkpt>
      <trkpt lat="45.51029" lon="6.73643">
        <ele>1906.9</ele>
        <time>2021-08-12T08:22:39Z</time>
      </trkpt>
      <trkpt lat="45.51028" lon="6.73644">
        <ele>1907</ele>
        <time>2021-08-12T08:22:40Z</time>
      </trkpt>
      <trkpt lat="45.51027" lon="6.73644">
        <ele>1907.2</ele>
        <time>2021-08-12T08:22:41Z</time>
      </trkpt>
      <trkpt lat="45.51027" lon="6.73645">
        <ele>1907.4</ele>
        <time>2021-08-12T08:22:42Z</time>
      </trkpt>
      <trkpt lat="45.51026" lon="6.73645">
        <ele>1907.6</ele>
        <time>2021-08-12T08:22:43Z</time>
      </trkpt>
      <trkpt lat="45.51025" lon="6.73646">
        <ele>1907.7</ele>
        <time>2021-08-12T08:22:44Z</time>
      </trkpt>
      <trkpt lat="45.51024" lon="6.73646">
        <ele>1907.9</ele>
        <time>2021-08-12T08:22:45Z</time>
      </trkpt>
      <trkpt lat="45.51024" lon="6.73647">
        <ele>1908.1</ele>
        <time>2021-08-12T08:22:46Z</time>
      </trkpt>
      <trkpt lat="45.51023" lon="6.73647">
        <ele>1908.3</ele>
        <time>2021-08-12T08:22:47Z</time>
      </trkpt>
      <trkpt lat="45.51022" lon="6.73648">
        <ele>1908.5</ele>
        <time>2021-08-12T08:22:48Z</time>
      </trkpt>
      <trkpt lat="45.51021" lon="6.73648">
        <ele>1908.6</ele>
        <time>2021-08-12T08:22:49Z</time>
      </trkpt>
      <trkpt lat="45.5102" lon="6.73648">
        <ele>1908.8</ele>
        <time>2021-08-12T08:22:50Z</time>
      </trkpt>
      <trkpt lat="45.51019" lon="6.73649">
        <ele>1909</ele>
        <time>2021-08-12T08:22:51Z</time>
      </trkpt>
      <trkpt lat="45.51019" lon="6.73649">
        <ele>1909.2</ele>
        <time>2021-08-12T08:22:52Z</time>
      </trkpt>
      <trkpt lat="45.51018" lon="6.7365">
        <ele>1909.4</ele>
        <time>2021-08-12T08:22:53Z</time>
      </trkpt>
      <trkpt lat="45.51017" lon="6.7365">
        <ele>1909.6</ele>
        <time>2021-08-12T08:22:54Z</time>
      </trkpt>
      <trkpt lat="45.51016" lon="6.73651">
        <ele>1909.8</ele>
        <time>2021-08-12T08:22:55Z</time>
      </trkpt>
      <trkpt lat="45.51015" lon="6.73651">
        <ele>1910</ele>
        <time>2021-08-12T08:22:56Z</time>
      </trkpt>
      <trkpt lat="45.51014" lon="6.73652">
        <ele>1910.2</ele>
        <time>2021-08-12T08:22:57Z</time>
      </trkpt>
      <trkpt lat="45.51013" lon="6.73652">
        <ele>1910.4</ele>
        <time>2021-08-12T08:22:58Z</time>
      </trkpt>
      <trkpt lat="45.51012" lon="6.73653">
        <ele>1910.6</ele>
        <time>2021-08-12T08:22:59Z</time>
      </trkpt>
      <trkpt lat="45.51011" lon="6.73653">
        <ele>1910.8</ele>
        <time>2021-08-12T08:23:00Z</time>
      </trkpt>
      <trkpt lat="45.5101" lon="6.73653">
        <ele>1911</ele>
        <time>2021-08-12T08:23:01Z</time>
      </trkpt>
      <trkpt lat="45.5101" lon="6.73654">
        <ele>1911.2</ele>
        <time>2021-08-12T08:23:02Z</time>
      </trkpt>
      <trkpt lat="45.51009" lon="6.73654">
        <ele>1911.4</ele>
        <time>2021-08-12T08:23:03Z</time>
      </trkpt>
      <trkpt lat="45.51008" lon="6.73655">
        <ele>1911.6</ele>
        <time>2021-08-12T08:23:04Z</time>
      </trkpt>
      <trkpt lat="45.51007" lon="6.73655">
        <ele>1911.8</ele>
        <time>2021-08-12T08:23:05Z</time>
      </trkpt>
      <trkpt lat="45.51006" lon="6.73656">
        <ele>1912</ele>
        <time>2021-08-12T08:23:06Z</time>
      </trkpt>
      <trkpt lat="45.51005" lon="6.73656">
        <ele>1912.2</ele>
        <time>2021-08-12T08:23:07Z</time>
      </trkpt>
      <trkpt lat="45.51004" lon="6.73657">
        <ele>1912.4</ele>
        <time>2021-08-12T08:23:08Z</time>
      </trkpt>
      <trkpt lat="45.51003" lon="6.73657">
        <ele>1912.6</ele>
        <time>2021-08-12T08:23:09Z</time>
      </trkpt>
      <trkpt lat="45.51003" lon="6.73658">
        <ele>1912.8</ele>
        <time>2021-08-12T08:23:10Z</time>
      </trkpt>
      <trkpt lat="45.51002" lon="6.73658">
        <ele>1913</ele>
        <time>2021-08-12T08:23:11Z</time>
      </trkpt>
      <trkpt lat="45.51001" lon="6.73659">
        <ele>1913.2</ele>
        <time>2021-08-12T08:23:12Z</time>
      </trkpt>
      <trkpt lat="45.51" lon="6.73659">
        <ele>1913.3</ele>
        <time>2021-08-12T08:23:13Z</time>
      </trkpt>
      <trkpt lat="45.50999" lon="6.7366">
        <ele>1913.5</ele>
        <time>2021-08-12T08:23:14Z</time>
      </trkpt>
      <trkpt lat="45.50999" lon="6.73661">
        <ele>1913.7</ele>
        <time>2021-08-12T08:23:15Z</time>
      </trkpt>
      <trkpt lat="45.50998" lon="6.73661">
        <ele>1913.8</ele>
        <time>2021-08-12T08:23:16Z</time>
      </trkpt>
      <trkpt lat="45.50997" lon="6.73662">
        <ele>1914</ele>
        <time>2021-08-12T08:23:17Z</time>
      </trkpt>
      <trkpt lat="45.50997" lon="6.73662">
        <ele>1914.1</ele>
        <time>2021-08-12T08:23:18Z</time>
      </trkpt>
      <trkpt lat="45.50996" lon="6.73663">
        <ele>1914.3</ele>
        <time>2021-08-12T08:23:19Z</time>
      </trkpt>
      <trkpt lat="45.50996" lon="6.73663">
        <ele>1914.4</ele>
        <time>2021-08-12T08:23:20Z</time>
      </trkpt>
      <trkpt lat="45.50995" lon="6.73664">
        <ele>1914.6</ele>
        <time>2021-08-12T08:23:21Z</time>
      </trkpt>
      <trkpt lat="45.50995" lon="6.73664">
        <ele>1914.7</ele>
        <time>2021-08-12T08:23:22Z</time>
      </trkpt>
      <trkpt lat="45.50994" lon="6.73665">
        <ele>1914.8</ele>
        <time>2021-08-12T08:23:23Z</time>
      </trkpt>
      <trkpt lat="45.50994" lon="6.73665">
        <ele>1914.9</ele>
        <time>2021-08-12T08:23:24Z</time>
      </trkpt>
      <trkpt lat="45.50994" lon="6.73666">
        <ele>1915</ele>
        <time>2021-08-12T08:23:25Z</time>
      </trkpt>
      <trkpt lat="45.50993" lon="6.73666">
        <ele>1915.1</ele>
        <time>2021-08-12T08:23:26Z</time>
      </trkpt>
      <trkpt lat="45.50993" lon="6.73666">
        <ele>1915.2</ele>
        <time>2021-08-12T08:23:27Z</time>
      </trkpt>
      <trkpt lat="45.50992" lon="6.73666">
        <ele>1915.2</ele>
        <time>2021-08-12T08:23:28Z</time>
      </trkpt>
      <trkpt lat="45.50992" lon="6.73666">
        <ele>1915.3</ele>
        <time>2021-08-12T08:23:29Z</time>
      </trkpt>
      <trkpt lat="45.50992" lon="6.73666">
        <ele>1915.4</ele>
        <time>2021-08-12T08:23:30Z</time>
      </trkpt>
      <trkpt lat="45.50991" lon="6.73666">
        <ele>1915.5</ele>
        <time>2021-08-12T08:23:31Z</time>
      </trkpt>
      <trkpt lat="45.50991" lon="6.73666">
        <ele>1915.5</ele>
        <time>2021-08-12T08:23:32Z</time>
      </trkpt>
      <trkpt lat="45.50991" lon="6.73666">
        <ele>1915.6</ele>
        <time>2021-08-12T08:23:33Z</time>
      </trkpt>
      <trkpt lat="45.5099" lon="6.73665">
        <ele>1915.7</ele>
        <time>2021-08-12T08:23:34Z</time>
      </trkpt>
      <trkpt lat="45.5099" lon="6.73665">
        <ele>1915.8</ele>
        <time>2021-08-12T08:23:35Z</time>
      </trkpt>
      <trkpt lat="45.50989" lon="6.73665">
        <ele>1915.9</ele>
        <time>2021-08-12T08:23:36Z</time>
      </trkpt>
      <trkpt lat="45.50989" lon="6.73665">
        <ele>1916</ele>
        <time>2021-08-12T08:23:37Z</time>
      </trkpt>
      <trkpt lat="45.50988" lon="6.73664">
        <ele>1916.1</ele>
        <time>2021-08-12T08:23:38Z</time>
      </trkpt>
      <trkpt lat="45.50988" lon="6.73664">
        <ele>1916.3</ele>
        <time>2021-08-12T08:23:39Z</time>
      </trkpt>
      <trkpt lat="45.50987" lon="6.73664">
        <ele>1916.4</ele>
        <time>2021-08-12T08:23:40Z</time>
      </trkpt>
      <trkpt lat="45.50987" lon="6.73663">
        <ele>1916.5</ele>
        <time>2021-08-12T08:23:41Z</time>
      </trkpt>
      <trkpt lat="45.50987" lon="6.73663">
        <ele>1916.6</ele>
        <time>2021-08-12T08:23:42Z</time>
      </trkpt>
      <trkpt lat="45.50986" lon="6.73663">
        <ele>1916.6</ele>
        <time>2021-08-12T08:23:43Z</time>
      </trkpt>
      <trkpt lat="45.50986" lon="6.73662">
        <ele>1916.7</ele>
        <time>2021-08-12T08:23:44Z</time>
      </trkpt>
      <trkpt lat="45.50986" lon="6.73662">
        <ele>1916.8</ele>
        <time>2021-08-12T08:23:45Z</time>
      </trkpt>
      <trkpt lat="45.50986" lon="6.73662">
        <ele>1916.8</ele>
        <time>2021-08-12T08:23:46Z</time>
      </trkpt>
      <trkpt lat="45.50986" lon="6.73662">
        <ele>1916.8</ele>
        <time>2021-08-12T08:23:47Z</time>
      </trkpt>
      <trkpt lat="45.50985" lon="6.73662">
        <ele>1916.9</ele>
        <time>2021-08-12T08:23:48Z</time>
      </trkpt>
      <trkpt lat="45.50985" lon="6.73662">
        <ele>1916.9</ele>
        <time>2021-08-12T08:23:49Z</time>
      </trkpt>
      <trkpt lat="45.50985" lon="6.73662">
        <ele>1916.9</ele>
        <time>2021-08-12T08:23:50Z</time>
      </trkpt>
      <trkpt lat="45.50985" lon="6.73662">
        <ele>1916.9</ele>
        <time>2021-08-12T08:23:51Z</time>
      </trkpt>
      <trkpt lat="45.50985" lon="6.73662">
        <ele>1916.9</ele>
        <time>2021-08-12T08:23:52Z</time>
      </trkpt>
      <trkpt lat="45.50985" lon="6.73662">
        <ele>1916.9</ele>
        <time>2021-08-12T08:23:53Z</time>
      </trkpt>
      <trkpt lat="45.50985" lon="6.73662">
        <ele>1916.9</ele>
        <time>2021-08-12T08:23:54Z</time>
      </trkpt>
      <trkpt lat="45.50985" lon="6.73662">
        <ele>1916.9</ele>
        <time>2021-08-12T08:23:55Z</time>
      </trkpt>
      <trkpt lat="45.50985" lon="6.73662">
        <ele>1916.9</ele>
        <time>2021-08-12T08:23:56Z</time>
      </trkpt>
      <trkpt lat="45.50985" lon="6.73662">
        <ele>1916.9</ele>
        <time>2021-08-12T08:23:57Z</time>
      </trkpt>
      <trkpt lat="45.50985" lon="6.73662">
        <ele>1916.9</ele>
        <time>2021-08-12T08:23:58Z</time>
      </trkpt>
      <trkpt lat="45.50985" lon="6.73662">
        <ele>1916.9</ele>
        <time>2021-08-12T08:23:59Z</time>
      </trkpt>
      <trkpt lat="45.50985" lon="6.73662">
        <ele>1916.9</ele>
        <time>2021-08-12T08:24:00Z</time>
      </trkpt>
      <trkpt lat="45.50985" lon="6.73662">
        <ele>1916.9</ele>
        <time>2021-08-12T08:24:01Z</time>
      </trkpt>
      <trkpt lat="45.50985" lon="6.73662">
        <ele>1916.9</ele>
        <time>2021-08-12T08:24:02Z</time>
      </trkpt>
      <trkpt lat="45.50985" lon="6.73662">
        <ele>1916.9</ele>
        <time>2021-08-12T08:24:03Z</time>
      </trkpt>
      <trkpt lat="45.50985" lon="6.73662">
        <ele>1916.9</ele>
        <time>2021-08-12T08:24:04Z</time>
      </trkpt>
      <trkpt lat="45.50985" lon="6.73662">
        <ele>1916.9</ele>
        <time>2021-08-12T08:24:05Z</time>
      </trkpt>
      <trkpt lat="45.50985" lon="6.73662">
        <ele>1916.9</ele>
        <time>2021-08-12T08:24:06Z</time>
      </trkpt>
      <trkpt lat="45.50985" lon="6.73662">
        <ele>1916.9</ele>
        <time>2021-08-12T08:24:07Z</time>
      </trkpt>
      <trkpt lat="45.50985" lon="6.73662">
        <ele>1916.9</ele>
        <time>2021-08-12T08:24:08Z</time>
      </trkpt>
      <trkpt lat="45.50985" lon="6.73662">
        <ele>1916.9</ele>
        <time>2021-08-12T08:24:09Z</time>
      </trkpt>
      <trkpt lat="45.50985" lon="6.73662">
        <ele>1916.9</ele>
        <time>2021-08-12T08:24:10Z</time>
      </trkpt>
      <trkpt lat="45.50985" lon="6.73662">
        <ele>1916.9</ele>
        <time>2021-08-12T08:24:11Z</time>
      </trkpt>
      <trkpt lat="45.50985" lon="6.73662">
        <ele>1916.9</ele>
        <time>2021-08-12T08:24:12Z</time>
      </trkpt>
      <trkpt lat="45.50985" lon="6.73662">
        <ele>1916.9</ele>
        <time>2021-08-12T08:24:13Z</time>
      </trkpt>
      <trkpt lat="45.50985" lon="6.73662">
        <ele>1916.9</ele>
        <time>2021-08-12T08:24:14Z</time>
      </trkpt>
      <trkpt lat="45.50985" lon="6.73662">
        <ele>1916.9</ele>
        <time>2021-08-12T08:24:15Z</time>
      </trkpt>
      <trkpt lat="45.50985" lon="6.73662">
        <ele>1916.9</ele>
        <time>2021-08-12T08:24:16Z</time>
      </trkpt>
      <trkpt lat="45.50985" lon="6.73662">
        <ele>1916.9</ele>
        <time>2021-08-12T08:24:17Z</time>
      </trkpt>
      <trkpt lat="45.50985" lon="6.73662">
        <ele>1916.9</ele>
        <time>2021-08-12T08:24:18Z</time>
      </trkpt>
      <trkpt lat="45.50985" lon="6.73662">
        <ele>1916.9</ele>
        <time>2021-08-12T08:24:19Z</time>
      </trkpt>
      <trkpt lat="45.50985" lon="6.73662">
        <ele>1916.9</ele>
        <time>2021-08-12T08:24:20Z</time>
      </trkpt>
      <trkpt lat="45.50985" lon="6.73662">
        <ele>1916.9</ele>
        <time>2021-08-12T08:24:21Z</time>
      </trkpt>
      <trkpt lat="45.50985" lon="6.73662">
        <ele>1916.9</ele>
        <time>2021-08-12T08:24:22Z</time>
      </trkpt>
      <trkpt lat="45.50985" lon="6.73662">
        <ele>1916.9</ele>
        <time>2021-08-12T08:24:23Z</time>
      </trkpt>
      <trkpt lat="45.50985" lon="6.73662">
        <ele>1917</ele>
        <time>2021-08-12T08:24:24Z</time>
      </trkpt>
      <trkpt lat="45.50985" lon="6.73662">
        <ele>1917</ele>
        <time>2021-08-12T08:24:25Z</time>
      </trkpt>
      <trkpt lat="45.50986" lon="6.73662">
        <ele>1917</ele>
        <time>2021-08-12T08:24:26Z</time>
      </trkpt>
      <trkpt lat="45.50986" lon="6.73662">
        <ele>1917</ele>
        <time>2021-08-12T08:24:27Z</time>
      </trkpt>
      <trkpt lat="45.50986" lon="6.73662">
        <ele>1917</ele>
        <time>2021-08-12T08:24:28Z</time>
      </trkpt>
      <trkpt lat="45.50986" lon="6.73662">
        <ele>1917.1</ele>
        <time>2021-08-12T08:24:29Z</time>
      </trkpt>
      <trkpt lat="45.50986" lon="6.73662">
        <ele>1917.1</ele>
        <time>2021-08-12T08:24:30Z</time>
      </trkpt>
      <trkpt lat="45.50986" lon="6.73662">
        <ele>1917.2</ele>
        <time>2021-08-12T08:24:31Z</time>
      </trkpt>
      <trkpt lat="45.50987" lon="6.73662">
        <ele>1917.2</ele>
        <time>2021-08-12T08:24:32Z</time>
      </trkpt>
      <trkpt lat="45.50987" lon="6.73662">
        <ele>1917.3</ele>
        <time>2021-08-12T08:24:33Z</time>
      </trkpt>
      <trkpt lat="45.50987" lon="6.73663">
        <ele>1917.3</ele>
        <time>2021-08-12T08:24:34Z</time>
      </trkpt>
      <trkpt lat="45.50987" lon="6.73663">
        <ele>1917.3</ele>
        <time>2021-08-12T08:24:35Z</time>
      </trkpt>
      <trkpt lat="45.50987" lon="6.73663">
        <ele>1917.4</ele>
        <time>2021-08-12T08:24:36Z</time>
      </trkpt>
      <trkpt lat="45.50987" lon="6.73663">
        <ele>1917.4</ele>
        <time>2021-08-12T08:24:37Z</time>
      </trkpt>
      <trkpt lat="45.50987" lon="6.73663">
        <ele>1917.4</ele>
        <time>2021-08-12T08:24:38Z</time>
      </trkpt>
      <trkpt lat="45.50987" lon="6.73663">
        <ele>1917.4</ele>
        <time>2021-08-12T08:24:39Z</time>
      </trkpt>
      <trkpt lat="45.50988" lon="6.73663">
        <ele>1917.4</ele>
        <time>2021-08-12T08:24:40Z</time>
      </trkpt>
      <trkpt lat="45.50988" lon="6.73663">
        <ele>1917.4</ele>
        <time>2021-08-12T08:24:41Z</time>
      </trkpt>
      <trkpt lat="45.50988" lon="6.73663">
        <ele>1917.5</ele>
        <time>2021-08-12T08:24:42Z</time>
      </trkpt>
      <trkpt lat="45.50988" lon="6.73663">
        <ele>1917.5</ele>
        <time>2021-08-12T08:24:43Z</time>
      </trkpt>
      <trkpt lat="45.50988" lon="6.73663">
        <ele>1917.5</ele>
        <time>2021-08-12T08:24:44Z</time>
      </trkpt>
      <trkpt lat="45.50988" lon="6.73663">
        <ele>1917.5</ele>
        <time>2021-08-12T08:24:45Z</time>
      </trkpt>
      <trkpt lat="45.50988" lon="6.73663">
        <ele>1917.5</ele>
        <time>2021-08-12T08:24:46Z</time>
      </trkpt>
      <trkpt lat="45.50988" lon="6.73663">
        <ele>1917.5</ele>
        <time>2021-08-12T08:24:47Z</time>
      </trkpt>
      <trkpt lat="45.50988" lon="6.73663">
        <ele>1917.5</ele>
        <time>2021-08-12T08:24:48Z</time>
      </trkpt>
      <trkpt lat="45.50988" lon="6.73663">
        <ele>1917.5</ele>
        <time>2021-08-12T08:24:49Z</time>
      </trkpt>
      <trkpt lat="45.50988" lon="6.73663">
        <ele>1917.5</ele>
        <time>2021-08-12T08:24:50Z</time>
      </trkpt>
      <trkpt lat="45.50988" lon="6.73663">
        <ele>1917.5</ele>
        <time>2021-08-12T08:24:51Z</time>
      </trkpt>
      <trkpt lat="45.50988" lon="6.73663">
        <ele>1917.5</ele>
        <time>2021-08-12T08:24:52Z</time>
      </trkpt>
      <trkpt lat="45.50988" lon="6.73663">
        <ele>1917.5</ele>
        <time>2021-08-12T08:24:53Z</time>
      </trkpt>
      <trkpt lat="45.50988" lon="6.73663">
        <ele>1917.5</ele>
        <time>2021-08-12T08:24:54Z</time>
      </trkpt>
      <trkpt lat="45.50988" lon="6.73663">
        <ele>1917.5</ele>
        <time>2021-08-12T08:24:55Z</time>
      </trkpt>
      <trkpt lat="45.50988" lon="6.73663">
        <ele>1917.5</ele>
        <time>2021-08-12T08:24:56Z</time>
      </trkpt>
      <trkpt lat="45.50988" lon="6.73663">
        <ele>1917.5</ele>
        <time>2021-08-12T08:24:57Z</time>
      </trkpt>
      <trkpt lat="45.50988" lon="6.73663">
        <ele>1917.5</ele>
        <time>2021-08-12T08:24:58Z</time>
      </trkpt>
      <trkpt lat="45.50988" lon="6.73663">
        <ele>1917.5</ele>
        <time>2021-08-12T08:24:59Z</time>
      </trkpt>
      <trkpt lat="45.50988" lon="6.73663">
        <ele>1917.5</ele>
        <time>2021-08-12T08:25:00Z</time>
      </trkpt>
      <trkpt lat="45.50988" lon="6.73663">
        <ele>1917.5</ele>
        <time>2021-08-12T08:25:01Z</time>
      </trkpt>
      <trkpt lat="45.50988" lon="6.73663">
        <ele>1917.5</ele>
        <time>2021-08-12T08:25:02Z</time>
      </trkpt>
      <trkpt lat="45.50988" lon="6.73663">
        <ele>1917.5</ele>
        <time>2021-08-12T08:25:03Z</time>
      </trkpt>
      <trkpt lat="45.50988" lon="6.73663">
        <ele>1917.5</ele>
        <time>2021-08-12T08:25:04Z</time>
      </trkpt>
      <trkpt lat="45.50988" lon="6.73663">
        <ele>1917.5</ele>
        <time>2021-08-12T08:25:05Z</time>
      </trkpt>
      <trkpt lat="45.50988" lon="6.73663">
        <ele>1917.5</ele>
        <time>2021-08-12T08:25:06Z</time>
      </trkpt>
      <trkpt lat="45.50988" lon="6.73663">
        <ele>1917.5</ele>
        <time>2021-08-12T08:25:07Z</time>
      </trkpt>
      <trkpt lat="45.50988" lon="6.73663">
        <ele>1917.5</ele>
        <time>2021-08-12T08:25:08Z</time>
      </trkpt>
      <trkpt lat="45.50988" lon="6.73663">
        <ele>1917.5</ele>
        <time>2021-08-12T08:25:09Z</time>
      </trkpt>
      <trkpt lat="45.50988" lon="6.73663">
        <ele>1917.5</ele>
        <time>2021-08-12T08:25:10Z</time>
      </trkpt>
      <trkpt lat="45.50988" lon="6.73663">
        <ele>1917.5</ele>
        <time>2021-08-12T08:25:11Z</time>
      </trkpt>
      <trkpt lat="45.50988" lon="6.73663">
        <ele>1917.5</ele>
        <time>2021-08-12T08:25:12Z</time>
      </trkpt>
      <trkpt lat="45.50988" lon="6.73663">
        <ele>1917.5</ele>
        <time>2021-08-12T08:25:13Z</time>
      </trkpt>
      <trkpt lat="45.50988" lon="6.73663">
        <ele>1917.5</ele>
        <time>2021-08-12T08:25:14Z</time>
      </trkpt>
      <trkpt lat="45.50988" lon="6.73663">
        <ele>1917.5</ele>
        <time>2021-08-12T08:25:15Z</time>
      </trkpt>
      <trkpt lat="45.50987" lon="6.73663">
        <ele>1917.6</ele>
        <time>2021-08-12T08:25:16Z</time>
      </trkpt>
      <trkpt lat="45.50987" lon="6.73663">
        <ele>1917.6</ele>
        <time>2021-08-12T08:25:17Z</time>
      </trkpt>
      <trkpt lat="45.50987" lon="6.73663">
        <ele>1917.7</ele>
        <time>2021-08-12T08:25:18Z</time>
      </trkpt>
      <trkpt lat="45.50987" lon="6.73663">
        <ele>1917.7</ele>
        <time>2021-08-12T08:25:19Z</time>
      </trkpt>
      <trkpt lat="45.50986" lon="6.73663">
        <ele>1917.8</ele>
        <time>2021-08-12T08:25:20Z</time>
      </trkpt>
      <trkpt lat="45.50986" lon="6.73663">
        <ele>1917.9</ele>
        <time>2021-08-12T08:25:21Z</time>
      </trkpt>
      <trkpt lat="45.50986" lon="6.73664">
        <ele>1918</ele>
        <time>2021-08-12T08:25:22Z</time>
      </trkpt>
      <trkpt lat="45.50985" lon="6.73664">
        <ele>1918.1</ele>
        <time>2021-08-12T08:25:23Z</time>
      </trkpt>
      <trkpt lat="45.50984" lon="6.73664">
        <ele>1918.3</ele>
        <time>2021-08-12T08:25:24Z</time>
      </trkpt>
      <trkpt lat="45.50983" lon="6.73665">
        <ele>1918.5</ele>
        <time>2021-08-12T08:25:25Z</time>
      </trkpt>
      <trkpt lat="45.50983" lon="6.73665">
        <ele>1918.6</ele>
        <time>2021-08-12T08:25:26Z</time>
      </trkpt>
      <trkpt lat="45.50982" lon="6.73666">
        <ele>1918.8</ele>
        <time>2021-08-12T08:25:27Z</time>
      </trkpt>
      <trkpt lat="45.50981" lon="6.73666">
        <ele>1919</ele>
        <time>2021-08-12T08:25:28Z</time>
      </trkpt>
      <trkpt lat="45.5098" lon="6.73666">
        <ele>1919.2</ele>
        <time>2021-08-12T08:25:29Z</time>
      </trkpt>
      <trkpt lat="45.5098" lon="6.73667">
        <ele>1919.3</ele>
        <time>2021-08-12T08:25:30Z</time>
      </trkpt>
      <trkpt lat="45.50979" lon="6.73667">
        <ele>1919.5</ele>
        <time>2021-08-12T08:25:31Z</time>
      </trkpt>
      <trkpt lat="45.50978" lon="6.73667">
        <ele>1919.6</ele>
        <time>2021-08-12T08:25:32Z</time>
      </trkpt>
      <trkpt lat="45.50978" lon="6.73668">
        <ele>1919.8</ele>
        <time>2021-08-12T08:25:33Z</time>
      </trkpt>
      <trkpt lat="45.50977" lon="6.73668">
        <ele>1919.9</ele>
        <time>2021-08-12T08:25:34Z</time>
      </trkpt>
      <trkpt lat="45.50976" lon="6.73668">
        <ele>1920.1</ele>
        <time>2021-08-12T08:25:35Z</time>
      </trkpt>
      <trkpt lat="45.50976" lon="6.73669">
        <ele>1920.2</ele>
        <time>2021-08-12T08:25:36Z</time>
      </trkpt>
      <trkpt lat="45.50975" lon="6.73669">
        <ele>1920.3</ele>
        <time>2021-08-12T08:25:37Z</time>
      </trkpt>
      <trkpt lat="45.50975" lon="6.73669">
        <ele>1920.4</ele>
        <time>2021-08-12T08:25:38Z</time>
      </trkpt>
      <trkpt lat="45.50974" lon="6.73669">
        <ele>1920.5</ele>
        <time>2021-08-12T08:25:39Z</time>
      </trkpt>
      <trkpt lat="45.50974" lon="6.73669">
        <ele>1920.6</ele>
        <time>2021-08-12T08:25:40Z</time>
      </trkpt>
      <trkpt lat="45.50973" lon="6.7367">
        <ele>1920.7</ele>
        <time>2021-08-12T08:25:41Z</time>
      </trkpt>
      <trkpt lat="45.50973" lon="6.7367">
        <ele>1920.8</ele>
        <time>2021-08-12T08:25:42Z</time>
      </trkpt>
      <trkpt lat="45.50972" lon="6.7367">
        <ele>1920.9</ele>
        <time>2021-08-12T08:25:43Z</time>
      </trkpt>
      <trkpt lat="45.50972" lon="6.7367">
        <ele>1921</ele>
        <time>2021-08-12T08:25:44Z</time>
      </trkpt>
      <trkpt lat="45.50972" lon="6.7367">
        <ele>1921.1</ele>
        <time>2021-08-12T08:25:45Z</time>
      </trkpt>
      <trkpt lat="45.50971" lon="6.7367">
        <ele>1921.2</ele>
        <time>2021-08-12T08:25:46Z</time>
      </trkpt>
      <trkpt lat="45.50971" lon="6.7367">
        <ele>1921.3</ele>
        <time>2021-08-12T08:25:47Z</time>
      </trkpt>
      <trkpt lat="45.5097" lon="6.7367">
        <ele>1921.4</ele>
        <time>2021-08-12T08:25:48Z</time>
      </trkpt>
      <trkpt lat="45.5097" lon="6.7367">
        <ele>1921.4</ele>
        <time>2021-08-12T08:25:49Z</time>
      </trkpt>
      <trkpt lat="45.50969" lon="6.7367">
        <ele>1921.6</ele>
        <time>2021-08-12T08:25:50Z</time>
      </trkpt>
      <trkpt lat="45.50969" lon="6.7367">
        <ele>1921.6</ele>
        <time>2021-08-12T08:25:51Z</time>
      </trkpt>
      <trkpt lat="45.50968" lon="6.7367">
        <ele>1921.7</ele>
        <time>2021-08-12T08:25:52Z</time>
      </trkpt>
      <trkpt lat="45.50968" lon="6.7367">
        <ele>1921.8</ele>
        <time>2021-08-12T08:25:53Z</time>
      </trkpt>
      <trkpt lat="45.50968" lon="6.7367">
        <ele>1921.9</ele>
        <time>2021-08-12T08:25:54Z</time>
      </trkpt>
      <trkpt lat="45.50967" lon="6.73669">
        <ele>1922</ele>
        <time>2021-08-12T08:25:55Z</time>
      </trkpt>
      <trkpt lat="45.50967" lon="6.73669">
        <ele>1922.1</ele>
        <time>2021-08-12T08:25:56Z</time>
      </trkpt>
      <trkpt lat="45.50966" lon="6.73669">
        <ele>1922.3</ele>
        <time>2021-08-12T08:25:57Z</time>
      </trkpt>
      <trkpt lat="45.50966" lon="6.73669">
        <ele>1922.4</ele>
        <time>2021-08-12T08:25:58Z</time>
      </trkpt>
      <trkpt lat="45.50965" lon="6.73669">
        <ele>1922.5</ele>
        <time>2021-08-12T08:25:59Z</time>
      </trkpt>
      <trkpt lat="45.50965" lon="6.73668">
        <ele>1922.6</ele>
        <time>2021-08-12T08:26:00Z</time>
      </trkpt>
      <trkpt lat="45.50964" lon="6.73668">
        <ele>1922.7</ele>
        <time>2021-08-12T08:26:01Z</time>
      </trkpt>
      <trkpt lat="45.50964" lon="6.73667">
        <ele>1922.8</ele>
        <time>2021-08-12T08:26:02Z</time>
      </trkpt>
      <trkpt lat="45.50963" lon="6.73667">
        <ele>1922.9</ele>
        <time>2021-08-12T08:26:03Z</time>
      </trkpt>
      <trkpt lat="45.50963" lon="6.73667">
        <ele>1923</ele>
        <time>2021-08-12T08:26:04Z</time>
      </trkpt>
      <trkpt lat="45.50963" lon="6.73666">
        <ele>1923.1</ele>
        <time>2021-08-12T08:26:05Z</time>
      </trkpt>
      <trkpt lat="45.50962" lon="6.73666">
        <ele>1923.2</ele>
        <time>2021-08-12T08:26:06Z</time>
      </trkpt>
      <trkpt lat="45.50962" lon="6.73666">
        <ele>1923.2</ele>
        <time>2021-08-12T08:26:07Z</time>
      </trkpt>
      <trkpt lat="45.50962" lon="6.73666">
        <ele>1923.3</ele>
        <time>2021-08-12T08:26:08Z</time>
      </trkpt>
      <trkpt lat="45.50962" lon="6.73665">
        <ele>1923.3</ele>
        <time>2021-08-12T08:26:09Z</time>
      </trkpt>
      <trkpt lat="45.50962" lon="6.73665">
        <ele>1923.3</ele>
        <time>2021-08-12T08:26:10Z</time>
      </trkpt>
      <trkpt lat="45.50962" lon="6.73665">
        <ele>1923.3</ele>
        <time>2021-08-12T08:26:11Z</time>
      </trkpt>
      <trkpt lat="45.50962" lon="6.73665">
        <ele>1923.4</ele>
        <time>2021-08-12T08:26:12Z</time>
      </trkpt>
      <trkpt lat="45.50961" lon="6.73665">
        <ele>1923.4</ele>
        <time>2021-08-12T08:26:13Z</time>
      </trkpt>
      <trkpt lat="45.50961" lon="6.73665">
        <ele>1923.4</ele>
        <time>2021-08-12T08:26:14Z</time>
      </trkpt>
      <trkpt lat="45.50961" lon="6.73665">
        <ele>1923.5</ele>
        <time>2021-08-12T08:26:15Z</time>
      </trkpt>
      <trkpt lat="45.5096" lon="6.73665">
        <ele>1923.7</ele>
        <time>2021-08-12T08:26:16Z</time>
      </trkpt>
      <trkpt lat="45.50959" lon="6.73665">
        <ele>1923.8</ele>
        <time>2021-08-12T08:26:17Z</time>
      </trkpt>
      <trkpt lat="45.50959" lon="6.73664">
        <ele>1924</ele>
        <time>2021-08-12T08:26:18Z</time>
      </trkpt>
      <trkpt lat="45.50958" lon="6.73664">
        <ele>1924.1</ele>
        <time>2021-08-12T08:26:19Z</time>
      </trkpt>
      <trkpt lat="45.50957" lon="6.73664">
        <ele>1924.3</ele>
        <time>2021-08-12T08:26:20Z</time>
      </trkpt>
      <trkpt lat="45.50956" lon="6.73663">
        <ele>1924.5</ele>
        <time>2021-08-12T08:26:21Z</time>
      </trkpt>
      <trkpt lat="45.50956" lon="6.73663">
        <ele>1924.6</ele>
        <time>2021-08-12T08:26:22Z</time>
      </trkpt>
      <trkpt lat="45.50955" lon="6.73663">
        <ele>1924.8</ele>
        <time>2021-08-12T08:26:23Z</time>
      </trkpt>
      <trkpt lat="45.50954" lon="6.73663">
        <ele>1924.9</ele>
        <time>2021-08-12T08:26:24Z</time>
      </trkpt>
      <trkpt lat="45.50954" lon="6.73663">
        <ele>1925</ele>
        <time>2021-08-12T08:26:25Z</time>
      </trkpt>
      <trkpt lat="45.50953" lon="6.73663">
        <ele>1925.2</ele>
        <time>2021-08-12T08:26:26Z</time>
      </trkpt>
      <trkpt lat="45.50952" lon="6.73663">
        <ele>1925.3</ele>
        <time>2021-08-12T08:26:27Z</time>
      </trkpt>
      <trkpt lat="45.50952" lon="6.73663">
        <ele>1925.4</ele>
        <time>2021-08-12T08:26:28Z</time>
      </trkpt>
      <trkpt lat="45.50951" lon="6.73663">
        <ele>1925.6</ele>
        <time>2021-08-12T08:26:29Z</time>
      </trkpt>
      <trkpt lat="45.50951" lon="6.73663">
        <ele>1925.7</ele>
        <time>2021-08-12T08:26:30Z</time>
      </trkpt>
      <trkpt lat="45.5095" lon="6.73663">
        <ele>1925.8</ele>
        <time>2021-08-12T08:26:31Z</time>
      </trkpt>
      <trkpt lat="45.50949" lon="6.73663">
        <ele>1926</ele>
        <time>2021-08-12T08:26:32Z</time>
      </trkpt>
      <trkpt lat="45.50949" lon="6.73663">
        <ele>1926.1</ele>
        <time>2021-08-12T08:26:33Z</time>
      </trkpt>
      <trkpt lat="45.50948" lon="6.73663">
        <ele>1926.3</ele>
        <time>2021-08-12T08:26:34Z</time>
      </trkpt>
      <trkpt lat="45.50947" lon="6.73663">
        <ele>1926.4</ele>
        <time>2021-08-12T08:26:35Z</time>
      </trkpt>
      <trkpt lat="45.50947" lon="6.73663">
        <ele>1926.5</ele>
        <time>2021-08-12T08:26:36Z</time>
      </trkpt>
      <trkpt lat="45.50946" lon="6.73663">
        <ele>1926.6</ele>
        <time>2021-08-12T08:26:37Z</time>
      </trkpt>
      <trkpt lat="45.50946" lon="6.73663">
        <ele>1926.8</ele>
        <time>2021-08-12T08:26:38Z</time>
      </trkpt>
      <trkpt lat="45.50945" lon="6.73663">
        <ele>1926.9</ele>
        <time>2021-08-12T08:26:39Z</time>
      </trkpt>
      <trkpt lat="45.50944" lon="6.73663">
        <ele>1927</ele>
        <time>2021-08-12T08:26:40Z</time>
      </trkpt>
      <trkpt lat="45.50944" lon="6.73663">
        <ele>1927.1</ele>
        <time>2021-08-12T08:26:41Z</time>
      </trkpt>
      <trkpt lat="45.50943" lon="6.73663">
        <ele>1927.2</ele>
        <time>2021-08-12T08:26:42Z</time>
      </trkpt>
      <trkpt lat="45.50943" lon="6.73663">
        <ele>1927.4</ele>
        <time>2021-08-12T08:26:43Z</time>
      </trkpt>
      <trkpt lat="45.50942" lon="6.73663">
        <ele>1927.5</ele>
        <time>2021-08-12T08:26:44Z</time>
      </trkpt>
      <trkpt lat="45.50942" lon="6.73663">
        <ele>1927.6</ele>
        <time>2021-08-12T08:26:45Z</time>
      </trkpt>
      <trkpt lat="45.50941" lon="6.73663">
        <ele>1927.7</ele>
        <time>2021-08-12T08:26:46Z</time>
      </trkpt>
      <trkpt lat="45.50941" lon="6.73663">
        <ele>1927.8</ele>
        <time>2021-08-12T08:26:47Z</time>
      </trkpt>
      <trkpt lat="45.5094" lon="6.73663">
        <ele>1927.9</ele>
        <time>2021-08-12T08:26:48Z</time>
      </trkpt>
      <trkpt lat="45.5094" lon="6.73663">
        <ele>1927.9</ele>
        <time>2021-08-12T08:26:49Z</time>
      </trkpt>
      <trkpt lat="45.5094" lon="6.73663">
        <ele>1928</ele>
        <time>2021-08-12T08:26:50Z</time>
      </trkpt>
      <trkpt lat="45.50939" lon="6.73663">
        <ele>1928.1</ele>
        <time>2021-08-12T08:26:51Z</time>
      </trkpt>
      <trkpt lat="45.50939" lon="6.73663">
        <ele>1928.2</ele>
        <time>2021-08-12T08:26:52Z</time>
      </trkpt>
      <trkpt lat="45.50938" lon="6.73663">
        <ele>1928.3</ele>
        <time>2021-08-12T08:26:53Z</time>
      </trkpt>
      <trkpt lat="45.50938" lon="6.73663">
        <ele>1928.4</ele>
        <time>2021-08-12T08:26:54Z</time>
      </trkpt>
      <trkpt lat="45.50937" lon="6.73663">
        <ele>1928.5</ele>
        <time>2021-08-12T08:26:55Z</time>
      </trkpt>
      <trkpt lat="45.50937" lon="6.73663">
        <ele>1928.6</ele>
        <time>2021-08-12T08:26:56Z</time>
      </trkpt>
      <trkpt lat="45.50936" lon="6.73663">
        <ele>1928.7</ele>
        <time>2021-08-12T08:26:57Z</time>
      </trkpt>
      <trkpt lat="45.50936" lon="6.73663">
        <ele>1928.9</ele>
        <time>2021-08-12T08:26:58Z</time>
      </trkpt>
      <trkpt lat="45.50935" lon="6.73663">
        <ele>1929</ele>
        <time>2021-08-12T08:26:59Z</time>
      </trkpt>
      <trkpt lat="45.50934" lon="6.73663">
        <ele>1929.2</ele>
        <time>2021-08-12T08:27:00Z</time>
      </trkpt>
      <trkpt lat="45.50933" lon="6.73664">
        <ele>1929.4</ele>
        <time>2021-08-12T08:27:01Z</time>
      </trkpt>
      <trkpt lat="45.50932" lon="6.73664">
        <ele>1929.6</ele>
        <time>2021-08-12T08:27:02Z</time>
      </trkpt>
      <trkpt lat="45.50932" lon="6.73664">
        <ele>1929.7</ele>
        <time>2021-08-12T08:27:03Z</time>
      </trkpt>
      <trkpt lat="45.50931" lon="6.73664">
        <ele>1929.8</ele>
        <time>2021-08-12T08:27:04Z</time>
      </trkpt>
      <trkpt lat="45.50931" lon="6.73665">
        <ele>1929.9</ele>
        <time>2021-08-12T08:27:05Z</time>
      </trkpt>
      <trkpt lat="45.50931" lon="6.73665">
        <ele>1929.9</ele>
        <time>2021-08-12T08:27:06Z</time>
      </trkpt>
      <trkpt lat="45.50931" lon="6.73665">
        <ele>1930</ele>
        <time>2021-08-12T08:27:07Z</time>
      </trkpt>
      <trkpt lat="45.50931" lon="6.73665">
        <ele>1930</ele>
        <time>2021-08-12T08:27:08Z</time>
      </trkpt>
      <trkpt lat="45.50931" lon="6.73665">
        <ele>1930</ele>
        <time>2021-08-12T08:27:09Z</time>
      </trkpt>
      <trkpt lat="45.50931" lon="6.73665">
        <ele>1930</ele>
        <time>2021-08-12T08:27:10Z</time>
      </trkpt>
      <trkpt lat="45.50931" lon="6.73665">
        <ele>1930.1</ele>
        <time>2021-08-12T08:27:11Z</time>
      </trkpt>
      <trkpt lat="45.50931" lon="6.73665">
        <ele>1930.1</ele>
        <time>2021-08-12T08:27:12Z</time>
      </trkpt>
      <trkpt lat="45.50931" lon="6.73665">
        <ele>1930.1</ele>
        <time>2021-08-12T08:27:13Z</time>
      </trkpt>
      <trkpt lat="45.5093" lon="6.73665">
        <ele>1930.2</ele>
        <time>2021-08-12T08:27:14Z</time>
      </trkpt>
      <trkpt lat="45.5093" lon="6.73665">
        <ele>1930.3</ele>
        <time>2021-08-12T08:27:15Z</time>
      </trkpt>
      <trkpt lat="45.50929" lon="6.73665">
        <ele>1930.5</ele>
        <time>2021-08-12T08:27:16Z</time>
      </trkpt>
      <trkpt lat="45.50928" lon="6.73665">
        <ele>1930.6</ele>
        <time>2021-08-12T08:27:17Z</time>
      </trkpt>
      <trkpt lat="45.50928" lon="6.73665">
        <ele>1930.8</ele>
        <time>2021-08-12T08:27:18Z</time>
      </trkpt>
      <trkpt lat="45.50927" lon="6.73665">
        <ele>1930.9</ele>
        <time>2021-08-12T08:27:19Z</time>
      </trkpt>
      <trkpt lat="45.50926" lon="6.73665">
        <ele>1931</ele>
        <time>2021-08-12T08:27:20Z</time>
      </trkpt>
      <trkpt lat="45.50926" lon="6.73665">
        <ele>1931.1</ele>
        <time>2021-08-12T08:27:21Z</time>
      </trkpt>
      <trkpt lat="45.50925" lon="6.73665">
        <ele>1931.2</ele>
        <time>2021-08-12T08:27:22Z</time>
      </trkpt>
      <trkpt lat="45.50925" lon="6.73665">
        <ele>1931.3</ele>
        <time>2021-08-12T08:27:23Z</time>
      </trkpt>
      <trkpt lat="45.50925" lon="6.73664">
        <ele>1931.4</ele>
        <time>2021-08-12T08:27:24Z</time>
      </trkpt>
      <trkpt lat="45.50924" lon="6.73664">
        <ele>1931.5</ele>
        <time>2021-08-12T08:27:25Z</time>
      </trkpt>
      <trkpt lat="45.50924" lon="6.73664">
        <ele>1931.6</ele>
        <time>2021-08-12T08:27:26Z</time>
      </trkpt>
      <trkpt lat="45.50924" lon="6.73663">
        <ele>1931.7</ele>
        <time>2021-08-12T08:27:27Z</time>
      </trkpt>
      <trkpt lat="45.50924" lon="6.73663">
        <ele>1931.8</ele>
        <time>2021-08-12T08:27:28Z</time>
      </trkpt>
      <trkpt lat="45.50923" lon="6.73662">
        <ele>1931.9</ele>
        <time>2021-08-12T08:27:29Z</time>
      </trkpt>
      <trkpt lat="45.50923" lon="6.73661">
        <ele>1932</ele>
        <time>2021-08-12T08:27:30Z</time>
      </trkpt>
      <trkpt lat="45.50923" lon="6.73661">
        <ele>1932.1</ele>
        <time>2021-08-12T08:27:31Z</time>
      </trkpt>
      <trkpt lat="45.50922" lon="6.7366">
        <ele>1932.2</ele>
        <time>2021-08-12T08:27:32Z</time>
      </trkpt>
      <trkpt lat="45.50922" lon="6.7366">
        <ele>1932.3</ele>
        <time>2021-08-12T08:27:33Z</time>
      </trkpt>
      <trkpt lat="45.50921" lon="6.73659">
        <ele>1932.4</ele>
        <time>2021-08-12T08:27:34Z</time>
      </trkpt>
      <trkpt lat="45.50921" lon="6.73659">
        <ele>1932.6</ele>
        <time>2021-08-12T08:27:35Z</time>
      </trkpt>
      <trkpt lat="45.50921" lon="6.73658">
        <ele>1932.7</ele>
        <time>2021-08-12T08:27:36Z</time>
      </trkpt>
      <trkpt lat="45.5092" lon="6.73658">
        <ele>1932.8</ele>
        <time>2021-08-12T08:27:37Z</time>
      </trkpt>
      <trkpt lat="45.5092" lon="6.73657">
        <ele>1932.9</ele>
        <time>2021-08-12T08:27:38Z</time>
      </trkpt>
      <trkpt lat="45.50919" lon="6.73657">
        <ele>1933</ele>
        <time>2021-08-12T08:27:39Z</time>
      </trkpt>
      <trkpt lat="45.50919" lon="6.73657">
        <ele>1933.1</ele>
        <time>2021-08-12T08:27:40Z</time>
      </trkpt>
      <trkpt lat="45.50918" lon="6.73657">
        <ele>1933.2</ele>
        <time>2021-08-12T08:27:41Z</time>
      </trkpt>
      <trkpt lat="45.50917" lon="6.73657">
        <ele>1933.4</ele>
        <time>2021-08-12T08:27:42Z</time>
      </trkpt>
      <trkpt lat="45.50917" lon="6.73657">
        <ele>1933.5</ele>
        <time>2021-08-12T08:27:43Z</time>
      </trkpt>
      <trkpt lat="45.50916" lon="6.73657">
        <ele>1933.6</ele>
        <time>2021-08-12T08:27:44Z</time>
      </trkpt>
      <trkpt lat="45.50916" lon="6.73657">
        <ele>1933.7</ele>
        <time>2021-08-12T08:27:45Z</time>
      </trkpt>
      <trkpt lat="45.50915" lon="6.73657">
        <ele>1933.8</ele>
        <time>2021-08-12T08:27:46Z</time>
      </trkpt>
      <trkpt lat="45.50915" lon="6.73657">
        <ele>1934</ele>
        <time>2021-08-12T08:27:47Z</time>
      </trkpt>
      <trkpt lat="45.50914" lon="6.73657">
        <ele>1934.1</ele>
        <time>2021-08-12T08:27:48Z</time>
      </trkpt>
      <trkpt lat="45.50913" lon="6.73657">
        <ele>1934.2</ele>
        <time>2021-08-12T08:27:49Z</time>
      </trkpt>
      <trkpt lat="45.50913" lon="6.73657">
        <ele>1934.3</ele>
        <time>2021-08-12T08:27:50Z</time>
      </trkpt>
      <trkpt lat="45.50912" lon="6.73657">
        <ele>1934.4</ele>
        <time>2021-08-12T08:27:51Z</time>
      </trkpt>
      <trkpt lat="45.50912" lon="6.73658">
        <ele>1934.5</ele>
        <time>2021-08-12T08:27:52Z</time>
      </trkpt>
      <trkpt lat="45.50912" lon="6.73658">
        <ele>1934.6</ele>
        <time>2021-08-12T08:27:53Z</time>
      </trkpt>
      <trkpt lat="45.50912" lon="6.73658">
        <ele>1934.6</ele>
        <time>2021-08-12T08:27:54Z</time>
      </trkpt>
      <trkpt lat="45.50912" lon="6.73658">
        <ele>1934.6</ele>
        <time>2021-08-12T08:27:55Z</time>
      </trkpt>
      <trkpt lat="45.50912" lon="6.73658">
        <ele>1934.6</ele>
        <time>2021-08-12T08:27:56Z</time>
      </trkpt>
      <trkpt lat="45.50912" lon="6.73658">
        <ele>1934.6</ele>
        <time>2021-08-12T08:27:57Z</time>
      </trkpt>
      <trkpt lat="45.50912" lon="6.73658">
        <ele>1934.6</ele>
        <time>2021-08-12T08:27:58Z</time>
      </trkpt>
      <trkpt lat="45.50912" lon="6.73658">
        <ele>1934.7</ele>
        <time>2021-08-12T08:27:59Z</time>
      </trkpt>
      <trkpt lat="45.50912" lon="6.73658">
        <ele>1934.7</ele>
        <time>2021-08-12T08:28:00Z</time>
      </trkpt>
      <trkpt lat="45.50912" lon="6.73658">
        <ele>1934.7</ele>
        <time>2021-08-12T08:28:01Z</time>
      </trkpt>
      <trkpt lat="45.50912" lon="6.73658">
        <ele>1934.7</ele>
        <time>2021-08-12T08:28:02Z</time>
      </trkpt>
      <trkpt lat="45.50911" lon="6.73657">
        <ele>1934.9</ele>
        <time>2021-08-12T08:28:03Z</time>
      </trkpt>
      <trkpt lat="45.50911" lon="6.73657">
        <ele>1935</ele>
        <time>2021-08-12T08:28:04Z</time>
      </trkpt>
      <trkpt lat="45.5091" lon="6.73657">
        <ele>1935.1</ele>
        <time>2021-08-12T08:28:05Z</time>
      </trkpt>
      <trkpt lat="45.50909" lon="6.73657">
        <ele>1935.3</ele>
        <time>2021-08-12T08:28:06Z</time>
      </trkpt>
      <trkpt lat="45.50909" lon="6.73657">
        <ele>1935.4</ele>
        <time>2021-08-12T08:28:07Z</time>
      </trkpt>
      <trkpt lat="45.50908" lon="6.73657">
        <ele>1935.5</ele>
        <time>2021-08-12T08:28:08Z</time>
      </trkpt>
      <trkpt lat="45.50907" lon="6.73658">
        <ele>1935.7</ele>
        <time>2021-08-12T08:28:09Z</time>
      </trkpt>
      <trkpt lat="45.50907" lon="6.73658">
        <ele>1935.8</ele>
        <time>2021-08-12T08:28:10Z</time>
      </trkpt>
      <trkpt lat="45.50906" lon="6.73659">
        <ele>1936</ele>
        <time>2021-08-12T08:28:11Z</time>
      </trkpt>
      <trkpt lat="45.50906" lon="6.7366">
        <ele>1936.1</ele>
        <time>2021-08-12T08:28:12Z</time>
      </trkpt>
      <trkpt lat="45.50906" lon="6.7366">
        <ele>1936.2</ele>
        <time>2021-08-12T08:28:13Z</time>
      </trkpt>
      <trkpt lat="45.50905" lon="6.73661">
        <ele>1936.4</ele>
        <time>2021-08-12T08:28:14Z</time>
      </trkpt>
      <trkpt lat="45.50905" lon="6.73662">
        <ele>1936.5</ele>
        <time>2021-08-12T08:28:15Z</time>
      </trkpt>
      <trkpt lat="45.50904" lon="6.73662">
        <ele>1936.6</ele>
        <time>2021-08-12T08:28:16Z</time>
      </trkpt>
      <trkpt lat="45.50904" lon="6.73663">
        <ele>1936.7</ele>
        <time>2021-08-12T08:28:17Z</time>
      </trkpt>
      <trkpt lat="45.50904" lon="6.73663">
        <ele>1936.8</ele>
        <time>2021-08-12T08:28:18Z</time>
      </trkpt>
      <trkpt lat="45.50903" lon="6.73664">
        <ele>1936.9</ele>
        <time>2021-08-12T08:28:19Z</time>
      </trkpt>
      <trkpt lat="45.50903" lon="6.73664">
        <ele>1937</ele>
        <time>2021-08-12T08:28:20Z</time>
      </trkpt>
      <trkpt lat="45.50903" lon="6.73664">
        <ele>1937.1</ele>
        <time>2021-08-12T08:28:21Z</time>
      </trkpt>
      <trkpt lat="45.50902" lon="6.73665">
        <ele>1937.2</ele>
        <time>2021-08-12T08:28:22Z</time>
      </trkpt>
      <trkpt lat="45.50902" lon="6.73665">
        <ele>1937.2</ele>
        <time>2021-08-12T08:28:23Z</time>
      </trkpt>
      <trkpt lat="45.50902" lon="6.73665">
        <ele>1937.3</ele>
        <time>2021-08-12T08:28:24Z</time>
      </trkpt>
      <trkpt lat="45.50902" lon="6.73665">
        <ele>1937.3</ele>
        <time>2021-08-12T08:28:25Z</time>
      </trkpt>
      <trkpt lat="45.50901" lon="6.73665">
        <ele>1937.4</ele>
        <time>2021-08-12T08:28:26Z</time>
      </trkpt>
      <trkpt lat="45.50901" lon="6.73665">
        <ele>1937.4</ele>
        <time>2021-08-12T08:28:27Z</time>
      </trkpt>
      <trkpt lat="45.50901" lon="6.73665">
        <ele>1937.4</ele>
        <time>2021-08-12T08:28:28Z</time>
      </trkpt>
      <trkpt lat="45.50901" lon="6.73665">
        <ele>1937.4</ele>
        <time>2021-08-12T08:28:29Z</time>
      </trkpt>
      <trkpt lat="45.50901" lon="6.73665">
        <ele>1937.4</ele>
        <time>2021-08-12T08:28:30Z</time>
      </trkpt>
      <trkpt lat="45.50901" lon="6.73665">
        <ele>1937.4</ele>
        <time>2021-08-12T08:28:31Z</time>
      </trkpt>
      <trkpt lat="45.50901" lon="6.73665">
        <ele>1937.4</ele>
        <time>2021-08-12T08:28:32Z</time>
      </trkpt>
      <trkpt lat="45.50901" lon="6.73665">
        <ele>1937.4</ele>
        <time>2021-08-12T08:28:33Z</time>
      </trkpt>
      <trkpt lat="45.50901" lon="6.73665">
        <ele>1937.4</ele>
        <time>2021-08-12T08:28:34Z</time>
      </trkpt>
      <trkpt lat="45.50901" lon="6.73665">
        <ele>1937.4</ele>
        <time>2021-08-12T08:28:35Z</time>
      </trkpt>
      <trkpt lat="45.50901" lon="6.73665">
        <ele>1937.5</ele>
        <time>2021-08-12T08:28:36Z</time>
      </trkpt>
      <trkpt lat="45.50901" lon="6.73665">
        <ele>1937.5</ele>
        <time>2021-08-12T08:28:37Z</time>
      </trkpt>
      <trkpt lat="45.509" lon="6.73665">
        <ele>1937.6</ele>
        <time>2021-08-12T08:28:38Z</time>
      </trkpt>
      <trkpt lat="45.509" lon="6.73666">
        <ele>1937.7</ele>
        <time>2021-08-12T08:28:39Z</time>
      </trkpt>
      <trkpt lat="45.50899" lon="6.73666">
        <ele>1937.8</ele>
        <time>2021-08-12T08:28:40Z</time>
      </trkpt>
      <trkpt lat="45.50899" lon="6.73666">
        <ele>1937.9</ele>
        <time>2021-08-12T08:28:41Z</time>
      </trkpt>
      <trkpt lat="45.50898" lon="6.73666">
        <ele>1938</ele>
        <time>2021-08-12T08:28:42Z</time>
      </trkpt>
      <trkpt lat="45.50898" lon="6.73666">
        <ele>1938.2</ele>
        <time>2021-08-12T08:28:43Z</time>
      </trkpt>
      <trkpt lat="45.50897" lon="6.73667">
        <ele>1938.3</ele>
        <time>2021-08-12T08:28:44Z</time>
      </trkpt>
      <trkpt lat="45.50896" lon="6.73667">
        <ele>1938.5</ele>
        <time>2021-08-12T08:28:45Z</time>
      </trkpt>
      <trkpt lat="45.50896" lon="6.73667">
        <ele>1938.6</ele>
        <time>2021-08-12T08:28:46Z</time>
      </trkpt>
      <trkpt lat="45.50895" lon="6.73667">
        <ele>1938.8</ele>
        <time>2021-08-12T08:28:47Z</time>
      </trkpt>
      <trkpt lat="45.50894" lon="6.73668">
        <ele>1938.9</ele>
        <time>2021-08-12T08:28:48Z</time>
      </trkpt>
      <trkpt lat="45.50894" lon="6.73668">
        <ele>1939.1</ele>
        <time>2021-08-12T08:28:49Z</time>
      </trkpt>
      <trkpt lat="45.50893" lon="6.73668">
        <ele>1939.2</ele>
        <time>2021-08-12T08:28:50Z</time>
      </trkpt>
      <trkpt lat="45.50892" lon="6.73668">
        <ele>1939.4</ele>
        <time>2021-08-12T08:28:51Z</time>
      </trkpt>
      <trkpt lat="45.50891" lon="6.73668">
        <ele>1939.5</ele>
        <time>2021-08-12T08:28:52Z</time>
      </trkpt>
      <trkpt lat="45.50891" lon="6.73668">
        <ele>1939.7</ele>
        <time>2021-08-12T08:28:53Z</time>
      </trkpt>
      <trkpt lat="45.5089" lon="6.73668">
        <ele>1939.8</ele>
        <time>2021-08-12T08:28:54Z</time>
      </trkpt>
      <trkpt lat="45.50889" lon="6.73668">
        <ele>1940</ele>
        <time>2021-08-12T08:28:55Z</time>
      </trkpt>
      <trkpt lat="45.50889" lon="6.73668">
        <ele>1940.1</ele>
        <time>2021-08-12T08:28:56Z</time>
      </trkpt>
      <trkpt lat="45.50888" lon="6.73668">
        <ele>1940.2</ele>
        <time>2021-08-12T08:28:57Z</time>
      </trkpt>
      <trkpt lat="45.50887" lon="6.73668">
        <ele>1940.4</ele>
        <time>2021-08-12T08:28:58Z</time>
      </trkpt>
      <trkpt lat="45.50887" lon="6.73667">
        <ele>1940.5</ele>
        <time>2021-08-12T08:28:59Z</time>
      </trkpt>
      <trkpt lat="45.50886" lon="6.73667">
        <ele>1940.7</ele>
        <time>2021-08-12T08:29:00Z</time>
      </trkpt>
      <trkpt lat="45.50885" lon="6.73667">
        <ele>1940.8</ele>
        <time>2021-08-12T08:29:01Z</time>
      </trkpt>
      <trkpt lat="45.50885" lon="6.73667">
        <ele>1940.9</ele>
        <time>2021-08-12T08:29:02Z</time>
      </trkpt>
      <trkpt lat="45.50884" lon="6.73666">
        <ele>1941</ele>
        <time>2021-08-12T08:29:03Z</time>
      </trkpt>
      <trkpt lat="45.50884" lon="6.73666">
        <ele>1941.2</ele>
        <time>2021-08-12T08:29:04Z</time>
      </trkpt>
      <trkpt lat="45.50883" lon="6.73666">
        <ele>1941.3</ele>
        <time>2021-08-12T08:29:05Z</time>
      </trkpt>
      <trkpt lat="45.50882" lon="6.73666">
        <ele>1941.5</ele>
        <time>2021-08-12T08:29:06Z</time>
      </trkpt>
      <trkpt lat="45.50882" lon="6.73666">
        <ele>1941.6</ele>
        <time>2021-08-12T08:29:07Z</time>
      </trkpt>
      <trkpt lat="45.50881" lon="6.73666">
        <ele>1941.7</ele>
        <time>2021-08-12T08:29:08Z</time>
      </trkpt>
      <trkpt lat="45.50881" lon="6.73666">
        <ele>1941.8</ele>
        <time>2021-08-12T08:29:09Z</time>
      </trkpt>
      <trkpt lat="45.5088" lon="6.73666">
        <ele>1941.9</ele>
        <time>2021-08-12T08:29:10Z</time>
      </trkpt>
      <trkpt lat="45.5088" lon="6.73666">
        <ele>1942</ele>
        <time>2021-08-12T08:29:11Z</time>
      </trkpt>
      <trkpt lat="45.50879" lon="6.73666">
        <ele>1942.1</ele>
        <time>2021-08-12T08:29:12Z</time>
      </trkpt>
      <trkpt lat="45.50879" lon="6.73666">
        <ele>1942.2</ele>
        <time>2021-08-12T08:29:13Z</time>
      </trkpt>
      <trkpt lat="45.50879" lon="6.73666">
        <ele>1942.2</ele>
        <time>2021-08-12T08:29:14Z</time>
      </trkpt>
      <trkpt lat="45.50878" lon="6.73666">
        <ele>1942.3</ele>
        <time>2021-08-12T08:29:15Z</time>
      </trkpt>
      <trkpt lat="45.50878" lon="6.73666">
        <ele>1942.3</ele>
        <time>2021-08-12T08:29:16Z</time>
      </trkpt>
      <trkpt lat="45.50878" lon="6.73666">
        <ele>1942.3</ele>
        <time>2021-08-12T08:29:17Z</time>
      </trkpt>
      <trkpt lat="45.50878" lon="6.73666">
        <ele>1942.3</ele>
        <time>2021-08-12T08:29:18Z</time>
      </trkpt>
      <trkpt lat="45.50878" lon="6.73666">
        <ele>1942.3</ele>
        <time>2021-08-12T08:29:19Z</time>
      </trkpt>
      <trkpt lat="45.50878" lon="6.73666">
        <ele>1942.3</ele>
        <time>2021-08-12T08:29:20Z</time>
      </trkpt>
      <trkpt lat="45.50878" lon="6.73666">
        <ele>1942.4</ele>
        <time>2021-08-12T08:29:21Z</time>
      </trkpt>
      <trkpt lat="45.50878" lon="6.73666">
        <ele>1942.4</ele>
        <time>2021-08-12T08:29:22Z</time>
      </trkpt>
      <trkpt lat="45.50878" lon="6.73666">
        <ele>1942.4</ele>
        <time>2021-08-12T08:29:23Z</time>
      </trkpt>
      <trkpt lat="45.50878" lon="6.73666">
        <ele>1942.4</ele>
        <time>2021-08-12T08:29:24Z</time>
      </trkpt>
      <trkpt lat="45.50878" lon="6.73666">
        <ele>1942.4</ele>
        <time>2021-08-12T08:29:25Z</time>
      </trkpt>
      <trkpt lat="45.50878" lon="6.73666">
        <ele>1942.4</ele>
        <time>2021-08-12T08:29:26Z</time>
      </trkpt>
      <trkpt lat="45.50878" lon="6.73666">
        <ele>1942.5</ele>
        <time>2021-08-12T08:29:27Z</time>
      </trkpt>
      <trkpt lat="45.50878" lon="6.73666">
        <ele>1942.6</ele>
        <time>2021-08-12T08:29:28Z</time>
      </trkpt>
      <trkpt lat="45.50877" lon="6.73666">
        <ele>1942.7</ele>
        <time>2021-08-12T08:29:29Z</time>
      </trkpt>
      <trkpt lat="45.50876" lon="6.73666">
        <ele>1942.8</ele>
        <time>2021-08-12T08:29:30Z</time>
      </trkpt>
      <trkpt lat="45.50876" lon="6.73666">
        <ele>1943</ele>
        <time>2021-08-12T08:29:31Z</time>
      </trkpt>
      <trkpt lat="45.50875" lon="6.73667">
        <ele>1943.1</ele>
        <time>2021-08-12T08:29:32Z</time>
      </trkpt>
      <trkpt lat="45.50874" lon="6.73667">
        <ele>1943.3</ele>
        <time>2021-08-12T08:29:33Z</time>
      </trkpt>
      <trkpt lat="45.50873" lon="6.73667">
        <ele>1943.5</ele>
        <time>2021-08-12T08:29:34Z</time>
      </trkpt>
      <trkpt lat="45.50873" lon="6.73668">
        <ele>1943.6</ele>
        <time>2021-08-12T08:29:35Z</time>
      </trkpt>
      <trkpt lat="45.50872" lon="6.73668">
        <ele>1943.8</ele>
        <time>2021-08-12T08:29:36Z</time>
      </trkpt>
      <trkpt lat="45.50872" lon="6.73669">
        <ele>1943.9</ele>
        <time>2021-08-12T08:29:37Z</time>
      </trkpt>
      <trkpt lat="45.50871" lon="6.7367">
        <ele>1944.1</ele>
        <time>2021-08-12T08:29:38Z</time>
      </trkpt>
      <trkpt lat="45.50871" lon="6.73671">
        <ele>1944.3</ele>
        <time>2021-08-12T08:29:39Z</time>
      </trkpt>
      <trkpt lat="45.5087" lon="6.73672">
        <ele>1944.4</ele>
        <time>2021-08-12T08:29:40Z</time>
      </trkpt>
      <trkpt lat="45.5087" lon="6.73673">
        <ele>1944.6</ele>
        <time>2021-08-12T08:29:41Z</time>
      </trkpt>
      <trkpt lat="45.50869" lon="6.73674">
        <ele>1944.8</ele>
        <time>2021-08-12T08:29:42Z</time>
      </trkpt>
      <trkpt lat="45.50868" lon="6.73675">
        <ele>1945</ele>
        <time>2021-08-12T08:29:43Z</time>
      </trkpt>
      <trkpt lat="45.50868" lon="6.73676">
        <ele>1945.2</ele>
        <time>2021-08-12T08:29:44Z</time>
      </trkpt>
      <trkpt lat="45.50867" lon="6.73676">
        <ele>1945.4</ele>
        <time>2021-08-12T08:29:45Z</time>
      </trkpt>
      <trkpt lat="45.50866" lon="6.73677">
        <ele>1945.6</ele>
        <time>2021-08-12T08:29:46Z</time>
      </trkpt>
      <trkpt lat="45.50865" lon="6.73678">
        <ele>1945.8</ele>
        <time>2021-08-12T08:29:47Z</time>
      </trkpt>
      <trkpt lat="45.50864" lon="6.73678">
        <ele>1946</ele>
        <time>2021-08-12T08:29:48Z</time>
      </trkpt>
      <trkpt lat="45.50863" lon="6.73678">
        <ele>1946.2</ele>
        <time>2021-08-12T08:29:49Z</time>
      </trkpt>
      <trkpt lat="45.50862" lon="6.73679">
        <ele>1946.4</ele>
        <time>2021-08-12T08:29:50Z</time>
      </trkpt>
      <trkpt lat="45.50862" lon="6.73679">
        <ele>1946.6</ele>
        <time>2021-08-12T08:29:51Z</time>
      </trkpt>
      <trkpt lat="45.50861" lon="6.73679">
        <ele>1946.7</ele>
        <time>2021-08-12T08:29:52Z</time>
      </trkpt>
      <trkpt lat="45.5086" lon="6.7368">
        <ele>1946.9</ele>
        <time>2021-08-12T08:29:53Z</time>
      </trkpt>
      <trkpt lat="45.5086" lon="6.7368">
        <ele>1947</ele>
        <time>2021-08-12T08:29:54Z</time>
      </trkpt>
      <trkpt lat="45.50859" lon="6.7368">
        <ele>1947</ele>
        <time>2021-08-12T08:29:55Z</time>
      </trkpt>
      <trkpt lat="45.50859" lon="6.7368">
        <ele>1947.1</ele>
        <time>2021-08-12T08:29:56Z</time>
      </trkpt>
      <trkpt lat="45.50859" lon="6.7368">
        <ele>1947.1</ele>
        <time>2021-08-12T08:29:57Z</time>
      </trkpt>
      <trkpt lat="45.50859" lon="6.7368">
        <ele>1947.1</ele>
        <time>2021-08-12T08:29:58Z</time>
      </trkpt>
      <trkpt lat="45.50859" lon="6.7368">
        <ele>1947.2</ele>
        <time>2021-08-12T08:29:59Z</time>
      </trkpt>
      <trkpt lat="45.50859" lon="6.7368">
        <ele>1947.2</ele>
        <time>2021-08-12T08:30:00Z</time>
      </trkpt>
      <trkpt lat="45.50859" lon="6.7368">
        <ele>1947.2</ele>
        <time>2021-08-12T08:30:01Z</time>
      </trkpt>
      <trkpt lat="45.50859" lon="6.7368">
        <ele>1947.2</ele>
        <time>2021-08-12T08:30:02Z</time>
      </trkpt>
      <trkpt lat="45.50859" lon="6.7368">
        <ele>1947.2</ele>
        <time>2021-08-12T08:30:03Z</time>
      </trkpt>
      <trkpt lat="45.50859" lon="6.7368">
        <ele>1947.2</ele>
        <time>2021-08-12T08:30:04Z</time>
      </trkpt>
      <trkpt lat="45.50859" lon="6.7368">
        <ele>1947.2</ele>
        <time>2021-08-12T08:30:05Z</time>
      </trkpt>
      <trkpt lat="45.50859" lon="6.7368">
        <ele>1947.2</ele>
        <time>2021-08-12T08:30:06Z</time>
      </trkpt>
      <trkpt lat="45.50859" lon="6.7368">
        <ele>1947.2</ele>
        <time>2021-08-12T08:30:07Z</time>
      </trkpt>
      <trkpt lat="45.50858" lon="6.7368">
        <ele>1947.3</ele>
        <time>2021-08-12T08:30:08Z</time>
      </trkpt>
      <trkpt lat="45.50858" lon="6.7368">
        <ele>1947.3</ele>
        <time>2021-08-12T08:30:09Z</time>
      </trkpt>
      <trkpt lat="45.50858" lon="6.7368">
        <ele>1947.3</ele>
        <time>2021-08-12T08:30:10Z</time>
      </trkpt>
      <trkpt lat="45.50858" lon="6.7368">
        <ele>1947.4</ele>
        <time>2021-08-12T08:30:11Z</time>
      </trkpt>
      <trkpt lat="45.50858" lon="6.7368">
        <ele>1947.4</ele>
        <time>2021-08-12T08:30:12Z</time>
      </trkpt>
      <trkpt lat="45.50857" lon="6.7368">
        <ele>1947.5</ele>
        <time>2021-08-12T08:30:13Z</time>
      </trkpt>
      <trkpt lat="45.50857" lon="6.7368">
        <ele>1947.6</ele>
        <time>2021-08-12T08:30:14Z</time>
      </trkpt>
      <trkpt lat="45.50857" lon="6.7368">
        <ele>1947.6</ele>
        <time>2021-08-12T08:30:15Z</time>
      </trkpt>
      <trkpt lat="45.50856" lon="6.73679">
        <ele>1947.7</ele>
        <time>2021-08-12T08:30:16Z</time>
      </trkpt>
      <trkpt lat="45.50856" lon="6.73679">
        <ele>1947.8</ele>
        <time>2021-08-12T08:30:17Z</time>
      </trkpt>
      <trkpt lat="45.50855" lon="6.73679">
        <ele>1947.9</ele>
        <time>2021-08-12T08:30:18Z</time>
      </trkpt>
      <trkpt lat="45.50855" lon="6.73679">
        <ele>1948</ele>
        <time>2021-08-12T08:30:19Z</time>
      </trkpt>
      <trkpt lat="45.50854" lon="6.73679">
        <ele>1948.1</ele>
        <time>2021-08-12T08:30:20Z</time>
      </trkpt>
      <trkpt lat="45.50854" lon="6.73679">
        <ele>1948.2</ele>
        <time>2021-08-12T08:30:21Z</time>
      </trkpt>
      <trkpt lat="45.50853" lon="6.73679">
        <ele>1948.4</ele>
        <time>2021-08-12T08:30:22Z</time>
      </trkpt>
      <trkpt lat="45.50852" lon="6.73679">
        <ele>1948.5</ele>
        <time>2021-08-12T08:30:23Z</time>
      </trkpt>
      <trkpt lat="45.50852" lon="6.73679">
        <ele>1948.7</ele>
        <time>2021-08-12T08:30:24Z</time>
      </trkpt>
      <trkpt lat="45.50851" lon="6.73679">
        <ele>1948.8</ele>
        <time>2021-08-12T08:30:25Z</time>
      </trkpt>
      <trkpt lat="45.50851" lon="6.73679">
        <ele>1948.9</ele>
        <time>2021-08-12T08:30:26Z</time>
      </trkpt>
      <trkpt lat="45.5085" lon="6.73679">
        <ele>1949</ele>
        <time>2021-08-12T08:30:27Z</time>
      </trkpt>
      <trkpt lat="45.5085" lon="6.73679">
        <ele>1949</ele>
        <time>2021-08-12T08:30:28Z</time>
      </trkpt>
      <trkpt lat="45.5085" lon="6.73679">
        <ele>1949.1</ele>
        <time>2021-08-12T08:30:29Z</time>
      </trkpt>
      <trkpt lat="45.5085" lon="6.73679">
        <ele>1949.1</ele>
        <time>2021-08-12T08:30:30Z</time>
      </trkpt>
      <trkpt lat="45.5085" lon="6.73679">
        <ele>1949.1</ele>
        <time>2021-08-12T08:30:31Z</time>
      </trkpt>
      <trkpt lat="45.5085" lon="6.73679">
        <ele>1949.1</ele>
        <time>2021-08-12T08:30:32Z</time>
      </trkpt>
      <trkpt lat="45.5085" lon="6.73679">
        <ele>1949.1</ele>
        <time>2021-08-12T08:30:33Z</time>
      </trkpt>
      <trkpt lat="45.5085" lon="6.73679">
        <ele>1949.1</ele>
        <time>2021-08-12T08:30:34Z</time>
      </trkpt>
      <trkpt lat="45.5085" lon="6.73679">
        <ele>1949.1</ele>
        <time>2021-08-12T08:30:35Z</time>
      </trkpt>
      <trkpt lat="45.5085" lon="6.73679">
        <ele>1949.1</ele>
        <time>2021-08-12T08:30:36Z</time>
      </trkpt>
      <trkpt lat="45.5085" lon="6.73679">
        <ele>1949.1</ele>
        <time>2021-08-12T08:30:37Z</time>
      </trkpt>
      <trkpt lat="45.5085" lon="6.73679">
        <ele>1949.1</ele>
        <time>2021-08-12T08:30:38Z</time>
      </trkpt>
      <trkpt lat="45.5085" lon="6.73679">
        <ele>1949.1</ele>
        <time>2021-08-12T08:30:39Z</time>
      </trkpt>
      <trkpt lat="45.5085" lon="6.73679">
        <ele>1949.1</ele>
        <time>2021-08-12T08:30:40Z</time>
      </trkpt>
      <trkpt lat="45.5085" lon="6.73679">
        <ele>1949.1</ele>
        <time>2021-08-12T08:30:41Z</time>
      </trkpt>
      <trkpt lat="45.5085" lon="6.73679">
        <ele>1949.1</ele>
        <time>2021-08-12T08:30:42Z</time>
      </trkpt>
      <trkpt lat="45.5085" lon="6.73679">
        <ele>1949.1</ele>
        <time>2021-08-12T08:30:43Z</time>
      </trkpt>
      <trkpt lat="45.5085" lon="6.73679">
        <ele>1949.1</ele>
        <time>2021-08-12T08:30:44Z</time>
      </trkpt>
      <trkpt lat="45.5085" lon="6.73679">
        <ele>1949.1</ele>
        <time>2021-08-12T08:30:45Z</time>
      </trkpt>
      <trkpt lat="45.5085" lon="6.73679">
        <ele>1949.1</ele>
        <time>2021-08-12T08:30:46Z</time>
      </trkpt>
      <trkpt lat="45.5085" lon="6.73679">
        <ele>1949.1</ele>
        <time>2021-08-12T08:30:47Z</time>
      </trkpt>
      <trkpt lat="45.5085" lon="6.73679">
        <ele>1949.1</ele>
        <time>2021-08-12T08:30:48Z</time>
      </trkpt>
      <trkpt lat="45.5085" lon="6.73679">
        <ele>1949.1</ele>
        <time>2021-08-12T08:30:49Z</time>
      </trkpt>
      <trkpt lat="45.5085" lon="6.73679">
        <ele>1949.1</ele>
        <time>2021-08-12T08:30:50Z</time>
      </trkpt>
      <trkpt lat="45.5085" lon="6.73679">
        <ele>1949.1</ele>
        <time>2021-08-12T08:30:51Z</time>
      </trkpt>
      <trkpt lat="45.5085" lon="6.73679">
        <ele>1949.1</ele>
        <time>2021-08-12T08:30:52Z</time>
      </trkpt>
      <trkpt lat="45.5085" lon="6.73679">
        <ele>1949.1</ele>
        <time>2021-08-12T08:30:53Z</time>
      </trkpt>
      <trkpt lat="45.5085" lon="6.73679">
        <ele>1949.1</ele>
        <time>2021-08-12T08:30:54Z</time>
      </trkpt>
      <trkpt lat="45.5085" lon="6.7368">
        <ele>1949.2</ele>
        <time>2021-08-12T08:30:55Z</time>
      </trkpt>
      <trkpt lat="45.5085" lon="6.7368">
        <ele>1949.2</ele>
        <time>2021-08-12T08:30:56Z</time>
      </trkpt>
      <trkpt lat="45.5085" lon="6.7368">
        <ele>1949.2</ele>
        <time>2021-08-12T08:30:57Z</time>
      </trkpt>
      <trkpt lat="45.50849" lon="6.7368">
        <ele>1949.2</ele>
        <time>2021-08-12T08:30:58Z</time>
      </trkpt>
      <trkpt lat="45.50849" lon="6.7368">
        <ele>1949.2</ele>
        <time>2021-08-12T08:30:59Z</time>
      </trkpt>
      <trkpt lat="45.50849" lon="6.7368">
        <ele>1949.2</ele>
        <time>2021-08-12T08:31:00Z</time>
      </trkpt>
      <trkpt lat="45.50849" lon="6.7368">
        <ele>1949.2</ele>
        <time>2021-08-12T08:31:01Z</time>
      </trkpt>
      <trkpt lat="45.50849" lon="6.7368">
        <ele>1949.2</ele>
        <time>2021-08-12T08:31:02Z</time>
      </trkpt>
      <trkpt lat="45.50849" lon="6.7368">
        <ele>1949.2</ele>
        <time>2021-08-12T08:31:03Z</time>
      </trkpt>
      <trkpt lat="45.50849" lon="6.7368">
        <ele>1949.2</ele>
        <time>2021-08-12T08:31:04Z</time>
      </trkpt>
      <trkpt lat="45.50849" lon="6.7368">
        <ele>1949.3</ele>
        <time>2021-08-12T08:31:05Z</time>
      </trkpt>
      <trkpt lat="45.50849" lon="6.7368">
        <ele>1949.3</ele>
        <time>2021-08-12T08:31:06Z</time>
      </trkpt>
      <trkpt lat="45.50849" lon="6.7368">
        <ele>1949.3</ele>
        <time>2021-08-12T08:31:07Z</time>
      </trkpt>
      <trkpt lat="45.50848" lon="6.7368">
        <ele>1949.4</ele>
        <time>2021-08-12T08:31:08Z</time>
      </trkpt>
      <trkpt lat="45.50848" lon="6.7368">
        <ele>1949.4</ele>
        <time>2021-08-12T08:31:09Z</time>
      </trkpt>
      <trkpt lat="45.50848" lon="6.7368">
        <ele>1949.5</ele>
        <time>2021-08-12T08:31:10Z</time>
      </trkpt>
      <trkpt lat="45.50848" lon="6.7368">
        <ele>1949.6</ele>
        <time>2021-08-12T08:31:11Z</time>
      </trkpt>
      <trkpt lat="45.50847" lon="6.7368">
        <ele>1949.7</ele>
        <time>2021-08-12T08:31:12Z</time>
      </trkpt>
      <trkpt lat="45.50847" lon="6.7368">
        <ele>1949.8</ele>
        <time>2021-08-12T08:31:13Z</time>
      </trkpt>
      <trkpt lat="45.50846" lon="6.7368">
        <ele>1949.9</ele>
        <time>2021-08-12T08:31:14Z</time>
      </trkpt>
      <trkpt lat="45.50845" lon="6.73681">
        <ele>1950</ele>
        <time>2021-08-12T08:31:15Z</time>
      </trkpt>
      <trkpt lat="45.50845" lon="6.73681">
        <ele>1950.2</ele>
        <time>2021-08-12T08:31:16Z</time>
      </trkpt>
      <trkpt lat="45.50844" lon="6.73681">
        <ele>1950.4</ele>
        <time>2021-08-12T08:31:17Z</time>
      </trkpt>
      <trkpt lat="45.50843" lon="6.73681">
        <ele>1950.5</ele>
        <time>2021-08-12T08:31:18Z</time>
      </trkpt>
      <trkpt lat="45.50842" lon="6.73681">
        <ele>1950.7</ele>
        <time>2021-08-12T08:31:19Z</time>
      </trkpt>
      <trkpt lat="45.50841" lon="6.73681">
        <ele>1950.9</ele>
        <time>2021-08-12T08:31:20Z</time>
      </trkpt>
      <trkpt lat="45.5084" lon="6.73681">
        <ele>1951.1</ele>
        <time>2021-08-12T08:31:21Z</time>
      </trkpt>
      <trkpt lat="45.50839" lon="6.73681">
        <ele>1951.3</ele>
        <time>2021-08-12T08:31:22Z</time>
      </trkpt>
      <trkpt lat="45.50838" lon="6.73682">
        <ele>1951.5</ele>
        <time>2021-08-12T08:31:23Z</time>
      </trkpt>
      <trkpt lat="45.50838" lon="6.73682">
        <ele>1951.7</ele>
        <time>2021-08-12T08:31:24Z</time>
      </trkpt>
      <trkpt lat="45.50837" lon="6.73682">
        <ele>1951.8</ele>
        <time>2021-08-12T08:31:25Z</time>
      </trkpt>
      <trkpt lat="45.50837" lon="6.73682">
        <ele>1951.9</ele>
        <time>2021-08-12T08:31:26Z</time>
      </trkpt>
      <trkpt lat="45.50836" lon="6.73682">
        <ele>1952</ele>
        <time>2021-08-12T08:31:27Z</time>
      </trkpt>
      <trkpt lat="45.50836" lon="6.73682">
        <ele>1952</ele>
        <time>2021-08-12T08:31:28Z</time>
      </trkpt>
      <trkpt lat="45.50836" lon="6.73682">
        <ele>1952</ele>
        <time>2021-08-12T08:31:29Z</time>
      </trkpt>
      <trkpt lat="45.50836" lon="6.73682">
        <ele>1952</ele>
        <time>2021-08-12T08:31:30Z</time>
      </trkpt>
      <trkpt lat="45.50836" lon="6.73682">
        <ele>1952</ele>
        <time>2021-08-12T08:31:31Z</time>
      </trkpt>
      <trkpt lat="45.50836" lon="6.73682">
        <ele>1952.1</ele>
        <time>2021-08-12T08:31:32Z</time>
      </trkpt>
      <trkpt lat="45.50836" lon="6.73682">
        <ele>1952.1</ele>
        <time>2021-08-12T08:31:33Z</time>
      </trkpt>
      <trkpt lat="45.50835" lon="6.73682">
        <ele>1952.2</ele>
        <time>2021-08-12T08:31:34Z</time>
      </trkpt>
      <trkpt lat="45.50835" lon="6.73682">
        <ele>1952.3</ele>
        <time>2021-08-12T08:31:35Z</time>
      </trkpt>
      <trkpt lat="45.50834" lon="6.73682">
        <ele>1952.6</ele>
        <time>2021-08-12T08:31:36Z</time>
      </trkpt>
      <trkpt lat="45.50832" lon="6.73682">
        <ele>1952.8</ele>
        <time>2021-08-12T08:31:37Z</time>
      </trkpt>
      <trkpt lat="45.50831" lon="6.73683">
        <ele>1953.1</ele>
        <time>2021-08-12T08:31:38Z</time>
      </trkpt>
      <trkpt lat="45.5083" lon="6.73683">
        <ele>1953.3</ele>
        <time>2021-08-12T08:31:39Z</time>
      </trkpt>
      <trkpt lat="45.50829" lon="6.73683">
        <ele>1953.6</ele>
        <time>2021-08-12T08:31:40Z</time>
      </trkpt>
      <trkpt lat="45.50828" lon="6.73683">
        <ele>1953.8</ele>
        <time>2021-08-12T08:31:41Z</time>
      </trkpt>
      <trkpt lat="45.50827" lon="6.73684">
        <ele>1954</ele>
        <time>2021-08-12T08:31:42Z</time>
      </trkpt>
      <trkpt lat="45.50826" lon="6.73684">
        <ele>1954.1</ele>
        <time>2021-08-12T08:31:43Z</time>
      </trkpt>
      <trkpt lat="45.50826" lon="6.73684">
        <ele>1954.2</ele>
        <time>2021-08-12T08:31:44Z</time>
      </trkpt>
      <trkpt lat="45.50825" lon="6.73684">
        <ele>1954.3</ele>
        <time>2021-08-12T08:31:45Z</time>
      </trkpt>
      <trkpt lat="45.50825" lon="6.73684">
        <ele>1954.4</ele>
        <time>2021-08-12T08:31:46Z</time>
      </trkpt>
      <trkpt lat="45.50825" lon="6.73684">
        <ele>1954.4</ele>
        <time>2021-08-12T08:31:47Z</time>
      </trkpt>
      <trkpt lat="45.50825" lon="6.73684">
        <ele>1954.5</ele>
        <time>2021-08-12T08:31:48Z</time>
      </trkpt>
      <trkpt lat="45.50825" lon="6.73684">
        <ele>1954.5</ele>
        <time>2021-08-12T08:31:49Z</time>
      </trkpt>
      <trkpt lat="45.50824" lon="6.73685">
        <ele>1954.5</ele>
        <time>2021-08-12T08:31:50Z</time>
      </trkpt>
      <trkpt lat="45.50824" lon="6.73685">
        <ele>1954.5</ele>
        <time>2021-08-12T08:31:51Z</time>
      </trkpt>
      <trkpt lat="45.50824" lon="6.73685">
        <ele>1954.5</ele>
        <time>2021-08-12T08:31:52Z</time>
      </trkpt>
      <trkpt lat="45.50824" lon="6.73685">
        <ele>1954.5</ele>
        <time>2021-08-12T08:31:53Z</time>
      </trkpt>
      <trkpt lat="45.50824" lon="6.73685">
        <ele>1954.5</ele>
        <time>2021-08-12T08:31:54Z</time>
      </trkpt>
      <trkpt lat="45.50824" lon="6.73685">
        <ele>1954.5</ele>
        <time>2021-08-12T08:31:55Z</time>
      </trkpt>
      <trkpt lat="45.50824" lon="6.73685">
        <ele>1954.5</ele>
        <time>2021-08-12T08:31:56Z</time>
      </trkpt>
      <trkpt lat="45.50824" lon="6.73685">
        <ele>1954.6</ele>
        <time>2021-08-12T08:31:57Z</time>
      </trkpt>
      <trkpt lat="45.50824" lon="6.73685">
        <ele>1954.6</ele>
        <time>2021-08-12T08:31:58Z</time>
      </trkpt>
      <trkpt lat="45.50824" lon="6.73685">
        <ele>1954.6</ele>
        <time>2021-08-12T08:31:59Z</time>
      </trkpt>
      <trkpt lat="45.50824" lon="6.73685">
        <ele>1954.6</ele>
        <time>2021-08-12T08:32:00Z</time>
      </trkpt>
      <trkpt lat="45.50824" lon="6.73685">
        <ele>1954.6</ele>
        <time>2021-08-12T08:32:01Z</time>
      </trkpt>
      <trkpt lat="45.50824" lon="6.73685">
        <ele>1954.7</ele>
        <time>2021-08-12T08:32:02Z</time>
      </trkpt>
      <trkpt lat="45.50824" lon="6.73685">
        <ele>1954.7</ele>
        <time>2021-08-12T08:32:03Z</time>
      </trkpt>
      <trkpt lat="45.50823" lon="6.73685">
        <ele>1954.8</ele>
        <time>2021-08-12T08:32:04Z</time>
      </trkpt>
      <trkpt lat="45.50823" lon="6.73685">
        <ele>1954.9</ele>
        <time>2021-08-12T08:32:05Z</time>
      </trkpt>
      <trkpt lat="45.50822" lon="6.73685">
        <ele>1955</ele>
        <time>2021-08-12T08:32:06Z</time>
      </trkpt>
      <trkpt lat="45.50822" lon="6.73685">
        <ele>1955.1</ele>
        <time>2021-08-12T08:32:07Z</time>
      </trkpt>
      <trkpt lat="45.50821" lon="6.73685">
        <ele>1955.2</ele>
        <time>2021-08-12T08:32:08Z</time>
      </trkpt>
      <trkpt lat="45.50821" lon="6.73685">
        <ele>1955.4</ele>
        <time>2021-08-12T08:32:09Z</time>
      </trkpt>
      <trkpt lat="45.5082" lon="6.73685">
        <ele>1955.5</ele>
        <time>2021-08-12T08:32:10Z</time>
      </trkpt>
      <trkpt lat="45.50819" lon="6.73684">
        <ele>1955.6</ele>
        <time>2021-08-12T08:32:11Z</time>
      </trkpt>
      <trkpt lat="45.50819" lon="6.73684">
        <ele>1955.7</ele>
        <time>2021-08-12T08:32:12Z</time>
      </trkpt>
      <trkpt lat="45.50818" lon="6.73684">
        <ele>1955.8</ele>
        <time>2021-08-12T08:32:13Z</time>
      </trkpt>
      <trkpt lat="45.50818" lon="6.73684">
        <ele>1955.9</ele>
        <time>2021-08-12T08:32:14Z</time>
      </trkpt>
      <trkpt lat="45.50818" lon="6.73684">
        <ele>1956</ele>
        <time>2021-08-12T08:32:15Z</time>
      </trkpt>
      <trkpt lat="45.50818" lon="6.73684">
        <ele>1956</ele>
        <time>2021-08-12T08:32:16Z</time>
      </trkpt>
      <trkpt lat="45.50817" lon="6.73685">
        <ele>1956.1</ele>
        <time>2021-08-12T08:32:17Z</time>
      </trkpt>
      <trkpt lat="45.50817" lon="6.73685">
        <ele>1956.1</ele>
        <time>2021-08-12T08:32:18Z</time>
      </trkpt>
      <trkpt lat="45.50817" lon="6.73685">
        <ele>1956.1</ele>
        <time>2021-08-12T08:32:19Z</time>
      </trkpt>
      <trkpt lat="45.50817" lon="6.73685">
        <ele>1956.2</ele>
        <time>2021-08-12T08:32:20Z</time>
      </trkpt>
      <trkpt lat="45.50817" lon="6.73685">
        <ele>1956.2</ele>
        <time>2021-08-12T08:32:21Z</time>
      </trkpt>
      <trkpt lat="45.50816" lon="6.73684">
        <ele>1956.3</ele>
        <time>2021-08-12T08:32:22Z</time>
      </trkpt>
      <trkpt lat="45.50816" lon="6.73684">
        <ele>1956.4</ele>
        <time>2021-08-12T08:32:23Z</time>
      </trkpt>
      <trkpt lat="45.50816" lon="6.73683">
        <ele>1956.5</ele>
        <time>2021-08-12T08:32:24Z</time>
      </trkpt>
      <trkpt lat="45.50815" lon="6.73683">
        <ele>1956.6</ele>
        <time>2021-08-12T08:32:25Z</time>
      </trkpt>
      <trkpt lat="45.50815" lon="6.73683">
        <ele>1956.7</ele>
        <time>2021-08-12T08:32:26Z</time>
      </trkpt>
      <trkpt lat="45.50814" lon="6.73682">
        <ele>1956.8</ele>
        <time>2021-08-12T08:32:27Z</time>
      </trkpt>
      <trkpt lat="45.50814" lon="6.73682">
        <ele>1956.9</ele>
        <time>2021-08-12T08:32:28Z</time>
      </trkpt>
      <trkpt lat="45.50814" lon="6.73682">
        <ele>1957</ele>
        <time>2021-08-12T08:32:29Z</time>
      </trkpt>
      <trkpt lat="45.50813" lon="6.73682">
        <ele>1957.1</ele>
        <time>2021-08-12T08:32:30Z</time>
      </trkpt>
      <trkpt lat="45.50813" lon="6.73682">
        <ele>1957.2</ele>
        <time>2021-08-12T08:32:31Z</time>
      </trkpt>
      <trkpt lat="45.50813" lon="6.73682">
        <ele>1957.2</ele>
        <time>2021-08-12T08:32:32Z</time>
      </trkpt>
      <trkpt lat="45.50812" lon="6.73683">
        <ele>1957.3</ele>
        <time>2021-08-12T08:32:33Z</time>
      </trkpt>
      <trkpt lat="45.50812" lon="6.73683">
        <ele>1957.4</ele>
        <time>2021-08-12T08:32:34Z</time>
      </trkpt>
      <trkpt lat="45.50812" lon="6.73684">
        <ele>1957.5</ele>
        <time>2021-08-12T08:32:35Z</time>
      </trkpt>
      <trkpt lat="45.50811" lon="6.73684">
        <ele>1957.6</ele>
        <time>2021-08-12T08:32:36Z</time>
      </trkpt>
      <trkpt lat="45.50811" lon="6.73685">
        <ele>1957.7</ele>
        <time>2021-08-12T08:32:37Z</time>
      </trkpt>
      <trkpt lat="45.50811" lon="6.73685">
        <ele>1957.8</ele>
        <time>2021-08-12T08:32:38Z</time>
      </trkpt>
      <trkpt lat="45.50811" lon="6.73686">
        <ele>1957.9</ele>
        <time>2021-08-12T08:32:39Z</time>
      </trkpt>
      <trkpt lat="45.5081" lon="6.73686">
        <ele>1958</ele>
        <time>2021-08-12T08:32:40Z</time>
      </trkpt>
      <trkpt lat="45.5081" lon="6.73687">
        <ele>1958</ele>
        <time>2021-08-12T08:32:41Z</time>
      </trkpt>
      <trkpt lat="45.5081" lon="6.73687">
        <ele>1958.1</ele>
        <time>2021-08-12T08:32:42Z</time>
      </trkpt>
      <trkpt lat="45.50809" lon="6.73688">
        <ele>1958.2</ele>
        <time>2021-08-12T08:32:43Z</time>
      </trkpt>
      <trkpt lat="45.50809" lon="6.73688">
        <ele>1958.3</ele>
        <time>2021-08-12T08:32:44Z</time>
      </trkpt>
      <trkpt lat="45.50809" lon="6.73689">
        <ele>1958.4</ele>
        <time>2021-08-12T08:32:45Z</time>
      </trkpt>
      <trkpt lat="45.50809" lon="6.73689">
        <ele>1958.5</ele>
        <time>2021-08-12T08:32:46Z</time>
      </trkpt>
      <trkpt lat="45.50808" lon="6.73689">
        <ele>1958.6</ele>
        <time>2021-08-12T08:32:47Z</time>
      </trkpt>
      <trkpt lat="45.50808" lon="6.7369">
        <ele>1958.7</ele>
        <time>2021-08-12T08:32:48Z</time>
      </trkpt>
      <trkpt lat="45.50808" lon="6.7369">
        <ele>1958.8</ele>
        <time>2021-08-12T08:32:49Z</time>
      </trkpt>
      <trkpt lat="45.50807" lon="6.73691">
        <ele>1958.9</ele>
        <time>2021-08-12T08:32:50Z</time>
      </trkpt>
      <trkpt lat="45.50807" lon="6.73691">
        <ele>1958.9</ele>
        <time>2021-08-12T08:32:51Z</time>
      </trkpt>
      <trkpt lat="45.50807" lon="6.73692">
        <ele>1959</ele>
        <time>2021-08-12T08:32:52Z</time>
      </trkpt>
      <trkpt lat="45.50807" lon="6.73692">
        <ele>1959.1</ele>
        <time>2021-08-12T08:32:53Z</time>
      </trkpt>
      <trkpt lat="45.50806" lon="6.73692">
        <ele>1959.2</ele>
        <time>2021-08-12T08:32:54Z</time>
      </trkpt>
      <trkpt lat="45.50806" lon="6.73693">
        <ele>1959.3</ele>
        <time>2021-08-12T08:32:55Z</time>
      </trkpt>
      <trkpt lat="45.50806" lon="6.73693">
        <ele>1959.3</ele>
        <time>2021-08-12T08:32:56Z</time>
      </trkpt>
      <trkpt lat="45.50806" lon="6.73693">
        <ele>1959.4</ele>
        <time>2021-08-12T08:32:57Z</time>
      </trkpt>
      <trkpt lat="45.50805" lon="6.73694">
        <ele>1959.5</ele>
        <time>2021-08-12T08:32:58Z</time>
      </trkpt>
      <trkpt lat="45.50805" lon="6.73694">
        <ele>1959.6</ele>
        <time>2021-08-12T08:32:59Z</time>
      </trkpt>
      <trkpt lat="45.50805" lon="6.73695">
        <ele>1959.7</ele>
        <time>2021-08-12T08:33:00Z</time>
      </trkpt>
      <trkpt lat="45.50804" lon="6.73695">
        <ele>1959.7</ele>
        <time>2021-08-12T08:33:01Z</time>
      </trkpt>
      <trkpt lat="45.50804" lon="6.73695">
        <ele>1959.8</ele>
        <time>2021-08-12T08:33:02Z</time>
      </trkpt>
      <trkpt lat="45.50804" lon="6.73696">
        <ele>1959.9</ele>
        <time>2021-08-12T08:33:03Z</time>
      </trkpt>
      <trkpt lat="45.50804" lon="6.73696">
        <ele>1959.9</ele>
        <time>2021-08-12T08:33:04Z</time>
      </trkpt>
      <trkpt lat="45.50804" lon="6.73696">
        <ele>1960</ele>
        <time>2021-08-12T08:33:05Z</time>
      </trkpt>
      <trkpt lat="45.50803" lon="6.73697">
        <ele>1960.1</ele>
        <time>2021-08-12T08:33:06Z</time>
      </trkpt>
      <trkpt lat="45.50803" lon="6.73697">
        <ele>1960.1</ele>
        <time>2021-08-12T08:33:07Z</time>
      </trkpt>
      <trkpt lat="45.50803" lon="6.73697">
        <ele>1960.2</ele>
        <time>2021-08-12T08:33:08Z</time>
      </trkpt>
      <trkpt lat="45.50803" lon="6.73697">
        <ele>1960.3</ele>
        <time>2021-08-12T08:33:09Z</time>
      </trkpt>
      <trkpt lat="45.50803" lon="6.73698">
        <ele>1960.3</ele>
        <time>2021-08-12T08:33:10Z</time>
      </trkpt>
      <trkpt lat="45.50802" lon="6.73698">
        <ele>1960.4</ele>
        <time>2021-08-12T08:33:11Z</time>
      </trkpt>
      <trkpt lat="45.50802" lon="6.73698">
        <ele>1960.4</ele>
        <time>2021-08-12T08:33:12Z</time>
      </trkpt>
      <trkpt lat="45.50802" lon="6.73698">
        <ele>1960.4</ele>
        <time>2021-08-12T08:33:13Z</time>
      </trkpt>
      <trkpt lat="45.50802" lon="6.73698">
        <ele>1960.5</ele>
        <time>2021-08-12T08:33:14Z</time>
      </trkpt>
      <trkpt lat="45.50802" lon="6.73699">
        <ele>1960.5</ele>
        <time>2021-08-12T08:33:15Z</time>
      </trkpt>
      <trkpt lat="45.50802" lon="6.73699">
        <ele>1960.5</ele>
        <time>2021-08-12T08:33:16Z</time>
      </trkpt>
      <trkpt lat="45.50802" lon="6.73699">
        <ele>1960.5</ele>
        <time>2021-08-12T08:33:17Z</time>
      </trkpt>
      <trkpt lat="45.50802" lon="6.73699">
        <ele>1960.5</ele>
        <time>2021-08-12T08:33:18Z</time>
      </trkpt>
      <trkpt lat="45.50802" lon="6.73699">
        <ele>1960.5</ele>
        <time>2021-08-12T08:33:19Z</time>
      </trkpt>
      <trkpt lat="45.50802" lon="6.73699">
        <ele>1960.5</ele>
        <time>2021-08-12T08:33:20Z</time>
      </trkpt>
      <trkpt lat="45.50802" lon="6.73699">
        <ele>1960.6</ele>
        <time>2021-08-12T08:33:21Z</time>
      </trkpt>
      <trkpt lat="45.50802" lon="6.73699">
        <ele>1960.6</ele>
        <time>2021-08-12T08:33:22Z</time>
      </trkpt>
      <trkpt lat="45.50801" lon="6.73699">
        <ele>1960.7</ele>
        <time>2021-08-12T08:33:23Z</time>
      </trkpt>
      <trkpt lat="45.50801" lon="6.73699">
        <ele>1960.8</ele>
        <time>2021-08-12T08:33:24Z</time>
      </trkpt>
      <trkpt lat="45.50801" lon="6.73699">
        <ele>1960.9</ele>
        <time>2021-08-12T08:33:25Z</time>
      </trkpt>
      <trkpt lat="45.508" lon="6.73699">
        <ele>1961</ele>
        <time>2021-08-12T08:33:26Z</time>
      </trkpt>
      <trkpt lat="45.508" lon="6.73699">
        <ele>1961.1</ele>
        <time>2021-08-12T08:33:27Z</time>
      </trkpt>
      <trkpt lat="45.50799" lon="6.73699">
        <ele>1961.1</ele>
        <time>2021-08-12T08:33:28Z</time>
      </trkpt>
      <trkpt lat="45.50799" lon="6.73699">
        <ele>1961.2</ele>
        <time>2021-08-12T08:33:29Z</time>
      </trkpt>
      <trkpt lat="45.50799" lon="6.73698">
        <ele>1961.3</ele>
        <time>2021-08-12T08:33:30Z</time>
      </trkpt>
      <trkpt lat="45.50798" lon="6.73698">
        <ele>1961.4</ele>
        <time>2021-08-12T08:33:31Z</time>
      </trkpt>
      <trkpt lat="45.50798" lon="6.73697">
        <ele>1961.5</ele>
        <time>2021-08-12T08:33:32Z</time>
      </trkpt>
      <trkpt lat="45.50798" lon="6.73696">
        <ele>1961.6</ele>
        <time>2021-08-12T08:33:33Z</time>
      </trkpt>
      <trkpt lat="45.50798" lon="6.73696">
        <ele>1961.7</ele>
        <time>2021-08-12T08:33:34Z</time>
      </trkpt>
      <trkpt lat="45.50798" lon="6.73695">
        <ele>1961.8</ele>
        <time>2021-08-12T08:33:35Z</time>
      </trkpt>
      <trkpt lat="45.50798" lon="6.73695">
        <ele>1961.8</ele>
        <time>2021-08-12T08:33:36Z</time>
      </trkpt>
      <trkpt lat="45.50798" lon="6.73694">
        <ele>1961.9</ele>
        <time>2021-08-12T08:33:37Z</time>
      </trkpt>
      <trkpt lat="45.50798" lon="6.73694">
        <ele>1962</ele>
        <time>2021-08-12T08:33:38Z</time>
      </trkpt>
      <trkpt lat="45.50798" lon="6.73694">
        <ele>1962</ele>
        <time>2021-08-12T08:33:39Z</time>
      </trkpt>
      <trkpt lat="45.50798" lon="6.73693">
        <ele>1962</ele>
        <time>2021-08-12T08:33:40Z</time>
      </trkpt>
      <trkpt lat="45.50798" lon="6.73693">
        <ele>1962.1</ele>
        <time>2021-08-12T08:33:41Z</time>
      </trkpt>
      <trkpt lat="45.50798" lon="6.73693">
        <ele>1962.1</ele>
        <time>2021-08-12T08:33:42Z</time>
      </trkpt>
      <trkpt lat="45.50798" lon="6.73693">
        <ele>1962.1</ele>
        <time>2021-08-12T08:33:43Z</time>
      </trkpt>
      <trkpt lat="45.50798" lon="6.73693">
        <ele>1962.1</ele>
        <time>2021-08-12T08:33:44Z</time>
      </trkpt>
      <trkpt lat="45.50798" lon="6.73693">
        <ele>1962.1</ele>
        <time>2021-08-12T08:33:45Z</time>
      </trkpt>
      <trkpt lat="45.50798" lon="6.73693">
        <ele>1962.1</ele>
        <time>2021-08-12T08:33:46Z</time>
      </trkpt>
      <trkpt lat="45.50798" lon="6.73693">
        <ele>1962.1</ele>
        <time>2021-08-12T08:33:47Z</time>
      </trkpt>
      <trkpt lat="45.50798" lon="6.73693">
        <ele>1962.2</ele>
        <time>2021-08-12T08:33:48Z</time>
      </trkpt>
      <trkpt lat="45.50798" lon="6.73693">
        <ele>1962.2</ele>
        <time>2021-08-12T08:33:49Z</time>
      </trkpt>
      <trkpt lat="45.50798" lon="6.73693">
        <ele>1962.2</ele>
        <time>2021-08-12T08:33:50Z</time>
      </trkpt>
      <trkpt lat="45.50798" lon="6.73693">
        <ele>1962.2</ele>
        <time>2021-08-12T08:33:51Z</time>
      </trkpt>
      <trkpt lat="45.50798" lon="6.73693">
        <ele>1962.2</ele>
        <time>2021-08-12T08:33:52Z</time>
      </trkpt>
      <trkpt lat="45.50798" lon="6.73693">
        <ele>1962.2</ele>
        <time>2021-08-12T08:33:53Z</time>
      </trkpt>
      <trkpt lat="45.50798" lon="6.73693">
        <ele>1962.2</ele>
        <time>2021-08-12T08:33:54Z</time>
      </trkpt>
      <trkpt lat="45.50798" lon="6.73693">
        <ele>1962.3</ele>
        <time>2021-08-12T08:33:55Z</time>
      </trkpt>
      <trkpt lat="45.50798" lon="6.73693">
        <ele>1962.3</ele>
        <time>2021-08-12T08:33:56Z</time>
      </trkpt>
      <trkpt lat="45.50798" lon="6.73693">
        <ele>1962.4</ele>
        <time>2021-08-12T08:33:57Z</time>
      </trkpt>
      <trkpt lat="45.50798" lon="6.73692">
        <ele>1962.4</ele>
        <time>2021-08-12T08:33:58Z</time>
      </trkpt>
      <trkpt lat="45.50797" lon="6.73692">
        <ele>1962.5</ele>
        <time>2021-08-12T08:33:59Z</time>
      </trkpt>
      <trkpt lat="45.50797" lon="6.73691">
        <ele>1962.6</ele>
        <time>2021-08-12T08:34:00Z</time>
      </trkpt>
      <trkpt lat="45.50797" lon="6.73691">
        <ele>1962.7</ele>
        <time>2021-08-12T08:34:01Z</time>
      </trkpt>
      <trkpt lat="45.50797" lon="6.7369">
        <ele>1962.8</ele>
        <time>2021-08-12T08:34:02Z</time>
      </trkpt>
      <trkpt lat="45.50796" lon="6.7369">
        <ele>1962.9</ele>
        <time>2021-08-12T08:34:03Z</time>
      </trkpt>
      <trkpt lat="45.50796" lon="6.73689">
        <ele>1963</ele>
        <time>2021-08-12T08:34:04Z</time>
      </trkpt>
      <trkpt lat="45.50796" lon="6.73688">
        <ele>1963.1</ele>
        <time>2021-08-12T08:34:05Z</time>
      </trkpt>
      <trkpt lat="45.50795" lon="6.73688">
        <ele>1963.3</ele>
        <time>2021-08-12T08:34:06Z</time>
      </trkpt>
      <trkpt lat="45.50795" lon="6.73687">
        <ele>1963.4</ele>
        <time>2021-08-12T08:34:07Z</time>
      </trkpt>
      <trkpt lat="45.50795" lon="6.73686">
        <ele>1963.5</ele>
        <time>2021-08-12T08:34:08Z</time>
      </trkpt>
      <trkpt lat="45.50794" lon="6.73686">
        <ele>1963.6</ele>
        <time>2021-08-12T08:34:09Z</time>
      </trkpt>
      <trkpt lat="45.50794" lon="6.73685">
        <ele>1963.7</ele>
        <time>2021-08-12T08:34:10Z</time>
      </trkpt>
      <trkpt lat="45.50794" lon="6.73684">
        <ele>1963.8</ele>
        <time>2021-08-12T08:34:11Z</time>
      </trkpt>
      <trkpt lat="45.50793" lon="6.73684">
        <ele>1964</ele>
        <time>2021-08-12T08:34:12Z</time>
      </trkpt>
      <trkpt lat="45.50793" lon="6.73683">
        <ele>1964.1</ele>
        <time>2021-08-12T08:34:13Z</time>
      </trkpt>
      <trkpt lat="45.50793" lon="6.73683">
        <ele>1964.2</ele>
        <time>2021-08-12T08:34:14Z</time>
      </trkpt>
      <trkpt lat="45.50793" lon="6.73682">
        <ele>1964.3</ele>
        <time>2021-08-12T08:34:15Z</time>
      </trkpt>
      <trkpt lat="45.50792" lon="6.73682">
        <ele>1964.3</ele>
        <time>2021-08-12T08:34:16Z</time>
      </trkpt>
      <trkpt lat="45.50792" lon="6.73681">
        <ele>1964.4</ele>
        <time>2021-08-12T08:34:17Z</time>
      </trkpt>
      <trkpt lat="45.50792" lon="6.73681">
        <ele>1964.5</ele>
        <time>2021-08-12T08:34:18Z</time>
      </trkpt>
      <trkpt lat="45.50792" lon="6.73681">
        <ele>1964.5</ele>
        <time>2021-08-12T08:34:19Z</time>
      </trkpt>
      <trkpt lat="45.50791" lon="6.7368">
        <ele>1964.6</ele>
        <time>2021-08-12T08:34:20Z</time>
      </trkpt>
      <trkpt lat="45.50791" lon="6.7368">
        <ele>1964.6</ele>
        <time>2021-08-12T08:34:21Z</time>
      </trkpt>
      <trkpt lat="45.50791" lon="6.7368">
        <ele>1964.7</ele>
        <time>2021-08-12T08:34:22Z</time>
      </trkpt>
      <trkpt lat="45.50791" lon="6.7368">
        <ele>1964.7</ele>
        <time>2021-08-12T08:34:23Z</time>
      </trkpt>
      <trkpt lat="45.50791" lon="6.7368">
        <ele>1964.7</ele>
        <time>2021-08-12T08:34:24Z</time>
      </trkpt>
      <trkpt lat="45.50791" lon="6.7368">
        <ele>1964.8</ele>
        <time>2021-08-12T08:34:25Z</time>
      </trkpt>
      <trkpt lat="45.5079" lon="6.7368">
        <ele>1964.8</ele>
        <time>2021-08-12T08:34:26Z</time>
      </trkpt>
      <trkpt lat="45.5079" lon="6.7368">
        <ele>1964.8</ele>
        <time>2021-08-12T08:34:27Z</time>
      </trkpt>
      <trkpt lat="45.5079" lon="6.73681">
        <ele>1964.9</ele>
        <time>2021-08-12T08:34:28Z</time>
      </trkpt>
      <trkpt lat="45.5079" lon="6.73681">
        <ele>1964.9</ele>
        <time>2021-08-12T08:34:29Z</time>
      </trkpt>
      <trkpt lat="45.5079" lon="6.73681">
        <ele>1964.9</ele>
        <time>2021-08-12T08:34:30Z</time>
      </trkpt>
      <trkpt lat="45.5079" lon="6.73681">
        <ele>1965</ele>
        <time>2021-08-12T08:34:31Z</time>
      </trkpt>
      <trkpt lat="45.5079" lon="6.73682">
        <ele>1965.1</ele>
        <time>2021-08-12T08:34:32Z</time>
      </trkpt>
      <trkpt lat="45.5079" lon="6.73682">
        <ele>1965.1</ele>
        <time>2021-08-12T08:34:33Z</time>
      </trkpt>
      <trkpt lat="45.5079" lon="6.73683">
        <ele>1965.2</ele>
        <time>2021-08-12T08:34:34Z</time>
      </trkpt>
      <trkpt lat="45.50789" lon="6.73684">
        <ele>1965.3</ele>
        <time>2021-08-12T08:34:35Z</time>
      </trkpt>
      <trkpt lat="45.50789" lon="6.73684">
        <ele>1965.5</ele>
        <time>2021-08-12T08:34:36Z</time>
      </trkpt>
      <trkpt lat="45.50789" lon="6.73685">
        <ele>1965.7</ele>
        <time>2021-08-12T08:34:37Z</time>
      </trkpt>
      <trkpt lat="45.50789" lon="6.73686">
        <ele>1965.8</ele>
        <time>2021-08-12T08:34:38Z</time>
      </trkpt>
      <trkpt lat="45.50788" lon="6.73687">
        <ele>1965.9</ele>
        <time>2021-08-12T08:34:39Z</time>
      </trkpt>
      <trkpt lat="45.50788" lon="6.73687">
        <ele>1966.1</ele>
        <time>2021-08-12T08:34:40Z</time>
      </trkpt>
      <trkpt lat="45.50788" lon="6.73688">
        <ele>1966.3</ele>
        <time>2021-08-12T08:34:41Z</time>
      </trkpt>
      <trkpt lat="45.50788" lon="6.73689">
        <ele>1966.4</ele>
        <time>2021-08-12T08:34:42Z</time>
      </trkpt>
      <trkpt lat="45.50788" lon="6.7369">
        <ele>1966.5</ele>
        <time>2021-08-12T08:34:43Z</time>
      </trkpt>
      <trkpt lat="45.50787" lon="6.7369">
        <ele>1966.6</ele>
        <time>2021-08-12T08:34:44Z</time>
      </trkpt>
      <trkpt lat="45.50787" lon="6.73691">
        <ele>1966.7</ele>
        <time>2021-08-12T08:34:45Z</time>
      </trkpt>
      <trkpt lat="45.50787" lon="6.73691">
        <ele>1966.8</ele>
        <time>2021-08-12T08:34:46Z</time>
      </trkpt>
      <trkpt lat="45.50787" lon="6.73692">
        <ele>1966.9</ele>
        <time>2021-08-12T08:34:47Z</time>
      </trkpt>
      <trkpt lat="45.50787" lon="6.73692">
        <ele>1967</ele>
        <time>2021-08-12T08:34:48Z</time>
      </trkpt>
      <trkpt lat="45.50787" lon="6.73692">
        <ele>1967</ele>
        <time>2021-08-12T08:34:49Z</time>
      </trkpt>
      <trkpt lat="45.50787" lon="6.73693">
        <ele>1967.1</ele>
        <time>2021-08-12T08:34:50Z</time>
      </trkpt>
      <trkpt lat="45.50787" lon="6.73693">
        <ele>1967.2</ele>
        <time>2021-08-12T08:34:51Z</time>
      </trkpt>
      <trkpt lat="45.50787" lon="6.73693">
        <ele>1967.3</ele>
        <time>2021-08-12T08:34:52Z</time>
      </trkpt>
      <trkpt lat="45.50787" lon="6.73693">
        <ele>1967.3</ele>
        <time>2021-08-12T08:34:53Z</time>
      </trkpt>
      <trkpt lat="45.50787" lon="6.73694">
        <ele>1967.3</ele>
        <time>2021-08-12T08:34:54Z</time>
      </trkpt>
      <trkpt lat="45.50787" lon="6.73694">
        <ele>1967.4</ele>
        <time>2021-08-12T08:34:55Z</time>
      </trkpt>
      <trkpt lat="45.50787" lon="6.73694">
        <ele>1967.5</ele>
        <time>2021-08-12T08:34:56Z</time>
      </trkpt>
      <trkpt lat="45.50787" lon="6.73694">
        <ele>1967.5</ele>
        <time>2021-08-12T08:34:57Z</time>
      </trkpt>
      <trkpt lat="45.50787" lon="6.73695">
        <ele>1967.6</ele>
        <time>2021-08-12T08:34:58Z</time>
      </trkpt>
      <trkpt lat="45.50787" lon="6.73695">
        <ele>1967.6</ele>
        <time>2021-08-12T08:34:59Z</time>
      </trkpt>
      <trkpt lat="45.50787" lon="6.73695">
        <ele>1967.7</ele>
        <time>2021-08-12T08:35:00Z</time>
      </trkpt>
      <trkpt lat="45.50787" lon="6.73696">
        <ele>1967.8</ele>
        <time>2021-08-12T08:35:01Z</time>
      </trkpt>
      <trkpt lat="45.50787" lon="6.73696">
        <ele>1967.9</ele>
        <time>2021-08-12T08:35:02Z</time>
      </trkpt>
      <trkpt lat="45.50786" lon="6.73697">
        <ele>1968</ele>
        <time>2021-08-12T08:35:03Z</time>
      </trkpt>
      <trkpt lat="45.50786" lon="6.73697">
        <ele>1968.1</ele>
        <time>2021-08-12T08:35:04Z</time>
      </trkpt>
      <trkpt lat="45.50786" lon="6.73698">
        <ele>1968.1</ele>
        <time>2021-08-12T08:35:05Z</time>
      </trkpt>
      <trkpt lat="45.50786" lon="6.73698">
        <ele>1968.3</ele>
        <time>2021-08-12T08:35:06Z</time>
      </trkpt>
      <trkpt lat="45.50786" lon="6.73699">
        <ele>1968.4</ele>
        <time>2021-08-12T08:35:07Z</time>
      </trkpt>
      <trkpt lat="45.50786" lon="6.73699">
        <ele>1968.5</ele>
        <time>2021-08-12T08:35:08Z</time>
      </trkpt>
      <trkpt lat="45.50785" lon="6.737">
        <ele>1968.6</ele>
        <time>2021-08-12T08:35:09Z</time>
      </trkpt>
      <trkpt lat="45.50785" lon="6.737">
        <ele>1968.7</ele>
        <time>2021-08-12T08:35:10Z</time>
      </trkpt>
      <trkpt lat="45.50785" lon="6.73701">
        <ele>1968.9</ele>
        <time>2021-08-12T08:35:11Z</time>
      </trkpt>
      <trkpt lat="45.50785" lon="6.73702">
        <ele>1969</ele>
        <time>2021-08-12T08:35:12Z</time>
      </trkpt>
      <trkpt lat="45.50784" lon="6.73702">
        <ele>1969.1</ele>
        <time>2021-08-12T08:35:13Z</time>
      </trkpt>
      <trkpt lat="45.50784" lon="6.73703">
        <ele>1969.2</ele>
        <time>2021-08-12T08:35:14Z</time>
      </trkpt>
      <trkpt lat="45.50784" lon="6.73703">
        <ele>1969.3</ele>
        <time>2021-08-12T08:35:15Z</time>
      </trkpt>
      <trkpt lat="45.50783" lon="6.73704">
        <ele>1969.5</ele>
        <time>2021-08-12T08:35:16Z</time>
      </trkpt>
      <trkpt lat="45.50783" lon="6.73704">
        <ele>1969.6</ele>
        <time>2021-08-12T08:35:17Z</time>
      </trkpt>
      <trkpt lat="45.50783" lon="6.73704">
        <ele>1969.7</ele>
        <time>2021-08-12T08:35:18Z</time>
      </trkpt>
      <trkpt lat="45.50782" lon="6.73705">
        <ele>1969.8</ele>
        <time>2021-08-12T08:35:19Z</time>
      </trkpt>
      <trkpt lat="45.50782" lon="6.73705">
        <ele>1969.9</ele>
        <time>2021-08-12T08:35:20Z</time>
      </trkpt>
      <trkpt lat="45.50782" lon="6.73705">
        <ele>1970</ele>
        <time>2021-08-12T08:35:21Z</time>
      </trkpt>
      <trkpt lat="45.50781" lon="6.73705">
        <ele>1970.1</ele>
        <time>2021-08-12T08:35:22Z</time>
      </trkpt>
      <trkpt lat="45.50781" lon="6.73706">
        <ele>1970.2</ele>
        <time>2021-08-12T08:35:23Z</time>
      </trkpt>
      <trkpt lat="45.50781" lon="6.73706">
        <ele>1970.3</ele>
        <time>2021-08-12T08:35:24Z</time>
      </trkpt>
      <trkpt lat="45.5078" lon="6.73706">
        <ele>1970.3</ele>
        <time>2021-08-12T08:35:25Z</time>
      </trkpt>
      <trkpt lat="45.5078" lon="6.73706">
        <ele>1970.5</ele>
        <time>2021-08-12T08:35:26Z</time>
      </trkpt>
      <trkpt lat="45.5078" lon="6.73706">
        <ele>1970.5</ele>
        <time>2021-08-12T08:35:27Z</time>
      </trkpt>
      <trkpt lat="45.5078" lon="6.73706">
        <ele>1970.6</ele>
        <time>2021-08-12T08:35:28Z</time>
      </trkpt>
      <trkpt lat="45.50779" lon="6.73706">
        <ele>1970.7</ele>
        <time>2021-08-12T08:35:29Z</time>
      </trkpt>
      <trkpt lat="45.50779" lon="6.73706">
        <ele>1970.8</ele>
        <time>2021-08-12T08:35:30Z</time>
      </trkpt>
      <trkpt lat="45.50779" lon="6.73706">
        <ele>1970.9</ele>
        <time>2021-08-12T08:35:31Z</time>
      </trkpt>
      <trkpt lat="45.50779" lon="6.73705">
        <ele>1970.9</ele>
        <time>2021-08-12T08:35:32Z</time>
      </trkpt>
      <trkpt lat="45.50779" lon="6.73705">
        <ele>1971</ele>
        <time>2021-08-12T08:35:33Z</time>
      </trkpt>
      <trkpt lat="45.50778" lon="6.73705">
        <ele>1971.1</ele>
        <time>2021-08-12T08:35:34Z</time>
      </trkpt>
      <trkpt lat="45.50778" lon="6.73705">
        <ele>1971.1</ele>
        <time>2021-08-12T08:35:35Z</time>
      </trkpt>
      <trkpt lat="45.50778" lon="6.73704">
        <ele>1971.3</ele>
        <time>2021-08-12T08:35:36Z</time>
      </trkpt>
      <trkpt lat="45.50778" lon="6.73704">
        <ele>1971.3</ele>
        <time>2021-08-12T08:35:37Z</time>
      </trkpt>
      <trkpt lat="45.50778" lon="6.73704">
        <ele>1971.4</ele>
        <time>2021-08-12T08:35:38Z</time>
      </trkpt>
      <trkpt lat="45.50777" lon="6.73704">
        <ele>1971.5</ele>
        <time>2021-08-12T08:35:39Z</time>
      </trkpt>
      <trkpt lat="45.50777" lon="6.73703">
        <ele>1971.5</ele>
        <time>2021-08-12T08:35:40Z</time>
      </trkpt>
      <trkpt lat="45.50777" lon="6.73703">
        <ele>1971.6</ele>
        <time>2021-08-12T08:35:41Z</time>
      </trkpt>
      <trkpt lat="45.50777" lon="6.73703">
        <ele>1971.7</ele>
        <time>2021-08-12T08:35:42Z</time>
      </trkpt>
      <trkpt lat="45.50777" lon="6.73703">
        <ele>1971.8</ele>
        <time>2021-08-12T08:35:43Z</time>
      </trkpt>
      <trkpt lat="45.50776" lon="6.73702">
        <ele>1971.8</ele>
        <time>2021-08-12T08:35:44Z</time>
      </trkpt>
      <trkpt lat="45.50776" lon="6.73702">
        <ele>1971.9</ele>
        <time>2021-08-12T08:35:45Z</time>
      </trkpt>
      <trkpt lat="45.50776" lon="6.73702">
        <ele>1972</ele>
        <time>2021-08-12T08:35:46Z</time>
      </trkpt>
      <trkpt lat="45.50776" lon="6.73701">
        <ele>1972.1</ele>
        <time>2021-08-12T08:35:47Z</time>
      </trkpt>
      <trkpt lat="45.50776" lon="6.73701">
        <ele>1972.2</ele>
        <time>2021-08-12T08:35:48Z</time>
      </trkpt>
      <trkpt lat="45.50776" lon="6.73701">
        <ele>1972.2</ele>
        <time>2021-08-12T08:35:49Z</time>
      </trkpt>
      <trkpt lat="45.50775" lon="6.73701">
        <ele>1972.3</ele>
        <time>2021-08-12T08:35:50Z</time>
      </trkpt>
      <trkpt lat="45.50775" lon="6.737">
        <ele>1972.4</ele>
        <time>2021-08-12T08:35:51Z</time>
      </trkpt>
      <trkpt lat="45.50775" lon="6.737">
        <ele>1972.5</ele>
        <time>2021-08-12T08:35:52Z</time>
      </trkpt>
      <trkpt lat="45.50775" lon="6.737">
        <ele>1972.5</ele>
        <time>2021-08-12T08:35:53Z</time>
      </trkpt>
      <trkpt lat="45.50775" lon="6.737">
        <ele>1972.6</ele>
        <time>2021-08-12T08:35:54Z</time>
      </trkpt>
      <trkpt lat="45.50774" lon="6.73699">
        <ele>1972.7</ele>
        <time>2021-08-12T08:35:55Z</time>
      </trkpt>
      <trkpt lat="45.50774" lon="6.73699">
        <ele>1972.8</ele>
        <time>2021-08-12T08:35:56Z</time>
      </trkpt>
      <trkpt lat="45.50774" lon="6.73699">
        <ele>1972.9</ele>
        <time>2021-08-12T08:35:57Z</time>
      </trkpt>
      <trkpt lat="45.50774" lon="6.73699">
        <ele>1972.9</ele>
        <time>2021-08-12T08:35:58Z</time>
      </trkpt>
      <trkpt lat="45.50774" lon="6.73698">
        <ele>1973</ele>
        <time>2021-08-12T08:35:59Z</time>
      </trkpt>
      <trkpt lat="45.50774" lon="6.73698">
        <ele>1973</ele>
        <time>2021-08-12T08:36:00Z</time>
      </trkpt>
      <trkpt lat="45.50773" lon="6.73698">
        <ele>1973.1</ele>
        <time>2021-08-12T08:36:01Z</time>
      </trkpt>
      <trkpt lat="45.50773" lon="6.73698">
        <ele>1973.2</ele>
        <time>2021-08-12T08:36:02Z</time>
      </trkpt>
      <trkpt lat="45.50773" lon="6.73697">
        <ele>1973.3</ele>
        <time>2021-08-12T08:36:03Z</time>
      </trkpt>
      <trkpt lat="45.50773" lon="6.73697">
        <ele>1973.4</ele>
        <time>2021-08-12T08:36:04Z</time>
      </trkpt>
      <trkpt lat="45.50773" lon="6.73697">
        <ele>1973.4</ele>
        <time>2021-08-12T08:36:05Z</time>
      </trkpt>
      <trkpt lat="45.50772" lon="6.73697">
        <ele>1973.6</ele>
        <time>2021-08-12T08:36:06Z</time>
      </trkpt>
      <trkpt lat="45.50772" lon="6.73696">
        <ele>1973.6</ele>
        <time>2021-08-12T08:36:07Z</time>
      </trkpt>
      <trkpt lat="45.50772" lon="6.73696">
        <ele>1973.7</ele>
        <time>2021-08-12T08:36:08Z</time>
      </trkpt>
      <trkpt lat="45.50772" lon="6.73696">
        <ele>1973.7</ele>
        <time>2021-08-12T08:36:09Z</time>
      </trkpt>
      <trkpt lat="45.50772" lon="6.73696">
        <ele>1973.8</ele>
        <time>2021-08-12T08:36:10Z</time>
      </trkpt>
      <trkpt lat="45.50772" lon="6.73695">
        <ele>1973.9</ele>
        <time>2021-08-12T08:36:11Z</time>
      </trkpt>
      <trkpt lat="45.50771" lon="6.73695">
        <ele>1974</ele>
        <time>2021-08-12T08:36:12Z</time>
      </trkpt>
      <trkpt lat="45.50771" lon="6.73695">
        <ele>1974</ele>
        <time>2021-08-12T08:36:13Z</time>
      </trkpt>
      <trkpt lat="45.50771" lon="6.73695">
        <ele>1974.1</ele>
        <time>2021-08-12T08:36:14Z</time>
      </trkpt>
      <trkpt lat="45.50771" lon="6.73694">
        <ele>1974.2</ele>
        <time>2021-08-12T08:36:15Z</time>
      </trkpt>
      <trkpt lat="45.50771" lon="6.73694">
        <ele>1974.2</ele>
        <time>2021-08-12T08:36:16Z</time>
      </trkpt>
      <trkpt lat="45.5077" lon="6.73694">
        <ele>1974.3</ele>
        <time>2021-08-12T08:36:17Z</time>
      </trkpt>
      <trkpt lat="45.5077" lon="6.73694">
        <ele>1974.3</ele>
        <time>2021-08-12T08:36:18Z</time>
      </trkpt>
      <trkpt lat="45.5077" lon="6.73693">
        <ele>1974.4</ele>
        <time>2021-08-12T08:36:19Z</time>
      </trkpt>
      <trkpt lat="45.5077" lon="6.73693">
        <ele>1974.4</ele>
        <time>2021-08-12T08:36:20Z</time>
      </trkpt>
      <trkpt lat="45.5077" lon="6.73693">
        <ele>1974.5</ele>
        <time>2021-08-12T08:36:21Z</time>
      </trkpt>
      <trkpt lat="45.50769" lon="6.73693">
        <ele>1974.5</ele>
        <time>2021-08-12T08:36:22Z</time>
      </trkpt>
      <trkpt lat="45.50769" lon="6.73692">
        <ele>1974.6</ele>
        <time>2021-08-12T08:36:23Z</time>
      </trkpt>
      <trkpt lat="45.50769" lon="6.73692">
        <ele>1974.6</ele>
        <time>2021-08-12T08:36:24Z</time>
      </trkpt>
      <trkpt lat="45.50769" lon="6.73692">
        <ele>1974.7</ele>
        <time>2021-08-12T08:36:25Z</time>
      </trkpt>
      <trkpt lat="45.50769" lon="6.73691">
        <ele>1974.8</ele>
        <time>2021-08-12T08:36:26Z</time>
      </trkpt>
      <trkpt lat="45.50769" lon="6.73691">
        <ele>1974.8</ele>
        <time>2021-08-12T08:36:27Z</time>
      </trkpt>
      <trkpt lat="45.50768" lon="6.73691">
        <ele>1974.9</ele>
        <time>2021-08-12T08:36:28Z</time>
      </trkpt>
      <trkpt lat="45.50768" lon="6.73691">
        <ele>1974.9</ele>
        <time>2021-08-12T08:36:29Z</time>
      </trkpt>
      <trkpt lat="45.50768" lon="6.7369">
        <ele>1975</ele>
        <time>2021-08-12T08:36:30Z</time>
      </trkpt>
      <trkpt lat="45.50768" lon="6.7369">
        <ele>1975</ele>
        <time>2021-08-12T08:36:31Z</time>
      </trkpt>
      <trkpt lat="45.50768" lon="6.7369">
        <ele>1975.1</ele>
        <time>2021-08-12T08:36:32Z</time>
      </trkpt>
      <trkpt lat="45.50767" lon="6.7369">
        <ele>1975.2</ele>
        <time>2021-08-12T08:36:33Z</time>
      </trkpt>
      <trkpt lat="45.50767" lon="6.73689">
        <ele>1975.2</ele>
        <time>2021-08-12T08:36:34Z</time>
      </trkpt>
      <trkpt lat="45.50767" lon="6.73689">
        <ele>1975.3</ele>
        <time>2021-08-12T08:36:35Z</time>
      </trkpt>
      <trkpt lat="45.50767" lon="6.73689">
        <ele>1975.3</ele>
        <time>2021-08-12T08:36:36Z</time>
      </trkpt>
      <trkpt lat="45.50767" lon="6.73689">
        <ele>1975.4</ele>
        <time>2021-08-12T08:36:37Z</time>
      </trkpt>
      <trkpt lat="45.50767" lon="6.73688">
        <ele>1975.4</ele>
        <time>2021-08-12T08:36:38Z</time>
      </trkpt>
      <trkpt lat="45.50766" lon="6.73688">
        <ele>1975.5</ele>
        <time>2021-08-12T08:36:39Z</time>
      </trkpt>
      <trkpt lat="45.50766" lon="6.73688">
        <ele>1975.5</ele>
        <time>2021-08-12T08:36:40Z</time>
      </trkpt>
      <trkpt lat="45.50766" lon="6.73688">
        <ele>1975.6</ele>
        <time>2021-08-12T08:36:41Z</time>
      </trkpt>
      <trkpt lat="45.50766" lon="6.73687">
        <ele>1975.7</ele>
        <time>2021-08-12T08:36:42Z</time>
      </trkpt>
      <trkpt lat="45.50766" lon="6.73687">
        <ele>1975.7</ele>
        <time>2021-08-12T08:36:43Z</time>
      </trkpt>
      <trkpt lat="45.50765" lon="6.73687">
        <ele>1975.8</ele>
        <time>2021-08-12T08:36:44Z</time>
      </trkpt>
      <trkpt lat="45.50765" lon="6.73687">
        <ele>1975.8</ele>
        <time>2021-08-12T08:36:45Z</time>
      </trkpt>
      <trkpt lat="45.50765" lon="6.73686">
        <ele>1975.9</ele>
        <time>2021-08-12T08:36:46Z</time>
      </trkpt>
      <trkpt lat="45.50765" lon="6.73686">
        <ele>1975.9</ele>
        <time>2021-08-12T08:36:47Z</time>
      </trkpt>
      <trkpt lat="45.50765" lon="6.73686">
        <ele>1976</ele>
        <time>2021-08-12T08:36:48Z</time>
      </trkpt>
      <trkpt lat="45.50764" lon="6.73686">
        <ele>1976.1</ele>
        <time>2021-08-12T08:36:49Z</time>
      </trkpt>
      <trkpt lat="45.50764" lon="6.73685">
        <ele>1976.1</ele>
        <time>2021-08-12T08:36:50Z</time>
      </trkpt>
      <trkpt lat="45.50764" lon="6.73685">
        <ele>1976.2</ele>
        <time>2021-08-12T08:36:51Z</time>
      </trkpt>
      <trkpt lat="45.50764" lon="6.73685">
        <ele>1976.2</ele>
        <time>2021-08-12T08:36:52Z</time>
      </trkpt>
      <trkpt lat="45.50764" lon="6.73685">
        <ele>1976.3</ele>
        <time>2021-08-12T08:36:53Z</time>
      </trkpt>
      <trkpt lat="45.50764" lon="6.73684">
        <ele>1976.3</ele>
        <time>2021-08-12T08:36:54Z</time>
      </trkpt>
      <trkpt lat="45.50763" lon="6.73684">
        <ele>1976.4</ele>
        <time>2021-08-12T08:36:55Z</time>
      </trkpt>
      <trkpt lat="45.50763" lon="6.73684">
        <ele>1976.4</ele>
        <time>2021-08-12T08:36:56Z</time>
      </trkpt>
      <trkpt lat="45.50763" lon="6.73684">
        <ele>1976.5</ele>
        <time>2021-08-12T08:36:57Z</time>
      </trkpt>
      <trkpt lat="45.50763" lon="6.73683">
        <ele>1976.5</ele>
        <time>2021-08-12T08:36:58Z</time>
      </trkpt>
      <trkpt lat="45.50763" lon="6.73683">
        <ele>1976.6</ele>
        <time>2021-08-12T08:36:59Z</time>
      </trkpt>
      <trkpt lat="45.50762" lon="6.73683">
        <ele>1976.7</ele>
        <time>2021-08-12T08:37:00Z</time>
      </trkpt>
      <trkpt lat="45.50762" lon="6.73683">
        <ele>1976.7</ele>
        <time>2021-08-12T08:37:01Z</time>
      </trkpt>
      <trkpt lat="45.50762" lon="6.73682">
        <ele>1976.8</ele>
        <time>2021-08-12T08:37:02Z</time>
      </trkpt>
      <trkpt lat="45.50762" lon="6.73682">
        <ele>1976.8</ele>
        <time>2021-08-12T08:37:03Z</time>
      </trkpt>
      <trkpt lat="45.50762" lon="6.73682">
        <ele>1976.9</ele>
        <time>2021-08-12T08:37:04Z</time>
      </trkpt>
      <trkpt lat="45.50762" lon="6.73681">
        <ele>1976.9</ele>
        <time>2021-08-12T08:37:05Z</time>
      </trkpt>
      <trkpt lat="45.50761" lon="6.73681">
        <ele>1977</ele>
        <time>2021-08-12T08:37:06Z</time>
      </trkpt>
      <trkpt lat="45.50761" lon="6.73681">
        <ele>1977.1</ele>
        <time>2021-08-12T08:37:07Z</time>
      </trkpt>
      <trkpt lat="45.50761" lon="6.73681">
        <ele>1977.1</ele>
        <time>2021-08-12T08:37:08Z</time>
      </trkpt>
      <trkpt lat="45.50761" lon="6.7368">
        <ele>1977.2</ele>
        <time>2021-08-12T08:37:09Z</time>
      </trkpt>
      <trkpt lat="45.50761" lon="6.7368">
        <ele>1977.2</ele>
        <time>2021-08-12T08:37:10Z</time>
      </trkpt>
      <trkpt lat="45.5076" lon="6.7368">
        <ele>1977.3</ele>
        <time>2021-08-12T08:37:11Z</time>
      </trkpt>
      <trkpt lat="45.5076" lon="6.7368">
        <ele>1977.3</ele>
        <time>2021-08-12T08:37:12Z</time>
      </trkpt>
      <trkpt lat="45.5076" lon="6.73679">
        <ele>1977.4</ele>
        <time>2021-08-12T08:37:13Z</time>
      </trkpt>
      <trkpt lat="45.5076" lon="6.73679">
        <ele>1977.4</ele>
        <time>2021-08-12T08:37:14Z</time>
      </trkpt>
      <trkpt lat="45.5076" lon="6.73679">
        <ele>1977.5</ele>
        <time>2021-08-12T08:37:15Z</time>
      </trkpt>
      <trkpt lat="45.50759" lon="6.73678">
        <ele>1977.6</ele>
        <time>2021-08-12T08:37:16Z</time>
      </trkpt>
      <trkpt lat="45.50759" lon="6.73678">
        <ele>1977.7</ele>
        <time>2021-08-12T08:37:17Z</time>
      </trkpt>
      <trkpt lat="45.50759" lon="6.73678">
        <ele>1977.8</ele>
        <time>2021-08-12T08:37:18Z</time>
      </trkpt>
      <trkpt lat="45.50758" lon="6.73677">
        <ele>1977.8</ele>
        <time>2021-08-12T08:37:19Z</time>
      </trkpt>
      <trkpt lat="45.50758" lon="6.73677">
        <ele>1977.9</ele>
        <time>2021-08-12T08:37:20Z</time>
      </trkpt>
      <trkpt lat="45.50758" lon="6.73677">
        <ele>1977.9</ele>
        <time>2021-08-12T08:37:21Z</time>
      </trkpt>
      <trkpt lat="45.50758" lon="6.73677">
        <ele>1978</ele>
        <time>2021-08-12T08:37:22Z</time>
      </trkpt>
      <trkpt lat="45.50758" lon="6.73677">
        <ele>1978</ele>
        <time>2021-08-12T08:37:23Z</time>
      </trkpt>
      <trkpt lat="45.50758" lon="6.73677">
        <ele>1978.1</ele>
        <time>2021-08-12T08:37:24Z</time>
      </trkpt>
      <trkpt lat="45.50757" lon="6.73677">
        <ele>1978.1</ele>
        <time>2021-08-12T08:37:25Z</time>
      </trkpt>
      <trkpt lat="45.50757" lon="6.73677">
        <ele>1978.1</ele>
        <time>2021-08-12T08:37:26Z</time>
      </trkpt>
      <trkpt lat="45.50757" lon="6.73677">
        <ele>1978.1</ele>
        <time>2021-08-12T08:37:27Z</time>
      </trkpt>
      <trkpt lat="45.50757" lon="6.73677">
        <ele>1978.2</ele>
        <time>2021-08-12T08:37:28Z</time>
      </trkpt>
      <trkpt lat="45.50757" lon="6.73677">
        <ele>1978.2</ele>
        <time>2021-08-12T08:37:29Z</time>
      </trkpt>
      <trkpt lat="45.50757" lon="6.73677">
        <ele>1978.2</ele>
        <time>2021-08-12T08:37:30Z</time>
      </trkpt>
      <trkpt lat="45.50757" lon="6.73678">
        <ele>1978.2</ele>
        <time>2021-08-12T08:37:31Z</time>
      </trkpt>
      <trkpt lat="45.50757" lon="6.73678">
        <ele>1978.2</ele>
        <time>2021-08-12T08:37:32Z</time>
      </trkpt>
      <trkpt lat="45.50757" lon="6.73678">
        <ele>1978.2</ele>
        <time>2021-08-12T08:37:33Z</time>
      </trkpt>
      <trkpt lat="45.50757" lon="6.73678">
        <ele>1978.2</ele>
        <time>2021-08-12T08:37:34Z</time>
      </trkpt>
      <trkpt lat="45.50757" lon="6.73678">
        <ele>1978.3</ele>
        <time>2021-08-12T08:37:35Z</time>
      </trkpt>
      <trkpt lat="45.50757" lon="6.73678">
        <ele>1978.3</ele>
        <time>2021-08-12T08:37:36Z</time>
      </trkpt>
      <trkpt lat="45.50757" lon="6.73678">
        <ele>1978.3</ele>
        <time>2021-08-12T08:37:37Z</time>
      </trkpt>
      <trkpt lat="45.50757" lon="6.73678">
        <ele>1978.4</ele>
        <time>2021-08-12T08:37:38Z</time>
      </trkpt>
      <trkpt lat="45.50757" lon="6.73679">
        <ele>1978.4</ele>
        <time>2021-08-12T08:37:39Z</time>
      </trkpt>
      <trkpt lat="45.50757" lon="6.73679">
        <ele>1978.5</ele>
        <time>2021-08-12T08:37:40Z</time>
      </trkpt>
      <trkpt lat="45.50756" lon="6.7368">
        <ele>1978.6</ele>
        <time>2021-08-12T08:37:41Z</time>
      </trkpt>
      <trkpt lat="45.50756" lon="6.73681">
        <ele>1978.7</ele>
        <time>2021-08-12T08:37:42Z</time>
      </trkpt>
      <trkpt lat="45.50756" lon="6.73681">
        <ele>1978.9</ele>
        <time>2021-08-12T08:37:43Z</time>
      </trkpt>
      <trkpt lat="45.50756" lon="6.73682">
        <ele>1979</ele>
        <time>2021-08-12T08:37:44Z</time>
      </trkpt>
      <trkpt lat="45.50756" lon="6.73683">
        <ele>1979.1</ele>
        <time>2021-08-12T08:37:45Z</time>
      </trkpt>
      <trkpt lat="45.50756" lon="6.73684">
        <ele>1979.2</ele>
        <time>2021-08-12T08:37:46Z</time>
      </trkpt>
      <trkpt lat="45.50756" lon="6.73685">
        <ele>1979.4</ele>
        <time>2021-08-12T08:37:47Z</time>
      </trkpt>
      <trkpt lat="45.50756" lon="6.73685">
        <ele>1979.5</ele>
        <time>2021-08-12T08:37:48Z</time>
      </trkpt>
      <trkpt lat="45.50756" lon="6.73686">
        <ele>1979.5</ele>
        <time>2021-08-12T08:37:49Z</time>
      </trkpt>
      <trkpt lat="45.50756" lon="6.73686">
        <ele>1979.6</ele>
        <time>2021-08-12T08:37:50Z</time>
      </trkpt>
      <trkpt lat="45.50756" lon="6.73687">
        <ele>1979.6</ele>
        <time>2021-08-12T08:37:51Z</time>
      </trkpt>
      <trkpt lat="45.50756" lon="6.73687">
        <ele>1979.6</ele>
        <time>2021-08-12T08:37:52Z</time>
      </trkpt>
      <trkpt lat="45.50756" lon="6.73687">
        <ele>1979.6</ele>
        <time>2021-08-12T08:37:53Z</time>
      </trkpt>
      <trkpt lat="45.50756" lon="6.73687">
        <ele>1979.6</ele>
        <time>2021-08-12T08:37:54Z</time>
      </trkpt>
      <trkpt lat="45.50756" lon="6.73687">
        <ele>1979.7</ele>
        <time>2021-08-12T08:37:55Z</time>
      </trkpt>
      <trkpt lat="45.50756" lon="6.73687">
        <ele>1979.7</ele>
        <time>2021-08-12T08:37:56Z</time>
      </trkpt>
      <trkpt lat="45.50756" lon="6.73687">
        <ele>1979.7</ele>
        <time>2021-08-12T08:37:57Z</time>
      </trkpt>
      <trkpt lat="45.50756" lon="6.73687">
        <ele>1979.7</ele>
        <time>2021-08-12T08:37:58Z</time>
      </trkpt>
      <trkpt lat="45.50756" lon="6.73687">
        <ele>1979.8</ele>
        <time>2021-08-12T08:37:59Z</time>
      </trkpt>
      <trkpt lat="45.50756" lon="6.73687">
        <ele>1979.8</ele>
        <time>2021-08-12T08:38:00Z</time>
      </trkpt>
      <trkpt lat="45.50756" lon="6.73688">
        <ele>1979.9</ele>
        <time>2021-08-12T08:38:01Z</time>
      </trkpt>
      <trkpt lat="45.50756" lon="6.73688">
        <ele>1980</ele>
        <time>2021-08-12T08:38:02Z</time>
      </trkpt>
      <trkpt lat="45.50756" lon="6.73689">
        <ele>1980.1</ele>
        <time>2021-08-12T08:38:03Z</time>
      </trkpt>
      <trkpt lat="45.50756" lon="6.7369">
        <ele>1980.2</ele>
        <time>2021-08-12T08:38:04Z</time>
      </trkpt>
      <trkpt lat="45.50756" lon="6.73691">
        <ele>1980.3</ele>
        <time>2021-08-12T08:38:05Z</time>
      </trkpt>
      <trkpt lat="45.50756" lon="6.73691">
        <ele>1980.4</ele>
        <time>2021-08-12T08:38:06Z</time>
      </trkpt>
      <trkpt lat="45.50756" lon="6.73692">
        <ele>1980.5</ele>
        <time>2021-08-12T08:38:07Z</time>
      </trkpt>
      <trkpt lat="45.50756" lon="6.73693">
        <ele>1980.6</ele>
        <time>2021-08-12T08:38:08Z</time>
      </trkpt>
      <trkpt lat="45.50756" lon="6.73693">
        <ele>1980.7</ele>
        <time>2021-08-12T08:38:09Z</time>
      </trkpt>
      <trkpt lat="45.50756" lon="6.73694">
        <ele>1980.8</ele>
        <time>2021-08-12T08:38:10Z</time>
      </trkpt>
      <trkpt lat="45.50756" lon="6.73695">
        <ele>1980.9</ele>
        <time>2021-08-12T08:38:11Z</time>
      </trkpt>
      <trkpt lat="45.50756" lon="6.73695">
        <ele>1981</ele>
        <time>2021-08-12T08:38:12Z</time>
      </trkpt>
      <trkpt lat="45.50756" lon="6.73696">
        <ele>1981.1</ele>
        <time>2021-08-12T08:38:13Z</time>
      </trkpt>
      <trkpt lat="45.50756" lon="6.73696">
        <ele>1981.2</ele>
        <time>2021-08-12T08:38:14Z</time>
      </trkpt>
      <trkpt lat="45.50756" lon="6.73697">
        <ele>1981.2</ele>
        <time>2021-08-12T08:38:15Z</time>
      </trkpt>
      <trkpt lat="45.50756" lon="6.73697">
        <ele>1981.3</ele>
        <time>2021-08-12T08:38:16Z</time>
      </trkpt>
      <trkpt lat="45.50756" lon="6.73698">
        <ele>1981.4</ele>
        <time>2021-08-12T08:38:17Z</time>
      </trkpt>
      <trkpt lat="45.50756" lon="6.73698">
        <ele>1981.5</ele>
        <time>2021-08-12T08:38:18Z</time>
      </trkpt>
      <trkpt lat="45.50756" lon="6.73699">
        <ele>1981.5</ele>
        <time>2021-08-12T08:38:19Z</time>
      </trkpt>
      <trkpt lat="45.50756" lon="6.73699">
        <ele>1981.6</ele>
        <time>2021-08-12T08:38:20Z</time>
      </trkpt>
      <trkpt lat="45.50756" lon="6.737">
        <ele>1981.7</ele>
        <time>2021-08-12T08:38:21Z</time>
      </trkpt>
      <trkpt lat="45.50756" lon="6.737">
        <ele>1981.7</ele>
        <time>2021-08-12T08:38:22Z</time>
      </trkpt>
      <trkpt lat="45.50755" lon="6.737">
        <ele>1981.8</ele>
        <time>2021-08-12T08:38:23Z</time>
      </trkpt>
      <trkpt lat="45.50755" lon="6.73701">
        <ele>1981.8</ele>
        <time>2021-08-12T08:38:24Z</time>
      </trkpt>
      <trkpt lat="45.50755" lon="6.73701">
        <ele>1981.9</ele>
        <time>2021-08-12T08:38:25Z</time>
      </trkpt>
      <trkpt lat="45.50755" lon="6.73701">
        <ele>1981.9</ele>
        <time>2021-08-12T08:38:26Z</time>
      </trkpt>
      <trkpt lat="45.50755" lon="6.73701">
        <ele>1981.9</ele>
        <time>2021-08-12T08:38:27Z</time>
      </trkpt>
      <trkpt lat="45.50756" lon="6.73702">
        <ele>1982</ele>
        <time>2021-08-12T08:38:28Z</time>
      </trkpt>
      <trkpt lat="45.50756" lon="6.73702">
        <ele>1982</ele>
        <time>2021-08-12T08:38:29Z</time>
      </trkpt>
      <trkpt lat="45.50756" lon="6.73702">
        <ele>1982</ele>
        <time>2021-08-12T08:38:30Z</time>
      </trkpt>
      <trkpt lat="45.50756" lon="6.73702">
        <ele>1982</ele>
        <time>2021-08-12T08:38:31Z</time>
      </trkpt>
      <trkpt lat="45.50756" lon="6.73702">
        <ele>1982</ele>
        <time>2021-08-12T08:38:32Z</time>
      </trkpt>
      <trkpt lat="45.50756" lon="6.73702">
        <ele>1982.1</ele>
        <time>2021-08-12T08:38:33Z</time>
      </trkpt>
      <trkpt lat="45.50756" lon="6.73702">
        <ele>1982.1</ele>
        <time>2021-08-12T08:38:34Z</time>
      </trkpt>
      <trkpt lat="45.50756" lon="6.73702">
        <ele>1982.1</ele>
        <time>2021-08-12T08:38:35Z</time>
      </trkpt>
      <trkpt lat="45.50756" lon="6.73703">
        <ele>1982.2</ele>
        <time>2021-08-12T08:38:36Z</time>
      </trkpt>
      <trkpt lat="45.50756" lon="6.73703">
        <ele>1982.2</ele>
        <time>2021-08-12T08:38:37Z</time>
      </trkpt>
      <trkpt lat="45.50756" lon="6.73703">
        <ele>1982.2</ele>
        <time>2021-08-12T08:38:38Z</time>
      </trkpt>
      <trkpt lat="45.50756" lon="6.73704">
        <ele>1982.3</ele>
        <time>2021-08-12T08:38:39Z</time>
      </trkpt>
      <trkpt lat="45.50756" lon="6.73704">
        <ele>1982.4</ele>
        <time>2021-08-12T08:38:40Z</time>
      </trkpt>
      <trkpt lat="45.50756" lon="6.73705">
        <ele>1982.5</ele>
        <time>2021-08-12T08:38:41Z</time>
      </trkpt>
      <trkpt lat="45.50755" lon="6.73705">
        <ele>1982.5</ele>
        <time>2021-08-12T08:38:42Z</time>
      </trkpt>
      <trkpt lat="45.50755" lon="6.73706">
        <ele>1982.6</ele>
        <time>2021-08-12T08:38:43Z</time>
      </trkpt>
      <trkpt lat="45.50755" lon="6.73706">
        <ele>1982.7</ele>
        <time>2021-08-12T08:38:44Z</time>
      </trkpt>
      <trkpt lat="45.50755" lon="6.73707">
        <ele>1982.8</ele>
        <time>2021-08-12T08:38:45Z</time>
      </trkpt>
      <trkpt lat="45.50755" lon="6.73707">
        <ele>1982.9</ele>
        <time>2021-08-12T08:38:46Z</time>
      </trkpt>
      <trkpt lat="45.50755" lon="6.73708">
        <ele>1982.9</ele>
        <time>2021-08-12T08:38:47Z</time>
      </trkpt>
      <trkpt lat="45.50755" lon="6.73708">
        <ele>1983</ele>
        <time>2021-08-12T08:38:48Z</time>
      </trkpt>
      <trkpt lat="45.50755" lon="6.73708">
        <ele>1983</ele>
        <time>2021-08-12T08:38:49Z</time>
      </trkpt>
      <trkpt lat="45.50755" lon="6.73709">
        <ele>1983.1</ele>
        <time>2021-08-12T08:38:50Z</time>
      </trkpt>
      <trkpt lat="45.50755" lon="6.73709">
        <ele>1983.1</ele>
        <time>2021-08-12T08:38:51Z</time>
      </trkpt>
      <trkpt lat="45.50755" lon="6.73709">
        <ele>1983.1</ele>
        <time>2021-08-12T08:38:52Z</time>
      </trkpt>
      <trkpt lat="45.50755" lon="6.73709">
        <ele>1983.1</ele>
        <time>2021-08-12T08:38:53Z</time>
      </trkpt>
      <trkpt lat="45.50755" lon="6.73709">
        <ele>1983.1</ele>
        <time>2021-08-12T08:38:54Z</time>
      </trkpt>
      <trkpt lat="45.50755" lon="6.73709">
        <ele>1983.1</ele>
        <time>2021-08-12T08:38:55Z</time>
      </trkpt>
      <trkpt lat="45.50755" lon="6.73709">
        <ele>1983.2</ele>
        <time>2021-08-12T08:38:56Z</time>
      </trkpt>
      <trkpt lat="45.50755" lon="6.73709">
        <ele>1983.2</ele>
        <time>2021-08-12T08:38:57Z</time>
      </trkpt>
      <trkpt lat="45.50755" lon="6.73709">
        <ele>1983.2</ele>
        <time>2021-08-12T08:38:58Z</time>
      </trkpt>
      <trkpt lat="45.50755" lon="6.73709">
        <ele>1983.3</ele>
        <time>2021-08-12T08:38:59Z</time>
      </trkpt>
      <trkpt lat="45.50754" lon="6.73709">
        <ele>1983.3</ele>
        <time>2021-08-12T08:39:00Z</time>
      </trkpt>
      <trkpt lat="45.50754" lon="6.7371">
        <ele>1983.4</ele>
        <time>2021-08-12T08:39:01Z</time>
      </trkpt>
      <trkpt lat="45.50754" lon="6.7371">
        <ele>1983.5</ele>
        <time>2021-08-12T08:39:02Z</time>
      </trkpt>
      <trkpt lat="45.50753" lon="6.7371">
        <ele>1983.5</ele>
        <time>2021-08-12T08:39:03Z</time>
      </trkpt>
      <trkpt lat="45.50753" lon="6.73711">
        <ele>1983.6</ele>
        <time>2021-08-12T08:39:04Z</time>
      </trkpt>
      <trkpt lat="45.50753" lon="6.73711">
        <ele>1983.7</ele>
        <time>2021-08-12T08:39:05Z</time>
      </trkpt>
      <trkpt lat="45.50753" lon="6.73711">
        <ele>1983.7</ele>
        <time>2021-08-12T08:39:06Z</time>
      </trkpt>
      <trkpt lat="45.50752" lon="6.73711">
        <ele>1983.8</ele>
        <time>2021-08-12T08:39:07Z</time>
      </trkpt>
      <trkpt lat="45.50752" lon="6.73711">
        <ele>1983.8</ele>
        <time>2021-08-12T08:39:08Z</time>
      </trkpt>
      <trkpt lat="45.50752" lon="6.73712">
        <ele>1983.9</ele>
        <time>2021-08-12T08:39:09Z</time>
      </trkpt>
      <trkpt lat="45.50752" lon="6.73712">
        <ele>1983.9</ele>
        <time>2021-08-12T08:39:10Z</time>
      </trkpt>
      <trkpt lat="45.50752" lon="6.73712">
        <ele>1983.9</ele>
        <time>2021-08-12T08:39:11Z</time>
      </trkpt>
      <trkpt lat="45.50752" lon="6.73712">
        <ele>1983.9</ele>
        <time>2021-08-12T08:39:12Z</time>
      </trkpt>
      <trkpt lat="45.50752" lon="6.73711">
        <ele>1983.9</ele>
        <time>2021-08-12T08:39:13Z</time>
      </trkpt>
      <trkpt lat="45.50752" lon="6.73711">
        <ele>1983.9</ele>
        <time>2021-08-12T08:39:14Z</time>
      </trkpt>
      <trkpt lat="45.50752" lon="6.73711">
        <ele>1983.9</ele>
        <time>2021-08-12T08:39:15Z</time>
      </trkpt>
      <trkpt lat="45.50752" lon="6.73711">
        <ele>1983.9</ele>
        <time>2021-08-12T08:39:16Z</time>
      </trkpt>
      <trkpt lat="45.50752" lon="6.73711">
        <ele>1983.9</ele>
        <time>2021-08-12T08:39:17Z</time>
      </trkpt>
      <trkpt lat="45.50752" lon="6.73711">
        <ele>1984</ele>
        <time>2021-08-12T08:39:18Z</time>
      </trkpt>
      <trkpt lat="45.50752" lon="6.73711">
        <ele>1984</ele>
        <time>2021-08-12T08:39:19Z</time>
      </trkpt>
      <trkpt lat="45.50752" lon="6.73711">
        <ele>1984</ele>
        <time>2021-08-12T08:39:20Z</time>
      </trkpt>
      <trkpt lat="45.50752" lon="6.73711">
        <ele>1984.1</ele>
        <time>2021-08-12T08:39:21Z</time>
      </trkpt>
      <trkpt lat="45.50752" lon="6.73711">
        <ele>1984.1</ele>
        <time>2021-08-12T08:39:22Z</time>
      </trkpt>
      <trkpt lat="45.50751" lon="6.73711">
        <ele>1984.1</ele>
        <time>2021-08-12T08:39:23Z</time>
      </trkpt>
      <trkpt lat="45.50751" lon="6.73711">
        <ele>1984.2</ele>
        <time>2021-08-12T08:39:24Z</time>
      </trkpt>
      <trkpt lat="45.50751" lon="6.73711">
        <ele>1984.2</ele>
        <time>2021-08-12T08:39:25Z</time>
      </trkpt>
      <trkpt lat="45.50751" lon="6.73711">
        <ele>1984.2</ele>
        <time>2021-08-12T08:39:26Z</time>
      </trkpt>
      <trkpt lat="45.50751" lon="6.73711">
        <ele>1984.3</ele>
        <time>2021-08-12T08:39:27Z</time>
      </trkpt>
      <trkpt lat="45.50751" lon="6.73711">
        <ele>1984.3</ele>
        <time>2021-08-12T08:39:28Z</time>
      </trkpt>
      <trkpt lat="45.50751" lon="6.73711">
        <ele>1984.3</ele>
        <time>2021-08-12T08:39:29Z</time>
      </trkpt>
      <trkpt lat="45.5075" lon="6.7371">
        <ele>1984.4</ele>
        <time>2021-08-12T08:39:30Z</time>
      </trkpt>
      <trkpt lat="45.5075" lon="6.7371">
        <ele>1984.4</ele>
        <time>2021-08-12T08:39:31Z</time>
      </trkpt>
      <trkpt lat="45.5075" lon="6.7371">
        <ele>1984.4</ele>
        <time>2021-08-12T08:39:32Z</time>
      </trkpt>
      <trkpt lat="45.5075" lon="6.7371">
        <ele>1984.5</ele>
        <time>2021-08-12T08:39:33Z</time>
      </trkpt>
      <trkpt lat="45.5075" lon="6.7371">
        <ele>1984.5</ele>
        <time>2021-08-12T08:39:34Z</time>
      </trkpt>
      <trkpt lat="45.5075" lon="6.7371">
        <ele>1984.6</ele>
        <time>2021-08-12T08:39:35Z</time>
      </trkpt>
      <trkpt lat="45.5075" lon="6.73709">
        <ele>1984.6</ele>
        <time>2021-08-12T08:39:36Z</time>
      </trkpt>
      <trkpt lat="45.50749" lon="6.73709">
        <ele>1984.7</ele>
        <time>2021-08-12T08:39:37Z</time>
      </trkpt>
      <trkpt lat="45.50749" lon="6.73709">
        <ele>1984.7</ele>
        <time>2021-08-12T08:39:38Z</time>
      </trkpt>
      <trkpt lat="45.50749" lon="6.73709">
        <ele>1984.7</ele>
        <time>2021-08-12T08:39:39Z</time>
      </trkpt>
      <trkpt lat="45.50749" lon="6.73709">
        <ele>1984.8</ele>
        <time>2021-08-12T08:39:40Z</time>
      </trkpt>
      <trkpt lat="45.50749" lon="6.73709">
        <ele>1984.8</ele>
        <time>2021-08-12T08:39:41Z</time>
      </trkpt>
      <trkpt lat="45.50749" lon="6.73708">
        <ele>1984.9</ele>
        <time>2021-08-12T08:39:42Z</time>
      </trkpt>
      <trkpt lat="45.50748" lon="6.73708">
        <ele>1984.9</ele>
        <time>2021-08-12T08:39:43Z</time>
      </trkpt>
      <trkpt lat="45.50748" lon="6.73708">
        <ele>1985</ele>
        <time>2021-08-12T08:39:44Z</time>
      </trkpt>
      <trkpt lat="45.50748" lon="6.73708">
        <ele>1985</ele>
        <time>2021-08-12T08:39:45Z</time>
      </trkpt>
      <trkpt lat="45.50748" lon="6.73707">
        <ele>1985.1</ele>
        <time>2021-08-12T08:39:46Z</time>
      </trkpt>
      <trkpt lat="45.50747" lon="6.73707">
        <ele>1985.2</ele>
        <time>2021-08-12T08:39:47Z</time>
      </trkpt>
      <trkpt lat="45.50747" lon="6.73707">
        <ele>1985.3</ele>
        <time>2021-08-12T08:39:48Z</time>
      </trkpt>
      <trkpt lat="45.50746" lon="6.73706">
        <ele>1985.4</ele>
        <time>2021-08-12T08:39:49Z</time>
      </trkpt>
      <trkpt lat="45.50746" lon="6.73706">
        <ele>1985.6</ele>
        <time>2021-08-12T08:39:50Z</time>
      </trkpt>
      <trkpt lat="45.50746" lon="6.73705">
        <ele>1985.7</ele>
        <time>2021-08-12T08:39:51Z</time>
      </trkpt>
      <trkpt lat="45.50745" lon="6.73705">
        <ele>1985.8</ele>
        <time>2021-08-12T08:39:52Z</time>
      </trkpt>
      <trkpt lat="45.50745" lon="6.73704">
        <ele>1985.9</ele>
        <time>2021-08-12T08:39:53Z</time>
      </trkpt>
      <trkpt lat="45.50745" lon="6.73704">
        <ele>1986</ele>
        <time>2021-08-12T08:39:54Z</time>
      </trkpt>
      <trkpt lat="45.50744" lon="6.73703">
        <ele>1986.1</ele>
        <time>2021-08-12T08:39:55Z</time>
      </trkpt>
      <trkpt lat="45.50744" lon="6.73703">
        <ele>1986.2</ele>
        <time>2021-08-12T08:39:56Z</time>
      </trkpt>
      <trkpt lat="45.50744" lon="6.73702">
        <ele>1986.3</ele>
        <time>2021-08-12T08:39:57Z</time>
      </trkpt>
      <trkpt lat="45.50743" lon="6.73702">
        <ele>1986.4</ele>
        <time>2021-08-12T08:39:58Z</time>
      </trkpt>
      <trkpt lat="45.50743" lon="6.73702">
        <ele>1986.4</ele>
        <time>2021-08-12T08:39:59Z</time>
      </trkpt>
      <trkpt lat="45.50743" lon="6.73701">
        <ele>1986.5</ele>
        <time>2021-08-12T08:40:00Z</time>
      </trkpt>
      <trkpt lat="45.50742" lon="6.73701">
        <ele>1986.6</ele>
        <time>2021-08-12T08:40:01Z</time>
      </trkpt>
      <trkpt lat="45.50742" lon="6.73701">
        <ele>1986.7</ele>
        <time>2021-08-12T08:40:02Z</time>
      </trkpt>
      <trkpt lat="45.50742" lon="6.737">
        <ele>1986.7</ele>
        <time>2021-08-12T08:40:03Z</time>
      </trkpt>
      <trkpt lat="45.50742" lon="6.737">
        <ele>1986.8</ele>
        <time>2021-08-12T08:40:04Z</time>
      </trkpt>
      <trkpt lat="45.50742" lon="6.737">
        <ele>1986.8</ele>
        <time>2021-08-12T08:40:05Z</time>
      </trkpt>
      <trkpt lat="45.50742" lon="6.737">
        <ele>1986.8</ele>
        <time>2021-08-12T08:40:06Z</time>
      </trkpt>
      <trkpt lat="45.50742" lon="6.737">
        <ele>1986.9</ele>
        <time>2021-08-12T08:40:07Z</time>
      </trkpt>
      <trkpt lat="45.50742" lon="6.73699">
        <ele>1986.9</ele>
        <time>2021-08-12T08:40:08Z</time>
      </trkpt>
      <trkpt lat="45.50742" lon="6.73699">
        <ele>1986.9</ele>
        <time>2021-08-12T08:40:09Z</time>
      </trkpt>
      <trkpt lat="45.50742" lon="6.73699">
        <ele>1986.9</ele>
        <time>2021-08-12T08:40:10Z</time>
      </trkpt>
      <trkpt lat="45.50742" lon="6.73699">
        <ele>1986.9</ele>
        <time>2021-08-12T08:40:11Z</time>
      </trkpt>
      <trkpt lat="45.50742" lon="6.73699">
        <ele>1986.9</ele>
        <time>2021-08-12T08:40:12Z</time>
      </trkpt>
      <trkpt lat="45.50742" lon="6.73699">
        <ele>1986.9</ele>
        <time>2021-08-12T08:40:13Z</time>
      </trkpt>
      <trkpt lat="45.50742" lon="6.73699">
        <ele>1986.9</ele>
        <time>2021-08-12T08:40:14Z</time>
      </trkpt>
      <trkpt lat="45.50742" lon="6.73699">
        <ele>1986.9</ele>
        <time>2021-08-12T08:40:15Z</time>
      </trkpt>
      <trkpt lat="45.50742" lon="6.737">
        <ele>1986.9</ele>
        <time>2021-08-12T08:40:16Z</time>
      </trkpt>
      <trkpt lat="45.50742" lon="6.737">
        <ele>1986.9</ele>
        <time>2021-08-12T08:40:17Z</time>
      </trkpt>
      <trkpt lat="45.50742" lon="6.73699">
        <ele>1987</ele>
        <time>2021-08-12T08:40:18Z</time>
      </trkpt>
      <trkpt lat="45.50742" lon="6.73699">
        <ele>1987</ele>
        <time>2021-08-12T08:40:19Z</time>
      </trkpt>
      <trkpt lat="45.50742" lon="6.73699">
        <ele>1987</ele>
        <time>2021-08-12T08:40:20Z</time>
      </trkpt>
      <trkpt lat="45.50742" lon="6.73699">
        <ele>1987</ele>
        <time>2021-08-12T08:40:21Z</time>
      </trkpt>
      <trkpt lat="45.50741" lon="6.73699">
        <ele>1987.1</ele>
        <time>2021-08-12T08:40:22Z</time>
      </trkpt>
      <trkpt lat="45.50741" lon="6.73698">
        <ele>1987.2</ele>
        <time>2021-08-12T08:40:23Z</time>
      </trkpt>
      <trkpt lat="45.50741" lon="6.73698">
        <ele>1987.2</ele>
        <time>2021-08-12T08:40:24Z</time>
      </trkpt>
      <trkpt lat="45.50741" lon="6.73698">
        <ele>1987.3</ele>
        <time>2021-08-12T08:40:25Z</time>
      </trkpt>
      <trkpt lat="45.5074" lon="6.73697">
        <ele>1987.4</ele>
        <time>2021-08-12T08:40:26Z</time>
      </trkpt>
      <trkpt lat="45.5074" lon="6.73697">
        <ele>1987.5</ele>
        <time>2021-08-12T08:40:27Z</time>
      </trkpt>
      <trkpt lat="45.50739" lon="6.73696">
        <ele>1987.7</ele>
        <time>2021-08-12T08:40:28Z</time>
      </trkpt>
      <trkpt lat="45.50739" lon="6.73696">
        <ele>1987.8</ele>
        <time>2021-08-12T08:40:29Z</time>
      </trkpt>
      <trkpt lat="45.50739" lon="6.73695">
        <ele>1987.9</ele>
        <time>2021-08-12T08:40:30Z</time>
      </trkpt>
      <trkpt lat="45.50738" lon="6.73694">
        <ele>1988.1</ele>
        <time>2021-08-12T08:40:31Z</time>
      </trkpt>
      <trkpt lat="45.50738" lon="6.73694">
        <ele>1988.2</ele>
        <time>2021-08-12T08:40:32Z</time>
      </trkpt>
      <trkpt lat="45.50737" lon="6.73693">
        <ele>1988.3</ele>
        <time>2021-08-12T08:40:33Z</time>
      </trkpt>
      <trkpt lat="45.50737" lon="6.73693">
        <ele>1988.5</ele>
        <time>2021-08-12T08:40:34Z</time>
      </trkpt>
      <trkpt lat="45.50736" lon="6.73692">
        <ele>1988.6</ele>
        <time>2021-08-12T08:40:35Z</time>
      </trkpt>
      <trkpt lat="45.50736" lon="6.73692">
        <ele>1988.7</ele>
        <time>2021-08-12T08:40:36Z</time>
      </trkpt>
      <trkpt lat="45.50735" lon="6.73692">
        <ele>1988.8</ele>
        <time>2021-08-12T08:40:37Z</time>
      </trkpt>
      <trkpt lat="45.50735" lon="6.73691">
        <ele>1988.9</ele>
        <time>2021-08-12T08:40:38Z</time>
      </trkpt>
      <trkpt lat="45.50734" lon="6.73691">
        <ele>1989</ele>
        <time>2021-08-12T08:40:39Z</time>
      </trkpt>
      <trkpt lat="45.50734" lon="6.73691">
        <ele>1989.1</ele>
        <time>2021-08-12T08:40:40Z</time>
      </trkpt>
      <trkpt lat="45.50733" lon="6.73691">
        <ele>1989.2</ele>
        <time>2021-08-12T08:40:41Z</time>
      </trkpt>
      <trkpt lat="45.50733" lon="6.7369">
        <ele>1989.3</ele>
        <time>2021-08-12T08:40:42Z</time>
      </trkpt>
      <trkpt lat="45.50733" lon="6.7369">
        <ele>1989.4</ele>
        <time>2021-08-12T08:40:43Z</time>
      </trkpt>
      <trkpt lat="45.50733" lon="6.7369">
        <ele>1989.4</ele>
        <time>2021-08-12T08:40:44Z</time>
      </trkpt>
      <trkpt lat="45.50732" lon="6.7369">
        <ele>1989.4</ele>
        <time>2021-08-12T08:40:45Z</time>
      </trkpt>
      <trkpt lat="45.50732" lon="6.7369">
        <ele>1989.5</ele>
        <time>2021-08-12T08:40:46Z</time>
      </trkpt>
      <trkpt lat="45.50732" lon="6.7369">
        <ele>1989.5</ele>
        <time>2021-08-12T08:40:47Z</time>
      </trkpt>
      <trkpt lat="45.50732" lon="6.7369">
        <ele>1989.5</ele>
        <time>2021-08-12T08:40:48Z</time>
      </trkpt>
      <trkpt lat="45.50732" lon="6.7369">
        <ele>1989.5</ele>
        <time>2021-08-12T08:40:49Z</time>
      </trkpt>
      <trkpt lat="45.50732" lon="6.7369">
        <ele>1989.5</ele>
        <time>2021-08-12T08:40:50Z</time>
      </trkpt>
      <trkpt lat="45.50732" lon="6.7369">
        <ele>1989.5</ele>
        <time>2021-08-12T08:40:51Z</time>
      </trkpt>
      <trkpt lat="45.50732" lon="6.7369">
        <ele>1989.5</ele>
        <time>2021-08-12T08:40:52Z</time>
      </trkpt>
      <trkpt lat="45.50732" lon="6.7369">
        <ele>1989.5</ele>
        <time>2021-08-12T08:40:53Z</time>
      </trkpt>
      <trkpt lat="45.50732" lon="6.7369">
        <ele>1989.6</ele>
        <time>2021-08-12T08:40:54Z</time>
      </trkpt>
      <trkpt lat="45.50732" lon="6.7369">
        <ele>1989.6</ele>
        <time>2021-08-12T08:40:55Z</time>
      </trkpt>
      <trkpt lat="45.50732" lon="6.7369">
        <ele>1989.7</ele>
        <time>2021-08-12T08:40:56Z</time>
      </trkpt>
      <trkpt lat="45.50731" lon="6.7369">
        <ele>1989.8</ele>
        <time>2021-08-12T08:40:57Z</time>
      </trkpt>
      <trkpt lat="45.50731" lon="6.7369">
        <ele>1989.9</ele>
        <time>2021-08-12T08:40:58Z</time>
      </trkpt>
      <trkpt lat="45.5073" lon="6.7369">
        <ele>1990</ele>
        <time>2021-08-12T08:40:59Z</time>
      </trkpt>
      <trkpt lat="45.5073" lon="6.7369">
        <ele>1990.1</ele>
        <time>2021-08-12T08:41:00Z</time>
      </trkpt>
      <trkpt lat="45.50729" lon="6.7369">
        <ele>1990.2</ele>
        <time>2021-08-12T08:41:01Z</time>
      </trkpt>
      <trkpt lat="45.50729" lon="6.7369">
        <ele>1990.3</ele>
        <time>2021-08-12T08:41:02Z</time>
      </trkpt>
      <trkpt lat="45.50728" lon="6.7369">
        <ele>1990.4</ele>
        <time>2021-08-12T08:41:03Z</time>
      </trkpt>
      <trkpt lat="45.50728" lon="6.7369">
        <ele>1990.5</ele>
        <time>2021-08-12T08:41:04Z</time>
      </trkpt>
      <trkpt lat="45.50728" lon="6.7369">
        <ele>1990.5</ele>
        <time>2021-08-12T08:41:05Z</time>
      </trkpt>
      <trkpt lat="45.50727" lon="6.7369">
        <ele>1990.6</ele>
        <time>2021-08-12T08:41:06Z</time>
      </trkpt>
      <trkpt lat="45.50727" lon="6.7369">
        <ele>1990.6</ele>
        <time>2021-08-12T08:41:07Z</time>
      </trkpt>
      <trkpt lat="45.50727" lon="6.73691">
        <ele>1990.6</ele>
        <time>2021-08-12T08:41:08Z</time>
      </trkpt>
      <trkpt lat="45.50727" lon="6.73691">
        <ele>1990.6</ele>
        <time>2021-08-12T08:41:09Z</time>
      </trkpt>
      <trkpt lat="45.50727" lon="6.73691">
        <ele>1990.6</ele>
        <time>2021-08-12T08:41:10Z</time>
      </trkpt>
      <trkpt lat="45.50727" lon="6.73691">
        <ele>1990.6</ele>
        <time>2021-08-12T08:41:11Z</time>
      </trkpt>
      <trkpt lat="45.50727" lon="6.73691">
        <ele>1990.7</ele>
        <time>2021-08-12T08:41:12Z</time>
      </trkpt>
      <trkpt lat="45.50727" lon="6.73691">
        <ele>1990.7</ele>
        <time>2021-08-12T08:41:13Z</time>
      </trkpt>
      <trkpt lat="45.50727" lon="6.73691">
        <ele>1990.7</ele>
        <time>2021-08-12T08:41:14Z</time>
      </trkpt>
      <trkpt lat="45.50728" lon="6.73691">
        <ele>1990.8</ele>
        <time>2021-08-12T08:41:15Z</time>
      </trkpt>
      <trkpt lat="45.50728" lon="6.73692">
        <ele>1990.8</ele>
        <time>2021-08-12T08:41:16Z</time>
      </trkpt>
      <trkpt lat="45.50727" lon="6.73692">
        <ele>1990.9</ele>
        <time>2021-08-12T08:41:17Z</time>
      </trkpt>
      <trkpt lat="45.50727" lon="6.73692">
        <ele>1990.9</ele>
        <time>2021-08-12T08:41:18Z</time>
      </trkpt>
      <trkpt lat="45.50727" lon="6.73693">
        <ele>1990.9</ele>
        <time>2021-08-12T08:41:19Z</time>
      </trkpt>
      <trkpt lat="45.50727" lon="6.73693">
        <ele>1991</ele>
        <time>2021-08-12T08:41:20Z</time>
      </trkpt>
      <trkpt lat="45.50727" lon="6.73693">
        <ele>1991.1</ele>
        <time>2021-08-12T08:41:21Z</time>
      </trkpt>
      <trkpt lat="45.50727" lon="6.73694">
        <ele>1991.1</ele>
        <time>2021-08-12T08:41:22Z</time>
      </trkpt>
      <trkpt lat="45.50727" lon="6.73694">
        <ele>1991.2</ele>
        <time>2021-08-12T08:41:23Z</time>
      </trkpt>
      <trkpt lat="45.50727" lon="6.73694">
        <ele>1991.2</ele>
        <time>2021-08-12T08:41:24Z</time>
      </trkpt>
      <trkpt lat="45.50727" lon="6.73694">
        <ele>1991.2</ele>
        <time>2021-08-12T08:41:25Z</time>
      </trkpt>
      <trkpt lat="45.50727" lon="6.73694">
        <ele>1991.3</ele>
        <time>2021-08-12T08:41:26Z</time>
      </trkpt>
      <trkpt lat="45.50727" lon="6.73695">
        <ele>1991.3</ele>
        <time>2021-08-12T08:41:27Z</time>
      </trkpt>
      <trkpt lat="45.50727" lon="6.73695">
        <ele>1991.3</ele>
        <time>2021-08-12T08:41:28Z</time>
      </trkpt>
      <trkpt lat="45.50727" lon="6.73695">
        <ele>1991.3</ele>
        <time>2021-08-12T08:41:29Z</time>
      </trkpt>
      <trkpt lat="45.50727" lon="6.73695">
        <ele>1991.3</ele>
        <time>2021-08-12T08:41:30Z</time>
      </trkpt>
      <trkpt lat="45.50727" lon="6.73695">
        <ele>1991.3</ele>
        <time>2021-08-12T08:41:31Z</time>
      </trkpt>
      <trkpt lat="45.50727" lon="6.73695">
        <ele>1991.3</ele>
        <time>2021-08-12T08:41:32Z</time>
      </trkpt>
      <trkpt lat="45.50727" lon="6.73695">
        <ele>1991.3</ele>
        <time>2021-08-12T08:41:33Z</time>
      </trkpt>
      <trkpt lat="45.50727" lon="6.73695">
        <ele>1991.3</ele>
        <time>2021-08-12T08:41:34Z</time>
      </trkpt>
      <trkpt lat="45.50727" lon="6.73695">
        <ele>1991.3</ele>
        <time>2021-08-12T08:41:35Z</time>
      </trkpt>
      <trkpt lat="45.50727" lon="6.73695">
        <ele>1991.3</ele>
        <time>2021-08-12T08:41:36Z</time>
      </trkpt>
      <trkpt lat="45.50727" lon="6.73695">
        <ele>1991.3</ele>
        <time>2021-08-12T08:41:37Z</time>
      </trkpt>
      <trkpt lat="45.50727" lon="6.73695">
        <ele>1991.4</ele>
        <time>2021-08-12T08:41:38Z</time>
      </trkpt>
      <trkpt lat="45.50727" lon="6.73695">
        <ele>1991.4</ele>
        <time>2021-08-12T08:41:39Z</time>
      </trkpt>
      <trkpt lat="45.50727" lon="6.73695">
        <ele>1991.4</ele>
        <time>2021-08-12T08:41:40Z</time>
      </trkpt>
      <trkpt lat="45.50727" lon="6.73695">
        <ele>1991.5</ele>
        <time>2021-08-12T08:41:41Z</time>
      </trkpt>
      <trkpt lat="45.50727" lon="6.73696">
        <ele>1991.5</ele>
        <time>2021-08-12T08:41:42Z</time>
      </trkpt>
      <trkpt lat="45.50727" lon="6.73696">
        <ele>1991.6</ele>
        <time>2021-08-12T08:41:43Z</time>
      </trkpt>
      <trkpt lat="45.50727" lon="6.73697">
        <ele>1991.6</ele>
        <time>2021-08-12T08:41:44Z</time>
      </trkpt>
      <trkpt lat="45.50727" lon="6.73697">
        <ele>1991.7</ele>
        <time>2021-08-12T08:41:45Z</time>
      </trkpt>
      <trkpt lat="45.50727" lon="6.73698">
        <ele>1991.8</ele>
        <time>2021-08-12T08:41:46Z</time>
      </trkpt>
      <trkpt lat="45.50727" lon="6.73698">
        <ele>1991.9</ele>
        <time>2021-08-12T08:41:47Z</time>
      </trkpt>
      <trkpt lat="45.50727" lon="6.73699">
        <ele>1991.9</ele>
        <time>2021-08-12T08:41:48Z</time>
      </trkpt>
      <trkpt lat="45.50727" lon="6.73699">
        <ele>1992</ele>
        <time>2021-08-12T08:41:49Z</time>
      </trkpt>
      <trkpt lat="45.50727" lon="6.737">
        <ele>1992.1</ele>
        <time>2021-08-12T08:41:50Z</time>
      </trkpt>
      <trkpt lat="45.50727" lon="6.737">
        <ele>1992.2</ele>
        <time>2021-08-12T08:41:51Z</time>
      </trkpt>
      <trkpt lat="45.50727" lon="6.73701">
        <ele>1992.2</ele>
        <time>2021-08-12T08:41:52Z</time>
      </trkpt>
      <trkpt lat="45.50727" lon="6.73701">
        <ele>1992.3</ele>
        <time>2021-08-12T08:41:53Z</time>
      </trkpt>
      <trkpt lat="45.50727" lon="6.73702">
        <ele>1992.4</ele>
        <time>2021-08-12T08:41:54Z</time>
      </trkpt>
      <trkpt lat="45.50727" lon="6.73702">
        <ele>1992.4</ele>
        <time>2021-08-12T08:41:55Z</time>
      </trkpt>
      <trkpt lat="45.50727" lon="6.73702">
        <ele>1992.5</ele>
        <time>2021-08-12T08:41:56Z</time>
      </trkpt>
      <trkpt lat="45.50727" lon="6.73703">
        <ele>1992.5</ele>
        <time>2021-08-12T08:41:57Z</time>
      </trkpt>
      <trkpt lat="45.50727" lon="6.73703">
        <ele>1992.6</ele>
        <time>2021-08-12T08:41:58Z</time>
      </trkpt>
      <trkpt lat="45.50727" lon="6.73703">
        <ele>1992.7</ele>
        <time>2021-08-12T08:41:59Z</time>
      </trkpt>
      <trkpt lat="45.50727" lon="6.73704">
        <ele>1992.7</ele>
        <time>2021-08-12T08:42:00Z</time>
      </trkpt>
      <trkpt lat="45.50727" lon="6.73704">
        <ele>1992.8</ele>
        <time>2021-08-12T08:42:01Z</time>
      </trkpt>
      <trkpt lat="45.50727" lon="6.73704">
        <ele>1992.8</ele>
        <time>2021-08-12T08:42:02Z</time>
      </trkpt>
      <trkpt lat="45.50727" lon="6.73705">
        <ele>1992.9</ele>
        <time>2021-08-12T08:42:03Z</time>
      </trkpt>
      <trkpt lat="45.50726" lon="6.73705">
        <ele>1992.9</ele>
        <time>2021-08-12T08:42:04Z</time>
      </trkpt>
      <trkpt lat="45.50726" lon="6.73706">
        <ele>1993</ele>
        <time>2021-08-12T08:42:05Z</time>
      </trkpt>
      <trkpt lat="45.50726" lon="6.73706">
        <ele>1993.1</ele>
        <time>2021-08-12T08:42:06Z</time>
      </trkpt>
      <trkpt lat="45.50726" lon="6.73706">
        <ele>1993.1</ele>
        <time>2021-08-12T08:42:07Z</time>
      </trkpt>
      <trkpt lat="45.50726" lon="6.73707">
        <ele>1993.2</ele>
        <time>2021-08-12T08:42:08Z</time>
      </trkpt>
      <trkpt lat="45.50726" lon="6.73707">
        <ele>1993.2</ele>
        <time>2021-08-12T08:42:09Z</time>
      </trkpt>
      <trkpt lat="45.50726" lon="6.73707">
        <ele>1993.3</ele>
        <time>2021-08-12T08:42:10Z</time>
      </trkpt>
      <trkpt lat="45.50726" lon="6.73708">
        <ele>1993.4</ele>
        <time>2021-08-12T08:42:11Z</time>
      </trkpt>
      <trkpt lat="45.50726" lon="6.73708">
        <ele>1993.4</ele>
        <time>2021-08-12T08:42:12Z</time>
      </trkpt>
      <trkpt lat="45.50726" lon="6.73708">
        <ele>1993.5</ele>
        <time>2021-08-12T08:42:13Z</time>
      </trkpt>
      <trkpt lat="45.50726" lon="6.73709">
        <ele>1993.5</ele>
        <time>2021-08-12T08:42:14Z</time>
      </trkpt>
      <trkpt lat="45.50726" lon="6.73709">
        <ele>1993.6</ele>
        <time>2021-08-12T08:42:15Z</time>
      </trkpt>
      <trkpt lat="45.50725" lon="6.7371">
        <ele>1993.6</ele>
        <time>2021-08-12T08:42:16Z</time>
      </trkpt>
      <trkpt lat="45.50725" lon="6.7371">
        <ele>1993.7</ele>
        <time>2021-08-12T08:42:17Z</time>
      </trkpt>
      <trkpt lat="45.50725" lon="6.7371">
        <ele>1993.7</ele>
        <time>2021-08-12T08:42:18Z</time>
      </trkpt>
      <trkpt lat="45.50725" lon="6.73711">
        <ele>1993.8</ele>
        <time>2021-08-12T08:42:19Z</time>
      </trkpt>
      <trkpt lat="45.50725" lon="6.73711">
        <ele>1993.9</ele>
        <time>2021-08-12T08:42:20Z</time>
      </trkpt>
      <trkpt lat="45.50725" lon="6.73711">
        <ele>1993.9</ele>
        <time>2021-08-12T08:42:21Z</time>
      </trkpt>
      <trkpt lat="45.50725" lon="6.73712">
        <ele>1994</ele>
        <time>2021-08-12T08:42:22Z</time>
      </trkpt>
      <trkpt lat="45.50725" lon="6.73712">
        <ele>1994</ele>
        <time>2021-08-12T08:42:23Z</time>
      </trkpt>
      <trkpt lat="45.50725" lon="6.73712">
        <ele>1994.1</ele>
        <time>2021-08-12T08:42:24Z</time>
      </trkpt>
      <trkpt lat="45.50725" lon="6.73713">
        <ele>1994.1</ele>
        <time>2021-08-12T08:42:25Z</time>
      </trkpt>
      <trkpt lat="45.50725" lon="6.73713">
        <ele>1994.2</ele>
        <time>2021-08-12T08:42:26Z</time>
      </trkpt>
      <trkpt lat="45.50725" lon="6.73713">
        <ele>1994.3</ele>
        <time>2021-08-12T08:42:27Z</time>
      </trkpt>
      <trkpt lat="45.50725" lon="6.73714">
        <ele>1994.3</ele>
        <time>2021-08-12T08:42:28Z</time>
      </trkpt>
      <trkpt lat="45.50724" lon="6.73714">
        <ele>1994.4</ele>
        <time>2021-08-12T08:42:29Z</time>
      </trkpt>
      <trkpt lat="45.50724" lon="6.73715">
        <ele>1994.4</ele>
        <time>2021-08-12T08:42:30Z</time>
      </trkpt>
      <trkpt lat="45.50724" lon="6.73715">
        <ele>1994.5</ele>
        <time>2021-08-12T08:42:31Z</time>
      </trkpt>
      <trkpt lat="45.50724" lon="6.73715">
        <ele>1994.6</ele>
        <time>2021-08-12T08:42:32Z</time>
      </trkpt>
      <trkpt lat="45.50724" lon="6.73716">
        <ele>1994.6</ele>
        <time>2021-08-12T08:42:33Z</time>
      </trkpt>
      <trkpt lat="45.50724" lon="6.73716">
        <ele>1994.7</ele>
        <time>2021-08-12T08:42:34Z</time>
      </trkpt>
      <trkpt lat="45.50724" lon="6.73716">
        <ele>1994.7</ele>
        <time>2021-08-12T08:42:35Z</time>
      </trkpt>
      <trkpt lat="45.50724" lon="6.73717">
        <ele>1994.8</ele>
        <time>2021-08-12T08:42:36Z</time>
      </trkpt>
      <trkpt lat="45.50724" lon="6.73717">
        <ele>1994.9</ele>
        <time>2021-08-12T08:42:37Z</time>
      </trkpt>
      <trkpt lat="45.50724" lon="6.73718">
        <ele>1995</ele>
        <time>2021-08-12T08:42:38Z</time>
      </trkpt>
      <trkpt lat="45.50723" lon="6.73719">
        <ele>1995.1</ele>
        <time>2021-08-12T08:42:39Z</time>
      </trkpt>
      <trkpt lat="45.50723" lon="6.73719">
        <ele>1995.1</ele>
        <time>2021-08-12T08:42:40Z</time>
      </trkpt>
      <trkpt lat="45.50723" lon="6.73719">
        <ele>1995.2</ele>
        <time>2021-08-12T08:42:41Z</time>
      </trkpt>
      <trkpt lat="45.50723" lon="6.7372">
        <ele>1995.3</ele>
        <time>2021-08-12T08:42:42Z</time>
      </trkpt>
      <trkpt lat="45.50723" lon="6.7372">
        <ele>1995.3</ele>
        <time>2021-08-12T08:42:43Z</time>
      </trkpt>
      <trkpt lat="45.50723" lon="6.7372">
        <ele>1995.3</ele>
        <time>2021-08-12T08:42:44Z</time>
      </trkpt>
      <trkpt lat="45.50723" lon="6.7372">
        <ele>1995.3</ele>
        <time>2021-08-12T08:42:45Z</time>
      </trkpt>
      <trkpt lat="45.50723" lon="6.7372">
        <ele>1995.3</ele>
        <time>2021-08-12T08:42:46Z</time>
      </trkpt>
      <trkpt lat="45.50723" lon="6.7372">
        <ele>1995.3</ele>
        <time>2021-08-12T08:42:47Z</time>
      </trkpt>
      <trkpt lat="45.50723" lon="6.7372">
        <ele>1995.3</ele>
        <time>2021-08-12T08:42:48Z</time>
      </trkpt>
      <trkpt lat="45.50723" lon="6.7372">
        <ele>1995.3</ele>
        <time>2021-08-12T08:42:49Z</time>
      </trkpt>
      <trkpt lat="45.50723" lon="6.7372">
        <ele>1995.4</ele>
        <time>2021-08-12T08:42:50Z</time>
      </trkpt>
      <trkpt lat="45.50723" lon="6.7372">
        <ele>1995.4</ele>
        <time>2021-08-12T08:42:51Z</time>
      </trkpt>
      <trkpt lat="45.50723" lon="6.73721">
        <ele>1995.4</ele>
        <time>2021-08-12T08:42:52Z</time>
      </trkpt>
      <trkpt lat="45.50723" lon="6.73721">
        <ele>1995.5</ele>
        <time>2021-08-12T08:42:53Z</time>
      </trkpt>
      <trkpt lat="45.50722" lon="6.73722">
        <ele>1995.6</ele>
        <time>2021-08-12T08:42:54Z</time>
      </trkpt>
      <trkpt lat="45.50722" lon="6.73722">
        <ele>1995.7</ele>
        <time>2021-08-12T08:42:55Z</time>
      </trkpt>
      <trkpt lat="45.50722" lon="6.73723">
        <ele>1995.8</ele>
        <time>2021-08-12T08:42:56Z</time>
      </trkpt>
      <trkpt lat="45.50722" lon="6.73724">
        <ele>1995.9</ele>
        <time>2021-08-12T08:42:57Z</time>
      </trkpt>
      <trkpt lat="45.50722" lon="6.73724">
        <ele>1996</ele>
        <time>2021-08-12T08:42:58Z</time>
      </trkpt>
      <trkpt lat="45.50722" lon="6.73725">
        <ele>1996.2</ele>
        <time>2021-08-12T08:42:59Z</time>
      </trkpt>
      <trkpt lat="45.50721" lon="6.73726">
        <ele>1996.3</ele>
        <time>2021-08-12T08:43:00Z</time>
      </trkpt>
      <trkpt lat="45.50721" lon="6.73727">
        <ele>1996.4</ele>
        <time>2021-08-12T08:43:01Z</time>
      </trkpt>
      <trkpt lat="45.50721" lon="6.73727">
        <ele>1996.5</ele>
        <time>2021-08-12T08:43:02Z</time>
      </trkpt>
      <trkpt lat="45.50721" lon="6.73728">
        <ele>1996.6</ele>
        <time>2021-08-12T08:43:03Z</time>
      </trkpt>
      <trkpt lat="45.50721" lon="6.73728">
        <ele>1996.6</ele>
        <time>2021-08-12T08:43:04Z</time>
      </trkpt>
      <trkpt lat="45.50721" lon="6.73729">
        <ele>1996.7</ele>
        <time>2021-08-12T08:43:05Z</time>
      </trkpt>
      <trkpt lat="45.50721" lon="6.73729">
        <ele>1996.8</ele>
        <time>2021-08-12T08:43:06Z</time>
      </trkpt>
      <trkpt lat="45.50721" lon="6.7373">
        <ele>1996.8</ele>
        <time>2021-08-12T08:43:07Z</time>
      </trkpt>
      <trkpt lat="45.50721" lon="6.7373">
        <ele>1996.9</ele>
        <time>2021-08-12T08:43:08Z</time>
      </trkpt>
      <trkpt lat="45.50721" lon="6.7373">
        <ele>1997</ele>
        <time>2021-08-12T08:43:09Z</time>
      </trkpt>
      <trkpt lat="45.50721" lon="6.73731">
        <ele>1997</ele>
        <time>2021-08-12T08:43:10Z</time>
      </trkpt>
      <trkpt lat="45.50721" lon="6.73731">
        <ele>1997.1</ele>
        <time>2021-08-12T08:43:11Z</time>
      </trkpt>
      <trkpt lat="45.50721" lon="6.73732">
        <ele>1997.2</ele>
        <time>2021-08-12T08:43:12Z</time>
      </trkpt>
      <trkpt lat="45.50721" lon="6.73732">
        <ele>1997.2</ele>
        <time>2021-08-12T08:43:13Z</time>
      </trkpt>
      <trkpt lat="45.50721" lon="6.73733">
        <ele>1997.3</ele>
        <time>2021-08-12T08:43:14Z</time>
      </trkpt>
      <trkpt lat="45.50721" lon="6.73733">
        <ele>1997.4</ele>
        <time>2021-08-12T08:43:15Z</time>
      </trkpt>
      <trkpt lat="45.50721" lon="6.73734">
        <ele>1997.5</ele>
        <time>2021-08-12T08:43:16Z</time>
      </trkpt>
      <trkpt lat="45.5072" lon="6.73734">
        <ele>1997.6</ele>
        <time>2021-08-12T08:43:17Z</time>
      </trkpt>
      <trkpt lat="45.5072" lon="6.73735">
        <ele>1997.7</ele>
        <time>2021-08-12T08:43:18Z</time>
      </trkpt>
      <trkpt lat="45.5072" lon="6.73735">
        <ele>1997.7</ele>
        <time>2021-08-12T08:43:19Z</time>
      </trkpt>
      <trkpt lat="45.5072" lon="6.73736">
        <ele>1997.8</ele>
        <time>2021-08-12T08:43:20Z</time>
      </trkpt>
      <trkpt lat="45.5072" lon="6.73736">
        <ele>1997.9</ele>
        <time>2021-08-12T08:43:21Z</time>
      </trkpt>
      <trkpt lat="45.5072" lon="6.73737">
        <ele>1998</ele>
        <time>2021-08-12T08:43:22Z</time>
      </trkpt>
      <trkpt lat="45.5072" lon="6.73737">
        <ele>1998</ele>
        <time>2021-08-12T08:43:23Z</time>
      </trkpt>
      <trkpt lat="45.5072" lon="6.73738">
        <ele>1998.1</ele>
        <time>2021-08-12T08:43:24Z</time>
      </trkpt>
      <trkpt lat="45.50719" lon="6.73738">
        <ele>1998.2</ele>
        <time>2021-08-12T08:43:25Z</time>
      </trkpt>
      <trkpt lat="45.50719" lon="6.73738">
        <ele>1998.2</ele>
        <time>2021-08-12T08:43:26Z</time>
      </trkpt>
      <trkpt lat="45.50719" lon="6.73739">
        <ele>1998.3</ele>
        <time>2021-08-12T08:43:27Z</time>
      </trkpt>
      <trkpt lat="45.50719" lon="6.73739">
        <ele>1998.3</ele>
        <time>2021-08-12T08:43:28Z</time>
      </trkpt>
      <trkpt lat="45.50719" lon="6.73739">
        <ele>1998.4</ele>
        <time>2021-08-12T08:43:29Z</time>
      </trkpt>
      <trkpt lat="45.50719" lon="6.7374">
        <ele>1998.4</ele>
        <time>2021-08-12T08:43:30Z</time>
      </trkpt>
      <trkpt lat="45.50719" lon="6.7374">
        <ele>1998.5</ele>
        <time>2021-08-12T08:43:31Z</time>
      </trkpt>
      <trkpt lat="45.50719" lon="6.7374">
        <ele>1998.5</ele>
        <time>2021-08-12T08:43:32Z</time>
      </trkpt>
      <trkpt lat="45.50719" lon="6.7374">
        <ele>1998.5</ele>
        <time>2021-08-12T08:43:33Z</time>
      </trkpt>
      <trkpt lat="45.50719" lon="6.7374">
        <ele>1998.6</ele>
        <time>2021-08-12T08:43:34Z</time>
      </trkpt>
      <trkpt lat="45.50719" lon="6.73741">
        <ele>1998.6</ele>
        <time>2021-08-12T08:43:35Z</time>
      </trkpt>
      <trkpt lat="45.50719" lon="6.73741">
        <ele>1998.6</ele>
        <time>2021-08-12T08:43:36Z</time>
      </trkpt>
      <trkpt lat="45.50719" lon="6.73741">
        <ele>1998.7</ele>
        <time>2021-08-12T08:43:37Z</time>
      </trkpt>
      <trkpt lat="45.50719" lon="6.73741">
        <ele>1998.7</ele>
        <time>2021-08-12T08:43:38Z</time>
      </trkpt>
      <trkpt lat="45.50719" lon="6.73741">
        <ele>1998.7</ele>
        <time>2021-08-12T08:43:39Z</time>
      </trkpt>
      <trkpt lat="45.50719" lon="6.73741">
        <ele>1998.7</ele>
        <time>2021-08-12T08:43:40Z</time>
      </trkpt>
      <trkpt lat="45.50719" lon="6.73742">
        <ele>1998.7</ele>
        <time>2021-08-12T08:43:41Z</time>
      </trkpt>
      <trkpt lat="45.50719" lon="6.73742">
        <ele>1998.8</ele>
        <time>2021-08-12T08:43:42Z</time>
      </trkpt>
      <trkpt lat="45.50719" lon="6.73742">
        <ele>1998.8</ele>
        <time>2021-08-12T08:43:43Z</time>
      </trkpt>
      <trkpt lat="45.50719" lon="6.73742">
        <ele>1998.8</ele>
        <time>2021-08-12T08:43:44Z</time>
      </trkpt>
      <trkpt lat="45.50719" lon="6.73742">
        <ele>1998.8</ele>
        <time>2021-08-12T08:43:45Z</time>
      </trkpt>
      <trkpt lat="45.50719" lon="6.73742">
        <ele>1998.8</ele>
        <time>2021-08-12T08:43:46Z</time>
      </trkpt>
      <trkpt lat="45.50719" lon="6.73742">
        <ele>1998.8</ele>
        <time>2021-08-12T08:43:47Z</time>
      </trkpt>
      <trkpt lat="45.50719" lon="6.73742">
        <ele>1998.9</ele>
        <time>2021-08-12T08:43:48Z</time>
      </trkpt>
      <trkpt lat="45.50719" lon="6.73742">
        <ele>1998.9</ele>
        <time>2021-08-12T08:43:49Z</time>
      </trkpt>
      <trkpt lat="45.50719" lon="6.73743">
        <ele>1998.9</ele>
        <time>2021-08-12T08:43:50Z</time>
      </trkpt>
      <trkpt lat="45.50719" lon="6.73743">
        <ele>1998.9</ele>
        <time>2021-08-12T08:43:51Z</time>
      </trkpt>
      <trkpt lat="45.50719" lon="6.73743">
        <ele>1998.9</ele>
        <time>2021-08-12T08:43:52Z</time>
      </trkpt>
      <trkpt lat="45.50719" lon="6.73743">
        <ele>1998.9</ele>
        <time>2021-08-12T08:43:53Z</time>
      </trkpt>
      <trkpt lat="45.50719" lon="6.73743">
        <ele>1998.9</ele>
        <time>2021-08-12T08:43:54Z</time>
      </trkpt>
      <trkpt lat="45.50719" lon="6.73743">
        <ele>1998.9</ele>
        <time>2021-08-12T08:43:55Z</time>
      </trkpt>
      <trkpt lat="45.50719" lon="6.73743">
        <ele>1999</ele>
        <time>2021-08-12T08:43:56Z</time>
      </trkpt>
      <trkpt lat="45.50719" lon="6.73743">
        <ele>1999</ele>
        <time>2021-08-12T08:43:57Z</time>
      </trkpt>
      <trkpt lat="45.50719" lon="6.73743">
        <ele>1999</ele>
        <time>2021-08-12T08:43:58Z</time>
      </trkpt>
      <trkpt lat="45.50719" lon="6.73743">
        <ele>1999</ele>
        <time>2021-08-12T08:43:59Z</time>
      </trkpt>
      <trkpt lat="45.50719" lon="6.73743">
        <ele>1999</ele>
        <time>2021-08-12T08:44:00Z</time>
      </trkpt>
      <trkpt lat="45.50719" lon="6.73743">
        <ele>1999</ele>
        <time>2021-08-12T08:44:01Z</time>
      </trkpt>
      <trkpt lat="45.50719" lon="6.73743">
        <ele>1999</ele>
        <time>2021-08-12T08:44:02Z</time>
      </trkpt>
      <trkpt lat="45.50719" lon="6.73743">
        <ele>1999</ele>
        <time>2021-08-12T08:44:03Z</time>
      </trkpt>
      <trkpt lat="45.50719" lon="6.73743">
        <ele>1999</ele>
        <time>2021-08-12T08:44:04Z</time>
      </trkpt>
      <trkpt lat="45.50719" lon="6.73743">
        <ele>1999</ele>
        <time>2021-08-12T08:44:05Z</time>
      </trkpt>
      <trkpt lat="45.50719" lon="6.73743">
        <ele>1999</ele>
        <time>2021-08-12T08:44:06Z</time>
      </trkpt>
      <trkpt lat="45.50719" lon="6.73743">
        <ele>1999</ele>
        <time>2021-08-12T08:44:07Z</time>
      </trkpt>
      <trkpt lat="45.50719" lon="6.73743">
        <ele>1999</ele>
        <time>2021-08-12T08:44:08Z</time>
      </trkpt>
      <trkpt lat="45.50719" lon="6.73743">
        <ele>1999</ele>
        <time>2021-08-12T08:44:09Z</time>
      </trkpt>
      <trkpt lat="45.50719" lon="6.73743">
        <ele>1999</ele>
        <time>2021-08-12T08:44:10Z</time>
      </trkpt>
      <trkpt lat="45.50719" lon="6.73743">
        <ele>1999.1</ele>
        <time>2021-08-12T08:44:11Z</time>
      </trkpt>
      <trkpt lat="45.50719" lon="6.73743">
        <ele>1999.1</ele>
        <time>2021-08-12T08:44:12Z</time>
      </trkpt>
      <trkpt lat="45.50719" lon="6.73743">
        <ele>1999.1</ele>
        <time>2021-08-12T08:44:13Z</time>
      </trkpt>
      <trkpt lat="45.50719" lon="6.73743">
        <ele>1999.1</ele>
        <time>2021-08-12T08:44:14Z</time>
      </trkpt>
      <trkpt lat="45.50719" lon="6.73743">
        <ele>1999.1</ele>
        <time>2021-08-12T08:44:15Z</time>
      </trkpt>
      <trkpt lat="45.50719" lon="6.73743">
        <ele>1999.1</ele>
        <time>2021-08-12T08:44:16Z</time>
      </trkpt>
      <trkpt lat="45.50719" lon="6.73743">
        <ele>1999.1</ele>
        <time>2021-08-12T08:44:17Z</time>
      </trkpt>
      <trkpt lat="45.50719" lon="6.73743">
        <ele>1999.1</ele>
        <time>2021-08-12T08:44:18Z</time>
      </trkpt>
      <trkpt lat="45.50719" lon="6.73743">
        <ele>1999.1</ele>
        <time>2021-08-12T08:44:19Z</time>
      </trkpt>
      <trkpt lat="45.50719" lon="6.73743">
        <ele>1999.1</ele>
        <time>2021-08-12T08:44:20Z</time>
      </trkpt>
      <trkpt lat="45.50719" lon="6.73743">
        <ele>1999.1</ele>
        <time>2021-08-12T08:44:21Z</time>
      </trkpt>
      <trkpt lat="45.50719" lon="6.73743">
        <ele>1999.1</ele>
        <time>2021-08-12T08:44:22Z</time>
      </trkpt>
      <trkpt lat="45.50719" lon="6.73743">
        <ele>1999.1</ele>
        <time>2021-08-12T08:44:23Z</time>
      </trkpt>
      <trkpt lat="45.50719" lon="6.73743">
        <ele>1999.1</ele>
        <time>2021-08-12T08:44:24Z</time>
      </trkpt>
      <trkpt lat="45.50719" lon="6.73743">
        <ele>1999.1</ele>
        <time>2021-08-12T08:44:25Z</time>
      </trkpt>
      <trkpt lat="45.50719" lon="6.73743">
        <ele>1999.1</ele>
        <time>2021-08-12T08:44:26Z</time>
      </trkpt>
      <trkpt lat="45.50719" lon="6.73743">
        <ele>1999.1</ele>
        <time>2021-08-12T08:44:27Z</time>
      </trkpt>
      <trkpt lat="45.50719" lon="6.73743">
        <ele>1999.1</ele>
        <time>2021-08-12T08:44:28Z</time>
      </trkpt>
      <trkpt lat="45.50719" lon="6.73743">
        <ele>1999.1</ele>
        <time>2021-08-12T08:44:29Z</time>
      </trkpt>
      <trkpt lat="45.50719" lon="6.73743">
        <ele>1999.1</ele>
        <time>2021-08-12T08:44:30Z</time>
      </trkpt>
      <trkpt lat="45.50719" lon="6.73743">
        <ele>1999.1</ele>
        <time>2021-08-12T08:44:31Z</time>
      </trkpt>
      <trkpt lat="45.50719" lon="6.73743">
        <ele>1999.1</ele>
        <time>2021-08-12T08:44:32Z</time>
      </trkpt>
      <trkpt lat="45.50719" lon="6.73743">
        <ele>1999.1</ele>
        <time>2021-08-12T08:44:33Z</time>
      </trkpt>
      <trkpt lat="45.50719" lon="6.73743">
        <ele>1999.1</ele>
        <time>2021-08-12T08:44:34Z</time>
      </trkpt>
      <trkpt lat="45.50719" lon="6.73743">
        <ele>1999.1</ele>
        <time>2021-08-12T08:44:35Z</time>
      </trkpt>
      <trkpt lat="45.50719" lon="6.73743">
        <ele>1999.1</ele>
        <time>2021-08-12T08:44:36Z</time>
      </trkpt>
      <trkpt lat="45.50719" lon="6.73743">
        <ele>1999.1</ele>
        <time>2021-08-12T08:44:37Z</time>
      </trkpt>
      <trkpt lat="45.50719" lon="6.73743">
        <ele>1999.1</ele>
        <time>2021-08-12T08:44:38Z</time>
      </trkpt>
      <trkpt lat="45.50719" lon="6.73743">
        <ele>1999.1</ele>
        <time>2021-08-12T08:44:39Z</time>
      </trkpt>
      <trkpt lat="45.50719" lon="6.73743">
        <ele>1999.1</ele>
        <time>2021-08-12T08:44:40Z</time>
      </trkpt>
      <trkpt lat="45.50719" lon="6.73743">
        <ele>1999.1</ele>
        <time>2021-08-12T08:44:41Z</time>
      </trkpt>
      <trkpt lat="45.50719" lon="6.73743">
        <ele>1999.1</ele>
        <time>2021-08-12T08:44:42Z</time>
      </trkpt>
      <trkpt lat="45.50719" lon="6.73743">
        <ele>1999.1</ele>
        <time>2021-08-12T08:44:43Z</time>
      </trkpt>
      <trkpt lat="45.50719" lon="6.73743">
        <ele>1999.1</ele>
        <time>2021-08-12T08:44:44Z</time>
      </trkpt>
      <trkpt lat="45.50719" lon="6.73743">
        <ele>1999.1</ele>
        <time>2021-08-12T08:44:45Z</time>
      </trkpt>
      <trkpt lat="45.50719" lon="6.73743">
        <ele>1999.1</ele>
        <time>2021-08-12T08:44:46Z</time>
      </trkpt>
      <trkpt lat="45.50719" lon="6.73743">
        <ele>1999.1</ele>
        <time>2021-08-12T08:44:47Z</time>
      </trkpt>
      <trkpt lat="45.50719" lon="6.73743">
        <ele>1999.1</ele>
        <time>2021-08-12T08:44:48Z</time>
      </trkpt>
      <trkpt lat="45.50719" lon="6.73743">
        <ele>1999.1</ele>
        <time>2021-08-12T08:44:49Z</time>
      </trkpt>
      <trkpt lat="45.50719" lon="6.73743">
        <ele>1999.1</ele>
        <time>2021-08-12T08:44:50Z</time>
      </trkpt>
      <trkpt lat="45.50719" lon="6.73743">
        <ele>1999.1</ele>
        <time>2021-08-12T08:44:51Z</time>
      </trkpt>
      <trkpt lat="45.50719" lon="6.73743">
        <ele>1999.1</ele>
        <time>2021-08-12T08:44:52Z</time>
      </trkpt>
      <trkpt lat="45.50719" lon="6.73743">
        <ele>1999.1</ele>
        <time>2021-08-12T08:44:53Z</time>
      </trkpt>
      <trkpt lat="45.50719" lon="6.73743">
        <ele>1999.1</ele>
        <time>2021-08-12T08:44:54Z</time>
      </trkpt>
      <trkpt lat="45.50719" lon="6.73743">
        <ele>1999.1</ele>
        <time>2021-08-12T08:44:55Z</time>
      </trkpt>
      <trkpt lat="45.50719" lon="6.73743">
        <ele>1999.1</ele>
        <time>2021-08-12T08:44:56Z</time>
      </trkpt>
      <trkpt lat="45.50719" lon="6.73743">
        <ele>1999.1</ele>
        <time>2021-08-12T08:44:57Z</time>
      </trkpt>
      <trkpt lat="45.50719" lon="6.73743">
        <ele>1999.1</ele>
        <time>2021-08-12T08:44:58Z</time>
      </trkpt>
      <trkpt lat="45.50719" lon="6.73743">
        <ele>1999.1</ele>
        <time>2021-08-12T08:44:59Z</time>
      </trkpt>
      <trkpt lat="45.50719" lon="6.73743">
        <ele>1999.1</ele>
        <time>2021-08-12T08:45:00Z</time>
      </trkpt>
      <trkpt lat="45.50719" lon="6.73743">
        <ele>1999.1</ele>
        <time>2021-08-12T08:45:01Z</time>
      </trkpt>
      <trkpt lat="45.50719" lon="6.73743">
        <ele>1999.1</ele>
        <time>2021-08-12T08:45:02Z</time>
      </trkpt>
      <trkpt lat="45.50719" lon="6.73743">
        <ele>1999.1</ele>
        <time>2021-08-12T08:45:03Z</time>
      </trkpt>
      <trkpt lat="45.50719" lon="6.73743">
        <ele>1999.1</ele>
        <time>2021-08-12T08:45:04Z</time>
      </trkpt>
      <trkpt lat="45.50719" lon="6.73743">
        <ele>1999.2</ele>
        <time>2021-08-12T08:45:05Z</time>
      </trkpt>
      <trkpt lat="45.50719" lon="6.73743">
        <ele>1999.2</ele>
        <time>2021-08-12T08:45:06Z</time>
      </trkpt>
      <trkpt lat="45.50719" lon="6.73743">
        <ele>1999.2</ele>
        <time>2021-08-12T08:45:07Z</time>
      </trkpt>
      <trkpt lat="45.50719" lon="6.73743">
        <ele>1999.2</ele>
        <time>2021-08-12T08:45:08Z</time>
      </trkpt>
      <trkpt lat="45.50719" lon="6.73743">
        <ele>1999.2</ele>
        <time>2021-08-12T08:45:09Z</time>
      </trkpt>
      <trkpt lat="45.50719" lon="6.73743">
        <ele>1999.2</ele>
        <time>2021-08-12T08:45:10Z</time>
      </trkpt>
      <trkpt lat="45.50719" lon="6.73743">
        <ele>1999.2</ele>
        <time>2021-08-12T08:45:11Z</time>
      </trkpt>
      <trkpt lat="45.50719" lon="6.73743">
        <ele>1999.3</ele>
        <time>2021-08-12T08:45:12Z</time>
      </trkpt>
      <trkpt lat="45.50719" lon="6.73743">
        <ele>1999.3</ele>
        <time>2021-08-12T08:45:13Z</time>
      </trkpt>
      <trkpt lat="45.50719" lon="6.73743">
        <ele>1999.3</ele>
        <time>2021-08-12T08:45:14Z</time>
      </trkpt>
      <trkpt lat="45.50719" lon="6.73743">
        <ele>1999.3</ele>
        <time>2021-08-12T08:45:15Z</time>
      </trkpt>
      <trkpt lat="45.50718" lon="6.73743">
        <ele>1999.4</ele>
        <time>2021-08-12T08:45:16Z</time>
      </trkpt>
      <trkpt lat="45.50718" lon="6.73743">
        <ele>1999.4</ele>
        <time>2021-08-12T08:45:17Z</time>
      </trkpt>
      <trkpt lat="45.50718" lon="6.73742">
        <ele>1999.5</ele>
        <time>2021-08-12T08:45:18Z</time>
      </trkpt>
      <trkpt lat="45.50718" lon="6.73742">
        <ele>1999.5</ele>
        <time>2021-08-12T08:45:19Z</time>
      </trkpt>
      <trkpt lat="45.50718" lon="6.73742">
        <ele>1999.6</ele>
        <time>2021-08-12T08:45:20Z</time>
      </trkpt>
      <trkpt lat="45.50718" lon="6.73742">
        <ele>1999.6</ele>
        <time>2021-08-12T08:45:21Z</time>
      </trkpt>
      <trkpt lat="45.50717" lon="6.73741">
        <ele>1999.7</ele>
        <time>2021-08-12T08:45:22Z</time>
      </trkpt>
      <trkpt lat="45.50717" lon="6.73741">
        <ele>1999.7</ele>
        <time>2021-08-12T08:45:23Z</time>
      </trkpt>
      <trkpt lat="45.50717" lon="6.73741">
        <ele>1999.8</ele>
        <time>2021-08-12T08:45:24Z</time>
      </trkpt>
      <trkpt lat="45.50717" lon="6.73741">
        <ele>1999.8</ele>
        <time>2021-08-12T08:45:25Z</time>
      </trkpt>
      <trkpt lat="45.50717" lon="6.7374">
        <ele>1999.9</ele>
        <time>2021-08-12T08:45:26Z</time>
      </trkpt>
      <trkpt lat="45.50716" lon="6.7374">
        <ele>2000</ele>
        <time>2021-08-12T08:45:27Z</time>
      </trkpt>
      <trkpt lat="45.50716" lon="6.7374">
        <ele>2000</ele>
        <time>2021-08-12T08:45:28Z</time>
      </trkpt>
      <trkpt lat="45.50716" lon="6.7374">
        <ele>2000.1</ele>
        <time>2021-08-12T08:45:29Z</time>
      </trkpt>
      <trkpt lat="45.50716" lon="6.73739">
        <ele>2000.1</ele>
        <time>2021-08-12T08:45:30Z</time>
      </trkpt>
      <trkpt lat="45.50716" lon="6.73739">
        <ele>2000.2</ele>
        <time>2021-08-12T08:45:31Z</time>
      </trkpt>
      <trkpt lat="45.50715" lon="6.73739">
        <ele>2000.2</ele>
        <time>2021-08-12T08:45:32Z</time>
      </trkpt>
      <trkpt lat="45.50715" lon="6.73739">
        <ele>2000.3</ele>
        <time>2021-08-12T08:45:33Z</time>
      </trkpt>
      <trkpt lat="45.50715" lon="6.73738">
        <ele>2000.3</ele>
        <time>2021-08-12T08:45:34Z</time>
      </trkpt>
      <trkpt lat="45.50715" lon="6.73738">
        <ele>2000.4</ele>
        <time>2021-08-12T08:45:35Z</time>
      </trkpt>
      <trkpt lat="45.50715" lon="6.73738">
        <ele>2000.4</ele>
        <time>2021-08-12T08:45:36Z</time>
      </trkpt>
      <trkpt lat="45.50715" lon="6.73738">
        <ele>2000.4</ele>
        <time>2021-08-12T08:45:37Z</time>
      </trkpt>
      <trkpt lat="45.50715" lon="6.73738">
        <ele>2000.5</ele>
        <time>2021-08-12T08:45:38Z</time>
      </trkpt>
      <trkpt lat="45.50715" lon="6.73738">
        <ele>2000.5</ele>
        <time>2021-08-12T08:45:39Z</time>
      </trkpt>
      <trkpt lat="45.50715" lon="6.73738">
        <ele>2000.5</ele>
        <time>2021-08-12T08:45:40Z</time>
      </trkpt>
      <trkpt lat="45.50715" lon="6.73738">
        <ele>2000.5</ele>
        <time>2021-08-12T08:45:41Z</time>
      </trkpt>
      <trkpt lat="45.50715" lon="6.73737">
        <ele>2000.5</ele>
        <time>2021-08-12T08:45:42Z</time>
      </trkpt>
      <trkpt lat="45.50715" lon="6.73737">
        <ele>2000.5</ele>
        <time>2021-08-12T08:45:43Z</time>
      </trkpt>
      <trkpt lat="45.50715" lon="6.73737">
        <ele>2000.5</ele>
        <time>2021-08-12T08:45:44Z</time>
      </trkpt>
      <trkpt lat="45.50715" lon="6.73737">
        <ele>2000.5</ele>
        <time>2021-08-12T08:45:45Z</time>
      </trkpt>
      <trkpt lat="45.50715" lon="6.73737">
        <ele>2000.6</ele>
        <time>2021-08-12T08:45:46Z</time>
      </trkpt>
      <trkpt lat="45.50715" lon="6.73737">
        <ele>2000.6</ele>
        <time>2021-08-12T08:45:47Z</time>
      </trkpt>
      <trkpt lat="45.50715" lon="6.73737">
        <ele>2000.6</ele>
        <time>2021-08-12T08:45:48Z</time>
      </trkpt>
      <trkpt lat="45.50715" lon="6.73737">
        <ele>2000.6</ele>
        <time>2021-08-12T08:45:49Z</time>
      </trkpt>
      <trkpt lat="45.50715" lon="6.73737">
        <ele>2000.6</ele>
        <time>2021-08-12T08:45:50Z</time>
      </trkpt>
      <trkpt lat="45.50715" lon="6.73737">
        <ele>2000.6</ele>
        <time>2021-08-12T08:45:51Z</time>
      </trkpt>
      <trkpt lat="45.50715" lon="6.73737">
        <ele>2000.6</ele>
        <time>2021-08-12T08:45:52Z</time>
      </trkpt>
      <trkpt lat="45.50714" lon="6.73737">
        <ele>2000.7</ele>
        <time>2021-08-12T08:45:53Z</time>
      </trkpt>
      <trkpt lat="45.50714" lon="6.73737">
        <ele>2000.7</ele>
        <time>2021-08-12T08:45:54Z</time>
      </trkpt>
      <trkpt lat="45.50714" lon="6.73737">
        <ele>2000.8</ele>
        <time>2021-08-12T08:45:55Z</time>
      </trkpt>
      <trkpt lat="45.50714" lon="6.73737">
        <ele>2000.9</ele>
        <time>2021-08-12T08:45:56Z</time>
      </trkpt>
      <trkpt lat="45.50713" lon="6.73736">
        <ele>2001</ele>
        <time>2021-08-12T08:45:57Z</time>
      </trkpt>
      <trkpt lat="45.50713" lon="6.73736">
        <ele>2001.1</ele>
        <time>2021-08-12T08:45:58Z</time>
      </trkpt>
      <trkpt lat="45.50712" lon="6.73735">
        <ele>2001.2</ele>
        <time>2021-08-12T08:45:59Z</time>
      </trkpt>
      <trkpt lat="45.50712" lon="6.73735">
        <ele>2001.4</ele>
        <time>2021-08-12T08:46:00Z</time>
      </trkpt>
      <trkpt lat="45.50711" lon="6.73734">
        <ele>2001.5</ele>
        <time>2021-08-12T08:46:01Z</time>
      </trkpt>
      <trkpt lat="45.50711" lon="6.73733">
        <ele>2001.6</ele>
        <time>2021-08-12T08:46:02Z</time>
      </trkpt>
      <trkpt lat="45.5071" lon="6.73733">
        <ele>2001.8</ele>
        <time>2021-08-12T08:46:03Z</time>
      </trkpt>
      <trkpt lat="45.5071" lon="6.73732">
        <ele>2001.9</ele>
        <time>2021-08-12T08:46:04Z</time>
      </trkpt>
      <trkpt lat="45.50709" lon="6.73732">
        <ele>2002</ele>
        <time>2021-08-12T08:46:05Z</time>
      </trkpt>
      <trkpt lat="45.50709" lon="6.73731">
        <ele>2002.1</ele>
        <time>2021-08-12T08:46:06Z</time>
      </trkpt>
      <trkpt lat="45.50709" lon="6.73731">
        <ele>2002.2</ele>
        <time>2021-08-12T08:46:07Z</time>
      </trkpt>
      <trkpt lat="45.50709" lon="6.73731">
        <ele>2002.3</ele>
        <time>2021-08-12T08:46:08Z</time>
      </trkpt>
      <trkpt lat="45.50708" lon="6.7373">
        <ele>2002.3</ele>
        <time>2021-08-12T08:46:09Z</time>
      </trkpt>
      <trkpt lat="45.50708" lon="6.7373">
        <ele>2002.3</ele>
        <time>2021-08-12T08:46:10Z</time>
      </trkpt>
      <trkpt lat="45.50708" lon="6.7373">
        <ele>2002.4</ele>
        <time>2021-08-12T08:46:11Z</time>
      </trkpt>
      <trkpt lat="45.50708" lon="6.7373">
        <ele>2002.4</ele>
        <time>2021-08-12T08:46:12Z</time>
      </trkpt>
      <trkpt lat="45.50708" lon="6.7373">
        <ele>2002.4</ele>
        <time>2021-08-12T08:46:13Z</time>
      </trkpt>
      <trkpt lat="45.50708" lon="6.7373">
        <ele>2002.5</ele>
        <time>2021-08-12T08:46:14Z</time>
      </trkpt>
      <trkpt lat="45.50708" lon="6.73729">
        <ele>2002.5</ele>
        <time>2021-08-12T08:46:15Z</time>
      </trkpt>
      <trkpt lat="45.50708" lon="6.73729">
        <ele>2002.6</ele>
        <time>2021-08-12T08:46:16Z</time>
      </trkpt>
      <trkpt lat="45.50708" lon="6.73729">
        <ele>2002.7</ele>
        <time>2021-08-12T08:46:17Z</time>
      </trkpt>
      <trkpt lat="45.50707" lon="6.73728">
        <ele>2002.7</ele>
        <time>2021-08-12T08:46:18Z</time>
      </trkpt>
      <trkpt lat="45.50707" lon="6.73728">
        <ele>2002.8</ele>
        <time>2021-08-12T08:46:19Z</time>
      </trkpt>
      <trkpt lat="45.50707" lon="6.73727">
        <ele>2002.9</ele>
        <time>2021-08-12T08:46:20Z</time>
      </trkpt>
      <trkpt lat="45.50707" lon="6.73727">
        <ele>2003</ele>
        <time>2021-08-12T08:46:21Z</time>
      </trkpt>
      <trkpt lat="45.50706" lon="6.73726">
        <ele>2003.1</ele>
        <time>2021-08-12T08:46:22Z</time>
      </trkpt>
      <trkpt lat="45.50706" lon="6.73726">
        <ele>2003.2</ele>
        <time>2021-08-12T08:46:23Z</time>
      </trkpt>
      <trkpt lat="45.50706" lon="6.73725">
        <ele>2003.3</ele>
        <time>2021-08-12T08:46:24Z</time>
      </trkpt>
      <trkpt lat="45.50706" lon="6.73725">
        <ele>2003.4</ele>
        <time>2021-08-12T08:46:25Z</time>
      </trkpt>
      <trkpt lat="45.50706" lon="6.73724">
        <ele>2003.4</ele>
        <time>2021-08-12T08:46:26Z</time>
      </trkpt>
      <trkpt lat="45.50705" lon="6.73724">
        <ele>2003.5</ele>
        <time>2021-08-12T08:46:27Z</time>
      </trkpt>
      <trkpt lat="45.50705" lon="6.73724">
        <ele>2003.5</ele>
        <time>2021-08-12T08:46:28Z</time>
      </trkpt>
      <trkpt lat="45.50705" lon="6.73724">
        <ele>2003.6</ele>
        <time>2021-08-12T08:46:29Z</time>
      </trkpt>
      <trkpt lat="45.50705" lon="6.73723">
        <ele>2003.6</ele>
        <time>2021-08-12T08:46:30Z</time>
      </trkpt>
      <trkpt lat="45.50705" lon="6.73723">
        <ele>2003.6</ele>
        <time>2021-08-12T08:46:31Z</time>
      </trkpt>
      <trkpt lat="45.50705" lon="6.73723">
        <ele>2003.7</ele>
        <time>2021-08-12T08:46:32Z</time>
      </trkpt>
      <trkpt lat="45.50705" lon="6.73723">
        <ele>2003.8</ele>
        <time>2021-08-12T08:46:33Z</time>
      </trkpt>
      <trkpt lat="45.50704" lon="6.73723">
        <ele>2003.8</ele>
        <time>2021-08-12T08:46:34Z</time>
      </trkpt>
      <trkpt lat="45.50704" lon="6.73722">
        <ele>2003.9</ele>
        <time>2021-08-12T08:46:35Z</time>
      </trkpt>
      <trkpt lat="45.50704" lon="6.73722">
        <ele>2003.9</ele>
        <time>2021-08-12T08:46:36Z</time>
      </trkpt>
      <trkpt lat="45.50704" lon="6.73722">
        <ele>2004</ele>
        <time>2021-08-12T08:46:37Z</time>
      </trkpt>
      <trkpt lat="45.50703" lon="6.73721">
        <ele>2004.1</ele>
        <time>2021-08-12T08:46:38Z</time>
      </trkpt>
      <trkpt lat="45.50703" lon="6.73721">
        <ele>2004.2</ele>
        <time>2021-08-12T08:46:39Z</time>
      </trkpt>
      <trkpt lat="45.50703" lon="6.73721">
        <ele>2004.3</ele>
        <time>2021-08-12T08:46:40Z</time>
      </trkpt>
      <trkpt lat="45.50702" lon="6.7372">
        <ele>2004.4</ele>
        <time>2021-08-12T08:46:41Z</time>
      </trkpt>
      <trkpt lat="45.50702" lon="6.7372">
        <ele>2004.5</ele>
        <time>2021-08-12T08:46:42Z</time>
      </trkpt>
      <trkpt lat="45.50702" lon="6.7372">
        <ele>2004.5</ele>
        <time>2021-08-12T08:46:43Z</time>
      </trkpt>
      <trkpt lat="45.50701" lon="6.73719">
        <ele>2004.7</ele>
        <time>2021-08-12T08:46:44Z</time>
      </trkpt>
      <trkpt lat="45.50701" lon="6.73719">
        <ele>2004.7</ele>
        <time>2021-08-12T08:46:45Z</time>
      </trkpt>
      <trkpt lat="45.507" lon="6.73719">
        <ele>2004.8</ele>
        <time>2021-08-12T08:46:46Z</time>
      </trkpt>
      <trkpt lat="45.507" lon="6.73718">
        <ele>2004.9</ele>
        <time>2021-08-12T08:46:47Z</time>
      </trkpt>
      <trkpt lat="45.507" lon="6.73718">
        <ele>2005</ele>
        <time>2021-08-12T08:46:48Z</time>
      </trkpt>
      <trkpt lat="45.50699" lon="6.73718">
        <ele>2005.1</ele>
        <time>2021-08-12T08:46:49Z</time>
      </trkpt>
      <trkpt lat="45.50699" lon="6.73718">
        <ele>2005.2</ele>
        <time>2021-08-12T08:46:50Z</time>
      </trkpt>
      <trkpt lat="45.50699" lon="6.73717">
        <ele>2005.3</ele>
        <time>2021-08-12T08:46:51Z</time>
      </trkpt>
      <trkpt lat="45.50698" lon="6.73717">
        <ele>2005.3</ele>
        <time>2021-08-12T08:46:52Z</time>
      </trkpt>
      <trkpt lat="45.50698" lon="6.73717">
        <ele>2005.4</ele>
        <time>2021-08-12T08:46:53Z</time>
      </trkpt>
      <trkpt lat="45.50698" lon="6.73717">
        <ele>2005.4</ele>
        <time>2021-08-12T08:46:54Z</time>
      </trkpt>
      <trkpt lat="45.50698" lon="6.73717">
        <ele>2005.5</ele>
        <time>2021-08-12T08:46:55Z</time>
      </trkpt>
      <trkpt lat="45.50697" lon="6.73717">
        <ele>2005.5</ele>
        <time>2021-08-12T08:46:56Z</time>
      </trkpt>
      <trkpt lat="45.50697" lon="6.73717">
        <ele>2005.6</ele>
        <time>2021-08-12T08:46:57Z</time>
      </trkpt>
      <trkpt lat="45.50697" lon="6.73716">
        <ele>2005.6</ele>
        <time>2021-08-12T08:46:58Z</time>
      </trkpt>
      <trkpt lat="45.50697" lon="6.73716">
        <ele>2005.6</ele>
        <time>2021-08-12T08:46:59Z</time>
      </trkpt>
      <trkpt lat="45.50697" lon="6.73716">
        <ele>2005.7</ele>
        <time>2021-08-12T08:47:00Z</time>
      </trkpt>
      <trkpt lat="45.50697" lon="6.73716">
        <ele>2005.7</ele>
        <time>2021-08-12T08:47:01Z</time>
      </trkpt>
      <trkpt lat="45.50697" lon="6.73716">
        <ele>2005.7</ele>
        <time>2021-08-12T08:47:02Z</time>
      </trkpt>
      <trkpt lat="45.50697" lon="6.73716">
        <ele>2005.7</ele>
        <time>2021-08-12T08:47:03Z</time>
      </trkpt>
      <trkpt lat="45.50697" lon="6.73716">
        <ele>2005.8</ele>
        <time>2021-08-12T08:47:04Z</time>
      </trkpt>
      <trkpt lat="45.50697" lon="6.73716">
        <ele>2005.8</ele>
        <time>2021-08-12T08:47:05Z</time>
      </trkpt>
      <trkpt lat="45.50697" lon="6.73716">
        <ele>2005.8</ele>
        <time>2021-08-12T08:47:06Z</time>
      </trkpt>
      <trkpt lat="45.50697" lon="6.73715">
        <ele>2005.8</ele>
        <time>2021-08-12T08:47:07Z</time>
      </trkpt>
      <trkpt lat="45.50697" lon="6.73715">
        <ele>2005.8</ele>
        <time>2021-08-12T08:47:08Z</time>
      </trkpt>
      <trkpt lat="45.50697" lon="6.73715">
        <ele>2005.8</ele>
        <time>2021-08-12T08:47:09Z</time>
      </trkpt>
      <trkpt lat="45.50697" lon="6.73715">
        <ele>2005.8</ele>
        <time>2021-08-12T08:47:10Z</time>
      </trkpt>
      <trkpt lat="45.50697" lon="6.73715">
        <ele>2005.9</ele>
        <time>2021-08-12T08:47:11Z</time>
      </trkpt>
      <trkpt lat="45.50696" lon="6.73715">
        <ele>2005.9</ele>
        <time>2021-08-12T08:47:12Z</time>
      </trkpt>
      <trkpt lat="45.50696" lon="6.73715">
        <ele>2005.9</ele>
        <time>2021-08-12T08:47:13Z</time>
      </trkpt>
      <trkpt lat="45.50696" lon="6.73715">
        <ele>2005.9</ele>
        <time>2021-08-12T08:47:14Z</time>
      </trkpt>
      <trkpt lat="45.50696" lon="6.73715">
        <ele>2005.9</ele>
        <time>2021-08-12T08:47:15Z</time>
      </trkpt>
      <trkpt lat="45.50696" lon="6.73715">
        <ele>2006</ele>
        <time>2021-08-12T08:47:16Z</time>
      </trkpt>
      <trkpt lat="45.50696" lon="6.73715">
        <ele>2006</ele>
        <time>2021-08-12T08:47:17Z</time>
      </trkpt>
      <trkpt lat="45.50696" lon="6.73715">
        <ele>2006</ele>
        <time>2021-08-12T08:47:18Z</time>
      </trkpt>
      <trkpt lat="45.50696" lon="6.73715">
        <ele>2006</ele>
        <time>2021-08-12T08:47:19Z</time>
      </trkpt>
      <trkpt lat="45.50696" lon="6.73715">
        <ele>2006.1</ele>
        <time>2021-08-12T08:47:20Z</time>
      </trkpt>
      <trkpt lat="45.50696" lon="6.73715">
        <ele>2006.1</ele>
        <time>2021-08-12T08:47:21Z</time>
      </trkpt>
      <trkpt lat="45.50695" lon="6.73715">
        <ele>2006.1</ele>
        <time>2021-08-12T08:47:22Z</time>
      </trkpt>
      <trkpt lat="45.50695" lon="6.73715">
        <ele>2006.2</ele>
        <time>2021-08-12T08:47:23Z</time>
      </trkpt>
      <trkpt lat="45.50695" lon="6.73714">
        <ele>2006.2</ele>
        <time>2021-08-12T08:47:24Z</time>
      </trkpt>
      <trkpt lat="45.50695" lon="6.73714">
        <ele>2006.2</ele>
        <time>2021-08-12T08:47:25Z</time>
      </trkpt>
      <trkpt lat="45.50695" lon="6.73714">
        <ele>2006.3</ele>
        <time>2021-08-12T08:47:26Z</time>
      </trkpt>
      <trkpt lat="45.50695" lon="6.73714">
        <ele>2006.3</ele>
        <time>2021-08-12T08:47:27Z</time>
      </trkpt>
      <trkpt lat="45.50695" lon="6.73714">
        <ele>2006.3</ele>
        <time>2021-08-12T08:47:28Z</time>
      </trkpt>
      <trkpt lat="45.50694" lon="6.73714">
        <ele>2006.3</ele>
        <time>2021-08-12T08:47:29Z</time>
      </trkpt>
      <trkpt lat="45.50694" lon="6.73714">
        <ele>2006.4</ele>
        <time>2021-08-12T08:47:30Z</time>
      </trkpt>
      <trkpt lat="45.50694" lon="6.73714">
        <ele>2006.4</ele>
        <time>2021-08-12T08:47:31Z</time>
      </trkpt>
      <trkpt lat="45.50694" lon="6.73714">
        <ele>2006.4</ele>
        <time>2021-08-12T08:47:32Z</time>
      </trkpt>
      <trkpt lat="45.50694" lon="6.73714">
        <ele>2006.5</ele>
        <time>2021-08-12T08:47:33Z</time>
      </trkpt>
      <trkpt lat="45.50694" lon="6.73714">
        <ele>2006.5</ele>
        <time>2021-08-12T08:47:34Z</time>
      </trkpt>
      <trkpt lat="45.50694" lon="6.73714">
        <ele>2006.5</ele>
        <time>2021-08-12T08:47:35Z</time>
      </trkpt>
      <trkpt lat="45.50694" lon="6.73714">
        <ele>2006.5</ele>
        <time>2021-08-12T08:47:36Z</time>
      </trkpt>
      <trkpt lat="45.50694" lon="6.73714">
        <ele>2006.5</ele>
        <time>2021-08-12T08:47:37Z</time>
      </trkpt>
      <trkpt lat="45.50694" lon="6.73714">
        <ele>2006.5</ele>
        <time>2021-08-12T08:47:38Z</time>
      </trkpt>
      <trkpt lat="45.50694" lon="6.73714">
        <ele>2006.6</ele>
        <time>2021-08-12T08:47:39Z</time>
      </trkpt>
      <trkpt lat="45.50694" lon="6.73714">
        <ele>2006.6</ele>
        <time>2021-08-12T08:47:40Z</time>
      </trkpt>
      <trkpt lat="45.50693" lon="6.73714">
        <ele>2006.6</ele>
        <time>2021-08-12T08:47:41Z</time>
      </trkpt>
      <trkpt lat="45.50693" lon="6.73714">
        <ele>2006.6</ele>
        <time>2021-08-12T08:47:42Z</time>
      </trkpt>
      <trkpt lat="45.50693" lon="6.73714">
        <ele>2006.7</ele>
        <time>2021-08-12T08:47:43Z</time>
      </trkpt>
      <trkpt lat="45.50693" lon="6.73715">
        <ele>2006.7</ele>
        <time>2021-08-12T08:47:44Z</time>
      </trkpt>
      <trkpt lat="45.50693" lon="6.73715">
        <ele>2006.8</ele>
        <time>2021-08-12T08:47:45Z</time>
      </trkpt>
      <trkpt lat="45.50693" lon="6.73715">
        <ele>2006.9</ele>
        <time>2021-08-12T08:47:46Z</time>
      </trkpt>
      <trkpt lat="45.50693" lon="6.73716">
        <ele>2006.9</ele>
        <time>2021-08-12T08:47:47Z</time>
      </trkpt>
      <trkpt lat="45.50692" lon="6.73716">
        <ele>2007</ele>
        <time>2021-08-12T08:47:48Z</time>
      </trkpt>
      <trkpt lat="45.50692" lon="6.73717">
        <ele>2007.1</ele>
        <time>2021-08-12T08:47:49Z</time>
      </trkpt>
      <trkpt lat="45.50692" lon="6.73717">
        <ele>2007.2</ele>
        <time>2021-08-12T08:47:50Z</time>
      </trkpt>
      <trkpt lat="45.50692" lon="6.73718">
        <ele>2007.2</ele>
        <time>2021-08-12T08:47:51Z</time>
      </trkpt>
      <trkpt lat="45.50692" lon="6.73718">
        <ele>2007.3</ele>
        <time>2021-08-12T08:47:52Z</time>
      </trkpt>
      <trkpt lat="45.50692" lon="6.73719">
        <ele>2007.4</ele>
        <time>2021-08-12T08:47:53Z</time>
      </trkpt>
      <trkpt lat="45.50691" lon="6.73719">
        <ele>2007.5</ele>
        <time>2021-08-12T08:47:54Z</time>
      </trkpt>
      <trkpt lat="45.50691" lon="6.73719">
        <ele>2007.5</ele>
        <time>2021-08-12T08:47:55Z</time>
      </trkpt>
      <trkpt lat="45.50691" lon="6.7372">
        <ele>2007.6</ele>
        <time>2021-08-12T08:47:56Z</time>
      </trkpt>
      <trkpt lat="45.50691" lon="6.7372">
        <ele>2007.7</ele>
        <time>2021-08-12T08:47:57Z</time>
      </trkpt>
      <trkpt lat="45.50691" lon="6.7372">
        <ele>2007.7</ele>
        <time>2021-08-12T08:47:58Z</time>
      </trkpt>
      <trkpt lat="45.50691" lon="6.73721">
        <ele>2007.7</ele>
        <time>2021-08-12T08:47:59Z</time>
      </trkpt>
      <trkpt lat="45.50691" lon="6.73721">
        <ele>2007.8</ele>
        <time>2021-08-12T08:48:00Z</time>
      </trkpt>
      <trkpt lat="45.50691" lon="6.73721">
        <ele>2007.8</ele>
        <time>2021-08-12T08:48:01Z</time>
      </trkpt>
      <trkpt lat="45.50691" lon="6.73722">
        <ele>2007.9</ele>
        <time>2021-08-12T08:48:02Z</time>
      </trkpt>
      <trkpt lat="45.50691" lon="6.73722">
        <ele>2007.9</ele>
        <time>2021-08-12T08:48:03Z</time>
      </trkpt>
      <trkpt lat="45.50691" lon="6.73722">
        <ele>2007.9</ele>
        <time>2021-08-12T08:48:04Z</time>
      </trkpt>
      <trkpt lat="45.50691" lon="6.73722">
        <ele>2008</ele>
        <time>2021-08-12T08:48:05Z</time>
      </trkpt>
      <trkpt lat="45.50691" lon="6.73722">
        <ele>2008</ele>
        <time>2021-08-12T08:48:06Z</time>
      </trkpt>
      <trkpt lat="45.50691" lon="6.73722">
        <ele>2008</ele>
        <time>2021-08-12T08:48:07Z</time>
      </trkpt>
      <trkpt lat="45.50691" lon="6.73723">
        <ele>2008</ele>
        <time>2021-08-12T08:48:08Z</time>
      </trkpt>
      <trkpt lat="45.50691" lon="6.73723">
        <ele>2008</ele>
        <time>2021-08-12T08:48:09Z</time>
      </trkpt>
      <trkpt lat="45.50691" lon="6.73723">
        <ele>2008.1</ele>
        <time>2021-08-12T08:48:10Z</time>
      </trkpt>
      <trkpt lat="45.50691" lon="6.73723">
        <ele>2008.1</ele>
        <time>2021-08-12T08:48:11Z</time>
      </trkpt>
      <trkpt lat="45.50691" lon="6.73723">
        <ele>2008.1</ele>
        <time>2021-08-12T08:48:12Z</time>
      </trkpt>
      <trkpt lat="45.50691" lon="6.73723">
        <ele>2008.1</ele>
        <time>2021-08-12T08:48:13Z</time>
      </trkpt>
      <trkpt lat="45.50692" lon="6.73723">
        <ele>2008.1</ele>
        <time>2021-08-12T08:48:14Z</time>
      </trkpt>
      <trkpt lat="45.50692" lon="6.73723">
        <ele>2008.1</ele>
        <time>2021-08-12T08:48:15Z</time>
      </trkpt>
      <trkpt lat="45.50692" lon="6.73723">
        <ele>2008.1</ele>
        <time>2021-08-12T08:48:16Z</time>
      </trkpt>
      <trkpt lat="45.50692" lon="6.73723">
        <ele>2008.1</ele>
        <time>2021-08-12T08:48:17Z</time>
      </trkpt>
      <trkpt lat="45.50692" lon="6.73723">
        <ele>2008.1</ele>
        <time>2021-08-12T08:48:18Z</time>
      </trkpt>
      <trkpt lat="45.50692" lon="6.73723">
        <ele>2008.1</ele>
        <time>2021-08-12T08:48:19Z</time>
      </trkpt>
      <trkpt lat="45.50692" lon="6.73723">
        <ele>2008.1</ele>
        <time>2021-08-12T08:48:20Z</time>
      </trkpt>
      <trkpt lat="45.50692" lon="6.73723">
        <ele>2008.1</ele>
        <time>2021-08-12T08:48:21Z</time>
      </trkpt>
      <trkpt lat="45.50692" lon="6.73723">
        <ele>2008.1</ele>
        <time>2021-08-12T08:48:22Z</time>
      </trkpt>
      <trkpt lat="45.50692" lon="6.73723">
        <ele>2008.1</ele>
        <time>2021-08-12T08:48:23Z</time>
      </trkpt>
      <trkpt lat="45.50692" lon="6.73723">
        <ele>2008.1</ele>
        <time>2021-08-12T08:48:24Z</time>
      </trkpt>
      <trkpt lat="45.50692" lon="6.73723">
        <ele>2008.1</ele>
        <time>2021-08-12T08:48:25Z</time>
      </trkpt>
      <trkpt lat="45.50692" lon="6.73723">
        <ele>2008.1</ele>
        <time>2021-08-12T08:48:26Z</time>
      </trkpt>
      <trkpt lat="45.50692" lon="6.73723">
        <ele>2008.1</ele>
        <time>2021-08-12T08:48:27Z</time>
      </trkpt>
      <trkpt lat="45.50692" lon="6.73723">
        <ele>2008.1</ele>
        <time>2021-08-12T08:48:28Z</time>
      </trkpt>
      <trkpt lat="45.50692" lon="6.73723">
        <ele>2008.1</ele>
        <time>2021-08-12T08:48:29Z</time>
      </trkpt>
      <trkpt lat="45.50692" lon="6.73723">
        <ele>2008.1</ele>
        <time>2021-08-12T08:48:30Z</time>
      </trkpt>
      <trkpt lat="45.50692" lon="6.73723">
        <ele>2008.2</ele>
        <time>2021-08-12T08:48:31Z</time>
      </trkpt>
      <trkpt lat="45.50692" lon="6.73723">
        <ele>2008.2</ele>
        <time>2021-08-12T08:48:32Z</time>
      </trkpt>
      <trkpt lat="45.50692" lon="6.73723">
        <ele>2008.2</ele>
        <time>2021-08-12T08:48:33Z</time>
      </trkpt>
      <trkpt lat="45.50692" lon="6.73723">
        <ele>2008.2</ele>
        <time>2021-08-12T08:48:34Z</time>
      </trkpt>
      <trkpt lat="45.50692" lon="6.73723">
        <ele>2008.2</ele>
        <time>2021-08-12T08:48:35Z</time>
      </trkpt>
      <trkpt lat="45.50692" lon="6.73724">
        <ele>2008.2</ele>
        <time>2021-08-12T08:48:36Z</time>
      </trkpt>
      <trkpt lat="45.50692" lon="6.73724">
        <ele>2008.3</ele>
        <time>2021-08-12T08:48:37Z</time>
      </trkpt>
      <trkpt lat="45.50692" lon="6.73724">
        <ele>2008.3</ele>
        <time>2021-08-12T08:48:38Z</time>
      </trkpt>
      <trkpt lat="45.50692" lon="6.73724">
        <ele>2008.3</ele>
        <time>2021-08-12T08:48:39Z</time>
      </trkpt>
      <trkpt lat="45.50692" lon="6.73724">
        <ele>2008.3</ele>
        <time>2021-08-12T08:48:40Z</time>
      </trkpt>
      <trkpt lat="45.50692" lon="6.73724">
        <ele>2008.3</ele>
        <time>2021-08-12T08:48:41Z</time>
      </trkpt>
      <trkpt lat="45.50692" lon="6.73724">
        <ele>2008.4</ele>
        <time>2021-08-12T08:48:42Z</time>
      </trkpt>
      <trkpt lat="45.50692" lon="6.73724">
        <ele>2008.4</ele>
        <time>2021-08-12T08:48:43Z</time>
      </trkpt>
      <trkpt lat="45.50692" lon="6.73725">
        <ele>2008.4</ele>
        <time>2021-08-12T08:48:44Z</time>
      </trkpt>
      <trkpt lat="45.50692" lon="6.73725">
        <ele>2008.5</ele>
        <time>2021-08-12T08:48:45Z</time>
      </trkpt>
      <trkpt lat="45.50692" lon="6.73725">
        <ele>2008.5</ele>
        <time>2021-08-12T08:48:46Z</time>
      </trkpt>
      <trkpt lat="45.50692" lon="6.73725">
        <ele>2008.5</ele>
        <time>2021-08-12T08:48:47Z</time>
      </trkpt>
      <trkpt lat="45.50692" lon="6.73725">
        <ele>2008.5</ele>
        <time>2021-08-12T08:48:48Z</time>
      </trkpt>
      <trkpt lat="45.50692" lon="6.73725">
        <ele>2008.6</ele>
        <time>2021-08-12T08:48:49Z</time>
      </trkpt>
      <trkpt lat="45.50692" lon="6.73725">
        <ele>2008.6</ele>
        <time>2021-08-12T08:48:50Z</time>
      </trkpt>
      <trkpt lat="45.50692" lon="6.73726">
        <ele>2008.6</ele>
        <time>2021-08-12T08:48:51Z</time>
      </trkpt>
      <trkpt lat="45.50693" lon="6.73726">
        <ele>2008.6</ele>
        <time>2021-08-12T08:48:52Z</time>
      </trkpt>
      <trkpt lat="45.50693" lon="6.73726">
        <ele>2008.7</ele>
        <time>2021-08-12T08:48:53Z</time>
      </trkpt>
      <trkpt lat="45.50693" lon="6.73726">
        <ele>2008.7</ele>
        <time>2021-08-12T08:48:54Z</time>
      </trkpt>
      <trkpt lat="45.50693" lon="6.73726">
        <ele>2008.7</ele>
        <time>2021-08-12T08:48:55Z</time>
      </trkpt>
      <trkpt lat="45.50693" lon="6.73726">
        <ele>2008.7</ele>
        <time>2021-08-12T08:48:56Z</time>
      </trkpt>
      <trkpt lat="45.50693" lon="6.73726">
        <ele>2008.8</ele>
        <time>2021-08-12T08:48:57Z</time>
      </trkpt>
      <trkpt lat="45.50693" lon="6.73726">
        <ele>2008.8</ele>
        <time>2021-08-12T08:48:58Z</time>
      </trkpt>
      <trkpt lat="45.50693" lon="6.73727">
        <ele>2008.8</ele>
        <time>2021-08-12T08:48:59Z</time>
      </trkpt>
      <trkpt lat="45.50693" lon="6.73727">
        <ele>2008.8</ele>
        <time>2021-08-12T08:49:00Z</time>
      </trkpt>
      <trkpt lat="45.50693" lon="6.73727">
        <ele>2008.8</ele>
        <time>2021-08-12T08:49:01Z</time>
      </trkpt>
      <trkpt lat="45.50693" lon="6.73727">
        <ele>2008.8</ele>
        <time>2021-08-12T08:49:02Z</time>
      </trkpt>
      <trkpt lat="45.50693" lon="6.73727">
        <ele>2008.9</ele>
        <time>2021-08-12T08:49:03Z</time>
      </trkpt>
      <trkpt lat="45.50693" lon="6.73727">
        <ele>2008.9</ele>
        <time>2021-08-12T08:49:04Z</time>
      </trkpt>
      <trkpt lat="45.50693" lon="6.73727">
        <ele>2008.9</ele>
        <time>2021-08-12T08:49:05Z</time>
      </trkpt>
      <trkpt lat="45.50693" lon="6.73727">
        <ele>2008.9</ele>
        <time>2021-08-12T08:49:06Z</time>
      </trkpt>
      <trkpt lat="45.50693" lon="6.73727">
        <ele>2008.9</ele>
        <time>2021-08-12T08:49:07Z</time>
      </trkpt>
      <trkpt lat="45.50693" lon="6.73727">
        <ele>2008.9</ele>
        <time>2021-08-12T08:49:08Z</time>
      </trkpt>
      <trkpt lat="45.50693" lon="6.73727">
        <ele>2008.9</ele>
        <time>2021-08-12T08:49:09Z</time>
      </trkpt>
      <trkpt lat="45.50693" lon="6.73727">
        <ele>2008.9</ele>
        <time>2021-08-12T08:49:10Z</time>
      </trkpt>
      <trkpt lat="45.50693" lon="6.73727">
        <ele>2008.9</ele>
        <time>2021-08-12T08:49:11Z</time>
      </trkpt>
      <trkpt lat="45.50693" lon="6.73727">
        <ele>2008.9</ele>
        <time>2021-08-12T08:49:12Z</time>
      </trkpt>
      <trkpt lat="45.50693" lon="6.73727">
        <ele>2008.9</ele>
        <time>2021-08-12T08:49:13Z</time>
      </trkpt>
      <trkpt lat="45.50693" lon="6.73727">
        <ele>2008.9</ele>
        <time>2021-08-12T08:49:14Z</time>
      </trkpt>
      <trkpt lat="45.50693" lon="6.73727">
        <ele>2008.9</ele>
        <time>2021-08-12T08:49:15Z</time>
      </trkpt>
      <trkpt lat="45.50693" lon="6.73728">
        <ele>2009</ele>
        <time>2021-08-12T08:49:16Z</time>
      </trkpt>
      <trkpt lat="45.50693" lon="6.73728">
        <ele>2009</ele>
        <time>2021-08-12T08:49:17Z</time>
      </trkpt>
      <trkpt lat="45.50693" lon="6.73728">
        <ele>2009</ele>
        <time>2021-08-12T08:49:18Z</time>
      </trkpt>
      <trkpt lat="45.50693" lon="6.73728">
        <ele>2009</ele>
        <time>2021-08-12T08:49:19Z</time>
      </trkpt>
      <trkpt lat="45.50693" lon="6.73728">
        <ele>2009</ele>
        <time>2021-08-12T08:49:20Z</time>
      </trkpt>
      <trkpt lat="45.50693" lon="6.73728">
        <ele>2009</ele>
        <time>2021-08-12T08:49:21Z</time>
      </trkpt>
      <trkpt lat="45.50693" lon="6.73728">
        <ele>2009</ele>
        <time>2021-08-12T08:49:22Z</time>
      </trkpt>
      <trkpt lat="45.50693" lon="6.73727">
        <ele>2009</ele>
        <time>2021-08-12T08:49:23Z</time>
      </trkpt>
      <trkpt lat="45.50693" lon="6.73727">
        <ele>2009</ele>
        <time>2021-08-12T08:49:24Z</time>
      </trkpt>
      <trkpt lat="45.50693" lon="6.73727">
        <ele>2009</ele>
        <time>2021-08-12T08:49:25Z</time>
      </trkpt>
      <trkpt lat="45.50693" lon="6.73727">
        <ele>2009</ele>
        <time>2021-08-12T08:49:26Z</time>
      </trkpt>
      <trkpt lat="45.50693" lon="6.73727">
        <ele>2009</ele>
        <time>2021-08-12T08:49:27Z</time>
      </trkpt>
      <trkpt lat="45.50693" lon="6.73727">
        <ele>2009</ele>
        <time>2021-08-12T08:49:28Z</time>
      </trkpt>
      <trkpt lat="45.50693" lon="6.73727">
        <ele>2009</ele>
        <time>2021-08-12T08:49:29Z</time>
      </trkpt>
      <trkpt lat="45.50693" lon="6.73727">
        <ele>2009</ele>
        <time>2021-08-12T08:49:30Z</time>
      </trkpt>
      <trkpt lat="45.50693" lon="6.73727">
        <ele>2009</ele>
        <time>2021-08-12T08:49:31Z</time>
      </trkpt>
      <trkpt lat="45.50693" lon="6.73727">
        <ele>2009</ele>
        <time>2021-08-12T08:49:32Z</time>
      </trkpt>
      <trkpt lat="45.50693" lon="6.73727">
        <ele>2009</ele>
        <time>2021-08-12T08:49:33Z</time>
      </trkpt>
      <trkpt lat="45.50693" lon="6.73727">
        <ele>2009</ele>
        <time>2021-08-12T08:49:34Z</time>
      </trkpt>
      <trkpt lat="45.50693" lon="6.73727">
        <ele>2009</ele>
        <time>2021-08-12T08:49:35Z</time>
      </trkpt>
      <trkpt lat="45.50693" lon="6.73727">
        <ele>2009</ele>
        <time>2021-08-12T08:49:36Z</time>
      </trkpt>
      <trkpt lat="45.50693" lon="6.73727">
        <ele>2009</ele>
        <time>2021-08-12T08:49:37Z</time>
      </trkpt>
      <trkpt lat="45.50693" lon="6.73728">
        <ele>2009.1</ele>
        <time>2021-08-12T08:49:38Z</time>
      </trkpt>
      <trkpt lat="45.50693" lon="6.73728">
        <ele>2009.1</ele>
        <time>2021-08-12T08:49:39Z</time>
      </trkpt>
      <trkpt lat="45.50693" lon="6.73728">
        <ele>2009.2</ele>
        <time>2021-08-12T08:49:40Z</time>
      </trkpt>
      <trkpt lat="45.50693" lon="6.73728">
        <ele>2009.2</ele>
        <time>2021-08-12T08:49:41Z</time>
      </trkpt>
      <trkpt lat="45.50693" lon="6.73729">
        <ele>2009.3</ele>
        <time>2021-08-12T08:49:42Z</time>
      </trkpt>
      <trkpt lat="45.50693" lon="6.73729">
        <ele>2009.4</ele>
        <time>2021-08-12T08:49:43Z</time>
      </trkpt>
      <trkpt lat="45.50693" lon="6.7373">
        <ele>2009.4</ele>
        <time>2021-08-12T08:49:44Z</time>
      </trkpt>
      <trkpt lat="45.50692" lon="6.7373">
        <ele>2009.5</ele>
        <time>2021-08-12T08:49:45Z</time>
      </trkpt>
      <trkpt lat="45.50692" lon="6.73731">
        <ele>2009.6</ele>
        <time>2021-08-12T08:49:46Z</time>
      </trkpt>
      <trkpt lat="45.50692" lon="6.73732">
        <ele>2009.7</ele>
        <time>2021-08-12T08:49:47Z</time>
      </trkpt>
      <trkpt lat="45.50692" lon="6.73732">
        <ele>2009.8</ele>
        <time>2021-08-12T08:49:48Z</time>
      </trkpt>
      <trkpt lat="45.50692" lon="6.73732">
        <ele>2009.9</ele>
        <time>2021-08-12T08:49:49Z</time>
      </trkpt>
      <trkpt lat="45.50691" lon="6.73733">
        <ele>2010</ele>
        <time>2021-08-12T08:49:50Z</time>
      </trkpt>
      <trkpt lat="45.50691" lon="6.73733">
        <ele>2010</ele>
        <time>2021-08-12T08:49:51Z</time>
      </trkpt>
      <trkpt lat="45.50691" lon="6.73733">
        <ele>2010.1</ele>
        <time>2021-08-12T08:49:52Z</time>
      </trkpt>
      <trkpt lat="45.5069" lon="6.73734">
        <ele>2010.2</ele>
        <time>2021-08-12T08:49:53Z</time>
      </trkpt>
      <trkpt lat="45.5069" lon="6.73734">
        <ele>2010.3</ele>
        <time>2021-08-12T08:49:54Z</time>
      </trkpt>
      <trkpt lat="45.50689" lon="6.73734">
        <ele>2010.4</ele>
        <time>2021-08-12T08:49:55Z</time>
      </trkpt>
      <trkpt lat="45.50689" lon="6.73734">
        <ele>2010.5</ele>
        <time>2021-08-12T08:49:56Z</time>
      </trkpt>
      <trkpt lat="45.50688" lon="6.73734">
        <ele>2010.7</ele>
        <time>2021-08-12T08:49:57Z</time>
      </trkpt>
      <trkpt lat="45.50688" lon="6.73733">
        <ele>2010.8</ele>
        <time>2021-08-12T08:49:58Z</time>
      </trkpt>
      <trkpt lat="45.50687" lon="6.73733">
        <ele>2010.9</ele>
        <time>2021-08-12T08:49:59Z</time>
      </trkpt>
      <trkpt lat="45.50686" lon="6.73733">
        <ele>2011.1</ele>
        <time>2021-08-12T08:50:00Z</time>
      </trkpt>
      <trkpt lat="45.50686" lon="6.73733">
        <ele>2011.2</ele>
        <time>2021-08-12T08:50:01Z</time>
      </trkpt>
      <trkpt lat="45.50685" lon="6.73732">
        <ele>2011.3</ele>
        <time>2021-08-12T08:50:02Z</time>
      </trkpt>
      <trkpt lat="45.50685" lon="6.73732">
        <ele>2011.5</ele>
        <time>2021-08-12T08:50:03Z</time>
      </trkpt>
      <trkpt lat="45.50684" lon="6.73732">
        <ele>2011.6</ele>
        <time>2021-08-12T08:50:04Z</time>
      </trkpt>
      <trkpt lat="45.50683" lon="6.73731">
        <ele>2011.8</ele>
        <time>2021-08-12T08:50:05Z</time>
      </trkpt>
      <trkpt lat="45.50682" lon="6.73731">
        <ele>2012</ele>
        <time>2021-08-12T08:50:06Z</time>
      </trkpt>
      <trkpt lat="45.50682" lon="6.73731">
        <ele>2012.1</ele>
        <time>2021-08-12T08:50:07Z</time>
      </trkpt>
      <trkpt lat="45.50681" lon="6.7373">
        <ele>2012.3</ele>
        <time>2021-08-12T08:50:08Z</time>
      </trkpt>
      <trkpt lat="45.5068" lon="6.7373">
        <ele>2012.5</ele>
        <time>2021-08-12T08:50:09Z</time>
      </trkpt>
      <trkpt lat="45.5068" lon="6.73729">
        <ele>2012.6</ele>
        <time>2021-08-12T08:50:10Z</time>
      </trkpt>
      <trkpt lat="45.50679" lon="6.73729">
        <ele>2012.8</ele>
        <time>2021-08-12T08:50:11Z</time>
      </trkpt>
      <trkpt lat="45.50678" lon="6.73729">
        <ele>2012.9</ele>
        <time>2021-08-12T08:50:12Z</time>
      </trkpt>
      <trkpt lat="45.50677" lon="6.73728">
        <ele>2013.1</ele>
        <time>2021-08-12T08:50:13Z</time>
      </trkpt>
      <trkpt lat="45.50677" lon="6.73728">
        <ele>2013.2</ele>
        <time>2021-08-12T08:50:14Z</time>
      </trkpt>
      <trkpt lat="45.50676" lon="6.73728">
        <ele>2013.4</ele>
        <time>2021-08-12T08:50:15Z</time>
      </trkpt>
      <trkpt lat="45.50675" lon="6.73727">
        <ele>2013.6</ele>
        <time>2021-08-12T08:50:16Z</time>
      </trkpt>
      <trkpt lat="45.50675" lon="6.73727">
        <ele>2013.7</ele>
        <time>2021-08-12T08:50:17Z</time>
      </trkpt>
      <trkpt lat="45.50674" lon="6.73727">
        <ele>2013.9</ele>
        <time>2021-08-12T08:50:18Z</time>
      </trkpt>
      <trkpt lat="45.50673" lon="6.73726">
        <ele>2014</ele>
        <time>2021-08-12T08:50:19Z</time>
      </trkpt>
      <trkpt lat="45.50673" lon="6.73726">
        <ele>2014.2</ele>
        <time>2021-08-12T08:50:20Z</time>
      </trkpt>
      <trkpt lat="45.50672" lon="6.73725">
        <ele>2014.3</ele>
        <time>2021-08-12T08:50:21Z</time>
      </trkpt>
      <trkpt lat="45.50671" lon="6.73725">
        <ele>2014.5</ele>
        <time>2021-08-12T08:50:22Z</time>
      </trkpt>
      <trkpt lat="45.50671" lon="6.73725">
        <ele>2014.6</ele>
        <time>2021-08-12T08:50:23Z</time>
      </trkpt>
      <trkpt lat="45.5067" lon="6.73724">
        <ele>2014.8</ele>
        <time>2021-08-12T08:50:24Z</time>
      </trkpt>
      <trkpt lat="45.50669" lon="6.73724">
        <ele>2014.9</ele>
        <time>2021-08-12T08:50:25Z</time>
      </trkpt>
      <trkpt lat="45.50669" lon="6.73724">
        <ele>2015.1</ele>
        <time>2021-08-12T08:50:26Z</time>
      </trkpt>
      <trkpt lat="45.50668" lon="6.73723">
        <ele>2015.2</ele>
        <time>2021-08-12T08:50:27Z</time>
      </trkpt>
      <trkpt lat="45.50668" lon="6.73723">
        <ele>2015.4</ele>
        <time>2021-08-12T08:50:28Z</time>
      </trkpt>
      <trkpt lat="45.50667" lon="6.73722">
        <ele>2015.5</ele>
        <time>2021-08-12T08:50:29Z</time>
      </trkpt>
      <trkpt lat="45.50666" lon="6.73722">
        <ele>2015.7</ele>
        <time>2021-08-12T08:50:30Z</time>
      </trkpt>
      <trkpt lat="45.50666" lon="6.73721">
        <ele>2015.8</ele>
        <time>2021-08-12T08:50:31Z</time>
      </trkpt>
      <trkpt lat="45.50665" lon="6.73721">
        <ele>2015.9</ele>
        <time>2021-08-12T08:50:32Z</time>
      </trkpt>
      <trkpt lat="45.50665" lon="6.7372">
        <ele>2016.1</ele>
        <time>2021-08-12T08:50:33Z</time>
      </trkpt>
      <trkpt lat="45.50664" lon="6.7372">
        <ele>2016.2</ele>
        <time>2021-08-12T08:50:34Z</time>
      </trkpt>
      <trkpt lat="45.50664" lon="6.73719">
        <ele>2016.4</ele>
        <time>2021-08-12T08:50:35Z</time>
      </trkpt>
      <trkpt lat="45.50663" lon="6.73719">
        <ele>2016.5</ele>
        <time>2021-08-12T08:50:36Z</time>
      </trkpt>
      <trkpt lat="45.50663" lon="6.73718">
        <ele>2016.6</ele>
        <time>2021-08-12T08:50:37Z</time>
      </trkpt>
      <trkpt lat="45.50662" lon="6.73718">
        <ele>2016.7</ele>
        <time>2021-08-12T08:50:38Z</time>
      </trkpt>
      <trkpt lat="45.50662" lon="6.73717">
        <ele>2016.8</ele>
        <time>2021-08-12T08:50:39Z</time>
      </trkpt>
      <trkpt lat="45.50661" lon="6.73717">
        <ele>2017</ele>
        <time>2021-08-12T08:50:40Z</time>
      </trkpt>
      <trkpt lat="45.50661" lon="6.73716">
        <ele>2017.1</ele>
        <time>2021-08-12T08:50:41Z</time>
      </trkpt>
      <trkpt lat="45.50661" lon="6.73716">
        <ele>2017.1</ele>
        <time>2021-08-12T08:50:42Z</time>
      </trkpt>
      <trkpt lat="45.5066" lon="6.73715">
        <ele>2017.2</ele>
        <time>2021-08-12T08:50:43Z</time>
      </trkpt>
      <trkpt lat="45.5066" lon="6.73715">
        <ele>2017.3</ele>
        <time>2021-08-12T08:50:44Z</time>
      </trkpt>
      <trkpt lat="45.5066" lon="6.73715">
        <ele>2017.4</ele>
        <time>2021-08-12T08:50:45Z</time>
      </trkpt>
      <trkpt lat="45.5066" lon="6.73715">
        <ele>2017.5</ele>
        <time>2021-08-12T08:50:46Z</time>
      </trkpt>
      <trkpt lat="45.5066" lon="6.73714">
        <ele>2017.5</ele>
        <time>2021-08-12T08:50:47Z</time>
      </trkpt>
      <trkpt lat="45.50659" lon="6.73714">
        <ele>2017.5</ele>
        <time>2021-08-12T08:50:48Z</time>
      </trkpt>
      <trkpt lat="45.50659" lon="6.73714">
        <ele>2017.6</ele>
        <time>2021-08-12T08:50:49Z</time>
      </trkpt>
      <trkpt lat="45.50659" lon="6.73714">
        <ele>2017.6</ele>
        <time>2021-08-12T08:50:50Z</time>
      </trkpt>
      <trkpt lat="45.50659" lon="6.73714">
        <ele>2017.6</ele>
        <time>2021-08-12T08:50:51Z</time>
      </trkpt>
      <trkpt lat="45.50659" lon="6.73714">
        <ele>2017.6</ele>
        <time>2021-08-12T08:50:52Z</time>
      </trkpt>
      <trkpt lat="45.50659" lon="6.73714">
        <ele>2017.6</ele>
        <time>2021-08-12T08:50:53Z</time>
      </trkpt>
      <trkpt lat="45.50659" lon="6.73714">
        <ele>2017.6</ele>
        <time>2021-08-12T08:50:54Z</time>
      </trkpt>
      <trkpt lat="45.50659" lon="6.73714">
        <ele>2017.6</ele>
        <time>2021-08-12T08:50:55Z</time>
      </trkpt>
      <trkpt lat="45.50659" lon="6.73714">
        <ele>2017.6</ele>
        <time>2021-08-12T08:50:56Z</time>
      </trkpt>
      <trkpt lat="45.50659" lon="6.73714">
        <ele>2017.7</ele>
        <time>2021-08-12T08:50:57Z</time>
      </trkpt>
      <trkpt lat="45.50659" lon="6.73714">
        <ele>2017.7</ele>
        <time>2021-08-12T08:50:58Z</time>
      </trkpt>
      <trkpt lat="45.50659" lon="6.73714">
        <ele>2017.7</ele>
        <time>2021-08-12T08:50:59Z</time>
      </trkpt>
      <trkpt lat="45.50659" lon="6.73714">
        <ele>2017.7</ele>
        <time>2021-08-12T08:51:00Z</time>
      </trkpt>
      <trkpt lat="45.50659" lon="6.73714">
        <ele>2017.7</ele>
        <time>2021-08-12T08:51:01Z</time>
      </trkpt>
      <trkpt lat="45.50659" lon="6.73714">
        <ele>2017.7</ele>
        <time>2021-08-12T08:51:02Z</time>
      </trkpt>
      <trkpt lat="45.50659" lon="6.73714">
        <ele>2017.7</ele>
        <time>2021-08-12T08:51:03Z</time>
      </trkpt>
      <trkpt lat="45.50659" lon="6.73714">
        <ele>2017.7</ele>
        <time>2021-08-12T08:51:04Z</time>
      </trkpt>
      <trkpt lat="45.50659" lon="6.73714">
        <ele>2017.8</ele>
        <time>2021-08-12T08:51:05Z</time>
      </trkpt>
      <trkpt lat="45.50659" lon="6.73714">
        <ele>2017.8</ele>
        <time>2021-08-12T08:51:06Z</time>
      </trkpt>
      <trkpt lat="45.50659" lon="6.73714">
        <ele>2017.8</ele>
        <time>2021-08-12T08:51:07Z</time>
      </trkpt>
      <trkpt lat="45.50659" lon="6.73714">
        <ele>2017.9</ele>
        <time>2021-08-12T08:51:08Z</time>
      </trkpt>
      <trkpt lat="45.50658" lon="6.73714">
        <ele>2017.9</ele>
        <time>2021-08-12T08:51:09Z</time>
      </trkpt>
      <trkpt lat="45.50658" lon="6.73714">
        <ele>2018</ele>
        <time>2021-08-12T08:51:10Z</time>
      </trkpt>
      <trkpt lat="45.50658" lon="6.73714">
        <ele>2018</ele>
        <time>2021-08-12T08:51:11Z</time>
      </trkpt>
      <trkpt lat="45.50658" lon="6.73714">
        <ele>2018.1</ele>
        <time>2021-08-12T08:51:12Z</time>
      </trkpt>
      <trkpt lat="45.50657" lon="6.73713">
        <ele>2018.2</ele>
        <time>2021-08-12T08:51:13Z</time>
      </trkpt>
      <trkpt lat="45.50657" lon="6.73713">
        <ele>2018.2</ele>
        <time>2021-08-12T08:51:14Z</time>
      </trkpt>
      <trkpt lat="45.50657" lon="6.73713">
        <ele>2018.3</ele>
        <time>2021-08-12T08:51:15Z</time>
      </trkpt>
      <trkpt lat="45.50656" lon="6.73713">
        <ele>2018.4</ele>
        <time>2021-08-12T08:51:16Z</time>
      </trkpt>
      <trkpt lat="45.50656" lon="6.73713">
        <ele>2018.5</ele>
        <time>2021-08-12T08:51:17Z</time>
      </trkpt>
      <trkpt lat="45.50655" lon="6.73713">
        <ele>2018.6</ele>
        <time>2021-08-12T08:51:18Z</time>
      </trkpt>
      <trkpt lat="45.50655" lon="6.73713">
        <ele>2018.7</ele>
        <time>2021-08-12T08:51:19Z</time>
      </trkpt>
      <trkpt lat="45.50655" lon="6.73712">
        <ele>2018.8</ele>
        <time>2021-08-12T08:51:20Z</time>
      </trkpt>
      <trkpt lat="45.50654" lon="6.73712">
        <ele>2018.9</ele>
        <time>2021-08-12T08:51:21Z</time>
      </trkpt>
      <trkpt lat="45.50654" lon="6.73712">
        <ele>2019</ele>
        <time>2021-08-12T08:51:22Z</time>
      </trkpt>
      <trkpt lat="45.50653" lon="6.73712">
        <ele>2019.1</ele>
        <time>2021-08-12T08:51:23Z</time>
      </trkpt>
      <trkpt lat="45.50653" lon="6.73712">
        <ele>2019.2</ele>
        <time>2021-08-12T08:51:24Z</time>
      </trkpt>
      <trkpt lat="45.50652" lon="6.73711">
        <ele>2019.3</ele>
        <time>2021-08-12T08:51:25Z</time>
      </trkpt>
      <trkpt lat="45.50652" lon="6.73711">
        <ele>2019.4</ele>
        <time>2021-08-12T08:51:26Z</time>
      </trkpt>
      <trkpt lat="45.50651" lon="6.73711">
        <ele>2019.5</ele>
        <time>2021-08-12T08:51:27Z</time>
      </trkpt>
      <trkpt lat="45.50651" lon="6.73711">
        <ele>2019.6</ele>
        <time>2021-08-12T08:51:28Z</time>
      </trkpt>
      <trkpt lat="45.5065" lon="6.7371">
        <ele>2019.7</ele>
        <time>2021-08-12T08:51:29Z</time>
      </trkpt>
      <trkpt lat="45.5065" lon="6.7371">
        <ele>2019.8</ele>
        <time>2021-08-12T08:51:30Z</time>
      </trkpt>
      <trkpt lat="45.50649" lon="6.7371">
        <ele>2019.9</ele>
        <time>2021-08-12T08:51:31Z</time>
      </trkpt>
      <trkpt lat="45.50649" lon="6.7371">
        <ele>2020</ele>
        <time>2021-08-12T08:51:32Z</time>
      </trkpt>
      <trkpt lat="45.50649" lon="6.73709">
        <ele>2020.1</ele>
        <time>2021-08-12T08:51:33Z</time>
      </trkpt>
      <trkpt lat="45.50648" lon="6.73709">
        <ele>2020.2</ele>
        <time>2021-08-12T08:51:34Z</time>
      </trkpt>
      <trkpt lat="45.50648" lon="6.73709">
        <ele>2020.3</ele>
        <time>2021-08-12T08:51:35Z</time>
      </trkpt>
      <trkpt lat="45.50648" lon="6.73709">
        <ele>2020.4</ele>
        <time>2021-08-12T08:51:36Z</time>
      </trkpt>
      <trkpt lat="45.50647" lon="6.73708">
        <ele>2020.4</ele>
        <time>2021-08-12T08:51:37Z</time>
      </trkpt>
      <trkpt lat="45.50647" lon="6.73708">
        <ele>2020.5</ele>
        <time>2021-08-12T08:51:38Z</time>
      </trkpt>
      <trkpt lat="45.50647" lon="6.73708">
        <ele>2020.5</ele>
        <time>2021-08-12T08:51:39Z</time>
      </trkpt>
      <trkpt lat="45.50647" lon="6.73708">
        <ele>2020.5</ele>
        <time>2021-08-12T08:51:40Z</time>
      </trkpt>
      <trkpt lat="45.50647" lon="6.73708">
        <ele>2020.5</ele>
        <time>2021-08-12T08:51:41Z</time>
      </trkpt>
      <trkpt lat="45.50647" lon="6.73708">
        <ele>2020.5</ele>
        <time>2021-08-12T08:51:42Z</time>
      </trkpt>
      <trkpt lat="45.50647" lon="6.73708">
        <ele>2020.5</ele>
        <time>2021-08-12T08:51:43Z</time>
      </trkpt>
      <trkpt lat="45.50647" lon="6.73708">
        <ele>2020.5</ele>
        <time>2021-08-12T08:51:44Z</time>
      </trkpt>
      <trkpt lat="45.50647" lon="6.73708">
        <ele>2020.5</ele>
        <time>2021-08-12T08:51:45Z</time>
      </trkpt>
      <trkpt lat="45.50647" lon="6.73708">
        <ele>2020.5</ele>
        <time>2021-08-12T08:51:46Z</time>
      </trkpt>
      <trkpt lat="45.50647" lon="6.73708">
        <ele>2020.5</ele>
        <time>2021-08-12T08:51:47Z</time>
      </trkpt>
      <trkpt lat="45.50647" lon="6.73708">
        <ele>2020.6</ele>
        <time>2021-08-12T08:51:48Z</time>
      </trkpt>
      <trkpt lat="45.50647" lon="6.73708">
        <ele>2020.6</ele>
        <time>2021-08-12T08:51:49Z</time>
      </trkpt>
      <trkpt lat="45.50647" lon="6.73708">
        <ele>2020.6</ele>
        <time>2021-08-12T08:51:50Z</time>
      </trkpt>
      <trkpt lat="45.50647" lon="6.73708">
        <ele>2020.6</ele>
        <time>2021-08-12T08:51:51Z</time>
      </trkpt>
      <trkpt lat="45.50647" lon="6.73708">
        <ele>2020.7</ele>
        <time>2021-08-12T08:51:52Z</time>
      </trkpt>
      <trkpt lat="45.50646" lon="6.73707">
        <ele>2020.7</ele>
        <time>2021-08-12T08:51:53Z</time>
      </trkpt>
      <trkpt lat="45.50646" lon="6.73707">
        <ele>2020.8</ele>
        <time>2021-08-12T08:51:54Z</time>
      </trkpt>
      <trkpt lat="45.50646" lon="6.73707">
        <ele>2020.8</ele>
        <time>2021-08-12T08:51:55Z</time>
      </trkpt>
      <trkpt lat="45.50646" lon="6.73707">
        <ele>2020.8</ele>
        <time>2021-08-12T08:51:56Z</time>
      </trkpt>
      <trkpt lat="45.50646" lon="6.73706">
        <ele>2020.9</ele>
        <time>2021-08-12T08:51:57Z</time>
      </trkpt>
      <trkpt lat="45.50646" lon="6.73706">
        <ele>2021</ele>
        <time>2021-08-12T08:51:58Z</time>
      </trkpt>
      <trkpt lat="45.50645" lon="6.73706">
        <ele>2021</ele>
        <time>2021-08-12T08:51:59Z</time>
      </trkpt>
      <trkpt lat="45.50645" lon="6.73706">
        <ele>2021.1</ele>
        <time>2021-08-12T08:52:00Z</time>
      </trkpt>
      <trkpt lat="45.50645" lon="6.73705">
        <ele>2021.1</ele>
        <time>2021-08-12T08:52:01Z</time>
      </trkpt>
      <trkpt lat="45.50645" lon="6.73705">
        <ele>2021.2</ele>
        <time>2021-08-12T08:52:02Z</time>
      </trkpt>
      <trkpt lat="45.50644" lon="6.73705">
        <ele>2021.3</ele>
        <time>2021-08-12T08:52:03Z</time>
      </trkpt>
      <trkpt lat="45.50644" lon="6.73705">
        <ele>2021.4</ele>
        <time>2021-08-12T08:52:04Z</time>
      </trkpt>
      <trkpt lat="45.50644" lon="6.73704">
        <ele>2021.4</ele>
        <time>2021-08-12T08:52:05Z</time>
      </trkpt>
      <trkpt lat="45.50644" lon="6.73704">
        <ele>2021.5</ele>
        <time>2021-08-12T08:52:06Z</time>
      </trkpt>
      <trkpt lat="45.50643" lon="6.73704">
        <ele>2021.6</ele>
        <time>2021-08-12T08:52:07Z</time>
      </trkpt>
      <trkpt lat="45.50643" lon="6.73703">
        <ele>2021.6</ele>
        <time>2021-08-12T08:52:08Z</time>
      </trkpt>
      <trkpt lat="45.50643" lon="6.73703">
        <ele>2021.7</ele>
        <time>2021-08-12T08:52:09Z</time>
      </trkpt>
      <trkpt lat="45.50643" lon="6.73703">
        <ele>2021.8</ele>
        <time>2021-08-12T08:52:10Z</time>
      </trkpt>
      <trkpt lat="45.50642" lon="6.73703">
        <ele>2021.8</ele>
        <time>2021-08-12T08:52:11Z</time>
      </trkpt>
      <trkpt lat="45.50642" lon="6.73702">
        <ele>2021.9</ele>
        <time>2021-08-12T08:52:12Z</time>
      </trkpt>
      <trkpt lat="45.50642" lon="6.73702">
        <ele>2022</ele>
        <time>2021-08-12T08:52:13Z</time>
      </trkpt>
      <trkpt lat="45.50641" lon="6.73702">
        <ele>2022.1</ele>
        <time>2021-08-12T08:52:14Z</time>
      </trkpt>
      <trkpt lat="45.50641" lon="6.73702">
        <ele>2022.1</ele>
        <time>2021-08-12T08:52:15Z</time>
      </trkpt>
      <trkpt lat="45.50641" lon="6.73701">
        <ele>2022.2</ele>
        <time>2021-08-12T08:52:16Z</time>
      </trkpt>
      <trkpt lat="45.50641" lon="6.73701">
        <ele>2022.3</ele>
        <time>2021-08-12T08:52:17Z</time>
      </trkpt>
      <trkpt lat="45.5064" lon="6.73701">
        <ele>2022.3</ele>
        <time>2021-08-12T08:52:18Z</time>
      </trkpt>
      <trkpt lat="45.5064" lon="6.737">
        <ele>2022.4</ele>
        <time>2021-08-12T08:52:19Z</time>
      </trkpt>
      <trkpt lat="45.5064" lon="6.737">
        <ele>2022.5</ele>
        <time>2021-08-12T08:52:20Z</time>
      </trkpt>
      <trkpt lat="45.5064" lon="6.737">
        <ele>2022.6</ele>
        <time>2021-08-12T08:52:21Z</time>
      </trkpt>
      <trkpt lat="45.50639" lon="6.73699">
        <ele>2022.6</ele>
        <time>2021-08-12T08:52:22Z</time>
      </trkpt>
      <trkpt lat="45.50639" lon="6.73699">
        <ele>2022.7</ele>
        <time>2021-08-12T08:52:23Z</time>
      </trkpt>
      <trkpt lat="45.50639" lon="6.73699">
        <ele>2022.8</ele>
        <time>2021-08-12T08:52:24Z</time>
      </trkpt>
      <trkpt lat="45.50639" lon="6.73698">
        <ele>2022.9</ele>
        <time>2021-08-12T08:52:25Z</time>
      </trkpt>
      <trkpt lat="45.50638" lon="6.73698">
        <ele>2023</ele>
        <time>2021-08-12T08:52:26Z</time>
      </trkpt>
      <trkpt lat="45.50638" lon="6.73697">
        <ele>2023</ele>
        <time>2021-08-12T08:52:27Z</time>
      </trkpt>
      <trkpt lat="45.50638" lon="6.73697">
        <ele>2023.1</ele>
        <time>2021-08-12T08:52:28Z</time>
      </trkpt>
      <trkpt lat="45.50638" lon="6.73696">
        <ele>2023.2</ele>
        <time>2021-08-12T08:52:29Z</time>
      </trkpt>
      <trkpt lat="45.50638" lon="6.73696">
        <ele>2023.3</ele>
        <time>2021-08-12T08:52:30Z</time>
      </trkpt>
      <trkpt lat="45.50638" lon="6.73695">
        <ele>2023.4</ele>
        <time>2021-08-12T08:52:31Z</time>
      </trkpt>
      <trkpt lat="45.50637" lon="6.73695">
        <ele>2023.5</ele>
        <time>2021-08-12T08:52:32Z</time>
      </trkpt>
      <trkpt lat="45.50637" lon="6.73694">
        <ele>2023.5</ele>
        <time>2021-08-12T08:52:33Z</time>
      </trkpt>
      <trkpt lat="45.50637" lon="6.73694">
        <ele>2023.6</ele>
        <time>2021-08-12T08:52:34Z</time>
      </trkpt>
      <trkpt lat="45.50637" lon="6.73694">
        <ele>2023.6</ele>
        <time>2021-08-12T08:52:35Z</time>
      </trkpt>
      <trkpt lat="45.50637" lon="6.73693">
        <ele>2023.7</ele>
        <time>2021-08-12T08:52:36Z</time>
      </trkpt>
      <trkpt lat="45.50637" lon="6.73693">
        <ele>2023.7</ele>
        <time>2021-08-12T08:52:37Z</time>
      </trkpt>
      <trkpt lat="45.50637" lon="6.73693">
        <ele>2023.8</ele>
        <time>2021-08-12T08:52:38Z</time>
      </trkpt>
      <trkpt lat="45.50637" lon="6.73693">
        <ele>2023.8</ele>
        <time>2021-08-12T08:52:39Z</time>
      </trkpt>
      <trkpt lat="45.50637" lon="6.73693">
        <ele>2023.8</ele>
        <time>2021-08-12T08:52:40Z</time>
      </trkpt>
      <trkpt lat="45.50637" lon="6.73692">
        <ele>2023.8</ele>
        <time>2021-08-12T08:52:41Z</time>
      </trkpt>
      <trkpt lat="45.50637" lon="6.73692">
        <ele>2023.9</ele>
        <time>2021-08-12T08:52:42Z</time>
      </trkpt>
      <trkpt lat="45.50637" lon="6.73692">
        <ele>2023.9</ele>
        <time>2021-08-12T08:52:43Z</time>
      </trkpt>
      <trkpt lat="45.50636" lon="6.73692">
        <ele>2023.9</ele>
        <time>2021-08-12T08:52:44Z</time>
      </trkpt>
      <trkpt lat="45.50636" lon="6.73692">
        <ele>2024</ele>
        <time>2021-08-12T08:52:45Z</time>
      </trkpt>
      <trkpt lat="45.50636" lon="6.73691">
        <ele>2024.1</ele>
        <time>2021-08-12T08:52:46Z</time>
      </trkpt>
      <trkpt lat="45.50636" lon="6.73691">
        <ele>2024.1</ele>
        <time>2021-08-12T08:52:47Z</time>
      </trkpt>
      <trkpt lat="45.50635" lon="6.73691">
        <ele>2024.2</ele>
        <time>2021-08-12T08:52:48Z</time>
      </trkpt>
      <trkpt lat="45.50635" lon="6.7369">
        <ele>2024.3</ele>
        <time>2021-08-12T08:52:49Z</time>
      </trkpt>
      <trkpt lat="45.50635" lon="6.7369">
        <ele>2024.4</ele>
        <time>2021-08-12T08:52:50Z</time>
      </trkpt>
      <trkpt lat="45.50635" lon="6.73689">
        <ele>2024.5</ele>
        <time>2021-08-12T08:52:51Z</time>
      </trkpt>
      <trkpt lat="45.50634" lon="6.73689">
        <ele>2024.6</ele>
        <time>2021-08-12T08:52:52Z</time>
      </trkpt>
      <trkpt lat="45.50634" lon="6.73689">
        <ele>2024.7</ele>
        <time>2021-08-12T08:52:53Z</time>
      </trkpt>
      <trkpt lat="45.50634" lon="6.73688">
        <ele>2024.8</ele>
        <time>2021-08-12T08:52:54Z</time>
      </trkpt>
      <trkpt lat="45.50633" lon="6.73688">
        <ele>2024.9</ele>
        <time>2021-08-12T08:52:55Z</time>
      </trkpt>
      <trkpt lat="45.50633" lon="6.73688">
        <ele>2024.9</ele>
        <time>2021-08-12T08:52:56Z</time>
      </trkpt>
      <trkpt lat="45.50633" lon="6.73688">
        <ele>2025</ele>
        <time>2021-08-12T08:52:57Z</time>
      </trkpt>
      <trkpt lat="45.50632" lon="6.73687">
        <ele>2025</ele>
        <time>2021-08-12T08:52:58Z</time>
      </trkpt>
      <trkpt lat="45.50632" lon="6.73687">
        <ele>2025.1</ele>
        <time>2021-08-12T08:52:59Z</time>
      </trkpt>
      <trkpt lat="45.50632" lon="6.73687">
        <ele>2025.2</ele>
        <time>2021-08-12T08:53:00Z</time>
      </trkpt>
      <trkpt lat="45.50632" lon="6.73687">
        <ele>2025.2</ele>
        <time>2021-08-12T08:53:01Z</time>
      </trkpt>
      <trkpt lat="45.50631" lon="6.73688">
        <ele>2025.3</ele>
        <time>2021-08-12T08:53:02Z</time>
      </trkpt>
      <trkpt lat="45.50631" lon="6.73688">
        <ele>2025.3</ele>
        <time>2021-08-12T08:53:03Z</time>
      </trkpt>
      <trkpt lat="45.50631" lon="6.73688">
        <ele>2025.4</ele>
        <time>2021-08-12T08:53:04Z</time>
      </trkpt>
      <trkpt lat="45.50631" lon="6.73688">
        <ele>2025.4</ele>
        <time>2021-08-12T08:53:05Z</time>
      </trkpt>
      <trkpt lat="45.50631" lon="6.73688">
        <ele>2025.5</ele>
        <time>2021-08-12T08:53:06Z</time>
      </trkpt>
      <trkpt lat="45.5063" lon="6.73689">
        <ele>2025.6</ele>
        <time>2021-08-12T08:53:07Z</time>
      </trkpt>
      <trkpt lat="45.5063" lon="6.73689">
        <ele>2025.6</ele>
        <time>2021-08-12T08:53:08Z</time>
      </trkpt>
      <trkpt lat="45.5063" lon="6.73689">
        <ele>2025.7</ele>
        <time>2021-08-12T08:53:09Z</time>
      </trkpt>
      <trkpt lat="45.5063" lon="6.7369">
        <ele>2025.8</ele>
        <time>2021-08-12T08:53:10Z</time>
      </trkpt>
      <trkpt lat="45.50629" lon="6.7369">
        <ele>2025.8</ele>
        <time>2021-08-12T08:53:11Z</time>
      </trkpt>
      <trkpt lat="45.50629" lon="6.73691">
        <ele>2025.9</ele>
        <time>2021-08-12T08:53:12Z</time>
      </trkpt>
      <trkpt lat="45.50629" lon="6.73691">
        <ele>2026</ele>
        <time>2021-08-12T08:53:13Z</time>
      </trkpt>
      <trkpt lat="45.50629" lon="6.73691">
        <ele>2026.1</ele>
        <time>2021-08-12T08:53:14Z</time>
      </trkpt>
      <trkpt lat="45.50629" lon="6.73692">
        <ele>2026.1</ele>
        <time>2021-08-12T08:53:15Z</time>
      </trkpt>
      <trkpt lat="45.50628" lon="6.73692">
        <ele>2026.2</ele>
        <time>2021-08-12T08:53:16Z</time>
      </trkpt>
      <trkpt lat="45.50628" lon="6.73693">
        <ele>2026.3</ele>
        <time>2021-08-12T08:53:17Z</time>
      </trkpt>
      <trkpt lat="45.50628" lon="6.73693">
        <ele>2026.3</ele>
        <time>2021-08-12T08:53:18Z</time>
      </trkpt>
      <trkpt lat="45.50628" lon="6.73693">
        <ele>2026.4</ele>
        <time>2021-08-12T08:53:19Z</time>
      </trkpt>
      <trkpt lat="45.50628" lon="6.73694">
        <ele>2026.5</ele>
        <time>2021-08-12T08:53:20Z</time>
      </trkpt>
      <trkpt lat="45.50628" lon="6.73694">
        <ele>2026.5</ele>
        <time>2021-08-12T08:53:21Z</time>
      </trkpt>
      <trkpt lat="45.50628" lon="6.73695">
        <ele>2026.6</ele>
        <time>2021-08-12T08:53:22Z</time>
      </trkpt>
      <trkpt lat="45.50628" lon="6.73695">
        <ele>2026.7</ele>
        <time>2021-08-12T08:53:23Z</time>
      </trkpt>
      <trkpt lat="45.50628" lon="6.73695">
        <ele>2026.7</ele>
        <time>2021-08-12T08:53:24Z</time>
      </trkpt>
      <trkpt lat="45.50628" lon="6.73695">
        <ele>2026.8</ele>
        <time>2021-08-12T08:53:25Z</time>
      </trkpt>
      <trkpt lat="45.50628" lon="6.73696">
        <ele>2026.8</ele>
        <time>2021-08-12T08:53:26Z</time>
      </trkpt>
      <trkpt lat="45.50628" lon="6.73696">
        <ele>2026.8</ele>
        <time>2021-08-12T08:53:27Z</time>
      </trkpt>
      <trkpt lat="45.50628" lon="6.73696">
        <ele>2026.9</ele>
        <time>2021-08-12T08:53:28Z</time>
      </trkpt>
      <trkpt lat="45.50628" lon="6.73697">
        <ele>2026.9</ele>
        <time>2021-08-12T08:53:29Z</time>
      </trkpt>
      <trkpt lat="45.50628" lon="6.73697">
        <ele>2026.9</ele>
        <time>2021-08-12T08:53:30Z</time>
      </trkpt>
      <trkpt lat="45.50627" lon="6.73697">
        <ele>2027</ele>
        <time>2021-08-12T08:53:31Z</time>
      </trkpt>
      <trkpt lat="45.50627" lon="6.73697">
        <ele>2027</ele>
        <time>2021-08-12T08:53:32Z</time>
      </trkpt>
      <trkpt lat="45.50627" lon="6.73698">
        <ele>2027.1</ele>
        <time>2021-08-12T08:53:33Z</time>
      </trkpt>
      <trkpt lat="45.50627" lon="6.73698">
        <ele>2027.2</ele>
        <time>2021-08-12T08:53:34Z</time>
      </trkpt>
      <trkpt lat="45.50627" lon="6.73699">
        <ele>2027.2</ele>
        <time>2021-08-12T08:53:35Z</time>
      </trkpt>
      <trkpt lat="45.50627" lon="6.73699">
        <ele>2027.3</ele>
        <time>2021-08-12T08:53:36Z</time>
      </trkpt>
      <trkpt lat="45.50626" lon="6.737">
        <ele>2027.4</ele>
        <time>2021-08-12T08:53:37Z</time>
      </trkpt>
      <trkpt lat="45.50626" lon="6.737">
        <ele>2027.5</ele>
        <time>2021-08-12T08:53:38Z</time>
      </trkpt>
      <trkpt lat="45.50626" lon="6.73701">
        <ele>2027.6</ele>
        <time>2021-08-12T08:53:39Z</time>
      </trkpt>
      <trkpt lat="45.50626" lon="6.73701">
        <ele>2027.7</ele>
        <time>2021-08-12T08:53:40Z</time>
      </trkpt>
      <trkpt lat="45.50625" lon="6.73702">
        <ele>2027.8</ele>
        <time>2021-08-12T08:53:41Z</time>
      </trkpt>
      <trkpt lat="45.50625" lon="6.73702">
        <ele>2027.9</ele>
        <time>2021-08-12T08:53:42Z</time>
      </trkpt>
      <trkpt lat="45.50625" lon="6.73702">
        <ele>2028</ele>
        <time>2021-08-12T08:53:43Z</time>
      </trkpt>
      <trkpt lat="45.50625" lon="6.73703">
        <ele>2028</ele>
        <time>2021-08-12T08:53:44Z</time>
      </trkpt>
      <trkpt lat="45.50625" lon="6.73703">
        <ele>2028.1</ele>
        <time>2021-08-12T08:53:45Z</time>
      </trkpt>
      <trkpt lat="45.50625" lon="6.73703">
        <ele>2028.1</ele>
        <time>2021-08-12T08:53:46Z</time>
      </trkpt>
      <trkpt lat="45.50624" lon="6.73703">
        <ele>2028.1</ele>
        <time>2021-08-12T08:53:47Z</time>
      </trkpt>
      <trkpt lat="45.50624" lon="6.73703">
        <ele>2028.1</ele>
        <time>2021-08-12T08:53:48Z</time>
      </trkpt>
      <trkpt lat="45.50624" lon="6.73703">
        <ele>2028.1</ele>
        <time>2021-08-12T08:53:49Z</time>
      </trkpt>
      <trkpt lat="45.50624" lon="6.73703">
        <ele>2028.1</ele>
        <time>2021-08-12T08:53:50Z</time>
      </trkpt>
      <trkpt lat="45.50624" lon="6.73703">
        <ele>2028.1</ele>
        <time>2021-08-12T08:53:51Z</time>
      </trkpt>
      <trkpt lat="45.50624" lon="6.73703">
        <ele>2028.2</ele>
        <time>2021-08-12T08:53:52Z</time>
      </trkpt>
      <trkpt lat="45.50624" lon="6.73703">
        <ele>2028.2</ele>
        <time>2021-08-12T08:53:53Z</time>
      </trkpt>
      <trkpt lat="45.50624" lon="6.73703">
        <ele>2028.3</ele>
        <time>2021-08-12T08:53:54Z</time>
      </trkpt>
      <trkpt lat="45.50623" lon="6.73703">
        <ele>2028.3</ele>
        <time>2021-08-12T08:53:55Z</time>
      </trkpt>
      <trkpt lat="45.50623" lon="6.73703">
        <ele>2028.4</ele>
        <time>2021-08-12T08:53:56Z</time>
      </trkpt>
      <trkpt lat="45.50623" lon="6.73703">
        <ele>2028.5</ele>
        <time>2021-08-12T08:53:57Z</time>
      </trkpt>
      <trkpt lat="45.50622" lon="6.73703">
        <ele>2028.6</ele>
        <time>2021-08-12T08:53:58Z</time>
      </trkpt>
      <trkpt lat="45.50622" lon="6.73704">
        <ele>2028.7</ele>
        <time>2021-08-12T08:53:59Z</time>
      </trkpt>
      <trkpt lat="45.50621" lon="6.73704">
        <ele>2028.8</ele>
        <time>2021-08-12T08:54:00Z</time>
      </trkpt>
      <trkpt lat="45.50621" lon="6.73704">
        <ele>2028.9</ele>
        <time>2021-08-12T08:54:01Z</time>
      </trkpt>
      <trkpt lat="45.5062" lon="6.73704">
        <ele>2029</ele>
        <time>2021-08-12T08:54:02Z</time>
      </trkpt>
      <trkpt lat="45.5062" lon="6.73704">
        <ele>2029.1</ele>
        <time>2021-08-12T08:54:03Z</time>
      </trkpt>
      <trkpt lat="45.5062" lon="6.73704">
        <ele>2029.1</ele>
        <time>2021-08-12T08:54:04Z</time>
      </trkpt>
      <trkpt lat="45.5062" lon="6.73705">
        <ele>2029.1</ele>
        <time>2021-08-12T08:54:05Z</time>
      </trkpt>
      <trkpt lat="45.5062" lon="6.73705">
        <ele>2029.2</ele>
        <time>2021-08-12T08:54:06Z</time>
      </trkpt>
      <trkpt lat="45.5062" lon="6.73705">
        <ele>2029.2</ele>
        <time>2021-08-12T08:54:07Z</time>
      </trkpt>
      <trkpt lat="45.5062" lon="6.73705">
        <ele>2029.2</ele>
        <time>2021-08-12T08:54:08Z</time>
      </trkpt>
      <trkpt lat="45.5062" lon="6.73705">
        <ele>2029.2</ele>
        <time>2021-08-12T08:54:09Z</time>
      </trkpt>
      <trkpt lat="45.5062" lon="6.73705">
        <ele>2029.2</ele>
        <time>2021-08-12T08:54:10Z</time>
      </trkpt>
      <trkpt lat="45.5062" lon="6.73705">
        <ele>2029.2</ele>
        <time>2021-08-12T08:54:11Z</time>
      </trkpt>
      <trkpt lat="45.5062" lon="6.73705">
        <ele>2029.2</ele>
        <time>2021-08-12T08:54:12Z</time>
      </trkpt>
      <trkpt lat="45.50619" lon="6.73705">
        <ele>2029.3</ele>
        <time>2021-08-12T08:54:13Z</time>
      </trkpt>
      <trkpt lat="45.50619" lon="6.73705">
        <ele>2029.3</ele>
        <time>2021-08-12T08:54:14Z</time>
      </trkpt>
      <trkpt lat="45.50619" lon="6.73706">
        <ele>2029.4</ele>
        <time>2021-08-12T08:54:15Z</time>
      </trkpt>
      <trkpt lat="45.50618" lon="6.73706">
        <ele>2029.5</ele>
        <time>2021-08-12T08:54:16Z</time>
      </trkpt>
      <trkpt lat="45.50618" lon="6.73706">
        <ele>2029.6</ele>
        <time>2021-08-12T08:54:17Z</time>
      </trkpt>
      <trkpt lat="45.50618" lon="6.73707">
        <ele>2029.8</ele>
        <time>2021-08-12T08:54:18Z</time>
      </trkpt>
      <trkpt lat="45.50617" lon="6.73707">
        <ele>2029.8</ele>
        <time>2021-08-12T08:54:19Z</time>
      </trkpt>
      <trkpt lat="45.50617" lon="6.73708">
        <ele>2029.9</ele>
        <time>2021-08-12T08:54:20Z</time>
      </trkpt>
      <trkpt lat="45.50616" lon="6.73708">
        <ele>2030.1</ele>
        <time>2021-08-12T08:54:21Z</time>
      </trkpt>
      <trkpt lat="45.50616" lon="6.73708">
        <ele>2030.2</ele>
        <time>2021-08-12T08:54:22Z</time>
      </trkpt>
      <trkpt lat="45.50615" lon="6.73709">
        <ele>2030.4</ele>
        <time>2021-08-12T08:54:23Z</time>
      </trkpt>
      <trkpt lat="45.50615" lon="6.73709">
        <ele>2030.5</ele>
        <time>2021-08-12T08:54:24Z</time>
      </trkpt>
      <trkpt lat="45.50615" lon="6.73709">
        <ele>2030.6</ele>
        <time>2021-08-12T08:54:25Z</time>
      </trkpt>
      <trkpt lat="45.50614" lon="6.7371">
        <ele>2030.7</ele>
        <time>2021-08-12T08:54:26Z</time>
      </trkpt>
      <trkpt lat="45.50614" lon="6.7371">
        <ele>2030.7</ele>
        <time>2021-08-12T08:54:27Z</time>
      </trkpt>
      <trkpt lat="45.50614" lon="6.7371">
        <ele>2030.8</ele>
        <time>2021-08-12T08:54:28Z</time>
      </trkpt>
      <trkpt lat="45.50614" lon="6.7371">
        <ele>2030.8</ele>
        <time>2021-08-12T08:54:29Z</time>
      </trkpt>
      <trkpt lat="45.50614" lon="6.7371">
        <ele>2030.8</ele>
        <time>2021-08-12T08:54:30Z</time>
      </trkpt>
      <trkpt lat="45.50614" lon="6.7371">
        <ele>2030.9</ele>
        <time>2021-08-12T08:54:31Z</time>
      </trkpt>
      <trkpt lat="45.50614" lon="6.7371">
        <ele>2030.9</ele>
        <time>2021-08-12T08:54:32Z</time>
      </trkpt>
      <trkpt lat="45.50614" lon="6.7371">
        <ele>2030.9</ele>
        <time>2021-08-12T08:54:33Z</time>
      </trkpt>
      <trkpt lat="45.50614" lon="6.7371">
        <ele>2030.9</ele>
        <time>2021-08-12T08:54:34Z</time>
      </trkpt>
      <trkpt lat="45.50614" lon="6.7371">
        <ele>2030.9</ele>
        <time>2021-08-12T08:54:35Z</time>
      </trkpt>
      <trkpt lat="45.50614" lon="6.7371">
        <ele>2030.9</ele>
        <time>2021-08-12T08:54:36Z</time>
      </trkpt>
      <trkpt lat="45.50614" lon="6.7371">
        <ele>2030.9</ele>
        <time>2021-08-12T08:54:37Z</time>
      </trkpt>
      <trkpt lat="45.50614" lon="6.7371">
        <ele>2030.9</ele>
        <time>2021-08-12T08:54:38Z</time>
      </trkpt>
      <trkpt lat="45.50614" lon="6.7371">
        <ele>2030.9</ele>
        <time>2021-08-12T08:54:39Z</time>
      </trkpt>
      <trkpt lat="45.50614" lon="6.7371">
        <ele>2030.9</ele>
        <time>2021-08-12T08:54:40Z</time>
      </trkpt>
      <trkpt lat="45.50614" lon="6.7371">
        <ele>2030.9</ele>
        <time>2021-08-12T08:54:41Z</time>
      </trkpt>
      <trkpt lat="45.50614" lon="6.7371">
        <ele>2030.9</ele>
        <time>2021-08-12T08:54:42Z</time>
      </trkpt>
      <trkpt lat="45.50614" lon="6.7371">
        <ele>2031</ele>
        <time>2021-08-12T08:54:43Z</time>
      </trkpt>
      <trkpt lat="45.50614" lon="6.7371">
        <ele>2031</ele>
        <time>2021-08-12T08:54:44Z</time>
      </trkpt>
      <trkpt lat="45.50614" lon="6.7371">
        <ele>2031</ele>
        <time>2021-08-12T08:54:45Z</time>
      </trkpt>
      <trkpt lat="45.50614" lon="6.7371">
        <ele>2031</ele>
        <time>2021-08-12T08:54:46Z</time>
      </trkpt>
      <trkpt lat="45.50614" lon="6.7371">
        <ele>2031</ele>
        <time>2021-08-12T08:54:47Z</time>
      </trkpt>
      <trkpt lat="45.50613" lon="6.7371">
        <ele>2031.1</ele>
        <time>2021-08-12T08:54:48Z</time>
      </trkpt>
      <trkpt lat="45.50613" lon="6.7371">
        <ele>2031.1</ele>
        <time>2021-08-12T08:54:49Z</time>
      </trkpt>
      <trkpt lat="45.50613" lon="6.7371">
        <ele>2031.1</ele>
        <time>2021-08-12T08:54:50Z</time>
      </trkpt>
      <trkpt lat="45.50613" lon="6.7371">
        <ele>2031.1</ele>
        <time>2021-08-12T08:54:51Z</time>
      </trkpt>
      <trkpt lat="45.50613" lon="6.73711">
        <ele>2031.2</ele>
        <time>2021-08-12T08:54:52Z</time>
      </trkpt>
      <trkpt lat="45.50613" lon="6.73711">
        <ele>2031.2</ele>
        <time>2021-08-12T08:54:53Z</time>
      </trkpt>
      <trkpt lat="45.50613" lon="6.73711">
        <ele>2031.3</ele>
        <time>2021-08-12T08:54:54Z</time>
      </trkpt>
      <trkpt lat="45.50613" lon="6.73711">
        <ele>2031.3</ele>
        <time>2021-08-12T08:54:55Z</time>
      </trkpt>
      <trkpt lat="45.50613" lon="6.73711">
        <ele>2031.3</ele>
        <time>2021-08-12T08:54:56Z</time>
      </trkpt>
      <trkpt lat="45.50612" lon="6.73711">
        <ele>2031.3</ele>
        <time>2021-08-12T08:54:57Z</time>
      </trkpt>
      <trkpt lat="45.50612" lon="6.73711">
        <ele>2031.4</ele>
        <time>2021-08-12T08:54:58Z</time>
      </trkpt>
      <trkpt lat="45.50612" lon="6.73711">
        <ele>2031.4</ele>
        <time>2021-08-12T08:54:59Z</time>
      </trkpt>
      <trkpt lat="45.50612" lon="6.73711">
        <ele>2031.4</ele>
        <time>2021-08-12T08:55:00Z</time>
      </trkpt>
      <trkpt lat="45.50612" lon="6.73711">
        <ele>2031.4</ele>
        <time>2021-08-12T08:55:01Z</time>
      </trkpt>
      <trkpt lat="45.50612" lon="6.73711">
        <ele>2031.4</ele>
        <time>2021-08-12T08:55:02Z</time>
      </trkpt>
      <trkpt lat="45.50612" lon="6.73711">
        <ele>2031.4</ele>
        <time>2021-08-12T08:55:03Z</time>
      </trkpt>
      <trkpt lat="45.50612" lon="6.73711">
        <ele>2031.5</ele>
        <time>2021-08-12T08:55:04Z</time>
      </trkpt>
      <trkpt lat="45.50612" lon="6.73711">
        <ele>2031.5</ele>
        <time>2021-08-12T08:55:05Z</time>
      </trkpt>
      <trkpt lat="45.50612" lon="6.73711">
        <ele>2031.6</ele>
        <time>2021-08-12T08:55:06Z</time>
      </trkpt>
      <trkpt lat="45.50611" lon="6.73711">
        <ele>2031.7</ele>
        <time>2021-08-12T08:55:07Z</time>
      </trkpt>
      <trkpt lat="45.50611" lon="6.73712">
        <ele>2031.8</ele>
        <time>2021-08-12T08:55:08Z</time>
      </trkpt>
      <trkpt lat="45.5061" lon="6.73712">
        <ele>2031.9</ele>
        <time>2021-08-12T08:55:09Z</time>
      </trkpt>
      <trkpt lat="45.5061" lon="6.73712">
        <ele>2032.1</ele>
        <time>2021-08-12T08:55:10Z</time>
      </trkpt>
      <trkpt lat="45.50609" lon="6.73712">
        <ele>2032.3</ele>
        <time>2021-08-12T08:55:11Z</time>
      </trkpt>
      <trkpt lat="45.50609" lon="6.73712">
        <ele>2032.4</ele>
        <time>2021-08-12T08:55:12Z</time>
      </trkpt>
      <trkpt lat="45.50608" lon="6.73712">
        <ele>2032.5</ele>
        <time>2021-08-12T08:55:13Z</time>
      </trkpt>
      <trkpt lat="45.50608" lon="6.73712">
        <ele>2032.6</ele>
        <time>2021-08-12T08:55:14Z</time>
      </trkpt>
      <trkpt lat="45.50608" lon="6.73712">
        <ele>2032.7</ele>
        <time>2021-08-12T08:55:15Z</time>
      </trkpt>
      <trkpt lat="45.50607" lon="6.73712">
        <ele>2032.8</ele>
        <time>2021-08-12T08:55:16Z</time>
      </trkpt>
      <trkpt lat="45.50607" lon="6.73713">
        <ele>2032.8</ele>
        <time>2021-08-12T08:55:17Z</time>
      </trkpt>
      <trkpt lat="45.50607" lon="6.73713">
        <ele>2032.9</ele>
        <time>2021-08-12T08:55:18Z</time>
      </trkpt>
      <trkpt lat="45.50607" lon="6.73713">
        <ele>2032.9</ele>
        <time>2021-08-12T08:55:19Z</time>
      </trkpt>
      <trkpt lat="45.50608" lon="6.73713">
        <ele>2033</ele>
        <time>2021-08-12T08:55:20Z</time>
      </trkpt>
      <trkpt lat="45.50608" lon="6.73713">
        <ele>2033</ele>
        <time>2021-08-12T08:55:21Z</time>
      </trkpt>
      <trkpt lat="45.50608" lon="6.73713">
        <ele>2033</ele>
        <time>2021-08-12T08:55:22Z</time>
      </trkpt>
      <trkpt lat="45.50608" lon="6.73713">
        <ele>2033.1</ele>
        <time>2021-08-12T08:55:23Z</time>
      </trkpt>
      <trkpt lat="45.50608" lon="6.73714">
        <ele>2033.1</ele>
        <time>2021-08-12T08:55:24Z</time>
      </trkpt>
      <trkpt lat="45.50608" lon="6.73714">
        <ele>2033.2</ele>
        <time>2021-08-12T08:55:25Z</time>
      </trkpt>
      <trkpt lat="45.50608" lon="6.73714">
        <ele>2033.2</ele>
        <time>2021-08-12T08:55:26Z</time>
      </trkpt>
      <trkpt lat="45.50608" lon="6.73714">
        <ele>2033.3</ele>
        <time>2021-08-12T08:55:27Z</time>
      </trkpt>
      <trkpt lat="45.50608" lon="6.73714">
        <ele>2033.3</ele>
        <time>2021-08-12T08:55:28Z</time>
      </trkpt>
      <trkpt lat="45.50608" lon="6.73714">
        <ele>2033.3</ele>
        <time>2021-08-12T08:55:29Z</time>
      </trkpt>
      <trkpt lat="45.50609" lon="6.73715">
        <ele>2033.4</ele>
        <time>2021-08-12T08:55:30Z</time>
      </trkpt>
      <trkpt lat="45.50609" lon="6.73715">
        <ele>2033.4</ele>
        <time>2021-08-12T08:55:31Z</time>
      </trkpt>
      <trkpt lat="45.50609" lon="6.73715">
        <ele>2033.5</ele>
        <time>2021-08-12T08:55:32Z</time>
      </trkpt>
      <trkpt lat="45.50609" lon="6.73715">
        <ele>2033.5</ele>
        <time>2021-08-12T08:55:33Z</time>
      </trkpt>
      <trkpt lat="45.50609" lon="6.73715">
        <ele>2033.5</ele>
        <time>2021-08-12T08:55:34Z</time>
      </trkpt>
      <trkpt lat="45.50609" lon="6.73715">
        <ele>2033.6</ele>
        <time>2021-08-12T08:55:35Z</time>
      </trkpt>
      <trkpt lat="45.50609" lon="6.73715">
        <ele>2033.6</ele>
        <time>2021-08-12T08:55:36Z</time>
      </trkpt>
      <trkpt lat="45.50609" lon="6.73716">
        <ele>2033.7</ele>
        <time>2021-08-12T08:55:37Z</time>
      </trkpt>
      <trkpt lat="45.50609" lon="6.73716">
        <ele>2033.7</ele>
        <time>2021-08-12T08:55:38Z</time>
      </trkpt>
      <trkpt lat="45.50609" lon="6.73716">
        <ele>2033.8</ele>
        <time>2021-08-12T08:55:39Z</time>
      </trkpt>
      <trkpt lat="45.5061" lon="6.73716">
        <ele>2033.8</ele>
        <time>2021-08-12T08:55:40Z</time>
      </trkpt>
      <trkpt lat="45.5061" lon="6.73716">
        <ele>2033.8</ele>
        <time>2021-08-12T08:55:41Z</time>
      </trkpt>
      <trkpt lat="45.5061" lon="6.73716">
        <ele>2033.9</ele>
        <time>2021-08-12T08:55:42Z</time>
      </trkpt>
      <trkpt lat="45.5061" lon="6.73717">
        <ele>2033.9</ele>
        <time>2021-08-12T08:55:43Z</time>
      </trkpt>
      <trkpt lat="45.5061" lon="6.73717">
        <ele>2034</ele>
        <time>2021-08-12T08:55:44Z</time>
      </trkpt>
      <trkpt lat="45.5061" lon="6.73717">
        <ele>2034</ele>
        <time>2021-08-12T08:55:45Z</time>
      </trkpt>
      <trkpt lat="45.5061" lon="6.73717">
        <ele>2034.1</ele>
        <time>2021-08-12T08:55:46Z</time>
      </trkpt>
      <trkpt lat="45.5061" lon="6.73717">
        <ele>2034.1</ele>
        <time>2021-08-12T08:55:47Z</time>
      </trkpt>
      <trkpt lat="45.5061" lon="6.73717">
        <ele>2034.1</ele>
        <time>2021-08-12T08:55:48Z</time>
      </trkpt>
      <trkpt lat="45.5061" lon="6.73718">
        <ele>2034.2</ele>
        <time>2021-08-12T08:55:49Z</time>
      </trkpt>
      <trkpt lat="45.50611" lon="6.73718">
        <ele>2034.2</ele>
        <time>2021-08-12T08:55:50Z</time>
      </trkpt>
      <trkpt lat="45.50611" lon="6.73718">
        <ele>2034.3</ele>
        <time>2021-08-12T08:55:51Z</time>
      </trkpt>
      <trkpt lat="45.50611" lon="6.73718">
        <ele>2034.3</ele>
        <time>2021-08-12T08:55:52Z</time>
      </trkpt>
      <trkpt lat="45.50611" lon="6.73718">
        <ele>2034.4</ele>
        <time>2021-08-12T08:55:53Z</time>
      </trkpt>
      <trkpt lat="45.50611" lon="6.73718">
        <ele>2034.4</ele>
        <time>2021-08-12T08:55:54Z</time>
      </trkpt>
      <trkpt lat="45.50611" lon="6.73718">
        <ele>2034.4</ele>
        <time>2021-08-12T08:55:55Z</time>
      </trkpt>
      <trkpt lat="45.50611" lon="6.73719">
        <ele>2034.5</ele>
        <time>2021-08-12T08:55:56Z</time>
      </trkpt>
      <trkpt lat="45.50611" lon="6.73719">
        <ele>2034.5</ele>
        <time>2021-08-12T08:55:57Z</time>
      </trkpt>
      <trkpt lat="45.50611" lon="6.73719">
        <ele>2034.6</ele>
        <time>2021-08-12T08:55:58Z</time>
      </trkpt>
      <trkpt lat="45.50611" lon="6.73719">
        <ele>2034.6</ele>
        <time>2021-08-12T08:55:59Z</time>
      </trkpt>
      <trkpt lat="45.50612" lon="6.73719">
        <ele>2034.6</ele>
        <time>2021-08-12T08:56:00Z</time>
      </trkpt>
      <trkpt lat="45.50612" lon="6.73719">
        <ele>2034.7</ele>
        <time>2021-08-12T08:56:01Z</time>
      </trkpt>
      <trkpt lat="45.50612" lon="6.7372">
        <ele>2034.7</ele>
        <time>2021-08-12T08:56:02Z</time>
      </trkpt>
      <trkpt lat="45.50612" lon="6.7372">
        <ele>2034.8</ele>
        <time>2021-08-12T08:56:03Z</time>
      </trkpt>
      <trkpt lat="45.50612" lon="6.7372">
        <ele>2034.8</ele>
        <time>2021-08-12T08:56:04Z</time>
      </trkpt>
      <trkpt lat="45.50612" lon="6.7372">
        <ele>2034.9</ele>
        <time>2021-08-12T08:56:05Z</time>
      </trkpt>
      <trkpt lat="45.50612" lon="6.7372">
        <ele>2034.9</ele>
        <time>2021-08-12T08:56:06Z</time>
      </trkpt>
      <trkpt lat="45.50612" lon="6.7372">
        <ele>2034.9</ele>
        <time>2021-08-12T08:56:07Z</time>
      </trkpt>
      <trkpt lat="45.50612" lon="6.73721">
        <ele>2035</ele>
        <time>2021-08-12T08:56:08Z</time>
      </trkpt>
      <trkpt lat="45.50612" lon="6.73721">
        <ele>2035</ele>
        <time>2021-08-12T08:56:09Z</time>
      </trkpt>
      <trkpt lat="45.50612" lon="6.73721">
        <ele>2035</ele>
        <time>2021-08-12T08:56:10Z</time>
      </trkpt>
      <trkpt lat="45.50613" lon="6.73721">
        <ele>2035.1</ele>
        <time>2021-08-12T08:56:11Z</time>
      </trkpt>
      <trkpt lat="45.50613" lon="6.73721">
        <ele>2035.1</ele>
        <time>2021-08-12T08:56:12Z</time>
      </trkpt>
      <trkpt lat="45.50613" lon="6.73721">
        <ele>2035.1</ele>
        <time>2021-08-12T08:56:13Z</time>
      </trkpt>
      <trkpt lat="45.50613" lon="6.73721">
        <ele>2035.2</ele>
        <time>2021-08-12T08:56:14Z</time>
      </trkpt>
      <trkpt lat="45.50613" lon="6.73722">
        <ele>2035.2</ele>
        <time>2021-08-12T08:56:15Z</time>
      </trkpt>
      <trkpt lat="45.50613" lon="6.73722">
        <ele>2035.3</ele>
        <time>2021-08-12T08:56:16Z</time>
      </trkpt>
      <trkpt lat="45.50613" lon="6.73722">
        <ele>2035.3</ele>
        <time>2021-08-12T08:56:17Z</time>
      </trkpt>
      <trkpt lat="45.50613" lon="6.73722">
        <ele>2035.4</ele>
        <time>2021-08-12T08:56:18Z</time>
      </trkpt>
      <trkpt lat="45.50613" lon="6.73722">
        <ele>2035.4</ele>
        <time>2021-08-12T08:56:19Z</time>
      </trkpt>
      <trkpt lat="45.50613" lon="6.73722">
        <ele>2035.4</ele>
        <time>2021-08-12T08:56:20Z</time>
      </trkpt>
      <trkpt lat="45.50614" lon="6.73723">
        <ele>2035.5</ele>
        <time>2021-08-12T08:56:21Z</time>
      </trkpt>
      <trkpt lat="45.50614" lon="6.73723">
        <ele>2035.5</ele>
        <time>2021-08-12T08:56:22Z</time>
      </trkpt>
      <trkpt lat="45.50614" lon="6.73723">
        <ele>2035.6</ele>
        <time>2021-08-12T08:56:23Z</time>
      </trkpt>
      <trkpt lat="45.50614" lon="6.73723">
        <ele>2035.6</ele>
        <time>2021-08-12T08:56:24Z</time>
      </trkpt>
      <trkpt lat="45.50614" lon="6.73723">
        <ele>2035.6</ele>
        <time>2021-08-12T08:56:25Z</time>
      </trkpt>
      <trkpt lat="45.50614" lon="6.73723">
        <ele>2035.7</ele>
        <time>2021-08-12T08:56:26Z</time>
      </trkpt>
      <trkpt lat="45.50614" lon="6.73724">
        <ele>2035.7</ele>
        <time>2021-08-12T08:56:27Z</time>
      </trkpt>
      <trkpt lat="45.50614" lon="6.73724">
        <ele>2035.8</ele>
        <time>2021-08-12T08:56:28Z</time>
      </trkpt>
      <trkpt lat="45.50614" lon="6.73724">
        <ele>2035.8</ele>
        <time>2021-08-12T08:56:29Z</time>
      </trkpt>
      <trkpt lat="45.50614" lon="6.73724">
        <ele>2035.8</ele>
        <time>2021-08-12T08:56:30Z</time>
      </trkpt>
      <trkpt lat="45.50615" lon="6.73724">
        <ele>2035.9</ele>
        <time>2021-08-12T08:56:31Z</time>
      </trkpt>
      <trkpt lat="45.50615" lon="6.73724">
        <ele>2035.9</ele>
        <time>2021-08-12T08:56:32Z</time>
      </trkpt>
      <trkpt lat="45.50615" lon="6.73724">
        <ele>2036</ele>
        <time>2021-08-12T08:56:33Z</time>
      </trkpt>
      <trkpt lat="45.50615" lon="6.73725">
        <ele>2036</ele>
        <time>2021-08-12T08:56:34Z</time>
      </trkpt>
      <trkpt lat="45.50615" lon="6.73725">
        <ele>2036.1</ele>
        <time>2021-08-12T08:56:35Z</time>
      </trkpt>
      <trkpt lat="45.50615" lon="6.73725">
        <ele>2036.1</ele>
        <time>2021-08-12T08:56:36Z</time>
      </trkpt>
      <trkpt lat="45.50615" lon="6.73725">
        <ele>2036.1</ele>
        <time>2021-08-12T08:56:37Z</time>
      </trkpt>
      <trkpt lat="45.50615" lon="6.73725">
        <ele>2036.2</ele>
        <time>2021-08-12T08:56:38Z</time>
      </trkpt>
      <trkpt lat="45.50615" lon="6.73725">
        <ele>2036.2</ele>
        <time>2021-08-12T08:56:39Z</time>
      </trkpt>
      <trkpt lat="45.50615" lon="6.73726">
        <ele>2036.3</ele>
        <time>2021-08-12T08:56:40Z</time>
      </trkpt>
      <trkpt lat="45.50616" lon="6.73726">
        <ele>2036.3</ele>
        <time>2021-08-12T08:56:41Z</time>
      </trkpt>
      <trkpt lat="45.50616" lon="6.73726">
        <ele>2036.3</ele>
        <time>2021-08-12T08:56:42Z</time>
      </trkpt>
      <trkpt lat="45.50616" lon="6.73726">
        <ele>2036.4</ele>
        <time>2021-08-12T08:56:43Z</time>
      </trkpt>
      <trkpt lat="45.50616" lon="6.73726">
        <ele>2036.4</ele>
        <time>2021-08-12T08:56:44Z</time>
      </trkpt>
      <trkpt lat="45.50616" lon="6.73726">
        <ele>2036.5</ele>
        <time>2021-08-12T08:56:45Z</time>
      </trkpt>
      <trkpt lat="45.50616" lon="6.73726">
        <ele>2036.5</ele>
        <time>2021-08-12T08:56:46Z</time>
      </trkpt>
      <trkpt lat="45.50616" lon="6.73726">
        <ele>2036.5</ele>
        <time>2021-08-12T08:56:47Z</time>
      </trkpt>
      <trkpt lat="45.50616" lon="6.73726">
        <ele>2036.5</ele>
        <time>2021-08-12T08:56:48Z</time>
      </trkpt>
      <trkpt lat="45.50616" lon="6.73727">
        <ele>2036.6</ele>
        <time>2021-08-12T08:56:49Z</time>
      </trkpt>
      <trkpt lat="45.50617" lon="6.73727">
        <ele>2036.6</ele>
        <time>2021-08-12T08:56:50Z</time>
      </trkpt>
      <trkpt lat="45.50617" lon="6.73727">
        <ele>2036.7</ele>
        <time>2021-08-12T08:56:51Z</time>
      </trkpt>
      <trkpt lat="45.50617" lon="6.73727">
        <ele>2036.8</ele>
        <time>2021-08-12T08:56:52Z</time>
      </trkpt>
      <trkpt lat="45.50617" lon="6.73728">
        <ele>2036.9</ele>
        <time>2021-08-12T08:56:53Z</time>
      </trkpt>
      <trkpt lat="45.50618" lon="6.73728">
        <ele>2037</ele>
        <time>2021-08-12T08:56:54Z</time>
      </trkpt>
      <trkpt lat="45.50618" lon="6.73728">
        <ele>2037.1</ele>
        <time>2021-08-12T08:56:55Z</time>
      </trkpt>
      <trkpt lat="45.50618" lon="6.73729">
        <ele>2037.2</ele>
        <time>2021-08-12T08:56:56Z</time>
      </trkpt>
      <trkpt lat="45.50619" lon="6.73729">
        <ele>2037.3</ele>
        <time>2021-08-12T08:56:57Z</time>
      </trkpt>
      <trkpt lat="45.50619" lon="6.73729">
        <ele>2037.4</ele>
        <time>2021-08-12T08:56:58Z</time>
      </trkpt>
      <trkpt lat="45.50619" lon="6.73729">
        <ele>2037.4</ele>
        <time>2021-08-12T08:56:59Z</time>
      </trkpt>
      <trkpt lat="45.5062" lon="6.73729">
        <ele>2037.5</ele>
        <time>2021-08-12T08:57:00Z</time>
      </trkpt>
      <trkpt lat="45.5062" lon="6.73729">
        <ele>2037.6</ele>
        <time>2021-08-12T08:57:01Z</time>
      </trkpt>
      <trkpt lat="45.5062" lon="6.73729">
        <ele>2037.6</ele>
        <time>2021-08-12T08:57:02Z</time>
      </trkpt>
      <trkpt lat="45.50621" lon="6.73729">
        <ele>2037.7</ele>
        <time>2021-08-12T08:57:03Z</time>
      </trkpt>
      <trkpt lat="45.50621" lon="6.73729">
        <ele>2037.8</ele>
        <time>2021-08-12T08:57:04Z</time>
      </trkpt>
      <trkpt lat="45.50621" lon="6.73729">
        <ele>2037.9</ele>
        <time>2021-08-12T08:57:05Z</time>
      </trkpt>
      <trkpt lat="45.50622" lon="6.73729">
        <ele>2037.9</ele>
        <time>2021-08-12T08:57:06Z</time>
      </trkpt>
      <trkpt lat="45.50622" lon="6.73729">
        <ele>2038</ele>
        <time>2021-08-12T08:57:07Z</time>
      </trkpt>
      <trkpt lat="45.50622" lon="6.73729">
        <ele>2038.1</ele>
        <time>2021-08-12T08:57:08Z</time>
      </trkpt>
      <trkpt lat="45.50623" lon="6.73729">
        <ele>2038.2</ele>
        <time>2021-08-12T08:57:09Z</time>
      </trkpt>
      <trkpt lat="45.50623" lon="6.7373">
        <ele>2038.3</ele>
        <time>2021-08-12T08:57:10Z</time>
      </trkpt>
      <trkpt lat="45.50623" lon="6.7373">
        <ele>2038.4</ele>
        <time>2021-08-12T08:57:11Z</time>
      </trkpt>
      <trkpt lat="45.50624" lon="6.73731">
        <ele>2038.5</ele>
        <time>2021-08-12T08:57:12Z</time>
      </trkpt>
      <trkpt lat="45.50624" lon="6.73731">
        <ele>2038.6</ele>
        <time>2021-08-12T08:57:13Z</time>
      </trkpt>
      <trkpt lat="45.50625" lon="6.73732">
        <ele>2038.7</ele>
        <time>2021-08-12T08:57:14Z</time>
      </trkpt>
      <trkpt lat="45.50625" lon="6.73733">
        <ele>2038.8</ele>
        <time>2021-08-12T08:57:15Z</time>
      </trkpt>
      <trkpt lat="45.50625" lon="6.73734">
        <ele>2038.9</ele>
        <time>2021-08-12T08:57:16Z</time>
      </trkpt>
      <trkpt lat="45.50625" lon="6.73735">
        <ele>2039</ele>
        <time>2021-08-12T08:57:17Z</time>
      </trkpt>
      <trkpt lat="45.50626" lon="6.73736">
        <ele>2039.1</ele>
        <time>2021-08-12T08:57:18Z</time>
      </trkpt>
      <trkpt lat="45.50626" lon="6.73736">
        <ele>2039.2</ele>
        <time>2021-08-12T08:57:19Z</time>
      </trkpt>
      <trkpt lat="45.50626" lon="6.73737">
        <ele>2039.3</ele>
        <time>2021-08-12T08:57:20Z</time>
      </trkpt>
      <trkpt lat="45.50626" lon="6.73738">
        <ele>2039.4</ele>
        <time>2021-08-12T08:57:21Z</time>
      </trkpt>
      <trkpt lat="45.50626" lon="6.73739">
        <ele>2039.4</ele>
        <time>2021-08-12T08:57:22Z</time>
      </trkpt>
      <trkpt lat="45.50627" lon="6.7374">
        <ele>2039.5</ele>
        <time>2021-08-12T08:57:23Z</time>
      </trkpt>
      <trkpt lat="45.50627" lon="6.73741">
        <ele>2039.6</ele>
        <time>2021-08-12T08:57:24Z</time>
      </trkpt>
      <trkpt lat="45.50627" lon="6.73741">
        <ele>2039.6</ele>
        <time>2021-08-12T08:57:25Z</time>
      </trkpt>
      <trkpt lat="45.50627" lon="6.73742">
        <ele>2039.7</ele>
        <time>2021-08-12T08:57:26Z</time>
      </trkpt>
      <trkpt lat="45.50627" lon="6.73742">
        <ele>2039.7</ele>
        <time>2021-08-12T08:57:27Z</time>
      </trkpt>
      <trkpt lat="45.50627" lon="6.73743">
        <ele>2039.7</ele>
        <time>2021-08-12T08:57:28Z</time>
      </trkpt>
      <trkpt lat="45.50627" lon="6.73743">
        <ele>2039.7</ele>
        <time>2021-08-12T08:57:29Z</time>
      </trkpt>
      <trkpt lat="45.50627" lon="6.73743">
        <ele>2039.7</ele>
        <time>2021-08-12T08:57:30Z</time>
      </trkpt>
      <trkpt lat="45.50627" lon="6.73743">
        <ele>2039.7</ele>
        <time>2021-08-12T08:57:31Z</time>
      </trkpt>
      <trkpt lat="45.50627" lon="6.73743">
        <ele>2039.8</ele>
        <time>2021-08-12T08:57:32Z</time>
      </trkpt>
      <trkpt lat="45.50627" lon="6.73743">
        <ele>2039.8</ele>
        <time>2021-08-12T08:57:33Z</time>
      </trkpt>
      <trkpt lat="45.50627" lon="6.73743">
        <ele>2039.8</ele>
        <time>2021-08-12T08:57:34Z</time>
      </trkpt>
      <trkpt lat="45.50627" lon="6.73743">
        <ele>2039.8</ele>
        <time>2021-08-12T08:57:35Z</time>
      </trkpt>
      <trkpt lat="45.50627" lon="6.73743">
        <ele>2039.8</ele>
        <time>2021-08-12T08:57:36Z</time>
      </trkpt>
      <trkpt lat="45.50627" lon="6.73743">
        <ele>2039.8</ele>
        <time>2021-08-12T08:57:37Z</time>
      </trkpt>
      <trkpt lat="45.50627" lon="6.73743">
        <ele>2039.8</ele>
        <time>2021-08-12T08:57:38Z</time>
      </trkpt>
      <trkpt lat="45.50627" lon="6.73743">
        <ele>2039.8</ele>
        <time>2021-08-12T08:57:39Z</time>
      </trkpt>
      <trkpt lat="45.50627" lon="6.73743">
        <ele>2039.8</ele>
        <time>2021-08-12T08:57:40Z</time>
      </trkpt>
      <trkpt lat="45.50627" lon="6.73743">
        <ele>2039.8</ele>
        <time>2021-08-12T08:57:41Z</time>
      </trkpt>
      <trkpt lat="45.50627" lon="6.73743">
        <ele>2039.8</ele>
        <time>2021-08-12T08:57:42Z</time>
      </trkpt>
      <trkpt lat="45.50627" lon="6.73744">
        <ele>2039.8</ele>
        <time>2021-08-12T08:57:43Z</time>
      </trkpt>
      <trkpt lat="45.50627" lon="6.73744">
        <ele>2039.9</ele>
        <time>2021-08-12T08:57:44Z</time>
      </trkpt>
      <trkpt lat="45.50628" lon="6.73745">
        <ele>2039.9</ele>
        <time>2021-08-12T08:57:45Z</time>
      </trkpt>
      <trkpt lat="45.50628" lon="6.73745">
        <ele>2039.9</ele>
        <time>2021-08-12T08:57:46Z</time>
      </trkpt>
      <trkpt lat="45.50628" lon="6.73746">
        <ele>2040</ele>
        <time>2021-08-12T08:57:47Z</time>
      </trkpt>
      <trkpt lat="45.50628" lon="6.73747">
        <ele>2040</ele>
        <time>2021-08-12T08:57:48Z</time>
      </trkpt>
      <trkpt lat="45.50628" lon="6.73747">
        <ele>2040.1</ele>
        <time>2021-08-12T08:57:49Z</time>
      </trkpt>
      <trkpt lat="45.50629" lon="6.73748">
        <ele>2040.1</ele>
        <time>2021-08-12T08:57:50Z</time>
      </trkpt>
      <trkpt lat="45.50629" lon="6.73749">
        <ele>2040.2</ele>
        <time>2021-08-12T08:57:51Z</time>
      </trkpt>
      <trkpt lat="45.50629" lon="6.7375">
        <ele>2040.3</ele>
        <time>2021-08-12T08:57:52Z</time>
      </trkpt>
      <trkpt lat="45.5063" lon="6.73751">
        <ele>2040.3</ele>
        <time>2021-08-12T08:57:53Z</time>
      </trkpt>
      <trkpt lat="45.5063" lon="6.73752">
        <ele>2040.4</ele>
        <time>2021-08-12T08:57:54Z</time>
      </trkpt>
      <trkpt lat="45.50631" lon="6.73753">
        <ele>2040.5</ele>
        <time>2021-08-12T08:57:55Z</time>
      </trkpt>
      <trkpt lat="45.50631" lon="6.73754">
        <ele>2040.6</ele>
        <time>2021-08-12T08:57:56Z</time>
      </trkpt>
      <trkpt lat="45.50632" lon="6.73755">
        <ele>2040.6</ele>
        <time>2021-08-12T08:57:57Z</time>
      </trkpt>
      <trkpt lat="45.50632" lon="6.73756">
        <ele>2040.7</ele>
        <time>2021-08-12T08:57:58Z</time>
      </trkpt>
      <trkpt lat="45.50633" lon="6.73757">
        <ele>2040.8</ele>
        <time>2021-08-12T08:57:59Z</time>
      </trkpt>
      <trkpt lat="45.50633" lon="6.73758">
        <ele>2040.8</ele>
        <time>2021-08-12T08:58:00Z</time>
      </trkpt>
      <trkpt lat="45.50634" lon="6.73758">
        <ele>2040.9</ele>
        <time>2021-08-12T08:58:01Z</time>
      </trkpt>
      <trkpt lat="45.50634" lon="6.73759">
        <ele>2041</ele>
        <time>2021-08-12T08:58:02Z</time>
      </trkpt>
      <trkpt lat="45.50635" lon="6.73759">
        <ele>2041</ele>
        <time>2021-08-12T08:58:03Z</time>
      </trkpt>
      <trkpt lat="45.50635" lon="6.7376">
        <ele>2041.1</ele>
        <time>2021-08-12T08:58:04Z</time>
      </trkpt>
      <trkpt lat="45.50636" lon="6.73761">
        <ele>2041.2</ele>
        <time>2021-08-12T08:58:05Z</time>
      </trkpt>
      <trkpt lat="45.50636" lon="6.73761">
        <ele>2041.2</ele>
        <time>2021-08-12T08:58:06Z</time>
      </trkpt>
      <trkpt lat="45.50637" lon="6.73762">
        <ele>2041.3</ele>
        <time>2021-08-12T08:58:07Z</time>
      </trkpt>
      <trkpt lat="45.50637" lon="6.73762">
        <ele>2041.3</ele>
        <time>2021-08-12T08:58:08Z</time>
      </trkpt>
      <trkpt lat="45.50638" lon="6.73762">
        <ele>2041.4</ele>
        <time>2021-08-12T08:58:09Z</time>
      </trkpt>
      <trkpt lat="45.50638" lon="6.73763">
        <ele>2041.5</ele>
        <time>2021-08-12T08:58:10Z</time>
      </trkpt>
      <trkpt lat="45.50638" lon="6.73763">
        <ele>2041.5</ele>
        <time>2021-08-12T08:58:11Z</time>
      </trkpt>
      <trkpt lat="45.50639" lon="6.73764">
        <ele>2041.6</ele>
        <time>2021-08-12T08:58:12Z</time>
      </trkpt>
      <trkpt lat="45.50639" lon="6.73764">
        <ele>2041.7</ele>
        <time>2021-08-12T08:58:13Z</time>
      </trkpt>
      <trkpt lat="45.5064" lon="6.73765">
        <ele>2041.7</ele>
        <time>2021-08-12T08:58:14Z</time>
      </trkpt>
      <trkpt lat="45.5064" lon="6.73765">
        <ele>2041.8</ele>
        <time>2021-08-12T08:58:15Z</time>
      </trkpt>
      <trkpt lat="45.50641" lon="6.73765">
        <ele>2041.9</ele>
        <time>2021-08-12T08:58:16Z</time>
      </trkpt>
      <trkpt lat="45.50641" lon="6.73766">
        <ele>2041.9</ele>
        <time>2021-08-12T08:58:17Z</time>
      </trkpt>
      <trkpt lat="45.50642" lon="6.73766">
        <ele>2042</ele>
        <time>2021-08-12T08:58:18Z</time>
      </trkpt>
      <trkpt lat="45.50642" lon="6.73767">
        <ele>2042.1</ele>
        <time>2021-08-12T08:58:19Z</time>
      </trkpt>
      <trkpt lat="45.50642" lon="6.73767">
        <ele>2042.1</ele>
        <time>2021-08-12T08:58:20Z</time>
      </trkpt>
      <trkpt lat="45.50643" lon="6.73768">
        <ele>2042.2</ele>
        <time>2021-08-12T08:58:21Z</time>
      </trkpt>
      <trkpt lat="45.50643" lon="6.73768">
        <ele>2042.3</ele>
        <time>2021-08-12T08:58:22Z</time>
      </trkpt>
      <trkpt lat="45.50643" lon="6.73768">
        <ele>2042.4</ele>
        <time>2021-08-12T08:58:23Z</time>
      </trkpt>
      <trkpt lat="45.50644" lon="6.73769">
        <ele>2042.4</ele>
        <time>2021-08-12T08:58:24Z</time>
      </trkpt>
      <trkpt lat="45.50644" lon="6.73769">
        <ele>2042.5</ele>
        <time>2021-08-12T08:58:25Z</time>
      </trkpt>
      <trkpt lat="45.50644" lon="6.7377">
        <ele>2042.5</ele>
        <time>2021-08-12T08:58:26Z</time>
      </trkpt>
      <trkpt lat="45.50645" lon="6.7377">
        <ele>2042.6</ele>
        <time>2021-08-12T08:58:27Z</time>
      </trkpt>
      <trkpt lat="45.50645" lon="6.73771">
        <ele>2042.7</ele>
        <time>2021-08-12T08:58:28Z</time>
      </trkpt>
      <trkpt lat="45.50645" lon="6.73771">
        <ele>2042.7</ele>
        <time>2021-08-12T08:58:29Z</time>
      </trkpt>
      <trkpt lat="45.50645" lon="6.73772">
        <ele>2042.8</ele>
        <time>2021-08-12T08:58:30Z</time>
      </trkpt>
      <trkpt lat="45.50645" lon="6.73772">
        <ele>2042.9</ele>
        <time>2021-08-12T08:58:31Z</time>
      </trkpt>
      <trkpt lat="45.50646" lon="6.73773">
        <ele>2042.9</ele>
        <time>2021-08-12T08:58:32Z</time>
      </trkpt>
      <trkpt lat="45.50646" lon="6.73773">
        <ele>2043</ele>
        <time>2021-08-12T08:58:33Z</time>
      </trkpt>
      <trkpt lat="45.50646" lon="6.73774">
        <ele>2043</ele>
        <time>2021-08-12T08:58:34Z</time>
      </trkpt>
      <trkpt lat="45.50646" lon="6.73774">
        <ele>2043.1</ele>
        <time>2021-08-12T08:58:35Z</time>
      </trkpt>
      <trkpt lat="45.50646" lon="6.73775">
        <ele>2043.1</ele>
        <time>2021-08-12T08:58:36Z</time>
      </trkpt>
      <trkpt lat="45.50646" lon="6.73775">
        <ele>2043.2</ele>
        <time>2021-08-12T08:58:37Z</time>
      </trkpt>
      <trkpt lat="45.50646" lon="6.73776">
        <ele>2043.2</ele>
        <time>2021-08-12T08:58:38Z</time>
      </trkpt>
      <trkpt lat="45.50646" lon="6.73776">
        <ele>2043.3</ele>
        <time>2021-08-12T08:58:39Z</time>
      </trkpt>
      <trkpt lat="45.50646" lon="6.73777">
        <ele>2043.4</ele>
        <time>2021-08-12T08:58:40Z</time>
      </trkpt>
      <trkpt lat="45.50646" lon="6.73777">
        <ele>2043.4</ele>
        <time>2021-08-12T08:58:41Z</time>
      </trkpt>
      <trkpt lat="45.50646" lon="6.73778">
        <ele>2043.5</ele>
        <time>2021-08-12T08:58:42Z</time>
      </trkpt>
      <trkpt lat="45.50645" lon="6.73778">
        <ele>2043.6</ele>
        <time>2021-08-12T08:58:43Z</time>
      </trkpt>
      <trkpt lat="45.50645" lon="6.73779">
        <ele>2043.6</ele>
        <time>2021-08-12T08:58:44Z</time>
      </trkpt>
      <trkpt lat="45.50645" lon="6.73779">
        <ele>2043.7</ele>
        <time>2021-08-12T08:58:45Z</time>
      </trkpt>
      <trkpt lat="45.50645" lon="6.7378">
        <ele>2043.8</ele>
        <time>2021-08-12T08:58:46Z</time>
      </trkpt>
      <trkpt lat="45.50645" lon="6.7378">
        <ele>2043.8</ele>
        <time>2021-08-12T08:58:47Z</time>
      </trkpt>
      <trkpt lat="45.50645" lon="6.73781">
        <ele>2043.9</ele>
        <time>2021-08-12T08:58:48Z</time>
      </trkpt>
      <trkpt lat="45.50644" lon="6.73781">
        <ele>2044</ele>
        <time>2021-08-12T08:58:49Z</time>
      </trkpt>
      <trkpt lat="45.50644" lon="6.73782">
        <ele>2044</ele>
        <time>2021-08-12T08:58:50Z</time>
      </trkpt>
      <trkpt lat="45.50644" lon="6.73782">
        <ele>2044.1</ele>
        <time>2021-08-12T08:58:51Z</time>
      </trkpt>
      <trkpt lat="45.50644" lon="6.73783">
        <ele>2044.2</ele>
        <time>2021-08-12T08:58:52Z</time>
      </trkpt>
      <trkpt lat="45.50643" lon="6.73783">
        <ele>2044.3</ele>
        <time>2021-08-12T08:58:53Z</time>
      </trkpt>
      <trkpt lat="45.50643" lon="6.73784">
        <ele>2044.4</ele>
        <time>2021-08-12T08:58:54Z</time>
      </trkpt>
      <trkpt lat="45.50643" lon="6.73784">
        <ele>2044.5</ele>
        <time>2021-08-12T08:58:55Z</time>
      </trkpt>
      <trkpt lat="45.50643" lon="6.73785">
        <ele>2044.5</ele>
        <time>2021-08-12T08:58:56Z</time>
      </trkpt>
      <trkpt lat="45.50642" lon="6.73785">
        <ele>2044.6</ele>
        <time>2021-08-12T08:58:57Z</time>
      </trkpt>
      <trkpt lat="45.50642" lon="6.73786">
        <ele>2044.7</ele>
        <time>2021-08-12T08:58:58Z</time>
      </trkpt>
      <trkpt lat="45.50642" lon="6.73786">
        <ele>2044.8</ele>
        <time>2021-08-12T08:58:59Z</time>
      </trkpt>
      <trkpt lat="45.50642" lon="6.73787">
        <ele>2044.9</ele>
        <time>2021-08-12T08:59:00Z</time>
      </trkpt>
      <trkpt lat="45.50641" lon="6.73787">
        <ele>2044.9</ele>
        <time>2021-08-12T08:59:01Z</time>
      </trkpt>
      <trkpt lat="45.50641" lon="6.73788">
        <ele>2045</ele>
        <time>2021-08-12T08:59:02Z</time>
      </trkpt>
      <trkpt lat="45.50641" lon="6.73788">
        <ele>2045.1</ele>
        <time>2021-08-12T08:59:03Z</time>
      </trkpt>
      <trkpt lat="45.50641" lon="6.73789">
        <ele>2045.2</ele>
        <time>2021-08-12T08:59:04Z</time>
      </trkpt>
      <trkpt lat="45.5064" lon="6.73789">
        <ele>2045.3</ele>
        <time>2021-08-12T08:59:05Z</time>
      </trkpt>
      <trkpt lat="45.5064" lon="6.7379">
        <ele>2045.4</ele>
        <time>2021-08-12T08:59:06Z</time>
      </trkpt>
      <trkpt lat="45.5064" lon="6.7379">
        <ele>2045.4</ele>
        <time>2021-08-12T08:59:07Z</time>
      </trkpt>
      <trkpt lat="45.5064" lon="6.73791">
        <ele>2045.5</ele>
        <time>2021-08-12T08:59:08Z</time>
      </trkpt>
      <trkpt lat="45.50639" lon="6.73791">
        <ele>2045.6</ele>
        <time>2021-08-12T08:59:09Z</time>
      </trkpt>
      <trkpt lat="45.50639" lon="6.73792">
        <ele>2045.7</ele>
        <time>2021-08-12T08:59:10Z</time>
      </trkpt>
      <trkpt lat="45.50639" lon="6.73792">
        <ele>2045.7</ele>
        <time>2021-08-12T08:59:11Z</time>
      </trkpt>
      <trkpt lat="45.50639" lon="6.73793">
        <ele>2045.8</ele>
        <time>2021-08-12T08:59:12Z</time>
      </trkpt>
      <trkpt lat="45.50639" lon="6.73793">
        <ele>2045.9</ele>
        <time>2021-08-12T08:59:13Z</time>
      </trkpt>
      <trkpt lat="45.50639" lon="6.73794">
        <ele>2045.9</ele>
        <time>2021-08-12T08:59:14Z</time>
      </trkpt>
      <trkpt lat="45.50639" lon="6.73794">
        <ele>2046</ele>
        <time>2021-08-12T08:59:15Z</time>
      </trkpt>
      <trkpt lat="45.50639" lon="6.73795">
        <ele>2046.1</ele>
        <time>2021-08-12T08:59:16Z</time>
      </trkpt>
      <trkpt lat="45.50639" lon="6.73795">
        <ele>2046.2</ele>
        <time>2021-08-12T08:59:17Z</time>
      </trkpt>
      <trkpt lat="45.50638" lon="6.73796">
        <ele>2046.2</ele>
        <time>2021-08-12T08:59:18Z</time>
      </trkpt>
      <trkpt lat="45.50638" lon="6.73796">
        <ele>2046.3</ele>
        <time>2021-08-12T08:59:19Z</time>
      </trkpt>
      <trkpt lat="45.50638" lon="6.73797">
        <ele>2046.4</ele>
        <time>2021-08-12T08:59:20Z</time>
      </trkpt>
      <trkpt lat="45.50638" lon="6.73797">
        <ele>2046.4</ele>
        <time>2021-08-12T08:59:21Z</time>
      </trkpt>
      <trkpt lat="45.50638" lon="6.73797">
        <ele>2046.5</ele>
        <time>2021-08-12T08:59:22Z</time>
      </trkpt>
      <trkpt lat="45.50639" lon="6.73798">
        <ele>2046.6</ele>
        <time>2021-08-12T08:59:23Z</time>
      </trkpt>
      <trkpt lat="45.50639" lon="6.73798">
        <ele>2046.6</ele>
        <time>2021-08-12T08:59:24Z</time>
      </trkpt>
      <trkpt lat="45.50639" lon="6.73799">
        <ele>2046.7</ele>
        <time>2021-08-12T08:59:25Z</time>
      </trkpt>
      <trkpt lat="45.50639" lon="6.73799">
        <ele>2046.8</ele>
        <time>2021-08-12T08:59:26Z</time>
      </trkpt>
      <trkpt lat="45.50639" lon="6.738">
        <ele>2046.8</ele>
        <time>2021-08-12T08:59:27Z</time>
      </trkpt>
      <trkpt lat="45.50639" lon="6.738">
        <ele>2046.9</ele>
        <time>2021-08-12T08:59:28Z</time>
      </trkpt>
      <trkpt lat="45.50639" lon="6.73801">
        <ele>2046.9</ele>
        <time>2021-08-12T08:59:29Z</time>
      </trkpt>
      <trkpt lat="45.50639" lon="6.73801">
        <ele>2047</ele>
        <time>2021-08-12T08:59:30Z</time>
      </trkpt>
      <trkpt lat="45.50639" lon="6.73801">
        <ele>2047.1</ele>
        <time>2021-08-12T08:59:31Z</time>
      </trkpt>
      <trkpt lat="45.50639" lon="6.73802">
        <ele>2047.1</ele>
        <time>2021-08-12T08:59:32Z</time>
      </trkpt>
      <trkpt lat="45.50639" lon="6.73802">
        <ele>2047.2</ele>
        <time>2021-08-12T08:59:33Z</time>
      </trkpt>
      <trkpt lat="45.50639" lon="6.73803">
        <ele>2047.3</ele>
        <time>2021-08-12T08:59:34Z</time>
      </trkpt>
      <trkpt lat="45.50639" lon="6.73803">
        <ele>2047.3</ele>
        <time>2021-08-12T08:59:35Z</time>
      </trkpt>
      <trkpt lat="45.50639" lon="6.73803">
        <ele>2047.4</ele>
        <time>2021-08-12T08:59:36Z</time>
      </trkpt>
      <trkpt lat="45.5064" lon="6.73804">
        <ele>2047.4</ele>
        <time>2021-08-12T08:59:37Z</time>
      </trkpt>
      <trkpt lat="45.5064" lon="6.73804">
        <ele>2047.5</ele>
        <time>2021-08-12T08:59:38Z</time>
      </trkpt>
      <trkpt lat="45.5064" lon="6.73805">
        <ele>2047.6</ele>
        <time>2021-08-12T08:59:39Z</time>
      </trkpt>
      <trkpt lat="45.5064" lon="6.73805">
        <ele>2047.6</ele>
        <time>2021-08-12T08:59:40Z</time>
      </trkpt>
      <trkpt lat="45.5064" lon="6.73805">
        <ele>2047.7</ele>
        <time>2021-08-12T08:59:41Z</time>
      </trkpt>
      <trkpt lat="45.5064" lon="6.73806">
        <ele>2047.7</ele>
        <time>2021-08-12T08:59:42Z</time>
      </trkpt>
      <trkpt lat="45.5064" lon="6.73806">
        <ele>2047.8</ele>
        <time>2021-08-12T08:59:43Z</time>
      </trkpt>
      <trkpt lat="45.5064" lon="6.73806">
        <ele>2047.8</ele>
        <time>2021-08-12T08:59:44Z</time>
      </trkpt>
      <trkpt lat="45.5064" lon="6.73806">
        <ele>2047.8</ele>
        <time>2021-08-12T08:59:45Z</time>
      </trkpt>
      <trkpt lat="45.5064" lon="6.73807">
        <ele>2047.9</ele>
        <time>2021-08-12T08:59:46Z</time>
      </trkpt>
      <trkpt lat="45.5064" lon="6.73807">
        <ele>2047.9</ele>
        <time>2021-08-12T08:59:47Z</time>
      </trkpt>
      <trkpt lat="45.5064" lon="6.73807">
        <ele>2047.9</ele>
        <time>2021-08-12T08:59:48Z</time>
      </trkpt>
      <trkpt lat="45.5064" lon="6.73807">
        <ele>2048</ele>
        <time>2021-08-12T08:59:49Z</time>
      </trkpt>
      <trkpt lat="45.5064" lon="6.73807">
        <ele>2048</ele>
        <time>2021-08-12T08:59:50Z</time>
      </trkpt>
      <trkpt lat="45.5064" lon="6.73807">
        <ele>2048</ele>
        <time>2021-08-12T08:59:51Z</time>
      </trkpt>
      <trkpt lat="45.5064" lon="6.73807">
        <ele>2048</ele>
        <time>2021-08-12T08:59:52Z</time>
      </trkpt>
      <trkpt lat="45.5064" lon="6.73807">
        <ele>2048</ele>
        <time>2021-08-12T08:59:53Z</time>
      </trkpt>
      <trkpt lat="45.5064" lon="6.73807">
        <ele>2048</ele>
        <time>2021-08-12T08:59:54Z</time>
      </trkpt>
      <trkpt lat="45.5064" lon="6.73807">
        <ele>2048</ele>
        <time>2021-08-12T08:59:55Z</time>
      </trkpt>
      <trkpt lat="45.5064" lon="6.73807">
        <ele>2048</ele>
        <time>2021-08-12T08:59:56Z</time>
      </trkpt>
      <trkpt lat="45.5064" lon="6.73807">
        <ele>2048.1</ele>
        <time>2021-08-12T08:59:57Z</time>
      </trkpt>
      <trkpt lat="45.5064" lon="6.73807">
        <ele>2048.1</ele>
        <time>2021-08-12T08:59:58Z</time>
      </trkpt>
      <trkpt lat="45.5064" lon="6.73807">
        <ele>2048.1</ele>
        <time>2021-08-12T08:59:59Z</time>
      </trkpt>
      <trkpt lat="45.50641" lon="6.73807">
        <ele>2048.1</ele>
        <time>2021-08-12T09:00:00Z</time>
      </trkpt>
      <trkpt lat="45.50641" lon="6.73807">
        <ele>2048.1</ele>
        <time>2021-08-12T09:00:01Z</time>
      </trkpt>
      <trkpt lat="45.50641" lon="6.73808">
        <ele>2048.1</ele>
        <time>2021-08-12T09:00:02Z</time>
      </trkpt>
      <trkpt lat="45.50641" lon="6.73808">
        <ele>2048.2</ele>
        <time>2021-08-12T09:00:03Z</time>
      </trkpt>
      <trkpt lat="45.50641" lon="6.73808">
        <ele>2048.3</ele>
        <time>2021-08-12T09:00:04Z</time>
      </trkpt>
      <trkpt lat="45.50641" lon="6.73809">
        <ele>2048.3</ele>
        <time>2021-08-12T09:00:05Z</time>
      </trkpt>
      <trkpt lat="45.50641" lon="6.73809">
        <ele>2048.4</ele>
        <time>2021-08-12T09:00:06Z</time>
      </trkpt>
      <trkpt lat="45.50641" lon="6.7381">
        <ele>2048.5</ele>
        <time>2021-08-12T09:00:07Z</time>
      </trkpt>
      <trkpt lat="45.50642" lon="6.73811">
        <ele>2048.6</ele>
        <time>2021-08-12T09:00:08Z</time>
      </trkpt>
      <trkpt lat="45.50642" lon="6.73812">
        <ele>2048.8</ele>
        <time>2021-08-12T09:00:09Z</time>
      </trkpt>
      <trkpt lat="45.50642" lon="6.73812">
        <ele>2048.9</ele>
        <time>2021-08-12T09:00:10Z</time>
      </trkpt>
      <trkpt lat="45.50642" lon="6.73813">
        <ele>2049</ele>
        <time>2021-08-12T09:00:11Z</time>
      </trkpt>
      <trkpt lat="45.50642" lon="6.73814">
        <ele>2049.1</ele>
        <time>2021-08-12T09:00:12Z</time>
      </trkpt>
      <trkpt lat="45.50643" lon="6.73814">
        <ele>2049.2</ele>
        <time>2021-08-12T09:00:13Z</time>
      </trkpt>
      <trkpt lat="45.50643" lon="6.73815">
        <ele>2049.3</ele>
        <time>2021-08-12T09:00:14Z</time>
      </trkpt>
      <trkpt lat="45.50643" lon="6.73816">
        <ele>2049.4</ele>
        <time>2021-08-12T09:00:15Z</time>
      </trkpt>
      <trkpt lat="45.50643" lon="6.73816">
        <ele>2049.4</ele>
        <time>2021-08-12T09:00:16Z</time>
      </trkpt>
      <trkpt lat="45.50644" lon="6.73816">
        <ele>2049.5</ele>
        <time>2021-08-12T09:00:17Z</time>
      </trkpt>
      <trkpt lat="45.50644" lon="6.73817">
        <ele>2049.6</ele>
        <time>2021-08-12T09:00:18Z</time>
      </trkpt>
      <trkpt lat="45.50644" lon="6.73817">
        <ele>2049.7</ele>
        <time>2021-08-12T09:00:19Z</time>
      </trkpt>
      <trkpt lat="45.50644" lon="6.73817">
        <ele>2049.7</ele>
        <time>2021-08-12T09:00:20Z</time>
      </trkpt>
      <trkpt lat="45.50644" lon="6.73818">
        <ele>2049.8</ele>
        <time>2021-08-12T09:00:21Z</time>
      </trkpt>
      <trkpt lat="45.50644" lon="6.73818">
        <ele>2049.8</ele>
        <time>2021-08-12T09:00:22Z</time>
      </trkpt>
      <trkpt lat="45.50645" lon="6.73818">
        <ele>2049.8</ele>
        <time>2021-08-12T09:00:23Z</time>
      </trkpt>
      <trkpt lat="45.50645" lon="6.73818">
        <ele>2049.9</ele>
        <time>2021-08-12T09:00:24Z</time>
      </trkpt>
      <trkpt lat="45.50645" lon="6.73818">
        <ele>2049.9</ele>
        <time>2021-08-12T09:00:25Z</time>
      </trkpt>
      <trkpt lat="45.50645" lon="6.73819">
        <ele>2049.9</ele>
        <time>2021-08-12T09:00:26Z</time>
      </trkpt>
      <trkpt lat="45.50645" lon="6.73819">
        <ele>2050</ele>
        <time>2021-08-12T09:00:27Z</time>
      </trkpt>
      <trkpt lat="45.50645" lon="6.73819">
        <ele>2050</ele>
        <time>2021-08-12T09:00:28Z</time>
      </trkpt>
      <trkpt lat="45.50645" lon="6.73819">
        <ele>2050.1</ele>
        <time>2021-08-12T09:00:29Z</time>
      </trkpt>
      <trkpt lat="45.50645" lon="6.7382">
        <ele>2050.1</ele>
        <time>2021-08-12T09:00:30Z</time>
      </trkpt>
      <trkpt lat="45.50644" lon="6.7382">
        <ele>2050.2</ele>
        <time>2021-08-12T09:00:31Z</time>
      </trkpt>
      <trkpt lat="45.50644" lon="6.7382">
        <ele>2050.2</ele>
        <time>2021-08-12T09:00:32Z</time>
      </trkpt>
      <trkpt lat="45.50644" lon="6.73821">
        <ele>2050.3</ele>
        <time>2021-08-12T09:00:33Z</time>
      </trkpt>
      <trkpt lat="45.50644" lon="6.73821">
        <ele>2050.4</ele>
        <time>2021-08-12T09:00:34Z</time>
      </trkpt>
      <trkpt lat="45.50644" lon="6.73822">
        <ele>2050.5</ele>
        <time>2021-08-12T09:00:35Z</time>
      </trkpt>
      <trkpt lat="45.50643" lon="6.73822">
        <ele>2050.6</ele>
        <time>2021-08-12T09:00:36Z</time>
      </trkpt>
      <trkpt lat="45.50643" lon="6.73823">
        <ele>2050.7</ele>
        <time>2021-08-12T09:00:37Z</time>
      </trkpt>
      <trkpt lat="45.50643" lon="6.73823">
        <ele>2050.9</ele>
        <time>2021-08-12T09:00:38Z</time>
      </trkpt>
      <trkpt lat="45.50642" lon="6.73824">
        <ele>2051</ele>
        <time>2021-08-12T09:00:39Z</time>
      </trkpt>
      <trkpt lat="45.50642" lon="6.73825">
        <ele>2051.1</ele>
        <time>2021-08-12T09:00:40Z</time>
      </trkpt>
      <trkpt lat="45.50641" lon="6.73825">
        <ele>2051.2</ele>
        <time>2021-08-12T09:00:41Z</time>
      </trkpt>
      <trkpt lat="45.50641" lon="6.73826">
        <ele>2051.4</ele>
        <time>2021-08-12T09:00:42Z</time>
      </trkpt>
      <trkpt lat="45.50641" lon="6.73827">
        <ele>2051.5</ele>
        <time>2021-08-12T09:00:43Z</time>
      </trkpt>
      <trkpt lat="45.5064" lon="6.73827">
        <ele>2051.6</ele>
        <time>2021-08-12T09:00:44Z</time>
      </trkpt>
      <trkpt lat="45.5064" lon="6.73828">
        <ele>2051.7</ele>
        <time>2021-08-12T09:00:45Z</time>
      </trkpt>
      <trkpt lat="45.5064" lon="6.73828">
        <ele>2051.8</ele>
        <time>2021-08-12T09:00:46Z</time>
      </trkpt>
      <trkpt lat="45.50639" lon="6.73829">
        <ele>2052</ele>
        <time>2021-08-12T09:00:47Z</time>
      </trkpt>
      <trkpt lat="45.50639" lon="6.73829">
        <ele>2052.1</ele>
        <time>2021-08-12T09:00:48Z</time>
      </trkpt>
      <trkpt lat="45.50639" lon="6.7383">
        <ele>2052.1</ele>
        <time>2021-08-12T09:00:49Z</time>
      </trkpt>
      <trkpt lat="45.50639" lon="6.7383">
        <ele>2052.2</ele>
        <time>2021-08-12T09:00:50Z</time>
      </trkpt>
      <trkpt lat="45.50638" lon="6.7383">
        <ele>2052.3</ele>
        <time>2021-08-12T09:00:51Z</time>
      </trkpt>
      <trkpt lat="45.50638" lon="6.73831">
        <ele>2052.3</ele>
        <time>2021-08-12T09:00:52Z</time>
      </trkpt>
      <trkpt lat="45.50638" lon="6.73831">
        <ele>2052.4</ele>
        <time>2021-08-12T09:00:53Z</time>
      </trkpt>
      <trkpt lat="45.50638" lon="6.73831">
        <ele>2052.4</ele>
        <time>2021-08-12T09:00:54Z</time>
      </trkpt>
      <trkpt lat="45.50638" lon="6.73831">
        <ele>2052.4</ele>
        <time>2021-08-12T09:00:55Z</time>
      </trkpt>
      <trkpt lat="45.50638" lon="6.73831">
        <ele>2052.4</ele>
        <time>2021-08-12T09:00:56Z</time>
      </trkpt>
      <trkpt lat="45.50638" lon="6.73831">
        <ele>2052.4</ele>
        <time>2021-08-12T09:00:57Z</time>
      </trkpt>
      <trkpt lat="45.50638" lon="6.73831">
        <ele>2052.4</ele>
        <time>2021-08-12T09:00:58Z</time>
      </trkpt>
      <trkpt lat="45.50638" lon="6.73831">
        <ele>2052.4</ele>
        <time>2021-08-12T09:00:59Z</time>
      </trkpt>
      <trkpt lat="45.50638" lon="6.73831">
        <ele>2052.5</ele>
        <time>2021-08-12T09:01:00Z</time>
      </trkpt>
      <trkpt lat="45.50638" lon="6.73831">
        <ele>2052.5</ele>
        <time>2021-08-12T09:01:01Z</time>
      </trkpt>
      <trkpt lat="45.50638" lon="6.73831">
        <ele>2052.5</ele>
        <time>2021-08-12T09:01:02Z</time>
      </trkpt>
      <trkpt lat="45.50638" lon="6.73831">
        <ele>2052.5</ele>
        <time>2021-08-12T09:01:03Z</time>
      </trkpt>
      <trkpt lat="45.50638" lon="6.73831">
        <ele>2052.5</ele>
        <time>2021-08-12T09:01:04Z</time>
      </trkpt>
      <trkpt lat="45.50638" lon="6.73831">
        <ele>2052.5</ele>
        <time>2021-08-12T09:01:05Z</time>
      </trkpt>
      <trkpt lat="45.50638" lon="6.73831">
        <ele>2052.6</ele>
        <time>2021-08-12T09:01:06Z</time>
      </trkpt>
      <trkpt lat="45.50637" lon="6.73831">
        <ele>2052.6</ele>
        <time>2021-08-12T09:01:07Z</time>
      </trkpt>
      <trkpt lat="45.50637" lon="6.73831">
        <ele>2052.7</ele>
        <time>2021-08-12T09:01:08Z</time>
      </trkpt>
      <trkpt lat="45.50637" lon="6.73831">
        <ele>2052.7</ele>
        <time>2021-08-12T09:01:09Z</time>
      </trkpt>
      <trkpt lat="45.50637" lon="6.73831">
        <ele>2052.8</ele>
        <time>2021-08-12T09:01:10Z</time>
      </trkpt>
      <trkpt lat="45.50637" lon="6.73832">
        <ele>2052.8</ele>
        <time>2021-08-12T09:01:11Z</time>
      </trkpt>
      <trkpt lat="45.50636" lon="6.73832">
        <ele>2052.9</ele>
        <time>2021-08-12T09:01:12Z</time>
      </trkpt>
      <trkpt lat="45.50636" lon="6.73832">
        <ele>2052.9</ele>
        <time>2021-08-12T09:01:13Z</time>
      </trkpt>
      <trkpt lat="45.50636" lon="6.73831">
        <ele>2053</ele>
        <time>2021-08-12T09:01:14Z</time>
      </trkpt>
      <trkpt lat="45.50635" lon="6.73831">
        <ele>2053.1</ele>
        <time>2021-08-12T09:01:15Z</time>
      </trkpt>
      <trkpt lat="45.50635" lon="6.73831">
        <ele>2053.1</ele>
        <time>2021-08-12T09:01:16Z</time>
      </trkpt>
      <trkpt lat="45.50635" lon="6.73831">
        <ele>2053.2</ele>
        <time>2021-08-12T09:01:17Z</time>
      </trkpt>
      <trkpt lat="45.50634" lon="6.73831">
        <ele>2053.3</ele>
        <time>2021-08-12T09:01:18Z</time>
      </trkpt>
      <trkpt lat="45.50634" lon="6.73831">
        <ele>2053.3</ele>
        <time>2021-08-12T09:01:19Z</time>
      </trkpt>
      <trkpt lat="45.50634" lon="6.73831">
        <ele>2053.4</ele>
        <time>2021-08-12T09:01:20Z</time>
      </trkpt>
      <trkpt lat="45.50633" lon="6.73831">
        <ele>2053.5</ele>
        <time>2021-08-12T09:01:21Z</time>
      </trkpt>
      <trkpt lat="45.50633" lon="6.73831">
        <ele>2053.6</ele>
        <time>2021-08-12T09:01:22Z</time>
      </trkpt>
      <trkpt lat="45.50633" lon="6.73831">
        <ele>2053.6</ele>
        <time>2021-08-12T09:01:23Z</time>
      </trkpt>
      <trkpt lat="45.50633" lon="6.7383">
        <ele>2053.7</ele>
        <time>2021-08-12T09:01:24Z</time>
      </trkpt>
      <trkpt lat="45.50632" lon="6.7383">
        <ele>2053.8</ele>
        <time>2021-08-12T09:01:25Z</time>
      </trkpt>
      <trkpt lat="45.50632" lon="6.7383">
        <ele>2053.8</ele>
        <time>2021-08-12T09:01:26Z</time>
      </trkpt>
      <trkpt lat="45.50632" lon="6.7383">
        <ele>2053.9</ele>
        <time>2021-08-12T09:01:27Z</time>
      </trkpt>
      <trkpt lat="45.50631" lon="6.7383">
        <ele>2054</ele>
        <time>2021-08-12T09:01:28Z</time>
      </trkpt>
      <trkpt lat="45.50631" lon="6.7383">
        <ele>2054</ele>
        <time>2021-08-12T09:01:29Z</time>
      </trkpt>
      <trkpt lat="45.50631" lon="6.7383">
        <ele>2054.1</ele>
        <time>2021-08-12T09:01:30Z</time>
      </trkpt>
      <trkpt lat="45.50631" lon="6.73829">
        <ele>2054.1</ele>
        <time>2021-08-12T09:01:31Z</time>
      </trkpt>
      <trkpt lat="45.50631" lon="6.73829">
        <ele>2054.2</ele>
        <time>2021-08-12T09:01:32Z</time>
      </trkpt>
      <trkpt lat="45.5063" lon="6.73829">
        <ele>2054.2</ele>
        <time>2021-08-12T09:01:33Z</time>
      </trkpt>
      <trkpt lat="45.5063" lon="6.73829">
        <ele>2054.3</ele>
        <time>2021-08-12T09:01:34Z</time>
      </trkpt>
      <trkpt lat="45.5063" lon="6.73829">
        <ele>2054.3</ele>
        <time>2021-08-12T09:01:35Z</time>
      </trkpt>
      <trkpt lat="45.5063" lon="6.73829">
        <ele>2054.3</ele>
        <time>2021-08-12T09:01:36Z</time>
      </trkpt>
      <trkpt lat="45.5063" lon="6.73829">
        <ele>2054.3</ele>
        <time>2021-08-12T09:01:37Z</time>
      </trkpt>
      <trkpt lat="45.5063" lon="6.73829">
        <ele>2054.3</ele>
        <time>2021-08-12T09:01:38Z</time>
      </trkpt>
      <trkpt lat="45.5063" lon="6.73829">
        <ele>2054.4</ele>
        <time>2021-08-12T09:01:39Z</time>
      </trkpt>
      <trkpt lat="45.5063" lon="6.73829">
        <ele>2054.4</ele>
        <time>2021-08-12T09:01:40Z</time>
      </trkpt>
      <trkpt lat="45.5063" lon="6.73829">
        <ele>2054.4</ele>
        <time>2021-08-12T09:01:41Z</time>
      </trkpt>
      <trkpt lat="45.5063" lon="6.73829">
        <ele>2054.4</ele>
        <time>2021-08-12T09:01:42Z</time>
      </trkpt>
      <trkpt lat="45.5063" lon="6.73829">
        <ele>2054.4</ele>
        <time>2021-08-12T09:01:43Z</time>
      </trkpt>
      <trkpt lat="45.5063" lon="6.73829">
        <ele>2054.4</ele>
        <time>2021-08-12T09:01:44Z</time>
      </trkpt>
      <trkpt lat="45.5063" lon="6.73829">
        <ele>2054.4</ele>
        <time>2021-08-12T09:01:45Z</time>
      </trkpt>
      <trkpt lat="45.5063" lon="6.73829">
        <ele>2054.4</ele>
        <time>2021-08-12T09:01:46Z</time>
      </trkpt>
      <trkpt lat="45.5063" lon="6.73829">
        <ele>2054.4</ele>
        <time>2021-08-12T09:01:47Z</time>
      </trkpt>
      <trkpt lat="45.5063" lon="6.73829">
        <ele>2054.4</ele>
        <time>2021-08-12T09:01:48Z</time>
      </trkpt>
      <trkpt lat="45.5063" lon="6.73829">
        <ele>2054.4</ele>
        <time>2021-08-12T09:01:49Z</time>
      </trkpt>
      <trkpt lat="45.5063" lon="6.73829">
        <ele>2054.4</ele>
        <time>2021-08-12T09:01:50Z</time>
      </trkpt>
      <trkpt lat="45.5063" lon="6.73829">
        <ele>2054.4</ele>
        <time>2021-08-12T09:01:51Z</time>
      </trkpt>
      <trkpt lat="45.5063" lon="6.73829">
        <ele>2054.4</ele>
        <time>2021-08-12T09:01:52Z</time>
      </trkpt>
      <trkpt lat="45.5063" lon="6.73829">
        <ele>2054.5</ele>
        <time>2021-08-12T09:01:53Z</time>
      </trkpt>
      <trkpt lat="45.5063" lon="6.73829">
        <ele>2054.5</ele>
        <time>2021-08-12T09:01:54Z</time>
      </trkpt>
      <trkpt lat="45.5063" lon="6.73829">
        <ele>2054.5</ele>
        <time>2021-08-12T09:01:55Z</time>
      </trkpt>
      <trkpt lat="45.5063" lon="6.73829">
        <ele>2054.5</ele>
        <time>2021-08-12T09:01:56Z</time>
      </trkpt>
      <trkpt lat="45.5063" lon="6.73829">
        <ele>2054.5</ele>
        <time>2021-08-12T09:01:57Z</time>
      </trkpt>
      <trkpt lat="45.5063" lon="6.73829">
        <ele>2054.5</ele>
        <time>2021-08-12T09:01:58Z</time>
      </trkpt>
      <trkpt lat="45.5063" lon="6.73829">
        <ele>2054.5</ele>
        <time>2021-08-12T09:01:59Z</time>
      </trkpt>
      <trkpt lat="45.5063" lon="6.73828">
        <ele>2054.5</ele>
        <time>2021-08-12T09:02:00Z</time>
      </trkpt>
      <trkpt lat="45.5063" lon="6.73828">
        <ele>2054.5</ele>
        <time>2021-08-12T09:02:01Z</time>
      </trkpt>
      <trkpt lat="45.5063" lon="6.73828">
        <ele>2054.5</ele>
        <time>2021-08-12T09:02:02Z</time>
      </trkpt>
      <trkpt lat="45.5063" lon="6.73828">
        <ele>2054.6</ele>
        <time>2021-08-12T09:02:03Z</time>
      </trkpt>
      <trkpt lat="45.50629" lon="6.73828">
        <ele>2054.6</ele>
        <time>2021-08-12T09:02:04Z</time>
      </trkpt>
      <trkpt lat="45.50629" lon="6.73828">
        <ele>2054.6</ele>
        <time>2021-08-12T09:02:05Z</time>
      </trkpt>
      <trkpt lat="45.50629" lon="6.73827">
        <ele>2054.7</ele>
        <time>2021-08-12T09:02:06Z</time>
      </trkpt>
      <trkpt lat="45.50629" lon="6.73827">
        <ele>2054.7</ele>
        <time>2021-08-12T09:02:07Z</time>
      </trkpt>
      <trkpt lat="45.50629" lon="6.73827">
        <ele>2054.8</ele>
        <time>2021-08-12T09:02:08Z</time>
      </trkpt>
      <trkpt lat="45.50629" lon="6.73827">
        <ele>2054.8</ele>
        <time>2021-08-12T09:02:09Z</time>
      </trkpt>
      <trkpt lat="45.50629" lon="6.73826">
        <ele>2054.9</ele>
        <time>2021-08-12T09:02:10Z</time>
      </trkpt>
      <trkpt lat="45.50629" lon="6.73826">
        <ele>2054.9</ele>
        <time>2021-08-12T09:02:11Z</time>
      </trkpt>
      <trkpt lat="45.50629" lon="6.73826">
        <ele>2055</ele>
        <time>2021-08-12T09:02:12Z</time>
      </trkpt>
      <trkpt lat="45.50628" lon="6.73825">
        <ele>2055.1</ele>
        <time>2021-08-12T09:02:13Z</time>
      </trkpt>
      <trkpt lat="45.50628" lon="6.73825">
        <ele>2055.1</ele>
        <time>2021-08-12T09:02:14Z</time>
      </trkpt>
      <trkpt lat="45.50628" lon="6.73824">
        <ele>2055.2</ele>
        <time>2021-08-12T09:02:15Z</time>
      </trkpt>
      <trkpt lat="45.50628" lon="6.73824">
        <ele>2055.3</ele>
        <time>2021-08-12T09:02:16Z</time>
      </trkpt>
      <trkpt lat="45.50628" lon="6.73823">
        <ele>2055.4</ele>
        <time>2021-08-12T09:02:17Z</time>
      </trkpt>
      <trkpt lat="45.50628" lon="6.73823">
        <ele>2055.5</ele>
        <time>2021-08-12T09:02:18Z</time>
      </trkpt>
      <trkpt lat="45.50627" lon="6.73822">
        <ele>2055.5</ele>
        <time>2021-08-12T09:02:19Z</time>
      </trkpt>
      <trkpt lat="45.50627" lon="6.73822">
        <ele>2055.6</ele>
        <time>2021-08-12T09:02:20Z</time>
      </trkpt>
      <trkpt lat="45.50627" lon="6.73821">
        <ele>2055.7</ele>
        <time>2021-08-12T09:02:21Z</time>
      </trkpt>
      <trkpt lat="45.50627" lon="6.73821">
        <ele>2055.8</ele>
        <time>2021-08-12T09:02:22Z</time>
      </trkpt>
      <trkpt lat="45.50627" lon="6.7382">
        <ele>2055.9</ele>
        <time>2021-08-12T09:02:23Z</time>
      </trkpt>
      <trkpt lat="45.50626" lon="6.7382">
        <ele>2055.9</ele>
        <time>2021-08-12T09:02:24Z</time>
      </trkpt>
      <trkpt lat="45.50626" lon="6.73819">
        <ele>2056</ele>
        <time>2021-08-12T09:02:25Z</time>
      </trkpt>
      <trkpt lat="45.50626" lon="6.73819">
        <ele>2056.1</ele>
        <time>2021-08-12T09:02:26Z</time>
      </trkpt>
      <trkpt lat="45.50626" lon="6.73818">
        <ele>2056.2</ele>
        <time>2021-08-12T09:02:27Z</time>
      </trkpt>
      <trkpt lat="45.50626" lon="6.73818">
        <ele>2056.2</ele>
        <time>2021-08-12T09:02:28Z</time>
      </trkpt>
      <trkpt lat="45.50625" lon="6.73818">
        <ele>2056.3</ele>
        <time>2021-08-12T09:02:29Z</time>
      </trkpt>
      <trkpt lat="45.50625" lon="6.73817">
        <ele>2056.3</ele>
        <time>2021-08-12T09:02:30Z</time>
      </trkpt>
      <trkpt lat="45.50625" lon="6.73817">
        <ele>2056.4</ele>
        <time>2021-08-12T09:02:31Z</time>
      </trkpt>
      <trkpt lat="45.50625" lon="6.73817">
        <ele>2056.4</ele>
        <time>2021-08-12T09:02:32Z</time>
      </trkpt>
      <trkpt lat="45.50625" lon="6.73816">
        <ele>2056.5</ele>
        <time>2021-08-12T09:02:33Z</time>
      </trkpt>
      <trkpt lat="45.50625" lon="6.73816">
        <ele>2056.5</ele>
        <time>2021-08-12T09:02:34Z</time>
      </trkpt>
      <trkpt lat="45.50625" lon="6.73816">
        <ele>2056.5</ele>
        <time>2021-08-12T09:02:35Z</time>
      </trkpt>
      <trkpt lat="45.50625" lon="6.73816">
        <ele>2056.5</ele>
        <time>2021-08-12T09:02:36Z</time>
      </trkpt>
      <trkpt lat="45.50625" lon="6.73816">
        <ele>2056.6</ele>
        <time>2021-08-12T09:02:37Z</time>
      </trkpt>
      <trkpt lat="45.50625" lon="6.73816">
        <ele>2056.6</ele>
        <time>2021-08-12T09:02:38Z</time>
      </trkpt>
      <trkpt lat="45.50625" lon="6.73816">
        <ele>2056.6</ele>
        <time>2021-08-12T09:02:39Z</time>
      </trkpt>
      <trkpt lat="45.50625" lon="6.73816">
        <ele>2056.6</ele>
        <time>2021-08-12T09:02:40Z</time>
      </trkpt>
      <trkpt lat="45.50625" lon="6.73816">
        <ele>2056.6</ele>
        <time>2021-08-12T09:02:41Z</time>
      </trkpt>
      <trkpt lat="45.50625" lon="6.73816">
        <ele>2056.6</ele>
        <time>2021-08-12T09:02:42Z</time>
      </trkpt>
      <trkpt lat="45.50625" lon="6.73815">
        <ele>2056.6</ele>
        <time>2021-08-12T09:02:43Z</time>
      </trkpt>
      <trkpt lat="45.50625" lon="6.73816">
        <ele>2056.6</ele>
        <time>2021-08-12T09:02:44Z</time>
      </trkpt>
      <trkpt lat="45.50625" lon="6.73816">
        <ele>2056.6</ele>
        <time>2021-08-12T09:02:45Z</time>
      </trkpt>
      <trkpt lat="45.50625" lon="6.73816">
        <ele>2056.6</ele>
        <time>2021-08-12T09:02:46Z</time>
      </trkpt>
      <trkpt lat="45.50625" lon="6.73816">
        <ele>2056.6</ele>
        <time>2021-08-12T09:02:47Z</time>
      </trkpt>
      <trkpt lat="45.50625" lon="6.73816">
        <ele>2056.7</ele>
        <time>2021-08-12T09:02:48Z</time>
      </trkpt>
      <trkpt lat="45.50625" lon="6.73816">
        <ele>2056.7</ele>
        <time>2021-08-12T09:02:49Z</time>
      </trkpt>
      <trkpt lat="45.50625" lon="6.73816">
        <ele>2056.7</ele>
        <time>2021-08-12T09:02:50Z</time>
      </trkpt>
      <trkpt lat="45.50625" lon="6.73816">
        <ele>2056.7</ele>
        <time>2021-08-12T09:02:51Z</time>
      </trkpt>
      <trkpt lat="45.50625" lon="6.73816">
        <ele>2056.7</ele>
        <time>2021-08-12T09:02:52Z</time>
      </trkpt>
      <trkpt lat="45.50625" lon="6.73816">
        <ele>2056.7</ele>
        <time>2021-08-12T09:02:53Z</time>
      </trkpt>
      <trkpt lat="45.50625" lon="6.73816">
        <ele>2056.7</ele>
        <time>2021-08-12T09:02:54Z</time>
      </trkpt>
      <trkpt lat="45.50625" lon="6.73816">
        <ele>2056.7</ele>
        <time>2021-08-12T09:02:55Z</time>
      </trkpt>
      <trkpt lat="45.50625" lon="6.73816">
        <ele>2056.8</ele>
        <time>2021-08-12T09:02:56Z</time>
      </trkpt>
      <trkpt lat="45.50625" lon="6.73816">
        <ele>2056.8</ele>
        <time>2021-08-12T09:02:57Z</time>
      </trkpt>
      <trkpt lat="45.50625" lon="6.73816">
        <ele>2056.8</ele>
        <time>2021-08-12T09:02:58Z</time>
      </trkpt>
      <trkpt lat="45.50625" lon="6.73816">
        <ele>2056.8</ele>
        <time>2021-08-12T09:02:59Z</time>
      </trkpt>
      <trkpt lat="45.50625" lon="6.73816">
        <ele>2056.8</ele>
        <time>2021-08-12T09:03:00Z</time>
      </trkpt>
      <trkpt lat="45.50625" lon="6.73816">
        <ele>2056.8</ele>
        <time>2021-08-12T09:03:01Z</time>
      </trkpt>
      <trkpt lat="45.50625" lon="6.73816">
        <ele>2056.8</ele>
        <time>2021-08-12T09:03:02Z</time>
      </trkpt>
      <trkpt lat="45.50625" lon="6.73816">
        <ele>2056.8</ele>
        <time>2021-08-12T09:03:03Z</time>
      </trkpt>
      <trkpt lat="45.50625" lon="6.73816">
        <ele>2056.8</ele>
        <time>2021-08-12T09:03:04Z</time>
      </trkpt>
      <trkpt lat="45.50625" lon="6.73816">
        <ele>2056.8</ele>
        <time>2021-08-12T09:03:05Z</time>
      </trkpt>
      <trkpt lat="45.50625" lon="6.73816">
        <ele>2056.8</ele>
        <time>2021-08-12T09:03:06Z</time>
      </trkpt>
      <trkpt lat="45.50625" lon="6.73816">
        <ele>2056.8</ele>
        <time>2021-08-12T09:03:07Z</time>
      </trkpt>
      <trkpt lat="45.50625" lon="6.73816">
        <ele>2056.9</ele>
        <time>2021-08-12T09:03:08Z</time>
      </trkpt>
      <trkpt lat="45.50625" lon="6.73816">
        <ele>2056.9</ele>
        <time>2021-08-12T09:03:09Z</time>
      </trkpt>
      <trkpt lat="45.50625" lon="6.73816">
        <ele>2056.9</ele>
        <time>2021-08-12T09:03:10Z</time>
      </trkpt>
      <trkpt lat="45.50625" lon="6.73815">
        <ele>2056.9</ele>
        <time>2021-08-12T09:03:11Z</time>
      </trkpt>
      <trkpt lat="45.50624" lon="6.73815">
        <ele>2057</ele>
        <time>2021-08-12T09:03:12Z</time>
      </trkpt>
      <trkpt lat="45.50624" lon="6.73815">
        <ele>2057</ele>
        <time>2021-08-12T09:03:13Z</time>
      </trkpt>
      <trkpt lat="45.50624" lon="6.73815">
        <ele>2057.1</ele>
        <time>2021-08-12T09:03:14Z</time>
      </trkpt>
      <trkpt lat="45.50624" lon="6.73814">
        <ele>2057.1</ele>
        <time>2021-08-12T09:03:15Z</time>
      </trkpt>
      <trkpt lat="45.50624" lon="6.73814">
        <ele>2057.2</ele>
        <time>2021-08-12T09:03:16Z</time>
      </trkpt>
      <trkpt lat="45.50624" lon="6.73814">
        <ele>2057.2</ele>
        <time>2021-08-12T09:03:17Z</time>
      </trkpt>
      <trkpt lat="45.50624" lon="6.73814">
        <ele>2057.3</ele>
        <time>2021-08-12T09:03:18Z</time>
      </trkpt>
      <trkpt lat="45.50623" lon="6.73813">
        <ele>2057.3</ele>
        <time>2021-08-12T09:03:19Z</time>
      </trkpt>
      <trkpt lat="45.50623" lon="6.73813">
        <ele>2057.4</ele>
        <time>2021-08-12T09:03:20Z</time>
      </trkpt>
      <trkpt lat="45.50623" lon="6.73813">
        <ele>2057.4</ele>
        <time>2021-08-12T09:03:21Z</time>
      </trkpt>
      <trkpt lat="45.50623" lon="6.73812">
        <ele>2057.5</ele>
        <time>2021-08-12T09:03:22Z</time>
      </trkpt>
      <trkpt lat="45.50623" lon="6.73812">
        <ele>2057.5</ele>
        <time>2021-08-12T09:03:23Z</time>
      </trkpt>
      <trkpt lat="45.50622" lon="6.73812">
        <ele>2057.6</ele>
        <time>2021-08-12T09:03:24Z</time>
      </trkpt>
      <trkpt lat="45.50622" lon="6.73812">
        <ele>2057.7</ele>
        <time>2021-08-12T09:03:25Z</time>
      </trkpt>
      <trkpt lat="45.50622" lon="6.73811">
        <ele>2057.7</ele>
        <time>2021-08-12T09:03:26Z</time>
      </trkpt>
      <trkpt lat="45.50622" lon="6.73811">
        <ele>2057.8</ele>
        <time>2021-08-12T09:03:27Z</time>
      </trkpt>
      <trkpt lat="45.50621" lon="6.73811">
        <ele>2057.8</ele>
        <time>2021-08-12T09:03:28Z</time>
      </trkpt>
      <trkpt lat="45.50621" lon="6.73811">
        <ele>2057.9</ele>
        <time>2021-08-12T09:03:29Z</time>
      </trkpt>
      <trkpt lat="45.50621" lon="6.73811">
        <ele>2058</ele>
        <time>2021-08-12T09:03:30Z</time>
      </trkpt>
      <trkpt lat="45.5062" lon="6.7381">
        <ele>2058</ele>
        <time>2021-08-12T09:03:31Z</time>
      </trkpt>
      <trkpt lat="45.5062" lon="6.7381">
        <ele>2058.1</ele>
        <time>2021-08-12T09:03:32Z</time>
      </trkpt>
      <trkpt lat="45.5062" lon="6.7381">
        <ele>2058.2</ele>
        <time>2021-08-12T09:03:33Z</time>
      </trkpt>
      <trkpt lat="45.50619" lon="6.7381">
        <ele>2058.2</ele>
        <time>2021-08-12T09:03:34Z</time>
      </trkpt>
      <trkpt lat="45.50619" lon="6.7381">
        <ele>2058.3</ele>
        <time>2021-08-12T09:03:35Z</time>
      </trkpt>
      <trkpt lat="45.50619" lon="6.7381">
        <ele>2058.3</ele>
        <time>2021-08-12T09:03:36Z</time>
      </trkpt>
      <trkpt lat="45.50619" lon="6.7381">
        <ele>2058.4</ele>
        <time>2021-08-12T09:03:37Z</time>
      </trkpt>
      <trkpt lat="45.50618" lon="6.7381">
        <ele>2058.4</ele>
        <time>2021-08-12T09:03:38Z</time>
      </trkpt>
      <trkpt lat="45.50618" lon="6.7381">
        <ele>2058.5</ele>
        <time>2021-08-12T09:03:39Z</time>
      </trkpt>
      <trkpt lat="45.50618" lon="6.7381">
        <ele>2058.6</ele>
        <time>2021-08-12T09:03:40Z</time>
      </trkpt>
      <trkpt lat="45.50617" lon="6.7381">
        <ele>2058.6</ele>
        <time>2021-08-12T09:03:41Z</time>
      </trkpt>
      <trkpt lat="45.50617" lon="6.7381">
        <ele>2058.7</ele>
        <time>2021-08-12T09:03:42Z</time>
      </trkpt>
      <trkpt lat="45.50617" lon="6.7381">
        <ele>2058.7</ele>
        <time>2021-08-12T09:03:43Z</time>
      </trkpt>
      <trkpt lat="45.50617" lon="6.7381">
        <ele>2058.8</ele>
        <time>2021-08-12T09:03:44Z</time>
      </trkpt>
      <trkpt lat="45.50617" lon="6.7381">
        <ele>2058.8</ele>
        <time>2021-08-12T09:03:45Z</time>
      </trkpt>
      <trkpt lat="45.50616" lon="6.7381">
        <ele>2058.8</ele>
        <time>2021-08-12T09:03:46Z</time>
      </trkpt>
      <trkpt lat="45.50616" lon="6.7381">
        <ele>2058.9</ele>
        <time>2021-08-12T09:03:47Z</time>
      </trkpt>
      <trkpt lat="45.50616" lon="6.7381">
        <ele>2058.9</ele>
        <time>2021-08-12T09:03:48Z</time>
      </trkpt>
      <trkpt lat="45.50616" lon="6.7381">
        <ele>2058.9</ele>
        <time>2021-08-12T09:03:49Z</time>
      </trkpt>
      <trkpt lat="45.50616" lon="6.7381">
        <ele>2059</ele>
        <time>2021-08-12T09:03:50Z</time>
      </trkpt>
      <trkpt lat="45.50616" lon="6.73811">
        <ele>2059</ele>
        <time>2021-08-12T09:03:51Z</time>
      </trkpt>
      <trkpt lat="45.50616" lon="6.73811">
        <ele>2059</ele>
        <time>2021-08-12T09:03:52Z</time>
      </trkpt>
      <trkpt lat="45.50615" lon="6.73811">
        <ele>2059.1</ele>
        <time>2021-08-12T09:03:53Z</time>
      </trkpt>
      <trkpt lat="45.50615" lon="6.73811">
        <ele>2059.1</ele>
        <time>2021-08-12T09:03:54Z</time>
      </trkpt>
      <trkpt lat="45.50615" lon="6.73811">
        <ele>2059.1</ele>
        <time>2021-08-12T09:03:55Z</time>
      </trkpt>
      <trkpt lat="45.50615" lon="6.73811">
        <ele>2059.1</ele>
        <time>2021-08-12T09:03:56Z</time>
      </trkpt>
      <trkpt lat="45.50615" lon="6.73812">
        <ele>2059.2</ele>
        <time>2021-08-12T09:03:57Z</time>
      </trkpt>
      <trkpt lat="45.50615" lon="6.73812">
        <ele>2059.2</ele>
        <time>2021-08-12T09:03:58Z</time>
      </trkpt>
      <trkpt lat="45.50615" lon="6.73812">
        <ele>2059.2</ele>
        <time>2021-08-12T09:03:59Z</time>
      </trkpt>
      <trkpt lat="45.50615" lon="6.73812">
        <ele>2059.3</ele>
        <time>2021-08-12T09:04:00Z</time>
      </trkpt>
      <trkpt lat="45.50615" lon="6.73812">
        <ele>2059.3</ele>
        <time>2021-08-12T09:04:01Z</time>
      </trkpt>
      <trkpt lat="45.50615" lon="6.73812">
        <ele>2059.3</ele>
        <time>2021-08-12T09:04:02Z</time>
      </trkpt>
      <trkpt lat="45.50615" lon="6.73813">
        <ele>2059.3</ele>
        <time>2021-08-12T09:04:03Z</time>
      </trkpt>
      <trkpt lat="45.50615" lon="6.73813">
        <ele>2059.3</ele>
        <time>2021-08-12T09:04:04Z</time>
      </trkpt>
      <trkpt lat="45.50615" lon="6.73813">
        <ele>2059.3</ele>
        <time>2021-08-12T09:04:05Z</time>
      </trkpt>
      <trkpt lat="45.50615" lon="6.73813">
        <ele>2059.4</ele>
        <time>2021-08-12T09:04:06Z</time>
      </trkpt>
      <trkpt lat="45.50615" lon="6.73813">
        <ele>2059.4</ele>
        <time>2021-08-12T09:04:07Z</time>
      </trkpt>
      <trkpt lat="45.50615" lon="6.73813">
        <ele>2059.4</ele>
        <time>2021-08-12T09:04:08Z</time>
      </trkpt>
      <trkpt lat="45.50615" lon="6.73813">
        <ele>2059.4</ele>
        <time>2021-08-12T09:04:09Z</time>
      </trkpt>
      <trkpt lat="45.50615" lon="6.73813">
        <ele>2059.4</ele>
        <time>2021-08-12T09:04:10Z</time>
      </trkpt>
      <trkpt lat="45.50615" lon="6.73813">
        <ele>2059.4</ele>
        <time>2021-08-12T09:04:11Z</time>
      </trkpt>
      <trkpt lat="45.50615" lon="6.73813">
        <ele>2059.4</ele>
        <time>2021-08-12T09:04:12Z</time>
      </trkpt>
      <trkpt lat="45.50615" lon="6.73813">
        <ele>2059.4</ele>
        <time>2021-08-12T09:04:13Z</time>
      </trkpt>
      <trkpt lat="45.50615" lon="6.73813">
        <ele>2059.4</ele>
        <time>2021-08-12T09:04:14Z</time>
      </trkpt>
      <trkpt lat="45.50615" lon="6.73813">
        <ele>2059.4</ele>
        <time>2021-08-12T09:04:15Z</time>
      </trkpt>
      <trkpt lat="45.50615" lon="6.73813">
        <ele>2059.4</ele>
        <time>2021-08-12T09:04:16Z</time>
      </trkpt>
      <trkpt lat="45.50615" lon="6.73813">
        <ele>2059.4</ele>
        <time>2021-08-12T09:04:17Z</time>
      </trkpt>
      <trkpt lat="45.50615" lon="6.73813">
        <ele>2059.4</ele>
        <time>2021-08-12T09:04:18Z</time>
      </trkpt>
      <trkpt lat="45.50615" lon="6.73813">
        <ele>2059.5</ele>
        <time>2021-08-12T09:04:19Z</time>
      </trkpt>
      <trkpt lat="45.50615" lon="6.73813">
        <ele>2059.5</ele>
        <time>2021-08-12T09:04:20Z</time>
      </trkpt>
      <trkpt lat="45.50615" lon="6.73813">
        <ele>2059.5</ele>
        <time>2021-08-12T09:04:21Z</time>
      </trkpt>
      <trkpt lat="45.50615" lon="6.73813">
        <ele>2059.5</ele>
        <time>2021-08-12T09:04:22Z</time>
      </trkpt>
      <trkpt lat="45.50615" lon="6.73814">
        <ele>2059.6</ele>
        <time>2021-08-12T09:04:23Z</time>
      </trkpt>
      <trkpt lat="45.50615" lon="6.73814">
        <ele>2059.6</ele>
        <time>2021-08-12T09:04:24Z</time>
      </trkpt>
      <trkpt lat="45.50615" lon="6.73814">
        <ele>2059.7</ele>
        <time>2021-08-12T09:04:25Z</time>
      </trkpt>
      <trkpt lat="45.50615" lon="6.73815">
        <ele>2059.8</ele>
        <time>2021-08-12T09:04:26Z</time>
      </trkpt>
      <trkpt lat="45.50615" lon="6.73815">
        <ele>2059.8</ele>
        <time>2021-08-12T09:04:27Z</time>
      </trkpt>
      <trkpt lat="45.50615" lon="6.73816">
        <ele>2059.9</ele>
        <time>2021-08-12T09:04:28Z</time>
      </trkpt>
      <trkpt lat="45.50615" lon="6.73817">
        <ele>2060</ele>
        <time>2021-08-12T09:04:29Z</time>
      </trkpt>
      <trkpt lat="45.50615" lon="6.73817">
        <ele>2060.2</ele>
        <time>2021-08-12T09:04:30Z</time>
      </trkpt>
      <trkpt lat="45.50615" lon="6.73818">
        <ele>2060.3</ele>
        <time>2021-08-12T09:04:31Z</time>
      </trkpt>
      <trkpt lat="45.50614" lon="6.73819">
        <ele>2060.4</ele>
        <time>2021-08-12T09:04:32Z</time>
      </trkpt>
      <trkpt lat="45.50614" lon="6.7382">
        <ele>2060.6</ele>
        <time>2021-08-12T09:04:33Z</time>
      </trkpt>
      <trkpt lat="45.50614" lon="6.73821">
        <ele>2060.7</ele>
        <time>2021-08-12T09:04:34Z</time>
      </trkpt>
      <trkpt lat="45.50614" lon="6.73822">
        <ele>2060.9</ele>
        <time>2021-08-12T09:04:35Z</time>
      </trkpt>
      <trkpt lat="45.50614" lon="6.73823">
        <ele>2061</ele>
        <time>2021-08-12T09:04:36Z</time>
      </trkpt>
      <trkpt lat="45.50614" lon="6.73824">
        <ele>2061.2</ele>
        <time>2021-08-12T09:04:37Z</time>
      </trkpt>
      <trkpt lat="45.50613" lon="6.73825">
        <ele>2061.4</ele>
        <time>2021-08-12T09:04:38Z</time>
      </trkpt>
      <trkpt lat="45.50613" lon="6.73826">
        <ele>2061.5</ele>
        <time>2021-08-12T09:04:39Z</time>
      </trkpt>
      <trkpt lat="45.50613" lon="6.73827">
        <ele>2061.7</ele>
        <time>2021-08-12T09:04:40Z</time>
      </trkpt>
      <trkpt lat="45.50613" lon="6.73828">
        <ele>2061.8</ele>
        <time>2021-08-12T09:04:41Z</time>
      </trkpt>
      <trkpt lat="45.50612" lon="6.73828">
        <ele>2062</ele>
        <time>2021-08-12T09:04:42Z</time>
      </trkpt>
      <trkpt lat="45.50612" lon="6.73829">
        <ele>2062.2</ele>
        <time>2021-08-12T09:04:43Z</time>
      </trkpt>
      <trkpt lat="45.50612" lon="6.7383">
        <ele>2062.3</ele>
        <time>2021-08-12T09:04:44Z</time>
      </trkpt>
      <trkpt lat="45.50612" lon="6.73831">
        <ele>2062.5</ele>
        <time>2021-08-12T09:04:45Z</time>
      </trkpt>
      <trkpt lat="45.50611" lon="6.73832">
        <ele>2062.6</ele>
        <time>2021-08-12T09:04:46Z</time>
      </trkpt>
      <trkpt lat="45.50611" lon="6.73833">
        <ele>2062.8</ele>
        <time>2021-08-12T09:04:47Z</time>
      </trkpt>
      <trkpt lat="45.50611" lon="6.73833">
        <ele>2062.9</ele>
        <time>2021-08-12T09:04:48Z</time>
      </trkpt>
      <trkpt lat="45.5061" lon="6.73834">
        <ele>2063.1</ele>
        <time>2021-08-12T09:04:49Z</time>
      </trkpt>
      <trkpt lat="45.5061" lon="6.73835">
        <ele>2063.2</ele>
        <time>2021-08-12T09:04:50Z</time>
      </trkpt>
      <trkpt lat="45.5061" lon="6.73835">
        <ele>2063.3</ele>
        <time>2021-08-12T09:04:51Z</time>
      </trkpt>
      <trkpt lat="45.50609" lon="6.73836">
        <ele>2063.5</ele>
        <time>2021-08-12T09:04:52Z</time>
      </trkpt>
      <trkpt lat="45.50609" lon="6.73836">
        <ele>2063.6</ele>
        <time>2021-08-12T09:04:53Z</time>
      </trkpt>
      <trkpt lat="45.50608" lon="6.73837">
        <ele>2063.7</ele>
        <time>2021-08-12T09:04:54Z</time>
      </trkpt>
      <trkpt lat="45.50608" lon="6.73837">
        <ele>2063.9</ele>
        <time>2021-08-12T09:04:55Z</time>
      </trkpt>
      <trkpt lat="45.50607" lon="6.73838">
        <ele>2064</ele>
        <time>2021-08-12T09:04:56Z</time>
      </trkpt>
      <trkpt lat="45.50607" lon="6.73838">
        <ele>2064.2</ele>
        <time>2021-08-12T09:04:57Z</time>
      </trkpt>
      <trkpt lat="45.50606" lon="6.73839">
        <ele>2064.3</ele>
        <time>2021-08-12T09:04:58Z</time>
      </trkpt>
      <trkpt lat="45.50606" lon="6.73839">
        <ele>2064.5</ele>
        <time>2021-08-12T09:04:59Z</time>
      </trkpt>
      <trkpt lat="45.50605" lon="6.73839">
        <ele>2064.6</ele>
        <time>2021-08-12T09:05:00Z</time>
      </trkpt>
      <trkpt lat="45.50605" lon="6.7384">
        <ele>2064.8</ele>
        <time>2021-08-12T09:05:01Z</time>
      </trkpt>
      <trkpt lat="45.50604" lon="6.7384">
        <ele>2064.9</ele>
        <time>2021-08-12T09:05:02Z</time>
      </trkpt>
      <trkpt lat="45.50604" lon="6.7384">
        <ele>2065.1</ele>
        <time>2021-08-12T09:05:03Z</time>
      </trkpt>
      <trkpt lat="45.50603" lon="6.7384">
        <ele>2065.2</ele>
        <time>2021-08-12T09:05:04Z</time>
      </trkpt>
      <trkpt lat="45.50603" lon="6.7384">
        <ele>2065.3</ele>
        <time>2021-08-12T09:05:05Z</time>
      </trkpt>
      <trkpt lat="45.50602" lon="6.7384">
        <ele>2065.4</ele>
        <time>2021-08-12T09:05:06Z</time>
      </trkpt>
      <trkpt lat="45.50602" lon="6.7384">
        <ele>2065.5</ele>
        <time>2021-08-12T09:05:07Z</time>
      </trkpt>
      <trkpt lat="45.50601" lon="6.7384">
        <ele>2065.6</ele>
        <time>2021-08-12T09:05:08Z</time>
      </trkpt>
      <trkpt lat="45.50601" lon="6.73839">
        <ele>2065.7</ele>
        <time>2021-08-12T09:05:09Z</time>
      </trkpt>
      <trkpt lat="45.50601" lon="6.73839">
        <ele>2065.8</ele>
        <time>2021-08-12T09:05:10Z</time>
      </trkpt>
      <trkpt lat="45.50601" lon="6.73839">
        <ele>2065.9</ele>
        <time>2021-08-12T09:05:11Z</time>
      </trkpt>
      <trkpt lat="45.506" lon="6.73838">
        <ele>2066</ele>
        <time>2021-08-12T09:05:12Z</time>
      </trkpt>
      <trkpt lat="45.506" lon="6.73838">
        <ele>2066.1</ele>
        <time>2021-08-12T09:05:13Z</time>
      </trkpt>
      <trkpt lat="45.506" lon="6.73838">
        <ele>2066.2</ele>
        <time>2021-08-12T09:05:14Z</time>
      </trkpt>
      <trkpt lat="45.506" lon="6.73837">
        <ele>2066.2</ele>
        <time>2021-08-12T09:05:15Z</time>
      </trkpt>
      <trkpt lat="45.506" lon="6.73837">
        <ele>2066.3</ele>
        <time>2021-08-12T09:05:16Z</time>
      </trkpt>
      <trkpt lat="45.506" lon="6.73837">
        <ele>2066.3</ele>
        <time>2021-08-12T09:05:17Z</time>
      </trkpt>
      <trkpt lat="45.506" lon="6.73837">
        <ele>2066.3</ele>
        <time>2021-08-12T09:05:18Z</time>
      </trkpt>
      <trkpt lat="45.506" lon="6.73837">
        <ele>2066.4</ele>
        <time>2021-08-12T09:05:19Z</time>
      </trkpt>
      <trkpt lat="45.506" lon="6.73837">
        <ele>2066.4</ele>
        <time>2021-08-12T09:05:20Z</time>
      </trkpt>
      <trkpt lat="45.506" lon="6.73836">
        <ele>2066.4</ele>
        <time>2021-08-12T09:05:21Z</time>
      </trkpt>
      <trkpt lat="45.506" lon="6.73836">
        <ele>2066.4</ele>
        <time>2021-08-12T09:05:22Z</time>
      </trkpt>
      <trkpt lat="45.506" lon="6.73837">
        <ele>2066.4</ele>
        <time>2021-08-12T09:05:23Z</time>
      </trkpt>
      <trkpt lat="45.506" lon="6.73837">
        <ele>2066.4</ele>
        <time>2021-08-12T09:05:24Z</time>
      </trkpt>
      <trkpt lat="45.506" lon="6.73837">
        <ele>2066.5</ele>
        <time>2021-08-12T09:05:25Z</time>
      </trkpt>
      <trkpt lat="45.506" lon="6.73837">
        <ele>2066.5</ele>
        <time>2021-08-12T09:05:26Z</time>
      </trkpt>
      <trkpt lat="45.506" lon="6.73837">
        <ele>2066.5</ele>
        <time>2021-08-12T09:05:27Z</time>
      </trkpt>
      <trkpt lat="45.506" lon="6.73837">
        <ele>2066.5</ele>
        <time>2021-08-12T09:05:28Z</time>
      </trkpt>
      <trkpt lat="45.506" lon="6.73837">
        <ele>2066.5</ele>
        <time>2021-08-12T09:05:29Z</time>
      </trkpt>
      <trkpt lat="45.506" lon="6.73837">
        <ele>2066.5</ele>
        <time>2021-08-12T09:05:30Z</time>
      </trkpt>
      <trkpt lat="45.506" lon="6.73837">
        <ele>2066.5</ele>
        <time>2021-08-12T09:05:31Z</time>
      </trkpt>
      <trkpt lat="45.506" lon="6.73837">
        <ele>2066.5</ele>
        <time>2021-08-12T09:05:32Z</time>
      </trkpt>
      <trkpt lat="45.506" lon="6.73837">
        <ele>2066.5</ele>
        <time>2021-08-12T09:05:33Z</time>
      </trkpt>
      <trkpt lat="45.506" lon="6.73837">
        <ele>2066.5</ele>
        <time>2021-08-12T09:05:34Z</time>
      </trkpt>
      <trkpt lat="45.506" lon="6.73837">
        <ele>2066.5</ele>
        <time>2021-08-12T09:05:35Z</time>
      </trkpt>
      <trkpt lat="45.506" lon="6.73837">
        <ele>2066.5</ele>
        <time>2021-08-12T09:05:36Z</time>
      </trkpt>
      <trkpt lat="45.506" lon="6.73837">
        <ele>2066.5</ele>
        <time>2021-08-12T09:05:37Z</time>
      </trkpt>
      <trkpt lat="45.506" lon="6.73837">
        <ele>2066.5</ele>
        <time>2021-08-12T09:05:38Z</time>
      </trkpt>
      <trkpt lat="45.506" lon="6.73837">
        <ele>2066.5</ele>
        <time>2021-08-12T09:05:39Z</time>
      </trkpt>
      <trkpt lat="45.506" lon="6.73837">
        <ele>2066.5</ele>
        <time>2021-08-12T09:05:40Z</time>
      </trkpt>
      <trkpt lat="45.506" lon="6.73837">
        <ele>2066.5</ele>
        <time>2021-08-12T09:05:41Z</time>
      </trkpt>
      <trkpt lat="45.506" lon="6.73837">
        <ele>2066.5</ele>
        <time>2021-08-12T09:05:42Z</time>
      </trkpt>
      <trkpt lat="45.506" lon="6.73837">
        <ele>2066.5</ele>
        <time>2021-08-12T09:05:43Z</time>
      </trkpt>
      <trkpt lat="45.506" lon="6.73837">
        <ele>2066.5</ele>
        <time>2021-08-12T09:05:44Z</time>
      </trkpt>
      <trkpt lat="45.506" lon="6.73837">
        <ele>2066.5</ele>
        <time>2021-08-12T09:05:45Z</time>
      </trkpt>
      <trkpt lat="45.506" lon="6.73837">
        <ele>2066.5</ele>
        <time>2021-08-12T09:05:46Z</time>
      </trkpt>
      <trkpt lat="45.506" lon="6.73837">
        <ele>2066.5</ele>
        <time>2021-08-12T09:05:47Z</time>
      </trkpt>
      <trkpt lat="45.506" lon="6.73837">
        <ele>2066.5</ele>
        <time>2021-08-12T09:05:48Z</time>
      </trkpt>
      <trkpt lat="45.506" lon="6.73837">
        <ele>2066.5</ele>
        <time>2021-08-12T09:05:49Z</time>
      </trkpt>
      <trkpt lat="45.506" lon="6.73837">
        <ele>2066.5</ele>
        <time>2021-08-12T09:05:50Z</time>
      </trkpt>
      <trkpt lat="45.506" lon="6.73837">
        <ele>2066.5</ele>
        <time>2021-08-12T09:05:51Z</time>
      </trkpt>
      <trkpt lat="45.506" lon="6.73837">
        <ele>2066.5</ele>
        <time>2021-08-12T09:05:52Z</time>
      </trkpt>
      <trkpt lat="45.506" lon="6.73837">
        <ele>2066.5</ele>
        <time>2021-08-12T09:05:53Z</time>
      </trkpt>
      <trkpt lat="45.506" lon="6.73837">
        <ele>2066.5</ele>
        <time>2021-08-12T09:05:54Z</time>
      </trkpt>
      <trkpt lat="45.506" lon="6.73837">
        <ele>2066.5</ele>
        <time>2021-08-12T09:05:55Z</time>
      </trkpt>
      <trkpt lat="45.506" lon="6.73837">
        <ele>2066.5</ele>
        <time>2021-08-12T09:05:56Z</time>
      </trkpt>
      <trkpt lat="45.506" lon="6.73837">
        <ele>2066.5</ele>
        <time>2021-08-12T09:05:57Z</time>
      </trkpt>
      <trkpt lat="45.506" lon="6.73837">
        <ele>2066.5</ele>
        <time>2021-08-12T09:05:58Z</time>
      </trkpt>
      <trkpt lat="45.506" lon="6.73837">
        <ele>2066.5</ele>
        <time>2021-08-12T09:05:59Z</time>
      </trkpt>
      <trkpt lat="45.506" lon="6.73837">
        <ele>2066.5</ele>
        <time>2021-08-12T09:06:00Z</time>
      </trkpt>
      <trkpt lat="45.506" lon="6.73837">
        <ele>2066.5</ele>
        <time>2021-08-12T09:06:01Z</time>
      </trkpt>
      <trkpt lat="45.506" lon="6.73837">
        <ele>2066.5</ele>
        <time>2021-08-12T09:06:02Z</time>
      </trkpt>
      <trkpt lat="45.506" lon="6.73837">
        <ele>2066.5</ele>
        <time>2021-08-12T09:06:03Z</time>
      </trkpt>
      <trkpt lat="45.506" lon="6.73837">
        <ele>2066.5</ele>
        <time>2021-08-12T09:06:04Z</time>
      </trkpt>
      <trkpt lat="45.506" lon="6.73837">
        <ele>2066.5</ele>
        <time>2021-08-12T09:06:05Z</time>
      </trkpt>
      <trkpt lat="45.506" lon="6.73836">
        <ele>2066.5</ele>
        <time>2021-08-12T09:06:06Z</time>
      </trkpt>
      <trkpt lat="45.506" lon="6.73836">
        <ele>2066.5</ele>
        <time>2021-08-12T09:06:07Z</time>
      </trkpt>
      <trkpt lat="45.506" lon="6.73836">
        <ele>2066.5</ele>
        <time>2021-08-12T09:06:08Z</time>
      </trkpt>
      <trkpt lat="45.506" lon="6.73836">
        <ele>2066.5</ele>
        <time>2021-08-12T09:06:09Z</time>
      </trkpt>
      <trkpt lat="45.506" lon="6.73836">
        <ele>2066.5</ele>
        <time>2021-08-12T09:06:10Z</time>
      </trkpt>
      <trkpt lat="45.506" lon="6.73836">
        <ele>2066.6</ele>
        <time>2021-08-12T09:06:11Z</time>
      </trkpt>
      <trkpt lat="45.506" lon="6.73836">
        <ele>2066.6</ele>
        <time>2021-08-12T09:06:12Z</time>
      </trkpt>
      <trkpt lat="45.506" lon="6.73836">
        <ele>2066.7</ele>
        <time>2021-08-12T09:06:13Z</time>
      </trkpt>
      <trkpt lat="45.506" lon="6.73835">
        <ele>2066.7</ele>
        <time>2021-08-12T09:06:14Z</time>
      </trkpt>
      <trkpt lat="45.50599" lon="6.73835">
        <ele>2066.8</ele>
        <time>2021-08-12T09:06:15Z</time>
      </trkpt>
      <trkpt lat="45.50599" lon="6.73834">
        <ele>2066.9</ele>
        <time>2021-08-12T09:06:16Z</time>
      </trkpt>
      <trkpt lat="45.50599" lon="6.73834">
        <ele>2066.9</ele>
        <time>2021-08-12T09:06:17Z</time>
      </trkpt>
      <trkpt lat="45.50599" lon="6.73834">
        <ele>2067.1</ele>
        <time>2021-08-12T09:06:18Z</time>
      </trkpt>
      <trkpt lat="45.50599" lon="6.73833">
        <ele>2067.2</ele>
        <time>2021-08-12T09:06:19Z</time>
      </trkpt>
      <trkpt lat="45.50599" lon="6.73832">
        <ele>2067.3</ele>
        <time>2021-08-12T09:06:20Z</time>
      </trkpt>
      <trkpt lat="45.50598" lon="6.73831">
        <ele>2067.5</ele>
        <time>2021-08-12T09:06:21Z</time>
      </trkpt>
      <trkpt lat="45.50598" lon="6.73831">
        <ele>2067.6</ele>
        <time>2021-08-12T09:06:22Z</time>
      </trkpt>
      <trkpt lat="45.50598" lon="6.7383">
        <ele>2067.8</ele>
        <time>2021-08-12T09:06:23Z</time>
      </trkpt>
      <trkpt lat="45.50598" lon="6.73829">
        <ele>2068</ele>
        <time>2021-08-12T09:06:24Z</time>
      </trkpt>
      <trkpt lat="45.50597" lon="6.73828">
        <ele>2068.2</ele>
        <time>2021-08-12T09:06:25Z</time>
      </trkpt>
      <trkpt lat="45.50597" lon="6.73827">
        <ele>2068.4</ele>
        <time>2021-08-12T09:06:26Z</time>
      </trkpt>
      <trkpt lat="45.50597" lon="6.73826">
        <ele>2068.6</ele>
        <time>2021-08-12T09:06:27Z</time>
      </trkpt>
      <trkpt lat="45.50597" lon="6.73825">
        <ele>2068.8</ele>
        <time>2021-08-12T09:06:28Z</time>
      </trkpt>
      <trkpt lat="45.50596" lon="6.73824">
        <ele>2069</ele>
        <time>2021-08-12T09:06:29Z</time>
      </trkpt>
      <trkpt lat="45.50596" lon="6.73823">
        <ele>2069.1</ele>
        <time>2021-08-12T09:06:30Z</time>
      </trkpt>
      <trkpt lat="45.50596" lon="6.73822">
        <ele>2069.3</ele>
        <time>2021-08-12T09:06:31Z</time>
      </trkpt>
      <trkpt lat="45.50596" lon="6.73822">
        <ele>2069.4</ele>
        <time>2021-08-12T09:06:32Z</time>
      </trkpt>
      <trkpt lat="45.50596" lon="6.73821">
        <ele>2069.5</ele>
        <time>2021-08-12T09:06:33Z</time>
      </trkpt>
      <trkpt lat="45.50595" lon="6.73821">
        <ele>2069.5</ele>
        <time>2021-08-12T09:06:34Z</time>
      </trkpt>
      <trkpt lat="45.50595" lon="6.73821">
        <ele>2069.6</ele>
        <time>2021-08-12T09:06:35Z</time>
      </trkpt>
      <trkpt lat="45.50595" lon="6.73821">
        <ele>2069.6</ele>
        <time>2021-08-12T09:06:36Z</time>
      </trkpt>
      <trkpt lat="45.50595" lon="6.73821">
        <ele>2069.6</ele>
        <time>2021-08-12T09:06:37Z</time>
      </trkpt>
      <trkpt lat="45.50595" lon="6.73821">
        <ele>2069.6</ele>
        <time>2021-08-12T09:06:38Z</time>
      </trkpt>
      <trkpt lat="45.50595" lon="6.73821">
        <ele>2069.6</ele>
        <time>2021-08-12T09:06:39Z</time>
      </trkpt>
      <trkpt lat="45.50595" lon="6.73821">
        <ele>2069.6</ele>
        <time>2021-08-12T09:06:40Z</time>
      </trkpt>
      <trkpt lat="45.50595" lon="6.73821">
        <ele>2069.6</ele>
        <time>2021-08-12T09:06:41Z</time>
      </trkpt>
      <trkpt lat="45.50595" lon="6.73821">
        <ele>2069.6</ele>
        <time>2021-08-12T09:06:42Z</time>
      </trkpt>
      <trkpt lat="45.50595" lon="6.73821">
        <ele>2069.7</ele>
        <time>2021-08-12T09:06:43Z</time>
      </trkpt>
      <trkpt lat="45.50595" lon="6.7382">
        <ele>2069.7</ele>
        <time>2021-08-12T09:06:44Z</time>
      </trkpt>
      <trkpt lat="45.50595" lon="6.7382">
        <ele>2069.8</ele>
        <time>2021-08-12T09:06:45Z</time>
      </trkpt>
      <trkpt lat="45.50595" lon="6.7382">
        <ele>2069.9</ele>
        <time>2021-08-12T09:06:46Z</time>
      </trkpt>
      <trkpt lat="45.50594" lon="6.73819">
        <ele>2070</ele>
        <time>2021-08-12T09:06:47Z</time>
      </trkpt>
      <trkpt lat="45.50594" lon="6.73819">
        <ele>2070.2</ele>
        <time>2021-08-12T09:06:48Z</time>
      </trkpt>
      <trkpt lat="45.50593" lon="6.73819">
        <ele>2070.3</ele>
        <time>2021-08-12T09:06:49Z</time>
      </trkpt>
      <trkpt lat="45.50592" lon="6.73819">
        <ele>2070.5</ele>
        <time>2021-08-12T09:06:50Z</time>
      </trkpt>
      <trkpt lat="45.50592" lon="6.73818">
        <ele>2070.7</ele>
        <time>2021-08-12T09:06:51Z</time>
      </trkpt>
      <trkpt lat="45.50591" lon="6.73818">
        <ele>2070.8</ele>
        <time>2021-08-12T09:06:52Z</time>
      </trkpt>
      <trkpt lat="45.50591" lon="6.73818">
        <ele>2071</ele>
        <time>2021-08-12T09:06:53Z</time>
      </trkpt>
      <trkpt lat="45.5059" lon="6.73818">
        <ele>2071.1</ele>
        <time>2021-08-12T09:06:54Z</time>
      </trkpt>
      <trkpt lat="45.50589" lon="6.73818">
        <ele>2071.2</ele>
        <time>2021-08-12T09:06:55Z</time>
      </trkpt>
      <trkpt lat="45.50589" lon="6.73818">
        <ele>2071.4</ele>
        <time>2021-08-12T09:06:56Z</time>
      </trkpt>
      <trkpt lat="45.50589" lon="6.73818">
        <ele>2071.5</ele>
        <time>2021-08-12T09:06:57Z</time>
      </trkpt>
      <trkpt lat="45.50588" lon="6.73819">
        <ele>2071.6</ele>
        <time>2021-08-12T09:06:58Z</time>
      </trkpt>
      <trkpt lat="45.50588" lon="6.73819">
        <ele>2071.7</ele>
        <time>2021-08-12T09:06:59Z</time>
      </trkpt>
      <trkpt lat="45.50588" lon="6.7382">
        <ele>2071.8</ele>
        <time>2021-08-12T09:07:00Z</time>
      </trkpt>
      <trkpt lat="45.50587" lon="6.7382">
        <ele>2071.9</ele>
        <time>2021-08-12T09:07:01Z</time>
      </trkpt>
      <trkpt lat="45.50587" lon="6.73821">
        <ele>2072</ele>
        <time>2021-08-12T09:07:02Z</time>
      </trkpt>
      <trkpt lat="45.50587" lon="6.73821">
        <ele>2072.1</ele>
        <time>2021-08-12T09:07:03Z</time>
      </trkpt>
      <trkpt lat="45.50587" lon="6.73822">
        <ele>2072.2</ele>
        <time>2021-08-12T09:07:04Z</time>
      </trkpt>
      <trkpt lat="45.50587" lon="6.73822">
        <ele>2072.3</ele>
        <time>2021-08-12T09:07:05Z</time>
      </trkpt>
      <trkpt lat="45.50586" lon="6.73823">
        <ele>2072.4</ele>
        <time>2021-08-12T09:07:06Z</time>
      </trkpt>
      <trkpt lat="45.50586" lon="6.73824">
        <ele>2072.6</ele>
        <time>2021-08-12T09:07:07Z</time>
      </trkpt>
      <trkpt lat="45.50586" lon="6.73825">
        <ele>2072.7</ele>
        <time>2021-08-12T09:07:08Z</time>
      </trkpt>
      <trkpt lat="45.50586" lon="6.73826">
        <ele>2072.9</ele>
        <time>2021-08-12T09:07:09Z</time>
      </trkpt>
      <trkpt lat="45.50586" lon="6.73826">
        <ele>2073</ele>
        <time>2021-08-12T09:07:10Z</time>
      </trkpt>
      <trkpt lat="45.50586" lon="6.73827">
        <ele>2073.2</ele>
        <time>2021-08-12T09:07:11Z</time>
      </trkpt>
      <trkpt lat="45.50586" lon="6.73828">
        <ele>2073.3</ele>
        <time>2021-08-12T09:07:12Z</time>
      </trkpt>
      <trkpt lat="45.50586" lon="6.73829">
        <ele>2073.5</ele>
        <time>2021-08-12T09:07:13Z</time>
      </trkpt>
      <trkpt lat="45.50586" lon="6.7383">
        <ele>2073.6</ele>
        <time>2021-08-12T09:07:14Z</time>
      </trkpt>
      <trkpt lat="45.50586" lon="6.73831">
        <ele>2073.8</ele>
        <time>2021-08-12T09:07:15Z</time>
      </trkpt>
      <trkpt lat="45.50586" lon="6.73832">
        <ele>2073.9</ele>
        <time>2021-08-12T09:07:16Z</time>
      </trkpt>
      <trkpt lat="45.50586" lon="6.73833">
        <ele>2074.1</ele>
        <time>2021-08-12T09:07:17Z</time>
      </trkpt>
      <trkpt lat="45.50586" lon="6.73834">
        <ele>2074.2</ele>
        <time>2021-08-12T09:07:18Z</time>
      </trkpt>
      <trkpt lat="45.50586" lon="6.73834">
        <ele>2074.4</ele>
        <time>2021-08-12T09:07:19Z</time>
      </trkpt>
      <trkpt lat="45.50586" lon="6.73835">
        <ele>2074.5</ele>
        <time>2021-08-12T09:07:20Z</time>
      </trkpt>
      <trkpt lat="45.50586" lon="6.73836">
        <ele>2074.6</ele>
        <time>2021-08-12T09:07:21Z</time>
      </trkpt>
      <trkpt lat="45.50586" lon="6.73837">
        <ele>2074.8</ele>
        <time>2021-08-12T09:07:22Z</time>
      </trkpt>
      <trkpt lat="45.50586" lon="6.73838">
        <ele>2074.9</ele>
        <time>2021-08-12T09:07:23Z</time>
      </trkpt>
      <trkpt lat="45.50586" lon="6.73838">
        <ele>2075</ele>
        <time>2021-08-12T09:07:24Z</time>
      </trkpt>
      <trkpt lat="45.50586" lon="6.73839">
        <ele>2075.1</ele>
        <time>2021-08-12T09:07:25Z</time>
      </trkpt>
      <trkpt lat="45.50585" lon="6.7384">
        <ele>2075.3</ele>
        <time>2021-08-12T09:07:26Z</time>
      </trkpt>
      <trkpt lat="45.50585" lon="6.7384">
        <ele>2075.4</ele>
        <time>2021-08-12T09:07:27Z</time>
      </trkpt>
      <trkpt lat="45.50585" lon="6.73841">
        <ele>2075.5</ele>
        <time>2021-08-12T09:07:28Z</time>
      </trkpt>
      <trkpt lat="45.50585" lon="6.73841">
        <ele>2075.6</ele>
        <time>2021-08-12T09:07:29Z</time>
      </trkpt>
      <trkpt lat="45.50584" lon="6.73842">
        <ele>2075.8</ele>
        <time>2021-08-12T09:07:30Z</time>
      </trkpt>
      <trkpt lat="45.50584" lon="6.73842">
        <ele>2075.9</ele>
        <time>2021-08-12T09:07:31Z</time>
      </trkpt>
      <trkpt lat="45.50584" lon="6.73843">
        <ele>2075.9</ele>
        <time>2021-08-12T09:07:32Z</time>
      </trkpt>
      <trkpt lat="45.50584" lon="6.73843">
        <ele>2076.1</ele>
        <time>2021-08-12T09:07:33Z</time>
      </trkpt>
      <trkpt lat="45.50583" lon="6.73843">
        <ele>2076.1</ele>
        <time>2021-08-12T09:07:34Z</time>
      </trkpt>
      <trkpt lat="45.50583" lon="6.73844">
        <ele>2076.2</ele>
        <time>2021-08-12T09:07:35Z</time>
      </trkpt>
      <trkpt lat="45.50583" lon="6.73844">
        <ele>2076.3</ele>
        <time>2021-08-12T09:07:36Z</time>
      </trkpt>
      <trkpt lat="45.50583" lon="6.73844">
        <ele>2076.4</ele>
        <time>2021-08-12T09:07:37Z</time>
      </trkpt>
      <trkpt lat="45.50583" lon="6.73845">
        <ele>2076.5</ele>
        <time>2021-08-12T09:07:38Z</time>
      </trkpt>
      <trkpt lat="45.50582" lon="6.73845">
        <ele>2076.5</ele>
        <time>2021-08-12T09:07:39Z</time>
      </trkpt>
      <trkpt lat="45.50582" lon="6.73845">
        <ele>2076.6</ele>
        <time>2021-08-12T09:07:40Z</time>
      </trkpt>
      <trkpt lat="45.50582" lon="6.73845">
        <ele>2076.6</ele>
        <time>2021-08-12T09:07:41Z</time>
      </trkpt>
      <trkpt lat="45.50582" lon="6.73846">
        <ele>2076.7</ele>
        <time>2021-08-12T09:07:42Z</time>
      </trkpt>
      <trkpt lat="45.50582" lon="6.73846">
        <ele>2076.7</ele>
        <time>2021-08-12T09:07:43Z</time>
      </trkpt>
      <trkpt lat="45.50582" lon="6.73846">
        <ele>2076.8</ele>
        <time>2021-08-12T09:07:44Z</time>
      </trkpt>
      <trkpt lat="45.50582" lon="6.73846">
        <ele>2076.8</ele>
        <time>2021-08-12T09:07:45Z</time>
      </trkpt>
      <trkpt lat="45.50582" lon="6.73846">
        <ele>2076.8</ele>
        <time>2021-08-12T09:07:46Z</time>
      </trkpt>
      <trkpt lat="45.50581" lon="6.73846">
        <ele>2076.8</ele>
        <time>2021-08-12T09:07:47Z</time>
      </trkpt>
      <trkpt lat="45.50581" lon="6.73846">
        <ele>2076.9</ele>
        <time>2021-08-12T09:07:48Z</time>
      </trkpt>
      <trkpt lat="45.50581" lon="6.73846">
        <ele>2076.9</ele>
        <time>2021-08-12T09:07:49Z</time>
      </trkpt>
      <trkpt lat="45.50581" lon="6.73846">
        <ele>2076.9</ele>
        <time>2021-08-12T09:07:50Z</time>
      </trkpt>
      <trkpt lat="45.50581" lon="6.73846">
        <ele>2076.9</ele>
        <time>2021-08-12T09:07:51Z</time>
      </trkpt>
      <trkpt lat="45.50581" lon="6.73846">
        <ele>2076.9</ele>
        <time>2021-08-12T09:07:52Z</time>
      </trkpt>
      <trkpt lat="45.50581" lon="6.73846">
        <ele>2076.9</ele>
        <time>2021-08-12T09:07:53Z</time>
      </trkpt>
      <trkpt lat="45.50581" lon="6.73846">
        <ele>2076.9</ele>
        <time>2021-08-12T09:07:54Z</time>
      </trkpt>
      <trkpt lat="45.50581" lon="6.73846">
        <ele>2076.9</ele>
        <time>2021-08-12T09:07:55Z</time>
      </trkpt>
      <trkpt lat="45.50581" lon="6.73846">
        <ele>2076.9</ele>
        <time>2021-08-12T09:07:56Z</time>
      </trkpt>
      <trkpt lat="45.50582" lon="6.73846">
        <ele>2076.9</ele>
        <time>2021-08-12T09:07:57Z</time>
      </trkpt>
      <trkpt lat="45.50582" lon="6.73846">
        <ele>2076.9</ele>
        <time>2021-08-12T09:07:58Z</time>
      </trkpt>
      <trkpt lat="45.50582" lon="6.73846">
        <ele>2076.9</ele>
        <time>2021-08-12T09:07:59Z</time>
      </trkpt>
      <trkpt lat="45.50582" lon="6.73846">
        <ele>2076.9</ele>
        <time>2021-08-12T09:08:00Z</time>
      </trkpt>
      <trkpt lat="45.50582" lon="6.73846">
        <ele>2076.9</ele>
        <time>2021-08-12T09:08:01Z</time>
      </trkpt>
      <trkpt lat="45.50582" lon="6.73846">
        <ele>2077</ele>
        <time>2021-08-12T09:08:02Z</time>
      </trkpt>
      <trkpt lat="45.50582" lon="6.73846">
        <ele>2077</ele>
        <time>2021-08-12T09:08:03Z</time>
      </trkpt>
      <trkpt lat="45.50582" lon="6.73846">
        <ele>2077</ele>
        <time>2021-08-12T09:08:04Z</time>
      </trkpt>
      <trkpt lat="45.50582" lon="6.73846">
        <ele>2077</ele>
        <time>2021-08-12T09:08:05Z</time>
      </trkpt>
      <trkpt lat="45.50582" lon="6.73846">
        <ele>2077</ele>
        <time>2021-08-12T09:08:06Z</time>
      </trkpt>
      <trkpt lat="45.50582" lon="6.73846">
        <ele>2077</ele>
        <time>2021-08-12T09:08:07Z</time>
      </trkpt>
      <trkpt lat="45.50582" lon="6.73846">
        <ele>2077</ele>
        <time>2021-08-12T09:08:08Z</time>
      </trkpt>
      <trkpt lat="45.50582" lon="6.73846">
        <ele>2077</ele>
        <time>2021-08-12T09:08:09Z</time>
      </trkpt>
      <trkpt lat="45.50582" lon="6.73846">
        <ele>2077</ele>
        <time>2021-08-12T09:08:10Z</time>
      </trkpt>
      <trkpt lat="45.50582" lon="6.73846">
        <ele>2077</ele>
        <time>2021-08-12T09:08:11Z</time>
      </trkpt>
      <trkpt lat="45.50582" lon="6.73846">
        <ele>2077</ele>
        <time>2021-08-12T09:08:12Z</time>
      </trkpt>
      <trkpt lat="45.50582" lon="6.73846">
        <ele>2077</ele>
        <time>2021-08-12T09:08:13Z</time>
      </trkpt>
      <trkpt lat="45.50582" lon="6.73846">
        <ele>2077</ele>
        <time>2021-08-12T09:08:14Z</time>
      </trkpt>
      <trkpt lat="45.50582" lon="6.73846">
        <ele>2077</ele>
        <time>2021-08-12T09:08:15Z</time>
      </trkpt>
      <trkpt lat="45.50582" lon="6.73846">
        <ele>2077</ele>
        <time>2021-08-12T09:08:16Z</time>
      </trkpt>
      <trkpt lat="45.50582" lon="6.73846">
        <ele>2077</ele>
        <time>2021-08-12T09:08:17Z</time>
      </trkpt>
      <trkpt lat="45.50582" lon="6.73846">
        <ele>2077</ele>
        <time>2021-08-12T09:08:18Z</time>
      </trkpt>
      <trkpt lat="45.50582" lon="6.73846">
        <ele>2077</ele>
        <time>2021-08-12T09:08:19Z</time>
      </trkpt>
      <trkpt lat="45.50582" lon="6.73846">
        <ele>2077</ele>
        <time>2021-08-12T09:08:20Z</time>
      </trkpt>
      <trkpt lat="45.50582" lon="6.73846">
        <ele>2077</ele>
        <time>2021-08-12T09:08:21Z</time>
      </trkpt>
      <trkpt lat="45.50582" lon="6.73846">
        <ele>2077</ele>
        <time>2021-08-12T09:08:22Z</time>
      </trkpt>
      <trkpt lat="45.50582" lon="6.73846">
        <ele>2077</ele>
        <time>2021-08-12T09:08:23Z</time>
      </trkpt>
      <trkpt lat="45.50582" lon="6.73846">
        <ele>2077</ele>
        <time>2021-08-12T09:08:24Z</time>
      </trkpt>
      <trkpt lat="45.50582" lon="6.73846">
        <ele>2077</ele>
        <time>2021-08-12T09:08:25Z</time>
      </trkpt>
      <trkpt lat="45.50582" lon="6.73846">
        <ele>2077</ele>
        <time>2021-08-12T09:08:26Z</time>
      </trkpt>
      <trkpt lat="45.50582" lon="6.73846">
        <ele>2077</ele>
        <time>2021-08-12T09:08:27Z</time>
      </trkpt>
      <trkpt lat="45.50582" lon="6.73846">
        <ele>2077</ele>
        <time>2021-08-12T09:08:28Z</time>
      </trkpt>
      <trkpt lat="45.50582" lon="6.73846">
        <ele>2077</ele>
        <time>2021-08-12T09:08:29Z</time>
      </trkpt>
      <trkpt lat="45.50582" lon="6.73846">
        <ele>2077</ele>
        <time>2021-08-12T09:08:30Z</time>
      </trkpt>
      <trkpt lat="45.50582" lon="6.73846">
        <ele>2077</ele>
        <time>2021-08-12T09:08:31Z</time>
      </trkpt>
      <trkpt lat="45.50582" lon="6.73846">
        <ele>2077</ele>
        <time>2021-08-12T09:08:32Z</time>
      </trkpt>
      <trkpt lat="45.50582" lon="6.73846">
        <ele>2077</ele>
        <time>2021-08-12T09:08:33Z</time>
      </trkpt>
      <trkpt lat="45.50582" lon="6.73846">
        <ele>2077</ele>
        <time>2021-08-12T09:08:34Z</time>
      </trkpt>
      <trkpt lat="45.50582" lon="6.73846">
        <ele>2077</ele>
        <time>2021-08-12T09:08:35Z</time>
      </trkpt>
      <trkpt lat="45.50582" lon="6.73846">
        <ele>2077</ele>
        <time>2021-08-12T09:08:36Z</time>
      </trkpt>
      <trkpt lat="45.50582" lon="6.73846">
        <ele>2077</ele>
        <time>2021-08-12T09:08:37Z</time>
      </trkpt>
      <trkpt lat="45.50582" lon="6.73846">
        <ele>2077</ele>
        <time>2021-08-12T09:08:38Z</time>
      </trkpt>
      <trkpt lat="45.50582" lon="6.73846">
        <ele>2077</ele>
        <time>2021-08-12T09:08:39Z</time>
      </trkpt>
      <trkpt lat="45.50582" lon="6.73846">
        <ele>2077</ele>
        <time>2021-08-12T09:08:40Z</time>
      </trkpt>
      <trkpt lat="45.50582" lon="6.73846">
        <ele>2077</ele>
        <time>2021-08-12T09:08:41Z</time>
      </trkpt>
      <trkpt lat="45.50582" lon="6.73846">
        <ele>2077</ele>
        <time>2021-08-12T09:08:42Z</time>
      </trkpt>
      <trkpt lat="45.50582" lon="6.73846">
        <ele>2077</ele>
        <time>2021-08-12T09:08:43Z</time>
      </trkpt>
      <trkpt lat="45.50582" lon="6.73846">
        <ele>2077</ele>
        <time>2021-08-12T09:08:44Z</time>
      </trkpt>
      <trkpt lat="45.50582" lon="6.73846">
        <ele>2077</ele>
        <time>2021-08-12T09:08:45Z</time>
      </trkpt>
      <trkpt lat="45.50582" lon="6.73846">
        <ele>2077.1</ele>
        <time>2021-08-12T09:08:46Z</time>
      </trkpt>
      <trkpt lat="45.50581" lon="6.73846">
        <ele>2077.1</ele>
        <time>2021-08-12T09:08:47Z</time>
      </trkpt>
      <trkpt lat="45.50581" lon="6.73846">
        <ele>2077.1</ele>
        <time>2021-08-12T09:08:48Z</time>
      </trkpt>
      <trkpt lat="45.50581" lon="6.73846">
        <ele>2077.2</ele>
        <time>2021-08-12T09:08:49Z</time>
      </trkpt>
      <trkpt lat="45.50581" lon="6.73846">
        <ele>2077.2</ele>
        <time>2021-08-12T09:08:50Z</time>
      </trkpt>
      <trkpt lat="45.50581" lon="6.73847">
        <ele>2077.3</ele>
        <time>2021-08-12T09:08:51Z</time>
      </trkpt>
      <trkpt lat="45.50581" lon="6.73847">
        <ele>2077.3</ele>
        <time>2021-08-12T09:08:52Z</time>
      </trkpt>
      <trkpt lat="45.5058" lon="6.73847">
        <ele>2077.4</ele>
        <time>2021-08-12T09:08:53Z</time>
      </trkpt>
      <trkpt lat="45.5058" lon="6.73847">
        <ele>2077.5</ele>
        <time>2021-08-12T09:08:54Z</time>
      </trkpt>
      <trkpt lat="45.5058" lon="6.73848">
        <ele>2077.6</ele>
        <time>2021-08-12T09:08:55Z</time>
      </trkpt>
      <trkpt lat="45.50579" lon="6.73848">
        <ele>2077.7</ele>
        <time>2021-08-12T09:08:56Z</time>
      </trkpt>
      <trkpt lat="45.50579" lon="6.73848">
        <ele>2077.8</ele>
        <time>2021-08-12T09:08:57Z</time>
      </trkpt>
      <trkpt lat="45.50579" lon="6.73848">
        <ele>2077.9</ele>
        <time>2021-08-12T09:08:58Z</time>
      </trkpt>
      <trkpt lat="45.50578" lon="6.73848">
        <ele>2078</ele>
        <time>2021-08-12T09:08:59Z</time>
      </trkpt>
      <trkpt lat="45.50578" lon="6.73848">
        <ele>2078.1</ele>
        <time>2021-08-12T09:09:00Z</time>
      </trkpt>
      <trkpt lat="45.50578" lon="6.73848">
        <ele>2078.2</ele>
        <time>2021-08-12T09:09:01Z</time>
      </trkpt>
      <trkpt lat="45.50577" lon="6.73848">
        <ele>2078.3</ele>
        <time>2021-08-12T09:09:02Z</time>
      </trkpt>
      <trkpt lat="45.50577" lon="6.73849">
        <ele>2078.4</ele>
        <time>2021-08-12T09:09:03Z</time>
      </trkpt>
      <trkpt lat="45.50576" lon="6.73849">
        <ele>2078.6</ele>
        <time>2021-08-12T09:09:04Z</time>
      </trkpt>
      <trkpt lat="45.50576" lon="6.73849">
        <ele>2078.6</ele>
        <time>2021-08-12T09:09:05Z</time>
      </trkpt>
      <trkpt lat="45.50576" lon="6.73848">
        <ele>2078.7</ele>
        <time>2021-08-12T09:09:06Z</time>
      </trkpt>
      <trkpt lat="45.50576" lon="6.73848">
        <ele>2078.8</ele>
        <time>2021-08-12T09:09:07Z</time>
      </trkpt>
      <trkpt lat="45.50575" lon="6.73848">
        <ele>2078.8</ele>
        <time>2021-08-12T09:09:08Z</time>
      </trkpt>
      <trkpt lat="45.50575" lon="6.73848">
        <ele>2078.9</ele>
        <time>2021-08-12T09:09:09Z</time>
      </trkpt>
      <trkpt lat="45.50575" lon="6.73848">
        <ele>2078.9</ele>
        <time>2021-08-12T09:09:10Z</time>
      </trkpt>
      <trkpt lat="45.50575" lon="6.73848">
        <ele>2078.9</ele>
        <time>2021-08-12T09:09:11Z</time>
      </trkpt>
      <trkpt lat="45.50575" lon="6.73848">
        <ele>2078.9</ele>
        <time>2021-08-12T09:09:12Z</time>
      </trkpt>
      <trkpt lat="45.50575" lon="6.73848">
        <ele>2078.9</ele>
        <time>2021-08-12T09:09:13Z</time>
      </trkpt>
      <trkpt lat="45.50575" lon="6.73848">
        <ele>2078.9</ele>
        <time>2021-08-12T09:09:14Z</time>
      </trkpt>
      <trkpt lat="45.50575" lon="6.73848">
        <ele>2078.9</ele>
        <time>2021-08-12T09:09:15Z</time>
      </trkpt>
      <trkpt lat="45.50575" lon="6.73848">
        <ele>2079</ele>
        <time>2021-08-12T09:09:16Z</time>
      </trkpt>
      <trkpt lat="45.50575" lon="6.73848">
        <ele>2079</ele>
        <time>2021-08-12T09:09:17Z</time>
      </trkpt>
      <trkpt lat="45.50575" lon="6.73848">
        <ele>2079</ele>
        <time>2021-08-12T09:09:18Z</time>
      </trkpt>
      <trkpt lat="45.50575" lon="6.73848">
        <ele>2079</ele>
        <time>2021-08-12T09:09:19Z</time>
      </trkpt>
      <trkpt lat="45.50575" lon="6.73848">
        <ele>2079</ele>
        <time>2021-08-12T09:09:20Z</time>
      </trkpt>
      <trkpt lat="45.50575" lon="6.73848">
        <ele>2079</ele>
        <time>2021-08-12T09:09:21Z</time>
      </trkpt>
      <trkpt lat="45.50575" lon="6.73848">
        <ele>2079</ele>
        <time>2021-08-12T09:09:22Z</time>
      </trkpt>
      <trkpt lat="45.50575" lon="6.73848">
        <ele>2079</ele>
        <time>2021-08-12T09:09:23Z</time>
      </trkpt>
      <trkpt lat="45.50575" lon="6.73848">
        <ele>2079</ele>
        <time>2021-08-12T09:09:24Z</time>
      </trkpt>
      <trkpt lat="45.50575" lon="6.73848">
        <ele>2079</ele>
        <time>2021-08-12T09:09:25Z</time>
      </trkpt>
      <trkpt lat="45.50575" lon="6.73848">
        <ele>2079</ele>
        <time>2021-08-12T09:09:26Z</time>
      </trkpt>
      <trkpt lat="45.50575" lon="6.73848">
        <ele>2079</ele>
        <time>2021-08-12T09:09:27Z</time>
      </trkpt>
      <trkpt lat="45.50575" lon="6.73848">
        <ele>2079</ele>
        <time>2021-08-12T09:09:28Z</time>
      </trkpt>
      <trkpt lat="45.50575" lon="6.73848">
        <ele>2079.1</ele>
        <time>2021-08-12T09:09:29Z</time>
      </trkpt>
      <trkpt lat="45.50575" lon="6.73848">
        <ele>2079.1</ele>
        <time>2021-08-12T09:09:30Z</time>
      </trkpt>
      <trkpt lat="45.50574" lon="6.73847">
        <ele>2079.3</ele>
        <time>2021-08-12T09:09:31Z</time>
      </trkpt>
      <trkpt lat="45.50574" lon="6.73846">
        <ele>2079.7</ele>
        <time>2021-08-12T09:09:32Z</time>
      </trkpt>
      <trkpt lat="45.50573" lon="6.73844">
        <ele>2080.1</ele>
        <time>2021-08-12T09:09:33Z</time>
      </trkpt>
      <trkpt lat="45.50572" lon="6.73843">
        <ele>2080.3</ele>
        <time>2021-08-12T09:09:34Z</time>
      </trkpt>
      <trkpt lat="45.50572" lon="6.73843">
        <ele>2080.5</ele>
        <time>2021-08-12T09:09:35Z</time>
      </trkpt>
      <trkpt lat="45.50571" lon="6.73842">
        <ele>2080.5</ele>
        <time>2021-08-12T09:09:36Z</time>
      </trkpt>
      <trkpt lat="45.50571" lon="6.73842">
        <ele>2080.6</ele>
        <time>2021-08-12T09:09:37Z</time>
      </trkpt>
      <trkpt lat="45.50571" lon="6.73842">
        <ele>2080.6</ele>
        <time>2021-08-12T09:09:38Z</time>
      </trkpt>
      <trkpt lat="45.50571" lon="6.73842">
        <ele>2080.6</ele>
        <time>2021-08-12T09:09:39Z</time>
      </trkpt>
      <trkpt lat="45.50571" lon="6.73842">
        <ele>2080.6</ele>
        <time>2021-08-12T09:09:40Z</time>
      </trkpt>
      <trkpt lat="45.50571" lon="6.73842">
        <ele>2080.6</ele>
        <time>2021-08-12T09:09:41Z</time>
      </trkpt>
      <trkpt lat="45.50571" lon="6.73842">
        <ele>2080.7</ele>
        <time>2021-08-12T09:09:42Z</time>
      </trkpt>
      <trkpt lat="45.50571" lon="6.73842">
        <ele>2080.7</ele>
        <time>2021-08-12T09:09:43Z</time>
      </trkpt>
      <trkpt lat="45.50571" lon="6.73842">
        <ele>2080.7</ele>
        <time>2021-08-12T09:09:44Z</time>
      </trkpt>
      <trkpt lat="45.50571" lon="6.73842">
        <ele>2080.7</ele>
        <time>2021-08-12T09:09:45Z</time>
      </trkpt>
      <trkpt lat="45.50571" lon="6.73842">
        <ele>2080.7</ele>
        <time>2021-08-12T09:09:46Z</time>
      </trkpt>
      <trkpt lat="45.50571" lon="6.73842">
        <ele>2080.7</ele>
        <time>2021-08-12T09:09:47Z</time>
      </trkpt>
      <trkpt lat="45.50571" lon="6.73842">
        <ele>2080.7</ele>
        <time>2021-08-12T09:09:48Z</time>
      </trkpt>
      <trkpt lat="45.50571" lon="6.73842">
        <ele>2080.7</ele>
        <time>2021-08-12T09:09:49Z</time>
      </trkpt>
      <trkpt lat="45.50571" lon="6.73842">
        <ele>2080.7</ele>
        <time>2021-08-12T09:09:50Z</time>
      </trkpt>
      <trkpt lat="45.50571" lon="6.73842">
        <ele>2080.7</ele>
        <time>2021-08-12T09:09:51Z</time>
      </trkpt>
      <trkpt lat="45.50571" lon="6.73842">
        <ele>2080.7</ele>
        <time>2021-08-12T09:09:52Z</time>
      </trkpt>
      <trkpt lat="45.50571" lon="6.73842">
        <ele>2080.7</ele>
        <time>2021-08-12T09:09:53Z</time>
      </trkpt>
      <trkpt lat="45.50571" lon="6.73842">
        <ele>2080.7</ele>
        <time>2021-08-12T09:09:54Z</time>
      </trkpt>
      <trkpt lat="45.50571" lon="6.73842">
        <ele>2080.7</ele>
        <time>2021-08-12T09:09:55Z</time>
      </trkpt>
      <trkpt lat="45.50571" lon="6.73842">
        <ele>2080.7</ele>
        <time>2021-08-12T09:09:56Z</time>
      </trkpt>
      <trkpt lat="45.50571" lon="6.73842">
        <ele>2080.7</ele>
        <time>2021-08-12T09:09:57Z</time>
      </trkpt>
      <trkpt lat="45.50571" lon="6.73842">
        <ele>2080.7</ele>
        <time>2021-08-12T09:09:58Z</time>
      </trkpt>
      <trkpt lat="45.50571" lon="6.73842">
        <ele>2080.7</ele>
        <time>2021-08-12T09:09:59Z</time>
      </trkpt>
      <trkpt lat="45.50571" lon="6.73842">
        <ele>2080.7</ele>
        <time>2021-08-12T09:10:00Z</time>
      </trkpt>
      <trkpt lat="45.50571" lon="6.73842">
        <ele>2080.7</ele>
        <time>2021-08-12T09:10:01Z</time>
      </trkpt>
      <trkpt lat="45.50571" lon="6.73842">
        <ele>2080.7</ele>
        <time>2021-08-12T09:10:02Z</time>
      </trkpt>
      <trkpt lat="45.50571" lon="6.73842">
        <ele>2080.7</ele>
        <time>2021-08-12T09:10:03Z</time>
      </trkpt>
      <trkpt lat="45.50571" lon="6.73842">
        <ele>2080.7</ele>
        <time>2021-08-12T09:10:04Z</time>
      </trkpt>
      <trkpt lat="45.50571" lon="6.73842">
        <ele>2080.7</ele>
        <time>2021-08-12T09:10:05Z</time>
      </trkpt>
      <trkpt lat="45.50571" lon="6.73842">
        <ele>2080.7</ele>
        <time>2021-08-12T09:10:06Z</time>
      </trkpt>
      <trkpt lat="45.50571" lon="6.73842">
        <ele>2080.7</ele>
        <time>2021-08-12T09:10:07Z</time>
      </trkpt>
      <trkpt lat="45.50571" lon="6.73842">
        <ele>2080.7</ele>
        <time>2021-08-12T09:10:08Z</time>
      </trkpt>
      <trkpt lat="45.50571" lon="6.73842">
        <ele>2080.7</ele>
        <time>2021-08-12T09:10:09Z</time>
      </trkpt>
      <trkpt lat="45.50571" lon="6.73842">
        <ele>2080.7</ele>
        <time>2021-08-12T09:10:10Z</time>
      </trkpt>
      <trkpt lat="45.50571" lon="6.73842">
        <ele>2080.7</ele>
        <time>2021-08-12T09:10:11Z</time>
      </trkpt>
      <trkpt lat="45.50571" lon="6.73842">
        <ele>2080.7</ele>
        <time>2021-08-12T09:10:12Z</time>
      </trkpt>
      <trkpt lat="45.50571" lon="6.73842">
        <ele>2080.7</ele>
        <time>2021-08-12T09:10:13Z</time>
      </trkpt>
      <trkpt lat="45.50571" lon="6.73842">
        <ele>2080.7</ele>
        <time>2021-08-12T09:10:14Z</time>
      </trkpt>
      <trkpt lat="45.50571" lon="6.73842">
        <ele>2080.7</ele>
        <time>2021-08-12T09:10:15Z</time>
      </trkpt>
      <trkpt lat="45.50571" lon="6.73842">
        <ele>2080.7</ele>
        <time>2021-08-12T09:10:16Z</time>
      </trkpt>
      <trkpt lat="45.50571" lon="6.73842">
        <ele>2080.7</ele>
        <time>2021-08-12T09:10:17Z</time>
      </trkpt>
      <trkpt lat="45.50571" lon="6.73842">
        <ele>2080.7</ele>
        <time>2021-08-12T09:10:18Z</time>
      </trkpt>
      <trkpt lat="45.50571" lon="6.73842">
        <ele>2080.7</ele>
        <time>2021-08-12T09:10:19Z</time>
      </trkpt>
      <trkpt lat="45.50571" lon="6.73842">
        <ele>2080.7</ele>
        <time>2021-08-12T09:10:20Z</time>
      </trkpt>
      <trkpt lat="45.50571" lon="6.73842">
        <ele>2080.7</ele>
        <time>2021-08-12T09:10:21Z</time>
      </trkpt>
      <trkpt lat="45.50571" lon="6.73842">
        <ele>2080.7</ele>
        <time>2021-08-12T09:10:22Z</time>
      </trkpt>
      <trkpt lat="45.50571" lon="6.73842">
        <ele>2080.8</ele>
        <time>2021-08-12T09:10:23Z</time>
      </trkpt>
      <trkpt lat="45.50571" lon="6.73841">
        <ele>2080.9</ele>
        <time>2021-08-12T09:10:24Z</time>
      </trkpt>
      <trkpt lat="45.5057" lon="6.7384">
        <ele>2081.1</ele>
        <time>2021-08-12T09:10:25Z</time>
      </trkpt>
      <trkpt lat="45.5057" lon="6.73839">
        <ele>2081.3</ele>
        <time>2021-08-12T09:10:26Z</time>
      </trkpt>
      <trkpt lat="45.50569" lon="6.73839">
        <ele>2081.5</ele>
        <time>2021-08-12T09:10:27Z</time>
      </trkpt>
      <trkpt lat="45.50568" lon="6.73838">
        <ele>2081.8</ele>
        <time>2021-08-12T09:10:28Z</time>
      </trkpt>
      <trkpt lat="45.50568" lon="6.73837">
        <ele>2082</ele>
        <time>2021-08-12T09:10:29Z</time>
      </trkpt>
      <trkpt lat="45.50567" lon="6.73836">
        <ele>2082.3</ele>
        <time>2021-08-12T09:10:30Z</time>
      </trkpt>
      <trkpt lat="45.50566" lon="6.73836">
        <ele>2082.6</ele>
        <time>2021-08-12T09:10:31Z</time>
      </trkpt>
      <trkpt lat="45.50565" lon="6.73835">
        <ele>2082.8</ele>
        <time>2021-08-12T09:10:32Z</time>
      </trkpt>
      <trkpt lat="45.50565" lon="6.73834">
        <ele>2083.1</ele>
        <time>2021-08-12T09:10:33Z</time>
      </trkpt>
      <trkpt lat="45.50563" lon="6.73833">
        <ele>2083.5</ele>
        <time>2021-08-12T09:10:34Z</time>
      </trkpt>
      <trkpt lat="45.50563" lon="6.73833">
        <ele>2083.6</ele>
        <time>2021-08-12T09:10:35Z</time>
      </trkpt>
      <trkpt lat="45.50563" lon="6.73833">
        <ele>2083.7</ele>
        <time>2021-08-12T09:10:36Z</time>
      </trkpt>
      <trkpt lat="45.50562" lon="6.73832">
        <ele>2083.9</ele>
        <time>2021-08-12T09:10:37Z</time>
      </trkpt>
      <trkpt lat="45.50562" lon="6.73832">
        <ele>2084</ele>
        <time>2021-08-12T09:10:38Z</time>
      </trkpt>
      <trkpt lat="45.50562" lon="6.73831">
        <ele>2084.1</ele>
        <time>2021-08-12T09:10:39Z</time>
      </trkpt>
      <trkpt lat="45.50561" lon="6.73831">
        <ele>2084.3</ele>
        <time>2021-08-12T09:10:40Z</time>
      </trkpt>
      <trkpt lat="45.50561" lon="6.73831">
        <ele>2084.3</ele>
        <time>2021-08-12T09:10:41Z</time>
      </trkpt>
      <trkpt lat="45.50561" lon="6.7383">
        <ele>2084.4</ele>
        <time>2021-08-12T09:10:42Z</time>
      </trkpt>
      <trkpt lat="45.50561" lon="6.7383">
        <ele>2084.5</ele>
        <time>2021-08-12T09:10:43Z</time>
      </trkpt>
      <trkpt lat="45.50561" lon="6.7383">
        <ele>2084.5</ele>
        <time>2021-08-12T09:10:44Z</time>
      </trkpt>
      <trkpt lat="45.5056" lon="6.7383">
        <ele>2084.6</ele>
        <time>2021-08-12T09:10:45Z</time>
      </trkpt>
      <trkpt lat="45.5056" lon="6.7383">
        <ele>2084.7</ele>
        <time>2021-08-12T09:10:46Z</time>
      </trkpt>
      <trkpt lat="45.5056" lon="6.73829">
        <ele>2084.7</ele>
        <time>2021-08-12T09:10:47Z</time>
      </trkpt>
      <trkpt lat="45.5056" lon="6.73829">
        <ele>2084.8</ele>
        <time>2021-08-12T09:10:48Z</time>
      </trkpt>
      <trkpt lat="45.5056" lon="6.73829">
        <ele>2084.9</ele>
        <time>2021-08-12T09:10:49Z</time>
      </trkpt>
      <trkpt lat="45.5056" lon="6.73829">
        <ele>2084.9</ele>
        <time>2021-08-12T09:10:50Z</time>
      </trkpt>
      <trkpt lat="45.50559" lon="6.73829">
        <ele>2085</ele>
        <time>2021-08-12T09:10:51Z</time>
      </trkpt>
      <trkpt lat="45.50559" lon="6.73829">
        <ele>2085.1</ele>
        <time>2021-08-12T09:10:52Z</time>
      </trkpt>
      <trkpt lat="45.50559" lon="6.73828">
        <ele>2085.1</ele>
        <time>2021-08-12T09:10:53Z</time>
      </trkpt>
      <trkpt lat="45.50559" lon="6.73828">
        <ele>2085.2</ele>
        <time>2021-08-12T09:10:54Z</time>
      </trkpt>
      <trkpt lat="45.50558" lon="6.73828">
        <ele>2085.3</ele>
        <time>2021-08-12T09:10:55Z</time>
      </trkpt>
      <trkpt lat="45.50558" lon="6.73828">
        <ele>2085.4</ele>
        <time>2021-08-12T09:10:56Z</time>
      </trkpt>
      <trkpt lat="45.50558" lon="6.73827">
        <ele>2085.5</ele>
        <time>2021-08-12T09:10:57Z</time>
      </trkpt>
      <trkpt lat="45.50558" lon="6.73827">
        <ele>2085.6</ele>
        <time>2021-08-12T09:10:58Z</time>
      </trkpt>
      <trkpt lat="45.50558" lon="6.73827">
        <ele>2085.6</ele>
        <time>2021-08-12T09:10:59Z</time>
      </trkpt>
      <trkpt lat="45.50557" lon="6.73826">
        <ele>2085.7</ele>
        <time>2021-08-12T09:11:00Z</time>
      </trkpt>
      <trkpt lat="45.50557" lon="6.73826">
        <ele>2085.8</ele>
        <time>2021-08-12T09:11:01Z</time>
      </trkpt>
      <trkpt lat="45.50557" lon="6.73826">
        <ele>2085.9</ele>
        <time>2021-08-12T09:11:02Z</time>
      </trkpt>
      <trkpt lat="45.50557" lon="6.73825">
        <ele>2086</ele>
        <time>2021-08-12T09:11:03Z</time>
      </trkpt>
      <trkpt lat="45.50557" lon="6.73825">
        <ele>2086.1</ele>
        <time>2021-08-12T09:11:04Z</time>
      </trkpt>
      <trkpt lat="45.50557" lon="6.73824">
        <ele>2086.2</ele>
        <time>2021-08-12T09:11:05Z</time>
      </trkpt>
      <trkpt lat="45.50556" lon="6.73824">
        <ele>2086.3</ele>
        <time>2021-08-12T09:11:06Z</time>
      </trkpt>
      <trkpt lat="45.50556" lon="6.73824">
        <ele>2086.4</ele>
        <time>2021-08-12T09:11:07Z</time>
      </trkpt>
      <trkpt lat="45.50556" lon="6.73823">
        <ele>2086.5</ele>
        <time>2021-08-12T09:11:08Z</time>
      </trkpt>
      <trkpt lat="45.50556" lon="6.73823">
        <ele>2086.5</ele>
        <time>2021-08-12T09:11:09Z</time>
      </trkpt>
      <trkpt lat="45.50556" lon="6.73823">
        <ele>2086.6</ele>
        <time>2021-08-12T09:11:10Z</time>
      </trkpt>
      <trkpt lat="45.50556" lon="6.73822">
        <ele>2086.7</ele>
        <time>2021-08-12T09:11:11Z</time>
      </trkpt>
      <trkpt lat="45.50556" lon="6.73822">
        <ele>2086.7</ele>
        <time>2021-08-12T09:11:12Z</time>
      </trkpt>
      <trkpt lat="45.50556" lon="6.73822">
        <ele>2086.8</ele>
        <time>2021-08-12T09:11:13Z</time>
      </trkpt>
      <trkpt lat="45.50556" lon="6.73822">
        <ele>2086.8</ele>
        <time>2021-08-12T09:11:14Z</time>
      </trkpt>
      <trkpt lat="45.50556" lon="6.73822">
        <ele>2086.8</ele>
        <time>2021-08-12T09:11:15Z</time>
      </trkpt>
      <trkpt lat="45.50556" lon="6.73821">
        <ele>2086.8</ele>
        <time>2021-08-12T09:11:16Z</time>
      </trkpt>
      <trkpt lat="45.50556" lon="6.73821">
        <ele>2086.9</ele>
        <time>2021-08-12T09:11:17Z</time>
      </trkpt>
      <trkpt lat="45.50556" lon="6.73821">
        <ele>2086.9</ele>
        <time>2021-08-12T09:11:18Z</time>
      </trkpt>
      <trkpt lat="45.50556" lon="6.73821">
        <ele>2086.9</ele>
        <time>2021-08-12T09:11:19Z</time>
      </trkpt>
      <trkpt lat="45.50556" lon="6.73821">
        <ele>2086.9</ele>
        <time>2021-08-12T09:11:20Z</time>
      </trkpt>
      <trkpt lat="45.50556" lon="6.73821">
        <ele>2086.9</ele>
        <time>2021-08-12T09:11:21Z</time>
      </trkpt>
      <trkpt lat="45.50556" lon="6.73821">
        <ele>2086.9</ele>
        <time>2021-08-12T09:11:22Z</time>
      </trkpt>
      <trkpt lat="45.50556" lon="6.73821">
        <ele>2086.9</ele>
        <time>2021-08-12T09:11:23Z</time>
      </trkpt>
      <trkpt lat="45.50556" lon="6.73821">
        <ele>2086.9</ele>
        <time>2021-08-12T09:11:24Z</time>
      </trkpt>
      <trkpt lat="45.50556" lon="6.73821">
        <ele>2086.9</ele>
        <time>2021-08-12T09:11:25Z</time>
      </trkpt>
      <trkpt lat="45.50556" lon="6.73821">
        <ele>2086.9</ele>
        <time>2021-08-12T09:11:26Z</time>
      </trkpt>
      <trkpt lat="45.50556" lon="6.73821">
        <ele>2086.9</ele>
        <time>2021-08-12T09:11:27Z</time>
      </trkpt>
      <trkpt lat="45.50556" lon="6.73821">
        <ele>2087</ele>
        <time>2021-08-12T09:11:28Z</time>
      </trkpt>
      <trkpt lat="45.50556" lon="6.73821">
        <ele>2087</ele>
        <time>2021-08-12T09:11:29Z</time>
      </trkpt>
      <trkpt lat="45.50556" lon="6.73821">
        <ele>2087</ele>
        <time>2021-08-12T09:11:30Z</time>
      </trkpt>
      <trkpt lat="45.50555" lon="6.73821">
        <ele>2087.1</ele>
        <time>2021-08-12T09:11:31Z</time>
      </trkpt>
      <trkpt lat="45.50555" lon="6.73821">
        <ele>2087.1</ele>
        <time>2021-08-12T09:11:32Z</time>
      </trkpt>
      <trkpt lat="45.50555" lon="6.7382">
        <ele>2087.2</ele>
        <time>2021-08-12T09:11:33Z</time>
      </trkpt>
      <trkpt lat="45.50555" lon="6.7382">
        <ele>2087.3</ele>
        <time>2021-08-12T09:11:34Z</time>
      </trkpt>
      <trkpt lat="45.50555" lon="6.7382">
        <ele>2087.4</ele>
        <time>2021-08-12T09:11:35Z</time>
      </trkpt>
      <trkpt lat="45.50554" lon="6.73819">
        <ele>2087.5</ele>
        <time>2021-08-12T09:11:36Z</time>
      </trkpt>
      <trkpt lat="45.50554" lon="6.73819">
        <ele>2087.6</ele>
        <time>2021-08-12T09:11:37Z</time>
      </trkpt>
      <trkpt lat="45.50554" lon="6.73819">
        <ele>2087.7</ele>
        <time>2021-08-12T09:11:38Z</time>
      </trkpt>
      <trkpt lat="45.50553" lon="6.73818">
        <ele>2087.8</ele>
        <time>2021-08-12T09:11:39Z</time>
      </trkpt>
      <trkpt lat="45.50553" lon="6.73818">
        <ele>2087.9</ele>
        <time>2021-08-12T09:11:40Z</time>
      </trkpt>
      <trkpt lat="45.50553" lon="6.73818">
        <ele>2088</ele>
        <time>2021-08-12T09:11:41Z</time>
      </trkpt>
      <trkpt lat="45.50552" lon="6.73818">
        <ele>2088.1</ele>
        <time>2021-08-12T09:11:42Z</time>
      </trkpt>
      <trkpt lat="45.50552" lon="6.73818">
        <ele>2088.2</ele>
        <time>2021-08-12T09:11:43Z</time>
      </trkpt>
      <trkpt lat="45.50551" lon="6.73818">
        <ele>2088.3</ele>
        <time>2021-08-12T09:11:44Z</time>
      </trkpt>
      <trkpt lat="45.50551" lon="6.73818">
        <ele>2088.5</ele>
        <time>2021-08-12T09:11:45Z</time>
      </trkpt>
      <trkpt lat="45.50551" lon="6.73819">
        <ele>2088.6</ele>
        <time>2021-08-12T09:11:46Z</time>
      </trkpt>
      <trkpt lat="45.5055" lon="6.73819">
        <ele>2088.7</ele>
        <time>2021-08-12T09:11:47Z</time>
      </trkpt>
      <trkpt lat="45.5055" lon="6.73819">
        <ele>2088.8</ele>
        <time>2021-08-12T09:11:48Z</time>
      </trkpt>
      <trkpt lat="45.5055" lon="6.7382">
        <ele>2089</ele>
        <time>2021-08-12T09:11:49Z</time>
      </trkpt>
      <trkpt lat="45.50549" lon="6.7382">
        <ele>2089.1</ele>
        <time>2021-08-12T09:11:50Z</time>
      </trkpt>
      <trkpt lat="45.50549" lon="6.73821">
        <ele>2089.2</ele>
        <time>2021-08-12T09:11:51Z</time>
      </trkpt>
      <trkpt lat="45.50549" lon="6.73822">
        <ele>2089.4</ele>
        <time>2021-08-12T09:11:52Z</time>
      </trkpt>
      <trkpt lat="45.50548" lon="6.73822">
        <ele>2089.5</ele>
        <time>2021-08-12T09:11:53Z</time>
      </trkpt>
      <trkpt lat="45.50548" lon="6.73823">
        <ele>2089.6</ele>
        <time>2021-08-12T09:11:54Z</time>
      </trkpt>
      <trkpt lat="45.50548" lon="6.73823">
        <ele>2089.7</ele>
        <time>2021-08-12T09:11:55Z</time>
      </trkpt>
      <trkpt lat="45.50548" lon="6.73824">
        <ele>2089.8</ele>
        <time>2021-08-12T09:11:56Z</time>
      </trkpt>
      <trkpt lat="45.50548" lon="6.73824">
        <ele>2089.9</ele>
        <time>2021-08-12T09:11:57Z</time>
      </trkpt>
      <trkpt lat="45.50548" lon="6.73824">
        <ele>2090</ele>
        <time>2021-08-12T09:11:58Z</time>
      </trkpt>
      <trkpt lat="45.50547" lon="6.73825">
        <ele>2090</ele>
        <time>2021-08-12T09:11:59Z</time>
      </trkpt>
      <trkpt lat="45.50547" lon="6.73825">
        <ele>2090.1</ele>
        <time>2021-08-12T09:12:00Z</time>
      </trkpt>
      <trkpt lat="45.50547" lon="6.73825">
        <ele>2090.2</ele>
        <time>2021-08-12T09:12:01Z</time>
      </trkpt>
      <trkpt lat="45.50547" lon="6.73825">
        <ele>2090.2</ele>
        <time>2021-08-12T09:12:02Z</time>
      </trkpt>
      <trkpt lat="45.50547" lon="6.73825">
        <ele>2090.2</ele>
        <time>2021-08-12T09:12:03Z</time>
      </trkpt>
      <trkpt lat="45.50547" lon="6.73825">
        <ele>2090.2</ele>
        <time>2021-08-12T09:12:04Z</time>
      </trkpt>
      <trkpt lat="45.50547" lon="6.73825">
        <ele>2090.2</ele>
        <time>2021-08-12T09:12:05Z</time>
      </trkpt>
      <trkpt lat="45.50547" lon="6.73825">
        <ele>2090.3</ele>
        <time>2021-08-12T09:12:06Z</time>
      </trkpt>
      <trkpt lat="45.50547" lon="6.73825">
        <ele>2090.3</ele>
        <time>2021-08-12T09:12:07Z</time>
      </trkpt>
      <trkpt lat="45.50548" lon="6.73825">
        <ele>2090.3</ele>
        <time>2021-08-12T09:12:08Z</time>
      </trkpt>
      <trkpt lat="45.50548" lon="6.73825">
        <ele>2090.4</ele>
        <time>2021-08-12T09:12:09Z</time>
      </trkpt>
      <trkpt lat="45.50548" lon="6.73825">
        <ele>2090.4</ele>
        <time>2021-08-12T09:12:10Z</time>
      </trkpt>
      <trkpt lat="45.50547" lon="6.73825">
        <ele>2090.4</ele>
        <time>2021-08-12T09:12:11Z</time>
      </trkpt>
      <trkpt lat="45.50547" lon="6.73825">
        <ele>2090.5</ele>
        <time>2021-08-12T09:12:12Z</time>
      </trkpt>
      <trkpt lat="45.50547" lon="6.73825">
        <ele>2090.5</ele>
        <time>2021-08-12T09:12:13Z</time>
      </trkpt>
      <trkpt lat="45.50547" lon="6.73826">
        <ele>2090.7</ele>
        <time>2021-08-12T09:12:14Z</time>
      </trkpt>
      <trkpt lat="45.50547" lon="6.73827">
        <ele>2090.8</ele>
        <time>2021-08-12T09:12:15Z</time>
      </trkpt>
      <trkpt lat="45.50547" lon="6.73827">
        <ele>2091</ele>
        <time>2021-08-12T09:12:16Z</time>
      </trkpt>
      <trkpt lat="45.50546" lon="6.73828">
        <ele>2091.2</ele>
        <time>2021-08-12T09:12:17Z</time>
      </trkpt>
      <trkpt lat="45.50546" lon="6.73829">
        <ele>2091.3</ele>
        <time>2021-08-12T09:12:18Z</time>
      </trkpt>
      <trkpt lat="45.50546" lon="6.7383">
        <ele>2091.5</ele>
        <time>2021-08-12T09:12:19Z</time>
      </trkpt>
      <trkpt lat="45.50545" lon="6.73831">
        <ele>2091.7</ele>
        <time>2021-08-12T09:12:20Z</time>
      </trkpt>
      <trkpt lat="45.50545" lon="6.73832">
        <ele>2091.9</ele>
        <time>2021-08-12T09:12:21Z</time>
      </trkpt>
      <trkpt lat="45.50545" lon="6.73833">
        <ele>2092</ele>
        <time>2021-08-12T09:12:22Z</time>
      </trkpt>
      <trkpt lat="45.50545" lon="6.73833">
        <ele>2092.1</ele>
        <time>2021-08-12T09:12:23Z</time>
      </trkpt>
      <trkpt lat="45.50544" lon="6.73834">
        <ele>2092.3</ele>
        <time>2021-08-12T09:12:24Z</time>
      </trkpt>
      <trkpt lat="45.50544" lon="6.73834">
        <ele>2092.4</ele>
        <time>2021-08-12T09:12:25Z</time>
      </trkpt>
      <trkpt lat="45.50544" lon="6.73835">
        <ele>2092.4</ele>
        <time>2021-08-12T09:12:26Z</time>
      </trkpt>
      <trkpt lat="45.50544" lon="6.73835">
        <ele>2092.5</ele>
        <time>2021-08-12T09:12:27Z</time>
      </trkpt>
      <trkpt lat="45.50544" lon="6.73835">
        <ele>2092.6</ele>
        <time>2021-08-12T09:12:28Z</time>
      </trkpt>
      <trkpt lat="45.50544" lon="6.73836">
        <ele>2092.6</ele>
        <time>2021-08-12T09:12:29Z</time>
      </trkpt>
      <trkpt lat="45.50543" lon="6.73836">
        <ele>2092.7</ele>
        <time>2021-08-12T09:12:30Z</time>
      </trkpt>
      <trkpt lat="45.50543" lon="6.73836">
        <ele>2092.8</ele>
        <time>2021-08-12T09:12:31Z</time>
      </trkpt>
      <trkpt lat="45.50543" lon="6.73836">
        <ele>2092.8</ele>
        <time>2021-08-12T09:12:32Z</time>
      </trkpt>
      <trkpt lat="45.50543" lon="6.73837">
        <ele>2092.9</ele>
        <time>2021-08-12T09:12:33Z</time>
      </trkpt>
      <trkpt lat="45.50543" lon="6.73837">
        <ele>2092.9</ele>
        <time>2021-08-12T09:12:34Z</time>
      </trkpt>
      <trkpt lat="45.50543" lon="6.73837">
        <ele>2093</ele>
        <time>2021-08-12T09:12:35Z</time>
      </trkpt>
      <trkpt lat="45.50542" lon="6.73837">
        <ele>2093</ele>
        <time>2021-08-12T09:12:36Z</time>
      </trkpt>
      <trkpt lat="45.50542" lon="6.73838">
        <ele>2093.1</ele>
        <time>2021-08-12T09:12:37Z</time>
      </trkpt>
      <trkpt lat="45.50542" lon="6.73838">
        <ele>2093.2</ele>
        <time>2021-08-12T09:12:38Z</time>
      </trkpt>
      <trkpt lat="45.50542" lon="6.73838">
        <ele>2093.2</ele>
        <time>2021-08-12T09:12:39Z</time>
      </trkpt>
      <trkpt lat="45.50542" lon="6.73838">
        <ele>2093.2</ele>
        <time>2021-08-12T09:12:40Z</time>
      </trkpt>
      <trkpt lat="45.50542" lon="6.73838">
        <ele>2093.3</ele>
        <time>2021-08-12T09:12:41Z</time>
      </trkpt>
      <trkpt lat="45.50542" lon="6.73838">
        <ele>2093.3</ele>
        <time>2021-08-12T09:12:42Z</time>
      </trkpt>
      <trkpt lat="45.50542" lon="6.73838">
        <ele>2093.3</ele>
        <time>2021-08-12T09:12:43Z</time>
      </trkpt>
      <trkpt lat="45.50542" lon="6.73838">
        <ele>2093.3</ele>
        <time>2021-08-12T09:12:44Z</time>
      </trkpt>
      <trkpt lat="45.50542" lon="6.73839">
        <ele>2093.3</ele>
        <time>2021-08-12T09:12:45Z</time>
      </trkpt>
      <trkpt lat="45.50542" lon="6.73839">
        <ele>2093.3</ele>
        <time>2021-08-12T09:12:46Z</time>
      </trkpt>
      <trkpt lat="45.50542" lon="6.73839">
        <ele>2093.3</ele>
        <time>2021-08-12T09:12:47Z</time>
      </trkpt>
      <trkpt lat="45.50542" lon="6.73839">
        <ele>2093.4</ele>
        <time>2021-08-12T09:12:48Z</time>
      </trkpt>
      <trkpt lat="45.50542" lon="6.73839">
        <ele>2093.4</ele>
        <time>2021-08-12T09:12:49Z</time>
      </trkpt>
      <trkpt lat="45.50541" lon="6.73839">
        <ele>2093.5</ele>
        <time>2021-08-12T09:12:50Z</time>
      </trkpt>
      <trkpt lat="45.50541" lon="6.73839">
        <ele>2093.5</ele>
        <time>2021-08-12T09:12:51Z</time>
      </trkpt>
      <trkpt lat="45.50541" lon="6.73839">
        <ele>2093.6</ele>
        <time>2021-08-12T09:12:52Z</time>
      </trkpt>
      <trkpt lat="45.5054" lon="6.7384">
        <ele>2093.7</ele>
        <time>2021-08-12T09:12:53Z</time>
      </trkpt>
      <trkpt lat="45.5054" lon="6.7384">
        <ele>2093.9</ele>
        <time>2021-08-12T09:12:54Z</time>
      </trkpt>
      <trkpt lat="45.5054" lon="6.73841">
        <ele>2094</ele>
        <time>2021-08-12T09:12:55Z</time>
      </trkpt>
      <trkpt lat="45.50539" lon="6.73841">
        <ele>2094.1</ele>
        <time>2021-08-12T09:12:56Z</time>
      </trkpt>
      <trkpt lat="45.50539" lon="6.73842">
        <ele>2094.3</ele>
        <time>2021-08-12T09:12:57Z</time>
      </trkpt>
      <trkpt lat="45.50538" lon="6.73842">
        <ele>2094.4</ele>
        <time>2021-08-12T09:12:58Z</time>
      </trkpt>
      <trkpt lat="45.50538" lon="6.73842">
        <ele>2094.5</ele>
        <time>2021-08-12T09:12:59Z</time>
      </trkpt>
      <trkpt lat="45.50537" lon="6.73843">
        <ele>2094.7</ele>
        <time>2021-08-12T09:13:00Z</time>
      </trkpt>
      <trkpt lat="45.50537" lon="6.73843">
        <ele>2094.7</ele>
        <time>2021-08-12T09:13:01Z</time>
      </trkpt>
      <trkpt lat="45.50537" lon="6.73843">
        <ele>2094.8</ele>
        <time>2021-08-12T09:13:02Z</time>
      </trkpt>
      <trkpt lat="45.50537" lon="6.73844">
        <ele>2094.9</ele>
        <time>2021-08-12T09:13:03Z</time>
      </trkpt>
      <trkpt lat="45.50536" lon="6.73844">
        <ele>2094.9</ele>
        <time>2021-08-12T09:13:04Z</time>
      </trkpt>
      <trkpt lat="45.50536" lon="6.73844">
        <ele>2094.9</ele>
        <time>2021-08-12T09:13:05Z</time>
      </trkpt>
      <trkpt lat="45.50536" lon="6.73844">
        <ele>2094.9</ele>
        <time>2021-08-12T09:13:06Z</time>
      </trkpt>
      <trkpt lat="45.50536" lon="6.73844">
        <ele>2094.9</ele>
        <time>2021-08-12T09:13:07Z</time>
      </trkpt>
      <trkpt lat="45.50536" lon="6.73844">
        <ele>2095</ele>
        <time>2021-08-12T09:13:08Z</time>
      </trkpt>
      <trkpt lat="45.50536" lon="6.73844">
        <ele>2095</ele>
        <time>2021-08-12T09:13:09Z</time>
      </trkpt>
      <trkpt lat="45.50537" lon="6.73844">
        <ele>2095</ele>
        <time>2021-08-12T09:13:10Z</time>
      </trkpt>
      <trkpt lat="45.50537" lon="6.73844">
        <ele>2095</ele>
        <time>2021-08-12T09:13:11Z</time>
      </trkpt>
      <trkpt lat="45.50537" lon="6.73844">
        <ele>2095</ele>
        <time>2021-08-12T09:13:12Z</time>
      </trkpt>
      <trkpt lat="45.50537" lon="6.73844">
        <ele>2095</ele>
        <time>2021-08-12T09:13:13Z</time>
      </trkpt>
      <trkpt lat="45.50537" lon="6.73844">
        <ele>2095</ele>
        <time>2021-08-12T09:13:14Z</time>
      </trkpt>
      <trkpt lat="45.50537" lon="6.73844">
        <ele>2095</ele>
        <time>2021-08-12T09:13:15Z</time>
      </trkpt>
      <trkpt lat="45.50537" lon="6.73844">
        <ele>2095.1</ele>
        <time>2021-08-12T09:13:16Z</time>
      </trkpt>
      <trkpt lat="45.50536" lon="6.73844">
        <ele>2095.1</ele>
        <time>2021-08-12T09:13:17Z</time>
      </trkpt>
      <trkpt lat="45.50536" lon="6.73844">
        <ele>2095.1</ele>
        <time>2021-08-12T09:13:18Z</time>
      </trkpt>
      <trkpt lat="45.50536" lon="6.73844">
        <ele>2095.2</ele>
        <time>2021-08-12T09:13:19Z</time>
      </trkpt>
      <trkpt lat="45.50536" lon="6.73844">
        <ele>2095.3</ele>
        <time>2021-08-12T09:13:20Z</time>
      </trkpt>
      <trkpt lat="45.50536" lon="6.73844">
        <ele>2095.3</ele>
        <time>2021-08-12T09:13:21Z</time>
      </trkpt>
      <trkpt lat="45.50535" lon="6.73844">
        <ele>2095.4</ele>
        <time>2021-08-12T09:13:22Z</time>
      </trkpt>
      <trkpt lat="45.50535" lon="6.73845">
        <ele>2095.5</ele>
        <time>2021-08-12T09:13:23Z</time>
      </trkpt>
      <trkpt lat="45.50534" lon="6.73845">
        <ele>2095.6</ele>
        <time>2021-08-12T09:13:24Z</time>
      </trkpt>
      <trkpt lat="45.50534" lon="6.73845">
        <ele>2095.8</ele>
        <time>2021-08-12T09:13:25Z</time>
      </trkpt>
      <trkpt lat="45.50533" lon="6.73846">
        <ele>2095.9</ele>
        <time>2021-08-12T09:13:26Z</time>
      </trkpt>
      <trkpt lat="45.50533" lon="6.73846">
        <ele>2096.1</ele>
        <time>2021-08-12T09:13:27Z</time>
      </trkpt>
      <trkpt lat="45.50532" lon="6.73846">
        <ele>2096.3</ele>
        <time>2021-08-12T09:13:28Z</time>
      </trkpt>
      <trkpt lat="45.50531" lon="6.73847">
        <ele>2096.4</ele>
        <time>2021-08-12T09:13:29Z</time>
      </trkpt>
      <trkpt lat="45.50531" lon="6.73847">
        <ele>2096.6</ele>
        <time>2021-08-12T09:13:30Z</time>
      </trkpt>
      <trkpt lat="45.5053" lon="6.73847">
        <ele>2096.8</ele>
        <time>2021-08-12T09:13:31Z</time>
      </trkpt>
      <trkpt lat="45.50529" lon="6.73847">
        <ele>2097</ele>
        <time>2021-08-12T09:13:32Z</time>
      </trkpt>
      <trkpt lat="45.50528" lon="6.73847">
        <ele>2097.2</ele>
        <time>2021-08-12T09:13:33Z</time>
      </trkpt>
      <trkpt lat="45.50527" lon="6.73847">
        <ele>2097.4</ele>
        <time>2021-08-12T09:13:34Z</time>
      </trkpt>
      <trkpt lat="45.50527" lon="6.73847">
        <ele>2097.5</ele>
        <time>2021-08-12T09:13:35Z</time>
      </trkpt>
      <trkpt lat="45.50526" lon="6.73847">
        <ele>2097.7</ele>
        <time>2021-08-12T09:13:36Z</time>
      </trkpt>
      <trkpt lat="45.50525" lon="6.73847">
        <ele>2097.9</ele>
        <time>2021-08-12T09:13:37Z</time>
      </trkpt>
      <trkpt lat="45.50525" lon="6.73847">
        <ele>2098</ele>
        <time>2021-08-12T09:13:38Z</time>
      </trkpt>
      <trkpt lat="45.50524" lon="6.73847">
        <ele>2098.2</ele>
        <time>2021-08-12T09:13:39Z</time>
      </trkpt>
      <trkpt lat="45.50524" lon="6.73847">
        <ele>2098.3</ele>
        <time>2021-08-12T09:13:40Z</time>
      </trkpt>
      <trkpt lat="45.50523" lon="6.73847">
        <ele>2098.4</ele>
        <time>2021-08-12T09:13:41Z</time>
      </trkpt>
      <trkpt lat="45.50523" lon="6.73847">
        <ele>2098.5</ele>
        <time>2021-08-12T09:13:42Z</time>
      </trkpt>
      <trkpt lat="45.50523" lon="6.73847">
        <ele>2098.5</ele>
        <time>2021-08-12T09:13:43Z</time>
      </trkpt>
      <trkpt lat="45.50523" lon="6.73847">
        <ele>2098.5</ele>
        <time>2021-08-12T09:13:44Z</time>
      </trkpt>
      <trkpt lat="45.50523" lon="6.73847">
        <ele>2098.6</ele>
        <time>2021-08-12T09:13:45Z</time>
      </trkpt>
      <trkpt lat="45.50522" lon="6.73847">
        <ele>2098.6</ele>
        <time>2021-08-12T09:13:46Z</time>
      </trkpt>
      <trkpt lat="45.50522" lon="6.73847">
        <ele>2098.6</ele>
        <time>2021-08-12T09:13:47Z</time>
      </trkpt>
      <trkpt lat="45.50522" lon="6.73847">
        <ele>2098.6</ele>
        <time>2021-08-12T09:13:48Z</time>
      </trkpt>
      <trkpt lat="45.50522" lon="6.73847">
        <ele>2098.6</ele>
        <time>2021-08-12T09:13:49Z</time>
      </trkpt>
      <trkpt lat="45.50522" lon="6.73848">
        <ele>2098.7</ele>
        <time>2021-08-12T09:13:50Z</time>
      </trkpt>
      <trkpt lat="45.50522" lon="6.73848">
        <ele>2098.7</ele>
        <time>2021-08-12T09:13:51Z</time>
      </trkpt>
      <trkpt lat="45.50522" lon="6.73848">
        <ele>2098.7</ele>
        <time>2021-08-12T09:13:52Z</time>
      </trkpt>
      <trkpt lat="45.50522" lon="6.73848">
        <ele>2098.7</ele>
        <time>2021-08-12T09:13:53Z</time>
      </trkpt>
      <trkpt lat="45.50522" lon="6.73848">
        <ele>2098.7</ele>
        <time>2021-08-12T09:13:54Z</time>
      </trkpt>
      <trkpt lat="45.50522" lon="6.73847">
        <ele>2098.7</ele>
        <time>2021-08-12T09:13:55Z</time>
      </trkpt>
      <trkpt lat="45.50522" lon="6.73847">
        <ele>2098.7</ele>
        <time>2021-08-12T09:13:56Z</time>
      </trkpt>
      <trkpt lat="45.50522" lon="6.73847">
        <ele>2098.7</ele>
        <time>2021-08-12T09:13:57Z</time>
      </trkpt>
      <trkpt lat="45.50522" lon="6.73847">
        <ele>2098.7</ele>
        <time>2021-08-12T09:13:58Z</time>
      </trkpt>
      <trkpt lat="45.50522" lon="6.73847">
        <ele>2098.7</ele>
        <time>2021-08-12T09:13:59Z</time>
      </trkpt>
      <trkpt lat="45.50522" lon="6.73847">
        <ele>2098.7</ele>
        <time>2021-08-12T09:14:00Z</time>
      </trkpt>
      <trkpt lat="45.50522" lon="6.73847">
        <ele>2098.7</ele>
        <time>2021-08-12T09:14:01Z</time>
      </trkpt>
      <trkpt lat="45.50522" lon="6.73847">
        <ele>2098.7</ele>
        <time>2021-08-12T09:14:02Z</time>
      </trkpt>
      <trkpt lat="45.50522" lon="6.73847">
        <ele>2098.7</ele>
        <time>2021-08-12T09:14:03Z</time>
      </trkpt>
      <trkpt lat="45.50522" lon="6.73847">
        <ele>2098.7</ele>
        <time>2021-08-12T09:14:04Z</time>
      </trkpt>
      <trkpt lat="45.50522" lon="6.73847">
        <ele>2098.7</ele>
        <time>2021-08-12T09:14:05Z</time>
      </trkpt>
      <trkpt lat="45.50522" lon="6.73848">
        <ele>2098.7</ele>
        <time>2021-08-12T09:14:06Z</time>
      </trkpt>
      <trkpt lat="45.50522" lon="6.73848">
        <ele>2098.7</ele>
        <time>2021-08-12T09:14:07Z</time>
      </trkpt>
      <trkpt lat="45.50522" lon="6.73848">
        <ele>2098.7</ele>
        <time>2021-08-12T09:14:08Z</time>
      </trkpt>
      <trkpt lat="45.50522" lon="6.73848">
        <ele>2098.7</ele>
        <time>2021-08-12T09:14:09Z</time>
      </trkpt>
      <trkpt lat="45.50522" lon="6.73848">
        <ele>2098.7</ele>
        <time>2021-08-12T09:14:10Z</time>
      </trkpt>
      <trkpt lat="45.50522" lon="6.73848">
        <ele>2098.7</ele>
        <time>2021-08-12T09:14:11Z</time>
      </trkpt>
      <trkpt lat="45.50522" lon="6.73848">
        <ele>2098.7</ele>
        <time>2021-08-12T09:14:12Z</time>
      </trkpt>
      <trkpt lat="45.50522" lon="6.73848">
        <ele>2098.8</ele>
        <time>2021-08-12T09:14:13Z</time>
      </trkpt>
      <trkpt lat="45.50522" lon="6.73848">
        <ele>2098.8</ele>
        <time>2021-08-12T09:14:14Z</time>
      </trkpt>
      <trkpt lat="45.50522" lon="6.73848">
        <ele>2098.8</ele>
        <time>2021-08-12T09:14:15Z</time>
      </trkpt>
      <trkpt lat="45.50522" lon="6.73847">
        <ele>2098.8</ele>
        <time>2021-08-12T09:14:16Z</time>
      </trkpt>
      <trkpt lat="45.50522" lon="6.73847">
        <ele>2098.9</ele>
        <time>2021-08-12T09:14:17Z</time>
      </trkpt>
      <trkpt lat="45.50522" lon="6.73847">
        <ele>2099</ele>
        <time>2021-08-12T09:14:18Z</time>
      </trkpt>
      <trkpt lat="45.50522" lon="6.73846">
        <ele>2099.1</ele>
        <time>2021-08-12T09:14:19Z</time>
      </trkpt>
      <trkpt lat="45.50521" lon="6.73846">
        <ele>2099.2</ele>
        <time>2021-08-12T09:14:20Z</time>
      </trkpt>
      <trkpt lat="45.50521" lon="6.73845">
        <ele>2099.4</ele>
        <time>2021-08-12T09:14:21Z</time>
      </trkpt>
      <trkpt lat="45.5052" lon="6.73844">
        <ele>2099.5</ele>
        <time>2021-08-12T09:14:22Z</time>
      </trkpt>
      <trkpt lat="45.5052" lon="6.73844">
        <ele>2099.7</ele>
        <time>2021-08-12T09:14:23Z</time>
      </trkpt>
      <trkpt lat="45.50519" lon="6.73843">
        <ele>2099.9</ele>
        <time>2021-08-12T09:14:24Z</time>
      </trkpt>
      <trkpt lat="45.50519" lon="6.73842">
        <ele>2100.1</ele>
        <time>2021-08-12T09:14:25Z</time>
      </trkpt>
      <trkpt lat="45.50518" lon="6.73841">
        <ele>2100.3</ele>
        <time>2021-08-12T09:14:26Z</time>
      </trkpt>
      <trkpt lat="45.50518" lon="6.7384">
        <ele>2100.5</ele>
        <time>2021-08-12T09:14:27Z</time>
      </trkpt>
      <trkpt lat="45.50517" lon="6.73839">
        <ele>2100.5</ele>
        <time>2021-08-12T09:14:28Z</time>
      </trkpt>
      <trkpt lat="45.50517" lon="6.73839">
        <ele>2101.7</ele>
        <time>2021-08-12T09:14:29Z</time>
      </trkpt>
      <trkpt lat="45.50517" lon="6.73838">
        <ele>2101.7</ele>
        <time>2021-08-12T09:14:30Z</time>
      </trkpt>
      <trkpt lat="45.50516" lon="6.73837">
        <ele>2101.7</ele>
        <time>2021-08-12T09:14:31Z</time>
      </trkpt>
      <trkpt lat="45.50516" lon="6.73837">
        <ele>2101.7</ele>
        <time>2021-08-12T09:14:32Z</time>
      </trkpt>
      <trkpt lat="45.50516" lon="6.73836">
        <ele>2101.7</ele>
        <time>2021-08-12T09:14:33Z</time>
      </trkpt>
      <trkpt lat="45.50515" lon="6.73836">
        <ele>2101.7</ele>
        <time>2021-08-12T09:14:34Z</time>
      </trkpt>
      <trkpt lat="45.50515" lon="6.73836">
        <ele>2101.7</ele>
        <time>2021-08-12T09:14:35Z</time>
      </trkpt>
      <trkpt lat="45.50515" lon="6.73835">
        <ele>2101.7</ele>
        <time>2021-08-12T09:14:36Z</time>
      </trkpt>
      <trkpt lat="45.50515" lon="6.73835">
        <ele>2101.8</ele>
        <time>2021-08-12T09:14:37Z</time>
      </trkpt>
      <trkpt lat="45.50515" lon="6.73835">
        <ele>2101.8</ele>
        <time>2021-08-12T09:14:38Z</time>
      </trkpt>
      <trkpt lat="45.50515" lon="6.73835">
        <ele>2101.8</ele>
        <time>2021-08-12T09:14:39Z</time>
      </trkpt>
      <trkpt lat="45.50515" lon="6.73835">
        <ele>2101.8</ele>
        <time>2021-08-12T09:14:40Z</time>
      </trkpt>
      <trkpt lat="45.50515" lon="6.73835">
        <ele>2101.8</ele>
        <time>2021-08-12T09:14:41Z</time>
      </trkpt>
      <trkpt lat="45.50515" lon="6.73835">
        <ele>2101.8</ele>
        <time>2021-08-12T09:14:42Z</time>
      </trkpt>
      <trkpt lat="45.50515" lon="6.73835">
        <ele>2101.8</ele>
        <time>2021-08-12T09:14:43Z</time>
      </trkpt>
      <trkpt lat="45.50515" lon="6.73835">
        <ele>2101.8</ele>
        <time>2021-08-12T09:14:44Z</time>
      </trkpt>
      <trkpt lat="45.50515" lon="6.73835">
        <ele>2101.8</ele>
        <time>2021-08-12T09:14:45Z</time>
      </trkpt>
      <trkpt lat="45.50515" lon="6.73835">
        <ele>2101.8</ele>
        <time>2021-08-12T09:14:46Z</time>
      </trkpt>
      <trkpt lat="45.50515" lon="6.73835">
        <ele>2101.8</ele>
        <time>2021-08-12T09:14:47Z</time>
      </trkpt>
      <trkpt lat="45.50515" lon="6.73835">
        <ele>2101.8</ele>
        <time>2021-08-12T09:14:48Z</time>
      </trkpt>
      <trkpt lat="45.50515" lon="6.73835">
        <ele>2101.8</ele>
        <time>2021-08-12T09:14:49Z</time>
      </trkpt>
      <trkpt lat="45.50515" lon="6.73835">
        <ele>2101.8</ele>
        <time>2021-08-12T09:14:50Z</time>
      </trkpt>
      <trkpt lat="45.50515" lon="6.73835">
        <ele>2101.8</ele>
        <time>2021-08-12T09:14:51Z</time>
      </trkpt>
      <trkpt lat="45.50515" lon="6.73835">
        <ele>2101.8</ele>
        <time>2021-08-12T09:14:52Z</time>
      </trkpt>
      <trkpt lat="45.50515" lon="6.73835">
        <ele>2101.8</ele>
        <time>2021-08-12T09:14:53Z</time>
      </trkpt>
      <trkpt lat="45.50515" lon="6.73835">
        <ele>2101.8</ele>
        <time>2021-08-12T09:14:54Z</time>
      </trkpt>
      <trkpt lat="45.50515" lon="6.73835">
        <ele>2101.8</ele>
        <time>2021-08-12T09:14:55Z</time>
      </trkpt>
      <trkpt lat="45.50514" lon="6.73835">
        <ele>2101.8</ele>
        <time>2021-08-12T09:14:56Z</time>
      </trkpt>
      <trkpt lat="45.50514" lon="6.73835">
        <ele>2101.8</ele>
        <time>2021-08-12T09:14:57Z</time>
      </trkpt>
      <trkpt lat="45.50514" lon="6.73835">
        <ele>2103</ele>
        <time>2021-08-12T09:14:58Z</time>
      </trkpt>
      <trkpt lat="45.50514" lon="6.73835">
        <ele>2103</ele>
        <time>2021-08-12T09:14:59Z</time>
      </trkpt>
      <trkpt lat="45.50514" lon="6.73835">
        <ele>2103</ele>
        <time>2021-08-12T09:15:00Z</time>
      </trkpt>
      <trkpt lat="45.50514" lon="6.73835">
        <ele>2103</ele>
        <time>2021-08-12T09:15:01Z</time>
      </trkpt>
      <trkpt lat="45.50514" lon="6.73835">
        <ele>2103</ele>
        <time>2021-08-12T09:15:02Z</time>
      </trkpt>
      <trkpt lat="45.50514" lon="6.73835">
        <ele>2103</ele>
        <time>2021-08-12T09:15:03Z</time>
      </trkpt>
      <trkpt lat="45.50513" lon="6.73835">
        <ele>2103</ele>
        <time>2021-08-12T09:15:04Z</time>
      </trkpt>
      <trkpt lat="45.50513" lon="6.73835">
        <ele>2103</ele>
        <time>2021-08-12T09:15:05Z</time>
      </trkpt>
      <trkpt lat="45.50513" lon="6.73835">
        <ele>2103</ele>
        <time>2021-08-12T09:15:06Z</time>
      </trkpt>
      <trkpt lat="45.50513" lon="6.73835">
        <ele>2103</ele>
        <time>2021-08-12T09:15:07Z</time>
      </trkpt>
      <trkpt lat="45.50513" lon="6.73835">
        <ele>2103</ele>
        <time>2021-08-12T09:15:08Z</time>
      </trkpt>
      <trkpt lat="45.50512" lon="6.73835">
        <ele>2103</ele>
        <time>2021-08-12T09:15:09Z</time>
      </trkpt>
      <trkpt lat="45.50512" lon="6.73835">
        <ele>2103</ele>
        <time>2021-08-12T09:15:10Z</time>
      </trkpt>
      <trkpt lat="45.50512" lon="6.73835">
        <ele>2103</ele>
        <time>2021-08-12T09:15:11Z</time>
      </trkpt>
      <trkpt lat="45.50512" lon="6.73835">
        <ele>2103</ele>
        <time>2021-08-12T09:15:12Z</time>
      </trkpt>
      <trkpt lat="45.50512" lon="6.73835">
        <ele>2103</ele>
        <time>2021-08-12T09:15:13Z</time>
      </trkpt>
      <trkpt lat="45.50512" lon="6.73835">
        <ele>2103</ele>
        <time>2021-08-12T09:15:14Z</time>
      </trkpt>
      <trkpt lat="45.50512" lon="6.73835">
        <ele>2103</ele>
        <time>2021-08-12T09:15:15Z</time>
      </trkpt>
      <trkpt lat="45.50512" lon="6.73835">
        <ele>2103</ele>
        <time>2021-08-12T09:15:16Z</time>
      </trkpt>
      <trkpt lat="45.50512" lon="6.73835">
        <ele>2103</ele>
        <time>2021-08-12T09:15:17Z</time>
      </trkpt>
      <trkpt lat="45.50512" lon="6.73835">
        <ele>2103</ele>
        <time>2021-08-12T09:15:18Z</time>
      </trkpt>
      <trkpt lat="45.50511" lon="6.73835">
        <ele>2104.2</ele>
        <time>2021-08-12T09:15:19Z</time>
      </trkpt>
      <trkpt lat="45.50511" lon="6.73835">
        <ele>2104.2</ele>
        <time>2021-08-12T09:15:20Z</time>
      </trkpt>
      <trkpt lat="45.5051" lon="6.73835">
        <ele>2104.2</ele>
        <time>2021-08-12T09:15:21Z</time>
      </trkpt>
      <trkpt lat="45.5051" lon="6.73835">
        <ele>2104.2</ele>
        <time>2021-08-12T09:15:22Z</time>
      </trkpt>
      <trkpt lat="45.50509" lon="6.73835">
        <ele>2104.2</ele>
        <time>2021-08-12T09:15:23Z</time>
      </trkpt>
      <trkpt lat="45.50508" lon="6.73835">
        <ele>2105.6</ele>
        <time>2021-08-12T09:15:24Z</time>
      </trkpt>
      <trkpt lat="45.50508" lon="6.73836">
        <ele>2105.5</ele>
        <time>2021-08-12T09:15:25Z</time>
      </trkpt>
      <trkpt lat="45.50507" lon="6.73836">
        <ele>2105.5</ele>
        <time>2021-08-12T09:15:26Z</time>
      </trkpt>
      <trkpt lat="45.50506" lon="6.73837">
        <ele>2105.5</ele>
        <time>2021-08-12T09:15:27Z</time>
      </trkpt>
      <trkpt lat="45.50506" lon="6.73837">
        <ele>2105.5</ele>
        <time>2021-08-12T09:15:28Z</time>
      </trkpt>
      <trkpt lat="45.50505" lon="6.73837">
        <ele>2107</ele>
        <time>2021-08-12T09:15:29Z</time>
      </trkpt>
      <trkpt lat="45.50505" lon="6.73838">
        <ele>2107</ele>
        <time>2021-08-12T09:15:30Z</time>
      </trkpt>
      <trkpt lat="45.50504" lon="6.73838">
        <ele>2107</ele>
        <time>2021-08-12T09:15:31Z</time>
      </trkpt>
      <trkpt lat="45.50504" lon="6.73839">
        <ele>2107</ele>
        <time>2021-08-12T09:15:32Z</time>
      </trkpt>
      <trkpt lat="45.50504" lon="6.73839">
        <ele>2107</ele>
        <time>2021-08-12T09:15:33Z</time>
      </trkpt>
      <trkpt lat="45.50504" lon="6.73839">
        <ele>2107</ele>
        <time>2021-08-12T09:15:34Z</time>
      </trkpt>
      <trkpt lat="45.50503" lon="6.73839">
        <ele>2107</ele>
        <time>2021-08-12T09:15:35Z</time>
      </trkpt>
      <trkpt lat="45.50503" lon="6.73839">
        <ele>2107</ele>
        <time>2021-08-12T09:15:36Z</time>
      </trkpt>
      <trkpt lat="45.50503" lon="6.73839">
        <ele>2107</ele>
        <time>2021-08-12T09:15:37Z</time>
      </trkpt>
      <trkpt lat="45.50503" lon="6.73839">
        <ele>2107</ele>
        <time>2021-08-12T09:15:38Z</time>
      </trkpt>
      <trkpt lat="45.50503" lon="6.73839">
        <ele>2107</ele>
        <time>2021-08-12T09:15:39Z</time>
      </trkpt>
      <trkpt lat="45.50503" lon="6.73839">
        <ele>2107</ele>
        <time>2021-08-12T09:15:40Z</time>
      </trkpt>
      <trkpt lat="45.50504" lon="6.73839">
        <ele>2107</ele>
        <time>2021-08-12T09:15:41Z</time>
      </trkpt>
      <trkpt lat="45.50504" lon="6.73839">
        <ele>2107</ele>
        <time>2021-08-12T09:15:42Z</time>
      </trkpt>
      <trkpt lat="45.50504" lon="6.73839">
        <ele>2107</ele>
        <time>2021-08-12T09:15:43Z</time>
      </trkpt>
      <trkpt lat="45.50504" lon="6.73839">
        <ele>2107</ele>
        <time>2021-08-12T09:15:44Z</time>
      </trkpt>
      <trkpt lat="45.50504" lon="6.73839">
        <ele>2107</ele>
        <time>2021-08-12T09:15:45Z</time>
      </trkpt>
      <trkpt lat="45.50504" lon="6.73839">
        <ele>2107</ele>
        <time>2021-08-12T09:15:46Z</time>
      </trkpt>
      <trkpt lat="45.50503" lon="6.73839">
        <ele>2107</ele>
        <time>2021-08-12T09:15:47Z</time>
      </trkpt>
      <trkpt lat="45.50503" lon="6.73839">
        <ele>2107</ele>
        <time>2021-08-12T09:15:48Z</time>
      </trkpt>
      <trkpt lat="45.50503" lon="6.73839">
        <ele>2107</ele>
        <time>2021-08-12T09:15:49Z</time>
      </trkpt>
      <trkpt lat="45.50503" lon="6.7384">
        <ele>2106.9</ele>
        <time>2021-08-12T09:15:50Z</time>
      </trkpt>
      <trkpt lat="45.50503" lon="6.7384">
        <ele>2106.9</ele>
        <time>2021-08-12T09:15:51Z</time>
      </trkpt>
      <trkpt lat="45.50502" lon="6.73841">
        <ele>2108.5</ele>
        <time>2021-08-12T09:15:52Z</time>
      </trkpt>
      <trkpt lat="45.50502" lon="6.73841">
        <ele>2108.5</ele>
        <time>2021-08-12T09:15:53Z</time>
      </trkpt>
      <trkpt lat="45.50502" lon="6.73842">
        <ele>2108.5</ele>
        <time>2021-08-12T09:15:54Z</time>
      </trkpt>
      <trkpt lat="45.50501" lon="6.73842">
        <ele>2108.5</ele>
        <time>2021-08-12T09:15:55Z</time>
      </trkpt>
      <trkpt lat="45.50501" lon="6.73843">
        <ele>2108.5</ele>
        <time>2021-08-12T09:15:56Z</time>
      </trkpt>
      <trkpt lat="45.505" lon="6.73843">
        <ele>2108.5</ele>
        <time>2021-08-12T09:15:57Z</time>
      </trkpt>
      <trkpt lat="45.505" lon="6.73844">
        <ele>2108.4</ele>
        <time>2021-08-12T09:15:58Z</time>
      </trkpt>
      <trkpt lat="45.505" lon="6.73845">
        <ele>2108.4</ele>
        <time>2021-08-12T09:15:59Z</time>
      </trkpt>
      <trkpt lat="45.50499" lon="6.73845">
        <ele>2110</ele>
        <time>2021-08-12T09:16:00Z</time>
      </trkpt>
      <trkpt lat="45.50499" lon="6.73846">
        <ele>2110</ele>
        <time>2021-08-12T09:16:01Z</time>
      </trkpt>
      <trkpt lat="45.50498" lon="6.73846">
        <ele>2110</ele>
        <time>2021-08-12T09:16:02Z</time>
      </trkpt>
      <trkpt lat="45.50498" lon="6.73847">
        <ele>2110</ele>
        <time>2021-08-12T09:16:03Z</time>
      </trkpt>
      <trkpt lat="45.50498" lon="6.73847">
        <ele>2110.1</ele>
        <time>2021-08-12T09:16:04Z</time>
      </trkpt>
      <trkpt lat="45.50498" lon="6.73848">
        <ele>2110.2</ele>
        <time>2021-08-12T09:16:05Z</time>
      </trkpt>
      <trkpt lat="45.50497" lon="6.73848">
        <ele>2110.2</ele>
        <time>2021-08-12T09:16:06Z</time>
      </trkpt>
      <trkpt lat="45.50497" lon="6.73849">
        <ele>2110.3</ele>
        <time>2021-08-12T09:16:07Z</time>
      </trkpt>
      <trkpt lat="45.50497" lon="6.73849">
        <ele>2110.4</ele>
        <time>2021-08-12T09:16:08Z</time>
      </trkpt>
      <trkpt lat="45.50497" lon="6.73849">
        <ele>2110.5</ele>
        <time>2021-08-12T09:16:09Z</time>
      </trkpt>
      <trkpt lat="45.50497" lon="6.73849">
        <ele>2110.6</ele>
        <time>2021-08-12T09:16:10Z</time>
      </trkpt>
      <trkpt lat="45.50497" lon="6.7385">
        <ele>2110.7</ele>
        <time>2021-08-12T09:16:11Z</time>
      </trkpt>
      <trkpt lat="45.50497" lon="6.7385">
        <ele>2110.8</ele>
        <time>2021-08-12T09:16:12Z</time>
      </trkpt>
      <trkpt lat="45.50497" lon="6.7385">
        <ele>2110.9</ele>
        <time>2021-08-12T09:16:13Z</time>
      </trkpt>
      <trkpt lat="45.50497" lon="6.7385">
        <ele>2111</ele>
        <time>2021-08-12T09:16:14Z</time>
      </trkpt>
      <trkpt lat="45.50497" lon="6.7385">
        <ele>2111.1</ele>
        <time>2021-08-12T09:16:15Z</time>
      </trkpt>
      <trkpt lat="45.50497" lon="6.7385">
        <ele>2111.2</ele>
        <time>2021-08-12T09:16:16Z</time>
      </trkpt>
      <trkpt lat="45.50497" lon="6.7385">
        <ele>2111.3</ele>
        <time>2021-08-12T09:16:17Z</time>
      </trkpt>
      <trkpt lat="45.50497" lon="6.7385">
        <ele>2111.4</ele>
        <time>2021-08-12T09:16:18Z</time>
      </trkpt>
      <trkpt lat="45.50497" lon="6.7385">
        <ele>2111.5</ele>
        <time>2021-08-12T09:16:19Z</time>
      </trkpt>
      <trkpt lat="45.50497" lon="6.7385">
        <ele>2111.6</ele>
        <time>2021-08-12T09:16:20Z</time>
      </trkpt>
      <trkpt lat="45.50497" lon="6.7385">
        <ele>2111.7</ele>
        <time>2021-08-12T09:16:21Z</time>
      </trkpt>
      <trkpt lat="45.50497" lon="6.7385">
        <ele>2111.8</ele>
        <time>2021-08-12T09:16:22Z</time>
      </trkpt>
      <trkpt lat="45.50497" lon="6.7385">
        <ele>2111.9</ele>
        <time>2021-08-12T09:16:23Z</time>
      </trkpt>
      <trkpt lat="45.50496" lon="6.7385">
        <ele>2112</ele>
        <time>2021-08-12T09:16:24Z</time>
      </trkpt>
      <trkpt lat="45.50496" lon="6.7385">
        <ele>2113.6</ele>
        <time>2021-08-12T09:16:25Z</time>
      </trkpt>
      <trkpt lat="45.50496" lon="6.73849">
        <ele>2113.7</ele>
        <time>2021-08-12T09:16:26Z</time>
      </trkpt>
      <trkpt lat="45.50496" lon="6.73849">
        <ele>2113.8</ele>
        <time>2021-08-12T09:16:27Z</time>
      </trkpt>
      <trkpt lat="45.50496" lon="6.73849">
        <ele>2113.9</ele>
        <time>2021-08-12T09:16:28Z</time>
      </trkpt>
      <trkpt lat="45.50496" lon="6.73849">
        <ele>2114</ele>
        <time>2021-08-12T09:16:29Z</time>
      </trkpt>
      <trkpt lat="45.50495" lon="6.73849">
        <ele>2114.1</ele>
        <time>2021-08-12T09:16:30Z</time>
      </trkpt>
      <trkpt lat="45.50495" lon="6.73849">
        <ele>2114.2</ele>
        <time>2021-08-12T09:16:31Z</time>
      </trkpt>
      <trkpt lat="45.50495" lon="6.73848">
        <ele>2114.3</ele>
        <time>2021-08-12T09:16:32Z</time>
      </trkpt>
      <trkpt lat="45.50495" lon="6.73848">
        <ele>2114.4</ele>
        <time>2021-08-12T09:16:33Z</time>
      </trkpt>
      <trkpt lat="45.50494" lon="6.73848">
        <ele>2114.5</ele>
        <time>2021-08-12T09:16:34Z</time>
      </trkpt>
      <trkpt lat="45.50494" lon="6.73848">
        <ele>2114.6</ele>
        <time>2021-08-12T09:16:35Z</time>
      </trkpt>
      <trkpt lat="45.50494" lon="6.73848">
        <ele>2114.7</ele>
        <time>2021-08-12T09:16:36Z</time>
      </trkpt>
      <trkpt lat="45.50493" lon="6.73848">
        <ele>2114.8</ele>
        <time>2021-08-12T09:16:37Z</time>
      </trkpt>
      <trkpt lat="45.50493" lon="6.73848">
        <ele>2116.3</ele>
        <time>2021-08-12T09:16:38Z</time>
      </trkpt>
      <trkpt lat="45.50493" lon="6.73847">
        <ele>2116.4</ele>
        <time>2021-08-12T09:16:39Z</time>
      </trkpt>
      <trkpt lat="45.50493" lon="6.73847">
        <ele>2116.5</ele>
        <time>2021-08-12T09:16:40Z</time>
      </trkpt>
      <trkpt lat="45.50493" lon="6.73847">
        <ele>2116.6</ele>
        <time>2021-08-12T09:16:41Z</time>
      </trkpt>
      <trkpt lat="45.50492" lon="6.73847">
        <ele>2116.7</ele>
        <time>2021-08-12T09:16:42Z</time>
      </trkpt>
      <trkpt lat="45.50492" lon="6.73847">
        <ele>2116.8</ele>
        <time>2021-08-12T09:16:43Z</time>
      </trkpt>
      <trkpt lat="45.50492" lon="6.73847">
        <ele>2116.9</ele>
        <time>2021-08-12T09:16:44Z</time>
      </trkpt>
      <trkpt lat="45.50492" lon="6.73847">
        <ele>2117</ele>
        <time>2021-08-12T09:16:45Z</time>
      </trkpt>
      <trkpt lat="45.50492" lon="6.73847">
        <ele>2117.1</ele>
        <time>2021-08-12T09:16:46Z</time>
      </trkpt>
      <trkpt lat="45.50492" lon="6.73846">
        <ele>2117.2</ele>
        <time>2021-08-12T09:16:47Z</time>
      </trkpt>
      <trkpt lat="45.50492" lon="6.73846">
        <ele>2117.3</ele>
        <time>2021-08-12T09:16:48Z</time>
      </trkpt>
      <trkpt lat="45.50492" lon="6.73846">
        <ele>2117.4</ele>
        <time>2021-08-12T09:16:49Z</time>
      </trkpt>
      <trkpt lat="45.50492" lon="6.73846">
        <ele>2117.5</ele>
        <time>2021-08-12T09:16:50Z</time>
      </trkpt>
      <trkpt lat="45.50492" lon="6.73846">
        <ele>2117.6</ele>
        <time>2021-08-12T09:16:51Z</time>
      </trkpt>
      <trkpt lat="45.50492" lon="6.73846">
        <ele>2117.7</ele>
        <time>2021-08-12T09:16:52Z</time>
      </trkpt>
      <trkpt lat="45.50492" lon="6.73846">
        <ele>2117.8</ele>
        <time>2021-08-12T09:16:53Z</time>
      </trkpt>
      <trkpt lat="45.50492" lon="6.73846">
        <ele>2117.9</ele>
        <time>2021-08-12T09:16:54Z</time>
      </trkpt>
      <trkpt lat="45.50492" lon="6.73846">
        <ele>2118</ele>
        <time>2021-08-12T09:16:55Z</time>
      </trkpt>
      <trkpt lat="45.50492" lon="6.73846">
        <ele>2118.1</ele>
        <time>2021-08-12T09:16:56Z</time>
      </trkpt>
      <trkpt lat="45.50492" lon="6.73846">
        <ele>2118.2</ele>
        <time>2021-08-12T09:16:57Z</time>
      </trkpt>
      <trkpt lat="45.50492" lon="6.73846">
        <ele>2118.3</ele>
        <time>2021-08-12T09:16:58Z</time>
      </trkpt>
      <trkpt lat="45.50492" lon="6.73846">
        <ele>2118.4</ele>
        <time>2021-08-12T09:16:59Z</time>
      </trkpt>
      <trkpt lat="45.50492" lon="6.73846">
        <ele>2118.5</ele>
        <time>2021-08-12T09:17:00Z</time>
      </trkpt>
      <trkpt lat="45.50492" lon="6.73847">
        <ele>2118.6</ele>
        <time>2021-08-12T09:17:01Z</time>
      </trkpt>
      <trkpt lat="45.50492" lon="6.73847">
        <ele>2118.7</ele>
        <time>2021-08-12T09:17:02Z</time>
      </trkpt>
      <trkpt lat="45.50491" lon="6.73847">
        <ele>2118.8</ele>
        <time>2021-08-12T09:17:03Z</time>
      </trkpt>
      <trkpt lat="45.50491" lon="6.73847">
        <ele>2118.9</ele>
        <time>2021-08-12T09:17:04Z</time>
      </trkpt>
      <trkpt lat="45.50491" lon="6.73847">
        <ele>2119</ele>
        <time>2021-08-12T09:17:05Z</time>
      </trkpt>
      <trkpt lat="45.50491" lon="6.73847">
        <ele>2119.1</ele>
        <time>2021-08-12T09:17:06Z</time>
      </trkpt>
      <trkpt lat="45.5049" lon="6.73847">
        <ele>2120.6</ele>
        <time>2021-08-12T09:17:07Z</time>
      </trkpt>
      <trkpt lat="45.5049" lon="6.73847">
        <ele>2120.7</ele>
        <time>2021-08-12T09:17:08Z</time>
      </trkpt>
      <trkpt lat="45.50489" lon="6.73848">
        <ele>2120.8</ele>
        <time>2021-08-12T09:17:09Z</time>
      </trkpt>
      <trkpt lat="45.50489" lon="6.73848">
        <ele>2120.9</ele>
        <time>2021-08-12T09:17:10Z</time>
      </trkpt>
      <trkpt lat="45.50489" lon="6.73848">
        <ele>2121</ele>
        <time>2021-08-12T09:17:11Z</time>
      </trkpt>
      <trkpt lat="45.50488" lon="6.73848">
        <ele>2121.1</ele>
        <time>2021-08-12T09:17:12Z</time>
      </trkpt>
      <trkpt lat="45.50488" lon="6.73848">
        <ele>2121.1</ele>
        <time>2021-08-12T09:17:13Z</time>
      </trkpt>
      <trkpt lat="45.50487" lon="6.73848">
        <ele>2122.6</ele>
        <time>2021-08-12T09:17:14Z</time>
      </trkpt>
      <trkpt lat="45.50487" lon="6.73849">
        <ele>2122.7</ele>
        <time>2021-08-12T09:17:15Z</time>
      </trkpt>
      <trkpt lat="45.50486" lon="6.73849">
        <ele>2122.8</ele>
        <time>2021-08-12T09:17:16Z</time>
      </trkpt>
      <trkpt lat="45.50486" lon="6.73849">
        <ele>2122.9</ele>
        <time>2021-08-12T09:17:17Z</time>
      </trkpt>
      <trkpt lat="45.50486" lon="6.73849">
        <ele>2123</ele>
        <time>2021-08-12T09:17:18Z</time>
      </trkpt>
      <trkpt lat="45.50485" lon="6.73849">
        <ele>2123.1</ele>
        <time>2021-08-12T09:17:19Z</time>
      </trkpt>
      <trkpt lat="45.50485" lon="6.73849">
        <ele>2123.2</ele>
        <time>2021-08-12T09:17:20Z</time>
      </trkpt>
      <trkpt lat="45.50485" lon="6.73849">
        <ele>2123.3</ele>
        <time>2021-08-12T09:17:21Z</time>
      </trkpt>
      <trkpt lat="45.50484" lon="6.7385">
        <ele>2124.8</ele>
        <time>2021-08-12T09:17:22Z</time>
      </trkpt>
      <trkpt lat="45.50484" lon="6.7385">
        <ele>2124.9</ele>
        <time>2021-08-12T09:17:23Z</time>
      </trkpt>
      <trkpt lat="45.50483" lon="6.7385">
        <ele>2125</ele>
        <time>2021-08-12T09:17:24Z</time>
      </trkpt>
      <trkpt lat="45.50483" lon="6.7385">
        <ele>2125.1</ele>
        <time>2021-08-12T09:17:25Z</time>
      </trkpt>
      <trkpt lat="45.50483" lon="6.7385">
        <ele>2125.2</ele>
        <time>2021-08-12T09:17:26Z</time>
      </trkpt>
      <trkpt lat="45.50482" lon="6.7385">
        <ele>2125.3</ele>
        <time>2021-08-12T09:17:27Z</time>
      </trkpt>
      <trkpt lat="45.50482" lon="6.7385">
        <ele>2125.4</ele>
        <time>2021-08-12T09:17:28Z</time>
      </trkpt>
      <trkpt lat="45.50481" lon="6.7385">
        <ele>2125.5</ele>
        <time>2021-08-12T09:17:29Z</time>
      </trkpt>
      <trkpt lat="45.50481" lon="6.7385">
        <ele>2127.1</ele>
        <time>2021-08-12T09:17:30Z</time>
      </trkpt>
      <trkpt lat="45.50481" lon="6.7385">
        <ele>2127.2</ele>
        <time>2021-08-12T09:17:31Z</time>
      </trkpt>
      <trkpt lat="45.5048" lon="6.73851">
        <ele>2127.3</ele>
        <time>2021-08-12T09:17:32Z</time>
      </trkpt>
      <trkpt lat="45.5048" lon="6.73851">
        <ele>2127.4</ele>
        <time>2021-08-12T09:17:33Z</time>
      </trkpt>
      <trkpt lat="45.50479" lon="6.73851">
        <ele>2127.5</ele>
        <time>2021-08-12T09:17:34Z</time>
      </trkpt>
      <trkpt lat="45.50479" lon="6.73851">
        <ele>2127.6</ele>
        <time>2021-08-12T09:17:35Z</time>
      </trkpt>
      <trkpt lat="45.50479" lon="6.73851">
        <ele>2127.7</ele>
        <time>2021-08-12T09:17:36Z</time>
      </trkpt>
      <trkpt lat="45.50479" lon="6.73851">
        <ele>2127.8</ele>
        <time>2021-08-12T09:17:37Z</time>
      </trkpt>
      <trkpt lat="45.50478" lon="6.73851">
        <ele>2127.9</ele>
        <time>2021-08-12T09:17:38Z</time>
      </trkpt>
      <trkpt lat="45.50478" lon="6.73851">
        <ele>2129.6</ele>
        <time>2021-08-12T09:17:39Z</time>
      </trkpt>
      <trkpt lat="45.50478" lon="6.73851">
        <ele>2129.7</ele>
        <time>2021-08-12T09:17:40Z</time>
      </trkpt>
      <trkpt lat="45.50478" lon="6.73851">
        <ele>2129.8</ele>
        <time>2021-08-12T09:17:41Z</time>
      </trkpt>
      <trkpt lat="45.50478" lon="6.73851">
        <ele>2129.9</ele>
        <time>2021-08-12T09:17:42Z</time>
      </trkpt>
      <trkpt lat="45.50478" lon="6.73851">
        <ele>2130</ele>
        <time>2021-08-12T09:17:43Z</time>
      </trkpt>
      <trkpt lat="45.50478" lon="6.73851">
        <ele>2130</ele>
        <time>2021-08-12T09:17:44Z</time>
      </trkpt>
      <trkpt lat="45.50478" lon="6.73851">
        <ele>2130</ele>
        <time>2021-08-12T09:17:45Z</time>
      </trkpt>
      <trkpt lat="45.50478" lon="6.73851">
        <ele>2130</ele>
        <time>2021-08-12T09:17:46Z</time>
      </trkpt>
      <trkpt lat="45.50478" lon="6.73851">
        <ele>2130</ele>
        <time>2021-08-12T09:17:47Z</time>
      </trkpt>
      <trkpt lat="45.50478" lon="6.73851">
        <ele>2130</ele>
        <time>2021-08-12T09:17:48Z</time>
      </trkpt>
      <trkpt lat="45.50478" lon="6.73851">
        <ele>2130</ele>
        <time>2021-08-12T09:17:49Z</time>
      </trkpt>
      <trkpt lat="45.50478" lon="6.73851">
        <ele>2130</ele>
        <time>2021-08-12T09:17:50Z</time>
      </trkpt>
      <trkpt lat="45.50478" lon="6.73851">
        <ele>2130</ele>
        <time>2021-08-12T09:17:51Z</time>
      </trkpt>
      <trkpt lat="45.50478" lon="6.73851">
        <ele>2130</ele>
        <time>2021-08-12T09:17:52Z</time>
      </trkpt>
      <trkpt lat="45.50478" lon="6.73851">
        <ele>2130</ele>
        <time>2021-08-12T09:17:53Z</time>
      </trkpt>
      <trkpt lat="45.50477" lon="6.73851">
        <ele>2130</ele>
        <time>2021-08-12T09:17:54Z</time>
      </trkpt>
      <trkpt lat="45.50477" lon="6.73851">
        <ele>2130</ele>
        <time>2021-08-12T09:17:55Z</time>
      </trkpt>
      <trkpt lat="45.50477" lon="6.73851">
        <ele>2130</ele>
        <time>2021-08-12T09:17:56Z</time>
      </trkpt>
      <trkpt lat="45.50476" lon="6.73852">
        <ele>2130</ele>
        <time>2021-08-12T09:17:57Z</time>
      </trkpt>
      <trkpt lat="45.50476" lon="6.73852">
        <ele>2130</ele>
        <time>2021-08-12T09:17:58Z</time>
      </trkpt>
      <trkpt lat="45.50475" lon="6.73852">
        <ele>2130</ele>
        <time>2021-08-12T09:17:59Z</time>
      </trkpt>
      <trkpt lat="45.50475" lon="6.73852">
        <ele>2131.6</ele>
        <time>2021-08-12T09:18:00Z</time>
      </trkpt>
      <trkpt lat="45.50475" lon="6.73852">
        <ele>2131.7</ele>
        <time>2021-08-12T09:18:01Z</time>
      </trkpt>
      <trkpt lat="45.50474" lon="6.73852">
        <ele>2131.8</ele>
        <time>2021-08-12T09:18:02Z</time>
      </trkpt>
      <trkpt lat="45.50474" lon="6.73852">
        <ele>2131.9</ele>
        <time>2021-08-12T09:18:03Z</time>
      </trkpt>
      <trkpt lat="45.50474" lon="6.73852">
        <ele>2132</ele>
        <time>2021-08-12T09:18:04Z</time>
      </trkpt>
      <trkpt lat="45.50473" lon="6.73852">
        <ele>2132.1</ele>
        <time>2021-08-12T09:18:05Z</time>
      </trkpt>
      <trkpt lat="45.50473" lon="6.73852">
        <ele>2132.1</ele>
        <time>2021-08-12T09:18:06Z</time>
      </trkpt>
      <trkpt lat="45.50473" lon="6.73852">
        <ele>2132.1</ele>
        <time>2021-08-12T09:18:07Z</time>
      </trkpt>
      <trkpt lat="45.50473" lon="6.73852">
        <ele>2132.1</ele>
        <time>2021-08-12T09:18:08Z</time>
      </trkpt>
      <trkpt lat="45.50473" lon="6.73852">
        <ele>2132.2</ele>
        <time>2021-08-12T09:18:09Z</time>
      </trkpt>
      <trkpt lat="45.50473" lon="6.73852">
        <ele>2132.2</ele>
        <time>2021-08-12T09:18:10Z</time>
      </trkpt>
      <trkpt lat="45.50473" lon="6.73852">
        <ele>2132.2</ele>
        <time>2021-08-12T09:18:11Z</time>
      </trkpt>
      <trkpt lat="45.50473" lon="6.73852">
        <ele>2132.2</ele>
        <time>2021-08-12T09:18:12Z</time>
      </trkpt>
      <trkpt lat="45.50473" lon="6.73852">
        <ele>2132.2</ele>
        <time>2021-08-12T09:18:13Z</time>
      </trkpt>
      <trkpt lat="45.50473" lon="6.73852">
        <ele>2132.2</ele>
        <time>2021-08-12T09:18:14Z</time>
      </trkpt>
      <trkpt lat="45.50473" lon="6.73852">
        <ele>2132.3</ele>
        <time>2021-08-12T09:18:15Z</time>
      </trkpt>
      <trkpt lat="45.50473" lon="6.73852">
        <ele>2132.3</ele>
        <time>2021-08-12T09:18:16Z</time>
      </trkpt>
      <trkpt lat="45.50473" lon="6.73852">
        <ele>2132.3</ele>
        <time>2021-08-12T09:18:17Z</time>
      </trkpt>
      <trkpt lat="45.50473" lon="6.73852">
        <ele>2132.3</ele>
        <time>2021-08-12T09:18:18Z</time>
      </trkpt>
      <trkpt lat="45.50473" lon="6.73852">
        <ele>2132.4</ele>
        <time>2021-08-12T09:18:19Z</time>
      </trkpt>
      <trkpt lat="45.50472" lon="6.73852">
        <ele>2132.4</ele>
        <time>2021-08-12T09:18:20Z</time>
      </trkpt>
      <trkpt lat="45.50472" lon="6.73852">
        <ele>2132.5</ele>
        <time>2021-08-12T09:18:21Z</time>
      </trkpt>
      <trkpt lat="45.50472" lon="6.73852">
        <ele>2132.6</ele>
        <time>2021-08-12T09:18:22Z</time>
      </trkpt>
      <trkpt lat="45.50472" lon="6.73852">
        <ele>2132.6</ele>
        <time>2021-08-12T09:18:23Z</time>
      </trkpt>
      <trkpt lat="45.50471" lon="6.73853">
        <ele>2132.7</ele>
        <time>2021-08-12T09:18:24Z</time>
      </trkpt>
      <trkpt lat="45.50471" lon="6.73853">
        <ele>2132.8</ele>
        <time>2021-08-12T09:18:25Z</time>
      </trkpt>
      <trkpt lat="45.50471" lon="6.73853">
        <ele>2132.9</ele>
        <time>2021-08-12T09:18:26Z</time>
      </trkpt>
      <trkpt lat="45.5047" lon="6.73853">
        <ele>2133</ele>
        <time>2021-08-12T09:18:27Z</time>
      </trkpt>
      <trkpt lat="45.5047" lon="6.73853">
        <ele>2133.1</ele>
        <time>2021-08-12T09:18:28Z</time>
      </trkpt>
      <trkpt lat="45.5047" lon="6.73853">
        <ele>2133.2</ele>
        <time>2021-08-12T09:18:29Z</time>
      </trkpt>
      <trkpt lat="45.5047" lon="6.73853">
        <ele>2133.2</ele>
        <time>2021-08-12T09:18:30Z</time>
      </trkpt>
      <trkpt lat="45.50469" lon="6.73853">
        <ele>2133.3</ele>
        <time>2021-08-12T09:18:31Z</time>
      </trkpt>
      <trkpt lat="45.50469" lon="6.73853">
        <ele>2133.4</ele>
        <time>2021-08-12T09:18:32Z</time>
      </trkpt>
      <trkpt lat="45.50469" lon="6.73853">
        <ele>2133.5</ele>
        <time>2021-08-12T09:18:33Z</time>
      </trkpt>
      <trkpt lat="45.50468" lon="6.73853">
        <ele>2133.7</ele>
        <time>2021-08-12T09:18:34Z</time>
      </trkpt>
      <trkpt lat="45.50468" lon="6.73853">
        <ele>2133.8</ele>
        <time>2021-08-12T09:18:35Z</time>
      </trkpt>
      <trkpt lat="45.50467" lon="6.73853">
        <ele>2134</ele>
        <time>2021-08-12T09:18:36Z</time>
      </trkpt>
      <trkpt lat="45.50466" lon="6.73853">
        <ele>2134.2</ele>
        <time>2021-08-12T09:18:37Z</time>
      </trkpt>
      <trkpt lat="45.50466" lon="6.73854">
        <ele>2134.4</ele>
        <time>2021-08-12T09:18:38Z</time>
      </trkpt>
      <trkpt lat="45.50465" lon="6.73854">
        <ele>2134.5</ele>
        <time>2021-08-12T09:18:39Z</time>
      </trkpt>
      <trkpt lat="45.50464" lon="6.73854">
        <ele>2134.7</ele>
        <time>2021-08-12T09:18:40Z</time>
      </trkpt>
      <trkpt lat="45.50464" lon="6.73854">
        <ele>2134.9</ele>
        <time>2021-08-12T09:18:41Z</time>
      </trkpt>
      <trkpt lat="45.50463" lon="6.73854">
        <ele>2135</ele>
        <time>2021-08-12T09:18:42Z</time>
      </trkpt>
      <trkpt lat="45.50463" lon="6.73854">
        <ele>2135.1</ele>
        <time>2021-08-12T09:18:43Z</time>
      </trkpt>
      <trkpt lat="45.50463" lon="6.73854">
        <ele>2135.2</ele>
        <time>2021-08-12T09:18:44Z</time>
      </trkpt>
      <trkpt lat="45.50462" lon="6.73854">
        <ele>2135.3</ele>
        <time>2021-08-12T09:18:45Z</time>
      </trkpt>
      <trkpt lat="45.50462" lon="6.73854">
        <ele>2135.3</ele>
        <time>2021-08-12T09:18:46Z</time>
      </trkpt>
      <trkpt lat="45.50462" lon="6.73854">
        <ele>2135.4</ele>
        <time>2021-08-12T09:18:47Z</time>
      </trkpt>
      <trkpt lat="45.50462" lon="6.73854">
        <ele>2135.4</ele>
        <time>2021-08-12T09:18:48Z</time>
      </trkpt>
      <trkpt lat="45.50462" lon="6.73854">
        <ele>2135.4</ele>
        <time>2021-08-12T09:18:49Z</time>
      </trkpt>
      <trkpt lat="45.50462" lon="6.73854">
        <ele>2135.4</ele>
        <time>2021-08-12T09:18:50Z</time>
      </trkpt>
      <trkpt lat="45.50462" lon="6.73854">
        <ele>2135.4</ele>
        <time>2021-08-12T09:18:51Z</time>
      </trkpt>
      <trkpt lat="45.50462" lon="6.73854">
        <ele>2135.4</ele>
        <time>2021-08-12T09:18:52Z</time>
      </trkpt>
      <trkpt lat="45.50462" lon="6.73854">
        <ele>2135.5</ele>
        <time>2021-08-12T09:18:53Z</time>
      </trkpt>
      <trkpt lat="45.50462" lon="6.73854">
        <ele>2135.5</ele>
        <time>2021-08-12T09:18:54Z</time>
      </trkpt>
      <trkpt lat="45.50462" lon="6.73854">
        <ele>2135.5</ele>
        <time>2021-08-12T09:18:55Z</time>
      </trkpt>
      <trkpt lat="45.50462" lon="6.73854">
        <ele>2135.5</ele>
        <time>2021-08-12T09:18:56Z</time>
      </trkpt>
      <trkpt lat="45.50462" lon="6.73854">
        <ele>2135.5</ele>
        <time>2021-08-12T09:18:57Z</time>
      </trkpt>
      <trkpt lat="45.50461" lon="6.73854">
        <ele>2135.5</ele>
        <time>2021-08-12T09:18:58Z</time>
      </trkpt>
      <trkpt lat="45.50461" lon="6.73855">
        <ele>2135.6</ele>
        <time>2021-08-12T09:18:59Z</time>
      </trkpt>
      <trkpt lat="45.50461" lon="6.73855">
        <ele>2135.6</ele>
        <time>2021-08-12T09:19:00Z</time>
      </trkpt>
      <trkpt lat="45.50461" lon="6.73855">
        <ele>2135.7</ele>
        <time>2021-08-12T09:19:01Z</time>
      </trkpt>
      <trkpt lat="45.50461" lon="6.73855">
        <ele>2135.8</ele>
        <time>2021-08-12T09:19:02Z</time>
      </trkpt>
      <trkpt lat="45.5046" lon="6.73855">
        <ele>2135.9</ele>
        <time>2021-08-12T09:19:03Z</time>
      </trkpt>
      <trkpt lat="45.5046" lon="6.73855">
        <ele>2135.9</ele>
        <time>2021-08-12T09:19:04Z</time>
      </trkpt>
      <trkpt lat="45.5046" lon="6.73856">
        <ele>2136.1</ele>
        <time>2021-08-12T09:19:05Z</time>
      </trkpt>
      <trkpt lat="45.50459" lon="6.73856">
        <ele>2136.1</ele>
        <time>2021-08-12T09:19:06Z</time>
      </trkpt>
      <trkpt lat="45.50459" lon="6.73856">
        <ele>2136.3</ele>
        <time>2021-08-12T09:19:07Z</time>
      </trkpt>
      <trkpt lat="45.50459" lon="6.73856">
        <ele>2136.4</ele>
        <time>2021-08-12T09:19:08Z</time>
      </trkpt>
      <trkpt lat="45.50458" lon="6.73857">
        <ele>2136.5</ele>
        <time>2021-08-12T09:19:09Z</time>
      </trkpt>
      <trkpt lat="45.50458" lon="6.73857">
        <ele>2136.6</ele>
        <time>2021-08-12T09:19:10Z</time>
      </trkpt>
      <trkpt lat="45.50457" lon="6.73857">
        <ele>2136.7</ele>
        <time>2021-08-12T09:19:11Z</time>
      </trkpt>
      <trkpt lat="45.50457" lon="6.73857">
        <ele>2136.9</ele>
        <time>2021-08-12T09:19:12Z</time>
      </trkpt>
      <trkpt lat="45.50457" lon="6.73858">
        <ele>2137</ele>
        <time>2021-08-12T09:19:13Z</time>
      </trkpt>
      <trkpt lat="45.50456" lon="6.73858">
        <ele>2137</ele>
        <time>2021-08-12T09:19:14Z</time>
      </trkpt>
      <trkpt lat="45.50456" lon="6.73858">
        <ele>2137.2</ele>
        <time>2021-08-12T09:19:15Z</time>
      </trkpt>
      <trkpt lat="45.50456" lon="6.73858">
        <ele>2137.2</ele>
        <time>2021-08-12T09:19:16Z</time>
      </trkpt>
      <trkpt lat="45.50455" lon="6.73858">
        <ele>2137.3</ele>
        <time>2021-08-12T09:19:17Z</time>
      </trkpt>
      <trkpt lat="45.50455" lon="6.73858">
        <ele>2137.3</ele>
        <time>2021-08-12T09:19:18Z</time>
      </trkpt>
      <trkpt lat="45.50455" lon="6.73858">
        <ele>2137.4</ele>
        <time>2021-08-12T09:19:19Z</time>
      </trkpt>
      <trkpt lat="45.50455" lon="6.73858">
        <ele>2137.4</ele>
        <time>2021-08-12T09:19:20Z</time>
      </trkpt>
      <trkpt lat="45.50455" lon="6.73858">
        <ele>2137.4</ele>
        <time>2021-08-12T09:19:21Z</time>
      </trkpt>
      <trkpt lat="45.50455" lon="6.73858">
        <ele>2137.4</ele>
        <time>2021-08-12T09:19:22Z</time>
      </trkpt>
      <trkpt lat="45.50455" lon="6.73858">
        <ele>2137.5</ele>
        <time>2021-08-12T09:19:23Z</time>
      </trkpt>
      <trkpt lat="45.50455" lon="6.73858">
        <ele>2137.5</ele>
        <time>2021-08-12T09:19:24Z</time>
      </trkpt>
      <trkpt lat="45.50455" lon="6.73858">
        <ele>2137.5</ele>
        <time>2021-08-12T09:19:25Z</time>
      </trkpt>
      <trkpt lat="45.50455" lon="6.73859">
        <ele>2137.5</ele>
        <time>2021-08-12T09:19:26Z</time>
      </trkpt>
      <trkpt lat="45.50455" lon="6.73859">
        <ele>2137.5</ele>
        <time>2021-08-12T09:19:27Z</time>
      </trkpt>
      <trkpt lat="45.50455" lon="6.73859">
        <ele>2137.5</ele>
        <time>2021-08-12T09:19:28Z</time>
      </trkpt>
      <trkpt lat="45.50455" lon="6.73859">
        <ele>2137.6</ele>
        <time>2021-08-12T09:19:29Z</time>
      </trkpt>
      <trkpt lat="45.50454" lon="6.7386">
        <ele>2137.7</ele>
        <time>2021-08-12T09:19:30Z</time>
      </trkpt>
      <trkpt lat="45.50454" lon="6.7386">
        <ele>2137.9</ele>
        <time>2021-08-12T09:19:31Z</time>
      </trkpt>
      <trkpt lat="45.50453" lon="6.73861">
        <ele>2138</ele>
        <time>2021-08-12T09:19:32Z</time>
      </trkpt>
      <trkpt lat="45.50453" lon="6.73862">
        <ele>2138.2</ele>
        <time>2021-08-12T09:19:33Z</time>
      </trkpt>
      <trkpt lat="45.50452" lon="6.73862">
        <ele>2138.3</ele>
        <time>2021-08-12T09:19:34Z</time>
      </trkpt>
      <trkpt lat="45.50452" lon="6.73863">
        <ele>2138.5</ele>
        <time>2021-08-12T09:19:35Z</time>
      </trkpt>
      <trkpt lat="45.50452" lon="6.73863">
        <ele>2138.6</ele>
        <time>2021-08-12T09:19:36Z</time>
      </trkpt>
      <trkpt lat="45.50451" lon="6.73864">
        <ele>2138.7</ele>
        <time>2021-08-12T09:19:37Z</time>
      </trkpt>
      <trkpt lat="45.50451" lon="6.73864">
        <ele>2138.8</ele>
        <time>2021-08-12T09:19:38Z</time>
      </trkpt>
      <trkpt lat="45.50451" lon="6.73864">
        <ele>2138.9</ele>
        <time>2021-08-12T09:19:39Z</time>
      </trkpt>
      <trkpt lat="45.5045" lon="6.73864">
        <ele>2138.9</ele>
        <time>2021-08-12T09:19:40Z</time>
      </trkpt>
      <trkpt lat="45.5045" lon="6.73864">
        <ele>2139</ele>
        <time>2021-08-12T09:19:41Z</time>
      </trkpt>
      <trkpt lat="45.5045" lon="6.73865">
        <ele>2139</ele>
        <time>2021-08-12T09:19:42Z</time>
      </trkpt>
      <trkpt lat="45.5045" lon="6.73865">
        <ele>2139</ele>
        <time>2021-08-12T09:19:43Z</time>
      </trkpt>
      <trkpt lat="45.5045" lon="6.73865">
        <ele>2139</ele>
        <time>2021-08-12T09:19:44Z</time>
      </trkpt>
      <trkpt lat="45.5045" lon="6.73865">
        <ele>2139</ele>
        <time>2021-08-12T09:19:45Z</time>
      </trkpt>
      <trkpt lat="45.5045" lon="6.73865">
        <ele>2139</ele>
        <time>2021-08-12T09:19:46Z</time>
      </trkpt>
      <trkpt lat="45.5045" lon="6.73865">
        <ele>2139.1</ele>
        <time>2021-08-12T09:19:47Z</time>
      </trkpt>
      <trkpt lat="45.5045" lon="6.73865">
        <ele>2139.1</ele>
        <time>2021-08-12T09:19:48Z</time>
      </trkpt>
      <trkpt lat="45.5045" lon="6.73865">
        <ele>2139.1</ele>
        <time>2021-08-12T09:19:49Z</time>
      </trkpt>
      <trkpt lat="45.5045" lon="6.73865">
        <ele>2139.1</ele>
        <time>2021-08-12T09:19:50Z</time>
      </trkpt>
      <trkpt lat="45.5045" lon="6.73865">
        <ele>2139.1</ele>
        <time>2021-08-12T09:19:51Z</time>
      </trkpt>
      <trkpt lat="45.5045" lon="6.73865">
        <ele>2139.1</ele>
        <time>2021-08-12T09:19:52Z</time>
      </trkpt>
      <trkpt lat="45.5045" lon="6.73865">
        <ele>2139.1</ele>
        <time>2021-08-12T09:19:53Z</time>
      </trkpt>
      <trkpt lat="45.5045" lon="6.73865">
        <ele>2139.1</ele>
        <time>2021-08-12T09:19:54Z</time>
      </trkpt>
      <trkpt lat="45.5045" lon="6.73865">
        <ele>2139.1</ele>
        <time>2021-08-12T09:19:55Z</time>
      </trkpt>
      <trkpt lat="45.5045" lon="6.73865">
        <ele>2139.1</ele>
        <time>2021-08-12T09:19:56Z</time>
      </trkpt>
      <trkpt lat="45.5045" lon="6.73865">
        <ele>2139.2</ele>
        <time>2021-08-12T09:19:57Z</time>
      </trkpt>
      <trkpt lat="45.5045" lon="6.73865">
        <ele>2139.2</ele>
        <time>2021-08-12T09:19:58Z</time>
      </trkpt>
      <trkpt lat="45.5045" lon="6.73865">
        <ele>2139.2</ele>
        <time>2021-08-12T09:19:59Z</time>
      </trkpt>
      <trkpt lat="45.50449" lon="6.73865">
        <ele>2139.3</ele>
        <time>2021-08-12T09:20:00Z</time>
      </trkpt>
      <trkpt lat="45.50449" lon="6.73865">
        <ele>2139.3</ele>
        <time>2021-08-12T09:20:01Z</time>
      </trkpt>
      <trkpt lat="45.50449" lon="6.73865">
        <ele>2139.4</ele>
        <time>2021-08-12T09:20:02Z</time>
      </trkpt>
      <trkpt lat="45.50449" lon="6.73865">
        <ele>2139.5</ele>
        <time>2021-08-12T09:20:03Z</time>
      </trkpt>
      <trkpt lat="45.50448" lon="6.73866">
        <ele>2139.6</ele>
        <time>2021-08-12T09:20:04Z</time>
      </trkpt>
      <trkpt lat="45.50448" lon="6.73866">
        <ele>2139.7</ele>
        <time>2021-08-12T09:20:05Z</time>
      </trkpt>
      <trkpt lat="45.50448" lon="6.73866">
        <ele>2139.8</ele>
        <time>2021-08-12T09:20:06Z</time>
      </trkpt>
      <trkpt lat="45.50447" lon="6.73866">
        <ele>2139.9</ele>
        <time>2021-08-12T09:20:07Z</time>
      </trkpt>
      <trkpt lat="45.50447" lon="6.73867">
        <ele>2140</ele>
        <time>2021-08-12T09:20:08Z</time>
      </trkpt>
      <trkpt lat="45.50447" lon="6.73867">
        <ele>2140.1</ele>
        <time>2021-08-12T09:20:09Z</time>
      </trkpt>
      <trkpt lat="45.50446" lon="6.73868">
        <ele>2140.2</ele>
        <time>2021-08-12T09:20:10Z</time>
      </trkpt>
      <trkpt lat="45.50446" lon="6.73868">
        <ele>2140.2</ele>
        <time>2021-08-12T09:20:11Z</time>
      </trkpt>
      <trkpt lat="45.50446" lon="6.73869">
        <ele>2140.4</ele>
        <time>2021-08-12T09:20:12Z</time>
      </trkpt>
      <trkpt lat="45.50446" lon="6.73869">
        <ele>2140.5</ele>
        <time>2021-08-12T09:20:13Z</time>
      </trkpt>
      <trkpt lat="45.50445" lon="6.7387">
        <ele>2140.5</ele>
        <time>2021-08-12T09:20:14Z</time>
      </trkpt>
      <trkpt lat="45.50445" lon="6.7387">
        <ele>2140.7</ele>
        <time>2021-08-12T09:20:15Z</time>
      </trkpt>
      <trkpt lat="45.50445" lon="6.73871">
        <ele>2140.8</ele>
        <time>2021-08-12T09:20:16Z</time>
      </trkpt>
      <trkpt lat="45.50445" lon="6.73872">
        <ele>2140.9</ele>
        <time>2021-08-12T09:20:17Z</time>
      </trkpt>
      <trkpt lat="45.50444" lon="6.73872">
        <ele>2141</ele>
        <time>2021-08-12T09:20:18Z</time>
      </trkpt>
      <trkpt lat="45.50444" lon="6.73873">
        <ele>2141.1</ele>
        <time>2021-08-12T09:20:19Z</time>
      </trkpt>
      <trkpt lat="45.50444" lon="6.73874">
        <ele>2141.3</ele>
        <time>2021-08-12T09:20:20Z</time>
      </trkpt>
      <trkpt lat="45.50443" lon="6.73874">
        <ele>2141.4</ele>
        <time>2021-08-12T09:20:21Z</time>
      </trkpt>
      <trkpt lat="45.50443" lon="6.73875">
        <ele>2141.5</ele>
        <time>2021-08-12T09:20:22Z</time>
      </trkpt>
      <trkpt lat="45.50443" lon="6.73875">
        <ele>2141.6</ele>
        <time>2021-08-12T09:20:23Z</time>
      </trkpt>
      <trkpt lat="45.50442" lon="6.73876">
        <ele>2141.8</ele>
        <time>2021-08-12T09:20:24Z</time>
      </trkpt>
      <trkpt lat="45.50442" lon="6.73877">
        <ele>2141.9</ele>
        <time>2021-08-12T09:20:25Z</time>
      </trkpt>
      <trkpt lat="45.50441" lon="6.73877">
        <ele>2142</ele>
        <time>2021-08-12T09:20:26Z</time>
      </trkpt>
      <trkpt lat="45.50441" lon="6.73878">
        <ele>2142.2</ele>
        <time>2021-08-12T09:20:27Z</time>
      </trkpt>
      <trkpt lat="45.50441" lon="6.73878">
        <ele>2142.3</ele>
        <time>2021-08-12T09:20:28Z</time>
      </trkpt>
      <trkpt lat="45.5044" lon="6.73879">
        <ele>2142.4</ele>
        <time>2021-08-12T09:20:29Z</time>
      </trkpt>
      <trkpt lat="45.5044" lon="6.73879">
        <ele>2142.5</ele>
        <time>2021-08-12T09:20:30Z</time>
      </trkpt>
      <trkpt lat="45.50439" lon="6.7388">
        <ele>2142.7</ele>
        <time>2021-08-12T09:20:31Z</time>
      </trkpt>
      <trkpt lat="45.50439" lon="6.7388">
        <ele>2142.8</ele>
        <time>2021-08-12T09:20:32Z</time>
      </trkpt>
      <trkpt lat="45.50439" lon="6.73881">
        <ele>2142.9</ele>
        <time>2021-08-12T09:20:33Z</time>
      </trkpt>
      <trkpt lat="45.50438" lon="6.73881">
        <ele>2143</ele>
        <time>2021-08-12T09:20:34Z</time>
      </trkpt>
      <trkpt lat="45.50438" lon="6.73881">
        <ele>2143</ele>
        <time>2021-08-12T09:20:35Z</time>
      </trkpt>
      <trkpt lat="45.50438" lon="6.73882">
        <ele>2143.1</ele>
        <time>2021-08-12T09:20:36Z</time>
      </trkpt>
      <trkpt lat="45.50437" lon="6.73882">
        <ele>2143.2</ele>
        <time>2021-08-12T09:20:37Z</time>
      </trkpt>
      <trkpt lat="45.50437" lon="6.73882">
        <ele>2143.2</ele>
        <time>2021-08-12T09:20:38Z</time>
      </trkpt>
      <trkpt lat="45.50437" lon="6.73882">
        <ele>2143.3</ele>
        <time>2021-08-12T09:20:39Z</time>
      </trkpt>
      <trkpt lat="45.50437" lon="6.73883">
        <ele>2143.3</ele>
        <time>2021-08-12T09:20:40Z</time>
      </trkpt>
      <trkpt lat="45.50437" lon="6.73883">
        <ele>2143.3</ele>
        <time>2021-08-12T09:20:41Z</time>
      </trkpt>
      <trkpt lat="45.50437" lon="6.73883">
        <ele>2143.4</ele>
        <time>2021-08-12T09:20:42Z</time>
      </trkpt>
      <trkpt lat="45.50437" lon="6.73883">
        <ele>2143.4</ele>
        <time>2021-08-12T09:20:43Z</time>
      </trkpt>
      <trkpt lat="45.50437" lon="6.73883">
        <ele>2143.4</ele>
        <time>2021-08-12T09:20:44Z</time>
      </trkpt>
      <trkpt lat="45.50437" lon="6.73883">
        <ele>2143.4</ele>
        <time>2021-08-12T09:20:45Z</time>
      </trkpt>
      <trkpt lat="45.50437" lon="6.73883">
        <ele>2143.4</ele>
        <time>2021-08-12T09:20:46Z</time>
      </trkpt>
      <trkpt lat="45.50437" lon="6.73883">
        <ele>2143.4</ele>
        <time>2021-08-12T09:20:47Z</time>
      </trkpt>
      <trkpt lat="45.50437" lon="6.73883">
        <ele>2143.4</ele>
        <time>2021-08-12T09:20:48Z</time>
      </trkpt>
      <trkpt lat="45.50437" lon="6.73883">
        <ele>2143.4</ele>
        <time>2021-08-12T09:20:49Z</time>
      </trkpt>
      <trkpt lat="45.50437" lon="6.73883">
        <ele>2143.4</ele>
        <time>2021-08-12T09:20:50Z</time>
      </trkpt>
      <trkpt lat="45.50437" lon="6.73883">
        <ele>2143.5</ele>
        <time>2021-08-12T09:20:51Z</time>
      </trkpt>
      <trkpt lat="45.50437" lon="6.73883">
        <ele>2143.5</ele>
        <time>2021-08-12T09:20:52Z</time>
      </trkpt>
      <trkpt lat="45.50437" lon="6.73883">
        <ele>2143.5</ele>
        <time>2021-08-12T09:20:53Z</time>
      </trkpt>
      <trkpt lat="45.50437" lon="6.73882">
        <ele>2143.5</ele>
        <time>2021-08-12T09:20:54Z</time>
      </trkpt>
      <trkpt lat="45.50437" lon="6.73882">
        <ele>2143.5</ele>
        <time>2021-08-12T09:20:55Z</time>
      </trkpt>
      <trkpt lat="45.50437" lon="6.73882">
        <ele>2143.6</ele>
        <time>2021-08-12T09:20:56Z</time>
      </trkpt>
      <trkpt lat="45.50436" lon="6.73882">
        <ele>2143.6</ele>
        <time>2021-08-12T09:20:57Z</time>
      </trkpt>
      <trkpt lat="45.50436" lon="6.73882">
        <ele>2143.6</ele>
        <time>2021-08-12T09:20:58Z</time>
      </trkpt>
      <trkpt lat="45.50436" lon="6.73882">
        <ele>2143.7</ele>
        <time>2021-08-12T09:20:59Z</time>
      </trkpt>
      <trkpt lat="45.50436" lon="6.73882">
        <ele>2143.7</ele>
        <time>2021-08-12T09:21:00Z</time>
      </trkpt>
      <trkpt lat="45.50435" lon="6.73882">
        <ele>2143.8</ele>
        <time>2021-08-12T09:21:01Z</time>
      </trkpt>
      <trkpt lat="45.50435" lon="6.73882">
        <ele>2143.9</ele>
        <time>2021-08-12T09:21:02Z</time>
      </trkpt>
      <trkpt lat="45.50435" lon="6.73882">
        <ele>2143.9</ele>
        <time>2021-08-12T09:21:03Z</time>
      </trkpt>
      <trkpt lat="45.50434" lon="6.73882">
        <ele>2144</ele>
        <time>2021-08-12T09:21:04Z</time>
      </trkpt>
      <trkpt lat="45.50434" lon="6.73882">
        <ele>2144</ele>
        <time>2021-08-12T09:21:05Z</time>
      </trkpt>
      <trkpt lat="45.50434" lon="6.73882">
        <ele>2144.1</ele>
        <time>2021-08-12T09:21:06Z</time>
      </trkpt>
      <trkpt lat="45.50433" lon="6.73882">
        <ele>2144.2</ele>
        <time>2021-08-12T09:21:07Z</time>
      </trkpt>
      <trkpt lat="45.50433" lon="6.73882">
        <ele>2144.2</ele>
        <time>2021-08-12T09:21:08Z</time>
      </trkpt>
      <trkpt lat="45.50433" lon="6.73882">
        <ele>2144.3</ele>
        <time>2021-08-12T09:21:09Z</time>
      </trkpt>
      <trkpt lat="45.50433" lon="6.73882">
        <ele>2144.3</ele>
        <time>2021-08-12T09:21:10Z</time>
      </trkpt>
      <trkpt lat="45.50432" lon="6.73882">
        <ele>2144.4</ele>
        <time>2021-08-12T09:21:11Z</time>
      </trkpt>
      <trkpt lat="45.50432" lon="6.73882">
        <ele>2144.4</ele>
        <time>2021-08-12T09:21:12Z</time>
      </trkpt>
      <trkpt lat="45.50432" lon="6.73882">
        <ele>2144.5</ele>
        <time>2021-08-12T09:21:13Z</time>
      </trkpt>
      <trkpt lat="45.50432" lon="6.73882">
        <ele>2144.5</ele>
        <time>2021-08-12T09:21:14Z</time>
      </trkpt>
      <trkpt lat="45.50431" lon="6.73882">
        <ele>2144.6</ele>
        <time>2021-08-12T09:21:15Z</time>
      </trkpt>
      <trkpt lat="45.50431" lon="6.73882">
        <ele>2144.6</ele>
        <time>2021-08-12T09:21:16Z</time>
      </trkpt>
      <trkpt lat="45.50431" lon="6.73882">
        <ele>2144.7</ele>
        <time>2021-08-12T09:21:17Z</time>
      </trkpt>
      <trkpt lat="45.50431" lon="6.73882">
        <ele>2144.7</ele>
        <time>2021-08-12T09:21:18Z</time>
      </trkpt>
      <trkpt lat="45.5043" lon="6.73882">
        <ele>2144.8</ele>
        <time>2021-08-12T09:21:19Z</time>
      </trkpt>
      <trkpt lat="45.5043" lon="6.73882">
        <ele>2144.8</ele>
        <time>2021-08-12T09:21:20Z</time>
      </trkpt>
      <trkpt lat="45.5043" lon="6.73882">
        <ele>2144.9</ele>
        <time>2021-08-12T09:21:21Z</time>
      </trkpt>
      <trkpt lat="45.50429" lon="6.73882">
        <ele>2144.9</ele>
        <time>2021-08-12T09:21:22Z</time>
      </trkpt>
      <trkpt lat="45.50429" lon="6.73882">
        <ele>2145</ele>
        <time>2021-08-12T09:21:23Z</time>
      </trkpt>
      <trkpt lat="45.50429" lon="6.73882">
        <ele>2145.1</ele>
        <time>2021-08-12T09:21:24Z</time>
      </trkpt>
      <trkpt lat="45.50428" lon="6.73882">
        <ele>2145.1</ele>
        <time>2021-08-12T09:21:25Z</time>
      </trkpt>
      <trkpt lat="45.50428" lon="6.73882">
        <ele>2145.2</ele>
        <time>2021-08-12T09:21:26Z</time>
      </trkpt>
      <trkpt lat="45.50428" lon="6.73882">
        <ele>2145.2</ele>
        <time>2021-08-12T09:21:27Z</time>
      </trkpt>
      <trkpt lat="45.50427" lon="6.73882">
        <ele>2145.3</ele>
        <time>2021-08-12T09:21:28Z</time>
      </trkpt>
      <trkpt lat="45.50427" lon="6.73882">
        <ele>2145.4</ele>
        <time>2021-08-12T09:21:29Z</time>
      </trkpt>
      <trkpt lat="45.50426" lon="6.73882">
        <ele>2145.5</ele>
        <time>2021-08-12T09:21:30Z</time>
      </trkpt>
      <trkpt lat="45.50426" lon="6.73883">
        <ele>2145.6</ele>
        <time>2021-08-12T09:21:31Z</time>
      </trkpt>
      <trkpt lat="45.50425" lon="6.73883">
        <ele>2145.6</ele>
        <time>2021-08-12T09:21:32Z</time>
      </trkpt>
      <trkpt lat="45.50425" lon="6.73884">
        <ele>2145.7</ele>
        <time>2021-08-12T09:21:33Z</time>
      </trkpt>
      <trkpt lat="45.50425" lon="6.73884">
        <ele>2145.8</ele>
        <time>2021-08-12T09:21:34Z</time>
      </trkpt>
      <trkpt lat="45.50424" lon="6.73884">
        <ele>2145.9</ele>
        <time>2021-08-12T09:21:35Z</time>
      </trkpt>
      <trkpt lat="45.50424" lon="6.73885">
        <ele>2146</ele>
        <time>2021-08-12T09:21:36Z</time>
      </trkpt>
      <trkpt lat="45.50423" lon="6.73885">
        <ele>2146</ele>
        <time>2021-08-12T09:21:37Z</time>
      </trkpt>
      <trkpt lat="45.50423" lon="6.73886">
        <ele>2146.1</ele>
        <time>2021-08-12T09:21:38Z</time>
      </trkpt>
      <trkpt lat="45.50422" lon="6.73886">
        <ele>2146.2</ele>
        <time>2021-08-12T09:21:39Z</time>
      </trkpt>
      <trkpt lat="45.50422" lon="6.73887">
        <ele>2146.3</ele>
        <time>2021-08-12T09:21:40Z</time>
      </trkpt>
      <trkpt lat="45.50421" lon="6.73887">
        <ele>2146.3</ele>
        <time>2021-08-12T09:21:41Z</time>
      </trkpt>
      <trkpt lat="45.50421" lon="6.73887">
        <ele>2146.4</ele>
        <time>2021-08-12T09:21:42Z</time>
      </trkpt>
      <trkpt lat="45.50421" lon="6.73888">
        <ele>2146.5</ele>
        <time>2021-08-12T09:21:43Z</time>
      </trkpt>
      <trkpt lat="45.5042" lon="6.73888">
        <ele>2146.5</ele>
        <time>2021-08-12T09:21:44Z</time>
      </trkpt>
      <trkpt lat="45.5042" lon="6.73888">
        <ele>2146.6</ele>
        <time>2021-08-12T09:21:45Z</time>
      </trkpt>
      <trkpt lat="45.50419" lon="6.73888">
        <ele>2146.6</ele>
        <time>2021-08-12T09:21:46Z</time>
      </trkpt>
      <trkpt lat="45.50419" lon="6.73889">
        <ele>2146.7</ele>
        <time>2021-08-12T09:21:47Z</time>
      </trkpt>
      <trkpt lat="45.50419" lon="6.73889">
        <ele>2146.7</ele>
        <time>2021-08-12T09:21:48Z</time>
      </trkpt>
      <trkpt lat="45.50418" lon="6.73889">
        <ele>2146.8</ele>
        <time>2021-08-12T09:21:49Z</time>
      </trkpt>
      <trkpt lat="45.50418" lon="6.73889">
        <ele>2146.8</ele>
        <time>2021-08-12T09:21:50Z</time>
      </trkpt>
      <trkpt lat="45.50418" lon="6.73889">
        <ele>2146.9</ele>
        <time>2021-08-12T09:21:51Z</time>
      </trkpt>
      <trkpt lat="45.50418" lon="6.73889">
        <ele>2146.9</ele>
        <time>2021-08-12T09:21:52Z</time>
      </trkpt>
      <trkpt lat="45.50417" lon="6.73889">
        <ele>2146.9</ele>
        <time>2021-08-12T09:21:53Z</time>
      </trkpt>
      <trkpt lat="45.50417" lon="6.73889">
        <ele>2147</ele>
        <time>2021-08-12T09:21:54Z</time>
      </trkpt>
      <trkpt lat="45.50417" lon="6.73889">
        <ele>2147</ele>
        <time>2021-08-12T09:21:55Z</time>
      </trkpt>
      <trkpt lat="45.50417" lon="6.73889">
        <ele>2147</ele>
        <time>2021-08-12T09:21:56Z</time>
      </trkpt>
      <trkpt lat="45.50416" lon="6.73888">
        <ele>2147.1</ele>
        <time>2021-08-12T09:21:57Z</time>
      </trkpt>
      <trkpt lat="45.50416" lon="6.73888">
        <ele>2147.1</ele>
        <time>2021-08-12T09:21:58Z</time>
      </trkpt>
      <trkpt lat="45.50416" lon="6.73888">
        <ele>2147.1</ele>
        <time>2021-08-12T09:21:59Z</time>
      </trkpt>
      <trkpt lat="45.50416" lon="6.73888">
        <ele>2147.2</ele>
        <time>2021-08-12T09:22:00Z</time>
      </trkpt>
      <trkpt lat="45.50416" lon="6.73887">
        <ele>2147.2</ele>
        <time>2021-08-12T09:22:01Z</time>
      </trkpt>
      <trkpt lat="45.50416" lon="6.73887">
        <ele>2147.2</ele>
        <time>2021-08-12T09:22:02Z</time>
      </trkpt>
      <trkpt lat="45.50416" lon="6.73887">
        <ele>2147.2</ele>
        <time>2021-08-12T09:22:03Z</time>
      </trkpt>
      <trkpt lat="45.50416" lon="6.73886">
        <ele>2147.3</ele>
        <time>2021-08-12T09:22:04Z</time>
      </trkpt>
      <trkpt lat="45.50416" lon="6.73886">
        <ele>2147.3</ele>
        <time>2021-08-12T09:22:05Z</time>
      </trkpt>
      <trkpt lat="45.50416" lon="6.73886">
        <ele>2147.3</ele>
        <time>2021-08-12T09:22:06Z</time>
      </trkpt>
      <trkpt lat="45.50416" lon="6.73886">
        <ele>2147.3</ele>
        <time>2021-08-12T09:22:07Z</time>
      </trkpt>
      <trkpt lat="45.50415" lon="6.73886">
        <ele>2147.3</ele>
        <time>2021-08-12T09:22:08Z</time>
      </trkpt>
      <trkpt lat="45.50416" lon="6.73886">
        <ele>2147.4</ele>
        <time>2021-08-12T09:22:09Z</time>
      </trkpt>
      <trkpt lat="45.50416" lon="6.73886">
        <ele>2147.4</ele>
        <time>2021-08-12T09:22:10Z</time>
      </trkpt>
      <trkpt lat="45.50416" lon="6.73886">
        <ele>2147.4</ele>
        <time>2021-08-12T09:22:11Z</time>
      </trkpt>
      <trkpt lat="45.50416" lon="6.73886">
        <ele>2147.4</ele>
        <time>2021-08-12T09:22:12Z</time>
      </trkpt>
      <trkpt lat="45.50416" lon="6.73886">
        <ele>2147.4</ele>
        <time>2021-08-12T09:22:13Z</time>
      </trkpt>
      <trkpt lat="45.50416" lon="6.73886">
        <ele>2147.4</ele>
        <time>2021-08-12T09:22:14Z</time>
      </trkpt>
      <trkpt lat="45.50416" lon="6.73886">
        <ele>2147.4</ele>
        <time>2021-08-12T09:22:15Z</time>
      </trkpt>
      <trkpt lat="45.50416" lon="6.73885">
        <ele>2147.4</ele>
        <time>2021-08-12T09:22:16Z</time>
      </trkpt>
      <trkpt lat="45.50416" lon="6.73885">
        <ele>2147.4</ele>
        <time>2021-08-12T09:22:17Z</time>
      </trkpt>
      <trkpt lat="45.50416" lon="6.73885">
        <ele>2147.4</ele>
        <time>2021-08-12T09:22:18Z</time>
      </trkpt>
      <trkpt lat="45.50416" lon="6.73884">
        <ele>2147.5</ele>
        <time>2021-08-12T09:22:19Z</time>
      </trkpt>
      <trkpt lat="45.50416" lon="6.73883">
        <ele>2147.6</ele>
        <time>2021-08-12T09:22:20Z</time>
      </trkpt>
      <trkpt lat="45.50416" lon="6.73882">
        <ele>2147.7</ele>
        <time>2021-08-12T09:22:21Z</time>
      </trkpt>
      <trkpt lat="45.50417" lon="6.73881">
        <ele>2147.8</ele>
        <time>2021-08-12T09:22:22Z</time>
      </trkpt>
      <trkpt lat="45.50417" lon="6.7388">
        <ele>2147.9</ele>
        <time>2021-08-12T09:22:23Z</time>
      </trkpt>
      <trkpt lat="45.50418" lon="6.73879">
        <ele>2148</ele>
        <time>2021-08-12T09:22:24Z</time>
      </trkpt>
      <trkpt lat="45.50418" lon="6.73878">
        <ele>2148.1</ele>
        <time>2021-08-12T09:22:25Z</time>
      </trkpt>
      <trkpt lat="45.50418" lon="6.73877">
        <ele>2148.2</ele>
        <time>2021-08-12T09:22:26Z</time>
      </trkpt>
      <trkpt lat="45.50419" lon="6.73876">
        <ele>2148.3</ele>
        <time>2021-08-12T09:22:27Z</time>
      </trkpt>
      <trkpt lat="45.50419" lon="6.73876">
        <ele>2148.3</ele>
        <time>2021-08-12T09:22:28Z</time>
      </trkpt>
      <trkpt lat="45.50419" lon="6.73875">
        <ele>2148.4</ele>
        <time>2021-08-12T09:22:29Z</time>
      </trkpt>
      <trkpt lat="45.5042" lon="6.73875">
        <ele>2148.4</ele>
        <time>2021-08-12T09:22:30Z</time>
      </trkpt>
      <trkpt lat="45.5042" lon="6.73875">
        <ele>2148.5</ele>
        <time>2021-08-12T09:22:31Z</time>
      </trkpt>
      <trkpt lat="45.5042" lon="6.73874">
        <ele>2148.5</ele>
        <time>2021-08-12T09:22:32Z</time>
      </trkpt>
      <trkpt lat="45.5042" lon="6.73874">
        <ele>2148.5</ele>
        <time>2021-08-12T09:22:33Z</time>
      </trkpt>
      <trkpt lat="45.5042" lon="6.73874">
        <ele>2148.5</ele>
        <time>2021-08-12T09:22:34Z</time>
      </trkpt>
      <trkpt lat="45.5042" lon="6.73874">
        <ele>2148.5</ele>
        <time>2021-08-12T09:22:35Z</time>
      </trkpt>
      <trkpt lat="45.5042" lon="6.73874">
        <ele>2148.5</ele>
        <time>2021-08-12T09:22:36Z</time>
      </trkpt>
      <trkpt lat="45.5042" lon="6.73874">
        <ele>2148.5</ele>
        <time>2021-08-12T09:22:37Z</time>
      </trkpt>
      <trkpt lat="45.5042" lon="6.73874">
        <ele>2148.5</ele>
        <time>2021-08-12T09:22:38Z</time>
      </trkpt>
      <trkpt lat="45.5042" lon="6.73874">
        <ele>2148.5</ele>
        <time>2021-08-12T09:22:39Z</time>
      </trkpt>
      <trkpt lat="45.5042" lon="6.73874">
        <ele>2148.5</ele>
        <time>2021-08-12T09:22:40Z</time>
      </trkpt>
      <trkpt lat="45.5042" lon="6.73874">
        <ele>2148.5</ele>
        <time>2021-08-12T09:22:41Z</time>
      </trkpt>
      <trkpt lat="45.5042" lon="6.73874">
        <ele>2148.6</ele>
        <time>2021-08-12T09:22:42Z</time>
      </trkpt>
      <trkpt lat="45.5042" lon="6.73874">
        <ele>2148.6</ele>
        <time>2021-08-12T09:22:43Z</time>
      </trkpt>
      <trkpt lat="45.5042" lon="6.73873">
        <ele>2148.6</ele>
        <time>2021-08-12T09:22:44Z</time>
      </trkpt>
      <trkpt lat="45.5042" lon="6.73873">
        <ele>2148.7</ele>
        <time>2021-08-12T09:22:45Z</time>
      </trkpt>
      <trkpt lat="45.5042" lon="6.73872">
        <ele>2148.7</ele>
        <time>2021-08-12T09:22:46Z</time>
      </trkpt>
      <trkpt lat="45.50421" lon="6.73872">
        <ele>2148.8</ele>
        <time>2021-08-12T09:22:47Z</time>
      </trkpt>
      <trkpt lat="45.50421" lon="6.73871">
        <ele>2148.8</ele>
        <time>2021-08-12T09:22:48Z</time>
      </trkpt>
      <trkpt lat="45.50421" lon="6.73871">
        <ele>2148.9</ele>
        <time>2021-08-12T09:22:49Z</time>
      </trkpt>
      <trkpt lat="45.50421" lon="6.7387">
        <ele>2149</ele>
        <time>2021-08-12T09:22:50Z</time>
      </trkpt>
      <trkpt lat="45.50421" lon="6.73869">
        <ele>2149.1</ele>
        <time>2021-08-12T09:22:51Z</time>
      </trkpt>
      <trkpt lat="45.50422" lon="6.73868">
        <ele>2149.1</ele>
        <time>2021-08-12T09:22:52Z</time>
      </trkpt>
      <trkpt lat="45.50422" lon="6.73868">
        <ele>2149.2</ele>
        <time>2021-08-12T09:22:53Z</time>
      </trkpt>
      <trkpt lat="45.50422" lon="6.73867">
        <ele>2149.3</ele>
        <time>2021-08-12T09:22:54Z</time>
      </trkpt>
      <trkpt lat="45.50422" lon="6.73867">
        <ele>2149.3</ele>
        <time>2021-08-12T09:22:55Z</time>
      </trkpt>
      <trkpt lat="45.50422" lon="6.73867">
        <ele>2149.3</ele>
        <time>2021-08-12T09:22:56Z</time>
      </trkpt>
      <trkpt lat="45.50422" lon="6.73866">
        <ele>2149.4</ele>
        <time>2021-08-12T09:22:57Z</time>
      </trkpt>
      <trkpt lat="45.50422" lon="6.73866">
        <ele>2149.4</ele>
        <time>2021-08-12T09:22:58Z</time>
      </trkpt>
      <trkpt lat="45.50422" lon="6.73866">
        <ele>2149.4</ele>
        <time>2021-08-12T09:22:59Z</time>
      </trkpt>
      <trkpt lat="45.50422" lon="6.73866">
        <ele>2149.4</ele>
        <time>2021-08-12T09:23:00Z</time>
      </trkpt>
      <trkpt lat="45.50422" lon="6.73866">
        <ele>2149.4</ele>
        <time>2021-08-12T09:23:01Z</time>
      </trkpt>
      <trkpt lat="45.50422" lon="6.73866">
        <ele>2149.4</ele>
        <time>2021-08-12T09:23:02Z</time>
      </trkpt>
      <trkpt lat="45.50422" lon="6.73866">
        <ele>2149.4</ele>
        <time>2021-08-12T09:23:03Z</time>
      </trkpt>
      <trkpt lat="45.50422" lon="6.73866">
        <ele>2149.4</ele>
        <time>2021-08-12T09:23:04Z</time>
      </trkpt>
      <trkpt lat="45.50422" lon="6.73866">
        <ele>2149.4</ele>
        <time>2021-08-12T09:23:05Z</time>
      </trkpt>
      <trkpt lat="45.50422" lon="6.73866">
        <ele>2149.4</ele>
        <time>2021-08-12T09:23:06Z</time>
      </trkpt>
      <trkpt lat="45.50422" lon="6.73865">
        <ele>2149.5</ele>
        <time>2021-08-12T09:23:07Z</time>
      </trkpt>
      <trkpt lat="45.50422" lon="6.73865">
        <ele>2149.5</ele>
        <time>2021-08-12T09:23:08Z</time>
      </trkpt>
      <trkpt lat="45.50422" lon="6.73864">
        <ele>2149.5</ele>
        <time>2021-08-12T09:23:09Z</time>
      </trkpt>
      <trkpt lat="45.50422" lon="6.73864">
        <ele>2149.6</ele>
        <time>2021-08-12T09:23:10Z</time>
      </trkpt>
      <trkpt lat="45.50423" lon="6.73864">
        <ele>2149.6</ele>
        <time>2021-08-12T09:23:11Z</time>
      </trkpt>
      <trkpt lat="45.50423" lon="6.73863">
        <ele>2149.7</ele>
        <time>2021-08-12T09:23:12Z</time>
      </trkpt>
      <trkpt lat="45.50423" lon="6.73863">
        <ele>2149.7</ele>
        <time>2021-08-12T09:23:13Z</time>
      </trkpt>
      <trkpt lat="45.50423" lon="6.73862">
        <ele>2149.8</ele>
        <time>2021-08-12T09:23:14Z</time>
      </trkpt>
      <trkpt lat="45.50423" lon="6.73862">
        <ele>2149.8</ele>
        <time>2021-08-12T09:23:15Z</time>
      </trkpt>
      <trkpt lat="45.50423" lon="6.73862">
        <ele>2149.8</ele>
        <time>2021-08-12T09:23:16Z</time>
      </trkpt>
      <trkpt lat="45.50423" lon="6.73861">
        <ele>2149.9</ele>
        <time>2021-08-12T09:23:17Z</time>
      </trkpt>
      <trkpt lat="45.50423" lon="6.73861">
        <ele>2149.9</ele>
        <time>2021-08-12T09:23:18Z</time>
      </trkpt>
      <trkpt lat="45.50423" lon="6.73861">
        <ele>2149.9</ele>
        <time>2021-08-12T09:23:19Z</time>
      </trkpt>
      <trkpt lat="45.50423" lon="6.73861">
        <ele>2149.9</ele>
        <time>2021-08-12T09:23:20Z</time>
      </trkpt>
      <trkpt lat="45.50422" lon="6.73861">
        <ele>2149.9</ele>
        <time>2021-08-12T09:23:21Z</time>
      </trkpt>
      <trkpt lat="45.50422" lon="6.73861">
        <ele>2149.9</ele>
        <time>2021-08-12T09:23:22Z</time>
      </trkpt>
      <trkpt lat="45.50422" lon="6.73861">
        <ele>2149.9</ele>
        <time>2021-08-12T09:23:23Z</time>
      </trkpt>
      <trkpt lat="45.50422" lon="6.73861">
        <ele>2150</ele>
        <time>2021-08-12T09:23:24Z</time>
      </trkpt>
      <trkpt lat="45.50422" lon="6.73861">
        <ele>2150</ele>
        <time>2021-08-12T09:23:25Z</time>
      </trkpt>
      <trkpt lat="45.50422" lon="6.73861">
        <ele>2150</ele>
        <time>2021-08-12T09:23:26Z</time>
      </trkpt>
      <trkpt lat="45.50421" lon="6.73862">
        <ele>2150.1</ele>
        <time>2021-08-12T09:23:27Z</time>
      </trkpt>
      <trkpt lat="45.50421" lon="6.73862">
        <ele>2150.1</ele>
        <time>2021-08-12T09:23:28Z</time>
      </trkpt>
      <trkpt lat="45.50421" lon="6.73862">
        <ele>2150.2</ele>
        <time>2021-08-12T09:23:29Z</time>
      </trkpt>
      <trkpt lat="45.5042" lon="6.73862">
        <ele>2150.3</ele>
        <time>2021-08-12T09:23:30Z</time>
      </trkpt>
      <trkpt lat="45.5042" lon="6.73863">
        <ele>2150.3</ele>
        <time>2021-08-12T09:23:31Z</time>
      </trkpt>
      <trkpt lat="45.50419" lon="6.73863">
        <ele>2150.4</ele>
        <time>2021-08-12T09:23:32Z</time>
      </trkpt>
      <trkpt lat="45.50419" lon="6.73863">
        <ele>2150.5</ele>
        <time>2021-08-12T09:23:33Z</time>
      </trkpt>
      <trkpt lat="45.50418" lon="6.73863">
        <ele>2150.6</ele>
        <time>2021-08-12T09:23:34Z</time>
      </trkpt>
      <trkpt lat="45.50418" lon="6.73864">
        <ele>2150.7</ele>
        <time>2021-08-12T09:23:35Z</time>
      </trkpt>
      <trkpt lat="45.50417" lon="6.73864">
        <ele>2150.8</ele>
        <time>2021-08-12T09:23:36Z</time>
      </trkpt>
      <trkpt lat="45.50416" lon="6.73864">
        <ele>2150.9</ele>
        <time>2021-08-12T09:23:37Z</time>
      </trkpt>
      <trkpt lat="45.50416" lon="6.73865">
        <ele>2151</ele>
        <time>2021-08-12T09:23:38Z</time>
      </trkpt>
      <trkpt lat="45.50415" lon="6.73865">
        <ele>2151.2</ele>
        <time>2021-08-12T09:23:39Z</time>
      </trkpt>
      <trkpt lat="45.50414" lon="6.73865">
        <ele>2151.3</ele>
        <time>2021-08-12T09:23:40Z</time>
      </trkpt>
      <trkpt lat="45.50414" lon="6.73866">
        <ele>2151.4</ele>
        <time>2021-08-12T09:23:41Z</time>
      </trkpt>
      <trkpt lat="45.50413" lon="6.73866">
        <ele>2151.5</ele>
        <time>2021-08-12T09:23:42Z</time>
      </trkpt>
      <trkpt lat="45.50412" lon="6.73866">
        <ele>2151.6</ele>
        <time>2021-08-12T09:23:43Z</time>
      </trkpt>
      <trkpt lat="45.50412" lon="6.73867">
        <ele>2151.7</ele>
        <time>2021-08-12T09:23:44Z</time>
      </trkpt>
      <trkpt lat="45.50411" lon="6.73867">
        <ele>2151.8</ele>
        <time>2021-08-12T09:23:45Z</time>
      </trkpt>
      <trkpt lat="45.50411" lon="6.73867">
        <ele>2151.9</ele>
        <time>2021-08-12T09:23:46Z</time>
      </trkpt>
      <trkpt lat="45.5041" lon="6.73868">
        <ele>2152</ele>
        <time>2021-08-12T09:23:47Z</time>
      </trkpt>
      <trkpt lat="45.5041" lon="6.73868">
        <ele>2152.1</ele>
        <time>2021-08-12T09:23:48Z</time>
      </trkpt>
      <trkpt lat="45.5041" lon="6.73868">
        <ele>2152.1</ele>
        <time>2021-08-12T09:23:49Z</time>
      </trkpt>
      <trkpt lat="45.50409" lon="6.73869">
        <ele>2152.2</ele>
        <time>2021-08-12T09:23:50Z</time>
      </trkpt>
      <trkpt lat="45.50409" lon="6.73869">
        <ele>2152.3</ele>
        <time>2021-08-12T09:23:51Z</time>
      </trkpt>
      <trkpt lat="45.50408" lon="6.73869">
        <ele>2152.4</ele>
        <time>2021-08-12T09:23:52Z</time>
      </trkpt>
      <trkpt lat="45.50408" lon="6.73869">
        <ele>2152.5</ele>
        <time>2021-08-12T09:23:53Z</time>
      </trkpt>
      <trkpt lat="45.50408" lon="6.73869">
        <ele>2152.6</ele>
        <time>2021-08-12T09:23:54Z</time>
      </trkpt>
      <trkpt lat="45.50407" lon="6.7387">
        <ele>2152.7</ele>
        <time>2021-08-12T09:23:55Z</time>
      </trkpt>
      <trkpt lat="45.50406" lon="6.7387">
        <ele>2152.8</ele>
        <time>2021-08-12T09:23:56Z</time>
      </trkpt>
      <trkpt lat="45.50406" lon="6.7387">
        <ele>2152.9</ele>
        <time>2021-08-12T09:23:57Z</time>
      </trkpt>
      <trkpt lat="45.50405" lon="6.7387">
        <ele>2153</ele>
        <time>2021-08-12T09:23:58Z</time>
      </trkpt>
      <trkpt lat="45.50404" lon="6.7387">
        <ele>2153.2</ele>
        <time>2021-08-12T09:23:59Z</time>
      </trkpt>
      <trkpt lat="45.50404" lon="6.7387">
        <ele>2153.3</ele>
        <time>2021-08-12T09:24:00Z</time>
      </trkpt>
      <trkpt lat="45.50403" lon="6.7387">
        <ele>2153.5</ele>
        <time>2021-08-12T09:24:01Z</time>
      </trkpt>
      <trkpt lat="45.50402" lon="6.7387">
        <ele>2153.6</ele>
        <time>2021-08-12T09:24:02Z</time>
      </trkpt>
      <trkpt lat="45.50401" lon="6.7387">
        <ele>2153.8</ele>
        <time>2021-08-12T09:24:03Z</time>
      </trkpt>
      <trkpt lat="45.50401" lon="6.7387">
        <ele>2153.9</ele>
        <time>2021-08-12T09:24:04Z</time>
      </trkpt>
      <trkpt lat="45.504" lon="6.7387">
        <ele>2154.1</ele>
        <time>2021-08-12T09:24:05Z</time>
      </trkpt>
      <trkpt lat="45.50399" lon="6.7387">
        <ele>2154.2</ele>
        <time>2021-08-12T09:24:06Z</time>
      </trkpt>
      <trkpt lat="45.50399" lon="6.73871">
        <ele>2154.4</ele>
        <time>2021-08-12T09:24:07Z</time>
      </trkpt>
      <trkpt lat="45.50398" lon="6.73871">
        <ele>2154.5</ele>
        <time>2021-08-12T09:24:08Z</time>
      </trkpt>
      <trkpt lat="45.50397" lon="6.73871">
        <ele>2154.7</ele>
        <time>2021-08-12T09:24:09Z</time>
      </trkpt>
      <trkpt lat="45.50397" lon="6.73871">
        <ele>2154.9</ele>
        <time>2021-08-12T09:24:10Z</time>
      </trkpt>
      <trkpt lat="45.50396" lon="6.73871">
        <ele>2155</ele>
        <time>2021-08-12T09:24:11Z</time>
      </trkpt>
      <trkpt lat="45.50395" lon="6.73871">
        <ele>2155.2</ele>
        <time>2021-08-12T09:24:12Z</time>
      </trkpt>
      <trkpt lat="45.50394" lon="6.73871">
        <ele>2155.3</ele>
        <time>2021-08-12T09:24:13Z</time>
      </trkpt>
      <trkpt lat="45.50394" lon="6.73871">
        <ele>2155.5</ele>
        <time>2021-08-12T09:24:14Z</time>
      </trkpt>
      <trkpt lat="45.50393" lon="6.73871">
        <ele>2155.7</ele>
        <time>2021-08-12T09:24:15Z</time>
      </trkpt>
      <trkpt lat="45.50392" lon="6.73871">
        <ele>2155.8</ele>
        <time>2021-08-12T09:24:16Z</time>
      </trkpt>
      <trkpt lat="45.50391" lon="6.73871">
        <ele>2156</ele>
        <time>2021-08-12T09:24:17Z</time>
      </trkpt>
      <trkpt lat="45.50391" lon="6.73871">
        <ele>2156.2</ele>
        <time>2021-08-12T09:24:18Z</time>
      </trkpt>
      <trkpt lat="45.5039" lon="6.73871">
        <ele>2156.4</ele>
        <time>2021-08-12T09:24:19Z</time>
      </trkpt>
      <trkpt lat="45.50389" lon="6.73871">
        <ele>2156.5</ele>
        <time>2021-08-12T09:24:20Z</time>
      </trkpt>
      <trkpt lat="45.50388" lon="6.73871">
        <ele>2156.7</ele>
        <time>2021-08-12T09:24:21Z</time>
      </trkpt>
      <trkpt lat="45.50388" lon="6.73871">
        <ele>2156.9</ele>
        <time>2021-08-12T09:24:22Z</time>
      </trkpt>
      <trkpt lat="45.50387" lon="6.73871">
        <ele>2157.1</ele>
        <time>2021-08-12T09:24:23Z</time>
      </trkpt>
      <trkpt lat="45.50386" lon="6.73871">
        <ele>2157.3</ele>
        <time>2021-08-12T09:24:24Z</time>
      </trkpt>
      <trkpt lat="45.50385" lon="6.73871">
        <ele>2157.5</ele>
        <time>2021-08-12T09:24:25Z</time>
      </trkpt>
      <trkpt lat="45.50385" lon="6.73871">
        <ele>2157.6</ele>
        <time>2021-08-12T09:24:26Z</time>
      </trkpt>
      <trkpt lat="45.50384" lon="6.73871">
        <ele>2157.8</ele>
        <time>2021-08-12T09:24:27Z</time>
      </trkpt>
      <trkpt lat="45.50383" lon="6.7387">
        <ele>2158</ele>
        <time>2021-08-12T09:24:28Z</time>
      </trkpt>
      <trkpt lat="45.50382" lon="6.7387">
        <ele>2158.2</ele>
        <time>2021-08-12T09:24:29Z</time>
      </trkpt>
      <trkpt lat="45.50382" lon="6.7387">
        <ele>2158.4</ele>
        <time>2021-08-12T09:24:30Z</time>
      </trkpt>
      <trkpt lat="45.50381" lon="6.7387">
        <ele>2158.6</ele>
        <time>2021-08-12T09:24:31Z</time>
      </trkpt>
      <trkpt lat="45.5038" lon="6.7387">
        <ele>2158.8</ele>
        <time>2021-08-12T09:24:32Z</time>
      </trkpt>
      <trkpt lat="45.5038" lon="6.7387">
        <ele>2159</ele>
        <time>2021-08-12T09:24:33Z</time>
      </trkpt>
      <trkpt lat="45.50379" lon="6.7387">
        <ele>2159.1</ele>
        <time>2021-08-12T09:24:34Z</time>
      </trkpt>
      <trkpt lat="45.50378" lon="6.7387">
        <ele>2159.3</ele>
        <time>2021-08-12T09:24:35Z</time>
      </trkpt>
      <trkpt lat="45.50377" lon="6.73869">
        <ele>2159.5</ele>
        <time>2021-08-12T09:24:36Z</time>
      </trkpt>
      <trkpt lat="45.50377" lon="6.73869">
        <ele>2159.7</ele>
        <time>2021-08-12T09:24:37Z</time>
      </trkpt>
      <trkpt lat="45.50376" lon="6.73869">
        <ele>2159.9</ele>
        <time>2021-08-12T09:24:38Z</time>
      </trkpt>
      <trkpt lat="45.50375" lon="6.73869">
        <ele>2160.1</ele>
        <time>2021-08-12T09:24:39Z</time>
      </trkpt>
      <trkpt lat="45.50375" lon="6.73869">
        <ele>2160.3</ele>
        <time>2021-08-12T09:24:40Z</time>
      </trkpt>
      <trkpt lat="45.50374" lon="6.73869">
        <ele>2160.5</ele>
        <time>2021-08-12T09:24:41Z</time>
      </trkpt>
      <trkpt lat="45.50373" lon="6.73869">
        <ele>2160.7</ele>
        <time>2021-08-12T09:24:42Z</time>
      </trkpt>
      <trkpt lat="45.50372" lon="6.73869">
        <ele>2160.8</ele>
        <time>2021-08-12T09:24:43Z</time>
      </trkpt>
      <trkpt lat="45.50372" lon="6.73869">
        <ele>2161</ele>
        <time>2021-08-12T09:24:44Z</time>
      </trkpt>
      <trkpt lat="45.50371" lon="6.73869">
        <ele>2161.2</ele>
        <time>2021-08-12T09:24:45Z</time>
      </trkpt>
      <trkpt lat="45.5037" lon="6.73868">
        <ele>2161.4</ele>
        <time>2021-08-12T09:24:46Z</time>
      </trkpt>
      <trkpt lat="45.5037" lon="6.73868">
        <ele>2161.6</ele>
        <time>2021-08-12T09:24:47Z</time>
      </trkpt>
      <trkpt lat="45.50369" lon="6.73868">
        <ele>2161.8</ele>
        <time>2021-08-12T09:24:48Z</time>
      </trkpt>
      <trkpt lat="45.50368" lon="6.73868">
        <ele>2162</ele>
        <time>2021-08-12T09:24:49Z</time>
      </trkpt>
      <trkpt lat="45.50367" lon="6.73868">
        <ele>2162.2</ele>
        <time>2021-08-12T09:24:50Z</time>
      </trkpt>
      <trkpt lat="45.50367" lon="6.73868">
        <ele>2162.4</ele>
        <time>2021-08-12T09:24:51Z</time>
      </trkpt>
      <trkpt lat="45.50366" lon="6.73868">
        <ele>2162.6</ele>
        <time>2021-08-12T09:24:52Z</time>
      </trkpt>
      <trkpt lat="45.50365" lon="6.73868">
        <ele>2162.9</ele>
        <time>2021-08-12T09:24:53Z</time>
      </trkpt>
      <trkpt lat="45.50364" lon="6.73867">
        <ele>2163.1</ele>
        <time>2021-08-12T09:24:54Z</time>
      </trkpt>
      <trkpt lat="45.50364" lon="6.73867">
        <ele>2163.3</ele>
        <time>2021-08-12T09:24:55Z</time>
      </trkpt>
      <trkpt lat="45.50363" lon="6.73867">
        <ele>2163.4</ele>
        <time>2021-08-12T09:24:56Z</time>
      </trkpt>
      <trkpt lat="45.50363" lon="6.73867">
        <ele>2163.5</ele>
        <time>2021-08-12T09:24:57Z</time>
      </trkpt>
      <trkpt lat="45.50362" lon="6.73867">
        <ele>2163.6</ele>
        <time>2021-08-12T09:24:58Z</time>
      </trkpt>
      <trkpt lat="45.50362" lon="6.73867">
        <ele>2163.7</ele>
        <time>2021-08-12T09:24:59Z</time>
      </trkpt>
      <trkpt lat="45.50362" lon="6.73867">
        <ele>2163.7</ele>
        <time>2021-08-12T09:25:00Z</time>
      </trkpt>
      <trkpt lat="45.50362" lon="6.73867">
        <ele>2163.7</ele>
        <time>2021-08-12T09:25:01Z</time>
      </trkpt>
      <trkpt lat="45.50362" lon="6.73867">
        <ele>2163.7</ele>
        <time>2021-08-12T09:25:02Z</time>
      </trkpt>
      <trkpt lat="45.50362" lon="6.73867">
        <ele>2163.7</ele>
        <time>2021-08-12T09:25:03Z</time>
      </trkpt>
      <trkpt lat="45.50362" lon="6.73867">
        <ele>2163.7</ele>
        <time>2021-08-12T09:25:04Z</time>
      </trkpt>
      <trkpt lat="45.50362" lon="6.73867">
        <ele>2163.7</ele>
        <time>2021-08-12T09:25:05Z</time>
      </trkpt>
      <trkpt lat="45.50362" lon="6.73867">
        <ele>2163.8</ele>
        <time>2021-08-12T09:25:06Z</time>
      </trkpt>
      <trkpt lat="45.50361" lon="6.73867">
        <ele>2163.9</ele>
        <time>2021-08-12T09:25:07Z</time>
      </trkpt>
      <trkpt lat="45.50361" lon="6.73868">
        <ele>2164.1</ele>
        <time>2021-08-12T09:25:08Z</time>
      </trkpt>
      <trkpt lat="45.5036" lon="6.73868">
        <ele>2164.4</ele>
        <time>2021-08-12T09:25:09Z</time>
      </trkpt>
      <trkpt lat="45.50359" lon="6.73868">
        <ele>2164.7</ele>
        <time>2021-08-12T09:25:10Z</time>
      </trkpt>
      <trkpt lat="45.50358" lon="6.73868">
        <ele>2164.9</ele>
        <time>2021-08-12T09:25:11Z</time>
      </trkpt>
      <trkpt lat="45.50357" lon="6.73868">
        <ele>2165.1</ele>
        <time>2021-08-12T09:25:12Z</time>
      </trkpt>
      <trkpt lat="45.50356" lon="6.73868">
        <ele>2165.4</ele>
        <time>2021-08-12T09:25:13Z</time>
      </trkpt>
      <trkpt lat="45.50356" lon="6.73868">
        <ele>2165.6</ele>
        <time>2021-08-12T09:25:14Z</time>
      </trkpt>
      <trkpt lat="45.50355" lon="6.73868">
        <ele>2165.8</ele>
        <time>2021-08-12T09:25:15Z</time>
      </trkpt>
      <trkpt lat="45.50354" lon="6.73868">
        <ele>2165.9</ele>
        <time>2021-08-12T09:25:16Z</time>
      </trkpt>
      <trkpt lat="45.50354" lon="6.73868">
        <ele>2166.1</ele>
        <time>2021-08-12T09:25:17Z</time>
      </trkpt>
      <trkpt lat="45.50353" lon="6.73868">
        <ele>2166.3</ele>
        <time>2021-08-12T09:25:18Z</time>
      </trkpt>
      <trkpt lat="45.50353" lon="6.73867">
        <ele>2166.5</ele>
        <time>2021-08-12T09:25:19Z</time>
      </trkpt>
      <trkpt lat="45.50352" lon="6.73867">
        <ele>2166.7</ele>
        <time>2021-08-12T09:25:20Z</time>
      </trkpt>
      <trkpt lat="45.50351" lon="6.73867">
        <ele>2166.9</ele>
        <time>2021-08-12T09:25:21Z</time>
      </trkpt>
      <trkpt lat="45.50351" lon="6.73867">
        <ele>2167.1</ele>
        <time>2021-08-12T09:25:22Z</time>
      </trkpt>
      <trkpt lat="45.5035" lon="6.73867">
        <ele>2167.3</ele>
        <time>2021-08-12T09:25:23Z</time>
      </trkpt>
      <trkpt lat="45.50349" lon="6.73867">
        <ele>2167.5</ele>
        <time>2021-08-12T09:25:24Z</time>
      </trkpt>
      <trkpt lat="45.50348" lon="6.73867">
        <ele>2167.7</ele>
        <time>2021-08-12T09:25:25Z</time>
      </trkpt>
      <trkpt lat="45.50348" lon="6.73867">
        <ele>2167.9</ele>
        <time>2021-08-12T09:25:26Z</time>
      </trkpt>
      <trkpt lat="45.50347" lon="6.73867">
        <ele>2168.1</ele>
        <time>2021-08-12T09:25:27Z</time>
      </trkpt>
      <trkpt lat="45.50346" lon="6.73867">
        <ele>2168.3</ele>
        <time>2021-08-12T09:25:28Z</time>
      </trkpt>
      <trkpt lat="45.50346" lon="6.73867">
        <ele>2168.5</ele>
        <time>2021-08-12T09:25:29Z</time>
      </trkpt>
      <trkpt lat="45.50345" lon="6.73867">
        <ele>2168.6</ele>
        <time>2021-08-12T09:25:30Z</time>
      </trkpt>
      <trkpt lat="45.50345" lon="6.73867">
        <ele>2168.7</ele>
        <time>2021-08-12T09:25:31Z</time>
      </trkpt>
      <trkpt lat="45.50344" lon="6.73867">
        <ele>2168.8</ele>
        <time>2021-08-12T09:25:32Z</time>
      </trkpt>
      <trkpt lat="45.50344" lon="6.73867">
        <ele>2168.9</ele>
        <time>2021-08-12T09:25:33Z</time>
      </trkpt>
      <trkpt lat="45.50344" lon="6.73867">
        <ele>2168.9</ele>
        <time>2021-08-12T09:25:34Z</time>
      </trkpt>
      <trkpt lat="45.50344" lon="6.73867">
        <ele>2168.9</ele>
        <time>2021-08-12T09:25:35Z</time>
      </trkpt>
      <trkpt lat="45.50344" lon="6.73867">
        <ele>2168.9</ele>
        <time>2021-08-12T09:25:36Z</time>
      </trkpt>
      <trkpt lat="45.50344" lon="6.73867">
        <ele>2168.9</ele>
        <time>2021-08-12T09:25:37Z</time>
      </trkpt>
      <trkpt lat="45.50344" lon="6.73867">
        <ele>2168.9</ele>
        <time>2021-08-12T09:25:38Z</time>
      </trkpt>
      <trkpt lat="45.50344" lon="6.73867">
        <ele>2168.9</ele>
        <time>2021-08-12T09:25:39Z</time>
      </trkpt>
      <trkpt lat="45.50344" lon="6.73868">
        <ele>2169</ele>
        <time>2021-08-12T09:25:40Z</time>
      </trkpt>
      <trkpt lat="45.50344" lon="6.73868">
        <ele>2169</ele>
        <time>2021-08-12T09:25:41Z</time>
      </trkpt>
      <trkpt lat="45.50344" lon="6.73868">
        <ele>2169.1</ele>
        <time>2021-08-12T09:25:42Z</time>
      </trkpt>
      <trkpt lat="45.50343" lon="6.73868">
        <ele>2169.2</ele>
        <time>2021-08-12T09:25:43Z</time>
      </trkpt>
      <trkpt lat="45.50343" lon="6.73868">
        <ele>2169.3</ele>
        <time>2021-08-12T09:25:44Z</time>
      </trkpt>
      <trkpt lat="45.50342" lon="6.73868">
        <ele>2169.4</ele>
        <time>2021-08-12T09:25:45Z</time>
      </trkpt>
      <trkpt lat="45.50342" lon="6.73868">
        <ele>2169.6</ele>
        <time>2021-08-12T09:25:46Z</time>
      </trkpt>
      <trkpt lat="45.50341" lon="6.73869">
        <ele>2169.7</ele>
        <time>2021-08-12T09:25:47Z</time>
      </trkpt>
      <trkpt lat="45.50341" lon="6.73869">
        <ele>2169.9</ele>
        <time>2021-08-12T09:25:48Z</time>
      </trkpt>
      <trkpt lat="45.50341" lon="6.73869">
        <ele>2170</ele>
        <time>2021-08-12T09:25:49Z</time>
      </trkpt>
      <trkpt lat="45.5034" lon="6.7387">
        <ele>2170.2</ele>
        <time>2021-08-12T09:25:50Z</time>
      </trkpt>
      <trkpt lat="45.5034" lon="6.7387">
        <ele>2170.3</ele>
        <time>2021-08-12T09:25:51Z</time>
      </trkpt>
      <trkpt lat="45.50339" lon="6.73871">
        <ele>2170.5</ele>
        <time>2021-08-12T09:25:52Z</time>
      </trkpt>
      <trkpt lat="45.50339" lon="6.73871">
        <ele>2170.6</ele>
        <time>2021-08-12T09:25:53Z</time>
      </trkpt>
      <trkpt lat="45.50339" lon="6.73872">
        <ele>2170.8</ele>
        <time>2021-08-12T09:25:54Z</time>
      </trkpt>
      <trkpt lat="45.50338" lon="6.73872">
        <ele>2170.9</ele>
        <time>2021-08-12T09:25:55Z</time>
      </trkpt>
      <trkpt lat="45.50338" lon="6.73873">
        <ele>2171.1</ele>
        <time>2021-08-12T09:25:56Z</time>
      </trkpt>
      <trkpt lat="45.50338" lon="6.73874">
        <ele>2171.2</ele>
        <time>2021-08-12T09:25:57Z</time>
      </trkpt>
      <trkpt lat="45.50338" lon="6.73874">
        <ele>2171.4</ele>
        <time>2021-08-12T09:25:58Z</time>
      </trkpt>
      <trkpt lat="45.50337" lon="6.73875">
        <ele>2171.5</ele>
        <time>2021-08-12T09:25:59Z</time>
      </trkpt>
      <trkpt lat="45.50337" lon="6.73876">
        <ele>2171.7</ele>
        <time>2021-08-12T09:26:00Z</time>
      </trkpt>
      <trkpt lat="45.50337" lon="6.73876">
        <ele>2171.8</ele>
        <time>2021-08-12T09:26:01Z</time>
      </trkpt>
      <trkpt lat="45.50337" lon="6.73877">
        <ele>2171.9</ele>
        <time>2021-08-12T09:26:02Z</time>
      </trkpt>
      <trkpt lat="45.50337" lon="6.73878">
        <ele>2172.1</ele>
        <time>2021-08-12T09:26:03Z</time>
      </trkpt>
      <trkpt lat="45.50336" lon="6.73878">
        <ele>2172.2</ele>
        <time>2021-08-12T09:26:04Z</time>
      </trkpt>
      <trkpt lat="45.50336" lon="6.73879">
        <ele>2172.4</ele>
        <time>2021-08-12T09:26:05Z</time>
      </trkpt>
      <trkpt lat="45.50336" lon="6.73879">
        <ele>2172.5</ele>
        <time>2021-08-12T09:26:06Z</time>
      </trkpt>
      <trkpt lat="45.50336" lon="6.7388">
        <ele>2172.6</ele>
        <time>2021-08-12T09:26:07Z</time>
      </trkpt>
      <trkpt lat="45.50336" lon="6.73881">
        <ele>2172.7</ele>
        <time>2021-08-12T09:26:08Z</time>
      </trkpt>
      <trkpt lat="45.50336" lon="6.73881">
        <ele>2172.9</ele>
        <time>2021-08-12T09:26:09Z</time>
      </trkpt>
      <trkpt lat="45.50336" lon="6.73882">
        <ele>2173</ele>
        <time>2021-08-12T09:26:10Z</time>
      </trkpt>
      <trkpt lat="45.50335" lon="6.73882">
        <ele>2173.1</ele>
        <time>2021-08-12T09:26:11Z</time>
      </trkpt>
      <trkpt lat="45.50335" lon="6.73883">
        <ele>2173.2</ele>
        <time>2021-08-12T09:26:12Z</time>
      </trkpt>
      <trkpt lat="45.50335" lon="6.73883">
        <ele>2173.3</ele>
        <time>2021-08-12T09:26:13Z</time>
      </trkpt>
      <trkpt lat="45.50335" lon="6.73884">
        <ele>2173.4</ele>
        <time>2021-08-12T09:26:14Z</time>
      </trkpt>
      <trkpt lat="45.50335" lon="6.73884">
        <ele>2173.5</ele>
        <time>2021-08-12T09:26:15Z</time>
      </trkpt>
      <trkpt lat="45.50335" lon="6.73885">
        <ele>2173.6</ele>
        <time>2021-08-12T09:26:16Z</time>
      </trkpt>
      <trkpt lat="45.50334" lon="6.73885">
        <ele>2173.7</ele>
        <time>2021-08-12T09:26:17Z</time>
      </trkpt>
      <trkpt lat="45.50334" lon="6.73886">
        <ele>2173.8</ele>
        <time>2021-08-12T09:26:18Z</time>
      </trkpt>
      <trkpt lat="45.50334" lon="6.73886">
        <ele>2173.9</ele>
        <time>2021-08-12T09:26:19Z</time>
      </trkpt>
      <trkpt lat="45.50334" lon="6.73887">
        <ele>2174.1</ele>
        <time>2021-08-12T09:26:20Z</time>
      </trkpt>
      <trkpt lat="45.50334" lon="6.73887">
        <ele>2174.2</ele>
        <time>2021-08-12T09:26:21Z</time>
      </trkpt>
      <trkpt lat="45.50334" lon="6.73888">
        <ele>2174.3</ele>
        <time>2021-08-12T09:26:22Z</time>
      </trkpt>
      <trkpt lat="45.50333" lon="6.73889">
        <ele>2174.4</ele>
        <time>2021-08-12T09:26:23Z</time>
      </trkpt>
      <trkpt lat="45.50333" lon="6.73889">
        <ele>2174.6</ele>
        <time>2021-08-12T09:26:24Z</time>
      </trkpt>
      <trkpt lat="45.50333" lon="6.7389">
        <ele>2174.7</ele>
        <time>2021-08-12T09:26:25Z</time>
      </trkpt>
      <trkpt lat="45.50333" lon="6.73891">
        <ele>2174.8</ele>
        <time>2021-08-12T09:26:26Z</time>
      </trkpt>
      <trkpt lat="45.50333" lon="6.73891">
        <ele>2174.9</ele>
        <time>2021-08-12T09:26:27Z</time>
      </trkpt>
      <trkpt lat="45.50333" lon="6.73892">
        <ele>2175</ele>
        <time>2021-08-12T09:26:28Z</time>
      </trkpt>
      <trkpt lat="45.50333" lon="6.73892">
        <ele>2175.1</ele>
        <time>2021-08-12T09:26:29Z</time>
      </trkpt>
      <trkpt lat="45.50333" lon="6.73893">
        <ele>2175.2</ele>
        <time>2021-08-12T09:26:30Z</time>
      </trkpt>
      <trkpt lat="45.50333" lon="6.73893">
        <ele>2175.3</ele>
        <time>2021-08-12T09:26:31Z</time>
      </trkpt>
      <trkpt lat="45.50333" lon="6.73894">
        <ele>2175.4</ele>
        <time>2021-08-12T09:26:32Z</time>
      </trkpt>
      <trkpt lat="45.50333" lon="6.73894">
        <ele>2175.5</ele>
        <time>2021-08-12T09:26:33Z</time>
      </trkpt>
      <trkpt lat="45.50332" lon="6.73895">
        <ele>2175.6</ele>
        <time>2021-08-12T09:26:34Z</time>
      </trkpt>
      <trkpt lat="45.50332" lon="6.73895">
        <ele>2175.7</ele>
        <time>2021-08-12T09:26:35Z</time>
      </trkpt>
      <trkpt lat="45.50332" lon="6.73895">
        <ele>2175.7</ele>
        <time>2021-08-12T09:26:36Z</time>
      </trkpt>
      <trkpt lat="45.50332" lon="6.73896">
        <ele>2175.8</ele>
        <time>2021-08-12T09:26:37Z</time>
      </trkpt>
      <trkpt lat="45.50332" lon="6.73896">
        <ele>2175.9</ele>
        <time>2021-08-12T09:26:38Z</time>
      </trkpt>
      <trkpt lat="45.50332" lon="6.73896">
        <ele>2175.9</ele>
        <time>2021-08-12T09:26:39Z</time>
      </trkpt>
      <trkpt lat="45.50332" lon="6.73897">
        <ele>2176</ele>
        <time>2021-08-12T09:26:40Z</time>
      </trkpt>
      <trkpt lat="45.50332" lon="6.73897">
        <ele>2176.1</ele>
        <time>2021-08-12T09:26:41Z</time>
      </trkpt>
      <trkpt lat="45.50332" lon="6.73898">
        <ele>2176.1</ele>
        <time>2021-08-12T09:26:42Z</time>
      </trkpt>
      <trkpt lat="45.50332" lon="6.73898">
        <ele>2176.2</ele>
        <time>2021-08-12T09:26:43Z</time>
      </trkpt>
      <trkpt lat="45.50332" lon="6.73898">
        <ele>2176.3</ele>
        <time>2021-08-12T09:26:44Z</time>
      </trkpt>
      <trkpt lat="45.50332" lon="6.73899">
        <ele>2176.4</ele>
        <time>2021-08-12T09:26:45Z</time>
      </trkpt>
      <trkpt lat="45.50332" lon="6.73899">
        <ele>2176.4</ele>
        <time>2021-08-12T09:26:46Z</time>
      </trkpt>
      <trkpt lat="45.50331" lon="6.739">
        <ele>2176.5</ele>
        <time>2021-08-12T09:26:47Z</time>
      </trkpt>
      <trkpt lat="45.50331" lon="6.739">
        <ele>2176.6</ele>
        <time>2021-08-12T09:26:48Z</time>
      </trkpt>
      <trkpt lat="45.50331" lon="6.73901">
        <ele>2176.7</ele>
        <time>2021-08-12T09:26:49Z</time>
      </trkpt>
      <trkpt lat="45.50331" lon="6.73901">
        <ele>2176.8</ele>
        <time>2021-08-12T09:26:50Z</time>
      </trkpt>
      <trkpt lat="45.50331" lon="6.73902">
        <ele>2176.9</ele>
        <time>2021-08-12T09:26:51Z</time>
      </trkpt>
      <trkpt lat="45.50331" lon="6.73902">
        <ele>2177</ele>
        <time>2021-08-12T09:26:52Z</time>
      </trkpt>
      <trkpt lat="45.50331" lon="6.73903">
        <ele>2177.1</ele>
        <time>2021-08-12T09:26:53Z</time>
      </trkpt>
      <trkpt lat="45.50331" lon="6.73903">
        <ele>2177.2</ele>
        <time>2021-08-12T09:26:54Z</time>
      </trkpt>
      <trkpt lat="45.5033" lon="6.73904">
        <ele>2177.3</ele>
        <time>2021-08-12T09:26:55Z</time>
      </trkpt>
      <trkpt lat="45.5033" lon="6.73905">
        <ele>2177.4</ele>
        <time>2021-08-12T09:26:56Z</time>
      </trkpt>
      <trkpt lat="45.5033" lon="6.73905">
        <ele>2177.6</ele>
        <time>2021-08-12T09:26:57Z</time>
      </trkpt>
      <trkpt lat="45.5033" lon="6.73906">
        <ele>2177.7</ele>
        <time>2021-08-12T09:26:58Z</time>
      </trkpt>
      <trkpt lat="45.5033" lon="6.73907">
        <ele>2177.8</ele>
        <time>2021-08-12T09:26:59Z</time>
      </trkpt>
      <trkpt lat="45.5033" lon="6.73907">
        <ele>2177.9</ele>
        <time>2021-08-12T09:27:00Z</time>
      </trkpt>
      <trkpt lat="45.5033" lon="6.73908">
        <ele>2178</ele>
        <time>2021-08-12T09:27:01Z</time>
      </trkpt>
      <trkpt lat="45.5033" lon="6.73909">
        <ele>2178.2</ele>
        <time>2021-08-12T09:27:02Z</time>
      </trkpt>
      <trkpt lat="45.5033" lon="6.7391">
        <ele>2178.3</ele>
        <time>2021-08-12T09:27:03Z</time>
      </trkpt>
      <trkpt lat="45.5033" lon="6.7391">
        <ele>2178.4</ele>
        <time>2021-08-12T09:27:04Z</time>
      </trkpt>
      <trkpt lat="45.5033" lon="6.73911">
        <ele>2178.6</ele>
        <time>2021-08-12T09:27:05Z</time>
      </trkpt>
      <trkpt lat="45.5033" lon="6.73912">
        <ele>2178.7</ele>
        <time>2021-08-12T09:27:06Z</time>
      </trkpt>
      <trkpt lat="45.5033" lon="6.73913">
        <ele>2178.8</ele>
        <time>2021-08-12T09:27:07Z</time>
      </trkpt>
      <trkpt lat="45.5033" lon="6.73914">
        <ele>2178.9</ele>
        <time>2021-08-12T09:27:08Z</time>
      </trkpt>
      <trkpt lat="45.5033" lon="6.73914">
        <ele>2179.1</ele>
        <time>2021-08-12T09:27:09Z</time>
      </trkpt>
      <trkpt lat="45.5033" lon="6.73915">
        <ele>2179.2</ele>
        <time>2021-08-12T09:27:10Z</time>
      </trkpt>
      <trkpt lat="45.5033" lon="6.73916">
        <ele>2179.3</ele>
        <time>2021-08-12T09:27:11Z</time>
      </trkpt>
      <trkpt lat="45.5033" lon="6.73916">
        <ele>2179.3</ele>
        <time>2021-08-12T09:27:12Z</time>
      </trkpt>
      <trkpt lat="45.5033" lon="6.73916">
        <ele>2179.4</ele>
        <time>2021-08-12T09:27:13Z</time>
      </trkpt>
      <trkpt lat="45.5033" lon="6.73916">
        <ele>2179.4</ele>
        <time>2021-08-12T09:27:14Z</time>
      </trkpt>
      <trkpt lat="45.5033" lon="6.73916">
        <ele>2179.4</ele>
        <time>2021-08-12T09:27:15Z</time>
      </trkpt>
      <trkpt lat="45.5033" lon="6.73916">
        <ele>2179.4</ele>
        <time>2021-08-12T09:27:16Z</time>
      </trkpt>
      <trkpt lat="45.5033" lon="6.73916">
        <ele>2179.5</ele>
        <time>2021-08-12T09:27:17Z</time>
      </trkpt>
      <trkpt lat="45.5033" lon="6.73916">
        <ele>2179.5</ele>
        <time>2021-08-12T09:27:18Z</time>
      </trkpt>
      <trkpt lat="45.5033" lon="6.73917">
        <ele>2179.6</ele>
        <time>2021-08-12T09:27:19Z</time>
      </trkpt>
      <trkpt lat="45.5033" lon="6.73918">
        <ele>2179.7</ele>
        <time>2021-08-12T09:27:20Z</time>
      </trkpt>
      <trkpt lat="45.50329" lon="6.73918">
        <ele>2179.9</ele>
        <time>2021-08-12T09:27:21Z</time>
      </trkpt>
      <trkpt lat="45.50329" lon="6.73919">
        <ele>2180</ele>
        <time>2021-08-12T09:27:22Z</time>
      </trkpt>
      <trkpt lat="45.50329" lon="6.7392">
        <ele>2180.2</ele>
        <time>2021-08-12T09:27:23Z</time>
      </trkpt>
      <trkpt lat="45.50328" lon="6.73921">
        <ele>2180.4</ele>
        <time>2021-08-12T09:27:24Z</time>
      </trkpt>
      <trkpt lat="45.50328" lon="6.73921">
        <ele>2180.5</ele>
        <time>2021-08-12T09:27:25Z</time>
      </trkpt>
      <trkpt lat="45.50327" lon="6.73922">
        <ele>2180.7</ele>
        <time>2021-08-12T09:27:26Z</time>
      </trkpt>
      <trkpt lat="45.50327" lon="6.73923">
        <ele>2180.8</ele>
        <time>2021-08-12T09:27:27Z</time>
      </trkpt>
      <trkpt lat="45.50327" lon="6.73923">
        <ele>2180.9</ele>
        <time>2021-08-12T09:27:28Z</time>
      </trkpt>
      <trkpt lat="45.50327" lon="6.73924">
        <ele>2181</ele>
        <time>2021-08-12T09:27:29Z</time>
      </trkpt>
      <trkpt lat="45.50326" lon="6.73924">
        <ele>2181.1</ele>
        <time>2021-08-12T09:27:30Z</time>
      </trkpt>
      <trkpt lat="45.50326" lon="6.73924">
        <ele>2181.1</ele>
        <time>2021-08-12T09:27:31Z</time>
      </trkpt>
      <trkpt lat="45.50326" lon="6.73924">
        <ele>2181.2</ele>
        <time>2021-08-12T09:27:32Z</time>
      </trkpt>
      <trkpt lat="45.50326" lon="6.73924">
        <ele>2181.2</ele>
        <time>2021-08-12T09:27:33Z</time>
      </trkpt>
      <trkpt lat="45.50326" lon="6.73924">
        <ele>2181.2</ele>
        <time>2021-08-12T09:27:34Z</time>
      </trkpt>
      <trkpt lat="45.50326" lon="6.73924">
        <ele>2181.2</ele>
        <time>2021-08-12T09:27:35Z</time>
      </trkpt>
      <trkpt lat="45.50326" lon="6.73924">
        <ele>2181.2</ele>
        <time>2021-08-12T09:27:36Z</time>
      </trkpt>
      <trkpt lat="45.50326" lon="6.73924">
        <ele>2181.2</ele>
        <time>2021-08-12T09:27:37Z</time>
      </trkpt>
      <trkpt lat="45.50326" lon="6.73924">
        <ele>2181.2</ele>
        <time>2021-08-12T09:27:38Z</time>
      </trkpt>
      <trkpt lat="45.50326" lon="6.73924">
        <ele>2181.3</ele>
        <time>2021-08-12T09:27:39Z</time>
      </trkpt>
      <trkpt lat="45.50326" lon="6.73924">
        <ele>2181.3</ele>
        <time>2021-08-12T09:27:40Z</time>
      </trkpt>
      <trkpt lat="45.50326" lon="6.73924">
        <ele>2181.3</ele>
        <time>2021-08-12T09:27:41Z</time>
      </trkpt>
      <trkpt lat="45.50326" lon="6.73924">
        <ele>2181.3</ele>
        <time>2021-08-12T09:27:42Z</time>
      </trkpt>
      <trkpt lat="45.50326" lon="6.73924">
        <ele>2181.3</ele>
        <time>2021-08-12T09:27:43Z</time>
      </trkpt>
      <trkpt lat="45.50326" lon="6.73924">
        <ele>2181.3</ele>
        <time>2021-08-12T09:27:44Z</time>
      </trkpt>
      <trkpt lat="45.50326" lon="6.73924">
        <ele>2181.3</ele>
        <time>2021-08-12T09:27:45Z</time>
      </trkpt>
      <trkpt lat="45.50326" lon="6.73925">
        <ele>2181.4</ele>
        <time>2021-08-12T09:27:46Z</time>
      </trkpt>
      <trkpt lat="45.50326" lon="6.73925">
        <ele>2181.4</ele>
        <time>2021-08-12T09:27:47Z</time>
      </trkpt>
      <trkpt lat="45.50325" lon="6.73925">
        <ele>2181.5</ele>
        <time>2021-08-12T09:27:48Z</time>
      </trkpt>
      <trkpt lat="45.50325" lon="6.73926">
        <ele>2181.6</ele>
        <time>2021-08-12T09:27:49Z</time>
      </trkpt>
      <trkpt lat="45.50325" lon="6.73926">
        <ele>2181.7</ele>
        <time>2021-08-12T09:27:50Z</time>
      </trkpt>
      <trkpt lat="45.50324" lon="6.73926">
        <ele>2181.8</ele>
        <time>2021-08-12T09:27:51Z</time>
      </trkpt>
      <trkpt lat="45.50324" lon="6.73927">
        <ele>2182</ele>
        <time>2021-08-12T09:27:52Z</time>
      </trkpt>
      <trkpt lat="45.50323" lon="6.73927">
        <ele>2182.1</ele>
        <time>2021-08-12T09:27:53Z</time>
      </trkpt>
      <trkpt lat="45.50323" lon="6.73928">
        <ele>2182.2</ele>
        <time>2021-08-12T09:27:54Z</time>
      </trkpt>
      <trkpt lat="45.50323" lon="6.73928">
        <ele>2182.3</ele>
        <time>2021-08-12T09:27:55Z</time>
      </trkpt>
      <trkpt lat="45.50322" lon="6.73929">
        <ele>2182.5</ele>
        <time>2021-08-12T09:27:56Z</time>
      </trkpt>
      <trkpt lat="45.50322" lon="6.73929">
        <ele>2182.6</ele>
        <time>2021-08-12T09:27:57Z</time>
      </trkpt>
      <trkpt lat="45.50321" lon="6.73929">
        <ele>2182.7</ele>
        <time>2021-08-12T09:27:58Z</time>
      </trkpt>
      <trkpt lat="45.50321" lon="6.7393">
        <ele>2182.9</ele>
        <time>2021-08-12T09:27:59Z</time>
      </trkpt>
      <trkpt lat="45.5032" lon="6.7393">
        <ele>2183</ele>
        <time>2021-08-12T09:28:00Z</time>
      </trkpt>
      <trkpt lat="45.5032" lon="6.73931">
        <ele>2183.1</ele>
        <time>2021-08-12T09:28:01Z</time>
      </trkpt>
      <trkpt lat="45.50319" lon="6.73931">
        <ele>2183.2</ele>
        <time>2021-08-12T09:28:02Z</time>
      </trkpt>
      <trkpt lat="45.50319" lon="6.73931">
        <ele>2183.3</ele>
        <time>2021-08-12T09:28:03Z</time>
      </trkpt>
      <trkpt lat="45.50319" lon="6.73932">
        <ele>2183.4</ele>
        <time>2021-08-12T09:28:04Z</time>
      </trkpt>
      <trkpt lat="45.50318" lon="6.73932">
        <ele>2183.6</ele>
        <time>2021-08-12T09:28:05Z</time>
      </trkpt>
      <trkpt lat="45.50318" lon="6.73932">
        <ele>2183.7</ele>
        <time>2021-08-12T09:28:06Z</time>
      </trkpt>
      <trkpt lat="45.50317" lon="6.73932">
        <ele>2183.8</ele>
        <time>2021-08-12T09:28:07Z</time>
      </trkpt>
      <trkpt lat="45.50317" lon="6.73933">
        <ele>2183.9</ele>
        <time>2021-08-12T09:28:08Z</time>
      </trkpt>
      <trkpt lat="45.50317" lon="6.73933">
        <ele>2183.9</ele>
        <time>2021-08-12T09:28:09Z</time>
      </trkpt>
      <trkpt lat="45.50316" lon="6.73933">
        <ele>2184</ele>
        <time>2021-08-12T09:28:10Z</time>
      </trkpt>
      <trkpt lat="45.50316" lon="6.73933">
        <ele>2184.1</ele>
        <time>2021-08-12T09:28:11Z</time>
      </trkpt>
      <trkpt lat="45.50316" lon="6.73933">
        <ele>2184.2</ele>
        <time>2021-08-12T09:28:12Z</time>
      </trkpt>
      <trkpt lat="45.50315" lon="6.73933">
        <ele>2184.2</ele>
        <time>2021-08-12T09:28:13Z</time>
      </trkpt>
      <trkpt lat="45.50315" lon="6.73933">
        <ele>2184.3</ele>
        <time>2021-08-12T09:28:14Z</time>
      </trkpt>
      <trkpt lat="45.50315" lon="6.73933">
        <ele>2184.4</ele>
        <time>2021-08-12T09:28:15Z</time>
      </trkpt>
      <trkpt lat="45.50315" lon="6.73933">
        <ele>2184.4</ele>
        <time>2021-08-12T09:28:16Z</time>
      </trkpt>
      <trkpt lat="45.50314" lon="6.73933">
        <ele>2184.5</ele>
        <time>2021-08-12T09:28:17Z</time>
      </trkpt>
      <trkpt lat="45.50314" lon="6.73933">
        <ele>2184.5</ele>
        <time>2021-08-12T09:28:18Z</time>
      </trkpt>
      <trkpt lat="45.50314" lon="6.73934">
        <ele>2184.6</ele>
        <time>2021-08-12T09:28:19Z</time>
      </trkpt>
      <trkpt lat="45.50314" lon="6.73934">
        <ele>2184.6</ele>
        <time>2021-08-12T09:28:20Z</time>
      </trkpt>
      <trkpt lat="45.50314" lon="6.73934">
        <ele>2184.7</ele>
        <time>2021-08-12T09:28:21Z</time>
      </trkpt>
      <trkpt lat="45.50314" lon="6.73934">
        <ele>2184.7</ele>
        <time>2021-08-12T09:28:22Z</time>
      </trkpt>
      <trkpt lat="45.50314" lon="6.73933">
        <ele>2184.7</ele>
        <time>2021-08-12T09:28:23Z</time>
      </trkpt>
      <trkpt lat="45.50313" lon="6.73933">
        <ele>2184.7</ele>
        <time>2021-08-12T09:28:24Z</time>
      </trkpt>
      <trkpt lat="45.50313" lon="6.73933">
        <ele>2184.8</ele>
        <time>2021-08-12T09:28:25Z</time>
      </trkpt>
      <trkpt lat="45.50313" lon="6.73933">
        <ele>2184.8</ele>
        <time>2021-08-12T09:28:26Z</time>
      </trkpt>
      <trkpt lat="45.50313" lon="6.73933">
        <ele>2184.8</ele>
        <time>2021-08-12T09:28:27Z</time>
      </trkpt>
      <trkpt lat="45.50313" lon="6.73933">
        <ele>2184.8</ele>
        <time>2021-08-12T09:28:28Z</time>
      </trkpt>
      <trkpt lat="45.50313" lon="6.73933">
        <ele>2184.8</ele>
        <time>2021-08-12T09:28:29Z</time>
      </trkpt>
      <trkpt lat="45.50313" lon="6.73933">
        <ele>2184.8</ele>
        <time>2021-08-12T09:28:30Z</time>
      </trkpt>
      <trkpt lat="45.50313" lon="6.73933">
        <ele>2184.8</ele>
        <time>2021-08-12T09:28:31Z</time>
      </trkpt>
      <trkpt lat="45.50313" lon="6.73933">
        <ele>2184.8</ele>
        <time>2021-08-12T09:28:32Z</time>
      </trkpt>
      <trkpt lat="45.50313" lon="6.73933">
        <ele>2184.8</ele>
        <time>2021-08-12T09:28:33Z</time>
      </trkpt>
      <trkpt lat="45.50313" lon="6.73933">
        <ele>2184.8</ele>
        <time>2021-08-12T09:28:34Z</time>
      </trkpt>
      <trkpt lat="45.50313" lon="6.73933">
        <ele>2184.8</ele>
        <time>2021-08-12T09:28:35Z</time>
      </trkpt>
      <trkpt lat="45.50313" lon="6.73933">
        <ele>2184.8</ele>
        <time>2021-08-12T09:28:36Z</time>
      </trkpt>
      <trkpt lat="45.50313" lon="6.73933">
        <ele>2184.8</ele>
        <time>2021-08-12T09:28:37Z</time>
      </trkpt>
      <trkpt lat="45.50313" lon="6.73933">
        <ele>2184.9</ele>
        <time>2021-08-12T09:28:38Z</time>
      </trkpt>
      <trkpt lat="45.50313" lon="6.73933">
        <ele>2184.9</ele>
        <time>2021-08-12T09:28:39Z</time>
      </trkpt>
      <trkpt lat="45.50313" lon="6.73933">
        <ele>2184.9</ele>
        <time>2021-08-12T09:28:40Z</time>
      </trkpt>
      <trkpt lat="45.50313" lon="6.73934">
        <ele>2185</ele>
        <time>2021-08-12T09:28:41Z</time>
      </trkpt>
      <trkpt lat="45.50313" lon="6.73934">
        <ele>2185</ele>
        <time>2021-08-12T09:28:42Z</time>
      </trkpt>
      <trkpt lat="45.50313" lon="6.73934">
        <ele>2185.1</ele>
        <time>2021-08-12T09:28:43Z</time>
      </trkpt>
      <trkpt lat="45.50312" lon="6.73934">
        <ele>2185.1</ele>
        <time>2021-08-12T09:28:44Z</time>
      </trkpt>
      <trkpt lat="45.50312" lon="6.73934">
        <ele>2185.2</ele>
        <time>2021-08-12T09:28:45Z</time>
      </trkpt>
      <trkpt lat="45.50312" lon="6.73935">
        <ele>2185.3</ele>
        <time>2021-08-12T09:28:46Z</time>
      </trkpt>
      <trkpt lat="45.50311" lon="6.73935">
        <ele>2185.4</ele>
        <time>2021-08-12T09:28:47Z</time>
      </trkpt>
      <trkpt lat="45.50311" lon="6.73935">
        <ele>2185.5</ele>
        <time>2021-08-12T09:28:48Z</time>
      </trkpt>
      <trkpt lat="45.50311" lon="6.73936">
        <ele>2185.6</ele>
        <time>2021-08-12T09:28:49Z</time>
      </trkpt>
      <trkpt lat="45.5031" lon="6.73936">
        <ele>2185.7</ele>
        <time>2021-08-12T09:28:50Z</time>
      </trkpt>
      <trkpt lat="45.5031" lon="6.73936">
        <ele>2185.9</ele>
        <time>2021-08-12T09:28:51Z</time>
      </trkpt>
      <trkpt lat="45.50309" lon="6.73937">
        <ele>2186</ele>
        <time>2021-08-12T09:28:52Z</time>
      </trkpt>
      <trkpt lat="45.50309" lon="6.73937">
        <ele>2186.2</ele>
        <time>2021-08-12T09:28:53Z</time>
      </trkpt>
      <trkpt lat="45.50308" lon="6.73938">
        <ele>2186.3</ele>
        <time>2021-08-12T09:28:54Z</time>
      </trkpt>
      <trkpt lat="45.50308" lon="6.73938">
        <ele>2186.5</ele>
        <time>2021-08-12T09:28:55Z</time>
      </trkpt>
      <trkpt lat="45.50307" lon="6.73939">
        <ele>2186.6</ele>
        <time>2021-08-12T09:28:56Z</time>
      </trkpt>
      <trkpt lat="45.50307" lon="6.73939">
        <ele>2186.8</ele>
        <time>2021-08-12T09:28:57Z</time>
      </trkpt>
      <trkpt lat="45.50306" lon="6.7394">
        <ele>2186.9</ele>
        <time>2021-08-12T09:28:58Z</time>
      </trkpt>
      <trkpt lat="45.50306" lon="6.7394">
        <ele>2187</ele>
        <time>2021-08-12T09:28:59Z</time>
      </trkpt>
      <trkpt lat="45.50305" lon="6.73941">
        <ele>2187.2</ele>
        <time>2021-08-12T09:29:00Z</time>
      </trkpt>
      <trkpt lat="45.50304" lon="6.73941">
        <ele>2187.4</ele>
        <time>2021-08-12T09:29:01Z</time>
      </trkpt>
      <trkpt lat="45.50304" lon="6.73942">
        <ele>2187.5</ele>
        <time>2021-08-12T09:29:02Z</time>
      </trkpt>
      <trkpt lat="45.50303" lon="6.73942">
        <ele>2187.6</ele>
        <time>2021-08-12T09:29:03Z</time>
      </trkpt>
      <trkpt lat="45.50303" lon="6.73943">
        <ele>2187.8</ele>
        <time>2021-08-12T09:29:04Z</time>
      </trkpt>
      <trkpt lat="45.50302" lon="6.73943">
        <ele>2187.9</ele>
        <time>2021-08-12T09:29:05Z</time>
      </trkpt>
      <trkpt lat="45.50302" lon="6.73944">
        <ele>2188.1</ele>
        <time>2021-08-12T09:29:06Z</time>
      </trkpt>
      <trkpt lat="45.50301" lon="6.73944">
        <ele>2188.2</ele>
        <time>2021-08-12T09:29:07Z</time>
      </trkpt>
      <trkpt lat="45.50301" lon="6.73945">
        <ele>2188.4</ele>
        <time>2021-08-12T09:29:08Z</time>
      </trkpt>
      <trkpt lat="45.503" lon="6.73945">
        <ele>2188.5</ele>
        <time>2021-08-12T09:29:09Z</time>
      </trkpt>
      <trkpt lat="45.503" lon="6.73946">
        <ele>2188.7</ele>
        <time>2021-08-12T09:29:10Z</time>
      </trkpt>
      <trkpt lat="45.50299" lon="6.73946">
        <ele>2188.9</ele>
        <time>2021-08-12T09:29:11Z</time>
      </trkpt>
      <trkpt lat="45.50299" lon="6.73947">
        <ele>2189</ele>
        <time>2021-08-12T09:29:12Z</time>
      </trkpt>
      <trkpt lat="45.50298" lon="6.73947">
        <ele>2189.2</ele>
        <time>2021-08-12T09:29:13Z</time>
      </trkpt>
      <trkpt lat="45.50298" lon="6.73948">
        <ele>2189.3</ele>
        <time>2021-08-12T09:29:14Z</time>
      </trkpt>
      <trkpt lat="45.50297" lon="6.73949">
        <ele>2189.5</ele>
        <time>2021-08-12T09:29:15Z</time>
      </trkpt>
      <trkpt lat="45.50297" lon="6.73949">
        <ele>2189.6</ele>
        <time>2021-08-12T09:29:16Z</time>
      </trkpt>
      <trkpt lat="45.50296" lon="6.7395">
        <ele>2189.8</ele>
        <time>2021-08-12T09:29:17Z</time>
      </trkpt>
      <trkpt lat="45.50296" lon="6.7395">
        <ele>2189.9</ele>
        <time>2021-08-12T09:29:18Z</time>
      </trkpt>
      <trkpt lat="45.50295" lon="6.73951">
        <ele>2190.1</ele>
        <time>2021-08-12T09:29:19Z</time>
      </trkpt>
      <trkpt lat="45.50295" lon="6.73951">
        <ele>2190.2</ele>
        <time>2021-08-12T09:29:20Z</time>
      </trkpt>
      <trkpt lat="45.50294" lon="6.73952">
        <ele>2190.4</ele>
        <time>2021-08-12T09:29:21Z</time>
      </trkpt>
      <trkpt lat="45.50293" lon="6.73952">
        <ele>2190.5</ele>
        <time>2021-08-12T09:29:22Z</time>
      </trkpt>
      <trkpt lat="45.50293" lon="6.73953">
        <ele>2190.7</ele>
        <time>2021-08-12T09:29:23Z</time>
      </trkpt>
      <trkpt lat="45.50292" lon="6.73953">
        <ele>2190.8</ele>
        <time>2021-08-12T09:29:24Z</time>
      </trkpt>
      <trkpt lat="45.50292" lon="6.73954">
        <ele>2191</ele>
        <time>2021-08-12T09:29:25Z</time>
      </trkpt>
      <trkpt lat="45.50291" lon="6.73954">
        <ele>2191.2</ele>
        <time>2021-08-12T09:29:26Z</time>
      </trkpt>
      <trkpt lat="45.50291" lon="6.73955">
        <ele>2191.3</ele>
        <time>2021-08-12T09:29:27Z</time>
      </trkpt>
      <trkpt lat="45.5029" lon="6.73955">
        <ele>2191.5</ele>
        <time>2021-08-12T09:29:28Z</time>
      </trkpt>
      <trkpt lat="45.5029" lon="6.73956">
        <ele>2191.6</ele>
        <time>2021-08-12T09:29:29Z</time>
      </trkpt>
      <trkpt lat="45.50289" lon="6.73956">
        <ele>2191.8</ele>
        <time>2021-08-12T09:29:30Z</time>
      </trkpt>
      <trkpt lat="45.50289" lon="6.73957">
        <ele>2191.9</ele>
        <time>2021-08-12T09:29:31Z</time>
      </trkpt>
      <trkpt lat="45.50288" lon="6.73957">
        <ele>2192.1</ele>
        <time>2021-08-12T09:29:32Z</time>
      </trkpt>
      <trkpt lat="45.50287" lon="6.73958">
        <ele>2192.2</ele>
        <time>2021-08-12T09:29:33Z</time>
      </trkpt>
      <trkpt lat="45.50287" lon="6.73958">
        <ele>2192.4</ele>
        <time>2021-08-12T09:29:34Z</time>
      </trkpt>
      <trkpt lat="45.50286" lon="6.73958">
        <ele>2192.5</ele>
        <time>2021-08-12T09:29:35Z</time>
      </trkpt>
      <trkpt lat="45.50286" lon="6.73959">
        <ele>2192.7</ele>
        <time>2021-08-12T09:29:36Z</time>
      </trkpt>
      <trkpt lat="45.50285" lon="6.73959">
        <ele>2192.8</ele>
        <time>2021-08-12T09:29:37Z</time>
      </trkpt>
      <trkpt lat="45.50285" lon="6.7396">
        <ele>2193</ele>
        <time>2021-08-12T09:29:38Z</time>
      </trkpt>
      <trkpt lat="45.50284" lon="6.7396">
        <ele>2193.1</ele>
        <time>2021-08-12T09:29:39Z</time>
      </trkpt>
      <trkpt lat="45.50284" lon="6.7396">
        <ele>2193.3</ele>
        <time>2021-08-12T09:29:40Z</time>
      </trkpt>
      <trkpt lat="45.50283" lon="6.73961">
        <ele>2193.4</ele>
        <time>2021-08-12T09:29:41Z</time>
      </trkpt>
      <trkpt lat="45.50282" lon="6.73961">
        <ele>2193.5</ele>
        <time>2021-08-12T09:29:42Z</time>
      </trkpt>
      <trkpt lat="45.50282" lon="6.73961">
        <ele>2193.7</ele>
        <time>2021-08-12T09:29:43Z</time>
      </trkpt>
      <trkpt lat="45.50281" lon="6.73962">
        <ele>2193.8</ele>
        <time>2021-08-12T09:29:44Z</time>
      </trkpt>
      <trkpt lat="45.50281" lon="6.73962">
        <ele>2194</ele>
        <time>2021-08-12T09:29:45Z</time>
      </trkpt>
      <trkpt lat="45.5028" lon="6.73962">
        <ele>2194.1</ele>
        <time>2021-08-12T09:29:46Z</time>
      </trkpt>
      <trkpt lat="45.5028" lon="6.73962">
        <ele>2194.2</ele>
        <time>2021-08-12T09:29:47Z</time>
      </trkpt>
      <trkpt lat="45.50279" lon="6.73963">
        <ele>2194.3</ele>
        <time>2021-08-12T09:29:48Z</time>
      </trkpt>
      <trkpt lat="45.50279" lon="6.73963">
        <ele>2194.5</ele>
        <time>2021-08-12T09:29:49Z</time>
      </trkpt>
      <trkpt lat="45.50278" lon="6.73963">
        <ele>2194.6</ele>
        <time>2021-08-12T09:29:50Z</time>
      </trkpt>
      <trkpt lat="45.50278" lon="6.73963">
        <ele>2194.6</ele>
        <time>2021-08-12T09:29:51Z</time>
      </trkpt>
      <trkpt lat="45.50278" lon="6.73963">
        <ele>2194.7</ele>
        <time>2021-08-12T09:29:52Z</time>
      </trkpt>
      <trkpt lat="45.50278" lon="6.73963">
        <ele>2194.7</ele>
        <time>2021-08-12T09:29:53Z</time>
      </trkpt>
      <trkpt lat="45.50278" lon="6.73963">
        <ele>2194.8</ele>
        <time>2021-08-12T09:29:54Z</time>
      </trkpt>
      <trkpt lat="45.50278" lon="6.73963">
        <ele>2194.8</ele>
        <time>2021-08-12T09:29:55Z</time>
      </trkpt>
      <trkpt lat="45.50278" lon="6.73963">
        <ele>2194.8</ele>
        <time>2021-08-12T09:29:56Z</time>
      </trkpt>
      <trkpt lat="45.50278" lon="6.73963">
        <ele>2194.8</ele>
        <time>2021-08-12T09:29:57Z</time>
      </trkpt>
      <trkpt lat="45.50278" lon="6.73963">
        <ele>2194.8</ele>
        <time>2021-08-12T09:29:58Z</time>
      </trkpt>
      <trkpt lat="45.50278" lon="6.73963">
        <ele>2194.8</ele>
        <time>2021-08-12T09:29:59Z</time>
      </trkpt>
      <trkpt lat="45.50278" lon="6.73963">
        <ele>2194.8</ele>
        <time>2021-08-12T09:30:00Z</time>
      </trkpt>
      <trkpt lat="45.50278" lon="6.73963">
        <ele>2194.8</ele>
        <time>2021-08-12T09:30:01Z</time>
      </trkpt>
      <trkpt lat="45.50277" lon="6.73963">
        <ele>2194.9</ele>
        <time>2021-08-12T09:30:02Z</time>
      </trkpt>
      <trkpt lat="45.50277" lon="6.73964">
        <ele>2195</ele>
        <time>2021-08-12T09:30:03Z</time>
      </trkpt>
      <trkpt lat="45.50276" lon="6.73964">
        <ele>2195.2</ele>
        <time>2021-08-12T09:30:04Z</time>
      </trkpt>
      <trkpt lat="45.50276" lon="6.73964">
        <ele>2195.3</ele>
        <time>2021-08-12T09:30:05Z</time>
      </trkpt>
      <trkpt lat="45.50275" lon="6.73965">
        <ele>2195.5</ele>
        <time>2021-08-12T09:30:06Z</time>
      </trkpt>
      <trkpt lat="45.50275" lon="6.73965">
        <ele>2195.6</ele>
        <time>2021-08-12T09:30:07Z</time>
      </trkpt>
      <trkpt lat="45.50274" lon="6.73965">
        <ele>2195.7</ele>
        <time>2021-08-12T09:30:08Z</time>
      </trkpt>
      <trkpt lat="45.50274" lon="6.73965">
        <ele>2195.8</ele>
        <time>2021-08-12T09:30:09Z</time>
      </trkpt>
      <trkpt lat="45.50274" lon="6.73965">
        <ele>2195.8</ele>
        <time>2021-08-12T09:30:10Z</time>
      </trkpt>
      <trkpt lat="45.50274" lon="6.73965">
        <ele>2195.8</ele>
        <time>2021-08-12T09:30:11Z</time>
      </trkpt>
      <trkpt lat="45.50274" lon="6.73965">
        <ele>2195.8</ele>
        <time>2021-08-12T09:30:12Z</time>
      </trkpt>
      <trkpt lat="45.50274" lon="6.73965">
        <ele>2195.8</ele>
        <time>2021-08-12T09:30:13Z</time>
      </trkpt>
      <trkpt lat="45.50274" lon="6.73965">
        <ele>2195.9</ele>
        <time>2021-08-12T09:30:14Z</time>
      </trkpt>
      <trkpt lat="45.50274" lon="6.73965">
        <ele>2195.9</ele>
        <time>2021-08-12T09:30:15Z</time>
      </trkpt>
      <trkpt lat="45.50273" lon="6.73966">
        <ele>2196</ele>
        <time>2021-08-12T09:30:16Z</time>
      </trkpt>
      <trkpt lat="45.50273" lon="6.73966">
        <ele>2196.1</ele>
        <time>2021-08-12T09:30:17Z</time>
      </trkpt>
      <trkpt lat="45.50273" lon="6.73966">
        <ele>2196.2</ele>
        <time>2021-08-12T09:30:18Z</time>
      </trkpt>
      <trkpt lat="45.50272" lon="6.73966">
        <ele>2196.4</ele>
        <time>2021-08-12T09:30:19Z</time>
      </trkpt>
      <trkpt lat="45.50271" lon="6.73967">
        <ele>2196.5</ele>
        <time>2021-08-12T09:30:20Z</time>
      </trkpt>
      <trkpt lat="45.50271" lon="6.73967">
        <ele>2196.7</ele>
        <time>2021-08-12T09:30:21Z</time>
      </trkpt>
      <trkpt lat="45.5027" lon="6.73968">
        <ele>2196.8</ele>
        <time>2021-08-12T09:30:22Z</time>
      </trkpt>
      <trkpt lat="45.5027" lon="6.73968">
        <ele>2197</ele>
        <time>2021-08-12T09:30:23Z</time>
      </trkpt>
      <trkpt lat="45.50269" lon="6.73968">
        <ele>2197.1</ele>
        <time>2021-08-12T09:30:24Z</time>
      </trkpt>
      <trkpt lat="45.50269" lon="6.73969">
        <ele>2197.3</ele>
        <time>2021-08-12T09:30:25Z</time>
      </trkpt>
      <trkpt lat="45.50268" lon="6.73969">
        <ele>2197.4</ele>
        <time>2021-08-12T09:30:26Z</time>
      </trkpt>
      <trkpt lat="45.50268" lon="6.73969">
        <ele>2197.5</ele>
        <time>2021-08-12T09:30:27Z</time>
      </trkpt>
      <trkpt lat="45.50268" lon="6.73969">
        <ele>2197.6</ele>
        <time>2021-08-12T09:30:28Z</time>
      </trkpt>
      <trkpt lat="45.50267" lon="6.7397">
        <ele>2197.7</ele>
        <time>2021-08-12T09:30:29Z</time>
      </trkpt>
      <trkpt lat="45.50267" lon="6.7397">
        <ele>2197.8</ele>
        <time>2021-08-12T09:30:30Z</time>
      </trkpt>
      <trkpt lat="45.50266" lon="6.7397">
        <ele>2197.9</ele>
        <time>2021-08-12T09:30:31Z</time>
      </trkpt>
      <trkpt lat="45.50266" lon="6.7397">
        <ele>2198</ele>
        <time>2021-08-12T09:30:32Z</time>
      </trkpt>
      <trkpt lat="45.50266" lon="6.73971">
        <ele>2198.1</ele>
        <time>2021-08-12T09:30:33Z</time>
      </trkpt>
      <trkpt lat="45.50265" lon="6.73971">
        <ele>2198.2</ele>
        <time>2021-08-12T09:30:34Z</time>
      </trkpt>
      <trkpt lat="45.50265" lon="6.73971">
        <ele>2198.2</ele>
        <time>2021-08-12T09:30:35Z</time>
      </trkpt>
      <trkpt lat="45.50265" lon="6.73971">
        <ele>2198.3</ele>
        <time>2021-08-12T09:30:36Z</time>
      </trkpt>
      <trkpt lat="45.50265" lon="6.73971">
        <ele>2198.4</ele>
        <time>2021-08-12T09:30:37Z</time>
      </trkpt>
      <trkpt lat="45.50265" lon="6.73972">
        <ele>2198.4</ele>
        <time>2021-08-12T09:30:38Z</time>
      </trkpt>
      <trkpt lat="45.50264" lon="6.73972">
        <ele>2198.5</ele>
        <time>2021-08-12T09:30:39Z</time>
      </trkpt>
      <trkpt lat="45.50264" lon="6.73972">
        <ele>2198.6</ele>
        <time>2021-08-12T09:30:40Z</time>
      </trkpt>
      <trkpt lat="45.50264" lon="6.73972">
        <ele>2198.6</ele>
        <time>2021-08-12T09:30:41Z</time>
      </trkpt>
      <trkpt lat="45.50264" lon="6.73972">
        <ele>2198.6</ele>
        <time>2021-08-12T09:30:42Z</time>
      </trkpt>
      <trkpt lat="45.50264" lon="6.73972">
        <ele>2198.7</ele>
        <time>2021-08-12T09:30:43Z</time>
      </trkpt>
      <trkpt lat="45.50264" lon="6.73972">
        <ele>2198.7</ele>
        <time>2021-08-12T09:30:44Z</time>
      </trkpt>
      <trkpt lat="45.50264" lon="6.73972">
        <ele>2198.7</ele>
        <time>2021-08-12T09:30:45Z</time>
      </trkpt>
      <trkpt lat="45.50264" lon="6.73972">
        <ele>2198.7</ele>
        <time>2021-08-12T09:30:46Z</time>
      </trkpt>
      <trkpt lat="45.50263" lon="6.73972">
        <ele>2198.8</ele>
        <time>2021-08-12T09:30:47Z</time>
      </trkpt>
      <trkpt lat="45.50263" lon="6.73972">
        <ele>2198.8</ele>
        <time>2021-08-12T09:30:48Z</time>
      </trkpt>
      <trkpt lat="45.50263" lon="6.73972">
        <ele>2198.8</ele>
        <time>2021-08-12T09:30:49Z</time>
      </trkpt>
      <trkpt lat="45.50263" lon="6.73972">
        <ele>2198.8</ele>
        <time>2021-08-12T09:30:50Z</time>
      </trkpt>
      <trkpt lat="45.50263" lon="6.73972">
        <ele>2198.8</ele>
        <time>2021-08-12T09:30:51Z</time>
      </trkpt>
      <trkpt lat="45.50263" lon="6.73972">
        <ele>2198.8</ele>
        <time>2021-08-12T09:30:52Z</time>
      </trkpt>
      <trkpt lat="45.50263" lon="6.73972">
        <ele>2198.8</ele>
        <time>2021-08-12T09:30:53Z</time>
      </trkpt>
      <trkpt lat="45.50263" lon="6.73972">
        <ele>2198.9</ele>
        <time>2021-08-12T09:30:54Z</time>
      </trkpt>
      <trkpt lat="45.50263" lon="6.73972">
        <ele>2198.9</ele>
        <time>2021-08-12T09:30:55Z</time>
      </trkpt>
      <trkpt lat="45.50263" lon="6.73972">
        <ele>2198.9</ele>
        <time>2021-08-12T09:30:56Z</time>
      </trkpt>
      <trkpt lat="45.50263" lon="6.73972">
        <ele>2198.9</ele>
        <time>2021-08-12T09:30:57Z</time>
      </trkpt>
      <trkpt lat="45.50264" lon="6.73972">
        <ele>2198.9</ele>
        <time>2021-08-12T09:30:58Z</time>
      </trkpt>
      <trkpt lat="45.50264" lon="6.73972">
        <ele>2198.9</ele>
        <time>2021-08-12T09:30:59Z</time>
      </trkpt>
      <trkpt lat="45.50264" lon="6.73972">
        <ele>2198.9</ele>
        <time>2021-08-12T09:31:00Z</time>
      </trkpt>
      <trkpt lat="45.50264" lon="6.73972">
        <ele>2198.9</ele>
        <time>2021-08-12T09:31:01Z</time>
      </trkpt>
      <trkpt lat="45.50264" lon="6.73972">
        <ele>2198.9</ele>
        <time>2021-08-12T09:31:02Z</time>
      </trkpt>
      <trkpt lat="45.50264" lon="6.73972">
        <ele>2198.9</ele>
        <time>2021-08-12T09:31:03Z</time>
      </trkpt>
      <trkpt lat="45.50264" lon="6.73972">
        <ele>2198.9</ele>
        <time>2021-08-12T09:31:04Z</time>
      </trkpt>
      <trkpt lat="45.50264" lon="6.73972">
        <ele>2198.9</ele>
        <time>2021-08-12T09:31:05Z</time>
      </trkpt>
      <trkpt lat="45.50264" lon="6.73972">
        <ele>2198.9</ele>
        <time>2021-08-12T09:31:06Z</time>
      </trkpt>
      <trkpt lat="45.50264" lon="6.73972">
        <ele>2198.9</ele>
        <time>2021-08-12T09:31:07Z</time>
      </trkpt>
      <trkpt lat="45.50263" lon="6.73972">
        <ele>2199</ele>
        <time>2021-08-12T09:31:08Z</time>
      </trkpt>
      <trkpt lat="45.50263" lon="6.73972">
        <ele>2199</ele>
        <time>2021-08-12T09:31:09Z</time>
      </trkpt>
      <trkpt lat="45.50263" lon="6.73972">
        <ele>2199</ele>
        <time>2021-08-12T09:31:10Z</time>
      </trkpt>
      <trkpt lat="45.50263" lon="6.73972">
        <ele>2199</ele>
        <time>2021-08-12T09:31:11Z</time>
      </trkpt>
      <trkpt lat="45.50263" lon="6.73972">
        <ele>2199.1</ele>
        <time>2021-08-12T09:31:12Z</time>
      </trkpt>
      <trkpt lat="45.50263" lon="6.73973">
        <ele>2199.1</ele>
        <time>2021-08-12T09:31:13Z</time>
      </trkpt>
      <trkpt lat="45.50263" lon="6.73973">
        <ele>2199.2</ele>
        <time>2021-08-12T09:31:14Z</time>
      </trkpt>
      <trkpt lat="45.50262" lon="6.73973">
        <ele>2199.2</ele>
        <time>2021-08-12T09:31:15Z</time>
      </trkpt>
      <trkpt lat="45.50262" lon="6.73973">
        <ele>2199.3</ele>
        <time>2021-08-12T09:31:16Z</time>
      </trkpt>
      <trkpt lat="45.50262" lon="6.73973">
        <ele>2199.4</ele>
        <time>2021-08-12T09:31:17Z</time>
      </trkpt>
      <trkpt lat="45.50262" lon="6.73973">
        <ele>2199.4</ele>
        <time>2021-08-12T09:31:18Z</time>
      </trkpt>
      <trkpt lat="45.50261" lon="6.73973">
        <ele>2199.5</ele>
        <time>2021-08-12T09:31:19Z</time>
      </trkpt>
      <trkpt lat="45.50261" lon="6.73973">
        <ele>2199.6</ele>
        <time>2021-08-12T09:31:20Z</time>
      </trkpt>
      <trkpt lat="45.5026" lon="6.73973">
        <ele>2199.7</ele>
        <time>2021-08-12T09:31:21Z</time>
      </trkpt>
      <trkpt lat="45.5026" lon="6.73973">
        <ele>2199.9</ele>
        <time>2021-08-12T09:31:22Z</time>
      </trkpt>
      <trkpt lat="45.50259" lon="6.73974">
        <ele>2200</ele>
        <time>2021-08-12T09:31:23Z</time>
      </trkpt>
      <trkpt lat="45.50259" lon="6.73974">
        <ele>2200.1</ele>
        <time>2021-08-12T09:31:24Z</time>
      </trkpt>
      <trkpt lat="45.50258" lon="6.73974">
        <ele>2200.3</ele>
        <time>2021-08-12T09:31:25Z</time>
      </trkpt>
      <trkpt lat="45.50258" lon="6.73974">
        <ele>2200.4</ele>
        <time>2021-08-12T09:31:26Z</time>
      </trkpt>
      <trkpt lat="45.50257" lon="6.73974">
        <ele>2200.5</ele>
        <time>2021-08-12T09:31:27Z</time>
      </trkpt>
      <trkpt lat="45.50257" lon="6.73974">
        <ele>2200.6</ele>
        <time>2021-08-12T09:31:28Z</time>
      </trkpt>
      <trkpt lat="45.50256" lon="6.73975">
        <ele>2200.8</ele>
        <time>2021-08-12T09:31:29Z</time>
      </trkpt>
      <trkpt lat="45.50256" lon="6.73975">
        <ele>2200.9</ele>
        <time>2021-08-12T09:31:30Z</time>
      </trkpt>
      <trkpt lat="45.50256" lon="6.73975">
        <ele>2201</ele>
        <time>2021-08-12T09:31:31Z</time>
      </trkpt>
      <trkpt lat="45.50255" lon="6.73975">
        <ele>2201</ele>
        <time>2021-08-12T09:31:32Z</time>
      </trkpt>
      <trkpt lat="45.50255" lon="6.73975">
        <ele>2201.1</ele>
        <time>2021-08-12T09:31:33Z</time>
      </trkpt>
      <trkpt lat="45.50255" lon="6.73975">
        <ele>2201.1</ele>
        <time>2021-08-12T09:31:34Z</time>
      </trkpt>
      <trkpt lat="45.50255" lon="6.73975">
        <ele>2201.2</ele>
        <time>2021-08-12T09:31:35Z</time>
      </trkpt>
      <trkpt lat="45.50255" lon="6.73975">
        <ele>2201.2</ele>
        <time>2021-08-12T09:31:36Z</time>
      </trkpt>
      <trkpt lat="45.50255" lon="6.73975">
        <ele>2201.2</ele>
        <time>2021-08-12T09:31:37Z</time>
      </trkpt>
      <trkpt lat="45.50255" lon="6.73975">
        <ele>2201.2</ele>
        <time>2021-08-12T09:31:38Z</time>
      </trkpt>
      <trkpt lat="45.50255" lon="6.73975">
        <ele>2201.2</ele>
        <time>2021-08-12T09:31:39Z</time>
      </trkpt>
      <trkpt lat="45.50255" lon="6.73975">
        <ele>2201.2</ele>
        <time>2021-08-12T09:31:40Z</time>
      </trkpt>
      <trkpt lat="45.50255" lon="6.73975">
        <ele>2201.2</ele>
        <time>2021-08-12T09:31:41Z</time>
      </trkpt>
      <trkpt lat="45.50255" lon="6.73975">
        <ele>2201.2</ele>
        <time>2021-08-12T09:31:42Z</time>
      </trkpt>
      <trkpt lat="45.50255" lon="6.73975">
        <ele>2201.2</ele>
        <time>2021-08-12T09:31:43Z</time>
      </trkpt>
      <trkpt lat="45.50255" lon="6.73975">
        <ele>2201.2</ele>
        <time>2021-08-12T09:31:44Z</time>
      </trkpt>
      <trkpt lat="45.50255" lon="6.73975">
        <ele>2201.2</ele>
        <time>2021-08-12T09:31:45Z</time>
      </trkpt>
      <trkpt lat="45.50255" lon="6.73975">
        <ele>2201.2</ele>
        <time>2021-08-12T09:31:46Z</time>
      </trkpt>
      <trkpt lat="45.50255" lon="6.73975">
        <ele>2201.2</ele>
        <time>2021-08-12T09:31:47Z</time>
      </trkpt>
      <trkpt lat="45.50255" lon="6.73975">
        <ele>2201.2</ele>
        <time>2021-08-12T09:31:48Z</time>
      </trkpt>
      <trkpt lat="45.50255" lon="6.73975">
        <ele>2201.2</ele>
        <time>2021-08-12T09:31:49Z</time>
      </trkpt>
      <trkpt lat="45.50255" lon="6.73975">
        <ele>2201.3</ele>
        <time>2021-08-12T09:31:50Z</time>
      </trkpt>
      <trkpt lat="45.50255" lon="6.73975">
        <ele>2201.3</ele>
        <time>2021-08-12T09:31:51Z</time>
      </trkpt>
      <trkpt lat="45.50255" lon="6.73975">
        <ele>2201.3</ele>
        <time>2021-08-12T09:31:52Z</time>
      </trkpt>
      <trkpt lat="45.50255" lon="6.73975">
        <ele>2201.3</ele>
        <time>2021-08-12T09:31:53Z</time>
      </trkpt>
      <trkpt lat="45.50255" lon="6.73975">
        <ele>2201.3</ele>
        <time>2021-08-12T09:31:54Z</time>
      </trkpt>
      <trkpt lat="45.50255" lon="6.73975">
        <ele>2201.3</ele>
        <time>2021-08-12T09:31:55Z</time>
      </trkpt>
      <trkpt lat="45.50255" lon="6.73975">
        <ele>2201.3</ele>
        <time>2021-08-12T09:31:56Z</time>
      </trkpt>
      <trkpt lat="45.50255" lon="6.73975">
        <ele>2201.3</ele>
        <time>2021-08-12T09:31:57Z</time>
      </trkpt>
      <trkpt lat="45.50255" lon="6.73975">
        <ele>2201.3</ele>
        <time>2021-08-12T09:31:58Z</time>
      </trkpt>
      <trkpt lat="45.50255" lon="6.73975">
        <ele>2201.3</ele>
        <time>2021-08-12T09:31:59Z</time>
      </trkpt>
      <trkpt lat="45.50255" lon="6.73975">
        <ele>2201.3</ele>
        <time>2021-08-12T09:32:00Z</time>
      </trkpt>
      <trkpt lat="45.50255" lon="6.73975">
        <ele>2201.3</ele>
        <time>2021-08-12T09:32:01Z</time>
      </trkpt>
      <trkpt lat="45.50255" lon="6.73975">
        <ele>2201.3</ele>
        <time>2021-08-12T09:32:02Z</time>
      </trkpt>
      <trkpt lat="45.50255" lon="6.73975">
        <ele>2201.3</ele>
        <time>2021-08-12T09:32:03Z</time>
      </trkpt>
      <trkpt lat="45.50255" lon="6.73975">
        <ele>2201.3</ele>
        <time>2021-08-12T09:32:04Z</time>
      </trkpt>
      <trkpt lat="45.50255" lon="6.73975">
        <ele>2201.3</ele>
        <time>2021-08-12T09:32:05Z</time>
      </trkpt>
      <trkpt lat="45.50255" lon="6.73975">
        <ele>2201.3</ele>
        <time>2021-08-12T09:32:06Z</time>
      </trkpt>
      <trkpt lat="45.50255" lon="6.73975">
        <ele>2201.3</ele>
        <time>2021-08-12T09:32:07Z</time>
      </trkpt>
      <trkpt lat="45.50255" lon="6.73975">
        <ele>2201.3</ele>
        <time>2021-08-12T09:32:08Z</time>
      </trkpt>
      <trkpt lat="45.50255" lon="6.73975">
        <ele>2201.3</ele>
        <time>2021-08-12T09:32:09Z</time>
      </trkpt>
      <trkpt lat="45.50255" lon="6.73975">
        <ele>2201.3</ele>
        <time>2021-08-12T09:32:10Z</time>
      </trkpt>
      <trkpt lat="45.50255" lon="6.73975">
        <ele>2201.3</ele>
        <time>2021-08-12T09:32:11Z</time>
      </trkpt>
      <trkpt lat="45.50255" lon="6.73975">
        <ele>2201.3</ele>
        <time>2021-08-12T09:32:12Z</time>
      </trkpt>
      <trkpt lat="45.50255" lon="6.73975">
        <ele>2201.3</ele>
        <time>2021-08-12T09:32:13Z</time>
      </trkpt>
      <trkpt lat="45.50255" lon="6.73975">
        <ele>2201.3</ele>
        <time>2021-08-12T09:32:14Z</time>
      </trkpt>
      <trkpt lat="45.50255" lon="6.73975">
        <ele>2201.3</ele>
        <time>2021-08-12T09:32:15Z</time>
      </trkpt>
      <trkpt lat="45.50255" lon="6.73975">
        <ele>2201.3</ele>
        <time>2021-08-12T09:32:16Z</time>
      </trkpt>
      <trkpt lat="45.50255" lon="6.73975">
        <ele>2201.3</ele>
        <time>2021-08-12T09:32:17Z</time>
      </trkpt>
      <trkpt lat="45.50255" lon="6.73975">
        <ele>2201.3</ele>
        <time>2021-08-12T09:32:18Z</time>
      </trkpt>
      <trkpt lat="45.50255" lon="6.73975">
        <ele>2201.3</ele>
        <time>2021-08-12T09:32:19Z</time>
      </trkpt>
      <trkpt lat="45.50255" lon="6.73975">
        <ele>2201.3</ele>
        <time>2021-08-12T09:32:20Z</time>
      </trkpt>
      <trkpt lat="45.50255" lon="6.73975">
        <ele>2201.3</ele>
        <time>2021-08-12T09:32:21Z</time>
      </trkpt>
      <trkpt lat="45.50255" lon="6.73975">
        <ele>2201.3</ele>
        <time>2021-08-12T09:32:22Z</time>
      </trkpt>
      <trkpt lat="45.50255" lon="6.73975">
        <ele>2201.3</ele>
        <time>2021-08-12T09:32:23Z</time>
      </trkpt>
      <trkpt lat="45.50255" lon="6.73975">
        <ele>2201.3</ele>
        <time>2021-08-12T09:32:24Z</time>
      </trkpt>
      <trkpt lat="45.50255" lon="6.73975">
        <ele>2201.3</ele>
        <time>2021-08-12T09:32:25Z</time>
      </trkpt>
      <trkpt lat="45.50255" lon="6.73975">
        <ele>2201.3</ele>
        <time>2021-08-12T09:32:26Z</time>
      </trkpt>
      <trkpt lat="45.50255" lon="6.73975">
        <ele>2201.3</ele>
        <time>2021-08-12T09:32:27Z</time>
      </trkpt>
      <trkpt lat="45.50255" lon="6.73975">
        <ele>2201.3</ele>
        <time>2021-08-12T09:32:28Z</time>
      </trkpt>
      <trkpt lat="45.50255" lon="6.73975">
        <ele>2201.3</ele>
        <time>2021-08-12T09:32:29Z</time>
      </trkpt>
      <trkpt lat="45.50255" lon="6.73975">
        <ele>2201.3</ele>
        <time>2021-08-12T09:32:30Z</time>
      </trkpt>
      <trkpt lat="45.50255" lon="6.73975">
        <ele>2201.3</ele>
        <time>2021-08-12T09:32:31Z</time>
      </trkpt>
      <trkpt lat="45.50255" lon="6.73975">
        <ele>2201.3</ele>
        <time>2021-08-12T09:32:32Z</time>
      </trkpt>
      <trkpt lat="45.50255" lon="6.73975">
        <ele>2201.3</ele>
        <time>2021-08-12T09:32:33Z</time>
      </trkpt>
      <trkpt lat="45.50255" lon="6.73975">
        <ele>2201.3</ele>
        <time>2021-08-12T09:32:34Z</time>
      </trkpt>
      <trkpt lat="45.50255" lon="6.73975">
        <ele>2201.3</ele>
        <time>2021-08-12T09:32:35Z</time>
      </trkpt>
      <trkpt lat="45.50255" lon="6.73975">
        <ele>2201.3</ele>
        <time>2021-08-12T09:32:36Z</time>
      </trkpt>
      <trkpt lat="45.50255" lon="6.73975">
        <ele>2201.3</ele>
        <time>2021-08-12T09:32:37Z</time>
      </trkpt>
      <trkpt lat="45.50255" lon="6.73975">
        <ele>2201.3</ele>
        <time>2021-08-12T09:32:38Z</time>
      </trkpt>
      <trkpt lat="45.50255" lon="6.73975">
        <ele>2201.3</ele>
        <time>2021-08-12T09:32:39Z</time>
      </trkpt>
      <trkpt lat="45.50255" lon="6.73975">
        <ele>2201.3</ele>
        <time>2021-08-12T09:32:40Z</time>
      </trkpt>
      <trkpt lat="45.50255" lon="6.73975">
        <ele>2201.3</ele>
        <time>2021-08-12T09:32:41Z</time>
      </trkpt>
      <trkpt lat="45.50255" lon="6.73975">
        <ele>2201.3</ele>
        <time>2021-08-12T09:32:42Z</time>
      </trkpt>
      <trkpt lat="45.50255" lon="6.73975">
        <ele>2201.3</ele>
        <time>2021-08-12T09:32:43Z</time>
      </trkpt>
      <trkpt lat="45.50255" lon="6.73975">
        <ele>2201.3</ele>
        <time>2021-08-12T09:32:44Z</time>
      </trkpt>
      <trkpt lat="45.50255" lon="6.73975">
        <ele>2201.3</ele>
        <time>2021-08-12T09:32:45Z</time>
      </trkpt>
      <trkpt lat="45.50255" lon="6.73975">
        <ele>2201.3</ele>
        <time>2021-08-12T09:32:46Z</time>
      </trkpt>
      <trkpt lat="45.50255" lon="6.73975">
        <ele>2201.3</ele>
        <time>2021-08-12T09:32:47Z</time>
      </trkpt>
      <trkpt lat="45.50255" lon="6.73975">
        <ele>2201.3</ele>
        <time>2021-08-12T09:32:48Z</time>
      </trkpt>
      <trkpt lat="45.50255" lon="6.73975">
        <ele>2201.3</ele>
        <time>2021-08-12T09:32:49Z</time>
      </trkpt>
      <trkpt lat="45.50255" lon="6.73975">
        <ele>2201.3</ele>
        <time>2021-08-12T09:32:50Z</time>
      </trkpt>
      <trkpt lat="45.50255" lon="6.73975">
        <ele>2201.3</ele>
        <time>2021-08-12T09:32:51Z</time>
      </trkpt>
      <trkpt lat="45.50255" lon="6.73975">
        <ele>2201.3</ele>
        <time>2021-08-12T09:32:52Z</time>
      </trkpt>
      <trkpt lat="45.50255" lon="6.73975">
        <ele>2201.3</ele>
        <time>2021-08-12T09:32:53Z</time>
      </trkpt>
      <trkpt lat="45.50255" lon="6.73975">
        <ele>2201.3</ele>
        <time>2021-08-12T09:32:54Z</time>
      </trkpt>
      <trkpt lat="45.50255" lon="6.73975">
        <ele>2201.3</ele>
        <time>2021-08-12T09:32:55Z</time>
      </trkpt>
      <trkpt lat="45.50255" lon="6.73975">
        <ele>2201.3</ele>
        <time>2021-08-12T09:32:56Z</time>
      </trkpt>
      <trkpt lat="45.50255" lon="6.73975">
        <ele>2201.3</ele>
        <time>2021-08-12T09:32:57Z</time>
      </trkpt>
      <trkpt lat="45.50255" lon="6.73975">
        <ele>2201.3</ele>
        <time>2021-08-12T09:32:58Z</time>
      </trkpt>
      <trkpt lat="45.50255" lon="6.73975">
        <ele>2201.3</ele>
        <time>2021-08-12T09:32:59Z</time>
      </trkpt>
      <trkpt lat="45.50255" lon="6.73975">
        <ele>2201.3</ele>
        <time>2021-08-12T09:33:00Z</time>
      </trkpt>
      <trkpt lat="45.50255" lon="6.73975">
        <ele>2201.3</ele>
        <time>2021-08-12T09:33:01Z</time>
      </trkpt>
      <trkpt lat="45.50255" lon="6.73975">
        <ele>2201.3</ele>
        <time>2021-08-12T09:33:02Z</time>
      </trkpt>
      <trkpt lat="45.50255" lon="6.73975">
        <ele>2201.3</ele>
        <time>2021-08-12T09:33:03Z</time>
      </trkpt>
      <trkpt lat="45.50255" lon="6.73975">
        <ele>2201.3</ele>
        <time>2021-08-12T09:33:04Z</time>
      </trkpt>
      <trkpt lat="45.50255" lon="6.73975">
        <ele>2201.3</ele>
        <time>2021-08-12T09:33:05Z</time>
      </trkpt>
      <trkpt lat="45.50255" lon="6.73975">
        <ele>2201.3</ele>
        <time>2021-08-12T09:33:06Z</time>
      </trkpt>
      <trkpt lat="45.50255" lon="6.73975">
        <ele>2201.3</ele>
        <time>2021-08-12T09:33:07Z</time>
      </trkpt>
      <trkpt lat="45.50255" lon="6.73975">
        <ele>2201.3</ele>
        <time>2021-08-12T09:33:08Z</time>
      </trkpt>
      <trkpt lat="45.50255" lon="6.73975">
        <ele>2201.3</ele>
        <time>2021-08-12T09:33:09Z</time>
      </trkpt>
      <trkpt lat="45.50255" lon="6.73975">
        <ele>2201.3</ele>
        <time>2021-08-12T09:33:10Z</time>
      </trkpt>
      <trkpt lat="45.50255" lon="6.73975">
        <ele>2201.3</ele>
        <time>2021-08-12T09:33:11Z</time>
      </trkpt>
      <trkpt lat="45.50255" lon="6.73975">
        <ele>2201.3</ele>
        <time>2021-08-12T09:33:12Z</time>
      </trkpt>
      <trkpt lat="45.50255" lon="6.73975">
        <ele>2201.3</ele>
        <time>2021-08-12T09:33:13Z</time>
      </trkpt>
      <trkpt lat="45.50255" lon="6.73975">
        <ele>2201.3</ele>
        <time>2021-08-12T09:33:14Z</time>
      </trkpt>
      <trkpt lat="45.50255" lon="6.73975">
        <ele>2201.3</ele>
        <time>2021-08-12T09:33:15Z</time>
      </trkpt>
      <trkpt lat="45.50255" lon="6.73975">
        <ele>2201.3</ele>
        <time>2021-08-12T09:33:16Z</time>
      </trkpt>
      <trkpt lat="45.50255" lon="6.73975">
        <ele>2201.3</ele>
        <time>2021-08-12T09:33:17Z</time>
      </trkpt>
      <trkpt lat="45.50255" lon="6.73975">
        <ele>2201.3</ele>
        <time>2021-08-12T09:33:18Z</time>
      </trkpt>
      <trkpt lat="45.50255" lon="6.73975">
        <ele>2201.3</ele>
        <time>2021-08-12T09:33:19Z</time>
      </trkpt>
      <trkpt lat="45.50255" lon="6.73975">
        <ele>2201.3</ele>
        <time>2021-08-12T09:33:20Z</time>
      </trkpt>
      <trkpt lat="45.50255" lon="6.73975">
        <ele>2201.3</ele>
        <time>2021-08-12T09:33:21Z</time>
      </trkpt>
      <trkpt lat="45.50255" lon="6.73975">
        <ele>2201.3</ele>
        <time>2021-08-12T09:33:22Z</time>
      </trkpt>
      <trkpt lat="45.50255" lon="6.73975">
        <ele>2201.3</ele>
        <time>2021-08-12T09:33:23Z</time>
      </trkpt>
      <trkpt lat="45.50255" lon="6.73975">
        <ele>2201.3</ele>
        <time>2021-08-12T09:33:24Z</time>
      </trkpt>
      <trkpt lat="45.50255" lon="6.73975">
        <ele>2201.3</ele>
        <time>2021-08-12T09:33:25Z</time>
      </trkpt>
      <trkpt lat="45.50255" lon="6.73975">
        <ele>2201.3</ele>
        <time>2021-08-12T09:33:26Z</time>
      </trkpt>
      <trkpt lat="45.50255" lon="6.73975">
        <ele>2201.3</ele>
        <time>2021-08-12T09:33:27Z</time>
      </trkpt>
      <trkpt lat="45.50255" lon="6.73975">
        <ele>2201.3</ele>
        <time>2021-08-12T09:33:28Z</time>
      </trkpt>
      <trkpt lat="45.50255" lon="6.73975">
        <ele>2201.3</ele>
        <time>2021-08-12T09:33:29Z</time>
      </trkpt>
      <trkpt lat="45.50255" lon="6.73975">
        <ele>2201.3</ele>
        <time>2021-08-12T09:33:30Z</time>
      </trkpt>
      <trkpt lat="45.50255" lon="6.73975">
        <ele>2201.3</ele>
        <time>2021-08-12T09:33:31Z</time>
      </trkpt>
      <trkpt lat="45.50255" lon="6.73975">
        <ele>2201.3</ele>
        <time>2021-08-12T09:33:32Z</time>
      </trkpt>
      <trkpt lat="45.50255" lon="6.73975">
        <ele>2201.3</ele>
        <time>2021-08-12T09:33:33Z</time>
      </trkpt>
      <trkpt lat="45.50255" lon="6.73975">
        <ele>2201.3</ele>
        <time>2021-08-12T09:33:34Z</time>
      </trkpt>
      <trkpt lat="45.50255" lon="6.73975">
        <ele>2201.3</ele>
        <time>2021-08-12T09:33:35Z</time>
      </trkpt>
      <trkpt lat="45.50255" lon="6.73975">
        <ele>2201.3</ele>
        <time>2021-08-12T09:33:36Z</time>
      </trkpt>
      <trkpt lat="45.50255" lon="6.73975">
        <ele>2201.3</ele>
        <time>2021-08-12T09:33:37Z</time>
      </trkpt>
      <trkpt lat="45.50255" lon="6.73975">
        <ele>2201.3</ele>
        <time>2021-08-12T09:33:38Z</time>
      </trkpt>
      <trkpt lat="45.50255" lon="6.73975">
        <ele>2201.3</ele>
        <time>2021-08-12T09:33:39Z</time>
      </trkpt>
      <trkpt lat="45.50255" lon="6.73975">
        <ele>2201.3</ele>
        <time>2021-08-12T09:33:40Z</time>
      </trkpt>
      <trkpt lat="45.50255" lon="6.73975">
        <ele>2201.3</ele>
        <time>2021-08-12T09:33:41Z</time>
      </trkpt>
      <trkpt lat="45.50255" lon="6.73975">
        <ele>2201.3</ele>
        <time>2021-08-12T09:33:42Z</time>
      </trkpt>
      <trkpt lat="45.50255" lon="6.73975">
        <ele>2201.3</ele>
        <time>2021-08-12T09:33:43Z</time>
      </trkpt>
      <trkpt lat="45.50255" lon="6.73975">
        <ele>2201.3</ele>
        <time>2021-08-12T09:33:44Z</time>
      </trkpt>
      <trkpt lat="45.50255" lon="6.73975">
        <ele>2201.3</ele>
        <time>2021-08-12T09:33:45Z</time>
      </trkpt>
      <trkpt lat="45.50255" lon="6.73975">
        <ele>2201.3</ele>
        <time>2021-08-12T09:33:46Z</time>
      </trkpt>
      <trkpt lat="45.50255" lon="6.73975">
        <ele>2201.3</ele>
        <time>2021-08-12T09:33:47Z</time>
      </trkpt>
      <trkpt lat="45.50255" lon="6.73975">
        <ele>2201.3</ele>
        <time>2021-08-12T09:33:48Z</time>
      </trkpt>
      <trkpt lat="45.50255" lon="6.73975">
        <ele>2201.3</ele>
        <time>2021-08-12T09:33:49Z</time>
      </trkpt>
      <trkpt lat="45.50255" lon="6.73975">
        <ele>2201.3</ele>
        <time>2021-08-12T09:33:50Z</time>
      </trkpt>
      <trkpt lat="45.50255" lon="6.73975">
        <ele>2201.3</ele>
        <time>2021-08-12T09:33:51Z</time>
      </trkpt>
      <trkpt lat="45.50255" lon="6.73975">
        <ele>2201.3</ele>
        <time>2021-08-12T09:33:52Z</time>
      </trkpt>
      <trkpt lat="45.50255" lon="6.73975">
        <ele>2201.3</ele>
        <time>2021-08-12T09:33:53Z</time>
      </trkpt>
      <trkpt lat="45.50255" lon="6.73975">
        <ele>2201.3</ele>
        <time>2021-08-12T09:33:54Z</time>
      </trkpt>
      <trkpt lat="45.50255" lon="6.73975">
        <ele>2201.3</ele>
        <time>2021-08-12T09:33:55Z</time>
      </trkpt>
      <trkpt lat="45.50255" lon="6.73975">
        <ele>2201.3</ele>
        <time>2021-08-12T09:33:56Z</time>
      </trkpt>
      <trkpt lat="45.50255" lon="6.73975">
        <ele>2201.3</ele>
        <time>2021-08-12T09:33:57Z</time>
      </trkpt>
      <trkpt lat="45.50255" lon="6.73975">
        <ele>2201.3</ele>
        <time>2021-08-12T09:33:58Z</time>
      </trkpt>
      <trkpt lat="45.50255" lon="6.73975">
        <ele>2201.3</ele>
        <time>2021-08-12T09:33:59Z</time>
      </trkpt>
      <trkpt lat="45.50255" lon="6.73975">
        <ele>2201.3</ele>
        <time>2021-08-12T09:34:00Z</time>
      </trkpt>
      <trkpt lat="45.50255" lon="6.73975">
        <ele>2201.3</ele>
        <time>2021-08-12T09:34:01Z</time>
      </trkpt>
      <trkpt lat="45.50255" lon="6.73975">
        <ele>2201.3</ele>
        <time>2021-08-12T09:34:02Z</time>
      </trkpt>
      <trkpt lat="45.50255" lon="6.73975">
        <ele>2201.3</ele>
        <time>2021-08-12T09:34:03Z</time>
      </trkpt>
      <trkpt lat="45.50255" lon="6.73975">
        <ele>2201.3</ele>
        <time>2021-08-12T09:34:04Z</time>
      </trkpt>
      <trkpt lat="45.50255" lon="6.73975">
        <ele>2201.3</ele>
        <time>2021-08-12T09:34:05Z</time>
      </trkpt>
      <trkpt lat="45.50255" lon="6.73975">
        <ele>2201.3</ele>
        <time>2021-08-12T09:34:06Z</time>
      </trkpt>
      <trkpt lat="45.50255" lon="6.73975">
        <ele>2201.3</ele>
        <time>2021-08-12T09:34:07Z</time>
      </trkpt>
      <trkpt lat="45.50255" lon="6.73975">
        <ele>2201.3</ele>
        <time>2021-08-12T09:34:08Z</time>
      </trkpt>
      <trkpt lat="45.50255" lon="6.73975">
        <ele>2201.3</ele>
        <time>2021-08-12T09:34:09Z</time>
      </trkpt>
      <trkpt lat="45.50255" lon="6.73975">
        <ele>2201.3</ele>
        <time>2021-08-12T09:34:10Z</time>
      </trkpt>
      <trkpt lat="45.50255" lon="6.73975">
        <ele>2201.3</ele>
        <time>2021-08-12T09:34:11Z</time>
      </trkpt>
      <trkpt lat="45.50255" lon="6.73975">
        <ele>2201.3</ele>
        <time>2021-08-12T09:34:12Z</time>
      </trkpt>
      <trkpt lat="45.50255" lon="6.73975">
        <ele>2201.3</ele>
        <time>2021-08-12T09:34:13Z</time>
      </trkpt>
      <trkpt lat="45.50255" lon="6.73975">
        <ele>2201.3</ele>
        <time>2021-08-12T09:34:14Z</time>
      </trkpt>
      <trkpt lat="45.50255" lon="6.73975">
        <ele>2201.3</ele>
        <time>2021-08-12T09:34:15Z</time>
      </trkpt>
      <trkpt lat="45.50255" lon="6.73975">
        <ele>2201.3</ele>
        <time>2021-08-12T09:34:16Z</time>
      </trkpt>
      <trkpt lat="45.50255" lon="6.73975">
        <ele>2201.3</ele>
        <time>2021-08-12T09:34:17Z</time>
      </trkpt>
      <trkpt lat="45.50255" lon="6.73975">
        <ele>2201.3</ele>
        <time>2021-08-12T09:34:18Z</time>
      </trkpt>
      <trkpt lat="45.50255" lon="6.73975">
        <ele>2201.3</ele>
        <time>2021-08-12T09:34:19Z</time>
      </trkpt>
      <trkpt lat="45.50255" lon="6.73975">
        <ele>2201.3</ele>
        <time>2021-08-12T09:34:20Z</time>
      </trkpt>
      <trkpt lat="45.50255" lon="6.73975">
        <ele>2201.3</ele>
        <time>2021-08-12T09:34:21Z</time>
      </trkpt>
      <trkpt lat="45.50255" lon="6.73975">
        <ele>2201.3</ele>
        <time>2021-08-12T09:34:22Z</time>
      </trkpt>
      <trkpt lat="45.50255" lon="6.73975">
        <ele>2201.3</ele>
        <time>2021-08-12T09:34:23Z</time>
      </trkpt>
      <trkpt lat="45.50255" lon="6.73975">
        <ele>2201.3</ele>
        <time>2021-08-12T09:34:24Z</time>
      </trkpt>
      <trkpt lat="45.50255" lon="6.73975">
        <ele>2201.3</ele>
        <time>2021-08-12T09:34:25Z</time>
      </trkpt>
      <trkpt lat="45.50255" lon="6.73975">
        <ele>2201.3</ele>
        <time>2021-08-12T09:34:26Z</time>
      </trkpt>
      <trkpt lat="45.50255" lon="6.73975">
        <ele>2201.3</ele>
        <time>2021-08-12T09:34:27Z</time>
      </trkpt>
      <trkpt lat="45.50255" lon="6.73975">
        <ele>2201.3</ele>
        <time>2021-08-12T09:34:28Z</time>
      </trkpt>
      <trkpt lat="45.50255" lon="6.73975">
        <ele>2201.3</ele>
        <time>2021-08-12T09:34:29Z</time>
      </trkpt>
      <trkpt lat="45.50255" lon="6.73975">
        <ele>2201.3</ele>
        <time>2021-08-12T09:34:30Z</time>
      </trkpt>
      <trkpt lat="45.50255" lon="6.73975">
        <ele>2201.3</ele>
        <time>2021-08-12T09:34:31Z</time>
      </trkpt>
      <trkpt lat="45.50255" lon="6.73975">
        <ele>2201.3</ele>
        <time>2021-08-12T09:34:32Z</time>
      </trkpt>
      <trkpt lat="45.50255" lon="6.73975">
        <ele>2201.3</ele>
        <time>2021-08-12T09:34:33Z</time>
      </trkpt>
      <trkpt lat="45.50255" lon="6.73975">
        <ele>2201.3</ele>
        <time>2021-08-12T09:34:34Z</time>
      </trkpt>
      <trkpt lat="45.50255" lon="6.73975">
        <ele>2201.3</ele>
        <time>2021-08-12T09:34:35Z</time>
      </trkpt>
      <trkpt lat="45.50254" lon="6.73975">
        <ele>2201.3</ele>
        <time>2021-08-12T09:34:36Z</time>
      </trkpt>
      <trkpt lat="45.50254" lon="6.73975">
        <ele>2201.3</ele>
        <time>2021-08-12T09:34:37Z</time>
      </trkpt>
      <trkpt lat="45.50254" lon="6.73975">
        <ele>2201.3</ele>
        <time>2021-08-12T09:34:38Z</time>
      </trkpt>
      <trkpt lat="45.50254" lon="6.73975">
        <ele>2201.3</ele>
        <time>2021-08-12T09:34:39Z</time>
      </trkpt>
      <trkpt lat="45.50254" lon="6.73975">
        <ele>2201.4</ele>
        <time>2021-08-12T09:34:40Z</time>
      </trkpt>
      <trkpt lat="45.50254" lon="6.73975">
        <ele>2201.4</ele>
        <time>2021-08-12T09:34:41Z</time>
      </trkpt>
      <trkpt lat="45.50254" lon="6.73975">
        <ele>2201.4</ele>
        <time>2021-08-12T09:34:42Z</time>
      </trkpt>
      <trkpt lat="45.50254" lon="6.73975">
        <ele>2201.4</ele>
        <time>2021-08-12T09:34:43Z</time>
      </trkpt>
      <trkpt lat="45.50254" lon="6.73975">
        <ele>2201.4</ele>
        <time>2021-08-12T09:34:44Z</time>
      </trkpt>
      <trkpt lat="45.50254" lon="6.73975">
        <ele>2201.4</ele>
        <time>2021-08-12T09:34:45Z</time>
      </trkpt>
      <trkpt lat="45.50254" lon="6.73975">
        <ele>2201.4</ele>
        <time>2021-08-12T09:34:46Z</time>
      </trkpt>
      <trkpt lat="45.50254" lon="6.73975">
        <ele>2201.4</ele>
        <time>2021-08-12T09:34:47Z</time>
      </trkpt>
      <trkpt lat="45.50254" lon="6.73975">
        <ele>2201.4</ele>
        <time>2021-08-12T09:34:48Z</time>
      </trkpt>
      <trkpt lat="45.50254" lon="6.73975">
        <ele>2201.5</ele>
        <time>2021-08-12T09:34:49Z</time>
      </trkpt>
      <trkpt lat="45.50254" lon="6.73975">
        <ele>2201.5</ele>
        <time>2021-08-12T09:34:50Z</time>
      </trkpt>
      <trkpt lat="45.50254" lon="6.73975">
        <ele>2201.5</ele>
        <time>2021-08-12T09:34:51Z</time>
      </trkpt>
      <trkpt lat="45.50254" lon="6.73975">
        <ele>2201.5</ele>
        <time>2021-08-12T09:34:52Z</time>
      </trkpt>
      <trkpt lat="45.50254" lon="6.73975">
        <ele>2201.6</ele>
        <time>2021-08-12T09:34:53Z</time>
      </trkpt>
      <trkpt lat="45.50254" lon="6.73975">
        <ele>2201.6</ele>
        <time>2021-08-12T09:34:54Z</time>
      </trkpt>
      <trkpt lat="45.50254" lon="6.73975">
        <ele>2201.6</ele>
        <time>2021-08-12T09:34:55Z</time>
      </trkpt>
      <trkpt lat="45.50253" lon="6.73975">
        <ele>2201.6</ele>
        <time>2021-08-12T09:34:56Z</time>
      </trkpt>
      <trkpt lat="45.50253" lon="6.73975">
        <ele>2201.6</ele>
        <time>2021-08-12T09:34:57Z</time>
      </trkpt>
      <trkpt lat="45.50253" lon="6.73975">
        <ele>2201.7</ele>
        <time>2021-08-12T09:34:58Z</time>
      </trkpt>
      <trkpt lat="45.50253" lon="6.73975">
        <ele>2201.7</ele>
        <time>2021-08-12T09:34:59Z</time>
      </trkpt>
      <trkpt lat="45.50253" lon="6.73975">
        <ele>2201.7</ele>
        <time>2021-08-12T09:35:00Z</time>
      </trkpt>
      <trkpt lat="45.50253" lon="6.73975">
        <ele>2201.7</ele>
        <time>2021-08-12T09:35:01Z</time>
      </trkpt>
      <trkpt lat="45.50253" lon="6.73975">
        <ele>2201.8</ele>
        <time>2021-08-12T09:35:02Z</time>
      </trkpt>
      <trkpt lat="45.50253" lon="6.73975">
        <ele>2201.8</ele>
        <time>2021-08-12T09:35:03Z</time>
      </trkpt>
      <trkpt lat="45.50253" lon="6.73975">
        <ele>2201.8</ele>
        <time>2021-08-12T09:35:04Z</time>
      </trkpt>
      <trkpt lat="45.50253" lon="6.73975">
        <ele>2201.8</ele>
        <time>2021-08-12T09:35:05Z</time>
      </trkpt>
      <trkpt lat="45.50253" lon="6.73975">
        <ele>2201.8</ele>
        <time>2021-08-12T09:35:06Z</time>
      </trkpt>
      <trkpt lat="45.50252" lon="6.73974">
        <ele>2201.9</ele>
        <time>2021-08-12T09:35:07Z</time>
      </trkpt>
      <trkpt lat="45.50252" lon="6.73974">
        <ele>2201.9</ele>
        <time>2021-08-12T09:35:08Z</time>
      </trkpt>
      <trkpt lat="45.50252" lon="6.73974">
        <ele>2201.9</ele>
        <time>2021-08-12T09:35:09Z</time>
      </trkpt>
      <trkpt lat="45.50252" lon="6.73974">
        <ele>2201.9</ele>
        <time>2021-08-12T09:35:10Z</time>
      </trkpt>
      <trkpt lat="45.50252" lon="6.73974">
        <ele>2201.9</ele>
        <time>2021-08-12T09:35:11Z</time>
      </trkpt>
      <trkpt lat="45.50252" lon="6.73974">
        <ele>2201.9</ele>
        <time>2021-08-12T09:35:12Z</time>
      </trkpt>
      <trkpt lat="45.50252" lon="6.73974">
        <ele>2201.9</ele>
        <time>2021-08-12T09:35:13Z</time>
      </trkpt>
      <trkpt lat="45.50252" lon="6.73974">
        <ele>2201.9</ele>
        <time>2021-08-12T09:35:14Z</time>
      </trkpt>
      <trkpt lat="45.50252" lon="6.73974">
        <ele>2202</ele>
        <time>2021-08-12T09:35:15Z</time>
      </trkpt>
      <trkpt lat="45.50252" lon="6.73974">
        <ele>2202</ele>
        <time>2021-08-12T09:35:16Z</time>
      </trkpt>
      <trkpt lat="45.50252" lon="6.73974">
        <ele>2202</ele>
        <time>2021-08-12T09:35:17Z</time>
      </trkpt>
      <trkpt lat="45.50252" lon="6.73974">
        <ele>2202</ele>
        <time>2021-08-12T09:35:18Z</time>
      </trkpt>
      <trkpt lat="45.50252" lon="6.73974">
        <ele>2202</ele>
        <time>2021-08-12T09:35:19Z</time>
      </trkpt>
      <trkpt lat="45.50252" lon="6.73974">
        <ele>2202</ele>
        <time>2021-08-12T09:35:20Z</time>
      </trkpt>
      <trkpt lat="45.50252" lon="6.73974">
        <ele>2202</ele>
        <time>2021-08-12T09:35:21Z</time>
      </trkpt>
      <trkpt lat="45.50252" lon="6.73974">
        <ele>2202</ele>
        <time>2021-08-12T09:35:22Z</time>
      </trkpt>
      <trkpt lat="45.50252" lon="6.73974">
        <ele>2202</ele>
        <time>2021-08-12T09:35:23Z</time>
      </trkpt>
      <trkpt lat="45.50252" lon="6.73974">
        <ele>2202</ele>
        <time>2021-08-12T09:35:24Z</time>
      </trkpt>
      <trkpt lat="45.50252" lon="6.73974">
        <ele>2202</ele>
        <time>2021-08-12T09:35:25Z</time>
      </trkpt>
      <trkpt lat="45.50252" lon="6.73974">
        <ele>2202</ele>
        <time>2021-08-12T09:35:26Z</time>
      </trkpt>
      <trkpt lat="45.50252" lon="6.73974">
        <ele>2202</ele>
        <time>2021-08-12T09:35:27Z</time>
      </trkpt>
      <trkpt lat="45.50252" lon="6.73974">
        <ele>2202</ele>
        <time>2021-08-12T09:35:28Z</time>
      </trkpt>
      <trkpt lat="45.50252" lon="6.73974">
        <ele>2202</ele>
        <time>2021-08-12T09:35:29Z</time>
      </trkpt>
      <trkpt lat="45.50252" lon="6.73974">
        <ele>2202</ele>
        <time>2021-08-12T09:35:30Z</time>
      </trkpt>
      <trkpt lat="45.50252" lon="6.73974">
        <ele>2202</ele>
        <time>2021-08-12T09:35:31Z</time>
      </trkpt>
      <trkpt lat="45.50252" lon="6.73974">
        <ele>2202</ele>
        <time>2021-08-12T09:35:32Z</time>
      </trkpt>
      <trkpt lat="45.50252" lon="6.73974">
        <ele>2202</ele>
        <time>2021-08-12T09:35:33Z</time>
      </trkpt>
      <trkpt lat="45.50252" lon="6.73974">
        <ele>2202</ele>
        <time>2021-08-12T09:35:34Z</time>
      </trkpt>
      <trkpt lat="45.50252" lon="6.73974">
        <ele>2202</ele>
        <time>2021-08-12T09:35:35Z</time>
      </trkpt>
      <trkpt lat="45.50252" lon="6.73974">
        <ele>2202</ele>
        <time>2021-08-12T09:35:36Z</time>
      </trkpt>
      <trkpt lat="45.50252" lon="6.73974">
        <ele>2202</ele>
        <time>2021-08-12T09:35:37Z</time>
      </trkpt>
      <trkpt lat="45.50252" lon="6.73974">
        <ele>2202</ele>
        <time>2021-08-12T09:35:38Z</time>
      </trkpt>
      <trkpt lat="45.50252" lon="6.73974">
        <ele>2202</ele>
        <time>2021-08-12T09:35:39Z</time>
      </trkpt>
      <trkpt lat="45.50252" lon="6.73974">
        <ele>2202</ele>
        <time>2021-08-12T09:35:40Z</time>
      </trkpt>
      <trkpt lat="45.50252" lon="6.73974">
        <ele>2202</ele>
        <time>2021-08-12T09:35:41Z</time>
      </trkpt>
      <trkpt lat="45.50252" lon="6.73974">
        <ele>2202</ele>
        <time>2021-08-12T09:35:42Z</time>
      </trkpt>
      <trkpt lat="45.50252" lon="6.73974">
        <ele>2202</ele>
        <time>2021-08-12T09:35:43Z</time>
      </trkpt>
      <trkpt lat="45.50252" lon="6.73974">
        <ele>2202</ele>
        <time>2021-08-12T09:35:44Z</time>
      </trkpt>
      <trkpt lat="45.50252" lon="6.73974">
        <ele>2202</ele>
        <time>2021-08-12T09:35:45Z</time>
      </trkpt>
      <trkpt lat="45.50252" lon="6.73974">
        <ele>2202</ele>
        <time>2021-08-12T09:35:46Z</time>
      </trkpt>
      <trkpt lat="45.50252" lon="6.73974">
        <ele>2202</ele>
        <time>2021-08-12T09:35:47Z</time>
      </trkpt>
      <trkpt lat="45.50252" lon="6.73974">
        <ele>2202</ele>
        <time>2021-08-12T09:35:48Z</time>
      </trkpt>
      <trkpt lat="45.50252" lon="6.73974">
        <ele>2202</ele>
        <time>2021-08-12T09:35:49Z</time>
      </trkpt>
      <trkpt lat="45.50252" lon="6.73974">
        <ele>2202</ele>
        <time>2021-08-12T09:35:50Z</time>
      </trkpt>
      <trkpt lat="45.50252" lon="6.73974">
        <ele>2202</ele>
        <time>2021-08-12T09:35:51Z</time>
      </trkpt>
      <trkpt lat="45.50252" lon="6.73974">
        <ele>2202</ele>
        <time>2021-08-12T09:35:52Z</time>
      </trkpt>
      <trkpt lat="45.50252" lon="6.73974">
        <ele>2202</ele>
        <time>2021-08-12T09:35:53Z</time>
      </trkpt>
      <trkpt lat="45.50252" lon="6.73974">
        <ele>2202</ele>
        <time>2021-08-12T09:35:54Z</time>
      </trkpt>
      <trkpt lat="45.50252" lon="6.73974">
        <ele>2202</ele>
        <time>2021-08-12T09:35:55Z</time>
      </trkpt>
      <trkpt lat="45.50252" lon="6.73974">
        <ele>2202</ele>
        <time>2021-08-12T09:35:56Z</time>
      </trkpt>
      <trkpt lat="45.50252" lon="6.73974">
        <ele>2202</ele>
        <time>2021-08-12T09:35:57Z</time>
      </trkpt>
      <trkpt lat="45.50252" lon="6.73974">
        <ele>2202</ele>
        <time>2021-08-12T09:35:58Z</time>
      </trkpt>
      <trkpt lat="45.50252" lon="6.73974">
        <ele>2202</ele>
        <time>2021-08-12T09:35:59Z</time>
      </trkpt>
      <trkpt lat="45.50252" lon="6.73974">
        <ele>2202</ele>
        <time>2021-08-12T09:36:00Z</time>
      </trkpt>
      <trkpt lat="45.50252" lon="6.73974">
        <ele>2202</ele>
        <time>2021-08-12T09:36:01Z</time>
      </trkpt>
      <trkpt lat="45.50252" lon="6.73974">
        <ele>2202</ele>
        <time>2021-08-12T09:36:02Z</time>
      </trkpt>
      <trkpt lat="45.50252" lon="6.73974">
        <ele>2202</ele>
        <time>2021-08-12T09:36:03Z</time>
      </trkpt>
      <trkpt lat="45.50252" lon="6.73974">
        <ele>2202</ele>
        <time>2021-08-12T09:36:04Z</time>
      </trkpt>
      <trkpt lat="45.50252" lon="6.73974">
        <ele>2202</ele>
        <time>2021-08-12T09:36:05Z</time>
      </trkpt>
      <trkpt lat="45.50252" lon="6.73974">
        <ele>2202</ele>
        <time>2021-08-12T09:36:06Z</time>
      </trkpt>
      <trkpt lat="45.50252" lon="6.73974">
        <ele>2202</ele>
        <time>2021-08-12T09:36:07Z</time>
      </trkpt>
      <trkpt lat="45.50252" lon="6.73974">
        <ele>2202</ele>
        <time>2021-08-12T09:36:08Z</time>
      </trkpt>
      <trkpt lat="45.50252" lon="6.73974">
        <ele>2202</ele>
        <time>2021-08-12T09:36:09Z</time>
      </trkpt>
      <trkpt lat="45.50252" lon="6.73974">
        <ele>2202</ele>
        <time>2021-08-12T09:36:10Z</time>
      </trkpt>
      <trkpt lat="45.50252" lon="6.73974">
        <ele>2202</ele>
        <time>2021-08-12T09:36:11Z</time>
      </trkpt>
      <trkpt lat="45.50252" lon="6.73974">
        <ele>2202.1</ele>
        <time>2021-08-12T09:36:12Z</time>
      </trkpt>
      <trkpt lat="45.50252" lon="6.73974">
        <ele>2202.1</ele>
        <time>2021-08-12T09:36:13Z</time>
      </trkpt>
      <trkpt lat="45.50252" lon="6.73974">
        <ele>2202.1</ele>
        <time>2021-08-12T09:36:14Z</time>
      </trkpt>
      <trkpt lat="45.50252" lon="6.73974">
        <ele>2202.1</ele>
        <time>2021-08-12T09:36:15Z</time>
      </trkpt>
      <trkpt lat="45.50252" lon="6.73974">
        <ele>2202.1</ele>
        <time>2021-08-12T09:36:16Z</time>
      </trkpt>
      <trkpt lat="45.50252" lon="6.73974">
        <ele>2202.2</ele>
        <time>2021-08-12T09:36:17Z</time>
      </trkpt>
      <trkpt lat="45.50252" lon="6.73974">
        <ele>2202.2</ele>
        <time>2021-08-12T09:36:18Z</time>
      </trkpt>
      <trkpt lat="45.50251" lon="6.73973">
        <ele>2202.3</ele>
        <time>2021-08-12T09:36:19Z</time>
      </trkpt>
      <trkpt lat="45.50251" lon="6.73973">
        <ele>2202.4</ele>
        <time>2021-08-12T09:36:20Z</time>
      </trkpt>
      <trkpt lat="45.50251" lon="6.73973">
        <ele>2202.4</ele>
        <time>2021-08-12T09:36:21Z</time>
      </trkpt>
      <trkpt lat="45.5025" lon="6.73973">
        <ele>2202.6</ele>
        <time>2021-08-12T09:36:22Z</time>
      </trkpt>
      <trkpt lat="45.5025" lon="6.73973">
        <ele>2202.7</ele>
        <time>2021-08-12T09:36:23Z</time>
      </trkpt>
      <trkpt lat="45.50249" lon="6.73972">
        <ele>2202.9</ele>
        <time>2021-08-12T09:36:24Z</time>
      </trkpt>
      <trkpt lat="45.50248" lon="6.73972">
        <ele>2203.1</ele>
        <time>2021-08-12T09:36:25Z</time>
      </trkpt>
      <trkpt lat="45.50248" lon="6.73972">
        <ele>2203.3</ele>
        <time>2021-08-12T09:36:26Z</time>
      </trkpt>
      <trkpt lat="45.50247" lon="6.73971">
        <ele>2203.5</ele>
        <time>2021-08-12T09:36:27Z</time>
      </trkpt>
      <trkpt lat="45.50246" lon="6.73971">
        <ele>2203.8</ele>
        <time>2021-08-12T09:36:28Z</time>
      </trkpt>
      <trkpt lat="45.50245" lon="6.73971">
        <ele>2204</ele>
        <time>2021-08-12T09:36:29Z</time>
      </trkpt>
      <trkpt lat="45.50244" lon="6.7397">
        <ele>2204.3</ele>
        <time>2021-08-12T09:36:30Z</time>
      </trkpt>
      <trkpt lat="45.50243" lon="6.7397">
        <ele>2204.5</ele>
        <time>2021-08-12T09:36:31Z</time>
      </trkpt>
      <trkpt lat="45.50243" lon="6.7397">
        <ele>2204.7</ele>
        <time>2021-08-12T09:36:32Z</time>
      </trkpt>
      <trkpt lat="45.50242" lon="6.73969">
        <ele>2205</ele>
        <time>2021-08-12T09:36:33Z</time>
      </trkpt>
      <trkpt lat="45.50241" lon="6.73969">
        <ele>2205.2</ele>
        <time>2021-08-12T09:36:34Z</time>
      </trkpt>
      <trkpt lat="45.5024" lon="6.73969">
        <ele>2205.4</ele>
        <time>2021-08-12T09:36:35Z</time>
      </trkpt>
      <trkpt lat="45.5024" lon="6.73969">
        <ele>2205.6</ele>
        <time>2021-08-12T09:36:36Z</time>
      </trkpt>
      <trkpt lat="45.50239" lon="6.73968">
        <ele>2205.7</ele>
        <time>2021-08-12T09:36:37Z</time>
      </trkpt>
      <trkpt lat="45.50239" lon="6.73968">
        <ele>2205.9</ele>
        <time>2021-08-12T09:36:38Z</time>
      </trkpt>
      <trkpt lat="45.50238" lon="6.73968">
        <ele>2206.1</ele>
        <time>2021-08-12T09:36:39Z</time>
      </trkpt>
      <trkpt lat="45.50237" lon="6.73968">
        <ele>2206.2</ele>
        <time>2021-08-12T09:36:40Z</time>
      </trkpt>
      <trkpt lat="45.50237" lon="6.73967">
        <ele>2206.4</ele>
        <time>2021-08-12T09:36:41Z</time>
      </trkpt>
      <trkpt lat="45.50237" lon="6.73967">
        <ele>2206.5</ele>
        <time>2021-08-12T09:36:42Z</time>
      </trkpt>
      <trkpt lat="45.50236" lon="6.73967">
        <ele>2206.6</ele>
        <time>2021-08-12T09:36:43Z</time>
      </trkpt>
      <trkpt lat="45.50236" lon="6.73967">
        <ele>2206.8</ele>
        <time>2021-08-12T09:36:44Z</time>
      </trkpt>
      <trkpt lat="45.50235" lon="6.73967">
        <ele>2206.9</ele>
        <time>2021-08-12T09:36:45Z</time>
      </trkpt>
      <trkpt lat="45.50235" lon="6.73966">
        <ele>2207</ele>
        <time>2021-08-12T09:36:46Z</time>
      </trkpt>
      <trkpt lat="45.50234" lon="6.73966">
        <ele>2207.2</ele>
        <time>2021-08-12T09:36:47Z</time>
      </trkpt>
      <trkpt lat="45.50234" lon="6.73966">
        <ele>2207.3</ele>
        <time>2021-08-12T09:36:48Z</time>
      </trkpt>
      <trkpt lat="45.50233" lon="6.73966">
        <ele>2207.4</ele>
        <time>2021-08-12T09:36:49Z</time>
      </trkpt>
      <trkpt lat="45.50233" lon="6.73966">
        <ele>2207.5</ele>
        <time>2021-08-12T09:36:50Z</time>
      </trkpt>
      <trkpt lat="45.50232" lon="6.73966">
        <ele>2207.7</ele>
        <time>2021-08-12T09:36:51Z</time>
      </trkpt>
      <trkpt lat="45.50232" lon="6.73966">
        <ele>2207.8</ele>
        <time>2021-08-12T09:36:52Z</time>
      </trkpt>
      <trkpt lat="45.50231" lon="6.73966">
        <ele>2208</ele>
        <time>2021-08-12T09:36:53Z</time>
      </trkpt>
      <trkpt lat="45.50231" lon="6.73965">
        <ele>2208.1</ele>
        <time>2021-08-12T09:36:54Z</time>
      </trkpt>
      <trkpt lat="45.5023" lon="6.73965">
        <ele>2208.3</ele>
        <time>2021-08-12T09:36:55Z</time>
      </trkpt>
      <trkpt lat="45.5023" lon="6.73965">
        <ele>2208.4</ele>
        <time>2021-08-12T09:36:56Z</time>
      </trkpt>
      <trkpt lat="45.50229" lon="6.73965">
        <ele>2208.4</ele>
        <time>2021-08-12T09:36:57Z</time>
      </trkpt>
      <trkpt lat="45.50229" lon="6.73965">
        <ele>2208.6</ele>
        <time>2021-08-12T09:36:58Z</time>
      </trkpt>
      <trkpt lat="45.50228" lon="6.73965">
        <ele>2208.7</ele>
        <time>2021-08-12T09:36:59Z</time>
      </trkpt>
      <trkpt lat="45.50227" lon="6.73965">
        <ele>2208.9</ele>
        <time>2021-08-12T09:37:00Z</time>
      </trkpt>
      <trkpt lat="45.50227" lon="6.73965">
        <ele>2209</ele>
        <time>2021-08-12T09:37:01Z</time>
      </trkpt>
      <trkpt lat="45.50226" lon="6.73965">
        <ele>2209.1</ele>
        <time>2021-08-12T09:37:02Z</time>
      </trkpt>
      <trkpt lat="45.50226" lon="6.73965">
        <ele>2209.2</ele>
        <time>2021-08-12T09:37:03Z</time>
      </trkpt>
      <trkpt lat="45.50225" lon="6.73965">
        <ele>2209.4</ele>
        <time>2021-08-12T09:37:04Z</time>
      </trkpt>
      <trkpt lat="45.50225" lon="6.73965">
        <ele>2209.5</ele>
        <time>2021-08-12T09:37:05Z</time>
      </trkpt>
      <trkpt lat="45.50224" lon="6.73964">
        <ele>2209.6</ele>
        <time>2021-08-12T09:37:06Z</time>
      </trkpt>
      <trkpt lat="45.50224" lon="6.73964">
        <ele>2209.7</ele>
        <time>2021-08-12T09:37:07Z</time>
      </trkpt>
      <trkpt lat="45.50223" lon="6.73964">
        <ele>2209.9</ele>
        <time>2021-08-12T09:37:08Z</time>
      </trkpt>
      <trkpt lat="45.50223" lon="6.73964">
        <ele>2209.9</ele>
        <time>2021-08-12T09:37:09Z</time>
      </trkpt>
      <trkpt lat="45.50223" lon="6.73964">
        <ele>2210.1</ele>
        <time>2021-08-12T09:37:10Z</time>
      </trkpt>
      <trkpt lat="45.50222" lon="6.73964">
        <ele>2210.2</ele>
        <time>2021-08-12T09:37:11Z</time>
      </trkpt>
      <trkpt lat="45.50222" lon="6.73964">
        <ele>2210.3</ele>
        <time>2021-08-12T09:37:12Z</time>
      </trkpt>
      <trkpt lat="45.50221" lon="6.73964">
        <ele>2210.4</ele>
        <time>2021-08-12T09:37:13Z</time>
      </trkpt>
      <trkpt lat="45.50221" lon="6.73964">
        <ele>2210.4</ele>
        <time>2021-08-12T09:37:14Z</time>
      </trkpt>
      <trkpt lat="45.5022" lon="6.73964">
        <ele>2210.5</ele>
        <time>2021-08-12T09:37:15Z</time>
      </trkpt>
      <trkpt lat="45.5022" lon="6.73964">
        <ele>2210.6</ele>
        <time>2021-08-12T09:37:16Z</time>
      </trkpt>
      <trkpt lat="45.50219" lon="6.73964">
        <ele>2210.8</ele>
        <time>2021-08-12T09:37:17Z</time>
      </trkpt>
      <trkpt lat="45.50219" lon="6.73964">
        <ele>2210.9</ele>
        <time>2021-08-12T09:37:18Z</time>
      </trkpt>
      <trkpt lat="45.50218" lon="6.73964">
        <ele>2210.9</ele>
        <time>2021-08-12T09:37:19Z</time>
      </trkpt>
      <trkpt lat="45.50218" lon="6.73964">
        <ele>2211</ele>
        <time>2021-08-12T09:37:20Z</time>
      </trkpt>
      <trkpt lat="45.50217" lon="6.73964">
        <ele>2211.1</ele>
        <time>2021-08-12T09:37:21Z</time>
      </trkpt>
      <trkpt lat="45.50217" lon="6.73964">
        <ele>2211.2</ele>
        <time>2021-08-12T09:37:22Z</time>
      </trkpt>
      <trkpt lat="45.50216" lon="6.73964">
        <ele>2211.3</ele>
        <time>2021-08-12T09:37:23Z</time>
      </trkpt>
      <trkpt lat="45.50216" lon="6.73964">
        <ele>2211.5</ele>
        <time>2021-08-12T09:37:24Z</time>
      </trkpt>
      <trkpt lat="45.50216" lon="6.73964">
        <ele>2211.5</ele>
        <time>2021-08-12T09:37:25Z</time>
      </trkpt>
      <trkpt lat="45.50215" lon="6.73964">
        <ele>2211.6</ele>
        <time>2021-08-12T09:37:26Z</time>
      </trkpt>
      <trkpt lat="45.50215" lon="6.73964">
        <ele>2211.7</ele>
        <time>2021-08-12T09:37:27Z</time>
      </trkpt>
      <trkpt lat="45.50214" lon="6.73964">
        <ele>2211.8</ele>
        <time>2021-08-12T09:37:28Z</time>
      </trkpt>
      <trkpt lat="45.50214" lon="6.73964">
        <ele>2211.9</ele>
        <time>2021-08-12T09:37:29Z</time>
      </trkpt>
      <trkpt lat="45.50213" lon="6.73964">
        <ele>2212</ele>
        <time>2021-08-12T09:37:30Z</time>
      </trkpt>
      <trkpt lat="45.50213" lon="6.73964">
        <ele>2212.1</ele>
        <time>2021-08-12T09:37:31Z</time>
      </trkpt>
      <trkpt lat="45.50212" lon="6.73963">
        <ele>2212.2</ele>
        <time>2021-08-12T09:37:32Z</time>
      </trkpt>
      <trkpt lat="45.50212" lon="6.73963">
        <ele>2212.3</ele>
        <time>2021-08-12T09:37:33Z</time>
      </trkpt>
      <trkpt lat="45.50211" lon="6.73963">
        <ele>2212.4</ele>
        <time>2021-08-12T09:37:34Z</time>
      </trkpt>
      <trkpt lat="45.50211" lon="6.73963">
        <ele>2212.4</ele>
        <time>2021-08-12T09:37:35Z</time>
      </trkpt>
      <trkpt lat="45.5021" lon="6.73963">
        <ele>2212.5</ele>
        <time>2021-08-12T09:37:36Z</time>
      </trkpt>
      <trkpt lat="45.5021" lon="6.73963">
        <ele>2212.6</ele>
        <time>2021-08-12T09:37:37Z</time>
      </trkpt>
      <trkpt lat="45.5021" lon="6.73963">
        <ele>2212.7</ele>
        <time>2021-08-12T09:37:38Z</time>
      </trkpt>
      <trkpt lat="45.50209" lon="6.73963">
        <ele>2212.7</ele>
        <time>2021-08-12T09:37:39Z</time>
      </trkpt>
      <trkpt lat="45.50209" lon="6.73962">
        <ele>2212.8</ele>
        <time>2021-08-12T09:37:40Z</time>
      </trkpt>
      <trkpt lat="45.50208" lon="6.73962">
        <ele>2212.9</ele>
        <time>2021-08-12T09:37:41Z</time>
      </trkpt>
      <trkpt lat="45.50208" lon="6.73962">
        <ele>2213</ele>
        <time>2021-08-12T09:37:42Z</time>
      </trkpt>
      <trkpt lat="45.50208" lon="6.73962">
        <ele>2213.1</ele>
        <time>2021-08-12T09:37:43Z</time>
      </trkpt>
      <trkpt lat="45.50207" lon="6.73962">
        <ele>2213.1</ele>
        <time>2021-08-12T09:37:44Z</time>
      </trkpt>
      <trkpt lat="45.50207" lon="6.73962">
        <ele>2213.2</ele>
        <time>2021-08-12T09:37:45Z</time>
      </trkpt>
      <trkpt lat="45.50207" lon="6.73961">
        <ele>2213.3</ele>
        <time>2021-08-12T09:37:46Z</time>
      </trkpt>
      <trkpt lat="45.50206" lon="6.73961">
        <ele>2213.3</ele>
        <time>2021-08-12T09:37:47Z</time>
      </trkpt>
      <trkpt lat="45.50206" lon="6.73961">
        <ele>2213.3</ele>
        <time>2021-08-12T09:37:48Z</time>
      </trkpt>
      <trkpt lat="45.50206" lon="6.73961">
        <ele>2213.4</ele>
        <time>2021-08-12T09:37:49Z</time>
      </trkpt>
      <trkpt lat="45.50206" lon="6.73961">
        <ele>2213.4</ele>
        <time>2021-08-12T09:37:50Z</time>
      </trkpt>
      <trkpt lat="45.50206" lon="6.73961">
        <ele>2213.5</ele>
        <time>2021-08-12T09:37:51Z</time>
      </trkpt>
      <trkpt lat="45.50205" lon="6.7396">
        <ele>2213.5</ele>
        <time>2021-08-12T09:37:52Z</time>
      </trkpt>
      <trkpt lat="45.50205" lon="6.7396">
        <ele>2213.5</ele>
        <time>2021-08-12T09:37:53Z</time>
      </trkpt>
      <trkpt lat="45.50205" lon="6.7396">
        <ele>2213.6</ele>
        <time>2021-08-12T09:37:54Z</time>
      </trkpt>
      <trkpt lat="45.50205" lon="6.7396">
        <ele>2213.6</ele>
        <time>2021-08-12T09:37:55Z</time>
      </trkpt>
      <trkpt lat="45.50205" lon="6.7396">
        <ele>2213.7</ele>
        <time>2021-08-12T09:37:56Z</time>
      </trkpt>
      <trkpt lat="45.50204" lon="6.7396">
        <ele>2213.7</ele>
        <time>2021-08-12T09:37:57Z</time>
      </trkpt>
      <trkpt lat="45.50204" lon="6.7396">
        <ele>2213.8</ele>
        <time>2021-08-12T09:37:58Z</time>
      </trkpt>
      <trkpt lat="45.50204" lon="6.7396">
        <ele>2213.8</ele>
        <time>2021-08-12T09:37:59Z</time>
      </trkpt>
      <trkpt lat="45.50203" lon="6.7396">
        <ele>2213.9</ele>
        <time>2021-08-12T09:38:00Z</time>
      </trkpt>
      <trkpt lat="45.50203" lon="6.7396">
        <ele>2213.9</ele>
        <time>2021-08-12T09:38:01Z</time>
      </trkpt>
      <trkpt lat="45.50202" lon="6.7396">
        <ele>2214.1</ele>
        <time>2021-08-12T09:38:02Z</time>
      </trkpt>
      <trkpt lat="45.50202" lon="6.7396">
        <ele>2214.2</ele>
        <time>2021-08-12T09:38:03Z</time>
      </trkpt>
      <trkpt lat="45.50201" lon="6.7396">
        <ele>2214.3</ele>
        <time>2021-08-12T09:38:04Z</time>
      </trkpt>
      <trkpt lat="45.502" lon="6.73959">
        <ele>2214.4</ele>
        <time>2021-08-12T09:38:05Z</time>
      </trkpt>
      <trkpt lat="45.50199" lon="6.7396">
        <ele>2214.5</ele>
        <time>2021-08-12T09:38:06Z</time>
      </trkpt>
      <trkpt lat="45.50199" lon="6.7396">
        <ele>2214.7</ele>
        <time>2021-08-12T09:38:07Z</time>
      </trkpt>
      <trkpt lat="45.50198" lon="6.7396">
        <ele>2214.8</ele>
        <time>2021-08-12T09:38:08Z</time>
      </trkpt>
      <trkpt lat="45.50197" lon="6.7396">
        <ele>2214.9</ele>
        <time>2021-08-12T09:38:09Z</time>
      </trkpt>
      <trkpt lat="45.50196" lon="6.7396">
        <ele>2215</ele>
        <time>2021-08-12T09:38:10Z</time>
      </trkpt>
      <trkpt lat="45.50195" lon="6.7396">
        <ele>2215.2</ele>
        <time>2021-08-12T09:38:11Z</time>
      </trkpt>
      <trkpt lat="45.50195" lon="6.7396">
        <ele>2215.3</ele>
        <time>2021-08-12T09:38:12Z</time>
      </trkpt>
      <trkpt lat="45.50194" lon="6.7396">
        <ele>2215.4</ele>
        <time>2021-08-12T09:38:13Z</time>
      </trkpt>
      <trkpt lat="45.50193" lon="6.7396">
        <ele>2215.6</ele>
        <time>2021-08-12T09:38:14Z</time>
      </trkpt>
      <trkpt lat="45.50192" lon="6.7396">
        <ele>2215.7</ele>
        <time>2021-08-12T09:38:15Z</time>
      </trkpt>
      <trkpt lat="45.50192" lon="6.7396">
        <ele>2215.8</ele>
        <time>2021-08-12T09:38:16Z</time>
      </trkpt>
      <trkpt lat="45.50191" lon="6.7396">
        <ele>2215.9</ele>
        <time>2021-08-12T09:38:17Z</time>
      </trkpt>
      <trkpt lat="45.5019" lon="6.7396">
        <ele>2216</ele>
        <time>2021-08-12T09:38:18Z</time>
      </trkpt>
      <trkpt lat="45.5019" lon="6.7396">
        <ele>2216</ele>
        <time>2021-08-12T09:38:19Z</time>
      </trkpt>
      <trkpt lat="45.50189" lon="6.73961">
        <ele>2216.1</ele>
        <time>2021-08-12T09:38:20Z</time>
      </trkpt>
      <trkpt lat="45.50188" lon="6.73961">
        <ele>2216.3</ele>
        <time>2021-08-12T09:38:21Z</time>
      </trkpt>
      <trkpt lat="45.50187" lon="6.73961">
        <ele>2216.4</ele>
        <time>2021-08-12T09:38:22Z</time>
      </trkpt>
      <trkpt lat="45.50187" lon="6.73961">
        <ele>2216.5</ele>
        <time>2021-08-12T09:38:23Z</time>
      </trkpt>
      <trkpt lat="45.50186" lon="6.73961">
        <ele>2216.6</ele>
        <time>2021-08-12T09:38:24Z</time>
      </trkpt>
      <trkpt lat="45.50185" lon="6.73961">
        <ele>2216.7</ele>
        <time>2021-08-12T09:38:25Z</time>
      </trkpt>
      <trkpt lat="45.50185" lon="6.73962">
        <ele>2216.8</ele>
        <time>2021-08-12T09:38:26Z</time>
      </trkpt>
      <trkpt lat="45.50184" lon="6.73962">
        <ele>2216.9</ele>
        <time>2021-08-12T09:38:27Z</time>
      </trkpt>
      <trkpt lat="45.50183" lon="6.73962">
        <ele>2217</ele>
        <time>2021-08-12T09:38:28Z</time>
      </trkpt>
      <trkpt lat="45.50183" lon="6.73962">
        <ele>2217.1</ele>
        <time>2021-08-12T09:38:29Z</time>
      </trkpt>
      <trkpt lat="45.50182" lon="6.73962">
        <ele>2217.3</ele>
        <time>2021-08-12T09:38:30Z</time>
      </trkpt>
      <trkpt lat="45.50181" lon="6.73963">
        <ele>2217.4</ele>
        <time>2021-08-12T09:38:31Z</time>
      </trkpt>
      <trkpt lat="45.50181" lon="6.73963">
        <ele>2217.5</ele>
        <time>2021-08-12T09:38:32Z</time>
      </trkpt>
      <trkpt lat="45.5018" lon="6.73963">
        <ele>2217.6</ele>
        <time>2021-08-12T09:38:33Z</time>
      </trkpt>
      <trkpt lat="45.50179" lon="6.73963">
        <ele>2217.7</ele>
        <time>2021-08-12T09:38:34Z</time>
      </trkpt>
      <trkpt lat="45.50179" lon="6.73964">
        <ele>2217.8</ele>
        <time>2021-08-12T09:38:35Z</time>
      </trkpt>
      <trkpt lat="45.50178" lon="6.73964">
        <ele>2217.9</ele>
        <time>2021-08-12T09:38:36Z</time>
      </trkpt>
      <trkpt lat="45.50177" lon="6.73964">
        <ele>2218</ele>
        <time>2021-08-12T09:38:37Z</time>
      </trkpt>
      <trkpt lat="45.50177" lon="6.73964">
        <ele>2218.2</ele>
        <time>2021-08-12T09:38:38Z</time>
      </trkpt>
      <trkpt lat="45.50176" lon="6.73965">
        <ele>2218.3</ele>
        <time>2021-08-12T09:38:39Z</time>
      </trkpt>
      <trkpt lat="45.50175" lon="6.73965">
        <ele>2218.4</ele>
        <time>2021-08-12T09:38:40Z</time>
      </trkpt>
      <trkpt lat="45.50174" lon="6.73965">
        <ele>2218.5</ele>
        <time>2021-08-12T09:38:41Z</time>
      </trkpt>
      <trkpt lat="45.50174" lon="6.73966">
        <ele>2218.7</ele>
        <time>2021-08-12T09:38:42Z</time>
      </trkpt>
      <trkpt lat="45.50173" lon="6.73966">
        <ele>2218.8</ele>
        <time>2021-08-12T09:38:43Z</time>
      </trkpt>
      <trkpt lat="45.50172" lon="6.73966">
        <ele>2218.9</ele>
        <time>2021-08-12T09:38:44Z</time>
      </trkpt>
      <trkpt lat="45.50172" lon="6.73966">
        <ele>2219</ele>
        <time>2021-08-12T09:38:45Z</time>
      </trkpt>
      <trkpt lat="45.50171" lon="6.73967">
        <ele>2219.2</ele>
        <time>2021-08-12T09:38:46Z</time>
      </trkpt>
      <trkpt lat="45.5017" lon="6.73967">
        <ele>2219.3</ele>
        <time>2021-08-12T09:38:47Z</time>
      </trkpt>
      <trkpt lat="45.50169" lon="6.73967">
        <ele>2219.4</ele>
        <time>2021-08-12T09:38:48Z</time>
      </trkpt>
      <trkpt lat="45.50169" lon="6.73968">
        <ele>2219.5</ele>
        <time>2021-08-12T09:38:49Z</time>
      </trkpt>
      <trkpt lat="45.50168" lon="6.73968">
        <ele>2219.7</ele>
        <time>2021-08-12T09:38:50Z</time>
      </trkpt>
      <trkpt lat="45.50167" lon="6.73968">
        <ele>2219.8</ele>
        <time>2021-08-12T09:38:51Z</time>
      </trkpt>
      <trkpt lat="45.50166" lon="6.73969">
        <ele>2220</ele>
        <time>2021-08-12T09:38:52Z</time>
      </trkpt>
      <trkpt lat="45.50166" lon="6.73969">
        <ele>2220.1</ele>
        <time>2021-08-12T09:38:53Z</time>
      </trkpt>
      <trkpt lat="45.50165" lon="6.73969">
        <ele>2220.3</ele>
        <time>2021-08-12T09:38:54Z</time>
      </trkpt>
      <trkpt lat="45.50164" lon="6.7397">
        <ele>2220.4</ele>
        <time>2021-08-12T09:38:55Z</time>
      </trkpt>
      <trkpt lat="45.50163" lon="6.7397">
        <ele>2220.6</ele>
        <time>2021-08-12T09:38:56Z</time>
      </trkpt>
      <trkpt lat="45.50163" lon="6.7397">
        <ele>2220.7</ele>
        <time>2021-08-12T09:38:57Z</time>
      </trkpt>
      <trkpt lat="45.50162" lon="6.73971">
        <ele>2220.9</ele>
        <time>2021-08-12T09:38:58Z</time>
      </trkpt>
      <trkpt lat="45.50161" lon="6.73971">
        <ele>2221</ele>
        <time>2021-08-12T09:38:59Z</time>
      </trkpt>
      <trkpt lat="45.5016" lon="6.73971">
        <ele>2221.2</ele>
        <time>2021-08-12T09:39:00Z</time>
      </trkpt>
      <trkpt lat="45.5016" lon="6.73972">
        <ele>2221.3</ele>
        <time>2021-08-12T09:39:01Z</time>
      </trkpt>
      <trkpt lat="45.50159" lon="6.73972">
        <ele>2221.5</ele>
        <time>2021-08-12T09:39:02Z</time>
      </trkpt>
      <trkpt lat="45.50158" lon="6.73973">
        <ele>2221.7</ele>
        <time>2021-08-12T09:39:03Z</time>
      </trkpt>
      <trkpt lat="45.50158" lon="6.73973">
        <ele>2221.8</ele>
        <time>2021-08-12T09:39:04Z</time>
      </trkpt>
      <trkpt lat="45.50157" lon="6.73974">
        <ele>2222</ele>
        <time>2021-08-12T09:39:05Z</time>
      </trkpt>
      <trkpt lat="45.50156" lon="6.73974">
        <ele>2222.2</ele>
        <time>2021-08-12T09:39:06Z</time>
      </trkpt>
      <trkpt lat="45.50155" lon="6.73975">
        <ele>2222.3</ele>
        <time>2021-08-12T09:39:07Z</time>
      </trkpt>
      <trkpt lat="45.50155" lon="6.73975">
        <ele>2222.5</ele>
        <time>2021-08-12T09:39:08Z</time>
      </trkpt>
      <trkpt lat="45.50154" lon="6.73976">
        <ele>2222.7</ele>
        <time>2021-08-12T09:39:09Z</time>
      </trkpt>
      <trkpt lat="45.50153" lon="6.73976">
        <ele>2222.9</ele>
        <time>2021-08-12T09:39:10Z</time>
      </trkpt>
      <trkpt lat="45.50153" lon="6.73977">
        <ele>2223</ele>
        <time>2021-08-12T09:39:11Z</time>
      </trkpt>
      <trkpt lat="45.50152" lon="6.73977">
        <ele>2223.2</ele>
        <time>2021-08-12T09:39:12Z</time>
      </trkpt>
      <trkpt lat="45.50152" lon="6.73978">
        <ele>2223.3</ele>
        <time>2021-08-12T09:39:13Z</time>
      </trkpt>
      <trkpt lat="45.50151" lon="6.73978">
        <ele>2223.5</ele>
        <time>2021-08-12T09:39:14Z</time>
      </trkpt>
      <trkpt lat="45.5015" lon="6.73979">
        <ele>2223.6</ele>
        <time>2021-08-12T09:39:15Z</time>
      </trkpt>
      <trkpt lat="45.5015" lon="6.73979">
        <ele>2223.8</ele>
        <time>2021-08-12T09:39:16Z</time>
      </trkpt>
      <trkpt lat="45.50149" lon="6.7398">
        <ele>2223.9</ele>
        <time>2021-08-12T09:39:17Z</time>
      </trkpt>
      <trkpt lat="45.50149" lon="6.7398">
        <ele>2224.1</ele>
        <time>2021-08-12T09:39:18Z</time>
      </trkpt>
      <trkpt lat="45.50148" lon="6.73981">
        <ele>2224.2</ele>
        <time>2021-08-12T09:39:19Z</time>
      </trkpt>
      <trkpt lat="45.50148" lon="6.73981">
        <ele>2224.3</ele>
        <time>2021-08-12T09:39:20Z</time>
      </trkpt>
      <trkpt lat="45.50147" lon="6.73981">
        <ele>2224.4</ele>
        <time>2021-08-12T09:39:21Z</time>
      </trkpt>
      <trkpt lat="45.50147" lon="6.73981">
        <ele>2224.5</ele>
        <time>2021-08-12T09:39:22Z</time>
      </trkpt>
      <trkpt lat="45.50146" lon="6.73981">
        <ele>2224.6</ele>
        <time>2021-08-12T09:39:23Z</time>
      </trkpt>
      <trkpt lat="45.50146" lon="6.73982">
        <ele>2224.8</ele>
        <time>2021-08-12T09:39:24Z</time>
      </trkpt>
      <trkpt lat="45.50145" lon="6.73982">
        <ele>2224.9</ele>
        <time>2021-08-12T09:39:25Z</time>
      </trkpt>
      <trkpt lat="45.50145" lon="6.73982">
        <ele>2225</ele>
        <time>2021-08-12T09:39:26Z</time>
      </trkpt>
      <trkpt lat="45.50144" lon="6.73982">
        <ele>2225.1</ele>
        <time>2021-08-12T09:39:27Z</time>
      </trkpt>
      <trkpt lat="45.50144" lon="6.73982">
        <ele>2225.2</ele>
        <time>2021-08-12T09:39:28Z</time>
      </trkpt>
      <trkpt lat="45.50143" lon="6.73983">
        <ele>2225.3</ele>
        <time>2021-08-12T09:39:29Z</time>
      </trkpt>
      <trkpt lat="45.50143" lon="6.73983">
        <ele>2225.4</ele>
        <time>2021-08-12T09:39:30Z</time>
      </trkpt>
      <trkpt lat="45.50142" lon="6.73983">
        <ele>2225.5</ele>
        <time>2021-08-12T09:39:31Z</time>
      </trkpt>
      <trkpt lat="45.50142" lon="6.73984">
        <ele>2225.6</ele>
        <time>2021-08-12T09:39:32Z</time>
      </trkpt>
      <trkpt lat="45.50141" lon="6.73984">
        <ele>2225.8</ele>
        <time>2021-08-12T09:39:33Z</time>
      </trkpt>
      <trkpt lat="45.50141" lon="6.73985">
        <ele>2225.9</ele>
        <time>2021-08-12T09:39:34Z</time>
      </trkpt>
      <trkpt lat="45.50141" lon="6.73985">
        <ele>2226</ele>
        <time>2021-08-12T09:39:35Z</time>
      </trkpt>
      <trkpt lat="45.5014" lon="6.73986">
        <ele>2226.1</ele>
        <time>2021-08-12T09:39:36Z</time>
      </trkpt>
      <trkpt lat="45.5014" lon="6.73986">
        <ele>2226.2</ele>
        <time>2021-08-12T09:39:37Z</time>
      </trkpt>
      <trkpt lat="45.5014" lon="6.73987">
        <ele>2226.3</ele>
        <time>2021-08-12T09:39:38Z</time>
      </trkpt>
      <trkpt lat="45.50139" lon="6.73987">
        <ele>2226.4</ele>
        <time>2021-08-12T09:39:39Z</time>
      </trkpt>
      <trkpt lat="45.50139" lon="6.73988">
        <ele>2226.5</ele>
        <time>2021-08-12T09:39:40Z</time>
      </trkpt>
      <trkpt lat="45.50139" lon="6.73989">
        <ele>2226.6</ele>
        <time>2021-08-12T09:39:41Z</time>
      </trkpt>
      <trkpt lat="45.50139" lon="6.7399">
        <ele>2226.7</ele>
        <time>2021-08-12T09:39:42Z</time>
      </trkpt>
      <trkpt lat="45.50139" lon="6.7399">
        <ele>2226.8</ele>
        <time>2021-08-12T09:39:43Z</time>
      </trkpt>
      <trkpt lat="45.50139" lon="6.73991">
        <ele>2226.9</ele>
        <time>2021-08-12T09:39:44Z</time>
      </trkpt>
      <trkpt lat="45.50138" lon="6.73992">
        <ele>2227</ele>
        <time>2021-08-12T09:39:45Z</time>
      </trkpt>
      <trkpt lat="45.50138" lon="6.73993">
        <ele>2227.1</ele>
        <time>2021-08-12T09:39:46Z</time>
      </trkpt>
      <trkpt lat="45.50138" lon="6.73993">
        <ele>2227.2</ele>
        <time>2021-08-12T09:39:47Z</time>
      </trkpt>
      <trkpt lat="45.50138" lon="6.73994">
        <ele>2227.3</ele>
        <time>2021-08-12T09:39:48Z</time>
      </trkpt>
      <trkpt lat="45.50138" lon="6.73995">
        <ele>2227.4</ele>
        <time>2021-08-12T09:39:49Z</time>
      </trkpt>
      <trkpt lat="45.50138" lon="6.73995">
        <ele>2227.5</ele>
        <time>2021-08-12T09:39:50Z</time>
      </trkpt>
      <trkpt lat="45.50137" lon="6.73996">
        <ele>2227.6</ele>
        <time>2021-08-12T09:39:51Z</time>
      </trkpt>
      <trkpt lat="45.50137" lon="6.73997">
        <ele>2227.7</ele>
        <time>2021-08-12T09:39:52Z</time>
      </trkpt>
      <trkpt lat="45.50137" lon="6.73997">
        <ele>2227.8</ele>
        <time>2021-08-12T09:39:53Z</time>
      </trkpt>
      <trkpt lat="45.50136" lon="6.73998">
        <ele>2227.9</ele>
        <time>2021-08-12T09:39:54Z</time>
      </trkpt>
      <trkpt lat="45.50136" lon="6.73999">
        <ele>2228</ele>
        <time>2021-08-12T09:39:55Z</time>
      </trkpt>
      <trkpt lat="45.50136" lon="6.73999">
        <ele>2228.1</ele>
        <time>2021-08-12T09:39:56Z</time>
      </trkpt>
      <trkpt lat="45.50135" lon="6.74">
        <ele>2228.2</ele>
        <time>2021-08-12T09:39:57Z</time>
      </trkpt>
      <trkpt lat="45.50135" lon="6.74001">
        <ele>2228.3</ele>
        <time>2021-08-12T09:39:58Z</time>
      </trkpt>
      <trkpt lat="45.50134" lon="6.74001">
        <ele>2228.4</ele>
        <time>2021-08-12T09:39:59Z</time>
      </trkpt>
      <trkpt lat="45.50134" lon="6.74002">
        <ele>2228.5</ele>
        <time>2021-08-12T09:40:00Z</time>
      </trkpt>
      <trkpt lat="45.50134" lon="6.74003">
        <ele>2228.6</ele>
        <time>2021-08-12T09:40:01Z</time>
      </trkpt>
      <trkpt lat="45.50133" lon="6.74003">
        <ele>2228.7</ele>
        <time>2021-08-12T09:40:02Z</time>
      </trkpt>
      <trkpt lat="45.50133" lon="6.74004">
        <ele>2228.8</ele>
        <time>2021-08-12T09:40:03Z</time>
      </trkpt>
      <trkpt lat="45.50132" lon="6.74005">
        <ele>2228.9</ele>
        <time>2021-08-12T09:40:04Z</time>
      </trkpt>
      <trkpt lat="45.50132" lon="6.74005">
        <ele>2229</ele>
        <time>2021-08-12T09:40:05Z</time>
      </trkpt>
      <trkpt lat="45.50131" lon="6.74006">
        <ele>2229.1</ele>
        <time>2021-08-12T09:40:06Z</time>
      </trkpt>
      <trkpt lat="45.50131" lon="6.74006">
        <ele>2229.2</ele>
        <time>2021-08-12T09:40:07Z</time>
      </trkpt>
      <trkpt lat="45.5013" lon="6.74007">
        <ele>2229.3</ele>
        <time>2021-08-12T09:40:08Z</time>
      </trkpt>
      <trkpt lat="45.50129" lon="6.74008">
        <ele>2229.4</ele>
        <time>2021-08-12T09:40:09Z</time>
      </trkpt>
      <trkpt lat="45.50129" lon="6.74008">
        <ele>2229.5</ele>
        <time>2021-08-12T09:40:10Z</time>
      </trkpt>
      <trkpt lat="45.50128" lon="6.74009">
        <ele>2229.6</ele>
        <time>2021-08-12T09:40:11Z</time>
      </trkpt>
      <trkpt lat="45.50128" lon="6.74009">
        <ele>2229.7</ele>
        <time>2021-08-12T09:40:12Z</time>
      </trkpt>
      <trkpt lat="45.50127" lon="6.7401">
        <ele>2229.7</ele>
        <time>2021-08-12T09:40:13Z</time>
      </trkpt>
      <trkpt lat="45.50127" lon="6.7401">
        <ele>2229.8</ele>
        <time>2021-08-12T09:40:14Z</time>
      </trkpt>
      <trkpt lat="45.50127" lon="6.7401">
        <ele>2229.8</ele>
        <time>2021-08-12T09:40:15Z</time>
      </trkpt>
      <trkpt lat="45.50126" lon="6.74011">
        <ele>2229.9</ele>
        <time>2021-08-12T09:40:16Z</time>
      </trkpt>
      <trkpt lat="45.50126" lon="6.74011">
        <ele>2229.9</ele>
        <time>2021-08-12T09:40:17Z</time>
      </trkpt>
      <trkpt lat="45.50126" lon="6.74011">
        <ele>2229.9</ele>
        <time>2021-08-12T09:40:18Z</time>
      </trkpt>
      <trkpt lat="45.50126" lon="6.74011">
        <ele>2230</ele>
        <time>2021-08-12T09:40:19Z</time>
      </trkpt>
      <trkpt lat="45.50126" lon="6.74011">
        <ele>2230</ele>
        <time>2021-08-12T09:40:20Z</time>
      </trkpt>
      <trkpt lat="45.50126" lon="6.74011">
        <ele>2230</ele>
        <time>2021-08-12T09:40:21Z</time>
      </trkpt>
      <trkpt lat="45.50126" lon="6.74011">
        <ele>2230</ele>
        <time>2021-08-12T09:40:22Z</time>
      </trkpt>
      <trkpt lat="45.50126" lon="6.74011">
        <ele>2230</ele>
        <time>2021-08-12T09:40:23Z</time>
      </trkpt>
      <trkpt lat="45.50126" lon="6.74011">
        <ele>2230</ele>
        <time>2021-08-12T09:40:24Z</time>
      </trkpt>
      <trkpt lat="45.50126" lon="6.74011">
        <ele>2230</ele>
        <time>2021-08-12T09:40:25Z</time>
      </trkpt>
      <trkpt lat="45.50126" lon="6.74011">
        <ele>2230</ele>
        <time>2021-08-12T09:40:26Z</time>
      </trkpt>
      <trkpt lat="45.50126" lon="6.74011">
        <ele>2230</ele>
        <time>2021-08-12T09:40:27Z</time>
      </trkpt>
      <trkpt lat="45.50126" lon="6.74011">
        <ele>2230</ele>
        <time>2021-08-12T09:40:28Z</time>
      </trkpt>
      <trkpt lat="45.50126" lon="6.74011">
        <ele>2230</ele>
        <time>2021-08-12T09:40:29Z</time>
      </trkpt>
      <trkpt lat="45.50126" lon="6.74011">
        <ele>2230</ele>
        <time>2021-08-12T09:40:30Z</time>
      </trkpt>
      <trkpt lat="45.50126" lon="6.74011">
        <ele>2230</ele>
        <time>2021-08-12T09:40:31Z</time>
      </trkpt>
      <trkpt lat="45.50125" lon="6.74011">
        <ele>2230</ele>
        <time>2021-08-12T09:40:32Z</time>
      </trkpt>
      <trkpt lat="45.50125" lon="6.74012">
        <ele>2230.1</ele>
        <time>2021-08-12T09:40:33Z</time>
      </trkpt>
      <trkpt lat="45.50125" lon="6.74012">
        <ele>2230.1</ele>
        <time>2021-08-12T09:40:34Z</time>
      </trkpt>
      <trkpt lat="45.50125" lon="6.74012">
        <ele>2230.1</ele>
        <time>2021-08-12T09:40:35Z</time>
      </trkpt>
      <trkpt lat="45.50125" lon="6.74012">
        <ele>2230.1</ele>
        <time>2021-08-12T09:40:36Z</time>
      </trkpt>
      <trkpt lat="45.50125" lon="6.74012">
        <ele>2230.2</ele>
        <time>2021-08-12T09:40:37Z</time>
      </trkpt>
      <trkpt lat="45.50124" lon="6.74013">
        <ele>2230.2</ele>
        <time>2021-08-12T09:40:38Z</time>
      </trkpt>
      <trkpt lat="45.50124" lon="6.74013">
        <ele>2230.3</ele>
        <time>2021-08-12T09:40:39Z</time>
      </trkpt>
      <trkpt lat="45.50124" lon="6.74013">
        <ele>2230.3</ele>
        <time>2021-08-12T09:40:40Z</time>
      </trkpt>
      <trkpt lat="45.50123" lon="6.74014">
        <ele>2230.3</ele>
        <time>2021-08-12T09:40:41Z</time>
      </trkpt>
      <trkpt lat="45.50123" lon="6.74014">
        <ele>2230.4</ele>
        <time>2021-08-12T09:40:42Z</time>
      </trkpt>
      <trkpt lat="45.50123" lon="6.74015">
        <ele>2230.5</ele>
        <time>2021-08-12T09:40:43Z</time>
      </trkpt>
      <trkpt lat="45.50122" lon="6.74015">
        <ele>2230.5</ele>
        <time>2021-08-12T09:40:44Z</time>
      </trkpt>
      <trkpt lat="45.50122" lon="6.74016">
        <ele>2230.6</ele>
        <time>2021-08-12T09:40:45Z</time>
      </trkpt>
      <trkpt lat="45.50121" lon="6.74017">
        <ele>2230.7</ele>
        <time>2021-08-12T09:40:46Z</time>
      </trkpt>
      <trkpt lat="45.50121" lon="6.74018">
        <ele>2230.7</ele>
        <time>2021-08-12T09:40:47Z</time>
      </trkpt>
      <trkpt lat="45.5012" lon="6.74018">
        <ele>2230.8</ele>
        <time>2021-08-12T09:40:48Z</time>
      </trkpt>
      <trkpt lat="45.5012" lon="6.74019">
        <ele>2230.9</ele>
        <time>2021-08-12T09:40:49Z</time>
      </trkpt>
      <trkpt lat="45.50119" lon="6.7402">
        <ele>2231</ele>
        <time>2021-08-12T09:40:50Z</time>
      </trkpt>
      <trkpt lat="45.50119" lon="6.74021">
        <ele>2231.1</ele>
        <time>2021-08-12T09:40:51Z</time>
      </trkpt>
      <trkpt lat="45.50118" lon="6.74021">
        <ele>2231.1</ele>
        <time>2021-08-12T09:40:52Z</time>
      </trkpt>
      <trkpt lat="45.50118" lon="6.74022">
        <ele>2231.2</ele>
        <time>2021-08-12T09:40:53Z</time>
      </trkpt>
      <trkpt lat="45.50118" lon="6.74023">
        <ele>2231.3</ele>
        <time>2021-08-12T09:40:54Z</time>
      </trkpt>
      <trkpt lat="45.50117" lon="6.74023">
        <ele>2231.3</ele>
        <time>2021-08-12T09:40:55Z</time>
      </trkpt>
      <trkpt lat="45.50117" lon="6.74024">
        <ele>2231.4</ele>
        <time>2021-08-12T09:40:56Z</time>
      </trkpt>
      <trkpt lat="45.50117" lon="6.74024">
        <ele>2231.4</ele>
        <time>2021-08-12T09:40:57Z</time>
      </trkpt>
      <trkpt lat="45.50116" lon="6.74024">
        <ele>2231.4</ele>
        <time>2021-08-12T09:40:58Z</time>
      </trkpt>
      <trkpt lat="45.50116" lon="6.74025">
        <ele>2231.5</ele>
        <time>2021-08-12T09:40:59Z</time>
      </trkpt>
      <trkpt lat="45.50116" lon="6.74025">
        <ele>2231.5</ele>
        <time>2021-08-12T09:41:00Z</time>
      </trkpt>
      <trkpt lat="45.50116" lon="6.74025">
        <ele>2231.5</ele>
        <time>2021-08-12T09:41:01Z</time>
      </trkpt>
      <trkpt lat="45.50116" lon="6.74025">
        <ele>2231.5</ele>
        <time>2021-08-12T09:41:02Z</time>
      </trkpt>
      <trkpt lat="45.50116" lon="6.74025">
        <ele>2231.5</ele>
        <time>2021-08-12T09:41:03Z</time>
      </trkpt>
      <trkpt lat="45.50116" lon="6.74025">
        <ele>2231.5</ele>
        <time>2021-08-12T09:41:04Z</time>
      </trkpt>
      <trkpt lat="45.50116" lon="6.74025">
        <ele>2231.5</ele>
        <time>2021-08-12T09:41:05Z</time>
      </trkpt>
      <trkpt lat="45.50116" lon="6.74025">
        <ele>2231.5</ele>
        <time>2021-08-12T09:41:06Z</time>
      </trkpt>
      <trkpt lat="45.50116" lon="6.74025">
        <ele>2231.5</ele>
        <time>2021-08-12T09:41:07Z</time>
      </trkpt>
      <trkpt lat="45.50116" lon="6.74025">
        <ele>2231.5</ele>
        <time>2021-08-12T09:41:08Z</time>
      </trkpt>
      <trkpt lat="45.50116" lon="6.74025">
        <ele>2231.5</ele>
        <time>2021-08-12T09:41:09Z</time>
      </trkpt>
      <trkpt lat="45.50116" lon="6.74025">
        <ele>2231.5</ele>
        <time>2021-08-12T09:41:10Z</time>
      </trkpt>
      <trkpt lat="45.50116" lon="6.74025">
        <ele>2231.5</ele>
        <time>2021-08-12T09:41:11Z</time>
      </trkpt>
      <trkpt lat="45.50116" lon="6.74025">
        <ele>2231.5</ele>
        <time>2021-08-12T09:41:12Z</time>
      </trkpt>
      <trkpt lat="45.50116" lon="6.74025">
        <ele>2231.5</ele>
        <time>2021-08-12T09:41:13Z</time>
      </trkpt>
      <trkpt lat="45.50116" lon="6.74025">
        <ele>2231.5</ele>
        <time>2021-08-12T09:41:14Z</time>
      </trkpt>
      <trkpt lat="45.50116" lon="6.74025">
        <ele>2231.5</ele>
        <time>2021-08-12T09:41:15Z</time>
      </trkpt>
      <trkpt lat="45.50116" lon="6.74025">
        <ele>2231.5</ele>
        <time>2021-08-12T09:41:16Z</time>
      </trkpt>
      <trkpt lat="45.50116" lon="6.74025">
        <ele>2231.5</ele>
        <time>2021-08-12T09:41:17Z</time>
      </trkpt>
      <trkpt lat="45.50116" lon="6.74025">
        <ele>2231.5</ele>
        <time>2021-08-12T09:41:18Z</time>
      </trkpt>
      <trkpt lat="45.50116" lon="6.74025">
        <ele>2231.5</ele>
        <time>2021-08-12T09:41:19Z</time>
      </trkpt>
      <trkpt lat="45.50116" lon="6.74025">
        <ele>2231.5</ele>
        <time>2021-08-12T09:41:20Z</time>
      </trkpt>
      <trkpt lat="45.50116" lon="6.74025">
        <ele>2231.5</ele>
        <time>2021-08-12T09:41:21Z</time>
      </trkpt>
      <trkpt lat="45.50116" lon="6.74025">
        <ele>2231.5</ele>
        <time>2021-08-12T09:41:22Z</time>
      </trkpt>
      <trkpt lat="45.50116" lon="6.74025">
        <ele>2231.5</ele>
        <time>2021-08-12T09:41:23Z</time>
      </trkpt>
      <trkpt lat="45.50116" lon="6.74025">
        <ele>2231.5</ele>
        <time>2021-08-12T09:41:24Z</time>
      </trkpt>
      <trkpt lat="45.50116" lon="6.74025">
        <ele>2231.5</ele>
        <time>2021-08-12T09:41:25Z</time>
      </trkpt>
      <trkpt lat="45.50116" lon="6.74025">
        <ele>2231.5</ele>
        <time>2021-08-12T09:41:26Z</time>
      </trkpt>
      <trkpt lat="45.50116" lon="6.74025">
        <ele>2231.5</ele>
        <time>2021-08-12T09:41:27Z</time>
      </trkpt>
      <trkpt lat="45.50116" lon="6.74025">
        <ele>2231.5</ele>
        <time>2021-08-12T09:41:28Z</time>
      </trkpt>
      <trkpt lat="45.50116" lon="6.74025">
        <ele>2231.5</ele>
        <time>2021-08-12T09:41:29Z</time>
      </trkpt>
      <trkpt lat="45.50116" lon="6.74025">
        <ele>2231.5</ele>
        <time>2021-08-12T09:41:30Z</time>
      </trkpt>
      <trkpt lat="45.50116" lon="6.74025">
        <ele>2231.5</ele>
        <time>2021-08-12T09:41:31Z</time>
      </trkpt>
      <trkpt lat="45.50116" lon="6.74025">
        <ele>2231.5</ele>
        <time>2021-08-12T09:41:32Z</time>
      </trkpt>
      <trkpt lat="45.50116" lon="6.74025">
        <ele>2231.5</ele>
        <time>2021-08-12T09:41:33Z</time>
      </trkpt>
      <trkpt lat="45.50116" lon="6.74025">
        <ele>2231.5</ele>
        <time>2021-08-12T09:41:34Z</time>
      </trkpt>
      <trkpt lat="45.50116" lon="6.74025">
        <ele>2231.5</ele>
        <time>2021-08-12T09:41:35Z</time>
      </trkpt>
      <trkpt lat="45.50116" lon="6.74025">
        <ele>2231.5</ele>
        <time>2021-08-12T09:41:36Z</time>
      </trkpt>
      <trkpt lat="45.50116" lon="6.74025">
        <ele>2231.5</ele>
        <time>2021-08-12T09:41:37Z</time>
      </trkpt>
      <trkpt lat="45.50116" lon="6.74025">
        <ele>2231.5</ele>
        <time>2021-08-12T09:41:38Z</time>
      </trkpt>
      <trkpt lat="45.50116" lon="6.74025">
        <ele>2231.5</ele>
        <time>2021-08-12T09:41:39Z</time>
      </trkpt>
      <trkpt lat="45.50116" lon="6.74025">
        <ele>2231.5</ele>
        <time>2021-08-12T09:41:40Z</time>
      </trkpt>
      <trkpt lat="45.50116" lon="6.74025">
        <ele>2231.5</ele>
        <time>2021-08-12T09:41:41Z</time>
      </trkpt>
      <trkpt lat="45.50116" lon="6.74025">
        <ele>2231.5</ele>
        <time>2021-08-12T09:41:42Z</time>
      </trkpt>
      <trkpt lat="45.50116" lon="6.74025">
        <ele>2231.5</ele>
        <time>2021-08-12T09:41:43Z</time>
      </trkpt>
      <trkpt lat="45.50116" lon="6.74025">
        <ele>2231.5</ele>
        <time>2021-08-12T09:41:44Z</time>
      </trkpt>
      <trkpt lat="45.50116" lon="6.74025">
        <ele>2231.5</ele>
        <time>2021-08-12T09:41:45Z</time>
      </trkpt>
      <trkpt lat="45.50116" lon="6.74025">
        <ele>2231.5</ele>
        <time>2021-08-12T09:41:46Z</time>
      </trkpt>
      <trkpt lat="45.50116" lon="6.74025">
        <ele>2231.5</ele>
        <time>2021-08-12T09:41:47Z</time>
      </trkpt>
      <trkpt lat="45.50116" lon="6.74025">
        <ele>2231.5</ele>
        <time>2021-08-12T09:41:48Z</time>
      </trkpt>
      <trkpt lat="45.50116" lon="6.74025">
        <ele>2231.5</ele>
        <time>2021-08-12T09:41:49Z</time>
      </trkpt>
      <trkpt lat="45.50116" lon="6.74025">
        <ele>2231.5</ele>
        <time>2021-08-12T09:41:50Z</time>
      </trkpt>
      <trkpt lat="45.50116" lon="6.74025">
        <ele>2231.5</ele>
        <time>2021-08-12T09:41:51Z</time>
      </trkpt>
      <trkpt lat="45.50116" lon="6.74025">
        <ele>2231.5</ele>
        <time>2021-08-12T09:41:52Z</time>
      </trkpt>
      <trkpt lat="45.50116" lon="6.74025">
        <ele>2231.5</ele>
        <time>2021-08-12T09:41:53Z</time>
      </trkpt>
      <trkpt lat="45.50116" lon="6.74025">
        <ele>2231.5</ele>
        <time>2021-08-12T09:41:54Z</time>
      </trkpt>
      <trkpt lat="45.50116" lon="6.74025">
        <ele>2231.5</ele>
        <time>2021-08-12T09:41:55Z</time>
      </trkpt>
      <trkpt lat="45.50116" lon="6.74025">
        <ele>2231.5</ele>
        <time>2021-08-12T09:41:56Z</time>
      </trkpt>
      <trkpt lat="45.50116" lon="6.74025">
        <ele>2231.5</ele>
        <time>2021-08-12T09:41:57Z</time>
      </trkpt>
      <trkpt lat="45.50116" lon="6.74025">
        <ele>2231.5</ele>
        <time>2021-08-12T09:41:58Z</time>
      </trkpt>
      <trkpt lat="45.50116" lon="6.74025">
        <ele>2231.5</ele>
        <time>2021-08-12T09:41:59Z</time>
      </trkpt>
      <trkpt lat="45.50116" lon="6.74025">
        <ele>2231.5</ele>
        <time>2021-08-12T09:42:00Z</time>
      </trkpt>
      <trkpt lat="45.50116" lon="6.74025">
        <ele>2231.5</ele>
        <time>2021-08-12T09:42:01Z</time>
      </trkpt>
      <trkpt lat="45.50116" lon="6.74025">
        <ele>2231.5</ele>
        <time>2021-08-12T09:42:02Z</time>
      </trkpt>
      <trkpt lat="45.50116" lon="6.74025">
        <ele>2231.5</ele>
        <time>2021-08-12T09:42:03Z</time>
      </trkpt>
      <trkpt lat="45.50116" lon="6.74025">
        <ele>2231.5</ele>
        <time>2021-08-12T09:42:04Z</time>
      </trkpt>
      <trkpt lat="45.50116" lon="6.74025">
        <ele>2231.6</ele>
        <time>2021-08-12T09:42:05Z</time>
      </trkpt>
      <trkpt lat="45.50116" lon="6.74025">
        <ele>2231.6</ele>
        <time>2021-08-12T09:42:06Z</time>
      </trkpt>
      <trkpt lat="45.50116" lon="6.74025">
        <ele>2231.6</ele>
        <time>2021-08-12T09:42:07Z</time>
      </trkpt>
      <trkpt lat="45.50116" lon="6.74025">
        <ele>2231.6</ele>
        <time>2021-08-12T09:42:08Z</time>
      </trkpt>
      <trkpt lat="45.50116" lon="6.74025">
        <ele>2231.6</ele>
        <time>2021-08-12T09:42:09Z</time>
      </trkpt>
      <trkpt lat="45.50116" lon="6.74026">
        <ele>2231.6</ele>
        <time>2021-08-12T09:42:10Z</time>
      </trkpt>
      <trkpt lat="45.50115" lon="6.74026">
        <ele>2231.6</ele>
        <time>2021-08-12T09:42:11Z</time>
      </trkpt>
      <trkpt lat="45.50115" lon="6.74026">
        <ele>2231.7</ele>
        <time>2021-08-12T09:42:12Z</time>
      </trkpt>
      <trkpt lat="45.50115" lon="6.74027">
        <ele>2231.7</ele>
        <time>2021-08-12T09:42:13Z</time>
      </trkpt>
      <trkpt lat="45.50115" lon="6.74027">
        <ele>2231.8</ele>
        <time>2021-08-12T09:42:14Z</time>
      </trkpt>
      <trkpt lat="45.50114" lon="6.74028">
        <ele>2231.8</ele>
        <time>2021-08-12T09:42:15Z</time>
      </trkpt>
      <trkpt lat="45.50114" lon="6.74029">
        <ele>2231.9</ele>
        <time>2021-08-12T09:42:16Z</time>
      </trkpt>
      <trkpt lat="45.50113" lon="6.74029">
        <ele>2232</ele>
        <time>2021-08-12T09:42:17Z</time>
      </trkpt>
      <trkpt lat="45.50113" lon="6.7403">
        <ele>2232.1</ele>
        <time>2021-08-12T09:42:18Z</time>
      </trkpt>
      <trkpt lat="45.50112" lon="6.74031">
        <ele>2232.2</ele>
        <time>2021-08-12T09:42:19Z</time>
      </trkpt>
      <trkpt lat="45.50112" lon="6.74032">
        <ele>2232.3</ele>
        <time>2021-08-12T09:42:20Z</time>
      </trkpt>
      <trkpt lat="45.50111" lon="6.74033">
        <ele>2232.4</ele>
        <time>2021-08-12T09:42:21Z</time>
      </trkpt>
      <trkpt lat="45.50111" lon="6.74034">
        <ele>2232.5</ele>
        <time>2021-08-12T09:42:22Z</time>
      </trkpt>
      <trkpt lat="45.5011" lon="6.74035">
        <ele>2232.6</ele>
        <time>2021-08-12T09:42:23Z</time>
      </trkpt>
      <trkpt lat="45.5011" lon="6.74035">
        <ele>2232.7</ele>
        <time>2021-08-12T09:42:24Z</time>
      </trkpt>
      <trkpt lat="45.50109" lon="6.74036">
        <ele>2232.8</ele>
        <time>2021-08-12T09:42:25Z</time>
      </trkpt>
      <trkpt lat="45.50108" lon="6.74037">
        <ele>2232.9</ele>
        <time>2021-08-12T09:42:26Z</time>
      </trkpt>
      <trkpt lat="45.50108" lon="6.74038">
        <ele>2233.1</ele>
        <time>2021-08-12T09:42:27Z</time>
      </trkpt>
      <trkpt lat="45.50107" lon="6.74038">
        <ele>2233.2</ele>
        <time>2021-08-12T09:42:28Z</time>
      </trkpt>
      <trkpt lat="45.50107" lon="6.74039">
        <ele>2233.3</ele>
        <time>2021-08-12T09:42:29Z</time>
      </trkpt>
      <trkpt lat="45.50106" lon="6.7404">
        <ele>2233.4</ele>
        <time>2021-08-12T09:42:30Z</time>
      </trkpt>
      <trkpt lat="45.50106" lon="6.74041">
        <ele>2233.5</ele>
        <time>2021-08-12T09:42:31Z</time>
      </trkpt>
      <trkpt lat="45.50105" lon="6.74041">
        <ele>2233.7</ele>
        <time>2021-08-12T09:42:32Z</time>
      </trkpt>
      <trkpt lat="45.50105" lon="6.74042">
        <ele>2233.8</ele>
        <time>2021-08-12T09:42:33Z</time>
      </trkpt>
      <trkpt lat="45.50105" lon="6.74043">
        <ele>2233.9</ele>
        <time>2021-08-12T09:42:34Z</time>
      </trkpt>
      <trkpt lat="45.50104" lon="6.74044">
        <ele>2234.1</ele>
        <time>2021-08-12T09:42:35Z</time>
      </trkpt>
      <trkpt lat="45.50104" lon="6.74045">
        <ele>2234.2</ele>
        <time>2021-08-12T09:42:36Z</time>
      </trkpt>
      <trkpt lat="45.50103" lon="6.74046">
        <ele>2236.2</ele>
        <time>2021-08-12T09:42:37Z</time>
      </trkpt>
      <trkpt lat="45.50103" lon="6.74047">
        <ele>2236.3</ele>
        <time>2021-08-12T09:42:38Z</time>
      </trkpt>
      <trkpt lat="45.50103" lon="6.74048">
        <ele>2236.5</ele>
        <time>2021-08-12T09:42:39Z</time>
      </trkpt>
      <trkpt lat="45.50102" lon="6.74049">
        <ele>2236.6</ele>
        <time>2021-08-12T09:42:40Z</time>
      </trkpt>
      <trkpt lat="45.50102" lon="6.7405">
        <ele>2236.7</ele>
        <time>2021-08-12T09:42:41Z</time>
      </trkpt>
      <trkpt lat="45.50101" lon="6.74051">
        <ele>2236.9</ele>
        <time>2021-08-12T09:42:42Z</time>
      </trkpt>
      <trkpt lat="45.50101" lon="6.74052">
        <ele>2237</ele>
        <time>2021-08-12T09:42:43Z</time>
      </trkpt>
      <trkpt lat="45.50101" lon="6.74053">
        <ele>2237.2</ele>
        <time>2021-08-12T09:42:44Z</time>
      </trkpt>
      <trkpt lat="45.50101" lon="6.74054">
        <ele>2237.3</ele>
        <time>2021-08-12T09:42:45Z</time>
      </trkpt>
      <trkpt lat="45.501" lon="6.74055">
        <ele>2237.4</ele>
        <time>2021-08-12T09:42:46Z</time>
      </trkpt>
      <trkpt lat="45.501" lon="6.74056">
        <ele>2237.5</ele>
        <time>2021-08-12T09:42:47Z</time>
      </trkpt>
      <trkpt lat="45.501" lon="6.74057">
        <ele>2237.6</ele>
        <time>2021-08-12T09:42:48Z</time>
      </trkpt>
      <trkpt lat="45.501" lon="6.74057">
        <ele>2237.6</ele>
        <time>2021-08-12T09:42:49Z</time>
      </trkpt>
      <trkpt lat="45.501" lon="6.74057">
        <ele>2237.7</ele>
        <time>2021-08-12T09:42:50Z</time>
      </trkpt>
      <trkpt lat="45.501" lon="6.74057">
        <ele>2237.7</ele>
        <time>2021-08-12T09:42:51Z</time>
      </trkpt>
      <trkpt lat="45.501" lon="6.74057">
        <ele>2237.7</ele>
        <time>2021-08-12T09:42:52Z</time>
      </trkpt>
      <trkpt lat="45.501" lon="6.74057">
        <ele>2237.7</ele>
        <time>2021-08-12T09:42:53Z</time>
      </trkpt>
      <trkpt lat="45.501" lon="6.74057">
        <ele>2237.7</ele>
        <time>2021-08-12T09:42:54Z</time>
      </trkpt>
      <trkpt lat="45.501" lon="6.74057">
        <ele>2237.7</ele>
        <time>2021-08-12T09:42:55Z</time>
      </trkpt>
      <trkpt lat="45.501" lon="6.74057">
        <ele>2237.7</ele>
        <time>2021-08-12T09:42:56Z</time>
      </trkpt>
      <trkpt lat="45.501" lon="6.74057">
        <ele>2237.7</ele>
        <time>2021-08-12T09:42:57Z</time>
      </trkpt>
      <trkpt lat="45.501" lon="6.74057">
        <ele>2237.7</ele>
        <time>2021-08-12T09:42:58Z</time>
      </trkpt>
      <trkpt lat="45.501" lon="6.74057">
        <ele>2237.7</ele>
        <time>2021-08-12T09:42:59Z</time>
      </trkpt>
      <trkpt lat="45.501" lon="6.74057">
        <ele>2237.7</ele>
        <time>2021-08-12T09:43:00Z</time>
      </trkpt>
      <trkpt lat="45.501" lon="6.74057">
        <ele>2237.7</ele>
        <time>2021-08-12T09:43:01Z</time>
      </trkpt>
      <trkpt lat="45.501" lon="6.74057">
        <ele>2237.7</ele>
        <time>2021-08-12T09:43:02Z</time>
      </trkpt>
      <trkpt lat="45.501" lon="6.74057">
        <ele>2237.7</ele>
        <time>2021-08-12T09:43:03Z</time>
      </trkpt>
      <trkpt lat="45.501" lon="6.74057">
        <ele>2237.7</ele>
        <time>2021-08-12T09:43:04Z</time>
      </trkpt>
      <trkpt lat="45.501" lon="6.74057">
        <ele>2237.7</ele>
        <time>2021-08-12T09:43:05Z</time>
      </trkpt>
      <trkpt lat="45.501" lon="6.74057">
        <ele>2237.7</ele>
        <time>2021-08-12T09:43:06Z</time>
      </trkpt>
      <trkpt lat="45.501" lon="6.74057">
        <ele>2237.7</ele>
        <time>2021-08-12T09:43:07Z</time>
      </trkpt>
      <trkpt lat="45.501" lon="6.74057">
        <ele>2237.7</ele>
        <time>2021-08-12T09:43:08Z</time>
      </trkpt>
      <trkpt lat="45.501" lon="6.74057">
        <ele>2237.7</ele>
        <time>2021-08-12T09:43:09Z</time>
      </trkpt>
      <trkpt lat="45.501" lon="6.74057">
        <ele>2237.7</ele>
        <time>2021-08-12T09:43:10Z</time>
      </trkpt>
      <trkpt lat="45.501" lon="6.74057">
        <ele>2237.7</ele>
        <time>2021-08-12T09:43:11Z</time>
      </trkpt>
      <trkpt lat="45.501" lon="6.74057">
        <ele>2237.7</ele>
        <time>2021-08-12T09:43:12Z</time>
      </trkpt>
      <trkpt lat="45.501" lon="6.74057">
        <ele>2237.7</ele>
        <time>2021-08-12T09:43:13Z</time>
      </trkpt>
      <trkpt lat="45.501" lon="6.74057">
        <ele>2237.7</ele>
        <time>2021-08-12T09:43:14Z</time>
      </trkpt>
      <trkpt lat="45.501" lon="6.74057">
        <ele>2237.7</ele>
        <time>2021-08-12T09:43:15Z</time>
      </trkpt>
      <trkpt lat="45.501" lon="6.74057">
        <ele>2237.7</ele>
        <time>2021-08-12T09:43:16Z</time>
      </trkpt>
      <trkpt lat="45.501" lon="6.74057">
        <ele>2237.7</ele>
        <time>2021-08-12T09:43:17Z</time>
      </trkpt>
      <trkpt lat="45.501" lon="6.74057">
        <ele>2237.7</ele>
        <time>2021-08-12T09:43:18Z</time>
      </trkpt>
      <trkpt lat="45.501" lon="6.74057">
        <ele>2237.7</ele>
        <time>2021-08-12T09:43:19Z</time>
      </trkpt>
      <trkpt lat="45.501" lon="6.74057">
        <ele>2237.7</ele>
        <time>2021-08-12T09:43:20Z</time>
      </trkpt>
      <trkpt lat="45.501" lon="6.74057">
        <ele>2237.7</ele>
        <time>2021-08-12T09:43:21Z</time>
      </trkpt>
      <trkpt lat="45.501" lon="6.74057">
        <ele>2237.7</ele>
        <time>2021-08-12T09:43:22Z</time>
      </trkpt>
      <trkpt lat="45.501" lon="6.74057">
        <ele>2237.7</ele>
        <time>2021-08-12T09:43:23Z</time>
      </trkpt>
      <trkpt lat="45.501" lon="6.74057">
        <ele>2237.7</ele>
        <time>2021-08-12T09:43:24Z</time>
      </trkpt>
      <trkpt lat="45.501" lon="6.74057">
        <ele>2237.7</ele>
        <time>2021-08-12T09:43:25Z</time>
      </trkpt>
      <trkpt lat="45.501" lon="6.74057">
        <ele>2237.7</ele>
        <time>2021-08-12T09:43:26Z</time>
      </trkpt>
      <trkpt lat="45.501" lon="6.74057">
        <ele>2237.7</ele>
        <time>2021-08-12T09:43:27Z</time>
      </trkpt>
      <trkpt lat="45.501" lon="6.74057">
        <ele>2237.7</ele>
        <time>2021-08-12T09:43:28Z</time>
      </trkpt>
      <trkpt lat="45.501" lon="6.74057">
        <ele>2237.7</ele>
        <time>2021-08-12T09:43:29Z</time>
      </trkpt>
      <trkpt lat="45.501" lon="6.74057">
        <ele>2237.7</ele>
        <time>2021-08-12T09:43:30Z</time>
      </trkpt>
      <trkpt lat="45.501" lon="6.74057">
        <ele>2237.7</ele>
        <time>2021-08-12T09:43:31Z</time>
      </trkpt>
      <trkpt lat="45.501" lon="6.74057">
        <ele>2237.7</ele>
        <time>2021-08-12T09:43:32Z</time>
      </trkpt>
      <trkpt lat="45.501" lon="6.74057">
        <ele>2237.7</ele>
        <time>2021-08-12T09:43:33Z</time>
      </trkpt>
      <trkpt lat="45.501" lon="6.74057">
        <ele>2237.7</ele>
        <time>2021-08-12T09:43:34Z</time>
      </trkpt>
      <trkpt lat="45.501" lon="6.74057">
        <ele>2237.7</ele>
        <time>2021-08-12T09:43:35Z</time>
      </trkpt>
      <trkpt lat="45.501" lon="6.74057">
        <ele>2237.7</ele>
        <time>2021-08-12T09:43:36Z</time>
      </trkpt>
      <trkpt lat="45.501" lon="6.74057">
        <ele>2237.7</ele>
        <time>2021-08-12T09:43:37Z</time>
      </trkpt>
      <trkpt lat="45.501" lon="6.74057">
        <ele>2237.7</ele>
        <time>2021-08-12T09:43:38Z</time>
      </trkpt>
      <trkpt lat="45.501" lon="6.74057">
        <ele>2237.7</ele>
        <time>2021-08-12T09:43:39Z</time>
      </trkpt>
      <trkpt lat="45.501" lon="6.74057">
        <ele>2237.7</ele>
        <time>2021-08-12T09:43:40Z</time>
      </trkpt>
      <trkpt lat="45.501" lon="6.74057">
        <ele>2237.7</ele>
        <time>2021-08-12T09:43:41Z</time>
      </trkpt>
      <trkpt lat="45.501" lon="6.74057">
        <ele>2237.7</ele>
        <time>2021-08-12T09:43:42Z</time>
      </trkpt>
      <trkpt lat="45.501" lon="6.74057">
        <ele>2237.7</ele>
        <time>2021-08-12T09:43:43Z</time>
      </trkpt>
      <trkpt lat="45.501" lon="6.74057">
        <ele>2237.7</ele>
        <time>2021-08-12T09:43:44Z</time>
      </trkpt>
      <trkpt lat="45.501" lon="6.74057">
        <ele>2237.7</ele>
        <time>2021-08-12T09:43:45Z</time>
      </trkpt>
      <trkpt lat="45.501" lon="6.74057">
        <ele>2237.7</ele>
        <time>2021-08-12T09:43:46Z</time>
      </trkpt>
      <trkpt lat="45.501" lon="6.74057">
        <ele>2237.7</ele>
        <time>2021-08-12T09:43:47Z</time>
      </trkpt>
      <trkpt lat="45.501" lon="6.74057">
        <ele>2237.7</ele>
        <time>2021-08-12T09:43:48Z</time>
      </trkpt>
      <trkpt lat="45.501" lon="6.74057">
        <ele>2237.7</ele>
        <time>2021-08-12T09:43:49Z</time>
      </trkpt>
      <trkpt lat="45.501" lon="6.74057">
        <ele>2237.7</ele>
        <time>2021-08-12T09:43:50Z</time>
      </trkpt>
      <trkpt lat="45.501" lon="6.74057">
        <ele>2237.7</ele>
        <time>2021-08-12T09:43:51Z</time>
      </trkpt>
      <trkpt lat="45.501" lon="6.74057">
        <ele>2237.7</ele>
        <time>2021-08-12T09:43:52Z</time>
      </trkpt>
      <trkpt lat="45.501" lon="6.74057">
        <ele>2237.7</ele>
        <time>2021-08-12T09:43:53Z</time>
      </trkpt>
      <trkpt lat="45.501" lon="6.74057">
        <ele>2237.7</ele>
        <time>2021-08-12T09:43:54Z</time>
      </trkpt>
      <trkpt lat="45.501" lon="6.74057">
        <ele>2237.7</ele>
        <time>2021-08-12T09:43:55Z</time>
      </trkpt>
      <trkpt lat="45.501" lon="6.74057">
        <ele>2237.7</ele>
        <time>2021-08-12T09:43:56Z</time>
      </trkpt>
      <trkpt lat="45.501" lon="6.74057">
        <ele>2237.7</ele>
        <time>2021-08-12T09:43:57Z</time>
      </trkpt>
      <trkpt lat="45.501" lon="6.74057">
        <ele>2237.7</ele>
        <time>2021-08-12T09:43:58Z</time>
      </trkpt>
      <trkpt lat="45.501" lon="6.74057">
        <ele>2237.7</ele>
        <time>2021-08-12T09:43:59Z</time>
      </trkpt>
      <trkpt lat="45.501" lon="6.74057">
        <ele>2237.7</ele>
        <time>2021-08-12T09:44:00Z</time>
      </trkpt>
      <trkpt lat="45.501" lon="6.74057">
        <ele>2237.7</ele>
        <time>2021-08-12T09:44:01Z</time>
      </trkpt>
      <trkpt lat="45.501" lon="6.74057">
        <ele>2237.7</ele>
        <time>2021-08-12T09:44:02Z</time>
      </trkpt>
      <trkpt lat="45.501" lon="6.74057">
        <ele>2237.7</ele>
        <time>2021-08-12T09:44:03Z</time>
      </trkpt>
      <trkpt lat="45.501" lon="6.74057">
        <ele>2237.7</ele>
        <time>2021-08-12T09:44:04Z</time>
      </trkpt>
      <trkpt lat="45.501" lon="6.74057">
        <ele>2237.7</ele>
        <time>2021-08-12T09:44:05Z</time>
      </trkpt>
      <trkpt lat="45.501" lon="6.74057">
        <ele>2237.7</ele>
        <time>2021-08-12T09:44:06Z</time>
      </trkpt>
      <trkpt lat="45.501" lon="6.74057">
        <ele>2237.7</ele>
        <time>2021-08-12T09:44:07Z</time>
      </trkpt>
      <trkpt lat="45.501" lon="6.74057">
        <ele>2237.7</ele>
        <time>2021-08-12T09:44:08Z</time>
      </trkpt>
      <trkpt lat="45.501" lon="6.74057">
        <ele>2237.7</ele>
        <time>2021-08-12T09:44:09Z</time>
      </trkpt>
      <trkpt lat="45.501" lon="6.74057">
        <ele>2237.7</ele>
        <time>2021-08-12T09:44:10Z</time>
      </trkpt>
      <trkpt lat="45.501" lon="6.74057">
        <ele>2237.7</ele>
        <time>2021-08-12T09:44:11Z</time>
      </trkpt>
      <trkpt lat="45.501" lon="6.74057">
        <ele>2237.7</ele>
        <time>2021-08-12T09:44:12Z</time>
      </trkpt>
      <trkpt lat="45.501" lon="6.74057">
        <ele>2237.7</ele>
        <time>2021-08-12T09:44:13Z</time>
      </trkpt>
      <trkpt lat="45.501" lon="6.74057">
        <ele>2237.7</ele>
        <time>2021-08-12T09:44:14Z</time>
      </trkpt>
      <trkpt lat="45.501" lon="6.74057">
        <ele>2237.7</ele>
        <time>2021-08-12T09:44:15Z</time>
      </trkpt>
      <trkpt lat="45.501" lon="6.74057">
        <ele>2237.7</ele>
        <time>2021-08-12T09:44:16Z</time>
      </trkpt>
      <trkpt lat="45.501" lon="6.74057">
        <ele>2237.7</ele>
        <time>2021-08-12T09:44:17Z</time>
      </trkpt>
      <trkpt lat="45.501" lon="6.74057">
        <ele>2237.7</ele>
        <time>2021-08-12T09:44:18Z</time>
      </trkpt>
      <trkpt lat="45.501" lon="6.74057">
        <ele>2237.7</ele>
        <time>2021-08-12T09:44:19Z</time>
      </trkpt>
      <trkpt lat="45.501" lon="6.74057">
        <ele>2237.7</ele>
        <time>2021-08-12T09:44:20Z</time>
      </trkpt>
      <trkpt lat="45.501" lon="6.74057">
        <ele>2237.7</ele>
        <time>2021-08-12T09:44:21Z</time>
      </trkpt>
      <trkpt lat="45.501" lon="6.74057">
        <ele>2237.7</ele>
        <time>2021-08-12T09:44:22Z</time>
      </trkpt>
      <trkpt lat="45.501" lon="6.74057">
        <ele>2237.7</ele>
        <time>2021-08-12T09:44:23Z</time>
      </trkpt>
      <trkpt lat="45.501" lon="6.74057">
        <ele>2237.7</ele>
        <time>2021-08-12T09:44:24Z</time>
      </trkpt>
      <trkpt lat="45.501" lon="6.74057">
        <ele>2237.7</ele>
        <time>2021-08-12T09:44:25Z</time>
      </trkpt>
      <trkpt lat="45.501" lon="6.74057">
        <ele>2237.7</ele>
        <time>2021-08-12T09:44:26Z</time>
      </trkpt>
      <trkpt lat="45.501" lon="6.74057">
        <ele>2237.7</ele>
        <time>2021-08-12T09:44:27Z</time>
      </trkpt>
      <trkpt lat="45.501" lon="6.74057">
        <ele>2237.7</ele>
        <time>2021-08-12T09:44:28Z</time>
      </trkpt>
      <trkpt lat="45.501" lon="6.74057">
        <ele>2237.7</ele>
        <time>2021-08-12T09:44:29Z</time>
      </trkpt>
      <trkpt lat="45.501" lon="6.74057">
        <ele>2237.7</ele>
        <time>2021-08-12T09:44:30Z</time>
      </trkpt>
      <trkpt lat="45.501" lon="6.74057">
        <ele>2237.7</ele>
        <time>2021-08-12T09:44:31Z</time>
      </trkpt>
      <trkpt lat="45.501" lon="6.74057">
        <ele>2237.7</ele>
        <time>2021-08-12T09:44:32Z</time>
      </trkpt>
      <trkpt lat="45.501" lon="6.74057">
        <ele>2237.7</ele>
        <time>2021-08-12T09:44:33Z</time>
      </trkpt>
      <trkpt lat="45.501" lon="6.74057">
        <ele>2237.7</ele>
        <time>2021-08-12T09:44:34Z</time>
      </trkpt>
      <trkpt lat="45.501" lon="6.74057">
        <ele>2237.7</ele>
        <time>2021-08-12T09:44:35Z</time>
      </trkpt>
      <trkpt lat="45.501" lon="6.74057">
        <ele>2237.7</ele>
        <time>2021-08-12T09:44:36Z</time>
      </trkpt>
      <trkpt lat="45.501" lon="6.74057">
        <ele>2237.7</ele>
        <time>2021-08-12T09:44:37Z</time>
      </trkpt>
      <trkpt lat="45.501" lon="6.74057">
        <ele>2237.7</ele>
        <time>2021-08-12T09:44:38Z</time>
      </trkpt>
      <trkpt lat="45.501" lon="6.74057">
        <ele>2237.7</ele>
        <time>2021-08-12T09:44:39Z</time>
      </trkpt>
      <trkpt lat="45.501" lon="6.74057">
        <ele>2237.7</ele>
        <time>2021-08-12T09:44:40Z</time>
      </trkpt>
      <trkpt lat="45.501" lon="6.74057">
        <ele>2237.7</ele>
        <time>2021-08-12T09:44:41Z</time>
      </trkpt>
      <trkpt lat="45.501" lon="6.74057">
        <ele>2237.7</ele>
        <time>2021-08-12T09:44:42Z</time>
      </trkpt>
      <trkpt lat="45.501" lon="6.74057">
        <ele>2237.7</ele>
        <time>2021-08-12T09:44:43Z</time>
      </trkpt>
      <trkpt lat="45.501" lon="6.74057">
        <ele>2237.7</ele>
        <time>2021-08-12T09:44:44Z</time>
      </trkpt>
      <trkpt lat="45.501" lon="6.74057">
        <ele>2237.7</ele>
        <time>2021-08-12T09:44:45Z</time>
      </trkpt>
      <trkpt lat="45.501" lon="6.74057">
        <ele>2237.7</ele>
        <time>2021-08-12T09:44:46Z</time>
      </trkpt>
      <trkpt lat="45.501" lon="6.74057">
        <ele>2237.7</ele>
        <time>2021-08-12T09:44:47Z</time>
      </trkpt>
      <trkpt lat="45.501" lon="6.74057">
        <ele>2237.7</ele>
        <time>2021-08-12T09:44:48Z</time>
      </trkpt>
      <trkpt lat="45.501" lon="6.74057">
        <ele>2237.7</ele>
        <time>2021-08-12T09:44:49Z</time>
      </trkpt>
      <trkpt lat="45.501" lon="6.74057">
        <ele>2237.7</ele>
        <time>2021-08-12T09:44:50Z</time>
      </trkpt>
      <trkpt lat="45.501" lon="6.74057">
        <ele>2237.7</ele>
        <time>2021-08-12T09:44:51Z</time>
      </trkpt>
      <trkpt lat="45.501" lon="6.74057">
        <ele>2237.7</ele>
        <time>2021-08-12T09:44:52Z</time>
      </trkpt>
      <trkpt lat="45.501" lon="6.74057">
        <ele>2237.7</ele>
        <time>2021-08-12T09:44:53Z</time>
      </trkpt>
      <trkpt lat="45.501" lon="6.74057">
        <ele>2237.7</ele>
        <time>2021-08-12T09:44:54Z</time>
      </trkpt>
      <trkpt lat="45.501" lon="6.74057">
        <ele>2237.7</ele>
        <time>2021-08-12T09:44:55Z</time>
      </trkpt>
      <trkpt lat="45.501" lon="6.74057">
        <ele>2237.7</ele>
        <time>2021-08-12T09:44:56Z</time>
      </trkpt>
      <trkpt lat="45.501" lon="6.74057">
        <ele>2237.7</ele>
        <time>2021-08-12T09:44:57Z</time>
      </trkpt>
      <trkpt lat="45.501" lon="6.74057">
        <ele>2237.7</ele>
        <time>2021-08-12T09:44:58Z</time>
      </trkpt>
      <trkpt lat="45.501" lon="6.74057">
        <ele>2237.7</ele>
        <time>2021-08-12T09:44:59Z</time>
      </trkpt>
      <trkpt lat="45.501" lon="6.74057">
        <ele>2237.7</ele>
        <time>2021-08-12T09:45:00Z</time>
      </trkpt>
      <trkpt lat="45.501" lon="6.74057">
        <ele>2237.7</ele>
        <time>2021-08-12T09:45:01Z</time>
      </trkpt>
      <trkpt lat="45.501" lon="6.74057">
        <ele>2237.7</ele>
        <time>2021-08-12T09:45:02Z</time>
      </trkpt>
      <trkpt lat="45.501" lon="6.74057">
        <ele>2237.7</ele>
        <time>2021-08-12T09:45:03Z</time>
      </trkpt>
      <trkpt lat="45.501" lon="6.74057">
        <ele>2237.7</ele>
        <time>2021-08-12T09:45:04Z</time>
      </trkpt>
      <trkpt lat="45.501" lon="6.74057">
        <ele>2237.7</ele>
        <time>2021-08-12T09:45:05Z</time>
      </trkpt>
      <trkpt lat="45.501" lon="6.74057">
        <ele>2237.7</ele>
        <time>2021-08-12T09:45:06Z</time>
      </trkpt>
      <trkpt lat="45.501" lon="6.74057">
        <ele>2237.7</ele>
        <time>2021-08-12T09:45:07Z</time>
      </trkpt>
      <trkpt lat="45.501" lon="6.74057">
        <ele>2237.7</ele>
        <time>2021-08-12T09:45:08Z</time>
      </trkpt>
      <trkpt lat="45.501" lon="6.74057">
        <ele>2237.7</ele>
        <time>2021-08-12T09:45:09Z</time>
      </trkpt>
      <trkpt lat="45.501" lon="6.74057">
        <ele>2237.7</ele>
        <time>2021-08-12T09:45:10Z</time>
      </trkpt>
      <trkpt lat="45.501" lon="6.74057">
        <ele>2237.7</ele>
        <time>2021-08-12T09:45:11Z</time>
      </trkpt>
      <trkpt lat="45.501" lon="6.74057">
        <ele>2237.7</ele>
        <time>2021-08-12T09:45:12Z</time>
      </trkpt>
      <trkpt lat="45.501" lon="6.74057">
        <ele>2237.7</ele>
        <time>2021-08-12T09:45:13Z</time>
      </trkpt>
      <trkpt lat="45.501" lon="6.74057">
        <ele>2237.7</ele>
        <time>2021-08-12T09:45:14Z</time>
      </trkpt>
      <trkpt lat="45.501" lon="6.74057">
        <ele>2237.7</ele>
        <time>2021-08-12T09:45:15Z</time>
      </trkpt>
      <trkpt lat="45.501" lon="6.74057">
        <ele>2237.7</ele>
        <time>2021-08-12T09:45:16Z</time>
      </trkpt>
      <trkpt lat="45.501" lon="6.74057">
        <ele>2237.7</ele>
        <time>2021-08-12T09:45:17Z</time>
      </trkpt>
      <trkpt lat="45.501" lon="6.74057">
        <ele>2237.7</ele>
        <time>2021-08-12T09:45:18Z</time>
      </trkpt>
      <trkpt lat="45.501" lon="6.74057">
        <ele>2237.7</ele>
        <time>2021-08-12T09:45:19Z</time>
      </trkpt>
      <trkpt lat="45.501" lon="6.74057">
        <ele>2237.7</ele>
        <time>2021-08-12T09:45:20Z</time>
      </trkpt>
      <trkpt lat="45.501" lon="6.74057">
        <ele>2237.7</ele>
        <time>2021-08-12T09:45:21Z</time>
      </trkpt>
      <trkpt lat="45.501" lon="6.74057">
        <ele>2237.7</ele>
        <time>2021-08-12T09:45:22Z</time>
      </trkpt>
      <trkpt lat="45.501" lon="6.74057">
        <ele>2237.7</ele>
        <time>2021-08-12T09:45:23Z</time>
      </trkpt>
      <trkpt lat="45.501" lon="6.74057">
        <ele>2237.7</ele>
        <time>2021-08-12T09:45:24Z</time>
      </trkpt>
      <trkpt lat="45.501" lon="6.74057">
        <ele>2237.7</ele>
        <time>2021-08-12T09:45:25Z</time>
      </trkpt>
      <trkpt lat="45.501" lon="6.74057">
        <ele>2237.7</ele>
        <time>2021-08-12T09:45:26Z</time>
      </trkpt>
      <trkpt lat="45.501" lon="6.74057">
        <ele>2237.7</ele>
        <time>2021-08-12T09:45:27Z</time>
      </trkpt>
      <trkpt lat="45.501" lon="6.74057">
        <ele>2237.7</ele>
        <time>2021-08-12T09:45:28Z</time>
      </trkpt>
      <trkpt lat="45.501" lon="6.74057">
        <ele>2237.7</ele>
        <time>2021-08-12T09:45:29Z</time>
      </trkpt>
      <trkpt lat="45.501" lon="6.74057">
        <ele>2237.7</ele>
        <time>2021-08-12T09:45:30Z</time>
      </trkpt>
      <trkpt lat="45.501" lon="6.74057">
        <ele>2237.7</ele>
        <time>2021-08-12T09:45:31Z</time>
      </trkpt>
      <trkpt lat="45.501" lon="6.74057">
        <ele>2237.7</ele>
        <time>2021-08-12T09:45:32Z</time>
      </trkpt>
      <trkpt lat="45.501" lon="6.74057">
        <ele>2237.7</ele>
        <time>2021-08-12T09:45:33Z</time>
      </trkpt>
      <trkpt lat="45.501" lon="6.74057">
        <ele>2237.7</ele>
        <time>2021-08-12T09:45:34Z</time>
      </trkpt>
      <trkpt lat="45.501" lon="6.74057">
        <ele>2237.7</ele>
        <time>2021-08-12T09:45:35Z</time>
      </trkpt>
      <trkpt lat="45.501" lon="6.74057">
        <ele>2237.7</ele>
        <time>2021-08-12T09:45:36Z</time>
      </trkpt>
      <trkpt lat="45.501" lon="6.74057">
        <ele>2237.7</ele>
        <time>2021-08-12T09:45:37Z</time>
      </trkpt>
      <trkpt lat="45.501" lon="6.74057">
        <ele>2237.7</ele>
        <time>2021-08-12T09:45:38Z</time>
      </trkpt>
      <trkpt lat="45.501" lon="6.74057">
        <ele>2237.7</ele>
        <time>2021-08-12T09:45:39Z</time>
      </trkpt>
      <trkpt lat="45.501" lon="6.74057">
        <ele>2237.7</ele>
        <time>2021-08-12T09:45:40Z</time>
      </trkpt>
      <trkpt lat="45.501" lon="6.74057">
        <ele>2237.7</ele>
        <time>2021-08-12T09:45:41Z</time>
      </trkpt>
      <trkpt lat="45.501" lon="6.74057">
        <ele>2237.7</ele>
        <time>2021-08-12T09:45:42Z</time>
      </trkpt>
      <trkpt lat="45.501" lon="6.74057">
        <ele>2237.7</ele>
        <time>2021-08-12T09:45:43Z</time>
      </trkpt>
      <trkpt lat="45.501" lon="6.74057">
        <ele>2237.7</ele>
        <time>2021-08-12T09:45:44Z</time>
      </trkpt>
      <trkpt lat="45.501" lon="6.74057">
        <ele>2237.7</ele>
        <time>2021-08-12T09:45:45Z</time>
      </trkpt>
      <trkpt lat="45.501" lon="6.74057">
        <ele>2237.7</ele>
        <time>2021-08-12T09:45:46Z</time>
      </trkpt>
      <trkpt lat="45.501" lon="6.74057">
        <ele>2237.7</ele>
        <time>2021-08-12T09:45:47Z</time>
      </trkpt>
      <trkpt lat="45.501" lon="6.74057">
        <ele>2237.7</ele>
        <time>2021-08-12T09:45:48Z</time>
      </trkpt>
      <trkpt lat="45.501" lon="6.74057">
        <ele>2237.7</ele>
        <time>2021-08-12T09:45:49Z</time>
      </trkpt>
      <trkpt lat="45.501" lon="6.74057">
        <ele>2237.7</ele>
        <time>2021-08-12T09:45:50Z</time>
      </trkpt>
      <trkpt lat="45.501" lon="6.74057">
        <ele>2237.7</ele>
        <time>2021-08-12T09:45:51Z</time>
      </trkpt>
      <trkpt lat="45.501" lon="6.74057">
        <ele>2237.7</ele>
        <time>2021-08-12T09:45:52Z</time>
      </trkpt>
      <trkpt lat="45.501" lon="6.74057">
        <ele>2237.7</ele>
        <time>2021-08-12T09:45:53Z</time>
      </trkpt>
      <trkpt lat="45.501" lon="6.74057">
        <ele>2237.7</ele>
        <time>2021-08-12T09:45:54Z</time>
      </trkpt>
      <trkpt lat="45.501" lon="6.74057">
        <ele>2237.7</ele>
        <time>2021-08-12T09:45:55Z</time>
      </trkpt>
      <trkpt lat="45.501" lon="6.74057">
        <ele>2237.7</ele>
        <time>2021-08-12T09:45:56Z</time>
      </trkpt>
      <trkpt lat="45.501" lon="6.74057">
        <ele>2237.7</ele>
        <time>2021-08-12T09:45:57Z</time>
      </trkpt>
      <trkpt lat="45.501" lon="6.74057">
        <ele>2237.7</ele>
        <time>2021-08-12T09:45:58Z</time>
      </trkpt>
      <trkpt lat="45.501" lon="6.74057">
        <ele>2237.7</ele>
        <time>2021-08-12T09:45:59Z</time>
      </trkpt>
      <trkpt lat="45.501" lon="6.74057">
        <ele>2237.7</ele>
        <time>2021-08-12T09:46:00Z</time>
      </trkpt>
      <trkpt lat="45.501" lon="6.74057">
        <ele>2237.7</ele>
        <time>2021-08-12T09:46:01Z</time>
      </trkpt>
      <trkpt lat="45.501" lon="6.74057">
        <ele>2237.7</ele>
        <time>2021-08-12T09:46:02Z</time>
      </trkpt>
      <trkpt lat="45.501" lon="6.74057">
        <ele>2237.7</ele>
        <time>2021-08-12T09:46:03Z</time>
      </trkpt>
      <trkpt lat="45.501" lon="6.74057">
        <ele>2237.7</ele>
        <time>2021-08-12T09:46:04Z</time>
      </trkpt>
      <trkpt lat="45.501" lon="6.74057">
        <ele>2237.7</ele>
        <time>2021-08-12T09:46:05Z</time>
      </trkpt>
      <trkpt lat="45.501" lon="6.74057">
        <ele>2237.7</ele>
        <time>2021-08-12T09:46:06Z</time>
      </trkpt>
      <trkpt lat="45.501" lon="6.74057">
        <ele>2237.8</ele>
        <time>2021-08-12T09:46:07Z</time>
      </trkpt>
      <trkpt lat="45.50101" lon="6.74057">
        <ele>2237.8</ele>
        <time>2021-08-12T09:46:08Z</time>
      </trkpt>
      <trkpt lat="45.50101" lon="6.74057">
        <ele>2237.8</ele>
        <time>2021-08-12T09:46:09Z</time>
      </trkpt>
      <trkpt lat="45.50101" lon="6.74057">
        <ele>2237.9</ele>
        <time>2021-08-12T09:46:10Z</time>
      </trkpt>
      <trkpt lat="45.50101" lon="6.74057">
        <ele>2237.9</ele>
        <time>2021-08-12T09:46:11Z</time>
      </trkpt>
      <trkpt lat="45.50102" lon="6.74057">
        <ele>2237.9</ele>
        <time>2021-08-12T09:46:12Z</time>
      </trkpt>
      <trkpt lat="45.50102" lon="6.74057">
        <ele>2238</ele>
        <time>2021-08-12T09:46:13Z</time>
      </trkpt>
      <trkpt lat="45.50102" lon="6.74057">
        <ele>2238</ele>
        <time>2021-08-12T09:46:14Z</time>
      </trkpt>
      <trkpt lat="45.50102" lon="6.74057">
        <ele>2238</ele>
        <time>2021-08-12T09:46:15Z</time>
      </trkpt>
      <trkpt lat="45.50102" lon="6.74057">
        <ele>2238.1</ele>
        <time>2021-08-12T09:46:16Z</time>
      </trkpt>
      <trkpt lat="45.50102" lon="6.74057">
        <ele>2238.1</ele>
        <time>2021-08-12T09:46:17Z</time>
      </trkpt>
      <trkpt lat="45.50102" lon="6.74057">
        <ele>2238.1</ele>
        <time>2021-08-12T09:46:18Z</time>
      </trkpt>
      <trkpt lat="45.50103" lon="6.74057">
        <ele>2238.1</ele>
        <time>2021-08-12T09:46:19Z</time>
      </trkpt>
      <trkpt lat="45.50103" lon="6.74057">
        <ele>2238.1</ele>
        <time>2021-08-12T09:46:20Z</time>
      </trkpt>
      <trkpt lat="45.50102" lon="6.74057">
        <ele>2238.1</ele>
        <time>2021-08-12T09:46:21Z</time>
      </trkpt>
      <trkpt lat="45.50102" lon="6.74057">
        <ele>2238.1</ele>
        <time>2021-08-12T09:46:22Z</time>
      </trkpt>
      <trkpt lat="45.50102" lon="6.74057">
        <ele>2238.2</ele>
        <time>2021-08-12T09:46:23Z</time>
      </trkpt>
      <trkpt lat="45.50102" lon="6.74057">
        <ele>2238.2</ele>
        <time>2021-08-12T09:46:24Z</time>
      </trkpt>
      <trkpt lat="45.50102" lon="6.74057">
        <ele>2238.2</ele>
        <time>2021-08-12T09:46:25Z</time>
      </trkpt>
      <trkpt lat="45.50102" lon="6.74057">
        <ele>2238.2</ele>
        <time>2021-08-12T09:46:26Z</time>
      </trkpt>
      <trkpt lat="45.50102" lon="6.74057">
        <ele>2238.3</ele>
        <time>2021-08-12T09:46:27Z</time>
      </trkpt>
      <trkpt lat="45.50102" lon="6.74057">
        <ele>2238.3</ele>
        <time>2021-08-12T09:46:28Z</time>
      </trkpt>
      <trkpt lat="45.50101" lon="6.74057">
        <ele>2238.3</ele>
        <time>2021-08-12T09:46:29Z</time>
      </trkpt>
      <trkpt lat="45.50101" lon="6.74058">
        <ele>2238.4</ele>
        <time>2021-08-12T09:46:30Z</time>
      </trkpt>
      <trkpt lat="45.50101" lon="6.74058">
        <ele>2238.4</ele>
        <time>2021-08-12T09:46:31Z</time>
      </trkpt>
      <trkpt lat="45.50101" lon="6.74058">
        <ele>2238.5</ele>
        <time>2021-08-12T09:46:32Z</time>
      </trkpt>
      <trkpt lat="45.50101" lon="6.74058">
        <ele>2238.5</ele>
        <time>2021-08-12T09:46:33Z</time>
      </trkpt>
      <trkpt lat="45.50101" lon="6.74058">
        <ele>2238.5</ele>
        <time>2021-08-12T09:46:34Z</time>
      </trkpt>
      <trkpt lat="45.501" lon="6.74058">
        <ele>2238.5</ele>
        <time>2021-08-12T09:46:35Z</time>
      </trkpt>
      <trkpt lat="45.501" lon="6.74058">
        <ele>2238.6</ele>
        <time>2021-08-12T09:46:36Z</time>
      </trkpt>
      <trkpt lat="45.501" lon="6.74059">
        <ele>2238.6</ele>
        <time>2021-08-12T09:46:37Z</time>
      </trkpt>
      <trkpt lat="45.501" lon="6.74059">
        <ele>2238.6</ele>
        <time>2021-08-12T09:46:38Z</time>
      </trkpt>
      <trkpt lat="45.501" lon="6.74059">
        <ele>2238.6</ele>
        <time>2021-08-12T09:46:39Z</time>
      </trkpt>
      <trkpt lat="45.501" lon="6.74059">
        <ele>2238.7</ele>
        <time>2021-08-12T09:46:40Z</time>
      </trkpt>
      <trkpt lat="45.501" lon="6.74059">
        <ele>2238.7</ele>
        <time>2021-08-12T09:46:41Z</time>
      </trkpt>
      <trkpt lat="45.501" lon="6.74059">
        <ele>2238.7</ele>
        <time>2021-08-12T09:46:42Z</time>
      </trkpt>
      <trkpt lat="45.50099" lon="6.74059">
        <ele>2238.8</ele>
        <time>2021-08-12T09:46:43Z</time>
      </trkpt>
      <trkpt lat="45.50099" lon="6.7406">
        <ele>2238.8</ele>
        <time>2021-08-12T09:46:44Z</time>
      </trkpt>
      <trkpt lat="45.50099" lon="6.7406">
        <ele>2238.8</ele>
        <time>2021-08-12T09:46:45Z</time>
      </trkpt>
      <trkpt lat="45.50099" lon="6.7406">
        <ele>2238.8</ele>
        <time>2021-08-12T09:46:46Z</time>
      </trkpt>
      <trkpt lat="45.50099" lon="6.7406">
        <ele>2238.9</ele>
        <time>2021-08-12T09:46:47Z</time>
      </trkpt>
      <trkpt lat="45.50099" lon="6.7406">
        <ele>2238.9</ele>
        <time>2021-08-12T09:46:48Z</time>
      </trkpt>
      <trkpt lat="45.50099" lon="6.7406">
        <ele>2238.9</ele>
        <time>2021-08-12T09:46:49Z</time>
      </trkpt>
      <trkpt lat="45.50099" lon="6.7406">
        <ele>2238.9</ele>
        <time>2021-08-12T09:46:50Z</time>
      </trkpt>
      <trkpt lat="45.50099" lon="6.7406">
        <ele>2238.9</ele>
        <time>2021-08-12T09:46:51Z</time>
      </trkpt>
      <trkpt lat="45.50098" lon="6.7406">
        <ele>2238.9</ele>
        <time>2021-08-12T09:46:52Z</time>
      </trkpt>
      <trkpt lat="45.50098" lon="6.7406">
        <ele>2239</ele>
        <time>2021-08-12T09:46:53Z</time>
      </trkpt>
      <trkpt lat="45.50098" lon="6.7406">
        <ele>2239</ele>
        <time>2021-08-12T09:46:54Z</time>
      </trkpt>
      <trkpt lat="45.50098" lon="6.7406">
        <ele>2239</ele>
        <time>2021-08-12T09:46:55Z</time>
      </trkpt>
      <trkpt lat="45.50098" lon="6.74061">
        <ele>2239</ele>
        <time>2021-08-12T09:46:56Z</time>
      </trkpt>
      <trkpt lat="45.50098" lon="6.74061">
        <ele>2239</ele>
        <time>2021-08-12T09:46:57Z</time>
      </trkpt>
      <trkpt lat="45.50098" lon="6.74061">
        <ele>2239.1</ele>
        <time>2021-08-12T09:46:58Z</time>
      </trkpt>
      <trkpt lat="45.50098" lon="6.74061">
        <ele>2239.1</ele>
        <time>2021-08-12T09:46:59Z</time>
      </trkpt>
      <trkpt lat="45.50098" lon="6.74061">
        <ele>2239.1</ele>
        <time>2021-08-12T09:47:00Z</time>
      </trkpt>
      <trkpt lat="45.50097" lon="6.74061">
        <ele>2239.2</ele>
        <time>2021-08-12T09:47:01Z</time>
      </trkpt>
      <trkpt lat="45.50097" lon="6.74061">
        <ele>2239.2</ele>
        <time>2021-08-12T09:47:02Z</time>
      </trkpt>
      <trkpt lat="45.50097" lon="6.74061">
        <ele>2239.2</ele>
        <time>2021-08-12T09:47:03Z</time>
      </trkpt>
      <trkpt lat="45.50097" lon="6.74062">
        <ele>2239.3</ele>
        <time>2021-08-12T09:47:04Z</time>
      </trkpt>
      <trkpt lat="45.50097" lon="6.74062">
        <ele>2239.3</ele>
        <time>2021-08-12T09:47:05Z</time>
      </trkpt>
      <trkpt lat="45.50096" lon="6.74062">
        <ele>2239.4</ele>
        <time>2021-08-12T09:47:06Z</time>
      </trkpt>
      <trkpt lat="45.50096" lon="6.74062">
        <ele>2239.4</ele>
        <time>2021-08-12T09:47:07Z</time>
      </trkpt>
      <trkpt lat="45.50096" lon="6.74062">
        <ele>2239.5</ele>
        <time>2021-08-12T09:47:08Z</time>
      </trkpt>
      <trkpt lat="45.50095" lon="6.74063">
        <ele>2239.5</ele>
        <time>2021-08-12T09:47:09Z</time>
      </trkpt>
      <trkpt lat="45.50095" lon="6.74063">
        <ele>2239.6</ele>
        <time>2021-08-12T09:47:10Z</time>
      </trkpt>
      <trkpt lat="45.50094" lon="6.74063">
        <ele>2239.7</ele>
        <time>2021-08-12T09:47:11Z</time>
      </trkpt>
      <trkpt lat="45.50094" lon="6.74064">
        <ele>2239.8</ele>
        <time>2021-08-12T09:47:12Z</time>
      </trkpt>
      <trkpt lat="45.50093" lon="6.74064">
        <ele>2239.9</ele>
        <time>2021-08-12T09:47:13Z</time>
      </trkpt>
      <trkpt lat="45.50093" lon="6.74065">
        <ele>2240</ele>
        <time>2021-08-12T09:47:14Z</time>
      </trkpt>
      <trkpt lat="45.50092" lon="6.74065">
        <ele>2240.1</ele>
        <time>2021-08-12T09:47:15Z</time>
      </trkpt>
      <trkpt lat="45.50092" lon="6.74066">
        <ele>2240.3</ele>
        <time>2021-08-12T09:47:16Z</time>
      </trkpt>
      <trkpt lat="45.50091" lon="6.74066">
        <ele>2240.4</ele>
        <time>2021-08-12T09:47:17Z</time>
      </trkpt>
      <trkpt lat="45.5009" lon="6.74067">
        <ele>2240.5</ele>
        <time>2021-08-12T09:47:18Z</time>
      </trkpt>
      <trkpt lat="45.50089" lon="6.74068">
        <ele>2240.7</ele>
        <time>2021-08-12T09:47:19Z</time>
      </trkpt>
      <trkpt lat="45.50089" lon="6.74068">
        <ele>2240.8</ele>
        <time>2021-08-12T09:47:20Z</time>
      </trkpt>
      <trkpt lat="45.50088" lon="6.74069">
        <ele>2241</ele>
        <time>2021-08-12T09:47:21Z</time>
      </trkpt>
      <trkpt lat="45.50087" lon="6.7407">
        <ele>2241.1</ele>
        <time>2021-08-12T09:47:22Z</time>
      </trkpt>
      <trkpt lat="45.50086" lon="6.7407">
        <ele>2241.3</ele>
        <time>2021-08-12T09:47:23Z</time>
      </trkpt>
      <trkpt lat="45.50085" lon="6.74071">
        <ele>2241.4</ele>
        <time>2021-08-12T09:47:24Z</time>
      </trkpt>
      <trkpt lat="45.50084" lon="6.74071">
        <ele>2241.6</ele>
        <time>2021-08-12T09:47:25Z</time>
      </trkpt>
      <trkpt lat="45.50084" lon="6.74072">
        <ele>2241.7</ele>
        <time>2021-08-12T09:47:26Z</time>
      </trkpt>
      <trkpt lat="45.50083" lon="6.74072">
        <ele>2241.9</ele>
        <time>2021-08-12T09:47:27Z</time>
      </trkpt>
      <trkpt lat="45.50082" lon="6.74072">
        <ele>2242</ele>
        <time>2021-08-12T09:47:28Z</time>
      </trkpt>
      <trkpt lat="45.50081" lon="6.74073">
        <ele>2242.2</ele>
        <time>2021-08-12T09:47:29Z</time>
      </trkpt>
      <trkpt lat="45.5008" lon="6.74073">
        <ele>2242.3</ele>
        <time>2021-08-12T09:47:30Z</time>
      </trkpt>
      <trkpt lat="45.5008" lon="6.74073">
        <ele>2242.4</ele>
        <time>2021-08-12T09:47:31Z</time>
      </trkpt>
      <trkpt lat="45.50079" lon="6.74073">
        <ele>2242.5</ele>
        <time>2021-08-12T09:47:32Z</time>
      </trkpt>
      <trkpt lat="45.50078" lon="6.74073">
        <ele>2242.6</ele>
        <time>2021-08-12T09:47:33Z</time>
      </trkpt>
      <trkpt lat="45.50078" lon="6.74073">
        <ele>2242.7</ele>
        <time>2021-08-12T09:47:34Z</time>
      </trkpt>
      <trkpt lat="45.50077" lon="6.74073">
        <ele>2242.8</ele>
        <time>2021-08-12T09:47:35Z</time>
      </trkpt>
      <trkpt lat="45.50077" lon="6.74072">
        <ele>2242.9</ele>
        <time>2021-08-12T09:47:36Z</time>
      </trkpt>
      <trkpt lat="45.50076" lon="6.74072">
        <ele>2243</ele>
        <time>2021-08-12T09:47:37Z</time>
      </trkpt>
      <trkpt lat="45.50076" lon="6.74072">
        <ele>2243.1</ele>
        <time>2021-08-12T09:47:38Z</time>
      </trkpt>
      <trkpt lat="45.50075" lon="6.74072">
        <ele>2243.2</ele>
        <time>2021-08-12T09:47:39Z</time>
      </trkpt>
      <trkpt lat="45.50075" lon="6.74072">
        <ele>2243.2</ele>
        <time>2021-08-12T09:47:40Z</time>
      </trkpt>
      <trkpt lat="45.50075" lon="6.74073">
        <ele>2243.3</ele>
        <time>2021-08-12T09:47:41Z</time>
      </trkpt>
      <trkpt lat="45.50075" lon="6.74073">
        <ele>2243.4</ele>
        <time>2021-08-12T09:47:42Z</time>
      </trkpt>
      <trkpt lat="45.50075" lon="6.74074">
        <ele>2243.4</ele>
        <time>2021-08-12T09:47:43Z</time>
      </trkpt>
      <trkpt lat="45.50075" lon="6.74075">
        <ele>2243.5</ele>
        <time>2021-08-12T09:47:44Z</time>
      </trkpt>
      <trkpt lat="45.50075" lon="6.74075">
        <ele>2243.6</ele>
        <time>2021-08-12T09:47:45Z</time>
      </trkpt>
      <trkpt lat="45.50075" lon="6.74076">
        <ele>2243.6</ele>
        <time>2021-08-12T09:47:46Z</time>
      </trkpt>
      <trkpt lat="45.50075" lon="6.74076">
        <ele>2243.7</ele>
        <time>2021-08-12T09:47:47Z</time>
      </trkpt>
      <trkpt lat="45.50075" lon="6.74076">
        <ele>2243.7</ele>
        <time>2021-08-12T09:47:48Z</time>
      </trkpt>
      <trkpt lat="45.50075" lon="6.74076">
        <ele>2243.7</ele>
        <time>2021-08-12T09:47:49Z</time>
      </trkpt>
      <trkpt lat="45.50075" lon="6.74077">
        <ele>2243.7</ele>
        <time>2021-08-12T09:47:50Z</time>
      </trkpt>
      <trkpt lat="45.50075" lon="6.74077">
        <ele>2243.7</ele>
        <time>2021-08-12T09:47:51Z</time>
      </trkpt>
      <trkpt lat="45.50075" lon="6.74077">
        <ele>2243.7</ele>
        <time>2021-08-12T09:47:52Z</time>
      </trkpt>
      <trkpt lat="45.50075" lon="6.74077">
        <ele>2243.7</ele>
        <time>2021-08-12T09:47:53Z</time>
      </trkpt>
      <trkpt lat="45.50075" lon="6.74077">
        <ele>2243.7</ele>
        <time>2021-08-12T09:47:54Z</time>
      </trkpt>
      <trkpt lat="45.50075" lon="6.74077">
        <ele>2243.7</ele>
        <time>2021-08-12T09:47:55Z</time>
      </trkpt>
      <trkpt lat="45.50075" lon="6.74077">
        <ele>2243.7</ele>
        <time>2021-08-12T09:47:56Z</time>
      </trkpt>
      <trkpt lat="45.50075" lon="6.74077">
        <ele>2243.7</ele>
        <time>2021-08-12T09:47:57Z</time>
      </trkpt>
      <trkpt lat="45.50075" lon="6.74077">
        <ele>2243.7</ele>
        <time>2021-08-12T09:47:58Z</time>
      </trkpt>
      <trkpt lat="45.50075" lon="6.74077">
        <ele>2243.7</ele>
        <time>2021-08-12T09:47:59Z</time>
      </trkpt>
      <trkpt lat="45.50075" lon="6.74077">
        <ele>2243.7</ele>
        <time>2021-08-12T09:48:00Z</time>
      </trkpt>
      <trkpt lat="45.50075" lon="6.74077">
        <ele>2243.7</ele>
        <time>2021-08-12T09:48:01Z</time>
      </trkpt>
      <trkpt lat="45.50075" lon="6.74077">
        <ele>2243.7</ele>
        <time>2021-08-12T09:48:02Z</time>
      </trkpt>
      <trkpt lat="45.50075" lon="6.74077">
        <ele>2243.7</ele>
        <time>2021-08-12T09:48:03Z</time>
      </trkpt>
      <trkpt lat="45.50075" lon="6.74077">
        <ele>2243.7</ele>
        <time>2021-08-12T09:48:04Z</time>
      </trkpt>
      <trkpt lat="45.50075" lon="6.74077">
        <ele>2243.7</ele>
        <time>2021-08-12T09:48:05Z</time>
      </trkpt>
      <trkpt lat="45.50075" lon="6.74077">
        <ele>2243.7</ele>
        <time>2021-08-12T09:48:06Z</time>
      </trkpt>
      <trkpt lat="45.50075" lon="6.74077">
        <ele>2243.7</ele>
        <time>2021-08-12T09:48:07Z</time>
      </trkpt>
      <trkpt lat="45.50075" lon="6.74077">
        <ele>2243.7</ele>
        <time>2021-08-12T09:48:08Z</time>
      </trkpt>
      <trkpt lat="45.50075" lon="6.74077">
        <ele>2243.7</ele>
        <time>2021-08-12T09:48:09Z</time>
      </trkpt>
      <trkpt lat="45.50075" lon="6.74077">
        <ele>2243.7</ele>
        <time>2021-08-12T09:48:10Z</time>
      </trkpt>
      <trkpt lat="45.50075" lon="6.74077">
        <ele>2243.7</ele>
        <time>2021-08-12T09:48:11Z</time>
      </trkpt>
      <trkpt lat="45.50075" lon="6.74077">
        <ele>2243.7</ele>
        <time>2021-08-12T09:48:12Z</time>
      </trkpt>
      <trkpt lat="45.50075" lon="6.74077">
        <ele>2243.7</ele>
        <time>2021-08-12T09:48:13Z</time>
      </trkpt>
      <trkpt lat="45.50075" lon="6.74076">
        <ele>2243.8</ele>
        <time>2021-08-12T09:48:14Z</time>
      </trkpt>
      <trkpt lat="45.50075" lon="6.74076">
        <ele>2243.8</ele>
        <time>2021-08-12T09:48:15Z</time>
      </trkpt>
      <trkpt lat="45.50075" lon="6.74076">
        <ele>2243.8</ele>
        <time>2021-08-12T09:48:16Z</time>
      </trkpt>
      <trkpt lat="45.50075" lon="6.74076">
        <ele>2243.8</ele>
        <time>2021-08-12T09:48:17Z</time>
      </trkpt>
      <trkpt lat="45.50075" lon="6.74076">
        <ele>2243.8</ele>
        <time>2021-08-12T09:48:18Z</time>
      </trkpt>
      <trkpt lat="45.50075" lon="6.74076">
        <ele>2243.8</ele>
        <time>2021-08-12T09:48:19Z</time>
      </trkpt>
      <trkpt lat="45.50075" lon="6.74077">
        <ele>2243.8</ele>
        <time>2021-08-12T09:48:20Z</time>
      </trkpt>
      <trkpt lat="45.50075" lon="6.74077">
        <ele>2243.8</ele>
        <time>2021-08-12T09:48:21Z</time>
      </trkpt>
      <trkpt lat="45.50075" lon="6.74077">
        <ele>2243.8</ele>
        <time>2021-08-12T09:48:22Z</time>
      </trkpt>
      <trkpt lat="45.50075" lon="6.74077">
        <ele>2243.8</ele>
        <time>2021-08-12T09:48:23Z</time>
      </trkpt>
      <trkpt lat="45.50075" lon="6.74077">
        <ele>2243.9</ele>
        <time>2021-08-12T09:48:24Z</time>
      </trkpt>
      <trkpt lat="45.50075" lon="6.74078">
        <ele>2243.9</ele>
        <time>2021-08-12T09:48:25Z</time>
      </trkpt>
      <trkpt lat="45.50075" lon="6.74078">
        <ele>2244</ele>
        <time>2021-08-12T09:48:26Z</time>
      </trkpt>
      <trkpt lat="45.50075" lon="6.74079">
        <ele>2244</ele>
        <time>2021-08-12T09:48:27Z</time>
      </trkpt>
      <trkpt lat="45.50075" lon="6.74079">
        <ele>2244.1</ele>
        <time>2021-08-12T09:48:28Z</time>
      </trkpt>
      <trkpt lat="45.50075" lon="6.7408">
        <ele>2244.1</ele>
        <time>2021-08-12T09:48:29Z</time>
      </trkpt>
      <trkpt lat="45.50075" lon="6.7408">
        <ele>2244.2</ele>
        <time>2021-08-12T09:48:30Z</time>
      </trkpt>
      <trkpt lat="45.50074" lon="6.74081">
        <ele>2244.3</ele>
        <time>2021-08-12T09:48:31Z</time>
      </trkpt>
      <trkpt lat="45.50074" lon="6.74082">
        <ele>2244.4</ele>
        <time>2021-08-12T09:48:32Z</time>
      </trkpt>
      <trkpt lat="45.50074" lon="6.74083">
        <ele>2244.5</ele>
        <time>2021-08-12T09:48:33Z</time>
      </trkpt>
      <trkpt lat="45.50073" lon="6.74083">
        <ele>2244.6</ele>
        <time>2021-08-12T09:48:34Z</time>
      </trkpt>
      <trkpt lat="45.50073" lon="6.74084">
        <ele>2244.7</ele>
        <time>2021-08-12T09:48:35Z</time>
      </trkpt>
      <trkpt lat="45.50072" lon="6.74085">
        <ele>2244.8</ele>
        <time>2021-08-12T09:48:36Z</time>
      </trkpt>
      <trkpt lat="45.50072" lon="6.74086">
        <ele>2244.9</ele>
        <time>2021-08-12T09:48:37Z</time>
      </trkpt>
      <trkpt lat="45.50071" lon="6.74087">
        <ele>2245.1</ele>
        <time>2021-08-12T09:48:38Z</time>
      </trkpt>
      <trkpt lat="45.5007" lon="6.74088">
        <ele>2245.2</ele>
        <time>2021-08-12T09:48:39Z</time>
      </trkpt>
      <trkpt lat="45.5007" lon="6.74089">
        <ele>2245.4</ele>
        <time>2021-08-12T09:48:40Z</time>
      </trkpt>
      <trkpt lat="45.50069" lon="6.7409">
        <ele>2245.5</ele>
        <time>2021-08-12T09:48:41Z</time>
      </trkpt>
      <trkpt lat="45.50069" lon="6.74091">
        <ele>2245.6</ele>
        <time>2021-08-12T09:48:42Z</time>
      </trkpt>
      <trkpt lat="45.50068" lon="6.74092">
        <ele>2245.7</ele>
        <time>2021-08-12T09:48:43Z</time>
      </trkpt>
      <trkpt lat="45.50068" lon="6.74093">
        <ele>2245.8</ele>
        <time>2021-08-12T09:48:44Z</time>
      </trkpt>
      <trkpt lat="45.50067" lon="6.74094">
        <ele>2246</ele>
        <time>2021-08-12T09:48:45Z</time>
      </trkpt>
      <trkpt lat="45.50067" lon="6.74095">
        <ele>2246.1</ele>
        <time>2021-08-12T09:48:46Z</time>
      </trkpt>
      <trkpt lat="45.50067" lon="6.74096">
        <ele>2246.2</ele>
        <time>2021-08-12T09:48:47Z</time>
      </trkpt>
      <trkpt lat="45.50066" lon="6.74096">
        <ele>2246.3</ele>
        <time>2021-08-12T09:48:48Z</time>
      </trkpt>
      <trkpt lat="45.50066" lon="6.74097">
        <ele>2246.4</ele>
        <time>2021-08-12T09:48:49Z</time>
      </trkpt>
      <trkpt lat="45.50066" lon="6.74098">
        <ele>2246.5</ele>
        <time>2021-08-12T09:48:50Z</time>
      </trkpt>
      <trkpt lat="45.50066" lon="6.741">
        <ele>2246.6</ele>
        <time>2021-08-12T09:48:51Z</time>
      </trkpt>
      <trkpt lat="45.50065" lon="6.74101">
        <ele>2246.7</ele>
        <time>2021-08-12T09:48:52Z</time>
      </trkpt>
      <trkpt lat="45.50065" lon="6.74102">
        <ele>2246.9</ele>
        <time>2021-08-12T09:48:53Z</time>
      </trkpt>
      <trkpt lat="45.50065" lon="6.74103">
        <ele>2247</ele>
        <time>2021-08-12T09:48:54Z</time>
      </trkpt>
      <trkpt lat="45.50065" lon="6.74104">
        <ele>2247.1</ele>
        <time>2021-08-12T09:48:55Z</time>
      </trkpt>
      <trkpt lat="45.50065" lon="6.74105">
        <ele>2247.2</ele>
        <time>2021-08-12T09:48:56Z</time>
      </trkpt>
      <trkpt lat="45.50065" lon="6.74106">
        <ele>2247.3</ele>
        <time>2021-08-12T09:48:57Z</time>
      </trkpt>
      <trkpt lat="45.50064" lon="6.74106">
        <ele>2247.3</ele>
        <time>2021-08-12T09:48:58Z</time>
      </trkpt>
      <trkpt lat="45.50064" lon="6.74106">
        <ele>2247.3</ele>
        <time>2021-08-12T09:48:59Z</time>
      </trkpt>
      <trkpt lat="45.50064" lon="6.74106">
        <ele>2247.4</ele>
        <time>2021-08-12T09:49:00Z</time>
      </trkpt>
      <trkpt lat="45.50064" lon="6.74106">
        <ele>2247.4</ele>
        <time>2021-08-12T09:49:01Z</time>
      </trkpt>
      <trkpt lat="45.50064" lon="6.74106">
        <ele>2247.4</ele>
        <time>2021-08-12T09:49:02Z</time>
      </trkpt>
      <trkpt lat="45.50064" lon="6.74107">
        <ele>2247.4</ele>
        <time>2021-08-12T09:49:03Z</time>
      </trkpt>
      <trkpt lat="45.50064" lon="6.74107">
        <ele>2247.5</ele>
        <time>2021-08-12T09:49:04Z</time>
      </trkpt>
      <trkpt lat="45.50063" lon="6.74108">
        <ele>2247.6</ele>
        <time>2021-08-12T09:49:05Z</time>
      </trkpt>
      <trkpt lat="45.50063" lon="6.74109">
        <ele>2247.7</ele>
        <time>2021-08-12T09:49:06Z</time>
      </trkpt>
      <trkpt lat="45.50063" lon="6.7411">
        <ele>2247.8</ele>
        <time>2021-08-12T09:49:07Z</time>
      </trkpt>
      <trkpt lat="45.50063" lon="6.7411">
        <ele>2247.9</ele>
        <time>2021-08-12T09:49:08Z</time>
      </trkpt>
      <trkpt lat="45.50062" lon="6.74111">
        <ele>2248</ele>
        <time>2021-08-12T09:49:09Z</time>
      </trkpt>
      <trkpt lat="45.50062" lon="6.74112">
        <ele>2248.1</ele>
        <time>2021-08-12T09:49:10Z</time>
      </trkpt>
      <trkpt lat="45.50062" lon="6.74113">
        <ele>2248.1</ele>
        <time>2021-08-12T09:49:11Z</time>
      </trkpt>
      <trkpt lat="45.50062" lon="6.74113">
        <ele>2248.2</ele>
        <time>2021-08-12T09:49:12Z</time>
      </trkpt>
      <trkpt lat="45.50061" lon="6.74114">
        <ele>2248.2</ele>
        <time>2021-08-12T09:49:13Z</time>
      </trkpt>
      <trkpt lat="45.50061" lon="6.74114">
        <ele>2248.3</ele>
        <time>2021-08-12T09:49:14Z</time>
      </trkpt>
      <trkpt lat="45.50061" lon="6.74114">
        <ele>2248.3</ele>
        <time>2021-08-12T09:49:15Z</time>
      </trkpt>
      <trkpt lat="45.50061" lon="6.74115">
        <ele>2248.4</ele>
        <time>2021-08-12T09:49:16Z</time>
      </trkpt>
      <trkpt lat="45.50061" lon="6.74115">
        <ele>2248.4</ele>
        <time>2021-08-12T09:49:17Z</time>
      </trkpt>
      <trkpt lat="45.50061" lon="6.74115">
        <ele>2248.4</ele>
        <time>2021-08-12T09:49:18Z</time>
      </trkpt>
      <trkpt lat="45.50061" lon="6.74115">
        <ele>2248.4</ele>
        <time>2021-08-12T09:49:19Z</time>
      </trkpt>
      <trkpt lat="45.5006" lon="6.74115">
        <ele>2248.5</ele>
        <time>2021-08-12T09:49:20Z</time>
      </trkpt>
      <trkpt lat="45.5006" lon="6.74116">
        <ele>2248.5</ele>
        <time>2021-08-12T09:49:21Z</time>
      </trkpt>
      <trkpt lat="45.5006" lon="6.74116">
        <ele>2248.5</ele>
        <time>2021-08-12T09:49:22Z</time>
      </trkpt>
      <trkpt lat="45.5006" lon="6.74116">
        <ele>2248.6</ele>
        <time>2021-08-12T09:49:23Z</time>
      </trkpt>
      <trkpt lat="45.5006" lon="6.74117">
        <ele>2248.6</ele>
        <time>2021-08-12T09:49:24Z</time>
      </trkpt>
      <trkpt lat="45.5006" lon="6.74117">
        <ele>2248.7</ele>
        <time>2021-08-12T09:49:25Z</time>
      </trkpt>
      <trkpt lat="45.50059" lon="6.74118">
        <ele>2248.8</ele>
        <time>2021-08-12T09:49:26Z</time>
      </trkpt>
      <trkpt lat="45.50059" lon="6.74119">
        <ele>2248.8</ele>
        <time>2021-08-12T09:49:27Z</time>
      </trkpt>
      <trkpt lat="45.50059" lon="6.74119">
        <ele>2248.9</ele>
        <time>2021-08-12T09:49:28Z</time>
      </trkpt>
      <trkpt lat="45.50059" lon="6.7412">
        <ele>2249</ele>
        <time>2021-08-12T09:49:29Z</time>
      </trkpt>
      <trkpt lat="45.50058" lon="6.7412">
        <ele>2249</ele>
        <time>2021-08-12T09:49:30Z</time>
      </trkpt>
      <trkpt lat="45.50058" lon="6.74121">
        <ele>2249.1</ele>
        <time>2021-08-12T09:49:31Z</time>
      </trkpt>
      <trkpt lat="45.50058" lon="6.74122">
        <ele>2249.2</ele>
        <time>2021-08-12T09:49:32Z</time>
      </trkpt>
      <trkpt lat="45.50057" lon="6.74122">
        <ele>2249.3</ele>
        <time>2021-08-12T09:49:33Z</time>
      </trkpt>
      <trkpt lat="45.50057" lon="6.74123">
        <ele>2249.4</ele>
        <time>2021-08-12T09:49:34Z</time>
      </trkpt>
      <trkpt lat="45.50056" lon="6.74124">
        <ele>2249.5</ele>
        <time>2021-08-12T09:49:35Z</time>
      </trkpt>
      <trkpt lat="45.50056" lon="6.74124">
        <ele>2249.6</ele>
        <time>2021-08-12T09:49:36Z</time>
      </trkpt>
      <trkpt lat="45.50055" lon="6.74125">
        <ele>2249.7</ele>
        <time>2021-08-12T09:49:37Z</time>
      </trkpt>
      <trkpt lat="45.50054" lon="6.74126">
        <ele>2249.8</ele>
        <time>2021-08-12T09:49:38Z</time>
      </trkpt>
      <trkpt lat="45.50054" lon="6.74126">
        <ele>2249.9</ele>
        <time>2021-08-12T09:49:39Z</time>
      </trkpt>
      <trkpt lat="45.50053" lon="6.74127">
        <ele>2250</ele>
        <time>2021-08-12T09:49:40Z</time>
      </trkpt>
      <trkpt lat="45.50052" lon="6.74127">
        <ele>2250.1</ele>
        <time>2021-08-12T09:49:41Z</time>
      </trkpt>
      <trkpt lat="45.50052" lon="6.74128">
        <ele>2250.2</ele>
        <time>2021-08-12T09:49:42Z</time>
      </trkpt>
      <trkpt lat="45.50051" lon="6.74129">
        <ele>2250.3</ele>
        <time>2021-08-12T09:49:43Z</time>
      </trkpt>
      <trkpt lat="45.5005" lon="6.74129">
        <ele>2250.4</ele>
        <time>2021-08-12T09:49:44Z</time>
      </trkpt>
      <trkpt lat="45.5005" lon="6.7413">
        <ele>2250.5</ele>
        <time>2021-08-12T09:49:45Z</time>
      </trkpt>
      <trkpt lat="45.50049" lon="6.7413">
        <ele>2250.6</ele>
        <time>2021-08-12T09:49:46Z</time>
      </trkpt>
      <trkpt lat="45.50048" lon="6.74131">
        <ele>2250.7</ele>
        <time>2021-08-12T09:49:47Z</time>
      </trkpt>
      <trkpt lat="45.50047" lon="6.74131">
        <ele>2250.8</ele>
        <time>2021-08-12T09:49:48Z</time>
      </trkpt>
      <trkpt lat="45.50047" lon="6.74132">
        <ele>2250.9</ele>
        <time>2021-08-12T09:49:49Z</time>
      </trkpt>
      <trkpt lat="45.50046" lon="6.74132">
        <ele>2251</ele>
        <time>2021-08-12T09:49:50Z</time>
      </trkpt>
      <trkpt lat="45.50045" lon="6.74132">
        <ele>2251</ele>
        <time>2021-08-12T09:49:51Z</time>
      </trkpt>
      <trkpt lat="45.50044" lon="6.74133">
        <ele>2251.1</ele>
        <time>2021-08-12T09:49:52Z</time>
      </trkpt>
      <trkpt lat="45.50044" lon="6.74133">
        <ele>2251.2</ele>
        <time>2021-08-12T09:49:53Z</time>
      </trkpt>
      <trkpt lat="45.50043" lon="6.74133">
        <ele>2251.3</ele>
        <time>2021-08-12T09:49:54Z</time>
      </trkpt>
      <trkpt lat="45.50042" lon="6.74134">
        <ele>2251.4</ele>
        <time>2021-08-12T09:49:55Z</time>
      </trkpt>
      <trkpt lat="45.50041" lon="6.74134">
        <ele>2251.5</ele>
        <time>2021-08-12T09:49:56Z</time>
      </trkpt>
      <trkpt lat="45.5004" lon="6.74134">
        <ele>2251.6</ele>
        <time>2021-08-12T09:49:57Z</time>
      </trkpt>
      <trkpt lat="45.5004" lon="6.74134">
        <ele>2251.7</ele>
        <time>2021-08-12T09:49:58Z</time>
      </trkpt>
      <trkpt lat="45.50039" lon="6.74135">
        <ele>2251.8</ele>
        <time>2021-08-12T09:49:59Z</time>
      </trkpt>
      <trkpt lat="45.50038" lon="6.74135">
        <ele>2251.8</ele>
        <time>2021-08-12T09:50:00Z</time>
      </trkpt>
      <trkpt lat="45.50037" lon="6.74135">
        <ele>2251.9</ele>
        <time>2021-08-12T09:50:01Z</time>
      </trkpt>
      <trkpt lat="45.50037" lon="6.74135">
        <ele>2252</ele>
        <time>2021-08-12T09:50:02Z</time>
      </trkpt>
      <trkpt lat="45.50036" lon="6.74136">
        <ele>2252.1</ele>
        <time>2021-08-12T09:50:03Z</time>
      </trkpt>
      <trkpt lat="45.50035" lon="6.74136">
        <ele>2252.2</ele>
        <time>2021-08-12T09:50:04Z</time>
      </trkpt>
      <trkpt lat="45.50034" lon="6.74136">
        <ele>2252.3</ele>
        <time>2021-08-12T09:50:05Z</time>
      </trkpt>
      <trkpt lat="45.50034" lon="6.74136">
        <ele>2252.4</ele>
        <time>2021-08-12T09:50:06Z</time>
      </trkpt>
      <trkpt lat="45.50033" lon="6.74137">
        <ele>2252.5</ele>
        <time>2021-08-12T09:50:07Z</time>
      </trkpt>
      <trkpt lat="45.50032" lon="6.74137">
        <ele>2252.5</ele>
        <time>2021-08-12T09:50:08Z</time>
      </trkpt>
      <trkpt lat="45.50031" lon="6.74137">
        <ele>2252.6</ele>
        <time>2021-08-12T09:50:09Z</time>
      </trkpt>
      <trkpt lat="45.50031" lon="6.74138">
        <ele>2252.7</ele>
        <time>2021-08-12T09:50:10Z</time>
      </trkpt>
      <trkpt lat="45.5003" lon="6.74138">
        <ele>2252.8</ele>
        <time>2021-08-12T09:50:11Z</time>
      </trkpt>
      <trkpt lat="45.50029" lon="6.74139">
        <ele>2252.9</ele>
        <time>2021-08-12T09:50:12Z</time>
      </trkpt>
      <trkpt lat="45.50028" lon="6.74139">
        <ele>2253</ele>
        <time>2021-08-12T09:50:13Z</time>
      </trkpt>
      <trkpt lat="45.50028" lon="6.7414">
        <ele>2253.1</ele>
        <time>2021-08-12T09:50:14Z</time>
      </trkpt>
      <trkpt lat="45.50027" lon="6.7414">
        <ele>2253.2</ele>
        <time>2021-08-12T09:50:15Z</time>
      </trkpt>
      <trkpt lat="45.50026" lon="6.74141">
        <ele>2253.3</ele>
        <time>2021-08-12T09:50:16Z</time>
      </trkpt>
      <trkpt lat="45.50025" lon="6.74141">
        <ele>2253.4</ele>
        <time>2021-08-12T09:50:17Z</time>
      </trkpt>
      <trkpt lat="45.50025" lon="6.74142">
        <ele>2253.5</ele>
        <time>2021-08-12T09:50:18Z</time>
      </trkpt>
      <trkpt lat="45.50024" lon="6.74142">
        <ele>2253.6</ele>
        <time>2021-08-12T09:50:19Z</time>
      </trkpt>
      <trkpt lat="45.50023" lon="6.74143">
        <ele>2253.7</ele>
        <time>2021-08-12T09:50:20Z</time>
      </trkpt>
      <trkpt lat="45.50022" lon="6.74143">
        <ele>2253.8</ele>
        <time>2021-08-12T09:50:21Z</time>
      </trkpt>
      <trkpt lat="45.50022" lon="6.74144">
        <ele>2253.9</ele>
        <time>2021-08-12T09:50:22Z</time>
      </trkpt>
      <trkpt lat="45.50021" lon="6.74144">
        <ele>2254</ele>
        <time>2021-08-12T09:50:23Z</time>
      </trkpt>
      <trkpt lat="45.5002" lon="6.74145">
        <ele>2254.1</ele>
        <time>2021-08-12T09:50:24Z</time>
      </trkpt>
      <trkpt lat="45.5002" lon="6.74145">
        <ele>2254.2</ele>
        <time>2021-08-12T09:50:25Z</time>
      </trkpt>
      <trkpt lat="45.50019" lon="6.74146">
        <ele>2254.3</ele>
        <time>2021-08-12T09:50:26Z</time>
      </trkpt>
      <trkpt lat="45.50018" lon="6.74146">
        <ele>2254.4</ele>
        <time>2021-08-12T09:50:27Z</time>
      </trkpt>
      <trkpt lat="45.50018" lon="6.74147">
        <ele>2254.4</ele>
        <time>2021-08-12T09:50:28Z</time>
      </trkpt>
      <trkpt lat="45.50017" lon="6.74147">
        <ele>2254.5</ele>
        <time>2021-08-12T09:50:29Z</time>
      </trkpt>
      <trkpt lat="45.50017" lon="6.74148">
        <ele>2254.6</ele>
        <time>2021-08-12T09:50:30Z</time>
      </trkpt>
      <trkpt lat="45.50016" lon="6.74148">
        <ele>2254.7</ele>
        <time>2021-08-12T09:50:31Z</time>
      </trkpt>
      <trkpt lat="45.50016" lon="6.74148">
        <ele>2254.7</ele>
        <time>2021-08-12T09:50:32Z</time>
      </trkpt>
      <trkpt lat="45.50015" lon="6.74148">
        <ele>2254.8</ele>
        <time>2021-08-12T09:50:33Z</time>
      </trkpt>
      <trkpt lat="45.50015" lon="6.74149">
        <ele>2254.9</ele>
        <time>2021-08-12T09:50:34Z</time>
      </trkpt>
      <trkpt lat="45.50014" lon="6.74149">
        <ele>2254.9</ele>
        <time>2021-08-12T09:50:35Z</time>
      </trkpt>
      <trkpt lat="45.50014" lon="6.74149">
        <ele>2255</ele>
        <time>2021-08-12T09:50:36Z</time>
      </trkpt>
      <trkpt lat="45.50014" lon="6.74149">
        <ele>2255</ele>
        <time>2021-08-12T09:50:37Z</time>
      </trkpt>
      <trkpt lat="45.50013" lon="6.74149">
        <ele>2255.1</ele>
        <time>2021-08-12T09:50:38Z</time>
      </trkpt>
      <trkpt lat="45.50013" lon="6.74149">
        <ele>2255.1</ele>
        <time>2021-08-12T09:50:39Z</time>
      </trkpt>
      <trkpt lat="45.50013" lon="6.74149">
        <ele>2255.1</ele>
        <time>2021-08-12T09:50:40Z</time>
      </trkpt>
      <trkpt lat="45.50013" lon="6.74149">
        <ele>2255.1</ele>
        <time>2021-08-12T09:50:41Z</time>
      </trkpt>
      <trkpt lat="45.50013" lon="6.74149">
        <ele>2255.1</ele>
        <time>2021-08-12T09:50:42Z</time>
      </trkpt>
      <trkpt lat="45.50013" lon="6.74149">
        <ele>2255.1</ele>
        <time>2021-08-12T09:50:43Z</time>
      </trkpt>
      <trkpt lat="45.50013" lon="6.74149">
        <ele>2255.1</ele>
        <time>2021-08-12T09:50:44Z</time>
      </trkpt>
      <trkpt lat="45.50013" lon="6.74149">
        <ele>2255.1</ele>
        <time>2021-08-12T09:50:45Z</time>
      </trkpt>
      <trkpt lat="45.50013" lon="6.74149">
        <ele>2255.2</ele>
        <time>2021-08-12T09:50:46Z</time>
      </trkpt>
      <trkpt lat="45.50012" lon="6.74149">
        <ele>2255.2</ele>
        <time>2021-08-12T09:50:47Z</time>
      </trkpt>
      <trkpt lat="45.50012" lon="6.74149">
        <ele>2255.2</ele>
        <time>2021-08-12T09:50:48Z</time>
      </trkpt>
      <trkpt lat="45.50012" lon="6.7415">
        <ele>2255.3</ele>
        <time>2021-08-12T09:50:49Z</time>
      </trkpt>
      <trkpt lat="45.50011" lon="6.7415">
        <ele>2255.4</ele>
        <time>2021-08-12T09:50:50Z</time>
      </trkpt>
      <trkpt lat="45.5001" lon="6.7415">
        <ele>2255.5</ele>
        <time>2021-08-12T09:50:51Z</time>
      </trkpt>
      <trkpt lat="45.50009" lon="6.74151">
        <ele>2255.6</ele>
        <time>2021-08-12T09:50:52Z</time>
      </trkpt>
      <trkpt lat="45.50009" lon="6.74151">
        <ele>2255.7</ele>
        <time>2021-08-12T09:50:53Z</time>
      </trkpt>
      <trkpt lat="45.50008" lon="6.74152">
        <ele>2255.8</ele>
        <time>2021-08-12T09:50:54Z</time>
      </trkpt>
      <trkpt lat="45.50007" lon="6.74153">
        <ele>2255.9</ele>
        <time>2021-08-12T09:50:55Z</time>
      </trkpt>
      <trkpt lat="45.50006" lon="6.74153">
        <ele>2256</ele>
        <time>2021-08-12T09:50:56Z</time>
      </trkpt>
      <trkpt lat="45.50005" lon="6.74154">
        <ele>2256.1</ele>
        <time>2021-08-12T09:50:57Z</time>
      </trkpt>
      <trkpt lat="45.50005" lon="6.74154">
        <ele>2256.2</ele>
        <time>2021-08-12T09:50:58Z</time>
      </trkpt>
      <trkpt lat="45.50004" lon="6.74154">
        <ele>2256.3</ele>
        <time>2021-08-12T09:50:59Z</time>
      </trkpt>
      <trkpt lat="45.50004" lon="6.74155">
        <ele>2256.4</ele>
        <time>2021-08-12T09:51:00Z</time>
      </trkpt>
      <trkpt lat="45.50003" lon="6.74155">
        <ele>2256.4</ele>
        <time>2021-08-12T09:51:01Z</time>
      </trkpt>
      <trkpt lat="45.50003" lon="6.74155">
        <ele>2256.5</ele>
        <time>2021-08-12T09:51:02Z</time>
      </trkpt>
      <trkpt lat="45.50003" lon="6.74155">
        <ele>2256.5</ele>
        <time>2021-08-12T09:51:03Z</time>
      </trkpt>
      <trkpt lat="45.50003" lon="6.74155">
        <ele>2256.5</ele>
        <time>2021-08-12T09:51:04Z</time>
      </trkpt>
      <trkpt lat="45.50003" lon="6.74155">
        <ele>2256.5</ele>
        <time>2021-08-12T09:51:05Z</time>
      </trkpt>
      <trkpt lat="45.50003" lon="6.74155">
        <ele>2256.5</ele>
        <time>2021-08-12T09:51:06Z</time>
      </trkpt>
      <trkpt lat="45.50002" lon="6.74155">
        <ele>2256.6</ele>
        <time>2021-08-12T09:51:07Z</time>
      </trkpt>
      <trkpt lat="45.50002" lon="6.74155">
        <ele>2256.6</ele>
        <time>2021-08-12T09:51:08Z</time>
      </trkpt>
      <trkpt lat="45.50002" lon="6.74155">
        <ele>2256.7</ele>
        <time>2021-08-12T09:51:09Z</time>
      </trkpt>
      <trkpt lat="45.50001" lon="6.74155">
        <ele>2256.7</ele>
        <time>2021-08-12T09:51:10Z</time>
      </trkpt>
      <trkpt lat="45.50001" lon="6.74155">
        <ele>2256.8</ele>
        <time>2021-08-12T09:51:11Z</time>
      </trkpt>
      <trkpt lat="45.5" lon="6.74155">
        <ele>2256.9</ele>
        <time>2021-08-12T09:51:12Z</time>
      </trkpt>
      <trkpt lat="45.49999" lon="6.74154">
        <ele>2257</ele>
        <time>2021-08-12T09:51:13Z</time>
      </trkpt>
      <trkpt lat="45.49998" lon="6.74154">
        <ele>2257.1</ele>
        <time>2021-08-12T09:51:14Z</time>
      </trkpt>
      <trkpt lat="45.49998" lon="6.74154">
        <ele>2257.2</ele>
        <time>2021-08-12T09:51:15Z</time>
      </trkpt>
      <trkpt lat="45.49997" lon="6.74154">
        <ele>2257.3</ele>
        <time>2021-08-12T09:51:16Z</time>
      </trkpt>
      <trkpt lat="45.49996" lon="6.74154">
        <ele>2257.4</ele>
        <time>2021-08-12T09:51:17Z</time>
      </trkpt>
      <trkpt lat="45.49995" lon="6.74154">
        <ele>2257.5</ele>
        <time>2021-08-12T09:51:18Z</time>
      </trkpt>
      <trkpt lat="45.49995" lon="6.74154">
        <ele>2257.6</ele>
        <time>2021-08-12T09:51:19Z</time>
      </trkpt>
      <trkpt lat="45.49994" lon="6.74154">
        <ele>2257.7</ele>
        <time>2021-08-12T09:51:20Z</time>
      </trkpt>
      <trkpt lat="45.49993" lon="6.74155">
        <ele>2257.8</ele>
        <time>2021-08-12T09:51:21Z</time>
      </trkpt>
      <trkpt lat="45.49993" lon="6.74155">
        <ele>2257.9</ele>
        <time>2021-08-12T09:51:22Z</time>
      </trkpt>
      <trkpt lat="45.49992" lon="6.74155">
        <ele>2257.9</ele>
        <time>2021-08-12T09:51:23Z</time>
      </trkpt>
      <trkpt lat="45.49992" lon="6.74155">
        <ele>2258</ele>
        <time>2021-08-12T09:51:24Z</time>
      </trkpt>
      <trkpt lat="45.49992" lon="6.74156">
        <ele>2258.1</ele>
        <time>2021-08-12T09:51:25Z</time>
      </trkpt>
      <trkpt lat="45.49991" lon="6.74156">
        <ele>2258.1</ele>
        <time>2021-08-12T09:51:26Z</time>
      </trkpt>
      <trkpt lat="45.49991" lon="6.74156">
        <ele>2258.2</ele>
        <time>2021-08-12T09:51:27Z</time>
      </trkpt>
      <trkpt lat="45.4999" lon="6.74157">
        <ele>2258.3</ele>
        <time>2021-08-12T09:51:28Z</time>
      </trkpt>
      <trkpt lat="45.4999" lon="6.74157">
        <ele>2258.3</ele>
        <time>2021-08-12T09:51:29Z</time>
      </trkpt>
      <trkpt lat="45.4999" lon="6.74158">
        <ele>2258.4</ele>
        <time>2021-08-12T09:51:30Z</time>
      </trkpt>
      <trkpt lat="45.49989" lon="6.74159">
        <ele>2258.5</ele>
        <time>2021-08-12T09:51:31Z</time>
      </trkpt>
      <trkpt lat="45.49989" lon="6.74159">
        <ele>2258.6</ele>
        <time>2021-08-12T09:51:32Z</time>
      </trkpt>
      <trkpt lat="45.49988" lon="6.7416">
        <ele>2258.7</ele>
        <time>2021-08-12T09:51:33Z</time>
      </trkpt>
      <trkpt lat="45.49988" lon="6.74161">
        <ele>2258.8</ele>
        <time>2021-08-12T09:51:34Z</time>
      </trkpt>
      <trkpt lat="45.49988" lon="6.74162">
        <ele>2258.9</ele>
        <time>2021-08-12T09:51:35Z</time>
      </trkpt>
      <trkpt lat="45.49987" lon="6.74163">
        <ele>2259</ele>
        <time>2021-08-12T09:51:36Z</time>
      </trkpt>
      <trkpt lat="45.49987" lon="6.74163">
        <ele>2259.1</ele>
        <time>2021-08-12T09:51:37Z</time>
      </trkpt>
      <trkpt lat="45.49987" lon="6.74164">
        <ele>2259.2</ele>
        <time>2021-08-12T09:51:38Z</time>
      </trkpt>
      <trkpt lat="45.49986" lon="6.74165">
        <ele>2259.3</ele>
        <time>2021-08-12T09:51:39Z</time>
      </trkpt>
      <trkpt lat="45.49986" lon="6.74166">
        <ele>2259.5</ele>
        <time>2021-08-12T09:51:40Z</time>
      </trkpt>
      <trkpt lat="45.49985" lon="6.74167">
        <ele>2259.6</ele>
        <time>2021-08-12T09:51:41Z</time>
      </trkpt>
      <trkpt lat="45.49985" lon="6.74168">
        <ele>2259.7</ele>
        <time>2021-08-12T09:51:42Z</time>
      </trkpt>
      <trkpt lat="45.49984" lon="6.74169">
        <ele>2259.8</ele>
        <time>2021-08-12T09:51:43Z</time>
      </trkpt>
      <trkpt lat="45.49984" lon="6.7417">
        <ele>2259.9</ele>
        <time>2021-08-12T09:51:44Z</time>
      </trkpt>
      <trkpt lat="45.49984" lon="6.74171">
        <ele>2260.1</ele>
        <time>2021-08-12T09:51:45Z</time>
      </trkpt>
      <trkpt lat="45.49983" lon="6.74172">
        <ele>2260.2</ele>
        <time>2021-08-12T09:51:46Z</time>
      </trkpt>
      <trkpt lat="45.49983" lon="6.74173">
        <ele>2260.3</ele>
        <time>2021-08-12T09:51:47Z</time>
      </trkpt>
      <trkpt lat="45.49982" lon="6.74174">
        <ele>2260.5</ele>
        <time>2021-08-12T09:51:48Z</time>
      </trkpt>
      <trkpt lat="45.49982" lon="6.74175">
        <ele>2260.6</ele>
        <time>2021-08-12T09:51:49Z</time>
      </trkpt>
      <trkpt lat="45.49981" lon="6.74176">
        <ele>2260.8</ele>
        <time>2021-08-12T09:51:50Z</time>
      </trkpt>
      <trkpt lat="45.49981" lon="6.74177">
        <ele>2260.9</ele>
        <time>2021-08-12T09:51:51Z</time>
      </trkpt>
      <trkpt lat="45.4998" lon="6.74177">
        <ele>2261</ele>
        <time>2021-08-12T09:51:52Z</time>
      </trkpt>
      <trkpt lat="45.4998" lon="6.74178">
        <ele>2261.2</ele>
        <time>2021-08-12T09:51:53Z</time>
      </trkpt>
      <trkpt lat="45.49979" lon="6.74179">
        <ele>2261.3</ele>
        <time>2021-08-12T09:51:54Z</time>
      </trkpt>
      <trkpt lat="45.49979" lon="6.7418">
        <ele>2261.4</ele>
        <time>2021-08-12T09:51:55Z</time>
      </trkpt>
      <trkpt lat="45.49978" lon="6.74181">
        <ele>2261.5</ele>
        <time>2021-08-12T09:51:56Z</time>
      </trkpt>
      <trkpt lat="45.49977" lon="6.74182">
        <ele>2261.7</ele>
        <time>2021-08-12T09:51:57Z</time>
      </trkpt>
      <trkpt lat="45.49977" lon="6.74182">
        <ele>2261.8</ele>
        <time>2021-08-12T09:51:58Z</time>
      </trkpt>
      <trkpt lat="45.49976" lon="6.74183">
        <ele>2261.9</ele>
        <time>2021-08-12T09:51:59Z</time>
      </trkpt>
      <trkpt lat="45.49976" lon="6.74184">
        <ele>2262</ele>
        <time>2021-08-12T09:52:00Z</time>
      </trkpt>
      <trkpt lat="45.49975" lon="6.74184">
        <ele>2262.2</ele>
        <time>2021-08-12T09:52:01Z</time>
      </trkpt>
      <trkpt lat="45.49975" lon="6.74185">
        <ele>2262.3</ele>
        <time>2021-08-12T09:52:02Z</time>
      </trkpt>
      <trkpt lat="45.49974" lon="6.74186">
        <ele>2262.4</ele>
        <time>2021-08-12T09:52:03Z</time>
      </trkpt>
      <trkpt lat="45.49974" lon="6.74186">
        <ele>2262.5</ele>
        <time>2021-08-12T09:52:04Z</time>
      </trkpt>
      <trkpt lat="45.49973" lon="6.74187">
        <ele>2262.6</ele>
        <time>2021-08-12T09:52:05Z</time>
      </trkpt>
      <trkpt lat="45.49973" lon="6.74187">
        <ele>2262.7</ele>
        <time>2021-08-12T09:52:06Z</time>
      </trkpt>
      <trkpt lat="45.49972" lon="6.74188">
        <ele>2262.8</ele>
        <time>2021-08-12T09:52:07Z</time>
      </trkpt>
      <trkpt lat="45.49971" lon="6.74188">
        <ele>2262.9</ele>
        <time>2021-08-12T09:52:08Z</time>
      </trkpt>
      <trkpt lat="45.49971" lon="6.74188">
        <ele>2263</ele>
        <time>2021-08-12T09:52:09Z</time>
      </trkpt>
      <trkpt lat="45.49971" lon="6.74189">
        <ele>2263.1</ele>
        <time>2021-08-12T09:52:10Z</time>
      </trkpt>
      <trkpt lat="45.4997" lon="6.74189">
        <ele>2263.2</ele>
        <time>2021-08-12T09:52:11Z</time>
      </trkpt>
      <trkpt lat="45.4997" lon="6.74189">
        <ele>2263.2</ele>
        <time>2021-08-12T09:52:12Z</time>
      </trkpt>
      <trkpt lat="45.49969" lon="6.7419">
        <ele>2263.3</ele>
        <time>2021-08-12T09:52:13Z</time>
      </trkpt>
      <trkpt lat="45.49969" lon="6.7419">
        <ele>2263.4</ele>
        <time>2021-08-12T09:52:14Z</time>
      </trkpt>
      <trkpt lat="45.49969" lon="6.7419">
        <ele>2263.4</ele>
        <time>2021-08-12T09:52:15Z</time>
      </trkpt>
      <trkpt lat="45.49968" lon="6.7419">
        <ele>2263.5</ele>
        <time>2021-08-12T09:52:16Z</time>
      </trkpt>
      <trkpt lat="45.49968" lon="6.7419">
        <ele>2263.5</ele>
        <time>2021-08-12T09:52:17Z</time>
      </trkpt>
      <trkpt lat="45.49968" lon="6.7419">
        <ele>2263.5</ele>
        <time>2021-08-12T09:52:18Z</time>
      </trkpt>
      <trkpt lat="45.49968" lon="6.7419">
        <ele>2263.5</ele>
        <time>2021-08-12T09:52:19Z</time>
      </trkpt>
      <trkpt lat="45.49968" lon="6.7419">
        <ele>2263.6</ele>
        <time>2021-08-12T09:52:20Z</time>
      </trkpt>
      <trkpt lat="45.49968" lon="6.7419">
        <ele>2263.6</ele>
        <time>2021-08-12T09:52:21Z</time>
      </trkpt>
      <trkpt lat="45.49968" lon="6.7419">
        <ele>2263.6</ele>
        <time>2021-08-12T09:52:22Z</time>
      </trkpt>
      <trkpt lat="45.49967" lon="6.7419">
        <ele>2263.6</ele>
        <time>2021-08-12T09:52:23Z</time>
      </trkpt>
      <trkpt lat="45.49967" lon="6.7419">
        <ele>2263.6</ele>
        <time>2021-08-12T09:52:24Z</time>
      </trkpt>
      <trkpt lat="45.49967" lon="6.7419">
        <ele>2263.6</ele>
        <time>2021-08-12T09:52:25Z</time>
      </trkpt>
      <trkpt lat="45.49967" lon="6.7419">
        <ele>2263.7</ele>
        <time>2021-08-12T09:52:26Z</time>
      </trkpt>
      <trkpt lat="45.49967" lon="6.7419">
        <ele>2263.7</ele>
        <time>2021-08-12T09:52:27Z</time>
      </trkpt>
      <trkpt lat="45.49967" lon="6.7419">
        <ele>2263.8</ele>
        <time>2021-08-12T09:52:28Z</time>
      </trkpt>
      <trkpt lat="45.49966" lon="6.7419">
        <ele>2263.8</ele>
        <time>2021-08-12T09:52:29Z</time>
      </trkpt>
      <trkpt lat="45.49966" lon="6.7419">
        <ele>2263.9</ele>
        <time>2021-08-12T09:52:30Z</time>
      </trkpt>
      <trkpt lat="45.49966" lon="6.7419">
        <ele>2263.9</ele>
        <time>2021-08-12T09:52:31Z</time>
      </trkpt>
      <trkpt lat="45.49965" lon="6.7419">
        <ele>2264</ele>
        <time>2021-08-12T09:52:32Z</time>
      </trkpt>
      <trkpt lat="45.49965" lon="6.7419">
        <ele>2264</ele>
        <time>2021-08-12T09:52:33Z</time>
      </trkpt>
      <trkpt lat="45.49964" lon="6.7419">
        <ele>2264.1</ele>
        <time>2021-08-12T09:52:34Z</time>
      </trkpt>
      <trkpt lat="45.49964" lon="6.7419">
        <ele>2264.2</ele>
        <time>2021-08-12T09:52:35Z</time>
      </trkpt>
      <trkpt lat="45.49963" lon="6.74191">
        <ele>2264.3</ele>
        <time>2021-08-12T09:52:36Z</time>
      </trkpt>
      <trkpt lat="45.49963" lon="6.74191">
        <ele>2264.4</ele>
        <time>2021-08-12T09:52:37Z</time>
      </trkpt>
      <trkpt lat="45.49962" lon="6.74191">
        <ele>2264.4</ele>
        <time>2021-08-12T09:52:38Z</time>
      </trkpt>
      <trkpt lat="45.49962" lon="6.74191">
        <ele>2264.5</ele>
        <time>2021-08-12T09:52:39Z</time>
      </trkpt>
      <trkpt lat="45.49961" lon="6.74191">
        <ele>2264.6</ele>
        <time>2021-08-12T09:52:40Z</time>
      </trkpt>
      <trkpt lat="45.49961" lon="6.74191">
        <ele>2264.7</ele>
        <time>2021-08-12T09:52:41Z</time>
      </trkpt>
      <trkpt lat="45.4996" lon="6.74191">
        <ele>2264.8</ele>
        <time>2021-08-12T09:52:42Z</time>
      </trkpt>
      <trkpt lat="45.4996" lon="6.74191">
        <ele>2264.9</ele>
        <time>2021-08-12T09:52:43Z</time>
      </trkpt>
      <trkpt lat="45.49959" lon="6.74192">
        <ele>2265</ele>
        <time>2021-08-12T09:52:44Z</time>
      </trkpt>
      <trkpt lat="45.49958" lon="6.74192">
        <ele>2265</ele>
        <time>2021-08-12T09:52:45Z</time>
      </trkpt>
      <trkpt lat="45.49958" lon="6.74192">
        <ele>2265.1</ele>
        <time>2021-08-12T09:52:46Z</time>
      </trkpt>
      <trkpt lat="45.49957" lon="6.74192">
        <ele>2265.2</ele>
        <time>2021-08-12T09:52:47Z</time>
      </trkpt>
      <trkpt lat="45.49956" lon="6.74193">
        <ele>2265.3</ele>
        <time>2021-08-12T09:52:48Z</time>
      </trkpt>
      <trkpt lat="45.49956" lon="6.74193">
        <ele>2265.4</ele>
        <time>2021-08-12T09:52:49Z</time>
      </trkpt>
      <trkpt lat="45.49955" lon="6.74193">
        <ele>2265.5</ele>
        <time>2021-08-12T09:52:50Z</time>
      </trkpt>
      <trkpt lat="45.49954" lon="6.74193">
        <ele>2265.6</ele>
        <time>2021-08-12T09:52:51Z</time>
      </trkpt>
      <trkpt lat="45.49954" lon="6.74194">
        <ele>2265.7</ele>
        <time>2021-08-12T09:52:52Z</time>
      </trkpt>
      <trkpt lat="45.49953" lon="6.74194">
        <ele>2265.9</ele>
        <time>2021-08-12T09:52:53Z</time>
      </trkpt>
      <trkpt lat="45.49952" lon="6.74195">
        <ele>2266</ele>
        <time>2021-08-12T09:52:54Z</time>
      </trkpt>
      <trkpt lat="45.49952" lon="6.74195">
        <ele>2266.1</ele>
        <time>2021-08-12T09:52:55Z</time>
      </trkpt>
      <trkpt lat="45.49951" lon="6.74195">
        <ele>2266.2</ele>
        <time>2021-08-12T09:52:56Z</time>
      </trkpt>
      <trkpt lat="45.4995" lon="6.74196">
        <ele>2266.3</ele>
        <time>2021-08-12T09:52:57Z</time>
      </trkpt>
      <trkpt lat="45.49949" lon="6.74196">
        <ele>2266.4</ele>
        <time>2021-08-12T09:52:58Z</time>
      </trkpt>
      <trkpt lat="45.49949" lon="6.74197">
        <ele>2266.5</ele>
        <time>2021-08-12T09:52:59Z</time>
      </trkpt>
      <trkpt lat="45.49948" lon="6.74197">
        <ele>2266.6</ele>
        <time>2021-08-12T09:53:00Z</time>
      </trkpt>
      <trkpt lat="45.49947" lon="6.74198">
        <ele>2266.7</ele>
        <time>2021-08-12T09:53:01Z</time>
      </trkpt>
      <trkpt lat="45.49947" lon="6.74198">
        <ele>2266.8</ele>
        <time>2021-08-12T09:53:02Z</time>
      </trkpt>
      <trkpt lat="45.49946" lon="6.74199">
        <ele>2266.9</ele>
        <time>2021-08-12T09:53:03Z</time>
      </trkpt>
      <trkpt lat="45.49945" lon="6.74199">
        <ele>2267</ele>
        <time>2021-08-12T09:53:04Z</time>
      </trkpt>
      <trkpt lat="45.49945" lon="6.742">
        <ele>2267.1</ele>
        <time>2021-08-12T09:53:05Z</time>
      </trkpt>
      <trkpt lat="45.49944" lon="6.74201">
        <ele>2267.2</ele>
        <time>2021-08-12T09:53:06Z</time>
      </trkpt>
      <trkpt lat="45.49943" lon="6.74201">
        <ele>2267.3</ele>
        <time>2021-08-12T09:53:07Z</time>
      </trkpt>
      <trkpt lat="45.49943" lon="6.74202">
        <ele>2267.4</ele>
        <time>2021-08-12T09:53:08Z</time>
      </trkpt>
      <trkpt lat="45.49942" lon="6.74202">
        <ele>2267.5</ele>
        <time>2021-08-12T09:53:09Z</time>
      </trkpt>
      <trkpt lat="45.49942" lon="6.74203">
        <ele>2267.6</ele>
        <time>2021-08-12T09:53:10Z</time>
      </trkpt>
      <trkpt lat="45.49941" lon="6.74204">
        <ele>2267.7</ele>
        <time>2021-08-12T09:53:11Z</time>
      </trkpt>
      <trkpt lat="45.4994" lon="6.74204">
        <ele>2267.8</ele>
        <time>2021-08-12T09:53:12Z</time>
      </trkpt>
      <trkpt lat="45.4994" lon="6.74205">
        <ele>2267.9</ele>
        <time>2021-08-12T09:53:13Z</time>
      </trkpt>
      <trkpt lat="45.49939" lon="6.74205">
        <ele>2268</ele>
        <time>2021-08-12T09:53:14Z</time>
      </trkpt>
      <trkpt lat="45.49939" lon="6.74206">
        <ele>2268.1</ele>
        <time>2021-08-12T09:53:15Z</time>
      </trkpt>
      <trkpt lat="45.49938" lon="6.74207">
        <ele>2268.2</ele>
        <time>2021-08-12T09:53:16Z</time>
      </trkpt>
      <trkpt lat="45.49938" lon="6.74208">
        <ele>2268.3</ele>
        <time>2021-08-12T09:53:17Z</time>
      </trkpt>
      <trkpt lat="45.49937" lon="6.74208">
        <ele>2268.4</ele>
        <time>2021-08-12T09:53:18Z</time>
      </trkpt>
      <trkpt lat="45.49937" lon="6.74209">
        <ele>2268.5</ele>
        <time>2021-08-12T09:53:19Z</time>
      </trkpt>
      <trkpt lat="45.49936" lon="6.7421">
        <ele>2268.6</ele>
        <time>2021-08-12T09:53:20Z</time>
      </trkpt>
      <trkpt lat="45.49936" lon="6.74211">
        <ele>2268.7</ele>
        <time>2021-08-12T09:53:21Z</time>
      </trkpt>
      <trkpt lat="45.49935" lon="6.74212">
        <ele>2268.8</ele>
        <time>2021-08-12T09:53:22Z</time>
      </trkpt>
      <trkpt lat="45.49935" lon="6.74213">
        <ele>2268.9</ele>
        <time>2021-08-12T09:53:23Z</time>
      </trkpt>
      <trkpt lat="45.49934" lon="6.74214">
        <ele>2269</ele>
        <time>2021-08-12T09:53:24Z</time>
      </trkpt>
      <trkpt lat="45.49934" lon="6.74215">
        <ele>2269.1</ele>
        <time>2021-08-12T09:53:25Z</time>
      </trkpt>
      <trkpt lat="45.49933" lon="6.74216">
        <ele>2269.3</ele>
        <time>2021-08-12T09:53:26Z</time>
      </trkpt>
      <trkpt lat="45.49933" lon="6.74217">
        <ele>2269.4</ele>
        <time>2021-08-12T09:53:27Z</time>
      </trkpt>
      <trkpt lat="45.49933" lon="6.74218">
        <ele>2269.5</ele>
        <time>2021-08-12T09:53:28Z</time>
      </trkpt>
      <trkpt lat="45.49932" lon="6.74219">
        <ele>2269.6</ele>
        <time>2021-08-12T09:53:29Z</time>
      </trkpt>
      <trkpt lat="45.49932" lon="6.7422">
        <ele>2269.7</ele>
        <time>2021-08-12T09:53:30Z</time>
      </trkpt>
      <trkpt lat="45.49931" lon="6.7422">
        <ele>2269.8</ele>
        <time>2021-08-12T09:53:31Z</time>
      </trkpt>
      <trkpt lat="45.49931" lon="6.74221">
        <ele>2269.8</ele>
        <time>2021-08-12T09:53:32Z</time>
      </trkpt>
      <trkpt lat="45.49931" lon="6.74222">
        <ele>2269.9</ele>
        <time>2021-08-12T09:53:33Z</time>
      </trkpt>
      <trkpt lat="45.49931" lon="6.74222">
        <ele>2270</ele>
        <time>2021-08-12T09:53:34Z</time>
      </trkpt>
      <trkpt lat="45.4993" lon="6.74223">
        <ele>2270</ele>
        <time>2021-08-12T09:53:35Z</time>
      </trkpt>
      <trkpt lat="45.4993" lon="6.74223">
        <ele>2270</ele>
        <time>2021-08-12T09:53:36Z</time>
      </trkpt>
      <trkpt lat="45.4993" lon="6.74223">
        <ele>2270</ele>
        <time>2021-08-12T09:53:37Z</time>
      </trkpt>
      <trkpt lat="45.4993" lon="6.74223">
        <ele>2270</ele>
        <time>2021-08-12T09:53:38Z</time>
      </trkpt>
      <trkpt lat="45.4993" lon="6.74223">
        <ele>2270</ele>
        <time>2021-08-12T09:53:39Z</time>
      </trkpt>
      <trkpt lat="45.4993" lon="6.74223">
        <ele>2270.1</ele>
        <time>2021-08-12T09:53:40Z</time>
      </trkpt>
      <trkpt lat="45.4993" lon="6.74223">
        <ele>2270.1</ele>
        <time>2021-08-12T09:53:41Z</time>
      </trkpt>
      <trkpt lat="45.4993" lon="6.74223">
        <ele>2270.1</ele>
        <time>2021-08-12T09:53:42Z</time>
      </trkpt>
      <trkpt lat="45.4993" lon="6.74223">
        <ele>2270.1</ele>
        <time>2021-08-12T09:53:43Z</time>
      </trkpt>
      <trkpt lat="45.4993" lon="6.74223">
        <ele>2270.1</ele>
        <time>2021-08-12T09:53:44Z</time>
      </trkpt>
      <trkpt lat="45.4993" lon="6.74223">
        <ele>2270.1</ele>
        <time>2021-08-12T09:53:45Z</time>
      </trkpt>
      <trkpt lat="45.4993" lon="6.74223">
        <ele>2270.1</ele>
        <time>2021-08-12T09:53:46Z</time>
      </trkpt>
      <trkpt lat="45.4993" lon="6.74223">
        <ele>2270.1</ele>
        <time>2021-08-12T09:53:47Z</time>
      </trkpt>
      <trkpt lat="45.4993" lon="6.74224">
        <ele>2270.1</ele>
        <time>2021-08-12T09:53:48Z</time>
      </trkpt>
      <trkpt lat="45.4993" lon="6.74224">
        <ele>2270.1</ele>
        <time>2021-08-12T09:53:49Z</time>
      </trkpt>
      <trkpt lat="45.4993" lon="6.74224">
        <ele>2270.2</ele>
        <time>2021-08-12T09:53:50Z</time>
      </trkpt>
      <trkpt lat="45.4993" lon="6.74224">
        <ele>2270.2</ele>
        <time>2021-08-12T09:53:51Z</time>
      </trkpt>
      <trkpt lat="45.4993" lon="6.74225">
        <ele>2270.2</ele>
        <time>2021-08-12T09:53:52Z</time>
      </trkpt>
      <trkpt lat="45.4993" lon="6.74225">
        <ele>2270.3</ele>
        <time>2021-08-12T09:53:53Z</time>
      </trkpt>
      <trkpt lat="45.4993" lon="6.74226">
        <ele>2270.3</ele>
        <time>2021-08-12T09:53:54Z</time>
      </trkpt>
      <trkpt lat="45.49929" lon="6.74227">
        <ele>2270.4</ele>
        <time>2021-08-12T09:53:55Z</time>
      </trkpt>
      <trkpt lat="45.49929" lon="6.74227">
        <ele>2270.4</ele>
        <time>2021-08-12T09:53:56Z</time>
      </trkpt>
      <trkpt lat="45.49929" lon="6.74228">
        <ele>2270.5</ele>
        <time>2021-08-12T09:53:57Z</time>
      </trkpt>
      <trkpt lat="45.49929" lon="6.74229">
        <ele>2270.6</ele>
        <time>2021-08-12T09:53:58Z</time>
      </trkpt>
      <trkpt lat="45.49929" lon="6.7423">
        <ele>2270.6</ele>
        <time>2021-08-12T09:53:59Z</time>
      </trkpt>
      <trkpt lat="45.49929" lon="6.7423">
        <ele>2270.7</ele>
        <time>2021-08-12T09:54:00Z</time>
      </trkpt>
      <trkpt lat="45.49929" lon="6.74231">
        <ele>2270.7</ele>
        <time>2021-08-12T09:54:01Z</time>
      </trkpt>
      <trkpt lat="45.49929" lon="6.74231">
        <ele>2270.7</ele>
        <time>2021-08-12T09:54:02Z</time>
      </trkpt>
      <trkpt lat="45.49929" lon="6.74232">
        <ele>2270.8</ele>
        <time>2021-08-12T09:54:03Z</time>
      </trkpt>
      <trkpt lat="45.49928" lon="6.74232">
        <ele>2270.8</ele>
        <time>2021-08-12T09:54:04Z</time>
      </trkpt>
      <trkpt lat="45.49928" lon="6.74232">
        <ele>2270.8</ele>
        <time>2021-08-12T09:54:05Z</time>
      </trkpt>
      <trkpt lat="45.49928" lon="6.74232">
        <ele>2270.8</ele>
        <time>2021-08-12T09:54:06Z</time>
      </trkpt>
      <trkpt lat="45.49928" lon="6.74232">
        <ele>2270.8</ele>
        <time>2021-08-12T09:54:07Z</time>
      </trkpt>
      <trkpt lat="45.49928" lon="6.74232">
        <ele>2270.8</ele>
        <time>2021-08-12T09:54:08Z</time>
      </trkpt>
      <trkpt lat="45.49928" lon="6.74232">
        <ele>2270.8</ele>
        <time>2021-08-12T09:54:09Z</time>
      </trkpt>
      <trkpt lat="45.49929" lon="6.74232">
        <ele>2270.8</ele>
        <time>2021-08-12T09:54:10Z</time>
      </trkpt>
      <trkpt lat="45.49929" lon="6.74232">
        <ele>2270.9</ele>
        <time>2021-08-12T09:54:11Z</time>
      </trkpt>
      <trkpt lat="45.49929" lon="6.74232">
        <ele>2270.9</ele>
        <time>2021-08-12T09:54:12Z</time>
      </trkpt>
      <trkpt lat="45.49929" lon="6.74232">
        <ele>2270.9</ele>
        <time>2021-08-12T09:54:13Z</time>
      </trkpt>
      <trkpt lat="45.49929" lon="6.74232">
        <ele>2270.9</ele>
        <time>2021-08-12T09:54:14Z</time>
      </trkpt>
      <trkpt lat="45.49929" lon="6.74232">
        <ele>2270.9</ele>
        <time>2021-08-12T09:54:15Z</time>
      </trkpt>
      <trkpt lat="45.49929" lon="6.74232">
        <ele>2270.9</ele>
        <time>2021-08-12T09:54:16Z</time>
      </trkpt>
      <trkpt lat="45.49929" lon="6.74232">
        <ele>2270.9</ele>
        <time>2021-08-12T09:54:17Z</time>
      </trkpt>
      <trkpt lat="45.49929" lon="6.74232">
        <ele>2270.9</ele>
        <time>2021-08-12T09:54:18Z</time>
      </trkpt>
      <trkpt lat="45.49929" lon="6.74232">
        <ele>2270.9</ele>
        <time>2021-08-12T09:54:19Z</time>
      </trkpt>
      <trkpt lat="45.49929" lon="6.74232">
        <ele>2270.9</ele>
        <time>2021-08-12T09:54:20Z</time>
      </trkpt>
      <trkpt lat="45.49929" lon="6.74233">
        <ele>2271</ele>
        <time>2021-08-12T09:54:21Z</time>
      </trkpt>
      <trkpt lat="45.49929" lon="6.74233">
        <ele>2271</ele>
        <time>2021-08-12T09:54:22Z</time>
      </trkpt>
      <trkpt lat="45.49929" lon="6.74233">
        <ele>2271</ele>
        <time>2021-08-12T09:54:23Z</time>
      </trkpt>
      <trkpt lat="45.49929" lon="6.74234">
        <ele>2271</ele>
        <time>2021-08-12T09:54:24Z</time>
      </trkpt>
      <trkpt lat="45.49929" lon="6.74234">
        <ele>2271</ele>
        <time>2021-08-12T09:54:25Z</time>
      </trkpt>
      <trkpt lat="45.49929" lon="6.74234">
        <ele>2271.1</ele>
        <time>2021-08-12T09:54:26Z</time>
      </trkpt>
      <trkpt lat="45.49929" lon="6.74234">
        <ele>2271.1</ele>
        <time>2021-08-12T09:54:27Z</time>
      </trkpt>
      <trkpt lat="45.49929" lon="6.74235">
        <ele>2271.1</ele>
        <time>2021-08-12T09:54:28Z</time>
      </trkpt>
      <trkpt lat="45.49929" lon="6.74235">
        <ele>2271.1</ele>
        <time>2021-08-12T09:54:29Z</time>
      </trkpt>
      <trkpt lat="45.49929" lon="6.74235">
        <ele>2271.1</ele>
        <time>2021-08-12T09:54:30Z</time>
      </trkpt>
      <trkpt lat="45.49929" lon="6.74235">
        <ele>2271.1</ele>
        <time>2021-08-12T09:54:31Z</time>
      </trkpt>
      <trkpt lat="45.49929" lon="6.74235">
        <ele>2271.1</ele>
        <time>2021-08-12T09:54:32Z</time>
      </trkpt>
      <trkpt lat="45.49929" lon="6.74236">
        <ele>2271.2</ele>
        <time>2021-08-12T09:54:33Z</time>
      </trkpt>
      <trkpt lat="45.49929" lon="6.74236">
        <ele>2271.2</ele>
        <time>2021-08-12T09:54:34Z</time>
      </trkpt>
      <trkpt lat="45.49929" lon="6.74236">
        <ele>2271.2</ele>
        <time>2021-08-12T09:54:35Z</time>
      </trkpt>
      <trkpt lat="45.49929" lon="6.74235">
        <ele>2271.2</ele>
        <time>2021-08-12T09:54:36Z</time>
      </trkpt>
      <trkpt lat="45.49929" lon="6.74235">
        <ele>2271.2</ele>
        <time>2021-08-12T09:54:37Z</time>
      </trkpt>
      <trkpt lat="45.49929" lon="6.74235">
        <ele>2271.2</ele>
        <time>2021-08-12T09:54:38Z</time>
      </trkpt>
      <trkpt lat="45.49929" lon="6.74235">
        <ele>2271.2</ele>
        <time>2021-08-12T09:54:39Z</time>
      </trkpt>
      <trkpt lat="45.49929" lon="6.74235">
        <ele>2271.2</ele>
        <time>2021-08-12T09:54:40Z</time>
      </trkpt>
      <trkpt lat="45.49929" lon="6.74235">
        <ele>2271.2</ele>
        <time>2021-08-12T09:54:41Z</time>
      </trkpt>
      <trkpt lat="45.49929" lon="6.74236">
        <ele>2271.2</ele>
        <time>2021-08-12T09:54:42Z</time>
      </trkpt>
      <trkpt lat="45.49929" lon="6.74236">
        <ele>2271.2</ele>
        <time>2021-08-12T09:54:43Z</time>
      </trkpt>
      <trkpt lat="45.49929" lon="6.74236">
        <ele>2271.2</ele>
        <time>2021-08-12T09:54:44Z</time>
      </trkpt>
      <trkpt lat="45.49929" lon="6.74236">
        <ele>2271.2</ele>
        <time>2021-08-12T09:54:45Z</time>
      </trkpt>
      <trkpt lat="45.49929" lon="6.74237">
        <ele>2271.3</ele>
        <time>2021-08-12T09:54:46Z</time>
      </trkpt>
      <trkpt lat="45.49929" lon="6.74237">
        <ele>2271.3</ele>
        <time>2021-08-12T09:54:47Z</time>
      </trkpt>
      <trkpt lat="45.49929" lon="6.74237">
        <ele>2271.3</ele>
        <time>2021-08-12T09:54:48Z</time>
      </trkpt>
      <trkpt lat="45.4993" lon="6.74238">
        <ele>2271.3</ele>
        <time>2021-08-12T09:54:49Z</time>
      </trkpt>
      <trkpt lat="45.4993" lon="6.74238">
        <ele>2271.4</ele>
        <time>2021-08-12T09:54:50Z</time>
      </trkpt>
      <trkpt lat="45.4993" lon="6.74238">
        <ele>2271.4</ele>
        <time>2021-08-12T09:54:51Z</time>
      </trkpt>
      <trkpt lat="45.4993" lon="6.74239">
        <ele>2271.4</ele>
        <time>2021-08-12T09:54:52Z</time>
      </trkpt>
      <trkpt lat="45.4993" lon="6.74239">
        <ele>2271.4</ele>
        <time>2021-08-12T09:54:53Z</time>
      </trkpt>
      <trkpt lat="45.4993" lon="6.74239">
        <ele>2271.4</ele>
        <time>2021-08-12T09:54:54Z</time>
      </trkpt>
      <trkpt lat="45.4993" lon="6.74239">
        <ele>2271.4</ele>
        <time>2021-08-12T09:54:55Z</time>
      </trkpt>
      <trkpt lat="45.4993" lon="6.74239">
        <ele>2271.5</ele>
        <time>2021-08-12T09:54:56Z</time>
      </trkpt>
      <trkpt lat="45.4993" lon="6.7424">
        <ele>2271.5</ele>
        <time>2021-08-12T09:54:57Z</time>
      </trkpt>
      <trkpt lat="45.4993" lon="6.7424">
        <ele>2271.5</ele>
        <time>2021-08-12T09:54:58Z</time>
      </trkpt>
      <trkpt lat="45.4993" lon="6.7424">
        <ele>2271.5</ele>
        <time>2021-08-12T09:54:59Z</time>
      </trkpt>
      <trkpt lat="45.4993" lon="6.7424">
        <ele>2271.5</ele>
        <time>2021-08-12T09:55:00Z</time>
      </trkpt>
      <trkpt lat="45.4993" lon="6.7424">
        <ele>2271.5</ele>
        <time>2021-08-12T09:55:01Z</time>
      </trkpt>
      <trkpt lat="45.4993" lon="6.7424">
        <ele>2271.5</ele>
        <time>2021-08-12T09:55:02Z</time>
      </trkpt>
      <trkpt lat="45.4993" lon="6.7424">
        <ele>2271.5</ele>
        <time>2021-08-12T09:55:03Z</time>
      </trkpt>
      <trkpt lat="45.4993" lon="6.7424">
        <ele>2271.5</ele>
        <time>2021-08-12T09:55:04Z</time>
      </trkpt>
      <trkpt lat="45.4993" lon="6.7424">
        <ele>2271.5</ele>
        <time>2021-08-12T09:55:05Z</time>
      </trkpt>
      <trkpt lat="45.4993" lon="6.7424">
        <ele>2271.5</ele>
        <time>2021-08-12T09:55:06Z</time>
      </trkpt>
      <trkpt lat="45.4993" lon="6.7424">
        <ele>2271.5</ele>
        <time>2021-08-12T09:55:07Z</time>
      </trkpt>
      <trkpt lat="45.4993" lon="6.74241">
        <ele>2271.6</ele>
        <time>2021-08-12T09:55:08Z</time>
      </trkpt>
      <trkpt lat="45.49931" lon="6.74241">
        <ele>2271.6</ele>
        <time>2021-08-12T09:55:09Z</time>
      </trkpt>
      <trkpt lat="45.49931" lon="6.74242">
        <ele>2271.6</ele>
        <time>2021-08-12T09:55:10Z</time>
      </trkpt>
      <trkpt lat="45.49931" lon="6.74242">
        <ele>2271.7</ele>
        <time>2021-08-12T09:55:11Z</time>
      </trkpt>
      <trkpt lat="45.49932" lon="6.74243">
        <ele>2271.7</ele>
        <time>2021-08-12T09:55:12Z</time>
      </trkpt>
      <trkpt lat="45.49932" lon="6.74243">
        <ele>2271.8</ele>
        <time>2021-08-12T09:55:13Z</time>
      </trkpt>
      <trkpt lat="45.49932" lon="6.74243">
        <ele>2271.8</ele>
        <time>2021-08-12T09:55:14Z</time>
      </trkpt>
      <trkpt lat="45.49932" lon="6.74244">
        <ele>2271.8</ele>
        <time>2021-08-12T09:55:15Z</time>
      </trkpt>
      <trkpt lat="45.49932" lon="6.74244">
        <ele>2271.8</ele>
        <time>2021-08-12T09:55:16Z</time>
      </trkpt>
      <trkpt lat="45.49932" lon="6.74244">
        <ele>2271.8</ele>
        <time>2021-08-12T09:55:17Z</time>
      </trkpt>
      <trkpt lat="45.49932" lon="6.74244">
        <ele>2271.8</ele>
        <time>2021-08-12T09:55:18Z</time>
      </trkpt>
      <trkpt lat="45.49932" lon="6.74244">
        <ele>2271.8</ele>
        <time>2021-08-12T09:55:19Z</time>
      </trkpt>
      <trkpt lat="45.49932" lon="6.74244">
        <ele>2271.8</ele>
        <time>2021-08-12T09:55:20Z</time>
      </trkpt>
      <trkpt lat="45.49932" lon="6.74244">
        <ele>2271.9</ele>
        <time>2021-08-12T09:55:21Z</time>
      </trkpt>
      <trkpt lat="45.49932" lon="6.74244">
        <ele>2271.9</ele>
        <time>2021-08-12T09:55:22Z</time>
      </trkpt>
      <trkpt lat="45.49932" lon="6.74244">
        <ele>2271.9</ele>
        <time>2021-08-12T09:55:23Z</time>
      </trkpt>
      <trkpt lat="45.49932" lon="6.74244">
        <ele>2271.9</ele>
        <time>2021-08-12T09:55:24Z</time>
      </trkpt>
      <trkpt lat="45.49932" lon="6.74244">
        <ele>2271.9</ele>
        <time>2021-08-12T09:55:25Z</time>
      </trkpt>
      <trkpt lat="45.49932" lon="6.74244">
        <ele>2271.9</ele>
        <time>2021-08-12T09:55:26Z</time>
      </trkpt>
      <trkpt lat="45.49932" lon="6.74244">
        <ele>2271.9</ele>
        <time>2021-08-12T09:55:27Z</time>
      </trkpt>
      <trkpt lat="45.49932" lon="6.74244">
        <ele>2271.9</ele>
        <time>2021-08-12T09:55:28Z</time>
      </trkpt>
      <trkpt lat="45.49932" lon="6.74244">
        <ele>2271.9</ele>
        <time>2021-08-12T09:55:29Z</time>
      </trkpt>
      <trkpt lat="45.49933" lon="6.74244">
        <ele>2271.9</ele>
        <time>2021-08-12T09:55:30Z</time>
      </trkpt>
      <trkpt lat="45.49933" lon="6.74244">
        <ele>2272</ele>
        <time>2021-08-12T09:55:31Z</time>
      </trkpt>
      <trkpt lat="45.49933" lon="6.74245">
        <ele>2272</ele>
        <time>2021-08-12T09:55:32Z</time>
      </trkpt>
      <trkpt lat="45.49934" lon="6.74245">
        <ele>2272.1</ele>
        <time>2021-08-12T09:55:33Z</time>
      </trkpt>
      <trkpt lat="45.49934" lon="6.74246">
        <ele>2272.1</ele>
        <time>2021-08-12T09:55:34Z</time>
      </trkpt>
      <trkpt lat="45.49935" lon="6.74246">
        <ele>2272.2</ele>
        <time>2021-08-12T09:55:35Z</time>
      </trkpt>
      <trkpt lat="45.49935" lon="6.74247">
        <ele>2272.2</ele>
        <time>2021-08-12T09:55:36Z</time>
      </trkpt>
      <trkpt lat="45.49936" lon="6.74247">
        <ele>2272.2</ele>
        <time>2021-08-12T09:55:37Z</time>
      </trkpt>
      <trkpt lat="45.49936" lon="6.74247">
        <ele>2272.2</ele>
        <time>2021-08-12T09:55:38Z</time>
      </trkpt>
      <trkpt lat="45.49936" lon="6.74247">
        <ele>2272.2</ele>
        <time>2021-08-12T09:55:39Z</time>
      </trkpt>
      <trkpt lat="45.49936" lon="6.74247">
        <ele>2272.2</ele>
        <time>2021-08-12T09:55:40Z</time>
      </trkpt>
      <trkpt lat="45.49936" lon="6.74247">
        <ele>2272.3</ele>
        <time>2021-08-12T09:55:41Z</time>
      </trkpt>
      <trkpt lat="45.49936" lon="6.74247">
        <ele>2272.3</ele>
        <time>2021-08-12T09:55:42Z</time>
      </trkpt>
      <trkpt lat="45.49936" lon="6.74247">
        <ele>2272.3</ele>
        <time>2021-08-12T09:55:43Z</time>
      </trkpt>
      <trkpt lat="45.49936" lon="6.74247">
        <ele>2272.3</ele>
        <time>2021-08-12T09:55:44Z</time>
      </trkpt>
      <trkpt lat="45.49936" lon="6.74247">
        <ele>2272.3</ele>
        <time>2021-08-12T09:55:45Z</time>
      </trkpt>
      <trkpt lat="45.49936" lon="6.74247">
        <ele>2272.3</ele>
        <time>2021-08-12T09:55:46Z</time>
      </trkpt>
      <trkpt lat="45.49936" lon="6.74247">
        <ele>2272.3</ele>
        <time>2021-08-12T09:55:47Z</time>
      </trkpt>
      <trkpt lat="45.49936" lon="6.74247">
        <ele>2272.3</ele>
        <time>2021-08-12T09:55:48Z</time>
      </trkpt>
      <trkpt lat="45.49936" lon="6.74247">
        <ele>2272.3</ele>
        <time>2021-08-12T09:55:49Z</time>
      </trkpt>
      <trkpt lat="45.49936" lon="6.74247">
        <ele>2272.3</ele>
        <time>2021-08-12T09:55:50Z</time>
      </trkpt>
      <trkpt lat="45.49936" lon="6.74247">
        <ele>2272.3</ele>
        <time>2021-08-12T09:55:51Z</time>
      </trkpt>
      <trkpt lat="45.49936" lon="6.74247">
        <ele>2272.3</ele>
        <time>2021-08-12T09:55:52Z</time>
      </trkpt>
      <trkpt lat="45.49936" lon="6.74247">
        <ele>2272.3</ele>
        <time>2021-08-12T09:55:53Z</time>
      </trkpt>
      <trkpt lat="45.49936" lon="6.74247">
        <ele>2272.3</ele>
        <time>2021-08-12T09:55:54Z</time>
      </trkpt>
      <trkpt lat="45.49936" lon="6.74246">
        <ele>2272.3</ele>
        <time>2021-08-12T09:55:55Z</time>
      </trkpt>
      <trkpt lat="45.49936" lon="6.74246">
        <ele>2272.3</ele>
        <time>2021-08-12T09:55:56Z</time>
      </trkpt>
      <trkpt lat="45.49937" lon="6.74245">
        <ele>2272.4</ele>
        <time>2021-08-12T09:55:57Z</time>
      </trkpt>
      <trkpt lat="45.49937" lon="6.74245">
        <ele>2272.4</ele>
        <time>2021-08-12T09:55:58Z</time>
      </trkpt>
      <trkpt lat="45.49937" lon="6.74244">
        <ele>2272.4</ele>
        <time>2021-08-12T09:55:59Z</time>
      </trkpt>
      <trkpt lat="45.49937" lon="6.74243">
        <ele>2272.5</ele>
        <time>2021-08-12T09:56:00Z</time>
      </trkpt>
      <trkpt lat="45.49937" lon="6.74243">
        <ele>2272.5</ele>
        <time>2021-08-12T09:56:01Z</time>
      </trkpt>
      <trkpt lat="45.49937" lon="6.74242">
        <ele>2272.5</ele>
        <time>2021-08-12T09:56:02Z</time>
      </trkpt>
      <trkpt lat="45.49937" lon="6.74242">
        <ele>2272.5</ele>
        <time>2021-08-12T09:56:03Z</time>
      </trkpt>
      <trkpt lat="45.49937" lon="6.74242">
        <ele>2272.5</ele>
        <time>2021-08-12T09:56:04Z</time>
      </trkpt>
      <trkpt lat="45.49937" lon="6.74242">
        <ele>2272.5</ele>
        <time>2021-08-12T09:56:05Z</time>
      </trkpt>
      <trkpt lat="45.49937" lon="6.74241">
        <ele>2272.6</ele>
        <time>2021-08-12T09:56:06Z</time>
      </trkpt>
      <trkpt lat="45.49937" lon="6.74241">
        <ele>2272.6</ele>
        <time>2021-08-12T09:56:07Z</time>
      </trkpt>
      <trkpt lat="45.49937" lon="6.74241">
        <ele>2272.6</ele>
        <time>2021-08-12T09:56:08Z</time>
      </trkpt>
      <trkpt lat="45.49937" lon="6.74241">
        <ele>2272.6</ele>
        <time>2021-08-12T09:56:09Z</time>
      </trkpt>
      <trkpt lat="45.49937" lon="6.74241">
        <ele>2272.6</ele>
        <time>2021-08-12T09:56:10Z</time>
      </trkpt>
      <trkpt lat="45.49937" lon="6.74241">
        <ele>2272.6</ele>
        <time>2021-08-12T09:56:11Z</time>
      </trkpt>
      <trkpt lat="45.49937" lon="6.74241">
        <ele>2272.6</ele>
        <time>2021-08-12T09:56:12Z</time>
      </trkpt>
      <trkpt lat="45.49937" lon="6.74241">
        <ele>2272.6</ele>
        <time>2021-08-12T09:56:13Z</time>
      </trkpt>
      <trkpt lat="45.49937" lon="6.74241">
        <ele>2272.6</ele>
        <time>2021-08-12T09:56:14Z</time>
      </trkpt>
      <trkpt lat="45.49937" lon="6.74241">
        <ele>2272.6</ele>
        <time>2021-08-12T09:56:15Z</time>
      </trkpt>
      <trkpt lat="45.49937" lon="6.74241">
        <ele>2272.6</ele>
        <time>2021-08-12T09:56:16Z</time>
      </trkpt>
      <trkpt lat="45.49937" lon="6.74241">
        <ele>2272.6</ele>
        <time>2021-08-12T09:56:17Z</time>
      </trkpt>
      <trkpt lat="45.49937" lon="6.74241">
        <ele>2272.6</ele>
        <time>2021-08-12T09:56:18Z</time>
      </trkpt>
      <trkpt lat="45.49937" lon="6.74241">
        <ele>2272.6</ele>
        <time>2021-08-12T09:56:19Z</time>
      </trkpt>
      <trkpt lat="45.49937" lon="6.74241">
        <ele>2272.6</ele>
        <time>2021-08-12T09:56:20Z</time>
      </trkpt>
      <trkpt lat="45.49937" lon="6.74241">
        <ele>2272.6</ele>
        <time>2021-08-12T09:56:21Z</time>
      </trkpt>
      <trkpt lat="45.49937" lon="6.74241">
        <ele>2272.6</ele>
        <time>2021-08-12T09:56:22Z</time>
      </trkpt>
      <trkpt lat="45.49937" lon="6.74241">
        <ele>2272.6</ele>
        <time>2021-08-12T09:56:23Z</time>
      </trkpt>
      <trkpt lat="45.49937" lon="6.74241">
        <ele>2272.6</ele>
        <time>2021-08-12T09:56:24Z</time>
      </trkpt>
      <trkpt lat="45.49937" lon="6.74241">
        <ele>2272.6</ele>
        <time>2021-08-12T09:56:25Z</time>
      </trkpt>
      <trkpt lat="45.49937" lon="6.74241">
        <ele>2272.6</ele>
        <time>2021-08-12T09:56:26Z</time>
      </trkpt>
      <trkpt lat="45.49937" lon="6.74241">
        <ele>2272.6</ele>
        <time>2021-08-12T09:56:27Z</time>
      </trkpt>
      <trkpt lat="45.49937" lon="6.74241">
        <ele>2272.6</ele>
        <time>2021-08-12T09:56:28Z</time>
      </trkpt>
      <trkpt lat="45.49937" lon="6.74241">
        <ele>2272.6</ele>
        <time>2021-08-12T09:56:29Z</time>
      </trkpt>
      <trkpt lat="45.49937" lon="6.74241">
        <ele>2272.6</ele>
        <time>2021-08-12T09:56:30Z</time>
      </trkpt>
      <trkpt lat="45.49937" lon="6.74241">
        <ele>2272.6</ele>
        <time>2021-08-12T09:56:31Z</time>
      </trkpt>
      <trkpt lat="45.49937" lon="6.74241">
        <ele>2272.6</ele>
        <time>2021-08-12T09:56:32Z</time>
      </trkpt>
      <trkpt lat="45.49937" lon="6.74241">
        <ele>2272.6</ele>
        <time>2021-08-12T09:56:33Z</time>
      </trkpt>
      <trkpt lat="45.49937" lon="6.74241">
        <ele>2272.6</ele>
        <time>2021-08-12T09:56:34Z</time>
      </trkpt>
      <trkpt lat="45.49937" lon="6.74241">
        <ele>2272.6</ele>
        <time>2021-08-12T09:56:35Z</time>
      </trkpt>
      <trkpt lat="45.49937" lon="6.74241">
        <ele>2272.6</ele>
        <time>2021-08-12T09:56:36Z</time>
      </trkpt>
      <trkpt lat="45.49937" lon="6.74241">
        <ele>2272.6</ele>
        <time>2021-08-12T09:56:37Z</time>
      </trkpt>
      <trkpt lat="45.49937" lon="6.74241">
        <ele>2272.6</ele>
        <time>2021-08-12T09:56:38Z</time>
      </trkpt>
      <trkpt lat="45.49937" lon="6.74241">
        <ele>2272.6</ele>
        <time>2021-08-12T09:56:39Z</time>
      </trkpt>
      <trkpt lat="45.49937" lon="6.74241">
        <ele>2272.6</ele>
        <time>2021-08-12T09:56:40Z</time>
      </trkpt>
      <trkpt lat="45.49937" lon="6.74241">
        <ele>2272.6</ele>
        <time>2021-08-12T09:56:41Z</time>
      </trkpt>
      <trkpt lat="45.49937" lon="6.74241">
        <ele>2272.6</ele>
        <time>2021-08-12T09:56:42Z</time>
      </trkpt>
      <trkpt lat="45.49937" lon="6.74241">
        <ele>2272.6</ele>
        <time>2021-08-12T09:56:43Z</time>
      </trkpt>
      <trkpt lat="45.49937" lon="6.74241">
        <ele>2272.6</ele>
        <time>2021-08-12T09:56:44Z</time>
      </trkpt>
      <trkpt lat="45.49937" lon="6.74241">
        <ele>2272.6</ele>
        <time>2021-08-12T09:56:45Z</time>
      </trkpt>
      <trkpt lat="45.49937" lon="6.74241">
        <ele>2272.6</ele>
        <time>2021-08-12T09:56:46Z</time>
      </trkpt>
      <trkpt lat="45.49937" lon="6.74241">
        <ele>2272.6</ele>
        <time>2021-08-12T09:56:47Z</time>
      </trkpt>
      <trkpt lat="45.49937" lon="6.74241">
        <ele>2272.6</ele>
        <time>2021-08-12T09:56:48Z</time>
      </trkpt>
      <trkpt lat="45.49937" lon="6.74241">
        <ele>2272.6</ele>
        <time>2021-08-12T09:56:49Z</time>
      </trkpt>
      <trkpt lat="45.49937" lon="6.74241">
        <ele>2272.6</ele>
        <time>2021-08-12T09:56:50Z</time>
      </trkpt>
      <trkpt lat="45.49937" lon="6.74241">
        <ele>2272.6</ele>
        <time>2021-08-12T09:56:51Z</time>
      </trkpt>
      <trkpt lat="45.49937" lon="6.74241">
        <ele>2272.6</ele>
        <time>2021-08-12T09:56:52Z</time>
      </trkpt>
      <trkpt lat="45.49937" lon="6.74241">
        <ele>2272.6</ele>
        <time>2021-08-12T09:56:53Z</time>
      </trkpt>
      <trkpt lat="45.49937" lon="6.74241">
        <ele>2272.6</ele>
        <time>2021-08-12T09:56:54Z</time>
      </trkpt>
      <trkpt lat="45.49937" lon="6.74241">
        <ele>2272.6</ele>
        <time>2021-08-12T09:56:55Z</time>
      </trkpt>
      <trkpt lat="45.49937" lon="6.74241">
        <ele>2272.6</ele>
        <time>2021-08-12T09:56:56Z</time>
      </trkpt>
      <trkpt lat="45.49937" lon="6.74241">
        <ele>2272.6</ele>
        <time>2021-08-12T09:56:57Z</time>
      </trkpt>
      <trkpt lat="45.49937" lon="6.74241">
        <ele>2272.6</ele>
        <time>2021-08-12T09:56:58Z</time>
      </trkpt>
      <trkpt lat="45.49937" lon="6.74241">
        <ele>2272.6</ele>
        <time>2021-08-12T09:56:59Z</time>
      </trkpt>
      <trkpt lat="45.49937" lon="6.74241">
        <ele>2272.6</ele>
        <time>2021-08-12T09:57:00Z</time>
      </trkpt>
      <trkpt lat="45.49937" lon="6.74241">
        <ele>2272.6</ele>
        <time>2021-08-12T09:57:01Z</time>
      </trkpt>
      <trkpt lat="45.49937" lon="6.74241">
        <ele>2272.6</ele>
        <time>2021-08-12T09:57:02Z</time>
      </trkpt>
      <trkpt lat="45.49937" lon="6.74241">
        <ele>2272.6</ele>
        <time>2021-08-12T09:57:03Z</time>
      </trkpt>
      <trkpt lat="45.49937" lon="6.74241">
        <ele>2272.6</ele>
        <time>2021-08-12T09:57:04Z</time>
      </trkpt>
      <trkpt lat="45.49937" lon="6.74241">
        <ele>2272.6</ele>
        <time>2021-08-12T09:57:05Z</time>
      </trkpt>
      <trkpt lat="45.49937" lon="6.74241">
        <ele>2272.6</ele>
        <time>2021-08-12T09:57:06Z</time>
      </trkpt>
      <trkpt lat="45.49937" lon="6.74241">
        <ele>2272.6</ele>
        <time>2021-08-12T09:57:07Z</time>
      </trkpt>
      <trkpt lat="45.49937" lon="6.74241">
        <ele>2272.6</ele>
        <time>2021-08-12T09:57:08Z</time>
      </trkpt>
      <trkpt lat="45.49937" lon="6.74241">
        <ele>2272.6</ele>
        <time>2021-08-12T09:57:09Z</time>
      </trkpt>
      <trkpt lat="45.49937" lon="6.74241">
        <ele>2272.6</ele>
        <time>2021-08-12T09:57:10Z</time>
      </trkpt>
      <trkpt lat="45.49937" lon="6.74241">
        <ele>2272.6</ele>
        <time>2021-08-12T09:57:11Z</time>
      </trkpt>
      <trkpt lat="45.49937" lon="6.74241">
        <ele>2272.6</ele>
        <time>2021-08-12T09:57:12Z</time>
      </trkpt>
      <trkpt lat="45.49937" lon="6.74241">
        <ele>2272.6</ele>
        <time>2021-08-12T09:57:13Z</time>
      </trkpt>
      <trkpt lat="45.49937" lon="6.74241">
        <ele>2272.6</ele>
        <time>2021-08-12T09:57:14Z</time>
      </trkpt>
      <trkpt lat="45.49937" lon="6.74241">
        <ele>2272.6</ele>
        <time>2021-08-12T09:57:15Z</time>
      </trkpt>
      <trkpt lat="45.49937" lon="6.74241">
        <ele>2272.6</ele>
        <time>2021-08-12T09:57:16Z</time>
      </trkpt>
      <trkpt lat="45.49937" lon="6.74241">
        <ele>2272.6</ele>
        <time>2021-08-12T09:57:17Z</time>
      </trkpt>
      <trkpt lat="45.49937" lon="6.74241">
        <ele>2272.6</ele>
        <time>2021-08-12T09:57:18Z</time>
      </trkpt>
      <trkpt lat="45.49937" lon="6.74241">
        <ele>2272.6</ele>
        <time>2021-08-12T09:57:19Z</time>
      </trkpt>
      <trkpt lat="45.49937" lon="6.74241">
        <ele>2272.6</ele>
        <time>2021-08-12T09:57:20Z</time>
      </trkpt>
      <trkpt lat="45.49937" lon="6.74241">
        <ele>2272.6</ele>
        <time>2021-08-12T09:57:21Z</time>
      </trkpt>
      <trkpt lat="45.49937" lon="6.74241">
        <ele>2272.6</ele>
        <time>2021-08-12T09:57:22Z</time>
      </trkpt>
      <trkpt lat="45.49937" lon="6.74241">
        <ele>2272.6</ele>
        <time>2021-08-12T09:57:23Z</time>
      </trkpt>
      <trkpt lat="45.49937" lon="6.74241">
        <ele>2272.6</ele>
        <time>2021-08-12T09:57:24Z</time>
      </trkpt>
      <trkpt lat="45.49937" lon="6.74241">
        <ele>2272.6</ele>
        <time>2021-08-12T09:57:25Z</time>
      </trkpt>
      <trkpt lat="45.49937" lon="6.74241">
        <ele>2272.6</ele>
        <time>2021-08-12T09:57:26Z</time>
      </trkpt>
      <trkpt lat="45.49937" lon="6.74241">
        <ele>2272.6</ele>
        <time>2021-08-12T09:57:27Z</time>
      </trkpt>
      <trkpt lat="45.49937" lon="6.74241">
        <ele>2272.6</ele>
        <time>2021-08-12T09:57:28Z</time>
      </trkpt>
      <trkpt lat="45.49937" lon="6.74241">
        <ele>2272.6</ele>
        <time>2021-08-12T09:57:29Z</time>
      </trkpt>
      <trkpt lat="45.49937" lon="6.74241">
        <ele>2272.6</ele>
        <time>2021-08-12T09:57:30Z</time>
      </trkpt>
      <trkpt lat="45.49937" lon="6.74241">
        <ele>2272.6</ele>
        <time>2021-08-12T09:57:31Z</time>
      </trkpt>
      <trkpt lat="45.49937" lon="6.74241">
        <ele>2272.6</ele>
        <time>2021-08-12T09:57:32Z</time>
      </trkpt>
      <trkpt lat="45.49937" lon="6.74241">
        <ele>2272.6</ele>
        <time>2021-08-12T09:57:33Z</time>
      </trkpt>
      <trkpt lat="45.49937" lon="6.74241">
        <ele>2272.6</ele>
        <time>2021-08-12T09:57:34Z</time>
      </trkpt>
      <trkpt lat="45.49937" lon="6.74241">
        <ele>2272.6</ele>
        <time>2021-08-12T09:57:35Z</time>
      </trkpt>
      <trkpt lat="45.49937" lon="6.74241">
        <ele>2272.6</ele>
        <time>2021-08-12T09:57:36Z</time>
      </trkpt>
      <trkpt lat="45.49937" lon="6.74241">
        <ele>2272.6</ele>
        <time>2021-08-12T09:57:37Z</time>
      </trkpt>
      <trkpt lat="45.49937" lon="6.74241">
        <ele>2272.6</ele>
        <time>2021-08-12T09:57:38Z</time>
      </trkpt>
      <trkpt lat="45.49937" lon="6.74241">
        <ele>2272.6</ele>
        <time>2021-08-12T09:57:39Z</time>
      </trkpt>
      <trkpt lat="45.49937" lon="6.74241">
        <ele>2272.5</ele>
        <time>2021-08-12T09:57:40Z</time>
      </trkpt>
      <trkpt lat="45.49937" lon="6.74241">
        <ele>2272.5</ele>
        <time>2021-08-12T09:57:41Z</time>
      </trkpt>
      <trkpt lat="45.49937" lon="6.74241">
        <ele>2272.5</ele>
        <time>2021-08-12T09:57:42Z</time>
      </trkpt>
      <trkpt lat="45.49937" lon="6.74241">
        <ele>2272.5</ele>
        <time>2021-08-12T09:57:43Z</time>
      </trkpt>
      <trkpt lat="45.49937" lon="6.74241">
        <ele>2272.5</ele>
        <time>2021-08-12T09:57:44Z</time>
      </trkpt>
      <trkpt lat="45.49937" lon="6.74241">
        <ele>2272.5</ele>
        <time>2021-08-12T09:57:45Z</time>
      </trkpt>
      <trkpt lat="45.49937" lon="6.74241">
        <ele>2272.5</ele>
        <time>2021-08-12T09:57:46Z</time>
      </trkpt>
      <trkpt lat="45.49937" lon="6.74241">
        <ele>2272.5</ele>
        <time>2021-08-12T09:57:47Z</time>
      </trkpt>
      <trkpt lat="45.49937" lon="6.74241">
        <ele>2272.5</ele>
        <time>2021-08-12T09:57:48Z</time>
      </trkpt>
      <trkpt lat="45.49937" lon="6.74241">
        <ele>2272.5</ele>
        <time>2021-08-12T09:57:49Z</time>
      </trkpt>
      <trkpt lat="45.49937" lon="6.74241">
        <ele>2272.5</ele>
        <time>2021-08-12T09:57:50Z</time>
      </trkpt>
      <trkpt lat="45.49937" lon="6.74241">
        <ele>2272.5</ele>
        <time>2021-08-12T09:57:51Z</time>
      </trkpt>
      <trkpt lat="45.49937" lon="6.74241">
        <ele>2272.4</ele>
        <time>2021-08-12T09:57:52Z</time>
      </trkpt>
      <trkpt lat="45.49937" lon="6.74241">
        <ele>2272.4</ele>
        <time>2021-08-12T09:57:53Z</time>
      </trkpt>
      <trkpt lat="45.49937" lon="6.74241">
        <ele>2272.4</ele>
        <time>2021-08-12T09:57:54Z</time>
      </trkpt>
      <trkpt lat="45.49937" lon="6.74241">
        <ele>2272.4</ele>
        <time>2021-08-12T09:57:55Z</time>
      </trkpt>
      <trkpt lat="45.49937" lon="6.74241">
        <ele>2272.4</ele>
        <time>2021-08-12T09:57:56Z</time>
      </trkpt>
      <trkpt lat="45.49937" lon="6.74241">
        <ele>2272.4</ele>
        <time>2021-08-12T09:57:57Z</time>
      </trkpt>
      <trkpt lat="45.49937" lon="6.74241">
        <ele>2272.4</ele>
        <time>2021-08-12T09:57:58Z</time>
      </trkpt>
      <trkpt lat="45.49937" lon="6.74241">
        <ele>2272.4</ele>
        <time>2021-08-12T09:57:59Z</time>
      </trkpt>
      <trkpt lat="45.49937" lon="6.74241">
        <ele>2272.4</ele>
        <time>2021-08-12T09:58:00Z</time>
      </trkpt>
      <trkpt lat="45.49937" lon="6.74241">
        <ele>2272.4</ele>
        <time>2021-08-12T09:58:01Z</time>
      </trkpt>
      <trkpt lat="45.49937" lon="6.74242">
        <ele>2272.4</ele>
        <time>2021-08-12T09:58:02Z</time>
      </trkpt>
      <trkpt lat="45.49937" lon="6.74242">
        <ele>2272.3</ele>
        <time>2021-08-12T09:58:03Z</time>
      </trkpt>
      <trkpt lat="45.49937" lon="6.74242">
        <ele>2272.3</ele>
        <time>2021-08-12T09:58:04Z</time>
      </trkpt>
      <trkpt lat="45.49937" lon="6.74242">
        <ele>2272.3</ele>
        <time>2021-08-12T09:58:05Z</time>
      </trkpt>
      <trkpt lat="45.49938" lon="6.74242">
        <ele>2272.3</ele>
        <time>2021-08-12T09:58:06Z</time>
      </trkpt>
      <trkpt lat="45.49938" lon="6.74243">
        <ele>2272.3</ele>
        <time>2021-08-12T09:58:07Z</time>
      </trkpt>
      <trkpt lat="45.49938" lon="6.74243">
        <ele>2272.4</ele>
        <time>2021-08-12T09:58:08Z</time>
      </trkpt>
      <trkpt lat="45.49938" lon="6.74244">
        <ele>2272.3</ele>
        <time>2021-08-12T09:58:09Z</time>
      </trkpt>
      <trkpt lat="45.49938" lon="6.74244">
        <ele>2272.3</ele>
        <time>2021-08-12T09:58:10Z</time>
      </trkpt>
      <trkpt lat="45.49938" lon="6.74244">
        <ele>2272.3</ele>
        <time>2021-08-12T09:58:11Z</time>
      </trkpt>
      <trkpt lat="45.49938" lon="6.74244">
        <ele>2272.3</ele>
        <time>2021-08-12T09:58:12Z</time>
      </trkpt>
      <trkpt lat="45.49938" lon="6.74245">
        <ele>2272.3</ele>
        <time>2021-08-12T09:58:13Z</time>
      </trkpt>
      <trkpt lat="45.49938" lon="6.74245">
        <ele>2272.2</ele>
        <time>2021-08-12T09:58:14Z</time>
      </trkpt>
      <trkpt lat="45.49938" lon="6.74245">
        <ele>2272.2</ele>
        <time>2021-08-12T09:58:15Z</time>
      </trkpt>
      <trkpt lat="45.49938" lon="6.74245">
        <ele>2272.2</ele>
        <time>2021-08-12T09:58:16Z</time>
      </trkpt>
      <trkpt lat="45.49938" lon="6.74245">
        <ele>2272.2</ele>
        <time>2021-08-12T09:58:17Z</time>
      </trkpt>
      <trkpt lat="45.49938" lon="6.74245">
        <ele>2272.2</ele>
        <time>2021-08-12T09:58:18Z</time>
      </trkpt>
      <trkpt lat="45.49938" lon="6.74245">
        <ele>2272.2</ele>
        <time>2021-08-12T09:58:19Z</time>
      </trkpt>
      <trkpt lat="45.49938" lon="6.74245">
        <ele>2272.2</ele>
        <time>2021-08-12T09:58:20Z</time>
      </trkpt>
      <trkpt lat="45.49938" lon="6.74245">
        <ele>2272.2</ele>
        <time>2021-08-12T09:58:21Z</time>
      </trkpt>
      <trkpt lat="45.49938" lon="6.74245">
        <ele>2272.2</ele>
        <time>2021-08-12T09:58:22Z</time>
      </trkpt>
      <trkpt lat="45.49938" lon="6.74245">
        <ele>2272.1</ele>
        <time>2021-08-12T09:58:23Z</time>
      </trkpt>
      <trkpt lat="45.49938" lon="6.74245">
        <ele>2272.1</ele>
        <time>2021-08-12T09:58:24Z</time>
      </trkpt>
      <trkpt lat="45.49938" lon="6.74245">
        <ele>2272.1</ele>
        <time>2021-08-12T09:58:25Z</time>
      </trkpt>
      <trkpt lat="45.49938" lon="6.74245">
        <ele>2272.1</ele>
        <time>2021-08-12T09:58:26Z</time>
      </trkpt>
      <trkpt lat="45.49938" lon="6.74245">
        <ele>2272.1</ele>
        <time>2021-08-12T09:58:27Z</time>
      </trkpt>
      <trkpt lat="45.49938" lon="6.74245">
        <ele>2272.1</ele>
        <time>2021-08-12T09:58:28Z</time>
      </trkpt>
      <trkpt lat="45.49938" lon="6.74245">
        <ele>2272.1</ele>
        <time>2021-08-12T09:58:29Z</time>
      </trkpt>
      <trkpt lat="45.49938" lon="6.74245">
        <ele>2272.1</ele>
        <time>2021-08-12T09:58:30Z</time>
      </trkpt>
      <trkpt lat="45.49938" lon="6.74245">
        <ele>2272.1</ele>
        <time>2021-08-12T09:58:31Z</time>
      </trkpt>
      <trkpt lat="45.49938" lon="6.74245">
        <ele>2272.1</ele>
        <time>2021-08-12T09:58:32Z</time>
      </trkpt>
      <trkpt lat="45.49938" lon="6.74245">
        <ele>2272</ele>
        <time>2021-08-12T09:58:33Z</time>
      </trkpt>
      <trkpt lat="45.49938" lon="6.74245">
        <ele>2272</ele>
        <time>2021-08-12T09:58:34Z</time>
      </trkpt>
      <trkpt lat="45.49938" lon="6.74245">
        <ele>2272</ele>
        <time>2021-08-12T09:58:35Z</time>
      </trkpt>
      <trkpt lat="45.49938" lon="6.74245">
        <ele>2272</ele>
        <time>2021-08-12T09:58:36Z</time>
      </trkpt>
      <trkpt lat="45.49938" lon="6.74245">
        <ele>2272</ele>
        <time>2021-08-12T09:58:37Z</time>
      </trkpt>
      <trkpt lat="45.49938" lon="6.74245">
        <ele>2272</ele>
        <time>2021-08-12T09:58:38Z</time>
      </trkpt>
      <trkpt lat="45.49938" lon="6.74245">
        <ele>2272</ele>
        <time>2021-08-12T09:58:39Z</time>
      </trkpt>
      <trkpt lat="45.49938" lon="6.74245">
        <ele>2272</ele>
        <time>2021-08-12T09:58:40Z</time>
      </trkpt>
      <trkpt lat="45.49938" lon="6.74245">
        <ele>2272</ele>
        <time>2021-08-12T09:58:41Z</time>
      </trkpt>
      <trkpt lat="45.49938" lon="6.74245">
        <ele>2271.9</ele>
        <time>2021-08-12T09:58:42Z</time>
      </trkpt>
      <trkpt lat="45.49938" lon="6.74245">
        <ele>2271.9</ele>
        <time>2021-08-12T09:58:43Z</time>
      </trkpt>
      <trkpt lat="45.49938" lon="6.74245">
        <ele>2271.9</ele>
        <time>2021-08-12T09:58:44Z</time>
      </trkpt>
      <trkpt lat="45.49938" lon="6.74245">
        <ele>2271.9</ele>
        <time>2021-08-12T09:58:45Z</time>
      </trkpt>
      <trkpt lat="45.49938" lon="6.74245">
        <ele>2271.9</ele>
        <time>2021-08-12T09:58:46Z</time>
      </trkpt>
      <trkpt lat="45.49938" lon="6.74245">
        <ele>2271.9</ele>
        <time>2021-08-12T09:58:47Z</time>
      </trkpt>
      <trkpt lat="45.49938" lon="6.74245">
        <ele>2271.9</ele>
        <time>2021-08-12T09:58:48Z</time>
      </trkpt>
      <trkpt lat="45.49938" lon="6.74245">
        <ele>2271.9</ele>
        <time>2021-08-12T09:58:49Z</time>
      </trkpt>
      <trkpt lat="45.49938" lon="6.74245">
        <ele>2271.9</ele>
        <time>2021-08-12T09:58:50Z</time>
      </trkpt>
      <trkpt lat="45.49938" lon="6.74245">
        <ele>2271.8</ele>
        <time>2021-08-12T09:58:51Z</time>
      </trkpt>
      <trkpt lat="45.49938" lon="6.74245">
        <ele>2271.8</ele>
        <time>2021-08-12T09:58:52Z</time>
      </trkpt>
      <trkpt lat="45.49938" lon="6.74245">
        <ele>2271.8</ele>
        <time>2021-08-12T09:58:53Z</time>
      </trkpt>
      <trkpt lat="45.49938" lon="6.74245">
        <ele>2271.8</ele>
        <time>2021-08-12T09:58:54Z</time>
      </trkpt>
      <trkpt lat="45.49938" lon="6.74245">
        <ele>2271.8</ele>
        <time>2021-08-12T09:58:55Z</time>
      </trkpt>
      <trkpt lat="45.49938" lon="6.74245">
        <ele>2271.8</ele>
        <time>2021-08-12T09:58:56Z</time>
      </trkpt>
      <trkpt lat="45.49938" lon="6.74245">
        <ele>2271.8</ele>
        <time>2021-08-12T09:58:57Z</time>
      </trkpt>
      <trkpt lat="45.49938" lon="6.74245">
        <ele>2271.8</ele>
        <time>2021-08-12T09:58:58Z</time>
      </trkpt>
      <trkpt lat="45.49938" lon="6.74245">
        <ele>2271.8</ele>
        <time>2021-08-12T09:58:59Z</time>
      </trkpt>
      <trkpt lat="45.49938" lon="6.74245">
        <ele>2271.7</ele>
        <time>2021-08-12T09:59:00Z</time>
      </trkpt>
      <trkpt lat="45.49938" lon="6.74245">
        <ele>2271.7</ele>
        <time>2021-08-12T09:59:01Z</time>
      </trkpt>
      <trkpt lat="45.49938" lon="6.74245">
        <ele>2271.7</ele>
        <time>2021-08-12T09:59:02Z</time>
      </trkpt>
      <trkpt lat="45.49938" lon="6.74245">
        <ele>2271.7</ele>
        <time>2021-08-12T09:59:03Z</time>
      </trkpt>
      <trkpt lat="45.49938" lon="6.74245">
        <ele>2271.7</ele>
        <time>2021-08-12T09:59:04Z</time>
      </trkpt>
      <trkpt lat="45.49938" lon="6.74245">
        <ele>2271.7</ele>
        <time>2021-08-12T09:59:05Z</time>
      </trkpt>
      <trkpt lat="45.49938" lon="6.74245">
        <ele>2271.7</ele>
        <time>2021-08-12T09:59:06Z</time>
      </trkpt>
      <trkpt lat="45.49938" lon="6.74245">
        <ele>2271.7</ele>
        <time>2021-08-12T09:59:07Z</time>
      </trkpt>
      <trkpt lat="45.49938" lon="6.74245">
        <ele>2271.7</ele>
        <time>2021-08-12T09:59:08Z</time>
      </trkpt>
      <trkpt lat="45.49938" lon="6.74245">
        <ele>2271.6</ele>
        <time>2021-08-12T09:59:09Z</time>
      </trkpt>
      <trkpt lat="45.49938" lon="6.74245">
        <ele>2271.6</ele>
        <time>2021-08-12T09:59:10Z</time>
      </trkpt>
      <trkpt lat="45.49938" lon="6.74245">
        <ele>2271.6</ele>
        <time>2021-08-12T09:59:11Z</time>
      </trkpt>
      <trkpt lat="45.49938" lon="6.74245">
        <ele>2271.6</ele>
        <time>2021-08-12T09:59:12Z</time>
      </trkpt>
      <trkpt lat="45.49938" lon="6.74245">
        <ele>2271.6</ele>
        <time>2021-08-12T09:59:13Z</time>
      </trkpt>
      <trkpt lat="45.49938" lon="6.74245">
        <ele>2271.6</ele>
        <time>2021-08-12T09:59:14Z</time>
      </trkpt>
      <trkpt lat="45.49938" lon="6.74245">
        <ele>2271.6</ele>
        <time>2021-08-12T09:59:15Z</time>
      </trkpt>
      <trkpt lat="45.49938" lon="6.74245">
        <ele>2271.6</ele>
        <time>2021-08-12T09:59:16Z</time>
      </trkpt>
      <trkpt lat="45.49938" lon="6.74245">
        <ele>2271.6</ele>
        <time>2021-08-12T09:59:17Z</time>
      </trkpt>
      <trkpt lat="45.49938" lon="6.74245">
        <ele>2271.6</ele>
        <time>2021-08-12T09:59:18Z</time>
      </trkpt>
      <trkpt lat="45.49938" lon="6.74245">
        <ele>2271.6</ele>
        <time>2021-08-12T09:59:19Z</time>
      </trkpt>
      <trkpt lat="45.49938" lon="6.74245">
        <ele>2271.6</ele>
        <time>2021-08-12T09:59:20Z</time>
      </trkpt>
      <trkpt lat="45.49938" lon="6.74245">
        <ele>2271.6</ele>
        <time>2021-08-12T09:59:21Z</time>
      </trkpt>
      <trkpt lat="45.49938" lon="6.74245">
        <ele>2271.6</ele>
        <time>2021-08-12T09:59:22Z</time>
      </trkpt>
      <trkpt lat="45.49938" lon="6.74245">
        <ele>2271.6</ele>
        <time>2021-08-12T09:59:23Z</time>
      </trkpt>
      <trkpt lat="45.49938" lon="6.74245">
        <ele>2271.6</ele>
        <time>2021-08-12T09:59:24Z</time>
      </trkpt>
      <trkpt lat="45.49938" lon="6.74245">
        <ele>2271.6</ele>
        <time>2021-08-12T09:59:25Z</time>
      </trkpt>
      <trkpt lat="45.49938" lon="6.74245">
        <ele>2271.6</ele>
        <time>2021-08-12T09:59:26Z</time>
      </trkpt>
      <trkpt lat="45.49938" lon="6.74245">
        <ele>2271.6</ele>
        <time>2021-08-12T09:59:27Z</time>
      </trkpt>
      <trkpt lat="45.49938" lon="6.74245">
        <ele>2271.6</ele>
        <time>2021-08-12T09:59:28Z</time>
      </trkpt>
      <trkpt lat="45.49938" lon="6.74245">
        <ele>2271.6</ele>
        <time>2021-08-12T09:59:29Z</time>
      </trkpt>
      <trkpt lat="45.49938" lon="6.74245">
        <ele>2271.6</ele>
        <time>2021-08-12T09:59:30Z</time>
      </trkpt>
      <trkpt lat="45.49938" lon="6.74245">
        <ele>2271.6</ele>
        <time>2021-08-12T09:59:31Z</time>
      </trkpt>
      <trkpt lat="45.49938" lon="6.74245">
        <ele>2271.6</ele>
        <time>2021-08-12T09:59:32Z</time>
      </trkpt>
      <trkpt lat="45.49938" lon="6.74245">
        <ele>2271.6</ele>
        <time>2021-08-12T09:59:33Z</time>
      </trkpt>
      <trkpt lat="45.49938" lon="6.74245">
        <ele>2271.6</ele>
        <time>2021-08-12T09:59:34Z</time>
      </trkpt>
      <trkpt lat="45.49938" lon="6.74245">
        <ele>2271.6</ele>
        <time>2021-08-12T09:59:35Z</time>
      </trkpt>
      <trkpt lat="45.49938" lon="6.74245">
        <ele>2271.6</ele>
        <time>2021-08-12T09:59:36Z</time>
      </trkpt>
      <trkpt lat="45.49938" lon="6.74245">
        <ele>2271.6</ele>
        <time>2021-08-12T09:59:37Z</time>
      </trkpt>
      <trkpt lat="45.49938" lon="6.74245">
        <ele>2271.6</ele>
        <time>2021-08-12T09:59:38Z</time>
      </trkpt>
      <trkpt lat="45.49938" lon="6.74245">
        <ele>2271.6</ele>
        <time>2021-08-12T09:59:39Z</time>
      </trkpt>
      <trkpt lat="45.49938" lon="6.74245">
        <ele>2271.6</ele>
        <time>2021-08-12T09:59:40Z</time>
      </trkpt>
      <trkpt lat="45.49938" lon="6.74245">
        <ele>2271.6</ele>
        <time>2021-08-12T09:59:41Z</time>
      </trkpt>
      <trkpt lat="45.49938" lon="6.74245">
        <ele>2271.6</ele>
        <time>2021-08-12T09:59:42Z</time>
      </trkpt>
      <trkpt lat="45.49938" lon="6.74245">
        <ele>2271.6</ele>
        <time>2021-08-12T09:59:43Z</time>
      </trkpt>
      <trkpt lat="45.49938" lon="6.74245">
        <ele>2271.6</ele>
        <time>2021-08-12T09:59:44Z</time>
      </trkpt>
      <trkpt lat="45.49938" lon="6.74245">
        <ele>2271.6</ele>
        <time>2021-08-12T09:59:45Z</time>
      </trkpt>
      <trkpt lat="45.49938" lon="6.74245">
        <ele>2271.6</ele>
        <time>2021-08-12T09:59:46Z</time>
      </trkpt>
      <trkpt lat="45.49938" lon="6.74245">
        <ele>2271.6</ele>
        <time>2021-08-12T09:59:47Z</time>
      </trkpt>
      <trkpt lat="45.49938" lon="6.74245">
        <ele>2271.6</ele>
        <time>2021-08-12T09:59:48Z</time>
      </trkpt>
      <trkpt lat="45.49938" lon="6.74245">
        <ele>2271.6</ele>
        <time>2021-08-12T09:59:49Z</time>
      </trkpt>
      <trkpt lat="45.49938" lon="6.74245">
        <ele>2271.6</ele>
        <time>2021-08-12T09:59:50Z</time>
      </trkpt>
      <trkpt lat="45.49938" lon="6.74245">
        <ele>2271.6</ele>
        <time>2021-08-12T09:59:51Z</time>
      </trkpt>
      <trkpt lat="45.49938" lon="6.74245">
        <ele>2271.6</ele>
        <time>2021-08-12T09:59:52Z</time>
      </trkpt>
      <trkpt lat="45.49938" lon="6.74245">
        <ele>2271.6</ele>
        <time>2021-08-12T09:59:53Z</time>
      </trkpt>
      <trkpt lat="45.49938" lon="6.74245">
        <ele>2271.6</ele>
        <time>2021-08-12T09:59:54Z</time>
      </trkpt>
      <trkpt lat="45.49938" lon="6.74245">
        <ele>2271.6</ele>
        <time>2021-08-12T09:59:55Z</time>
      </trkpt>
      <trkpt lat="45.49938" lon="6.74245">
        <ele>2271.6</ele>
        <time>2021-08-12T09:59:56Z</time>
      </trkpt>
      <trkpt lat="45.49938" lon="6.74245">
        <ele>2271.6</ele>
        <time>2021-08-12T09:59:57Z</time>
      </trkpt>
      <trkpt lat="45.49938" lon="6.74245">
        <ele>2271.6</ele>
        <time>2021-08-12T09:59:58Z</time>
      </trkpt>
      <trkpt lat="45.49938" lon="6.74245">
        <ele>2271.6</ele>
        <time>2021-08-12T09:59:59Z</time>
      </trkpt>
      <trkpt lat="45.49938" lon="6.74245">
        <ele>2271.6</ele>
        <time>2021-08-12T10:00:00Z</time>
      </trkpt>
      <trkpt lat="45.49938" lon="6.74245">
        <ele>2271.6</ele>
        <time>2021-08-12T10:00:01Z</time>
      </trkpt>
      <trkpt lat="45.49938" lon="6.74245">
        <ele>2271.6</ele>
        <time>2021-08-12T10:00:02Z</time>
      </trkpt>
      <trkpt lat="45.49938" lon="6.74245">
        <ele>2271.6</ele>
        <time>2021-08-12T10:00:03Z</time>
      </trkpt>
      <trkpt lat="45.49938" lon="6.74245">
        <ele>2271.6</ele>
        <time>2021-08-12T10:00:04Z</time>
      </trkpt>
      <trkpt lat="45.49938" lon="6.74245">
        <ele>2271.6</ele>
        <time>2021-08-12T10:00:05Z</time>
      </trkpt>
      <trkpt lat="45.49938" lon="6.74245">
        <ele>2271.6</ele>
        <time>2021-08-12T10:00:06Z</time>
      </trkpt>
      <trkpt lat="45.49938" lon="6.74245">
        <ele>2271.6</ele>
        <time>2021-08-12T10:00:07Z</time>
      </trkpt>
      <trkpt lat="45.49938" lon="6.74245">
        <ele>2271.6</ele>
        <time>2021-08-12T10:00:08Z</time>
      </trkpt>
      <trkpt lat="45.49938" lon="6.74245">
        <ele>2271.6</ele>
        <time>2021-08-12T10:00:09Z</time>
      </trkpt>
      <trkpt lat="45.49938" lon="6.74245">
        <ele>2271.6</ele>
        <time>2021-08-12T10:00:10Z</time>
      </trkpt>
      <trkpt lat="45.49938" lon="6.74245">
        <ele>2271.6</ele>
        <time>2021-08-12T10:00:11Z</time>
      </trkpt>
      <trkpt lat="45.49938" lon="6.74245">
        <ele>2271.6</ele>
        <time>2021-08-12T10:00:12Z</time>
      </trkpt>
      <trkpt lat="45.49938" lon="6.74245">
        <ele>2271.6</ele>
        <time>2021-08-12T10:00:13Z</time>
      </trkpt>
      <trkpt lat="45.49938" lon="6.74245">
        <ele>2271.6</ele>
        <time>2021-08-12T10:00:14Z</time>
      </trkpt>
      <trkpt lat="45.49938" lon="6.74245">
        <ele>2271.6</ele>
        <time>2021-08-12T10:00:15Z</time>
      </trkpt>
      <trkpt lat="45.49938" lon="6.74245">
        <ele>2271.6</ele>
        <time>2021-08-12T10:00:16Z</time>
      </trkpt>
      <trkpt lat="45.49938" lon="6.74245">
        <ele>2271.6</ele>
        <time>2021-08-12T10:00:17Z</time>
      </trkpt>
      <trkpt lat="45.49938" lon="6.74245">
        <ele>2271.6</ele>
        <time>2021-08-12T10:00:18Z</time>
      </trkpt>
      <trkpt lat="45.49938" lon="6.74245">
        <ele>2271.6</ele>
        <time>2021-08-12T10:00:19Z</time>
      </trkpt>
      <trkpt lat="45.49938" lon="6.74245">
        <ele>2271.6</ele>
        <time>2021-08-12T10:00:20Z</time>
      </trkpt>
      <trkpt lat="45.49938" lon="6.74245">
        <ele>2271.6</ele>
        <time>2021-08-12T10:00:21Z</time>
      </trkpt>
      <trkpt lat="45.49938" lon="6.74245">
        <ele>2271.6</ele>
        <time>2021-08-12T10:00:22Z</time>
      </trkpt>
      <trkpt lat="45.49938" lon="6.74245">
        <ele>2271.6</ele>
        <time>2021-08-12T10:00:23Z</time>
      </trkpt>
      <trkpt lat="45.49938" lon="6.74245">
        <ele>2271.6</ele>
        <time>2021-08-12T10:00:24Z</time>
      </trkpt>
      <trkpt lat="45.49938" lon="6.74245">
        <ele>2271.6</ele>
        <time>2021-08-12T10:00:25Z</time>
      </trkpt>
      <trkpt lat="45.49938" lon="6.74245">
        <ele>2271.6</ele>
        <time>2021-08-12T10:00:26Z</time>
      </trkpt>
      <trkpt lat="45.49938" lon="6.74245">
        <ele>2271.6</ele>
        <time>2021-08-12T10:00:27Z</time>
      </trkpt>
      <trkpt lat="45.49938" lon="6.74245">
        <ele>2271.6</ele>
        <time>2021-08-12T10:00:28Z</time>
      </trkpt>
      <trkpt lat="45.49938" lon="6.74245">
        <ele>2271.6</ele>
        <time>2021-08-12T10:00:29Z</time>
      </trkpt>
      <trkpt lat="45.49938" lon="6.74245">
        <ele>2271.6</ele>
        <time>2021-08-12T10:00:30Z</time>
      </trkpt>
      <trkpt lat="45.49938" lon="6.74245">
        <ele>2271.6</ele>
        <time>2021-08-12T10:00:31Z</time>
      </trkpt>
      <trkpt lat="45.49938" lon="6.74245">
        <ele>2271.6</ele>
        <time>2021-08-12T10:00:32Z</time>
      </trkpt>
      <trkpt lat="45.49938" lon="6.74245">
        <ele>2271.6</ele>
        <time>2021-08-12T10:00:33Z</time>
      </trkpt>
      <trkpt lat="45.49938" lon="6.74245">
        <ele>2271.6</ele>
        <time>2021-08-12T10:00:34Z</time>
      </trkpt>
      <trkpt lat="45.49938" lon="6.74245">
        <ele>2271.6</ele>
        <time>2021-08-12T10:00:35Z</time>
      </trkpt>
      <trkpt lat="45.49938" lon="6.74245">
        <ele>2271.6</ele>
        <time>2021-08-12T10:00:36Z</time>
      </trkpt>
      <trkpt lat="45.49938" lon="6.74245">
        <ele>2271.6</ele>
        <time>2021-08-12T10:00:37Z</time>
      </trkpt>
      <trkpt lat="45.49938" lon="6.74245">
        <ele>2271.6</ele>
        <time>2021-08-12T10:00:38Z</time>
      </trkpt>
      <trkpt lat="45.49938" lon="6.74245">
        <ele>2271.6</ele>
        <time>2021-08-12T10:00:39Z</time>
      </trkpt>
      <trkpt lat="45.49938" lon="6.74245">
        <ele>2271.6</ele>
        <time>2021-08-12T10:00:40Z</time>
      </trkpt>
      <trkpt lat="45.49938" lon="6.74245">
        <ele>2271.6</ele>
        <time>2021-08-12T10:00:41Z</time>
      </trkpt>
      <trkpt lat="45.49938" lon="6.74245">
        <ele>2271.6</ele>
        <time>2021-08-12T10:00:42Z</time>
      </trkpt>
      <trkpt lat="45.49938" lon="6.74245">
        <ele>2271.6</ele>
        <time>2021-08-12T10:00:43Z</time>
      </trkpt>
      <trkpt lat="45.49938" lon="6.74245">
        <ele>2271.6</ele>
        <time>2021-08-12T10:00:44Z</time>
      </trkpt>
      <trkpt lat="45.49938" lon="6.74245">
        <ele>2271.6</ele>
        <time>2021-08-12T10:00:45Z</time>
      </trkpt>
      <trkpt lat="45.49938" lon="6.74245">
        <ele>2271.6</ele>
        <time>2021-08-12T10:00:46Z</time>
      </trkpt>
      <trkpt lat="45.49938" lon="6.74245">
        <ele>2271.6</ele>
        <time>2021-08-12T10:00:47Z</time>
      </trkpt>
      <trkpt lat="45.49938" lon="6.74245">
        <ele>2271.6</ele>
        <time>2021-08-12T10:00:48Z</time>
      </trkpt>
      <trkpt lat="45.49938" lon="6.74245">
        <ele>2271.6</ele>
        <time>2021-08-12T10:00:49Z</time>
      </trkpt>
      <trkpt lat="45.49938" lon="6.74245">
        <ele>2271.6</ele>
        <time>2021-08-12T10:00:50Z</time>
      </trkpt>
      <trkpt lat="45.49938" lon="6.74245">
        <ele>2271.6</ele>
        <time>2021-08-12T10:00:51Z</time>
      </trkpt>
      <trkpt lat="45.49938" lon="6.74245">
        <ele>2271.6</ele>
        <time>2021-08-12T10:00:52Z</time>
      </trkpt>
      <trkpt lat="45.49938" lon="6.74245">
        <ele>2271.6</ele>
        <time>2021-08-12T10:00:53Z</time>
      </trkpt>
      <trkpt lat="45.49938" lon="6.74245">
        <ele>2271.6</ele>
        <time>2021-08-12T10:00:54Z</time>
      </trkpt>
      <trkpt lat="45.49938" lon="6.74245">
        <ele>2271.6</ele>
        <time>2021-08-12T10:00:55Z</time>
      </trkpt>
      <trkpt lat="45.49938" lon="6.74245">
        <ele>2271.6</ele>
        <time>2021-08-12T10:00:56Z</time>
      </trkpt>
      <trkpt lat="45.49938" lon="6.74245">
        <ele>2271.6</ele>
        <time>2021-08-12T10:00:57Z</time>
      </trkpt>
      <trkpt lat="45.49938" lon="6.74245">
        <ele>2271.6</ele>
        <time>2021-08-12T10:00:58Z</time>
      </trkpt>
      <trkpt lat="45.49938" lon="6.74245">
        <ele>2271.6</ele>
        <time>2021-08-12T10:00:59Z</time>
      </trkpt>
      <trkpt lat="45.49938" lon="6.74245">
        <ele>2271.6</ele>
        <time>2021-08-12T10:01:00Z</time>
      </trkpt>
      <trkpt lat="45.49938" lon="6.74245">
        <ele>2271.6</ele>
        <time>2021-08-12T10:01:01Z</time>
      </trkpt>
      <trkpt lat="45.49938" lon="6.74245">
        <ele>2271.6</ele>
        <time>2021-08-12T10:01:02Z</time>
      </trkpt>
      <trkpt lat="45.49938" lon="6.74245">
        <ele>2271.6</ele>
        <time>2021-08-12T10:01:03Z</time>
      </trkpt>
      <trkpt lat="45.49938" lon="6.74245">
        <ele>2271.6</ele>
        <time>2021-08-12T10:01:04Z</time>
      </trkpt>
      <trkpt lat="45.49938" lon="6.74245">
        <ele>2271.6</ele>
        <time>2021-08-12T10:01:05Z</time>
      </trkpt>
      <trkpt lat="45.49938" lon="6.74245">
        <ele>2271.6</ele>
        <time>2021-08-12T10:01:06Z</time>
      </trkpt>
      <trkpt lat="45.49938" lon="6.74245">
        <ele>2271.6</ele>
        <time>2021-08-12T10:01:07Z</time>
      </trkpt>
      <trkpt lat="45.49938" lon="6.74245">
        <ele>2271.6</ele>
        <time>2021-08-12T10:01:08Z</time>
      </trkpt>
      <trkpt lat="45.49938" lon="6.74245">
        <ele>2271.6</ele>
        <time>2021-08-12T10:01:09Z</time>
      </trkpt>
      <trkpt lat="45.49938" lon="6.74245">
        <ele>2271.6</ele>
        <time>2021-08-12T10:01:10Z</time>
      </trkpt>
      <trkpt lat="45.49938" lon="6.74245">
        <ele>2271.6</ele>
        <time>2021-08-12T10:01:11Z</time>
      </trkpt>
      <trkpt lat="45.49938" lon="6.74245">
        <ele>2271.6</ele>
        <time>2021-08-12T10:01:12Z</time>
      </trkpt>
      <trkpt lat="45.49938" lon="6.74245">
        <ele>2271.6</ele>
        <time>2021-08-12T10:01:13Z</time>
      </trkpt>
      <trkpt lat="45.49938" lon="6.74245">
        <ele>2271.6</ele>
        <time>2021-08-12T10:01:14Z</time>
      </trkpt>
      <trkpt lat="45.49938" lon="6.74245">
        <ele>2271.6</ele>
        <time>2021-08-12T10:01:15Z</time>
      </trkpt>
      <trkpt lat="45.49938" lon="6.74245">
        <ele>2271.6</ele>
        <time>2021-08-12T10:01:16Z</time>
      </trkpt>
      <trkpt lat="45.49938" lon="6.74245">
        <ele>2271.6</ele>
        <time>2021-08-12T10:01:17Z</time>
      </trkpt>
      <trkpt lat="45.49938" lon="6.74245">
        <ele>2271.6</ele>
        <time>2021-08-12T10:01:18Z</time>
      </trkpt>
      <trkpt lat="45.49938" lon="6.74245">
        <ele>2271.6</ele>
        <time>2021-08-12T10:01:19Z</time>
      </trkpt>
      <trkpt lat="45.49938" lon="6.74245">
        <ele>2271.6</ele>
        <time>2021-08-12T10:01:20Z</time>
      </trkpt>
      <trkpt lat="45.49938" lon="6.74245">
        <ele>2271.6</ele>
        <time>2021-08-12T10:01:21Z</time>
      </trkpt>
      <trkpt lat="45.49938" lon="6.74245">
        <ele>2271.6</ele>
        <time>2021-08-12T10:01:22Z</time>
      </trkpt>
      <trkpt lat="45.49938" lon="6.74245">
        <ele>2271.6</ele>
        <time>2021-08-12T10:01:23Z</time>
      </trkpt>
      <trkpt lat="45.49938" lon="6.74245">
        <ele>2271.6</ele>
        <time>2021-08-12T10:01:24Z</time>
      </trkpt>
      <trkpt lat="45.49938" lon="6.74245">
        <ele>2271.6</ele>
        <time>2021-08-12T10:01:25Z</time>
      </trkpt>
      <trkpt lat="45.49938" lon="6.74245">
        <ele>2271.6</ele>
        <time>2021-08-12T10:01:26Z</time>
      </trkpt>
      <trkpt lat="45.49938" lon="6.74245">
        <ele>2271.6</ele>
        <time>2021-08-12T10:01:27Z</time>
      </trkpt>
      <trkpt lat="45.49938" lon="6.74245">
        <ele>2271.6</ele>
        <time>2021-08-12T10:01:28Z</time>
      </trkpt>
      <trkpt lat="45.49938" lon="6.74245">
        <ele>2271.6</ele>
        <time>2021-08-12T10:01:29Z</time>
      </trkpt>
      <trkpt lat="45.49938" lon="6.74245">
        <ele>2271.6</ele>
        <time>2021-08-12T10:01:30Z</time>
      </trkpt>
      <trkpt lat="45.49938" lon="6.74245">
        <ele>2271.6</ele>
        <time>2021-08-12T10:01:31Z</time>
      </trkpt>
      <trkpt lat="45.49938" lon="6.74245">
        <ele>2271.6</ele>
        <time>2021-08-12T10:01:32Z</time>
      </trkpt>
      <trkpt lat="45.49938" lon="6.74245">
        <ele>2271.6</ele>
        <time>2021-08-12T10:01:33Z</time>
      </trkpt>
      <trkpt lat="45.49938" lon="6.74245">
        <ele>2271.6</ele>
        <time>2021-08-12T10:01:34Z</time>
      </trkpt>
      <trkpt lat="45.49938" lon="6.74245">
        <ele>2271.6</ele>
        <time>2021-08-12T10:01:35Z</time>
      </trkpt>
      <trkpt lat="45.49938" lon="6.74245">
        <ele>2271.6</ele>
        <time>2021-08-12T10:01:36Z</time>
      </trkpt>
      <trkpt lat="45.49938" lon="6.74245">
        <ele>2271.6</ele>
        <time>2021-08-12T10:01:37Z</time>
      </trkpt>
      <trkpt lat="45.49938" lon="6.74245">
        <ele>2271.6</ele>
        <time>2021-08-12T10:01:38Z</time>
      </trkpt>
      <trkpt lat="45.49938" lon="6.74245">
        <ele>2271.6</ele>
        <time>2021-08-12T10:01:39Z</time>
      </trkpt>
      <trkpt lat="45.49938" lon="6.74245">
        <ele>2271.6</ele>
        <time>2021-08-12T10:01:40Z</time>
      </trkpt>
      <trkpt lat="45.49938" lon="6.74245">
        <ele>2271.6</ele>
        <time>2021-08-12T10:01:41Z</time>
      </trkpt>
      <trkpt lat="45.49938" lon="6.74245">
        <ele>2271.6</ele>
        <time>2021-08-12T10:01:42Z</time>
      </trkpt>
      <trkpt lat="45.49938" lon="6.74245">
        <ele>2271.6</ele>
        <time>2021-08-12T10:01:43Z</time>
      </trkpt>
      <trkpt lat="45.49938" lon="6.74245">
        <ele>2271.6</ele>
        <time>2021-08-12T10:01:44Z</time>
      </trkpt>
      <trkpt lat="45.49938" lon="6.74245">
        <ele>2271.6</ele>
        <time>2021-08-12T10:01:45Z</time>
      </trkpt>
      <trkpt lat="45.49938" lon="6.74245">
        <ele>2271.6</ele>
        <time>2021-08-12T10:01:46Z</time>
      </trkpt>
      <trkpt lat="45.49938" lon="6.74245">
        <ele>2271.6</ele>
        <time>2021-08-12T10:01:47Z</time>
      </trkpt>
      <trkpt lat="45.49938" lon="6.74245">
        <ele>2271.6</ele>
        <time>2021-08-12T10:01:48Z</time>
      </trkpt>
      <trkpt lat="45.49938" lon="6.74245">
        <ele>2271.6</ele>
        <time>2021-08-12T10:01:49Z</time>
      </trkpt>
      <trkpt lat="45.49938" lon="6.74245">
        <ele>2271.6</ele>
        <time>2021-08-12T10:01:50Z</time>
      </trkpt>
      <trkpt lat="45.49938" lon="6.74245">
        <ele>2271.6</ele>
        <time>2021-08-12T10:01:51Z</time>
      </trkpt>
      <trkpt lat="45.49938" lon="6.74245">
        <ele>2271.6</ele>
        <time>2021-08-12T10:01:52Z</time>
      </trkpt>
      <trkpt lat="45.49938" lon="6.74245">
        <ele>2271.6</ele>
        <time>2021-08-12T10:01:53Z</time>
      </trkpt>
      <trkpt lat="45.49938" lon="6.74245">
        <ele>2271.6</ele>
        <time>2021-08-12T10:01:54Z</time>
      </trkpt>
      <trkpt lat="45.49938" lon="6.74245">
        <ele>2271.6</ele>
        <time>2021-08-12T10:01:55Z</time>
      </trkpt>
      <trkpt lat="45.49938" lon="6.74245">
        <ele>2271.6</ele>
        <time>2021-08-12T10:01:56Z</time>
      </trkpt>
      <trkpt lat="45.49938" lon="6.74245">
        <ele>2271.6</ele>
        <time>2021-08-12T10:01:57Z</time>
      </trkpt>
      <trkpt lat="45.49938" lon="6.74245">
        <ele>2271.6</ele>
        <time>2021-08-12T10:01:58Z</time>
      </trkpt>
      <trkpt lat="45.49938" lon="6.74245">
        <ele>2271.5</ele>
        <time>2021-08-12T10:01:59Z</time>
      </trkpt>
      <trkpt lat="45.49939" lon="6.74245">
        <ele>2271.5</ele>
        <time>2021-08-12T10:02:00Z</time>
      </trkpt>
      <trkpt lat="45.49939" lon="6.74245">
        <ele>2271.5</ele>
        <time>2021-08-12T10:02:01Z</time>
      </trkpt>
      <trkpt lat="45.49939" lon="6.74245">
        <ele>2271.5</ele>
        <time>2021-08-12T10:02:02Z</time>
      </trkpt>
      <trkpt lat="45.4994" lon="6.74245">
        <ele>2271.4</ele>
        <time>2021-08-12T10:02:03Z</time>
      </trkpt>
      <trkpt lat="45.4994" lon="6.74246">
        <ele>2271.4</ele>
        <time>2021-08-12T10:02:04Z</time>
      </trkpt>
      <trkpt lat="45.49941" lon="6.74246">
        <ele>2271.4</ele>
        <time>2021-08-12T10:02:05Z</time>
      </trkpt>
      <trkpt lat="45.49941" lon="6.74246">
        <ele>2271.3</ele>
        <time>2021-08-12T10:02:06Z</time>
      </trkpt>
      <trkpt lat="45.49942" lon="6.74247">
        <ele>2271.3</ele>
        <time>2021-08-12T10:02:07Z</time>
      </trkpt>
      <trkpt lat="45.49943" lon="6.74247">
        <ele>2271.2</ele>
        <time>2021-08-12T10:02:08Z</time>
      </trkpt>
      <trkpt lat="45.49944" lon="6.74248">
        <ele>2271.1</ele>
        <time>2021-08-12T10:02:09Z</time>
      </trkpt>
      <trkpt lat="45.49945" lon="6.74248">
        <ele>2271</ele>
        <time>2021-08-12T10:02:10Z</time>
      </trkpt>
      <trkpt lat="45.49946" lon="6.74249">
        <ele>2270.9</ele>
        <time>2021-08-12T10:02:11Z</time>
      </trkpt>
      <trkpt lat="45.49947" lon="6.7425">
        <ele>2270.8</ele>
        <time>2021-08-12T10:02:12Z</time>
      </trkpt>
      <trkpt lat="45.49948" lon="6.7425">
        <ele>2270.7</ele>
        <time>2021-08-12T10:02:13Z</time>
      </trkpt>
      <trkpt lat="45.49949" lon="6.74251">
        <ele>2270.6</ele>
        <time>2021-08-12T10:02:14Z</time>
      </trkpt>
      <trkpt lat="45.4995" lon="6.74251">
        <ele>2270.5</ele>
        <time>2021-08-12T10:02:15Z</time>
      </trkpt>
      <trkpt lat="45.4995" lon="6.74251">
        <ele>2270.4</ele>
        <time>2021-08-12T10:02:16Z</time>
      </trkpt>
      <trkpt lat="45.49951" lon="6.74251">
        <ele>2270.3</ele>
        <time>2021-08-12T10:02:17Z</time>
      </trkpt>
      <trkpt lat="45.49952" lon="6.74251">
        <ele>2270.3</ele>
        <time>2021-08-12T10:02:18Z</time>
      </trkpt>
      <trkpt lat="45.49952" lon="6.74251">
        <ele>2270.2</ele>
        <time>2021-08-12T10:02:19Z</time>
      </trkpt>
      <trkpt lat="45.49953" lon="6.74251">
        <ele>2270.1</ele>
        <time>2021-08-12T10:02:20Z</time>
      </trkpt>
      <trkpt lat="45.49954" lon="6.7425">
        <ele>2270.1</ele>
        <time>2021-08-12T10:02:21Z</time>
      </trkpt>
      <trkpt lat="45.49954" lon="6.7425">
        <ele>2270</ele>
        <time>2021-08-12T10:02:22Z</time>
      </trkpt>
      <trkpt lat="45.49955" lon="6.74249">
        <ele>2269.9</ele>
        <time>2021-08-12T10:02:23Z</time>
      </trkpt>
      <trkpt lat="45.49956" lon="6.74249">
        <ele>2269.8</ele>
        <time>2021-08-12T10:02:24Z</time>
      </trkpt>
      <trkpt lat="45.49956" lon="6.74248">
        <ele>2269.7</ele>
        <time>2021-08-12T10:02:25Z</time>
      </trkpt>
      <trkpt lat="45.49957" lon="6.74248">
        <ele>2269.7</ele>
        <time>2021-08-12T10:02:26Z</time>
      </trkpt>
      <trkpt lat="45.49958" lon="6.74248">
        <ele>2269.6</ele>
        <time>2021-08-12T10:02:27Z</time>
      </trkpt>
      <trkpt lat="45.49959" lon="6.74248">
        <ele>2269.5</ele>
        <time>2021-08-12T10:02:28Z</time>
      </trkpt>
      <trkpt lat="45.49959" lon="6.74248">
        <ele>2269.4</ele>
        <time>2021-08-12T10:02:29Z</time>
      </trkpt>
      <trkpt lat="45.4996" lon="6.74248">
        <ele>2269.3</ele>
        <time>2021-08-12T10:02:30Z</time>
      </trkpt>
      <trkpt lat="45.49961" lon="6.74249">
        <ele>2269.2</ele>
        <time>2021-08-12T10:02:31Z</time>
      </trkpt>
      <trkpt lat="45.49962" lon="6.74249">
        <ele>2269.1</ele>
        <time>2021-08-12T10:02:32Z</time>
      </trkpt>
      <trkpt lat="45.49963" lon="6.74249">
        <ele>2269</ele>
        <time>2021-08-12T10:02:33Z</time>
      </trkpt>
      <trkpt lat="45.49964" lon="6.7425">
        <ele>2268.9</ele>
        <time>2021-08-12T10:02:34Z</time>
      </trkpt>
      <trkpt lat="45.49964" lon="6.7425">
        <ele>2268.8</ele>
        <time>2021-08-12T10:02:35Z</time>
      </trkpt>
      <trkpt lat="45.49965" lon="6.7425">
        <ele>2268.7</ele>
        <time>2021-08-12T10:02:36Z</time>
      </trkpt>
      <trkpt lat="45.49966" lon="6.7425">
        <ele>2268.6</ele>
        <time>2021-08-12T10:02:37Z</time>
      </trkpt>
      <trkpt lat="45.49967" lon="6.7425">
        <ele>2268.5</ele>
        <time>2021-08-12T10:02:38Z</time>
      </trkpt>
      <trkpt lat="45.49967" lon="6.7425">
        <ele>2268.5</ele>
        <time>2021-08-12T10:02:39Z</time>
      </trkpt>
      <trkpt lat="45.49968" lon="6.7425">
        <ele>2268.4</ele>
        <time>2021-08-12T10:02:40Z</time>
      </trkpt>
      <trkpt lat="45.49969" lon="6.7425">
        <ele>2268.3</ele>
        <time>2021-08-12T10:02:41Z</time>
      </trkpt>
      <trkpt lat="45.49969" lon="6.7425">
        <ele>2268.2</ele>
        <time>2021-08-12T10:02:42Z</time>
      </trkpt>
      <trkpt lat="45.4997" lon="6.74249">
        <ele>2268.2</ele>
        <time>2021-08-12T10:02:43Z</time>
      </trkpt>
      <trkpt lat="45.4997" lon="6.74249">
        <ele>2268.1</ele>
        <time>2021-08-12T10:02:44Z</time>
      </trkpt>
      <trkpt lat="45.49971" lon="6.74248">
        <ele>2268</ele>
        <time>2021-08-12T10:02:45Z</time>
      </trkpt>
      <trkpt lat="45.49971" lon="6.74248">
        <ele>2268</ele>
        <time>2021-08-12T10:02:46Z</time>
      </trkpt>
      <trkpt lat="45.49972" lon="6.74247">
        <ele>2267.9</ele>
        <time>2021-08-12T10:02:47Z</time>
      </trkpt>
      <trkpt lat="45.49972" lon="6.74246">
        <ele>2267.8</ele>
        <time>2021-08-12T10:02:48Z</time>
      </trkpt>
      <trkpt lat="45.49973" lon="6.74246">
        <ele>2267.7</ele>
        <time>2021-08-12T10:02:49Z</time>
      </trkpt>
      <trkpt lat="45.49973" lon="6.74245">
        <ele>2267.6</ele>
        <time>2021-08-12T10:02:50Z</time>
      </trkpt>
      <trkpt lat="45.49974" lon="6.74244">
        <ele>2267.5</ele>
        <time>2021-08-12T10:02:51Z</time>
      </trkpt>
      <trkpt lat="45.49975" lon="6.74243">
        <ele>2267.4</ele>
        <time>2021-08-12T10:02:52Z</time>
      </trkpt>
      <trkpt lat="45.49976" lon="6.74243">
        <ele>2267.3</ele>
        <time>2021-08-12T10:02:53Z</time>
      </trkpt>
      <trkpt lat="45.49976" lon="6.74242">
        <ele>2267.2</ele>
        <time>2021-08-12T10:02:54Z</time>
      </trkpt>
      <trkpt lat="45.49977" lon="6.74241">
        <ele>2267</ele>
        <time>2021-08-12T10:02:55Z</time>
      </trkpt>
      <trkpt lat="45.49978" lon="6.7424">
        <ele>2266.9</ele>
        <time>2021-08-12T10:02:56Z</time>
      </trkpt>
      <trkpt lat="45.49978" lon="6.74239">
        <ele>2266.8</ele>
        <time>2021-08-12T10:02:57Z</time>
      </trkpt>
      <trkpt lat="45.49979" lon="6.74238">
        <ele>2266.7</ele>
        <time>2021-08-12T10:02:58Z</time>
      </trkpt>
      <trkpt lat="45.49979" lon="6.74237">
        <ele>2266.6</ele>
        <time>2021-08-12T10:02:59Z</time>
      </trkpt>
      <trkpt lat="45.4998" lon="6.74236">
        <ele>2266.5</ele>
        <time>2021-08-12T10:03:00Z</time>
      </trkpt>
      <trkpt lat="45.4998" lon="6.74235">
        <ele>2266.4</ele>
        <time>2021-08-12T10:03:01Z</time>
      </trkpt>
      <trkpt lat="45.49981" lon="6.74234">
        <ele>2266.3</ele>
        <time>2021-08-12T10:03:02Z</time>
      </trkpt>
      <trkpt lat="45.49981" lon="6.74233">
        <ele>2266.2</ele>
        <time>2021-08-12T10:03:03Z</time>
      </trkpt>
      <trkpt lat="45.49981" lon="6.74232">
        <ele>2266.1</ele>
        <time>2021-08-12T10:03:04Z</time>
      </trkpt>
      <trkpt lat="45.49982" lon="6.74232">
        <ele>2266</ele>
        <time>2021-08-12T10:03:05Z</time>
      </trkpt>
      <trkpt lat="45.49982" lon="6.74231">
        <ele>2266</ele>
        <time>2021-08-12T10:03:06Z</time>
      </trkpt>
      <trkpt lat="45.49983" lon="6.7423">
        <ele>2265.9</ele>
        <time>2021-08-12T10:03:07Z</time>
      </trkpt>
      <trkpt lat="45.49983" lon="6.74229">
        <ele>2265.8</ele>
        <time>2021-08-12T10:03:08Z</time>
      </trkpt>
      <trkpt lat="45.49984" lon="6.74229">
        <ele>2265.7</ele>
        <time>2021-08-12T10:03:09Z</time>
      </trkpt>
      <trkpt lat="45.49985" lon="6.74228">
        <ele>2265.6</ele>
        <time>2021-08-12T10:03:10Z</time>
      </trkpt>
      <trkpt lat="45.49985" lon="6.74227">
        <ele>2265.5</ele>
        <time>2021-08-12T10:03:11Z</time>
      </trkpt>
      <trkpt lat="45.49986" lon="6.74227">
        <ele>2265.4</ele>
        <time>2021-08-12T10:03:12Z</time>
      </trkpt>
      <trkpt lat="45.49987" lon="6.74227">
        <ele>2265.3</ele>
        <time>2021-08-12T10:03:13Z</time>
      </trkpt>
      <trkpt lat="45.49987" lon="6.74226">
        <ele>2265.2</ele>
        <time>2021-08-12T10:03:14Z</time>
      </trkpt>
      <trkpt lat="45.49988" lon="6.74226">
        <ele>2265.1</ele>
        <time>2021-08-12T10:03:15Z</time>
      </trkpt>
      <trkpt lat="45.49989" lon="6.74225">
        <ele>2265</ele>
        <time>2021-08-12T10:03:16Z</time>
      </trkpt>
      <trkpt lat="45.49989" lon="6.74225">
        <ele>2264.9</ele>
        <time>2021-08-12T10:03:17Z</time>
      </trkpt>
      <trkpt lat="45.4999" lon="6.74225">
        <ele>2264.9</ele>
        <time>2021-08-12T10:03:18Z</time>
      </trkpt>
      <trkpt lat="45.49991" lon="6.74224">
        <ele>2264.8</ele>
        <time>2021-08-12T10:03:19Z</time>
      </trkpt>
      <trkpt lat="45.49991" lon="6.74224">
        <ele>2264.7</ele>
        <time>2021-08-12T10:03:20Z</time>
      </trkpt>
      <trkpt lat="45.49991" lon="6.74224">
        <ele>2264.7</ele>
        <time>2021-08-12T10:03:21Z</time>
      </trkpt>
      <trkpt lat="45.49992" lon="6.74223">
        <ele>2264.6</ele>
        <time>2021-08-12T10:03:22Z</time>
      </trkpt>
      <trkpt lat="45.49992" lon="6.74223">
        <ele>2264.6</ele>
        <time>2021-08-12T10:03:23Z</time>
      </trkpt>
      <trkpt lat="45.49992" lon="6.74223">
        <ele>2264.5</ele>
        <time>2021-08-12T10:03:24Z</time>
      </trkpt>
      <trkpt lat="45.49992" lon="6.74222">
        <ele>2264.5</ele>
        <time>2021-08-12T10:03:25Z</time>
      </trkpt>
      <trkpt lat="45.49992" lon="6.74222">
        <ele>2264.5</ele>
        <time>2021-08-12T10:03:26Z</time>
      </trkpt>
      <trkpt lat="45.49992" lon="6.74222">
        <ele>2264.4</ele>
        <time>2021-08-12T10:03:27Z</time>
      </trkpt>
      <trkpt lat="45.49992" lon="6.74222">
        <ele>2264.4</ele>
        <time>2021-08-12T10:03:28Z</time>
      </trkpt>
      <trkpt lat="45.49992" lon="6.74222">
        <ele>2264.4</ele>
        <time>2021-08-12T10:03:29Z</time>
      </trkpt>
      <trkpt lat="45.49992" lon="6.74222">
        <ele>2264.4</ele>
        <time>2021-08-12T10:03:30Z</time>
      </trkpt>
      <trkpt lat="45.49992" lon="6.74222">
        <ele>2264.4</ele>
        <time>2021-08-12T10:03:31Z</time>
      </trkpt>
      <trkpt lat="45.49992" lon="6.74222">
        <ele>2264.4</ele>
        <time>2021-08-12T10:03:32Z</time>
      </trkpt>
      <trkpt lat="45.49992" lon="6.74222">
        <ele>2264.4</ele>
        <time>2021-08-12T10:03:33Z</time>
      </trkpt>
      <trkpt lat="45.49992" lon="6.74222">
        <ele>2264.4</ele>
        <time>2021-08-12T10:03:34Z</time>
      </trkpt>
      <trkpt lat="45.49992" lon="6.74222">
        <ele>2264.4</ele>
        <time>2021-08-12T10:03:35Z</time>
      </trkpt>
      <trkpt lat="45.49992" lon="6.74222">
        <ele>2264.4</ele>
        <time>2021-08-12T10:03:36Z</time>
      </trkpt>
      <trkpt lat="45.49992" lon="6.74222">
        <ele>2264.4</ele>
        <time>2021-08-12T10:03:37Z</time>
      </trkpt>
      <trkpt lat="45.49992" lon="6.74221">
        <ele>2264.3</ele>
        <time>2021-08-12T10:03:38Z</time>
      </trkpt>
      <trkpt lat="45.49993" lon="6.74221">
        <ele>2264.3</ele>
        <time>2021-08-12T10:03:39Z</time>
      </trkpt>
      <trkpt lat="45.49993" lon="6.74221">
        <ele>2264.2</ele>
        <time>2021-08-12T10:03:40Z</time>
      </trkpt>
      <trkpt lat="45.49993" lon="6.7422">
        <ele>2264.1</ele>
        <time>2021-08-12T10:03:41Z</time>
      </trkpt>
      <trkpt lat="45.49994" lon="6.7422">
        <ele>2264.1</ele>
        <time>2021-08-12T10:03:42Z</time>
      </trkpt>
      <trkpt lat="45.49994" lon="6.74219">
        <ele>2264</ele>
        <time>2021-08-12T10:03:43Z</time>
      </trkpt>
      <trkpt lat="45.49995" lon="6.74219">
        <ele>2263.9</ele>
        <time>2021-08-12T10:03:44Z</time>
      </trkpt>
      <trkpt lat="45.49995" lon="6.74218">
        <ele>2263.8</ele>
        <time>2021-08-12T10:03:45Z</time>
      </trkpt>
      <trkpt lat="45.49996" lon="6.74218">
        <ele>2263.7</ele>
        <time>2021-08-12T10:03:46Z</time>
      </trkpt>
      <trkpt lat="45.49996" lon="6.74217">
        <ele>2263.6</ele>
        <time>2021-08-12T10:03:47Z</time>
      </trkpt>
      <trkpt lat="45.49997" lon="6.74216">
        <ele>2263.5</ele>
        <time>2021-08-12T10:03:48Z</time>
      </trkpt>
      <trkpt lat="45.49997" lon="6.74216">
        <ele>2263.5</ele>
        <time>2021-08-12T10:03:49Z</time>
      </trkpt>
      <trkpt lat="45.49998" lon="6.74215">
        <ele>2263.4</ele>
        <time>2021-08-12T10:03:50Z</time>
      </trkpt>
      <trkpt lat="45.49998" lon="6.74214">
        <ele>2263.3</ele>
        <time>2021-08-12T10:03:51Z</time>
      </trkpt>
      <trkpt lat="45.49998" lon="6.74214">
        <ele>2263.2</ele>
        <time>2021-08-12T10:03:52Z</time>
      </trkpt>
      <trkpt lat="45.49999" lon="6.74213">
        <ele>2263.1</ele>
        <time>2021-08-12T10:03:53Z</time>
      </trkpt>
      <trkpt lat="45.49999" lon="6.74212">
        <ele>2263</ele>
        <time>2021-08-12T10:03:54Z</time>
      </trkpt>
      <trkpt lat="45.5" lon="6.74211">
        <ele>2262.9</ele>
        <time>2021-08-12T10:03:55Z</time>
      </trkpt>
      <trkpt lat="45.5" lon="6.74211">
        <ele>2262.8</ele>
        <time>2021-08-12T10:03:56Z</time>
      </trkpt>
      <trkpt lat="45.5" lon="6.7421">
        <ele>2262.7</ele>
        <time>2021-08-12T10:03:57Z</time>
      </trkpt>
      <trkpt lat="45.50001" lon="6.74209">
        <ele>2262.6</ele>
        <time>2021-08-12T10:03:58Z</time>
      </trkpt>
      <trkpt lat="45.50001" lon="6.74209">
        <ele>2262.6</ele>
        <time>2021-08-12T10:03:59Z</time>
      </trkpt>
      <trkpt lat="45.50001" lon="6.74208">
        <ele>2262.5</ele>
        <time>2021-08-12T10:04:00Z</time>
      </trkpt>
      <trkpt lat="45.50002" lon="6.74208">
        <ele>2262.4</ele>
        <time>2021-08-12T10:04:01Z</time>
      </trkpt>
      <trkpt lat="45.50002" lon="6.74207">
        <ele>2262.3</ele>
        <time>2021-08-12T10:04:02Z</time>
      </trkpt>
      <trkpt lat="45.50002" lon="6.74207">
        <ele>2262.3</ele>
        <time>2021-08-12T10:04:03Z</time>
      </trkpt>
      <trkpt lat="45.50002" lon="6.74206">
        <ele>2262.2</ele>
        <time>2021-08-12T10:04:04Z</time>
      </trkpt>
      <trkpt lat="45.50003" lon="6.74205">
        <ele>2262.1</ele>
        <time>2021-08-12T10:04:05Z</time>
      </trkpt>
      <trkpt lat="45.50003" lon="6.74205">
        <ele>2262.1</ele>
        <time>2021-08-12T10:04:06Z</time>
      </trkpt>
      <trkpt lat="45.50003" lon="6.74204">
        <ele>2262</ele>
        <time>2021-08-12T10:04:07Z</time>
      </trkpt>
      <trkpt lat="45.50003" lon="6.74204">
        <ele>2262</ele>
        <time>2021-08-12T10:04:08Z</time>
      </trkpt>
      <trkpt lat="45.50003" lon="6.74203">
        <ele>2261.9</ele>
        <time>2021-08-12T10:04:09Z</time>
      </trkpt>
      <trkpt lat="45.50003" lon="6.74203">
        <ele>2261.9</ele>
        <time>2021-08-12T10:04:10Z</time>
      </trkpt>
      <trkpt lat="45.50003" lon="6.74202">
        <ele>2261.8</ele>
        <time>2021-08-12T10:04:11Z</time>
      </trkpt>
      <trkpt lat="45.50004" lon="6.74202">
        <ele>2261.7</ele>
        <time>2021-08-12T10:04:12Z</time>
      </trkpt>
      <trkpt lat="45.50004" lon="6.74201">
        <ele>2261.7</ele>
        <time>2021-08-12T10:04:13Z</time>
      </trkpt>
      <trkpt lat="45.50004" lon="6.74201">
        <ele>2261.6</ele>
        <time>2021-08-12T10:04:14Z</time>
      </trkpt>
      <trkpt lat="45.50004" lon="6.742">
        <ele>2261.5</ele>
        <time>2021-08-12T10:04:15Z</time>
      </trkpt>
      <trkpt lat="45.50004" lon="6.74199">
        <ele>2261.5</ele>
        <time>2021-08-12T10:04:16Z</time>
      </trkpt>
      <trkpt lat="45.50005" lon="6.74199">
        <ele>2261.4</ele>
        <time>2021-08-12T10:04:17Z</time>
      </trkpt>
      <trkpt lat="45.50005" lon="6.74198">
        <ele>2261.3</ele>
        <time>2021-08-12T10:04:18Z</time>
      </trkpt>
      <trkpt lat="45.50006" lon="6.74198">
        <ele>2261.2</ele>
        <time>2021-08-12T10:04:19Z</time>
      </trkpt>
      <trkpt lat="45.50006" lon="6.74197">
        <ele>2261.1</ele>
        <time>2021-08-12T10:04:20Z</time>
      </trkpt>
      <trkpt lat="45.50007" lon="6.74196">
        <ele>2261</ele>
        <time>2021-08-12T10:04:21Z</time>
      </trkpt>
      <trkpt lat="45.50007" lon="6.74196">
        <ele>2260.9</ele>
        <time>2021-08-12T10:04:22Z</time>
      </trkpt>
      <trkpt lat="45.50008" lon="6.74195">
        <ele>2260.8</ele>
        <time>2021-08-12T10:04:23Z</time>
      </trkpt>
      <trkpt lat="45.50008" lon="6.74194">
        <ele>2260.7</ele>
        <time>2021-08-12T10:04:24Z</time>
      </trkpt>
      <trkpt lat="45.50009" lon="6.74194">
        <ele>2260.6</ele>
        <time>2021-08-12T10:04:25Z</time>
      </trkpt>
      <trkpt lat="45.5001" lon="6.74193">
        <ele>2260.5</ele>
        <time>2021-08-12T10:04:26Z</time>
      </trkpt>
      <trkpt lat="45.50011" lon="6.74193">
        <ele>2260.3</ele>
        <time>2021-08-12T10:04:27Z</time>
      </trkpt>
      <trkpt lat="45.50011" lon="6.74192">
        <ele>2260.2</ele>
        <time>2021-08-12T10:04:28Z</time>
      </trkpt>
      <trkpt lat="45.50012" lon="6.74192">
        <ele>2260.1</ele>
        <time>2021-08-12T10:04:29Z</time>
      </trkpt>
      <trkpt lat="45.50013" lon="6.74191">
        <ele>2260</ele>
        <time>2021-08-12T10:04:30Z</time>
      </trkpt>
      <trkpt lat="45.50013" lon="6.74191">
        <ele>2259.9</ele>
        <time>2021-08-12T10:04:31Z</time>
      </trkpt>
      <trkpt lat="45.50014" lon="6.7419">
        <ele>2259.8</ele>
        <time>2021-08-12T10:04:32Z</time>
      </trkpt>
      <trkpt lat="45.50015" lon="6.7419">
        <ele>2259.7</ele>
        <time>2021-08-12T10:04:33Z</time>
      </trkpt>
      <trkpt lat="45.50015" lon="6.74189">
        <ele>2259.6</ele>
        <time>2021-08-12T10:04:34Z</time>
      </trkpt>
      <trkpt lat="45.50016" lon="6.74189">
        <ele>2259.5</ele>
        <time>2021-08-12T10:04:35Z</time>
      </trkpt>
      <trkpt lat="45.50017" lon="6.74188">
        <ele>2259.4</ele>
        <time>2021-08-12T10:04:36Z</time>
      </trkpt>
      <trkpt lat="45.50017" lon="6.74188">
        <ele>2259.3</ele>
        <time>2021-08-12T10:04:37Z</time>
      </trkpt>
      <trkpt lat="45.50018" lon="6.74187">
        <ele>2259.2</ele>
        <time>2021-08-12T10:04:38Z</time>
      </trkpt>
      <trkpt lat="45.50019" lon="6.74187">
        <ele>2259.1</ele>
        <time>2021-08-12T10:04:39Z</time>
      </trkpt>
      <trkpt lat="45.50019" lon="6.74186">
        <ele>2259</ele>
        <time>2021-08-12T10:04:40Z</time>
      </trkpt>
      <trkpt lat="45.5002" lon="6.74185">
        <ele>2258.9</ele>
        <time>2021-08-12T10:04:41Z</time>
      </trkpt>
      <trkpt lat="45.5002" lon="6.74185">
        <ele>2258.9</ele>
        <time>2021-08-12T10:04:42Z</time>
      </trkpt>
      <trkpt lat="45.5002" lon="6.74184">
        <ele>2258.8</ele>
        <time>2021-08-12T10:04:43Z</time>
      </trkpt>
      <trkpt lat="45.50021" lon="6.74184">
        <ele>2258.7</ele>
        <time>2021-08-12T10:04:44Z</time>
      </trkpt>
      <trkpt lat="45.50021" lon="6.74183">
        <ele>2258.6</ele>
        <time>2021-08-12T10:04:45Z</time>
      </trkpt>
      <trkpt lat="45.50021" lon="6.74182">
        <ele>2258.6</ele>
        <time>2021-08-12T10:04:46Z</time>
      </trkpt>
      <trkpt lat="45.50022" lon="6.74182">
        <ele>2258.5</ele>
        <time>2021-08-12T10:04:47Z</time>
      </trkpt>
      <trkpt lat="45.50022" lon="6.74181">
        <ele>2258.4</ele>
        <time>2021-08-12T10:04:48Z</time>
      </trkpt>
      <trkpt lat="45.50022" lon="6.7418">
        <ele>2258.3</ele>
        <time>2021-08-12T10:04:49Z</time>
      </trkpt>
      <trkpt lat="45.50022" lon="6.7418">
        <ele>2258.3</ele>
        <time>2021-08-12T10:04:50Z</time>
      </trkpt>
      <trkpt lat="45.50023" lon="6.74179">
        <ele>2258.2</ele>
        <time>2021-08-12T10:04:51Z</time>
      </trkpt>
      <trkpt lat="45.50023" lon="6.74178">
        <ele>2258.1</ele>
        <time>2021-08-12T10:04:52Z</time>
      </trkpt>
      <trkpt lat="45.50023" lon="6.74178">
        <ele>2258.1</ele>
        <time>2021-08-12T10:04:53Z</time>
      </trkpt>
      <trkpt lat="45.50024" lon="6.74177">
        <ele>2258</ele>
        <time>2021-08-12T10:04:54Z</time>
      </trkpt>
      <trkpt lat="45.50024" lon="6.74176">
        <ele>2257.9</ele>
        <time>2021-08-12T10:04:55Z</time>
      </trkpt>
      <trkpt lat="45.50025" lon="6.74176">
        <ele>2257.8</ele>
        <time>2021-08-12T10:04:56Z</time>
      </trkpt>
      <trkpt lat="45.50025" lon="6.74175">
        <ele>2257.7</ele>
        <time>2021-08-12T10:04:57Z</time>
      </trkpt>
      <trkpt lat="45.50026" lon="6.74174">
        <ele>2257.6</ele>
        <time>2021-08-12T10:04:58Z</time>
      </trkpt>
      <trkpt lat="45.50027" lon="6.74174">
        <ele>2257.5</ele>
        <time>2021-08-12T10:04:59Z</time>
      </trkpt>
      <trkpt lat="45.50027" lon="6.74173">
        <ele>2257.4</ele>
        <time>2021-08-12T10:05:00Z</time>
      </trkpt>
      <trkpt lat="45.50028" lon="6.74173">
        <ele>2257.3</ele>
        <time>2021-08-12T10:05:01Z</time>
      </trkpt>
      <trkpt lat="45.50029" lon="6.74172">
        <ele>2257.2</ele>
        <time>2021-08-12T10:05:02Z</time>
      </trkpt>
      <trkpt lat="45.5003" lon="6.74172">
        <ele>2257.1</ele>
        <time>2021-08-12T10:05:03Z</time>
      </trkpt>
      <trkpt lat="45.50031" lon="6.74172">
        <ele>2257</ele>
        <time>2021-08-12T10:05:04Z</time>
      </trkpt>
      <trkpt lat="45.50032" lon="6.74171">
        <ele>2256.9</ele>
        <time>2021-08-12T10:05:05Z</time>
      </trkpt>
      <trkpt lat="45.50033" lon="6.74171">
        <ele>2256.8</ele>
        <time>2021-08-12T10:05:06Z</time>
      </trkpt>
      <trkpt lat="45.50034" lon="6.74171">
        <ele>2256.7</ele>
        <time>2021-08-12T10:05:07Z</time>
      </trkpt>
      <trkpt lat="45.50035" lon="6.7417">
        <ele>2256.5</ele>
        <time>2021-08-12T10:05:08Z</time>
      </trkpt>
      <trkpt lat="45.50036" lon="6.7417">
        <ele>2256.4</ele>
        <time>2021-08-12T10:05:09Z</time>
      </trkpt>
      <trkpt lat="45.50037" lon="6.7417">
        <ele>2256.3</ele>
        <time>2021-08-12T10:05:10Z</time>
      </trkpt>
      <trkpt lat="45.50037" lon="6.7417">
        <ele>2256.2</ele>
        <time>2021-08-12T10:05:11Z</time>
      </trkpt>
      <trkpt lat="45.50038" lon="6.7417">
        <ele>2256.1</ele>
        <time>2021-08-12T10:05:12Z</time>
      </trkpt>
      <trkpt lat="45.50039" lon="6.74169">
        <ele>2256</ele>
        <time>2021-08-12T10:05:13Z</time>
      </trkpt>
      <trkpt lat="45.5004" lon="6.74169">
        <ele>2255.9</ele>
        <time>2021-08-12T10:05:14Z</time>
      </trkpt>
      <trkpt lat="45.50041" lon="6.74169">
        <ele>2255.9</ele>
        <time>2021-08-12T10:05:15Z</time>
      </trkpt>
      <trkpt lat="45.50041" lon="6.74169">
        <ele>2255.8</ele>
        <time>2021-08-12T10:05:16Z</time>
      </trkpt>
      <trkpt lat="45.50042" lon="6.74168">
        <ele>2255.7</ele>
        <time>2021-08-12T10:05:17Z</time>
      </trkpt>
      <trkpt lat="45.50043" lon="6.74168">
        <ele>2255.6</ele>
        <time>2021-08-12T10:05:18Z</time>
      </trkpt>
      <trkpt lat="45.50043" lon="6.74167">
        <ele>2255.5</ele>
        <time>2021-08-12T10:05:19Z</time>
      </trkpt>
      <trkpt lat="45.50044" lon="6.74167">
        <ele>2255.5</ele>
        <time>2021-08-12T10:05:20Z</time>
      </trkpt>
      <trkpt lat="45.50045" lon="6.74167">
        <ele>2255.4</ele>
        <time>2021-08-12T10:05:21Z</time>
      </trkpt>
      <trkpt lat="45.50045" lon="6.74166">
        <ele>2255.3</ele>
        <time>2021-08-12T10:05:22Z</time>
      </trkpt>
      <trkpt lat="45.50046" lon="6.74166">
        <ele>2255.3</ele>
        <time>2021-08-12T10:05:23Z</time>
      </trkpt>
      <trkpt lat="45.50046" lon="6.74166">
        <ele>2255.2</ele>
        <time>2021-08-12T10:05:24Z</time>
      </trkpt>
      <trkpt lat="45.50047" lon="6.74166">
        <ele>2255.1</ele>
        <time>2021-08-12T10:05:25Z</time>
      </trkpt>
      <trkpt lat="45.50047" lon="6.74166">
        <ele>2255.1</ele>
        <time>2021-08-12T10:05:26Z</time>
      </trkpt>
      <trkpt lat="45.50048" lon="6.74166">
        <ele>2255</ele>
        <time>2021-08-12T10:05:27Z</time>
      </trkpt>
      <trkpt lat="45.50048" lon="6.74165">
        <ele>2255</ele>
        <time>2021-08-12T10:05:28Z</time>
      </trkpt>
      <trkpt lat="45.50049" lon="6.74165">
        <ele>2254.9</ele>
        <time>2021-08-12T10:05:29Z</time>
      </trkpt>
      <trkpt lat="45.50049" lon="6.74165">
        <ele>2254.9</ele>
        <time>2021-08-12T10:05:30Z</time>
      </trkpt>
      <trkpt lat="45.50049" lon="6.74165">
        <ele>2254.9</ele>
        <time>2021-08-12T10:05:31Z</time>
      </trkpt>
      <trkpt lat="45.50049" lon="6.74165">
        <ele>2254.8</ele>
        <time>2021-08-12T10:05:32Z</time>
      </trkpt>
      <trkpt lat="45.5005" lon="6.74166">
        <ele>2254.8</ele>
        <time>2021-08-12T10:05:33Z</time>
      </trkpt>
      <trkpt lat="45.5005" lon="6.74166">
        <ele>2254.8</ele>
        <time>2021-08-12T10:05:34Z</time>
      </trkpt>
      <trkpt lat="45.5005" lon="6.74165">
        <ele>2254.8</ele>
        <time>2021-08-12T10:05:35Z</time>
      </trkpt>
      <trkpt lat="45.5005" lon="6.74165">
        <ele>2254.8</ele>
        <time>2021-08-12T10:05:36Z</time>
      </trkpt>
      <trkpt lat="45.5005" lon="6.74165">
        <ele>2254.8</ele>
        <time>2021-08-12T10:05:37Z</time>
      </trkpt>
      <trkpt lat="45.5005" lon="6.74165">
        <ele>2254.8</ele>
        <time>2021-08-12T10:05:38Z</time>
      </trkpt>
      <trkpt lat="45.5005" lon="6.74165">
        <ele>2254.8</ele>
        <time>2021-08-12T10:05:39Z</time>
      </trkpt>
      <trkpt lat="45.5005" lon="6.74165">
        <ele>2254.8</ele>
        <time>2021-08-12T10:05:40Z</time>
      </trkpt>
      <trkpt lat="45.5005" lon="6.74165">
        <ele>2254.8</ele>
        <time>2021-08-12T10:05:41Z</time>
      </trkpt>
      <trkpt lat="45.5005" lon="6.74165">
        <ele>2254.7</ele>
        <time>2021-08-12T10:05:42Z</time>
      </trkpt>
      <trkpt lat="45.5005" lon="6.74166">
        <ele>2254.7</ele>
        <time>2021-08-12T10:05:43Z</time>
      </trkpt>
      <trkpt lat="45.5005" lon="6.74166">
        <ele>2254.7</ele>
        <time>2021-08-12T10:05:44Z</time>
      </trkpt>
      <trkpt lat="45.5005" lon="6.74166">
        <ele>2254.7</ele>
        <time>2021-08-12T10:05:45Z</time>
      </trkpt>
      <trkpt lat="45.5005" lon="6.74166">
        <ele>2254.7</ele>
        <time>2021-08-12T10:05:46Z</time>
      </trkpt>
      <trkpt lat="45.5005" lon="6.74166">
        <ele>2254.7</ele>
        <time>2021-08-12T10:05:47Z</time>
      </trkpt>
      <trkpt lat="45.50051" lon="6.74167">
        <ele>2254.6</ele>
        <time>2021-08-12T10:05:48Z</time>
      </trkpt>
      <trkpt lat="45.50051" lon="6.74167">
        <ele>2254.6</ele>
        <time>2021-08-12T10:05:49Z</time>
      </trkpt>
      <trkpt lat="45.50051" lon="6.74167">
        <ele>2254.5</ele>
        <time>2021-08-12T10:05:50Z</time>
      </trkpt>
      <trkpt lat="45.50052" lon="6.74168">
        <ele>2254.5</ele>
        <time>2021-08-12T10:05:51Z</time>
      </trkpt>
      <trkpt lat="45.50052" lon="6.74168">
        <ele>2254.4</ele>
        <time>2021-08-12T10:05:52Z</time>
      </trkpt>
      <trkpt lat="45.50053" lon="6.74168">
        <ele>2254.4</ele>
        <time>2021-08-12T10:05:53Z</time>
      </trkpt>
      <trkpt lat="45.50053" lon="6.74168">
        <ele>2254.3</ele>
        <time>2021-08-12T10:05:54Z</time>
      </trkpt>
      <trkpt lat="45.50054" lon="6.74168">
        <ele>2254.3</ele>
        <time>2021-08-12T10:05:55Z</time>
      </trkpt>
      <trkpt lat="45.50054" lon="6.74168">
        <ele>2254.2</ele>
        <time>2021-08-12T10:05:56Z</time>
      </trkpt>
      <trkpt lat="45.50055" lon="6.74167">
        <ele>2254.1</ele>
        <time>2021-08-12T10:05:57Z</time>
      </trkpt>
      <trkpt lat="45.50056" lon="6.74167">
        <ele>2254</ele>
        <time>2021-08-12T10:05:58Z</time>
      </trkpt>
      <trkpt lat="45.50057" lon="6.74167">
        <ele>2253.9</ele>
        <time>2021-08-12T10:05:59Z</time>
      </trkpt>
      <trkpt lat="45.50058" lon="6.74166">
        <ele>2253.8</ele>
        <time>2021-08-12T10:06:00Z</time>
      </trkpt>
      <trkpt lat="45.50058" lon="6.74166">
        <ele>2253.7</ele>
        <time>2021-08-12T10:06:01Z</time>
      </trkpt>
      <trkpt lat="45.50059" lon="6.74165">
        <ele>2253.6</ele>
        <time>2021-08-12T10:06:02Z</time>
      </trkpt>
      <trkpt lat="45.5006" lon="6.74165">
        <ele>2253.6</ele>
        <time>2021-08-12T10:06:03Z</time>
      </trkpt>
      <trkpt lat="45.50061" lon="6.74164">
        <ele>2253.5</ele>
        <time>2021-08-12T10:06:04Z</time>
      </trkpt>
      <trkpt lat="45.50062" lon="6.74164">
        <ele>2253.4</ele>
        <time>2021-08-12T10:06:05Z</time>
      </trkpt>
      <trkpt lat="45.50063" lon="6.74164">
        <ele>2253.3</ele>
        <time>2021-08-12T10:06:06Z</time>
      </trkpt>
      <trkpt lat="45.50064" lon="6.74163">
        <ele>2253.2</ele>
        <time>2021-08-12T10:06:07Z</time>
      </trkpt>
      <trkpt lat="45.50065" lon="6.74163">
        <ele>2253.1</ele>
        <time>2021-08-12T10:06:08Z</time>
      </trkpt>
      <trkpt lat="45.50065" lon="6.74162">
        <ele>2253</ele>
        <time>2021-08-12T10:06:09Z</time>
      </trkpt>
      <trkpt lat="45.50066" lon="6.74162">
        <ele>2252.9</ele>
        <time>2021-08-12T10:06:10Z</time>
      </trkpt>
      <trkpt lat="45.50067" lon="6.74161">
        <ele>2252.8</ele>
        <time>2021-08-12T10:06:11Z</time>
      </trkpt>
      <trkpt lat="45.50068" lon="6.74161">
        <ele>2252.7</ele>
        <time>2021-08-12T10:06:12Z</time>
      </trkpt>
      <trkpt lat="45.50069" lon="6.74161">
        <ele>2252.6</ele>
        <time>2021-08-12T10:06:13Z</time>
      </trkpt>
      <trkpt lat="45.50069" lon="6.7416">
        <ele>2252.5</ele>
        <time>2021-08-12T10:06:14Z</time>
      </trkpt>
      <trkpt lat="45.5007" lon="6.7416">
        <ele>2252.5</ele>
        <time>2021-08-12T10:06:15Z</time>
      </trkpt>
      <trkpt lat="45.50071" lon="6.7416">
        <ele>2252.4</ele>
        <time>2021-08-12T10:06:16Z</time>
      </trkpt>
      <trkpt lat="45.50071" lon="6.74159">
        <ele>2252.3</ele>
        <time>2021-08-12T10:06:17Z</time>
      </trkpt>
      <trkpt lat="45.50072" lon="6.74159">
        <ele>2252.3</ele>
        <time>2021-08-12T10:06:18Z</time>
      </trkpt>
      <trkpt lat="45.50072" lon="6.74159">
        <ele>2252.2</ele>
        <time>2021-08-12T10:06:19Z</time>
      </trkpt>
      <trkpt lat="45.50073" lon="6.74159">
        <ele>2252.2</ele>
        <time>2021-08-12T10:06:20Z</time>
      </trkpt>
      <trkpt lat="45.50073" lon="6.74158">
        <ele>2252.1</ele>
        <time>2021-08-12T10:06:21Z</time>
      </trkpt>
      <trkpt lat="45.50074" lon="6.74158">
        <ele>2252.1</ele>
        <time>2021-08-12T10:06:22Z</time>
      </trkpt>
      <trkpt lat="45.50074" lon="6.74158">
        <ele>2252.1</ele>
        <time>2021-08-12T10:06:23Z</time>
      </trkpt>
      <trkpt lat="45.50074" lon="6.74158">
        <ele>2252</ele>
        <time>2021-08-12T10:06:24Z</time>
      </trkpt>
      <trkpt lat="45.50074" lon="6.74158">
        <ele>2252</ele>
        <time>2021-08-12T10:06:25Z</time>
      </trkpt>
      <trkpt lat="45.50074" lon="6.74158">
        <ele>2252</ele>
        <time>2021-08-12T10:06:26Z</time>
      </trkpt>
      <trkpt lat="45.50074" lon="6.74158">
        <ele>2252</ele>
        <time>2021-08-12T10:06:27Z</time>
      </trkpt>
      <trkpt lat="45.50074" lon="6.74158">
        <ele>2252</ele>
        <time>2021-08-12T10:06:28Z</time>
      </trkpt>
      <trkpt lat="45.50074" lon="6.74158">
        <ele>2252</ele>
        <time>2021-08-12T10:06:29Z</time>
      </trkpt>
      <trkpt lat="45.50074" lon="6.74157">
        <ele>2252</ele>
        <time>2021-08-12T10:06:30Z</time>
      </trkpt>
      <trkpt lat="45.50074" lon="6.74157">
        <ele>2252</ele>
        <time>2021-08-12T10:06:31Z</time>
      </trkpt>
      <trkpt lat="45.50074" lon="6.74157">
        <ele>2252</ele>
        <time>2021-08-12T10:06:32Z</time>
      </trkpt>
      <trkpt lat="45.50074" lon="6.74157">
        <ele>2252</ele>
        <time>2021-08-12T10:06:33Z</time>
      </trkpt>
      <trkpt lat="45.50074" lon="6.74157">
        <ele>2251.9</ele>
        <time>2021-08-12T10:06:34Z</time>
      </trkpt>
      <trkpt lat="45.50074" lon="6.74157">
        <ele>2251.9</ele>
        <time>2021-08-12T10:06:35Z</time>
      </trkpt>
      <trkpt lat="45.50074" lon="6.74157">
        <ele>2251.9</ele>
        <time>2021-08-12T10:06:36Z</time>
      </trkpt>
      <trkpt lat="45.50074" lon="6.74157">
        <ele>2251.9</ele>
        <time>2021-08-12T10:06:37Z</time>
      </trkpt>
      <trkpt lat="45.50074" lon="6.74157">
        <ele>2251.9</ele>
        <time>2021-08-12T10:06:38Z</time>
      </trkpt>
      <trkpt lat="45.50074" lon="6.74157">
        <ele>2251.9</ele>
        <time>2021-08-12T10:06:39Z</time>
      </trkpt>
      <trkpt lat="45.50074" lon="6.74156">
        <ele>2251.9</ele>
        <time>2021-08-12T10:06:40Z</time>
      </trkpt>
      <trkpt lat="45.50074" lon="6.74156">
        <ele>2251.8</ele>
        <time>2021-08-12T10:06:41Z</time>
      </trkpt>
      <trkpt lat="45.50075" lon="6.74156">
        <ele>2251.8</ele>
        <time>2021-08-12T10:06:42Z</time>
      </trkpt>
      <trkpt lat="45.50075" lon="6.74156">
        <ele>2251.8</ele>
        <time>2021-08-12T10:06:43Z</time>
      </trkpt>
      <trkpt lat="45.50075" lon="6.74155">
        <ele>2251.7</ele>
        <time>2021-08-12T10:06:44Z</time>
      </trkpt>
      <trkpt lat="45.50076" lon="6.74155">
        <ele>2251.6</ele>
        <time>2021-08-12T10:06:45Z</time>
      </trkpt>
      <trkpt lat="45.50076" lon="6.74154">
        <ele>2251.6</ele>
        <time>2021-08-12T10:06:46Z</time>
      </trkpt>
      <trkpt lat="45.50077" lon="6.74154">
        <ele>2251.5</ele>
        <time>2021-08-12T10:06:47Z</time>
      </trkpt>
      <trkpt lat="45.50078" lon="6.74154">
        <ele>2251.4</ele>
        <time>2021-08-12T10:06:48Z</time>
      </trkpt>
      <trkpt lat="45.50078" lon="6.74153">
        <ele>2251.4</ele>
        <time>2021-08-12T10:06:49Z</time>
      </trkpt>
      <trkpt lat="45.50079" lon="6.74153">
        <ele>2251.3</ele>
        <time>2021-08-12T10:06:50Z</time>
      </trkpt>
      <trkpt lat="45.5008" lon="6.74153">
        <ele>2251.2</ele>
        <time>2021-08-12T10:06:51Z</time>
      </trkpt>
      <trkpt lat="45.50081" lon="6.74152">
        <ele>2251.1</ele>
        <time>2021-08-12T10:06:52Z</time>
      </trkpt>
      <trkpt lat="45.50081" lon="6.74152">
        <ele>2251.1</ele>
        <time>2021-08-12T10:06:53Z</time>
      </trkpt>
      <trkpt lat="45.50082" lon="6.74152">
        <ele>2251</ele>
        <time>2021-08-12T10:06:54Z</time>
      </trkpt>
      <trkpt lat="45.50083" lon="6.74152">
        <ele>2250.9</ele>
        <time>2021-08-12T10:06:55Z</time>
      </trkpt>
      <trkpt lat="45.50084" lon="6.74152">
        <ele>2250.8</ele>
        <time>2021-08-12T10:06:56Z</time>
      </trkpt>
      <trkpt lat="45.50084" lon="6.74152">
        <ele>2250.8</ele>
        <time>2021-08-12T10:06:57Z</time>
      </trkpt>
      <trkpt lat="45.50085" lon="6.74152">
        <ele>2250.7</ele>
        <time>2021-08-12T10:06:58Z</time>
      </trkpt>
      <trkpt lat="45.50086" lon="6.74152">
        <ele>2250.6</ele>
        <time>2021-08-12T10:06:59Z</time>
      </trkpt>
      <trkpt lat="45.50086" lon="6.74153">
        <ele>2250.5</ele>
        <time>2021-08-12T10:07:00Z</time>
      </trkpt>
      <trkpt lat="45.50087" lon="6.74153">
        <ele>2250.5</ele>
        <time>2021-08-12T10:07:01Z</time>
      </trkpt>
      <trkpt lat="45.50088" lon="6.74153">
        <ele>2250.4</ele>
        <time>2021-08-12T10:07:02Z</time>
      </trkpt>
      <trkpt lat="45.50088" lon="6.74153">
        <ele>2250.3</ele>
        <time>2021-08-12T10:07:03Z</time>
      </trkpt>
      <trkpt lat="45.50089" lon="6.74152">
        <ele>2250.3</ele>
        <time>2021-08-12T10:07:04Z</time>
      </trkpt>
      <trkpt lat="45.5009" lon="6.74152">
        <ele>2250.2</ele>
        <time>2021-08-12T10:07:05Z</time>
      </trkpt>
      <trkpt lat="45.5009" lon="6.74152">
        <ele>2250.1</ele>
        <time>2021-08-12T10:07:06Z</time>
      </trkpt>
      <trkpt lat="45.50091" lon="6.74152">
        <ele>2250</ele>
        <time>2021-08-12T10:07:07Z</time>
      </trkpt>
      <trkpt lat="45.50092" lon="6.74152">
        <ele>2250</ele>
        <time>2021-08-12T10:07:08Z</time>
      </trkpt>
      <trkpt lat="45.50092" lon="6.74151">
        <ele>2249.9</ele>
        <time>2021-08-12T10:07:09Z</time>
      </trkpt>
      <trkpt lat="45.50093" lon="6.74151">
        <ele>2249.8</ele>
        <time>2021-08-12T10:07:10Z</time>
      </trkpt>
      <trkpt lat="45.50093" lon="6.7415">
        <ele>2249.7</ele>
        <time>2021-08-12T10:07:11Z</time>
      </trkpt>
      <trkpt lat="45.50094" lon="6.7415">
        <ele>2249.6</ele>
        <time>2021-08-12T10:07:12Z</time>
      </trkpt>
      <trkpt lat="45.50095" lon="6.74149">
        <ele>2249.6</ele>
        <time>2021-08-12T10:07:13Z</time>
      </trkpt>
      <trkpt lat="45.50095" lon="6.74148">
        <ele>2249.5</ele>
        <time>2021-08-12T10:07:14Z</time>
      </trkpt>
      <trkpt lat="45.50096" lon="6.74147">
        <ele>2249.4</ele>
        <time>2021-08-12T10:07:15Z</time>
      </trkpt>
      <trkpt lat="45.50096" lon="6.74147">
        <ele>2249.3</ele>
        <time>2021-08-12T10:07:16Z</time>
      </trkpt>
      <trkpt lat="45.50097" lon="6.74146">
        <ele>2249.2</ele>
        <time>2021-08-12T10:07:17Z</time>
      </trkpt>
      <trkpt lat="45.50097" lon="6.74145">
        <ele>2249.1</ele>
        <time>2021-08-12T10:07:18Z</time>
      </trkpt>
      <trkpt lat="45.50098" lon="6.74144">
        <ele>2249</ele>
        <time>2021-08-12T10:07:19Z</time>
      </trkpt>
      <trkpt lat="45.50098" lon="6.74143">
        <ele>2248.9</ele>
        <time>2021-08-12T10:07:20Z</time>
      </trkpt>
      <trkpt lat="45.50099" lon="6.74143">
        <ele>2248.8</ele>
        <time>2021-08-12T10:07:21Z</time>
      </trkpt>
      <trkpt lat="45.501" lon="6.74142">
        <ele>2248.7</ele>
        <time>2021-08-12T10:07:22Z</time>
      </trkpt>
      <trkpt lat="45.501" lon="6.74142">
        <ele>2248.6</ele>
        <time>2021-08-12T10:07:23Z</time>
      </trkpt>
      <trkpt lat="45.50101" lon="6.74141">
        <ele>2248.5</ele>
        <time>2021-08-12T10:07:24Z</time>
      </trkpt>
      <trkpt lat="45.50102" lon="6.74141">
        <ele>2248.4</ele>
        <time>2021-08-12T10:07:25Z</time>
      </trkpt>
      <trkpt lat="45.50102" lon="6.7414">
        <ele>2248.3</ele>
        <time>2021-08-12T10:07:26Z</time>
      </trkpt>
      <trkpt lat="45.50103" lon="6.7414">
        <ele>2248.2</ele>
        <time>2021-08-12T10:07:27Z</time>
      </trkpt>
      <trkpt lat="45.50104" lon="6.7414">
        <ele>2248.1</ele>
        <time>2021-08-12T10:07:28Z</time>
      </trkpt>
      <trkpt lat="45.50105" lon="6.7414">
        <ele>2248</ele>
        <time>2021-08-12T10:07:29Z</time>
      </trkpt>
      <trkpt lat="45.50106" lon="6.74139">
        <ele>2247.9</ele>
        <time>2021-08-12T10:07:30Z</time>
      </trkpt>
      <trkpt lat="45.50107" lon="6.74139">
        <ele>2247.8</ele>
        <time>2021-08-12T10:07:31Z</time>
      </trkpt>
      <trkpt lat="45.50107" lon="6.74139">
        <ele>2247.7</ele>
        <time>2021-08-12T10:07:32Z</time>
      </trkpt>
      <trkpt lat="45.50108" lon="6.74139">
        <ele>2247.6</ele>
        <time>2021-08-12T10:07:33Z</time>
      </trkpt>
      <trkpt lat="45.50109" lon="6.74139">
        <ele>2247.5</ele>
        <time>2021-08-12T10:07:34Z</time>
      </trkpt>
      <trkpt lat="45.5011" lon="6.74139">
        <ele>2247.4</ele>
        <time>2021-08-12T10:07:35Z</time>
      </trkpt>
      <trkpt lat="45.50111" lon="6.74139">
        <ele>2247.2</ele>
        <time>2021-08-12T10:07:36Z</time>
      </trkpt>
      <trkpt lat="45.50112" lon="6.74139">
        <ele>2247.1</ele>
        <time>2021-08-12T10:07:37Z</time>
      </trkpt>
      <trkpt lat="45.50113" lon="6.74139">
        <ele>2247</ele>
        <time>2021-08-12T10:07:38Z</time>
      </trkpt>
      <trkpt lat="45.50114" lon="6.74139">
        <ele>2246.9</ele>
        <time>2021-08-12T10:07:39Z</time>
      </trkpt>
      <trkpt lat="45.50114" lon="6.74138">
        <ele>2246.8</ele>
        <time>2021-08-12T10:07:40Z</time>
      </trkpt>
      <trkpt lat="45.50115" lon="6.74138">
        <ele>2246.7</ele>
        <time>2021-08-12T10:07:41Z</time>
      </trkpt>
      <trkpt lat="45.50116" lon="6.74138">
        <ele>2246.6</ele>
        <time>2021-08-12T10:07:42Z</time>
      </trkpt>
      <trkpt lat="45.50117" lon="6.74138">
        <ele>2246.5</ele>
        <time>2021-08-12T10:07:43Z</time>
      </trkpt>
      <trkpt lat="45.50118" lon="6.74138">
        <ele>2246.4</ele>
        <time>2021-08-12T10:07:44Z</time>
      </trkpt>
      <trkpt lat="45.50118" lon="6.74138">
        <ele>2246.3</ele>
        <time>2021-08-12T10:07:45Z</time>
      </trkpt>
      <trkpt lat="45.50119" lon="6.74138">
        <ele>2246.2</ele>
        <time>2021-08-12T10:07:46Z</time>
      </trkpt>
      <trkpt lat="45.5012" lon="6.74137">
        <ele>2246</ele>
        <time>2021-08-12T10:07:47Z</time>
      </trkpt>
      <trkpt lat="45.50121" lon="6.74137">
        <ele>2246</ele>
        <time>2021-08-12T10:07:48Z</time>
      </trkpt>
      <trkpt lat="45.50122" lon="6.74137">
        <ele>2245.8</ele>
        <time>2021-08-12T10:07:49Z</time>
      </trkpt>
      <trkpt lat="45.50122" lon="6.74137">
        <ele>2245.8</ele>
        <time>2021-08-12T10:07:50Z</time>
      </trkpt>
      <trkpt lat="45.50123" lon="6.74136">
        <ele>2245.7</ele>
        <time>2021-08-12T10:07:51Z</time>
      </trkpt>
      <trkpt lat="45.50124" lon="6.74136">
        <ele>2245.6</ele>
        <time>2021-08-12T10:07:52Z</time>
      </trkpt>
      <trkpt lat="45.50124" lon="6.74136">
        <ele>2245.5</ele>
        <time>2021-08-12T10:07:53Z</time>
      </trkpt>
      <trkpt lat="45.50125" lon="6.74135">
        <ele>2245.4</ele>
        <time>2021-08-12T10:07:54Z</time>
      </trkpt>
      <trkpt lat="45.50126" lon="6.74135">
        <ele>2245.3</ele>
        <time>2021-08-12T10:07:55Z</time>
      </trkpt>
      <trkpt lat="45.50126" lon="6.74135">
        <ele>2245.2</ele>
        <time>2021-08-12T10:07:56Z</time>
      </trkpt>
      <trkpt lat="45.50127" lon="6.74134">
        <ele>2245.1</ele>
        <time>2021-08-12T10:07:57Z</time>
      </trkpt>
      <trkpt lat="45.50128" lon="6.74134">
        <ele>2245</ele>
        <time>2021-08-12T10:07:58Z</time>
      </trkpt>
      <trkpt lat="45.50128" lon="6.74133">
        <ele>2244.9</ele>
        <time>2021-08-12T10:07:59Z</time>
      </trkpt>
      <trkpt lat="45.50129" lon="6.74133">
        <ele>2244.8</ele>
        <time>2021-08-12T10:08:00Z</time>
      </trkpt>
      <trkpt lat="45.5013" lon="6.74133">
        <ele>2244.7</ele>
        <time>2021-08-12T10:08:01Z</time>
      </trkpt>
      <trkpt lat="45.5013" lon="6.74132">
        <ele>2244.6</ele>
        <time>2021-08-12T10:08:02Z</time>
      </trkpt>
      <trkpt lat="45.50131" lon="6.74132">
        <ele>2244.5</ele>
        <time>2021-08-12T10:08:03Z</time>
      </trkpt>
      <trkpt lat="45.50132" lon="6.74131">
        <ele>2244.4</ele>
        <time>2021-08-12T10:08:04Z</time>
      </trkpt>
      <trkpt lat="45.50132" lon="6.74131">
        <ele>2244.3</ele>
        <time>2021-08-12T10:08:05Z</time>
      </trkpt>
      <trkpt lat="45.50133" lon="6.7413">
        <ele>2244.3</ele>
        <time>2021-08-12T10:08:06Z</time>
      </trkpt>
      <trkpt lat="45.50133" lon="6.7413">
        <ele>2244.2</ele>
        <time>2021-08-12T10:08:07Z</time>
      </trkpt>
      <trkpt lat="45.50134" lon="6.74129">
        <ele>2244.1</ele>
        <time>2021-08-12T10:08:08Z</time>
      </trkpt>
      <trkpt lat="45.50134" lon="6.74128">
        <ele>2244</ele>
        <time>2021-08-12T10:08:09Z</time>
      </trkpt>
      <trkpt lat="45.50135" lon="6.74128">
        <ele>2243.9</ele>
        <time>2021-08-12T10:08:10Z</time>
      </trkpt>
      <trkpt lat="45.50135" lon="6.74127">
        <ele>2243.8</ele>
        <time>2021-08-12T10:08:11Z</time>
      </trkpt>
      <trkpt lat="45.50136" lon="6.74126">
        <ele>2243.7</ele>
        <time>2021-08-12T10:08:12Z</time>
      </trkpt>
      <trkpt lat="45.50136" lon="6.74126">
        <ele>2243.6</ele>
        <time>2021-08-12T10:08:13Z</time>
      </trkpt>
      <trkpt lat="45.50137" lon="6.74125">
        <ele>2243.5</ele>
        <time>2021-08-12T10:08:14Z</time>
      </trkpt>
      <trkpt lat="45.50137" lon="6.74124">
        <ele>2243.4</ele>
        <time>2021-08-12T10:08:15Z</time>
      </trkpt>
      <trkpt lat="45.50137" lon="6.74123">
        <ele>2243.3</ele>
        <time>2021-08-12T10:08:16Z</time>
      </trkpt>
      <trkpt lat="45.50138" lon="6.74123">
        <ele>2243.2</ele>
        <time>2021-08-12T10:08:17Z</time>
      </trkpt>
      <trkpt lat="45.50138" lon="6.74122">
        <ele>2243.1</ele>
        <time>2021-08-12T10:08:18Z</time>
      </trkpt>
      <trkpt lat="45.50138" lon="6.74121">
        <ele>2243.1</ele>
        <time>2021-08-12T10:08:19Z</time>
      </trkpt>
      <trkpt lat="45.50139" lon="6.7412">
        <ele>2243</ele>
        <time>2021-08-12T10:08:20Z</time>
      </trkpt>
      <trkpt lat="45.50139" lon="6.74119">
        <ele>2242.9</ele>
        <time>2021-08-12T10:08:21Z</time>
      </trkpt>
      <trkpt lat="45.50139" lon="6.74118">
        <ele>2242.8</ele>
        <time>2021-08-12T10:08:22Z</time>
      </trkpt>
      <trkpt lat="45.50139" lon="6.74117">
        <ele>2242.7</ele>
        <time>2021-08-12T10:08:23Z</time>
      </trkpt>
      <trkpt lat="45.50139" lon="6.74117">
        <ele>2242.6</ele>
        <time>2021-08-12T10:08:24Z</time>
      </trkpt>
      <trkpt lat="45.50139" lon="6.74116">
        <ele>2242.5</ele>
        <time>2021-08-12T10:08:25Z</time>
      </trkpt>
      <trkpt lat="45.5014" lon="6.74115">
        <ele>2242.4</ele>
        <time>2021-08-12T10:08:26Z</time>
      </trkpt>
      <trkpt lat="45.5014" lon="6.74114">
        <ele>2242.4</ele>
        <time>2021-08-12T10:08:27Z</time>
      </trkpt>
      <trkpt lat="45.5014" lon="6.74114">
        <ele>2242.3</ele>
        <time>2021-08-12T10:08:28Z</time>
      </trkpt>
      <trkpt lat="45.5014" lon="6.74113">
        <ele>2242.3</ele>
        <time>2021-08-12T10:08:29Z</time>
      </trkpt>
      <trkpt lat="45.5014" lon="6.74113">
        <ele>2242.2</ele>
        <time>2021-08-12T10:08:30Z</time>
      </trkpt>
      <trkpt lat="45.5014" lon="6.74113">
        <ele>2242.2</ele>
        <time>2021-08-12T10:08:31Z</time>
      </trkpt>
      <trkpt lat="45.5014" lon="6.74112">
        <ele>2242.2</ele>
        <time>2021-08-12T10:08:32Z</time>
      </trkpt>
      <trkpt lat="45.5014" lon="6.74112">
        <ele>2242.1</ele>
        <time>2021-08-12T10:08:33Z</time>
      </trkpt>
      <trkpt lat="45.5014" lon="6.74112">
        <ele>2242.1</ele>
        <time>2021-08-12T10:08:34Z</time>
      </trkpt>
      <trkpt lat="45.5014" lon="6.74112">
        <ele>2242.1</ele>
        <time>2021-08-12T10:08:35Z</time>
      </trkpt>
      <trkpt lat="45.5014" lon="6.74112">
        <ele>2242.1</ele>
        <time>2021-08-12T10:08:36Z</time>
      </trkpt>
      <trkpt lat="45.5014" lon="6.74112">
        <ele>2242.1</ele>
        <time>2021-08-12T10:08:37Z</time>
      </trkpt>
      <trkpt lat="45.5014" lon="6.74112">
        <ele>2242.1</ele>
        <time>2021-08-12T10:08:38Z</time>
      </trkpt>
      <trkpt lat="45.5014" lon="6.74112">
        <ele>2242.1</ele>
        <time>2021-08-12T10:08:39Z</time>
      </trkpt>
      <trkpt lat="45.5014" lon="6.74112">
        <ele>2242.1</ele>
        <time>2021-08-12T10:08:40Z</time>
      </trkpt>
      <trkpt lat="45.5014" lon="6.74112">
        <ele>2242.1</ele>
        <time>2021-08-12T10:08:41Z</time>
      </trkpt>
      <trkpt lat="45.5014" lon="6.74112">
        <ele>2242.1</ele>
        <time>2021-08-12T10:08:42Z</time>
      </trkpt>
      <trkpt lat="45.5014" lon="6.74112">
        <ele>2242.1</ele>
        <time>2021-08-12T10:08:43Z</time>
      </trkpt>
      <trkpt lat="45.5014" lon="6.74112">
        <ele>2242.1</ele>
        <time>2021-08-12T10:08:44Z</time>
      </trkpt>
      <trkpt lat="45.5014" lon="6.74112">
        <ele>2242.1</ele>
        <time>2021-08-12T10:08:45Z</time>
      </trkpt>
      <trkpt lat="45.5014" lon="6.74112">
        <ele>2242.1</ele>
        <time>2021-08-12T10:08:46Z</time>
      </trkpt>
      <trkpt lat="45.5014" lon="6.74112">
        <ele>2242.1</ele>
        <time>2021-08-12T10:08:47Z</time>
      </trkpt>
      <trkpt lat="45.5014" lon="6.74112">
        <ele>2242.1</ele>
        <time>2021-08-12T10:08:48Z</time>
      </trkpt>
      <trkpt lat="45.5014" lon="6.74112">
        <ele>2242.1</ele>
        <time>2021-08-12T10:08:49Z</time>
      </trkpt>
      <trkpt lat="45.5014" lon="6.74112">
        <ele>2242.1</ele>
        <time>2021-08-12T10:08:50Z</time>
      </trkpt>
      <trkpt lat="45.5014" lon="6.74112">
        <ele>2242.1</ele>
        <time>2021-08-12T10:08:51Z</time>
      </trkpt>
      <trkpt lat="45.5014" lon="6.74112">
        <ele>2242.1</ele>
        <time>2021-08-12T10:08:52Z</time>
      </trkpt>
      <trkpt lat="45.5014" lon="6.74112">
        <ele>2242.1</ele>
        <time>2021-08-12T10:08:53Z</time>
      </trkpt>
      <trkpt lat="45.5014" lon="6.74112">
        <ele>2242.1</ele>
        <time>2021-08-12T10:08:54Z</time>
      </trkpt>
      <trkpt lat="45.5014" lon="6.74112">
        <ele>2242.1</ele>
        <time>2021-08-12T10:08:55Z</time>
      </trkpt>
      <trkpt lat="45.5014" lon="6.74112">
        <ele>2242.1</ele>
        <time>2021-08-12T10:08:56Z</time>
      </trkpt>
      <trkpt lat="45.5014" lon="6.74112">
        <ele>2242.1</ele>
        <time>2021-08-12T10:08:57Z</time>
      </trkpt>
      <trkpt lat="45.5014" lon="6.74112">
        <ele>2242.1</ele>
        <time>2021-08-12T10:08:58Z</time>
      </trkpt>
      <trkpt lat="45.5014" lon="6.74112">
        <ele>2242.1</ele>
        <time>2021-08-12T10:08:59Z</time>
      </trkpt>
      <trkpt lat="45.5014" lon="6.74112">
        <ele>2242.1</ele>
        <time>2021-08-12T10:09:00Z</time>
      </trkpt>
      <trkpt lat="45.5014" lon="6.74112">
        <ele>2242.1</ele>
        <time>2021-08-12T10:09:01Z</time>
      </trkpt>
      <trkpt lat="45.5014" lon="6.74112">
        <ele>2242.1</ele>
        <time>2021-08-12T10:09:02Z</time>
      </trkpt>
      <trkpt lat="45.5014" lon="6.74112">
        <ele>2242.1</ele>
        <time>2021-08-12T10:09:03Z</time>
      </trkpt>
      <trkpt lat="45.5014" lon="6.74112">
        <ele>2242.1</ele>
        <time>2021-08-12T10:09:04Z</time>
      </trkpt>
      <trkpt lat="45.5014" lon="6.74112">
        <ele>2242.1</ele>
        <time>2021-08-12T10:09:05Z</time>
      </trkpt>
      <trkpt lat="45.5014" lon="6.74112">
        <ele>2242.1</ele>
        <time>2021-08-12T10:09:06Z</time>
      </trkpt>
      <trkpt lat="45.5014" lon="6.74112">
        <ele>2242.1</ele>
        <time>2021-08-12T10:09:07Z</time>
      </trkpt>
      <trkpt lat="45.5014" lon="6.74112">
        <ele>2242.1</ele>
        <time>2021-08-12T10:09:08Z</time>
      </trkpt>
      <trkpt lat="45.5014" lon="6.74112">
        <ele>2242.1</ele>
        <time>2021-08-12T10:09:09Z</time>
      </trkpt>
      <trkpt lat="45.5014" lon="6.74112">
        <ele>2242.1</ele>
        <time>2021-08-12T10:09:10Z</time>
      </trkpt>
      <trkpt lat="45.5014" lon="6.74112">
        <ele>2242.1</ele>
        <time>2021-08-12T10:09:11Z</time>
      </trkpt>
      <trkpt lat="45.5014" lon="6.74112">
        <ele>2242.1</ele>
        <time>2021-08-12T10:09:12Z</time>
      </trkpt>
      <trkpt lat="45.5014" lon="6.74112">
        <ele>2242.1</ele>
        <time>2021-08-12T10:09:13Z</time>
      </trkpt>
      <trkpt lat="45.5014" lon="6.74112">
        <ele>2242.1</ele>
        <time>2021-08-12T10:09:14Z</time>
      </trkpt>
      <trkpt lat="45.5014" lon="6.74112">
        <ele>2242.1</ele>
        <time>2021-08-12T10:09:15Z</time>
      </trkpt>
      <trkpt lat="45.5014" lon="6.74112">
        <ele>2242.1</ele>
        <time>2021-08-12T10:09:16Z</time>
      </trkpt>
      <trkpt lat="45.5014" lon="6.74112">
        <ele>2242.1</ele>
        <time>2021-08-12T10:09:17Z</time>
      </trkpt>
      <trkpt lat="45.5014" lon="6.74112">
        <ele>2242.1</ele>
        <time>2021-08-12T10:09:18Z</time>
      </trkpt>
      <trkpt lat="45.5014" lon="6.74112">
        <ele>2242.1</ele>
        <time>2021-08-12T10:09:19Z</time>
      </trkpt>
      <trkpt lat="45.5014" lon="6.74112">
        <ele>2242.1</ele>
        <time>2021-08-12T10:09:20Z</time>
      </trkpt>
      <trkpt lat="45.5014" lon="6.74112">
        <ele>2242.1</ele>
        <time>2021-08-12T10:09:21Z</time>
      </trkpt>
      <trkpt lat="45.5014" lon="6.74112">
        <ele>2242.1</ele>
        <time>2021-08-12T10:09:22Z</time>
      </trkpt>
      <trkpt lat="45.5014" lon="6.74112">
        <ele>2242.1</ele>
        <time>2021-08-12T10:09:23Z</time>
      </trkpt>
      <trkpt lat="45.5014" lon="6.74112">
        <ele>2242.1</ele>
        <time>2021-08-12T10:09:24Z</time>
      </trkpt>
      <trkpt lat="45.5014" lon="6.74112">
        <ele>2242.1</ele>
        <time>2021-08-12T10:09:25Z</time>
      </trkpt>
      <trkpt lat="45.5014" lon="6.74112">
        <ele>2242.1</ele>
        <time>2021-08-12T10:09:26Z</time>
      </trkpt>
      <trkpt lat="45.5014" lon="6.74112">
        <ele>2242.1</ele>
        <time>2021-08-12T10:09:27Z</time>
      </trkpt>
      <trkpt lat="45.5014" lon="6.74112">
        <ele>2242.1</ele>
        <time>2021-08-12T10:09:28Z</time>
      </trkpt>
      <trkpt lat="45.5014" lon="6.74112">
        <ele>2242.1</ele>
        <time>2021-08-12T10:09:29Z</time>
      </trkpt>
      <trkpt lat="45.5014" lon="6.74112">
        <ele>2242.1</ele>
        <time>2021-08-12T10:09:30Z</time>
      </trkpt>
      <trkpt lat="45.5014" lon="6.74112">
        <ele>2242.1</ele>
        <time>2021-08-12T10:09:31Z</time>
      </trkpt>
      <trkpt lat="45.5014" lon="6.74112">
        <ele>2242.1</ele>
        <time>2021-08-12T10:09:32Z</time>
      </trkpt>
      <trkpt lat="45.5014" lon="6.74112">
        <ele>2242.1</ele>
        <time>2021-08-12T10:09:33Z</time>
      </trkpt>
      <trkpt lat="45.5014" lon="6.74112">
        <ele>2242.1</ele>
        <time>2021-08-12T10:09:34Z</time>
      </trkpt>
      <trkpt lat="45.5014" lon="6.74112">
        <ele>2242.1</ele>
        <time>2021-08-12T10:09:35Z</time>
      </trkpt>
      <trkpt lat="45.5014" lon="6.74112">
        <ele>2242.1</ele>
        <time>2021-08-12T10:09:36Z</time>
      </trkpt>
      <trkpt lat="45.5014" lon="6.74112">
        <ele>2242.1</ele>
        <time>2021-08-12T10:09:37Z</time>
      </trkpt>
      <trkpt lat="45.5014" lon="6.74112">
        <ele>2242.1</ele>
        <time>2021-08-12T10:09:38Z</time>
      </trkpt>
      <trkpt lat="45.5014" lon="6.74112">
        <ele>2242.1</ele>
        <time>2021-08-12T10:09:39Z</time>
      </trkpt>
      <trkpt lat="45.5014" lon="6.74112">
        <ele>2242.1</ele>
        <time>2021-08-12T10:09:40Z</time>
      </trkpt>
      <trkpt lat="45.5014" lon="6.74112">
        <ele>2242.1</ele>
        <time>2021-08-12T10:09:41Z</time>
      </trkpt>
      <trkpt lat="45.5014" lon="6.74112">
        <ele>2242.1</ele>
        <time>2021-08-12T10:09:42Z</time>
      </trkpt>
      <trkpt lat="45.5014" lon="6.74112">
        <ele>2242.1</ele>
        <time>2021-08-12T10:09:43Z</time>
      </trkpt>
      <trkpt lat="45.5014" lon="6.74112">
        <ele>2242.1</ele>
        <time>2021-08-12T10:09:44Z</time>
      </trkpt>
      <trkpt lat="45.5014" lon="6.74112">
        <ele>2242.1</ele>
        <time>2021-08-12T10:09:45Z</time>
      </trkpt>
      <trkpt lat="45.5014" lon="6.74112">
        <ele>2242.1</ele>
        <time>2021-08-12T10:09:46Z</time>
      </trkpt>
      <trkpt lat="45.5014" lon="6.74112">
        <ele>2242.1</ele>
        <time>2021-08-12T10:09:47Z</time>
      </trkpt>
      <trkpt lat="45.5014" lon="6.74112">
        <ele>2242.1</ele>
        <time>2021-08-12T10:09:48Z</time>
      </trkpt>
      <trkpt lat="45.5014" lon="6.74112">
        <ele>2242.1</ele>
        <time>2021-08-12T10:09:49Z</time>
      </trkpt>
      <trkpt lat="45.5014" lon="6.74112">
        <ele>2242.1</ele>
        <time>2021-08-12T10:09:50Z</time>
      </trkpt>
      <trkpt lat="45.5014" lon="6.74112">
        <ele>2242.1</ele>
        <time>2021-08-12T10:09:51Z</time>
      </trkpt>
      <trkpt lat="45.5014" lon="6.74112">
        <ele>2242.1</ele>
        <time>2021-08-12T10:09:52Z</time>
      </trkpt>
      <trkpt lat="45.5014" lon="6.74112">
        <ele>2242.1</ele>
        <time>2021-08-12T10:09:53Z</time>
      </trkpt>
      <trkpt lat="45.5014" lon="6.74112">
        <ele>2242.1</ele>
        <time>2021-08-12T10:09:54Z</time>
      </trkpt>
      <trkpt lat="45.5014" lon="6.74112">
        <ele>2242.1</ele>
        <time>2021-08-12T10:09:55Z</time>
      </trkpt>
      <trkpt lat="45.5014" lon="6.74112">
        <ele>2242.1</ele>
        <time>2021-08-12T10:09:56Z</time>
      </trkpt>
      <trkpt lat="45.5014" lon="6.74112">
        <ele>2242.1</ele>
        <time>2021-08-12T10:09:57Z</time>
      </trkpt>
      <trkpt lat="45.5014" lon="6.74112">
        <ele>2242.1</ele>
        <time>2021-08-12T10:09:58Z</time>
      </trkpt>
      <trkpt lat="45.5014" lon="6.74112">
        <ele>2242</ele>
        <time>2021-08-12T10:09:59Z</time>
      </trkpt>
      <trkpt lat="45.5014" lon="6.74112">
        <ele>2242</ele>
        <time>2021-08-12T10:10:00Z</time>
      </trkpt>
      <trkpt lat="45.5014" lon="6.74112">
        <ele>2242</ele>
        <time>2021-08-12T10:10:01Z</time>
      </trkpt>
      <trkpt lat="45.5014" lon="6.74112">
        <ele>2242</ele>
        <time>2021-08-12T10:10:02Z</time>
      </trkpt>
      <trkpt lat="45.5014" lon="6.74112">
        <ele>2242</ele>
        <time>2021-08-12T10:10:03Z</time>
      </trkpt>
      <trkpt lat="45.5014" lon="6.74112">
        <ele>2242</ele>
        <time>2021-08-12T10:10:04Z</time>
      </trkpt>
      <trkpt lat="45.5014" lon="6.74112">
        <ele>2242</ele>
        <time>2021-08-12T10:10:05Z</time>
      </trkpt>
      <trkpt lat="45.5014" lon="6.74112">
        <ele>2242</ele>
        <time>2021-08-12T10:10:06Z</time>
      </trkpt>
      <trkpt lat="45.5014" lon="6.74112">
        <ele>2242</ele>
        <time>2021-08-12T10:10:07Z</time>
      </trkpt>
      <trkpt lat="45.5014" lon="6.74112">
        <ele>2242</ele>
        <time>2021-08-12T10:10:08Z</time>
      </trkpt>
      <trkpt lat="45.5014" lon="6.74111">
        <ele>2242</ele>
        <time>2021-08-12T10:10:09Z</time>
      </trkpt>
      <trkpt lat="45.5014" lon="6.74111">
        <ele>2242</ele>
        <time>2021-08-12T10:10:10Z</time>
      </trkpt>
      <trkpt lat="45.5014" lon="6.74111">
        <ele>2242</ele>
        <time>2021-08-12T10:10:11Z</time>
      </trkpt>
      <trkpt lat="45.5014" lon="6.74111">
        <ele>2242</ele>
        <time>2021-08-12T10:10:12Z</time>
      </trkpt>
      <trkpt lat="45.5014" lon="6.74111">
        <ele>2242</ele>
        <time>2021-08-12T10:10:13Z</time>
      </trkpt>
      <trkpt lat="45.5014" lon="6.74111">
        <ele>2242</ele>
        <time>2021-08-12T10:10:14Z</time>
      </trkpt>
      <trkpt lat="45.5014" lon="6.74111">
        <ele>2242</ele>
        <time>2021-08-12T10:10:15Z</time>
      </trkpt>
      <trkpt lat="45.5014" lon="6.74111">
        <ele>2242</ele>
        <time>2021-08-12T10:10:16Z</time>
      </trkpt>
      <trkpt lat="45.5014" lon="6.74111">
        <ele>2242</ele>
        <time>2021-08-12T10:10:17Z</time>
      </trkpt>
      <trkpt lat="45.5014" lon="6.74111">
        <ele>2242</ele>
        <time>2021-08-12T10:10:18Z</time>
      </trkpt>
      <trkpt lat="45.5014" lon="6.74111">
        <ele>2242</ele>
        <time>2021-08-12T10:10:19Z</time>
      </trkpt>
      <trkpt lat="45.5014" lon="6.74111">
        <ele>2242</ele>
        <time>2021-08-12T10:10:20Z</time>
      </trkpt>
      <trkpt lat="45.5014" lon="6.74111">
        <ele>2242</ele>
        <time>2021-08-12T10:10:21Z</time>
      </trkpt>
      <trkpt lat="45.5014" lon="6.74111">
        <ele>2242</ele>
        <time>2021-08-12T10:10:22Z</time>
      </trkpt>
      <trkpt lat="45.5014" lon="6.74111">
        <ele>2242</ele>
        <time>2021-08-12T10:10:23Z</time>
      </trkpt>
      <trkpt lat="45.5014" lon="6.74111">
        <ele>2242</ele>
        <time>2021-08-12T10:10:24Z</time>
      </trkpt>
      <trkpt lat="45.5014" lon="6.74111">
        <ele>2242</ele>
        <time>2021-08-12T10:10:25Z</time>
      </trkpt>
      <trkpt lat="45.5014" lon="6.74111">
        <ele>2242</ele>
        <time>2021-08-12T10:10:26Z</time>
      </trkpt>
      <trkpt lat="45.5014" lon="6.74111">
        <ele>2242</ele>
        <time>2021-08-12T10:10:27Z</time>
      </trkpt>
      <trkpt lat="45.5014" lon="6.74111">
        <ele>2242</ele>
        <time>2021-08-12T10:10:28Z</time>
      </trkpt>
      <trkpt lat="45.5014" lon="6.74111">
        <ele>2242</ele>
        <time>2021-08-12T10:10:29Z</time>
      </trkpt>
      <trkpt lat="45.5014" lon="6.74111">
        <ele>2242</ele>
        <time>2021-08-12T10:10:30Z</time>
      </trkpt>
      <trkpt lat="45.5014" lon="6.74111">
        <ele>2242</ele>
        <time>2021-08-12T10:10:31Z</time>
      </trkpt>
      <trkpt lat="45.5014" lon="6.74111">
        <ele>2242</ele>
        <time>2021-08-12T10:10:32Z</time>
      </trkpt>
      <trkpt lat="45.5014" lon="6.74111">
        <ele>2242</ele>
        <time>2021-08-12T10:10:33Z</time>
      </trkpt>
      <trkpt lat="45.5014" lon="6.74111">
        <ele>2242</ele>
        <time>2021-08-12T10:10:34Z</time>
      </trkpt>
      <trkpt lat="45.5014" lon="6.74111">
        <ele>2242</ele>
        <time>2021-08-12T10:10:35Z</time>
      </trkpt>
      <trkpt lat="45.5014" lon="6.74111">
        <ele>2242</ele>
        <time>2021-08-12T10:10:36Z</time>
      </trkpt>
      <trkpt lat="45.5014" lon="6.74111">
        <ele>2242</ele>
        <time>2021-08-12T10:10:37Z</time>
      </trkpt>
      <trkpt lat="45.5014" lon="6.74111">
        <ele>2242</ele>
        <time>2021-08-12T10:10:38Z</time>
      </trkpt>
      <trkpt lat="45.5014" lon="6.74111">
        <ele>2242</ele>
        <time>2021-08-12T10:10:39Z</time>
      </trkpt>
      <trkpt lat="45.5014" lon="6.74111">
        <ele>2242</ele>
        <time>2021-08-12T10:10:40Z</time>
      </trkpt>
      <trkpt lat="45.5014" lon="6.74111">
        <ele>2242</ele>
        <time>2021-08-12T10:10:41Z</time>
      </trkpt>
      <trkpt lat="45.5014" lon="6.74111">
        <ele>2242</ele>
        <time>2021-08-12T10:10:42Z</time>
      </trkpt>
      <trkpt lat="45.5014" lon="6.74111">
        <ele>2242</ele>
        <time>2021-08-12T10:10:43Z</time>
      </trkpt>
      <trkpt lat="45.5014" lon="6.74111">
        <ele>2242</ele>
        <time>2021-08-12T10:10:44Z</time>
      </trkpt>
      <trkpt lat="45.5014" lon="6.74111">
        <ele>2242</ele>
        <time>2021-08-12T10:10:45Z</time>
      </trkpt>
      <trkpt lat="45.5014" lon="6.74111">
        <ele>2242</ele>
        <time>2021-08-12T10:10:46Z</time>
      </trkpt>
      <trkpt lat="45.5014" lon="6.74111">
        <ele>2242</ele>
        <time>2021-08-12T10:10:47Z</time>
      </trkpt>
      <trkpt lat="45.5014" lon="6.74111">
        <ele>2242</ele>
        <time>2021-08-12T10:10:48Z</time>
      </trkpt>
      <trkpt lat="45.5014" lon="6.74111">
        <ele>2242</ele>
        <time>2021-08-12T10:10:49Z</time>
      </trkpt>
      <trkpt lat="45.50139" lon="6.74111">
        <ele>2241.9</ele>
        <time>2021-08-12T10:10:50Z</time>
      </trkpt>
      <trkpt lat="45.50139" lon="6.74111">
        <ele>2241.9</ele>
        <time>2021-08-12T10:10:51Z</time>
      </trkpt>
      <trkpt lat="45.50139" lon="6.74111">
        <ele>2241.9</ele>
        <time>2021-08-12T10:10:52Z</time>
      </trkpt>
      <trkpt lat="45.50139" lon="6.74111">
        <ele>2241.9</ele>
        <time>2021-08-12T10:10:53Z</time>
      </trkpt>
      <trkpt lat="45.50139" lon="6.74111">
        <ele>2241.9</ele>
        <time>2021-08-12T10:10:54Z</time>
      </trkpt>
      <trkpt lat="45.50139" lon="6.74111">
        <ele>2241.9</ele>
        <time>2021-08-12T10:10:55Z</time>
      </trkpt>
      <trkpt lat="45.50139" lon="6.74111">
        <ele>2241.9</ele>
        <time>2021-08-12T10:10:56Z</time>
      </trkpt>
      <trkpt lat="45.50139" lon="6.74111">
        <ele>2241.9</ele>
        <time>2021-08-12T10:10:57Z</time>
      </trkpt>
      <trkpt lat="45.50139" lon="6.74111">
        <ele>2241.9</ele>
        <time>2021-08-12T10:10:58Z</time>
      </trkpt>
      <trkpt lat="45.50139" lon="6.74111">
        <ele>2241.9</ele>
        <time>2021-08-12T10:10:59Z</time>
      </trkpt>
      <trkpt lat="45.50139" lon="6.74111">
        <ele>2241.9</ele>
        <time>2021-08-12T10:11:00Z</time>
      </trkpt>
      <trkpt lat="45.50139" lon="6.74111">
        <ele>2241.9</ele>
        <time>2021-08-12T10:11:01Z</time>
      </trkpt>
      <trkpt lat="45.50139" lon="6.74111">
        <ele>2241.9</ele>
        <time>2021-08-12T10:11:02Z</time>
      </trkpt>
      <trkpt lat="45.50139" lon="6.74111">
        <ele>2241.9</ele>
        <time>2021-08-12T10:11:03Z</time>
      </trkpt>
      <trkpt lat="45.50139" lon="6.74111">
        <ele>2241.9</ele>
        <time>2021-08-12T10:11:04Z</time>
      </trkpt>
      <trkpt lat="45.50139" lon="6.74111">
        <ele>2241.9</ele>
        <time>2021-08-12T10:11:05Z</time>
      </trkpt>
      <trkpt lat="45.50139" lon="6.74111">
        <ele>2241.9</ele>
        <time>2021-08-12T10:11:06Z</time>
      </trkpt>
      <trkpt lat="45.50139" lon="6.74111">
        <ele>2241.9</ele>
        <time>2021-08-12T10:11:07Z</time>
      </trkpt>
      <trkpt lat="45.50139" lon="6.74111">
        <ele>2241.9</ele>
        <time>2021-08-12T10:11:08Z</time>
      </trkpt>
      <trkpt lat="45.50139" lon="6.74111">
        <ele>2241.9</ele>
        <time>2021-08-12T10:11:09Z</time>
      </trkpt>
      <trkpt lat="45.50139" lon="6.74111">
        <ele>2241.9</ele>
        <time>2021-08-12T10:11:10Z</time>
      </trkpt>
      <trkpt lat="45.50139" lon="6.74111">
        <ele>2241.9</ele>
        <time>2021-08-12T10:11:11Z</time>
      </trkpt>
      <trkpt lat="45.50139" lon="6.74111">
        <ele>2241.9</ele>
        <time>2021-08-12T10:11:12Z</time>
      </trkpt>
      <trkpt lat="45.50139" lon="6.74111">
        <ele>2241.9</ele>
        <time>2021-08-12T10:11:13Z</time>
      </trkpt>
      <trkpt lat="45.50139" lon="6.74111">
        <ele>2241.9</ele>
        <time>2021-08-12T10:11:14Z</time>
      </trkpt>
      <trkpt lat="45.50139" lon="6.74111">
        <ele>2241.9</ele>
        <time>2021-08-12T10:11:15Z</time>
      </trkpt>
      <trkpt lat="45.50139" lon="6.74111">
        <ele>2241.9</ele>
        <time>2021-08-12T10:11:16Z</time>
      </trkpt>
      <trkpt lat="45.50139" lon="6.74111">
        <ele>2241.9</ele>
        <time>2021-08-12T10:11:17Z</time>
      </trkpt>
      <trkpt lat="45.50139" lon="6.74111">
        <ele>2241.9</ele>
        <time>2021-08-12T10:11:18Z</time>
      </trkpt>
      <trkpt lat="45.50139" lon="6.74111">
        <ele>2241.9</ele>
        <time>2021-08-12T10:11:19Z</time>
      </trkpt>
      <trkpt lat="45.50139" lon="6.74111">
        <ele>2241.9</ele>
        <time>2021-08-12T10:11:20Z</time>
      </trkpt>
      <trkpt lat="45.50139" lon="6.74111">
        <ele>2241.9</ele>
        <time>2021-08-12T10:11:21Z</time>
      </trkpt>
      <trkpt lat="45.50139" lon="6.74111">
        <ele>2241.9</ele>
        <time>2021-08-12T10:11:22Z</time>
      </trkpt>
      <trkpt lat="45.50139" lon="6.74111">
        <ele>2241.9</ele>
        <time>2021-08-12T10:11:23Z</time>
      </trkpt>
      <trkpt lat="45.50139" lon="6.74111">
        <ele>2241.9</ele>
        <time>2021-08-12T10:11:24Z</time>
      </trkpt>
      <trkpt lat="45.50139" lon="6.74111">
        <ele>2241.9</ele>
        <time>2021-08-12T10:11:25Z</time>
      </trkpt>
      <trkpt lat="45.50139" lon="6.74111">
        <ele>2241.9</ele>
        <time>2021-08-12T10:11:26Z</time>
      </trkpt>
      <trkpt lat="45.50139" lon="6.74111">
        <ele>2241.9</ele>
        <time>2021-08-12T10:11:27Z</time>
      </trkpt>
      <trkpt lat="45.50139" lon="6.74111">
        <ele>2241.9</ele>
        <time>2021-08-12T10:11:28Z</time>
      </trkpt>
      <trkpt lat="45.50139" lon="6.74111">
        <ele>2241.9</ele>
        <time>2021-08-12T10:11:29Z</time>
      </trkpt>
      <trkpt lat="45.50139" lon="6.74111">
        <ele>2241.9</ele>
        <time>2021-08-12T10:11:30Z</time>
      </trkpt>
      <trkpt lat="45.50139" lon="6.74111">
        <ele>2241.9</ele>
        <time>2021-08-12T10:11:31Z</time>
      </trkpt>
      <trkpt lat="45.50139" lon="6.74111">
        <ele>2241.9</ele>
        <time>2021-08-12T10:11:32Z</time>
      </trkpt>
      <trkpt lat="45.50139" lon="6.74111">
        <ele>2241.9</ele>
        <time>2021-08-12T10:11:33Z</time>
      </trkpt>
      <trkpt lat="45.50139" lon="6.74111">
        <ele>2241.9</ele>
        <time>2021-08-12T10:11:34Z</time>
      </trkpt>
      <trkpt lat="45.50139" lon="6.74111">
        <ele>2241.9</ele>
        <time>2021-08-12T10:11:35Z</time>
      </trkpt>
      <trkpt lat="45.50139" lon="6.74111">
        <ele>2241.9</ele>
        <time>2021-08-12T10:11:36Z</time>
      </trkpt>
      <trkpt lat="45.50139" lon="6.74111">
        <ele>2241.9</ele>
        <time>2021-08-12T10:11:37Z</time>
      </trkpt>
      <trkpt lat="45.50139" lon="6.74111">
        <ele>2241.9</ele>
        <time>2021-08-12T10:11:38Z</time>
      </trkpt>
      <trkpt lat="45.50139" lon="6.74111">
        <ele>2241.9</ele>
        <time>2021-08-12T10:11:39Z</time>
      </trkpt>
      <trkpt lat="45.50139" lon="6.74111">
        <ele>2241.9</ele>
        <time>2021-08-12T10:11:40Z</time>
      </trkpt>
      <trkpt lat="45.50139" lon="6.74111">
        <ele>2241.9</ele>
        <time>2021-08-12T10:11:41Z</time>
      </trkpt>
      <trkpt lat="45.50139" lon="6.74111">
        <ele>2241.9</ele>
        <time>2021-08-12T10:11:42Z</time>
      </trkpt>
      <trkpt lat="45.50139" lon="6.74111">
        <ele>2241.9</ele>
        <time>2021-08-12T10:11:43Z</time>
      </trkpt>
      <trkpt lat="45.50139" lon="6.74111">
        <ele>2241.9</ele>
        <time>2021-08-12T10:11:44Z</time>
      </trkpt>
      <trkpt lat="45.50139" lon="6.74111">
        <ele>2241.9</ele>
        <time>2021-08-12T10:11:45Z</time>
      </trkpt>
      <trkpt lat="45.50139" lon="6.74111">
        <ele>2241.9</ele>
        <time>2021-08-12T10:11:46Z</time>
      </trkpt>
      <trkpt lat="45.50139" lon="6.74111">
        <ele>2241.9</ele>
        <time>2021-08-12T10:11:47Z</time>
      </trkpt>
      <trkpt lat="45.50139" lon="6.74111">
        <ele>2241.9</ele>
        <time>2021-08-12T10:11:48Z</time>
      </trkpt>
      <trkpt lat="45.50139" lon="6.74111">
        <ele>2241.9</ele>
        <time>2021-08-12T10:11:49Z</time>
      </trkpt>
      <trkpt lat="45.50139" lon="6.74111">
        <ele>2241.9</ele>
        <time>2021-08-12T10:11:50Z</time>
      </trkpt>
      <trkpt lat="45.50139" lon="6.74111">
        <ele>2241.9</ele>
        <time>2021-08-12T10:11:51Z</time>
      </trkpt>
      <trkpt lat="45.50139" lon="6.74111">
        <ele>2241.9</ele>
        <time>2021-08-12T10:11:52Z</time>
      </trkpt>
      <trkpt lat="45.50139" lon="6.74111">
        <ele>2241.9</ele>
        <time>2021-08-12T10:11:53Z</time>
      </trkpt>
      <trkpt lat="45.50139" lon="6.74111">
        <ele>2241.9</ele>
        <time>2021-08-12T10:11:54Z</time>
      </trkpt>
      <trkpt lat="45.50139" lon="6.74111">
        <ele>2241.9</ele>
        <time>2021-08-12T10:11:55Z</time>
      </trkpt>
      <trkpt lat="45.50139" lon="6.74111">
        <ele>2241.9</ele>
        <time>2021-08-12T10:11:56Z</time>
      </trkpt>
      <trkpt lat="45.50139" lon="6.74111">
        <ele>2241.9</ele>
        <time>2021-08-12T10:11:57Z</time>
      </trkpt>
      <trkpt lat="45.50139" lon="6.74111">
        <ele>2241.9</ele>
        <time>2021-08-12T10:11:58Z</time>
      </trkpt>
      <trkpt lat="45.50139" lon="6.74111">
        <ele>2241.9</ele>
        <time>2021-08-12T10:11:59Z</time>
      </trkpt>
      <trkpt lat="45.50139" lon="6.74111">
        <ele>2241.9</ele>
        <time>2021-08-12T10:12:00Z</time>
      </trkpt>
      <trkpt lat="45.50139" lon="6.74111">
        <ele>2241.9</ele>
        <time>2021-08-12T10:12:01Z</time>
      </trkpt>
      <trkpt lat="45.50139" lon="6.74111">
        <ele>2241.9</ele>
        <time>2021-08-12T10:12:02Z</time>
      </trkpt>
      <trkpt lat="45.50139" lon="6.74111">
        <ele>2241.9</ele>
        <time>2021-08-12T10:12:03Z</time>
      </trkpt>
      <trkpt lat="45.50139" lon="6.74111">
        <ele>2241.9</ele>
        <time>2021-08-12T10:12:04Z</time>
      </trkpt>
      <trkpt lat="45.50139" lon="6.74111">
        <ele>2241.9</ele>
        <time>2021-08-12T10:12:05Z</time>
      </trkpt>
      <trkpt lat="45.50139" lon="6.74111">
        <ele>2241.9</ele>
        <time>2021-08-12T10:12:06Z</time>
      </trkpt>
      <trkpt lat="45.50139" lon="6.74111">
        <ele>2241.9</ele>
        <time>2021-08-12T10:12:07Z</time>
      </trkpt>
      <trkpt lat="45.50139" lon="6.74111">
        <ele>2241.9</ele>
        <time>2021-08-12T10:12:08Z</time>
      </trkpt>
      <trkpt lat="45.50139" lon="6.74111">
        <ele>2241.9</ele>
        <time>2021-08-12T10:12:09Z</time>
      </trkpt>
      <trkpt lat="45.50139" lon="6.74111">
        <ele>2241.9</ele>
        <time>2021-08-12T10:12:10Z</time>
      </trkpt>
      <trkpt lat="45.50139" lon="6.74111">
        <ele>2241.9</ele>
        <time>2021-08-12T10:12:11Z</time>
      </trkpt>
      <trkpt lat="45.50139" lon="6.74111">
        <ele>2241.9</ele>
        <time>2021-08-12T10:12:12Z</time>
      </trkpt>
      <trkpt lat="45.50139" lon="6.74111">
        <ele>2241.9</ele>
        <time>2021-08-12T10:12:13Z</time>
      </trkpt>
      <trkpt lat="45.50139" lon="6.74111">
        <ele>2241.9</ele>
        <time>2021-08-12T10:12:14Z</time>
      </trkpt>
      <trkpt lat="45.50139" lon="6.74111">
        <ele>2241.9</ele>
        <time>2021-08-12T10:12:15Z</time>
      </trkpt>
      <trkpt lat="45.50139" lon="6.74111">
        <ele>2241.9</ele>
        <time>2021-08-12T10:12:16Z</time>
      </trkpt>
      <trkpt lat="45.50139" lon="6.74111">
        <ele>2241.9</ele>
        <time>2021-08-12T10:12:17Z</time>
      </trkpt>
      <trkpt lat="45.50139" lon="6.74111">
        <ele>2241.9</ele>
        <time>2021-08-12T10:12:18Z</time>
      </trkpt>
      <trkpt lat="45.50139" lon="6.74111">
        <ele>2241.9</ele>
        <time>2021-08-12T10:12:19Z</time>
      </trkpt>
      <trkpt lat="45.50139" lon="6.74111">
        <ele>2241.9</ele>
        <time>2021-08-12T10:12:20Z</time>
      </trkpt>
      <trkpt lat="45.50139" lon="6.74111">
        <ele>2241.9</ele>
        <time>2021-08-12T10:12:21Z</time>
      </trkpt>
      <trkpt lat="45.50139" lon="6.74111">
        <ele>2241.9</ele>
        <time>2021-08-12T10:12:22Z</time>
      </trkpt>
      <trkpt lat="45.50139" lon="6.74111">
        <ele>2241.9</ele>
        <time>2021-08-12T10:12:23Z</time>
      </trkpt>
      <trkpt lat="45.50139" lon="6.74111">
        <ele>2241.9</ele>
        <time>2021-08-12T10:12:24Z</time>
      </trkpt>
      <trkpt lat="45.50139" lon="6.74111">
        <ele>2241.9</ele>
        <time>2021-08-12T10:12:25Z</time>
      </trkpt>
      <trkpt lat="45.50139" lon="6.74111">
        <ele>2241.9</ele>
        <time>2021-08-12T10:12:26Z</time>
      </trkpt>
      <trkpt lat="45.50139" lon="6.74111">
        <ele>2241.9</ele>
        <time>2021-08-12T10:12:27Z</time>
      </trkpt>
      <trkpt lat="45.50139" lon="6.74111">
        <ele>2241.9</ele>
        <time>2021-08-12T10:12:28Z</time>
      </trkpt>
      <trkpt lat="45.50139" lon="6.74111">
        <ele>2241.9</ele>
        <time>2021-08-12T10:12:29Z</time>
      </trkpt>
      <trkpt lat="45.50139" lon="6.74111">
        <ele>2241.9</ele>
        <time>2021-08-12T10:12:30Z</time>
      </trkpt>
      <trkpt lat="45.50139" lon="6.74111">
        <ele>2241.9</ele>
        <time>2021-08-12T10:12:31Z</time>
      </trkpt>
      <trkpt lat="45.50139" lon="6.74111">
        <ele>2241.9</ele>
        <time>2021-08-12T10:12:32Z</time>
      </trkpt>
      <trkpt lat="45.50139" lon="6.74111">
        <ele>2241.9</ele>
        <time>2021-08-12T10:12:33Z</time>
      </trkpt>
      <trkpt lat="45.50139" lon="6.74111">
        <ele>2241.9</ele>
        <time>2021-08-12T10:12:34Z</time>
      </trkpt>
      <trkpt lat="45.50139" lon="6.74111">
        <ele>2241.9</ele>
        <time>2021-08-12T10:12:35Z</time>
      </trkpt>
      <trkpt lat="45.50139" lon="6.74111">
        <ele>2241.9</ele>
        <time>2021-08-12T10:12:36Z</time>
      </trkpt>
      <trkpt lat="45.50139" lon="6.74111">
        <ele>2241.9</ele>
        <time>2021-08-12T10:12:37Z</time>
      </trkpt>
      <trkpt lat="45.50139" lon="6.74111">
        <ele>2241.9</ele>
        <time>2021-08-12T10:12:38Z</time>
      </trkpt>
      <trkpt lat="45.50139" lon="6.74111">
        <ele>2241.9</ele>
        <time>2021-08-12T10:12:39Z</time>
      </trkpt>
      <trkpt lat="45.50139" lon="6.74111">
        <ele>2241.9</ele>
        <time>2021-08-12T10:12:40Z</time>
      </trkpt>
      <trkpt lat="45.50139" lon="6.74111">
        <ele>2241.9</ele>
        <time>2021-08-12T10:12:41Z</time>
      </trkpt>
      <trkpt lat="45.50139" lon="6.74111">
        <ele>2241.9</ele>
        <time>2021-08-12T10:12:42Z</time>
      </trkpt>
      <trkpt lat="45.50139" lon="6.74111">
        <ele>2241.9</ele>
        <time>2021-08-12T10:12:43Z</time>
      </trkpt>
      <trkpt lat="45.50139" lon="6.74111">
        <ele>2241.9</ele>
        <time>2021-08-12T10:12:44Z</time>
      </trkpt>
      <trkpt lat="45.50139" lon="6.74111">
        <ele>2241.9</ele>
        <time>2021-08-12T10:12:45Z</time>
      </trkpt>
      <trkpt lat="45.50139" lon="6.74111">
        <ele>2241.9</ele>
        <time>2021-08-12T10:12:46Z</time>
      </trkpt>
      <trkpt lat="45.50139" lon="6.74111">
        <ele>2241.9</ele>
        <time>2021-08-12T10:12:47Z</time>
      </trkpt>
      <trkpt lat="45.50139" lon="6.74111">
        <ele>2241.9</ele>
        <time>2021-08-12T10:12:48Z</time>
      </trkpt>
      <trkpt lat="45.50139" lon="6.74111">
        <ele>2241.9</ele>
        <time>2021-08-12T10:12:49Z</time>
      </trkpt>
      <trkpt lat="45.50139" lon="6.74111">
        <ele>2241.9</ele>
        <time>2021-08-12T10:12:50Z</time>
      </trkpt>
      <trkpt lat="45.50139" lon="6.74111">
        <ele>2241.9</ele>
        <time>2021-08-12T10:12:51Z</time>
      </trkpt>
      <trkpt lat="45.50139" lon="6.74111">
        <ele>2241.9</ele>
        <time>2021-08-12T10:12:52Z</time>
      </trkpt>
      <trkpt lat="45.50139" lon="6.74111">
        <ele>2241.9</ele>
        <time>2021-08-12T10:12:53Z</time>
      </trkpt>
      <trkpt lat="45.50139" lon="6.74111">
        <ele>2241.9</ele>
        <time>2021-08-12T10:12:54Z</time>
      </trkpt>
      <trkpt lat="45.50139" lon="6.74111">
        <ele>2241.9</ele>
        <time>2021-08-12T10:12:55Z</time>
      </trkpt>
      <trkpt lat="45.50139" lon="6.74111">
        <ele>2241.9</ele>
        <time>2021-08-12T10:12:56Z</time>
      </trkpt>
      <trkpt lat="45.50139" lon="6.74111">
        <ele>2241.9</ele>
        <time>2021-08-12T10:12:57Z</time>
      </trkpt>
      <trkpt lat="45.50139" lon="6.74111">
        <ele>2241.9</ele>
        <time>2021-08-12T10:12:58Z</time>
      </trkpt>
      <trkpt lat="45.50139" lon="6.74111">
        <ele>2241.9</ele>
        <time>2021-08-12T10:12:59Z</time>
      </trkpt>
      <trkpt lat="45.50139" lon="6.74111">
        <ele>2241.9</ele>
        <time>2021-08-12T10:13:00Z</time>
      </trkpt>
      <trkpt lat="45.50139" lon="6.74111">
        <ele>2241.8</ele>
        <time>2021-08-12T10:13:01Z</time>
      </trkpt>
      <trkpt lat="45.50139" lon="6.74111">
        <ele>2241.8</ele>
        <time>2021-08-12T10:13:02Z</time>
      </trkpt>
      <trkpt lat="45.50139" lon="6.74111">
        <ele>2241.8</ele>
        <time>2021-08-12T10:13:03Z</time>
      </trkpt>
      <trkpt lat="45.50139" lon="6.74111">
        <ele>2241.8</ele>
        <time>2021-08-12T10:13:04Z</time>
      </trkpt>
      <trkpt lat="45.50139" lon="6.74111">
        <ele>2241.8</ele>
        <time>2021-08-12T10:13:05Z</time>
      </trkpt>
      <trkpt lat="45.50139" lon="6.74111">
        <ele>2241.8</ele>
        <time>2021-08-12T10:13:06Z</time>
      </trkpt>
      <trkpt lat="45.50139" lon="6.74111">
        <ele>2241.8</ele>
        <time>2021-08-12T10:13:07Z</time>
      </trkpt>
      <trkpt lat="45.50139" lon="6.74111">
        <ele>2241.8</ele>
        <time>2021-08-12T10:13:08Z</time>
      </trkpt>
      <trkpt lat="45.50139" lon="6.74111">
        <ele>2241.8</ele>
        <time>2021-08-12T10:13:09Z</time>
      </trkpt>
      <trkpt lat="45.50139" lon="6.74111">
        <ele>2241.8</ele>
        <time>2021-08-12T10:13:10Z</time>
      </trkpt>
      <trkpt lat="45.50139" lon="6.74111">
        <ele>2241.8</ele>
        <time>2021-08-12T10:13:11Z</time>
      </trkpt>
      <trkpt lat="45.50139" lon="6.74111">
        <ele>2241.8</ele>
        <time>2021-08-12T10:13:12Z</time>
      </trkpt>
      <trkpt lat="45.50139" lon="6.74111">
        <ele>2241.8</ele>
        <time>2021-08-12T10:13:13Z</time>
      </trkpt>
      <trkpt lat="45.50139" lon="6.74111">
        <ele>2241.8</ele>
        <time>2021-08-12T10:13:14Z</time>
      </trkpt>
      <trkpt lat="45.5014" lon="6.74111">
        <ele>2241.8</ele>
        <time>2021-08-12T10:13:15Z</time>
      </trkpt>
      <trkpt lat="45.5014" lon="6.74111">
        <ele>2241.8</ele>
        <time>2021-08-12T10:13:16Z</time>
      </trkpt>
      <trkpt lat="45.5014" lon="6.74111">
        <ele>2241.8</ele>
        <time>2021-08-12T10:13:17Z</time>
      </trkpt>
      <trkpt lat="45.5014" lon="6.74111">
        <ele>2241.8</ele>
        <time>2021-08-12T10:13:18Z</time>
      </trkpt>
      <trkpt lat="45.5014" lon="6.74111">
        <ele>2241.8</ele>
        <time>2021-08-12T10:13:19Z</time>
      </trkpt>
      <trkpt lat="45.5014" lon="6.74111">
        <ele>2241.8</ele>
        <time>2021-08-12T10:13:20Z</time>
      </trkpt>
      <trkpt lat="45.5014" lon="6.74111">
        <ele>2241.8</ele>
        <time>2021-08-12T10:13:21Z</time>
      </trkpt>
      <trkpt lat="45.5014" lon="6.74111">
        <ele>2241.8</ele>
        <time>2021-08-12T10:13:22Z</time>
      </trkpt>
      <trkpt lat="45.5014" lon="6.74111">
        <ele>2241.8</ele>
        <time>2021-08-12T10:13:23Z</time>
      </trkpt>
      <trkpt lat="45.5014" lon="6.74111">
        <ele>2241.8</ele>
        <time>2021-08-12T10:13:24Z</time>
      </trkpt>
      <trkpt lat="45.5014" lon="6.74111">
        <ele>2241.8</ele>
        <time>2021-08-12T10:13:25Z</time>
      </trkpt>
      <trkpt lat="45.5014" lon="6.74111">
        <ele>2241.8</ele>
        <time>2021-08-12T10:13:26Z</time>
      </trkpt>
      <trkpt lat="45.5014" lon="6.74111">
        <ele>2241.8</ele>
        <time>2021-08-12T10:13:27Z</time>
      </trkpt>
      <trkpt lat="45.5014" lon="6.74111">
        <ele>2241.8</ele>
        <time>2021-08-12T10:13:28Z</time>
      </trkpt>
      <trkpt lat="45.5014" lon="6.74111">
        <ele>2241.8</ele>
        <time>2021-08-12T10:13:29Z</time>
      </trkpt>
      <trkpt lat="45.5014" lon="6.74111">
        <ele>2241.8</ele>
        <time>2021-08-12T10:13:30Z</time>
      </trkpt>
      <trkpt lat="45.5014" lon="6.74111">
        <ele>2241.8</ele>
        <time>2021-08-12T10:13:31Z</time>
      </trkpt>
      <trkpt lat="45.5014" lon="6.74111">
        <ele>2241.8</ele>
        <time>2021-08-12T10:13:32Z</time>
      </trkpt>
      <trkpt lat="45.5014" lon="6.7411">
        <ele>2241.8</ele>
        <time>2021-08-12T10:13:33Z</time>
      </trkpt>
      <trkpt lat="45.5014" lon="6.7411">
        <ele>2241.8</ele>
        <time>2021-08-12T10:13:34Z</time>
      </trkpt>
      <trkpt lat="45.5014" lon="6.7411">
        <ele>2241.8</ele>
        <time>2021-08-12T10:13:35Z</time>
      </trkpt>
      <trkpt lat="45.5014" lon="6.7411">
        <ele>2241.8</ele>
        <time>2021-08-12T10:13:36Z</time>
      </trkpt>
      <trkpt lat="45.5014" lon="6.7411">
        <ele>2241.8</ele>
        <time>2021-08-12T10:13:37Z</time>
      </trkpt>
      <trkpt lat="45.5014" lon="6.7411">
        <ele>2241.8</ele>
        <time>2021-08-12T10:13:38Z</time>
      </trkpt>
      <trkpt lat="45.5014" lon="6.7411">
        <ele>2241.8</ele>
        <time>2021-08-12T10:13:39Z</time>
      </trkpt>
      <trkpt lat="45.5014" lon="6.7411">
        <ele>2241.8</ele>
        <time>2021-08-12T10:13:40Z</time>
      </trkpt>
      <trkpt lat="45.5014" lon="6.7411">
        <ele>2241.8</ele>
        <time>2021-08-12T10:13:41Z</time>
      </trkpt>
      <trkpt lat="45.5014" lon="6.7411">
        <ele>2241.7</ele>
        <time>2021-08-12T10:13:42Z</time>
      </trkpt>
      <trkpt lat="45.5014" lon="6.7411">
        <ele>2241.7</ele>
        <time>2021-08-12T10:13:43Z</time>
      </trkpt>
      <trkpt lat="45.5014" lon="6.7411">
        <ele>2241.7</ele>
        <time>2021-08-12T10:13:44Z</time>
      </trkpt>
      <trkpt lat="45.5014" lon="6.7411">
        <ele>2241.7</ele>
        <time>2021-08-12T10:13:45Z</time>
      </trkpt>
      <trkpt lat="45.5014" lon="6.7411">
        <ele>2241.7</ele>
        <time>2021-08-12T10:13:46Z</time>
      </trkpt>
      <trkpt lat="45.5014" lon="6.7411">
        <ele>2241.7</ele>
        <time>2021-08-12T10:13:47Z</time>
      </trkpt>
      <trkpt lat="45.5014" lon="6.7411">
        <ele>2241.7</ele>
        <time>2021-08-12T10:13:48Z</time>
      </trkpt>
      <trkpt lat="45.5014" lon="6.7411">
        <ele>2241.7</ele>
        <time>2021-08-12T10:13:49Z</time>
      </trkpt>
      <trkpt lat="45.5014" lon="6.7411">
        <ele>2241.7</ele>
        <time>2021-08-12T10:13:50Z</time>
      </trkpt>
      <trkpt lat="45.5014" lon="6.7411">
        <ele>2241.7</ele>
        <time>2021-08-12T10:13:51Z</time>
      </trkpt>
      <trkpt lat="45.5014" lon="6.7411">
        <ele>2241.7</ele>
        <time>2021-08-12T10:13:52Z</time>
      </trkpt>
      <trkpt lat="45.5014" lon="6.7411">
        <ele>2241.7</ele>
        <time>2021-08-12T10:13:53Z</time>
      </trkpt>
      <trkpt lat="45.5014" lon="6.7411">
        <ele>2241.7</ele>
        <time>2021-08-12T10:13:54Z</time>
      </trkpt>
      <trkpt lat="45.5014" lon="6.7411">
        <ele>2241.7</ele>
        <time>2021-08-12T10:13:55Z</time>
      </trkpt>
      <trkpt lat="45.5014" lon="6.7411">
        <ele>2241.7</ele>
        <time>2021-08-12T10:13:56Z</time>
      </trkpt>
      <trkpt lat="45.5014" lon="6.7411">
        <ele>2241.7</ele>
        <time>2021-08-12T10:13:57Z</time>
      </trkpt>
      <trkpt lat="45.5014" lon="6.7411">
        <ele>2241.7</ele>
        <time>2021-08-12T10:13:58Z</time>
      </trkpt>
      <trkpt lat="45.5014" lon="6.7411">
        <ele>2241.7</ele>
        <time>2021-08-12T10:13:59Z</time>
      </trkpt>
      <trkpt lat="45.5014" lon="6.7411">
        <ele>2241.7</ele>
        <time>2021-08-12T10:14:00Z</time>
      </trkpt>
      <trkpt lat="45.5014" lon="6.7411">
        <ele>2241.7</ele>
        <time>2021-08-12T10:14:01Z</time>
      </trkpt>
      <trkpt lat="45.5014" lon="6.7411">
        <ele>2241.7</ele>
        <time>2021-08-12T10:14:02Z</time>
      </trkpt>
      <trkpt lat="45.5014" lon="6.7411">
        <ele>2241.7</ele>
        <time>2021-08-12T10:14:03Z</time>
      </trkpt>
      <trkpt lat="45.5014" lon="6.7411">
        <ele>2241.7</ele>
        <time>2021-08-12T10:14:04Z</time>
      </trkpt>
      <trkpt lat="45.5014" lon="6.7411">
        <ele>2241.7</ele>
        <time>2021-08-12T10:14:05Z</time>
      </trkpt>
      <trkpt lat="45.5014" lon="6.7411">
        <ele>2241.7</ele>
        <time>2021-08-12T10:14:06Z</time>
      </trkpt>
      <trkpt lat="45.5014" lon="6.7411">
        <ele>2241.7</ele>
        <time>2021-08-12T10:14:07Z</time>
      </trkpt>
      <trkpt lat="45.5014" lon="6.7411">
        <ele>2241.7</ele>
        <time>2021-08-12T10:14:08Z</time>
      </trkpt>
      <trkpt lat="45.5014" lon="6.7411">
        <ele>2241.7</ele>
        <time>2021-08-12T10:14:09Z</time>
      </trkpt>
      <trkpt lat="45.5014" lon="6.7411">
        <ele>2241.7</ele>
        <time>2021-08-12T10:14:10Z</time>
      </trkpt>
      <trkpt lat="45.5014" lon="6.7411">
        <ele>2241.7</ele>
        <time>2021-08-12T10:14:11Z</time>
      </trkpt>
      <trkpt lat="45.5014" lon="6.7411">
        <ele>2241.7</ele>
        <time>2021-08-12T10:14:12Z</time>
      </trkpt>
      <trkpt lat="45.5014" lon="6.7411">
        <ele>2241.7</ele>
        <time>2021-08-12T10:14:13Z</time>
      </trkpt>
      <trkpt lat="45.5014" lon="6.7411">
        <ele>2241.7</ele>
        <time>2021-08-12T10:14:14Z</time>
      </trkpt>
      <trkpt lat="45.5014" lon="6.7411">
        <ele>2241.7</ele>
        <time>2021-08-12T10:14:15Z</time>
      </trkpt>
      <trkpt lat="45.5014" lon="6.7411">
        <ele>2241.7</ele>
        <time>2021-08-12T10:14:16Z</time>
      </trkpt>
      <trkpt lat="45.5014" lon="6.7411">
        <ele>2241.6</ele>
        <time>2021-08-12T10:14:17Z</time>
      </trkpt>
      <trkpt lat="45.5014" lon="6.7411">
        <ele>2241.6</ele>
        <time>2021-08-12T10:14:18Z</time>
      </trkpt>
      <trkpt lat="45.5014" lon="6.7411">
        <ele>2241.6</ele>
        <time>2021-08-12T10:14:19Z</time>
      </trkpt>
      <trkpt lat="45.5014" lon="6.7411">
        <ele>2241.6</ele>
        <time>2021-08-12T10:14:20Z</time>
      </trkpt>
      <trkpt lat="45.5014" lon="6.7411">
        <ele>2241.6</ele>
        <time>2021-08-12T10:14:21Z</time>
      </trkpt>
      <trkpt lat="45.5014" lon="6.7411">
        <ele>2241.6</ele>
        <time>2021-08-12T10:14:22Z</time>
      </trkpt>
      <trkpt lat="45.5014" lon="6.7411">
        <ele>2241.6</ele>
        <time>2021-08-12T10:14:23Z</time>
      </trkpt>
      <trkpt lat="45.5014" lon="6.7411">
        <ele>2241.6</ele>
        <time>2021-08-12T10:14:24Z</time>
      </trkpt>
      <trkpt lat="45.5014" lon="6.7411">
        <ele>2241.6</ele>
        <time>2021-08-12T10:14:25Z</time>
      </trkpt>
      <trkpt lat="45.5014" lon="6.7411">
        <ele>2241.6</ele>
        <time>2021-08-12T10:14:26Z</time>
      </trkpt>
      <trkpt lat="45.5014" lon="6.7411">
        <ele>2241.6</ele>
        <time>2021-08-12T10:14:27Z</time>
      </trkpt>
      <trkpt lat="45.5014" lon="6.7411">
        <ele>2241.6</ele>
        <time>2021-08-12T10:14:28Z</time>
      </trkpt>
      <trkpt lat="45.5014" lon="6.7411">
        <ele>2241.6</ele>
        <time>2021-08-12T10:14:29Z</time>
      </trkpt>
      <trkpt lat="45.5014" lon="6.7411">
        <ele>2241.6</ele>
        <time>2021-08-12T10:14:30Z</time>
      </trkpt>
      <trkpt lat="45.5014" lon="6.7411">
        <ele>2241.6</ele>
        <time>2021-08-12T10:14:31Z</time>
      </trkpt>
      <trkpt lat="45.5014" lon="6.7411">
        <ele>2241.6</ele>
        <time>2021-08-12T10:14:32Z</time>
      </trkpt>
      <trkpt lat="45.5014" lon="6.7411">
        <ele>2241.6</ele>
        <time>2021-08-12T10:14:33Z</time>
      </trkpt>
      <trkpt lat="45.5014" lon="6.7411">
        <ele>2241.6</ele>
        <time>2021-08-12T10:14:34Z</time>
      </trkpt>
      <trkpt lat="45.5014" lon="6.7411">
        <ele>2241.6</ele>
        <time>2021-08-12T10:14:35Z</time>
      </trkpt>
      <trkpt lat="45.5014" lon="6.7411">
        <ele>2241.6</ele>
        <time>2021-08-12T10:14:36Z</time>
      </trkpt>
      <trkpt lat="45.5014" lon="6.7411">
        <ele>2241.6</ele>
        <time>2021-08-12T10:14:37Z</time>
      </trkpt>
      <trkpt lat="45.5014" lon="6.7411">
        <ele>2241.6</ele>
        <time>2021-08-12T10:14:38Z</time>
      </trkpt>
      <trkpt lat="45.5014" lon="6.7411">
        <ele>2241.6</ele>
        <time>2021-08-12T10:14:39Z</time>
      </trkpt>
      <trkpt lat="45.5014" lon="6.7411">
        <ele>2241.6</ele>
        <time>2021-08-12T10:14:40Z</time>
      </trkpt>
      <trkpt lat="45.5014" lon="6.7411">
        <ele>2241.6</ele>
        <time>2021-08-12T10:14:41Z</time>
      </trkpt>
      <trkpt lat="45.5014" lon="6.7411">
        <ele>2241.6</ele>
        <time>2021-08-12T10:14:42Z</time>
      </trkpt>
      <trkpt lat="45.5014" lon="6.7411">
        <ele>2241.6</ele>
        <time>2021-08-12T10:14:43Z</time>
      </trkpt>
      <trkpt lat="45.5014" lon="6.7411">
        <ele>2241.6</ele>
        <time>2021-08-12T10:14:44Z</time>
      </trkpt>
      <trkpt lat="45.5014" lon="6.7411">
        <ele>2241.6</ele>
        <time>2021-08-12T10:14:45Z</time>
      </trkpt>
      <trkpt lat="45.5014" lon="6.7411">
        <ele>2241.6</ele>
        <time>2021-08-12T10:14:46Z</time>
      </trkpt>
      <trkpt lat="45.5014" lon="6.7411">
        <ele>2241.6</ele>
        <time>2021-08-12T10:14:47Z</time>
      </trkpt>
      <trkpt lat="45.5014" lon="6.7411">
        <ele>2241.6</ele>
        <time>2021-08-12T10:14:48Z</time>
      </trkpt>
      <trkpt lat="45.5014" lon="6.7411">
        <ele>2241.6</ele>
        <time>2021-08-12T10:14:49Z</time>
      </trkpt>
      <trkpt lat="45.5014" lon="6.7411">
        <ele>2241.6</ele>
        <time>2021-08-12T10:14:50Z</time>
      </trkpt>
      <trkpt lat="45.5014" lon="6.7411">
        <ele>2241.6</ele>
        <time>2021-08-12T10:14:51Z</time>
      </trkpt>
      <trkpt lat="45.5014" lon="6.7411">
        <ele>2241.6</ele>
        <time>2021-08-12T10:14:52Z</time>
      </trkpt>
      <trkpt lat="45.5014" lon="6.7411">
        <ele>2241.6</ele>
        <time>2021-08-12T10:14:53Z</time>
      </trkpt>
      <trkpt lat="45.5014" lon="6.7411">
        <ele>2241.6</ele>
        <time>2021-08-12T10:14:54Z</time>
      </trkpt>
      <trkpt lat="45.5014" lon="6.7411">
        <ele>2241.6</ele>
        <time>2021-08-12T10:14:55Z</time>
      </trkpt>
      <trkpt lat="45.5014" lon="6.7411">
        <ele>2241.6</ele>
        <time>2021-08-12T10:14:56Z</time>
      </trkpt>
      <trkpt lat="45.5014" lon="6.7411">
        <ele>2241.6</ele>
        <time>2021-08-12T10:14:57Z</time>
      </trkpt>
      <trkpt lat="45.5014" lon="6.7411">
        <ele>2241.6</ele>
        <time>2021-08-12T10:14:58Z</time>
      </trkpt>
      <trkpt lat="45.5014" lon="6.7411">
        <ele>2241.6</ele>
        <time>2021-08-12T10:14:59Z</time>
      </trkpt>
      <trkpt lat="45.5014" lon="6.7411">
        <ele>2241.6</ele>
        <time>2021-08-12T10:15:00Z</time>
      </trkpt>
      <trkpt lat="45.5014" lon="6.7411">
        <ele>2241.6</ele>
        <time>2021-08-12T10:15:01Z</time>
      </trkpt>
      <trkpt lat="45.5014" lon="6.7411">
        <ele>2241.6</ele>
        <time>2021-08-12T10:15:02Z</time>
      </trkpt>
      <trkpt lat="45.5014" lon="6.7411">
        <ele>2241.6</ele>
        <time>2021-08-12T10:15:03Z</time>
      </trkpt>
      <trkpt lat="45.5014" lon="6.7411">
        <ele>2241.6</ele>
        <time>2021-08-12T10:15:04Z</time>
      </trkpt>
      <trkpt lat="45.5014" lon="6.7411">
        <ele>2241.6</ele>
        <time>2021-08-12T10:15:05Z</time>
      </trkpt>
      <trkpt lat="45.5014" lon="6.7411">
        <ele>2241.6</ele>
        <time>2021-08-12T10:15:06Z</time>
      </trkpt>
      <trkpt lat="45.5014" lon="6.7411">
        <ele>2241.6</ele>
        <time>2021-08-12T10:15:07Z</time>
      </trkpt>
      <trkpt lat="45.5014" lon="6.7411">
        <ele>2241.6</ele>
        <time>2021-08-12T10:15:08Z</time>
      </trkpt>
      <trkpt lat="45.5014" lon="6.7411">
        <ele>2241.6</ele>
        <time>2021-08-12T10:15:09Z</time>
      </trkpt>
      <trkpt lat="45.5014" lon="6.7411">
        <ele>2241.6</ele>
        <time>2021-08-12T10:15:10Z</time>
      </trkpt>
      <trkpt lat="45.5014" lon="6.7411">
        <ele>2241.6</ele>
        <time>2021-08-12T10:15:11Z</time>
      </trkpt>
      <trkpt lat="45.5014" lon="6.7411">
        <ele>2241.6</ele>
        <time>2021-08-12T10:15:12Z</time>
      </trkpt>
      <trkpt lat="45.5014" lon="6.7411">
        <ele>2241.6</ele>
        <time>2021-08-12T10:15:13Z</time>
      </trkpt>
      <trkpt lat="45.5014" lon="6.7411">
        <ele>2241.6</ele>
        <time>2021-08-12T10:15:14Z</time>
      </trkpt>
      <trkpt lat="45.5014" lon="6.7411">
        <ele>2241.6</ele>
        <time>2021-08-12T10:15:15Z</time>
      </trkpt>
      <trkpt lat="45.5014" lon="6.7411">
        <ele>2241.6</ele>
        <time>2021-08-12T10:15:16Z</time>
      </trkpt>
      <trkpt lat="45.5014" lon="6.7411">
        <ele>2241.6</ele>
        <time>2021-08-12T10:15:17Z</time>
      </trkpt>
      <trkpt lat="45.5014" lon="6.7411">
        <ele>2241.6</ele>
        <time>2021-08-12T10:15:18Z</time>
      </trkpt>
      <trkpt lat="45.5014" lon="6.7411">
        <ele>2241.6</ele>
        <time>2021-08-12T10:15:19Z</time>
      </trkpt>
      <trkpt lat="45.5014" lon="6.7411">
        <ele>2241.6</ele>
        <time>2021-08-12T10:15:20Z</time>
      </trkpt>
      <trkpt lat="45.5014" lon="6.7411">
        <ele>2241.6</ele>
        <time>2021-08-12T10:15:21Z</time>
      </trkpt>
      <trkpt lat="45.5014" lon="6.7411">
        <ele>2241.6</ele>
        <time>2021-08-12T10:15:22Z</time>
      </trkpt>
      <trkpt lat="45.5014" lon="6.7411">
        <ele>2241.6</ele>
        <time>2021-08-12T10:15:23Z</time>
      </trkpt>
      <trkpt lat="45.5014" lon="6.7411">
        <ele>2241.6</ele>
        <time>2021-08-12T10:15:24Z</time>
      </trkpt>
      <trkpt lat="45.5014" lon="6.7411">
        <ele>2241.6</ele>
        <time>2021-08-12T10:15:25Z</time>
      </trkpt>
      <trkpt lat="45.5014" lon="6.7411">
        <ele>2241.6</ele>
        <time>2021-08-12T10:15:26Z</time>
      </trkpt>
      <trkpt lat="45.5014" lon="6.7411">
        <ele>2241.6</ele>
        <time>2021-08-12T10:15:27Z</time>
      </trkpt>
      <trkpt lat="45.5014" lon="6.7411">
        <ele>2241.6</ele>
        <time>2021-08-12T10:15:28Z</time>
      </trkpt>
      <trkpt lat="45.5014" lon="6.7411">
        <ele>2241.6</ele>
        <time>2021-08-12T10:15:29Z</time>
      </trkpt>
      <trkpt lat="45.5014" lon="6.7411">
        <ele>2241.6</ele>
        <time>2021-08-12T10:15:30Z</time>
      </trkpt>
      <trkpt lat="45.5014" lon="6.7411">
        <ele>2241.6</ele>
        <time>2021-08-12T10:15:31Z</time>
      </trkpt>
      <trkpt lat="45.5014" lon="6.7411">
        <ele>2241.6</ele>
        <time>2021-08-12T10:15:32Z</time>
      </trkpt>
      <trkpt lat="45.5014" lon="6.7411">
        <ele>2241.6</ele>
        <time>2021-08-12T10:15:33Z</time>
      </trkpt>
      <trkpt lat="45.50141" lon="6.7411">
        <ele>2241.5</ele>
        <time>2021-08-12T10:15:34Z</time>
      </trkpt>
      <trkpt lat="45.50141" lon="6.7411">
        <ele>2241.5</ele>
        <time>2021-08-12T10:15:35Z</time>
      </trkpt>
      <trkpt lat="45.50141" lon="6.7411">
        <ele>2241.5</ele>
        <time>2021-08-12T10:15:36Z</time>
      </trkpt>
      <trkpt lat="45.50141" lon="6.7411">
        <ele>2241.5</ele>
        <time>2021-08-12T10:15:37Z</time>
      </trkpt>
      <trkpt lat="45.50141" lon="6.7411">
        <ele>2241.5</ele>
        <time>2021-08-12T10:15:38Z</time>
      </trkpt>
      <trkpt lat="45.50141" lon="6.7411">
        <ele>2241.5</ele>
        <time>2021-08-12T10:15:39Z</time>
      </trkpt>
      <trkpt lat="45.50141" lon="6.7411">
        <ele>2241.5</ele>
        <time>2021-08-12T10:15:40Z</time>
      </trkpt>
      <trkpt lat="45.50141" lon="6.7411">
        <ele>2241.5</ele>
        <time>2021-08-12T10:15:41Z</time>
      </trkpt>
      <trkpt lat="45.50141" lon="6.7411">
        <ele>2241.5</ele>
        <time>2021-08-12T10:15:42Z</time>
      </trkpt>
      <trkpt lat="45.50141" lon="6.7411">
        <ele>2241.5</ele>
        <time>2021-08-12T10:15:43Z</time>
      </trkpt>
      <trkpt lat="45.50141" lon="6.7411">
        <ele>2241.5</ele>
        <time>2021-08-12T10:15:44Z</time>
      </trkpt>
      <trkpt lat="45.50141" lon="6.7411">
        <ele>2241.5</ele>
        <time>2021-08-12T10:15:45Z</time>
      </trkpt>
      <trkpt lat="45.50141" lon="6.7411">
        <ele>2241.5</ele>
        <time>2021-08-12T10:15:46Z</time>
      </trkpt>
      <trkpt lat="45.50141" lon="6.7411">
        <ele>2241.5</ele>
        <time>2021-08-12T10:15:47Z</time>
      </trkpt>
      <trkpt lat="45.50141" lon="6.7411">
        <ele>2241.5</ele>
        <time>2021-08-12T10:15:48Z</time>
      </trkpt>
      <trkpt lat="45.50141" lon="6.7411">
        <ele>2241.5</ele>
        <time>2021-08-12T10:15:49Z</time>
      </trkpt>
      <trkpt lat="45.50141" lon="6.7411">
        <ele>2241.5</ele>
        <time>2021-08-12T10:15:50Z</time>
      </trkpt>
      <trkpt lat="45.50141" lon="6.7411">
        <ele>2241.5</ele>
        <time>2021-08-12T10:15:51Z</time>
      </trkpt>
      <trkpt lat="45.50141" lon="6.7411">
        <ele>2241.5</ele>
        <time>2021-08-12T10:15:52Z</time>
      </trkpt>
      <trkpt lat="45.50141" lon="6.7411">
        <ele>2241.5</ele>
        <time>2021-08-12T10:15:53Z</time>
      </trkpt>
      <trkpt lat="45.50141" lon="6.7411">
        <ele>2241.5</ele>
        <time>2021-08-12T10:15:54Z</time>
      </trkpt>
      <trkpt lat="45.50141" lon="6.7411">
        <ele>2241.5</ele>
        <time>2021-08-12T10:15:55Z</time>
      </trkpt>
      <trkpt lat="45.50141" lon="6.7411">
        <ele>2241.5</ele>
        <time>2021-08-12T10:15:56Z</time>
      </trkpt>
      <trkpt lat="45.50141" lon="6.7411">
        <ele>2241.5</ele>
        <time>2021-08-12T10:15:57Z</time>
      </trkpt>
      <trkpt lat="45.50141" lon="6.7411">
        <ele>2241.5</ele>
        <time>2021-08-12T10:15:58Z</time>
      </trkpt>
      <trkpt lat="45.50141" lon="6.7411">
        <ele>2241.5</ele>
        <time>2021-08-12T10:15:59Z</time>
      </trkpt>
      <trkpt lat="45.50141" lon="6.7411">
        <ele>2241.5</ele>
        <time>2021-08-12T10:16:00Z</time>
      </trkpt>
      <trkpt lat="45.50141" lon="6.7411">
        <ele>2241.5</ele>
        <time>2021-08-12T10:16:01Z</time>
      </trkpt>
      <trkpt lat="45.50141" lon="6.7411">
        <ele>2241.5</ele>
        <time>2021-08-12T10:16:02Z</time>
      </trkpt>
      <trkpt lat="45.50141" lon="6.7411">
        <ele>2241.5</ele>
        <time>2021-08-12T10:16:03Z</time>
      </trkpt>
      <trkpt lat="45.50141" lon="6.7411">
        <ele>2241.5</ele>
        <time>2021-08-12T10:16:04Z</time>
      </trkpt>
      <trkpt lat="45.50141" lon="6.7411">
        <ele>2241.5</ele>
        <time>2021-08-12T10:16:05Z</time>
      </trkpt>
      <trkpt lat="45.50141" lon="6.7411">
        <ele>2241.5</ele>
        <time>2021-08-12T10:16:06Z</time>
      </trkpt>
      <trkpt lat="45.50141" lon="6.7411">
        <ele>2241.5</ele>
        <time>2021-08-12T10:16:07Z</time>
      </trkpt>
      <trkpt lat="45.50141" lon="6.7411">
        <ele>2241.5</ele>
        <time>2021-08-12T10:16:08Z</time>
      </trkpt>
      <trkpt lat="45.50141" lon="6.7411">
        <ele>2241.5</ele>
        <time>2021-08-12T10:16:09Z</time>
      </trkpt>
      <trkpt lat="45.50141" lon="6.7411">
        <ele>2241.5</ele>
        <time>2021-08-12T10:16:10Z</time>
      </trkpt>
      <trkpt lat="45.50141" lon="6.7411">
        <ele>2241.5</ele>
        <time>2021-08-12T10:16:11Z</time>
      </trkpt>
      <trkpt lat="45.50141" lon="6.7411">
        <ele>2241.5</ele>
        <time>2021-08-12T10:16:12Z</time>
      </trkpt>
      <trkpt lat="45.50141" lon="6.7411">
        <ele>2241.5</ele>
        <time>2021-08-12T10:16:13Z</time>
      </trkpt>
      <trkpt lat="45.50141" lon="6.7411">
        <ele>2241.5</ele>
        <time>2021-08-12T10:16:14Z</time>
      </trkpt>
      <trkpt lat="45.50141" lon="6.7411">
        <ele>2241.5</ele>
        <time>2021-08-12T10:16:15Z</time>
      </trkpt>
      <trkpt lat="45.50141" lon="6.7411">
        <ele>2241.5</ele>
        <time>2021-08-12T10:16:16Z</time>
      </trkpt>
      <trkpt lat="45.50141" lon="6.7411">
        <ele>2241.5</ele>
        <time>2021-08-12T10:16:17Z</time>
      </trkpt>
      <trkpt lat="45.50141" lon="6.7411">
        <ele>2241.5</ele>
        <time>2021-08-12T10:16:18Z</time>
      </trkpt>
      <trkpt lat="45.50141" lon="6.7411">
        <ele>2241.5</ele>
        <time>2021-08-12T10:16:19Z</time>
      </trkpt>
      <trkpt lat="45.50141" lon="6.7411">
        <ele>2241.5</ele>
        <time>2021-08-12T10:16:20Z</time>
      </trkpt>
      <trkpt lat="45.50141" lon="6.7411">
        <ele>2241.5</ele>
        <time>2021-08-12T10:16:21Z</time>
      </trkpt>
      <trkpt lat="45.50141" lon="6.7411">
        <ele>2241.5</ele>
        <time>2021-08-12T10:16:22Z</time>
      </trkpt>
      <trkpt lat="45.50141" lon="6.7411">
        <ele>2241.5</ele>
        <time>2021-08-12T10:16:23Z</time>
      </trkpt>
      <trkpt lat="45.50141" lon="6.7411">
        <ele>2241.5</ele>
        <time>2021-08-12T10:16:24Z</time>
      </trkpt>
      <trkpt lat="45.50141" lon="6.7411">
        <ele>2241.5</ele>
        <time>2021-08-12T10:16:25Z</time>
      </trkpt>
      <trkpt lat="45.50141" lon="6.7411">
        <ele>2241.5</ele>
        <time>2021-08-12T10:16:26Z</time>
      </trkpt>
      <trkpt lat="45.50141" lon="6.7411">
        <ele>2241.5</ele>
        <time>2021-08-12T10:16:27Z</time>
      </trkpt>
      <trkpt lat="45.50141" lon="6.7411">
        <ele>2241.5</ele>
        <time>2021-08-12T10:16:28Z</time>
      </trkpt>
      <trkpt lat="45.50141" lon="6.7411">
        <ele>2241.5</ele>
        <time>2021-08-12T10:16:29Z</time>
      </trkpt>
      <trkpt lat="45.50141" lon="6.7411">
        <ele>2241.5</ele>
        <time>2021-08-12T10:16:30Z</time>
      </trkpt>
      <trkpt lat="45.50141" lon="6.7411">
        <ele>2241.5</ele>
        <time>2021-08-12T10:16:31Z</time>
      </trkpt>
      <trkpt lat="45.50141" lon="6.7411">
        <ele>2241.5</ele>
        <time>2021-08-12T10:16:32Z</time>
      </trkpt>
      <trkpt lat="45.50141" lon="6.7411">
        <ele>2241.5</ele>
        <time>2021-08-12T10:16:33Z</time>
      </trkpt>
      <trkpt lat="45.50141" lon="6.7411">
        <ele>2241.5</ele>
        <time>2021-08-12T10:16:34Z</time>
      </trkpt>
      <trkpt lat="45.50141" lon="6.7411">
        <ele>2241.5</ele>
        <time>2021-08-12T10:16:35Z</time>
      </trkpt>
      <trkpt lat="45.50141" lon="6.7411">
        <ele>2241.5</ele>
        <time>2021-08-12T10:16:36Z</time>
      </trkpt>
      <trkpt lat="45.50141" lon="6.7411">
        <ele>2241.5</ele>
        <time>2021-08-12T10:16:37Z</time>
      </trkpt>
      <trkpt lat="45.50141" lon="6.7411">
        <ele>2241.5</ele>
        <time>2021-08-12T10:16:38Z</time>
      </trkpt>
      <trkpt lat="45.50141" lon="6.7411">
        <ele>2241.5</ele>
        <time>2021-08-12T10:16:39Z</time>
      </trkpt>
      <trkpt lat="45.50141" lon="6.7411">
        <ele>2241.5</ele>
        <time>2021-08-12T10:16:40Z</time>
      </trkpt>
      <trkpt lat="45.50141" lon="6.7411">
        <ele>2241.5</ele>
        <time>2021-08-12T10:16:41Z</time>
      </trkpt>
      <trkpt lat="45.50141" lon="6.7411">
        <ele>2241.5</ele>
        <time>2021-08-12T10:16:42Z</time>
      </trkpt>
      <trkpt lat="45.50141" lon="6.7411">
        <ele>2241.5</ele>
        <time>2021-08-12T10:16:43Z</time>
      </trkpt>
      <trkpt lat="45.50141" lon="6.7411">
        <ele>2241.5</ele>
        <time>2021-08-12T10:16:44Z</time>
      </trkpt>
      <trkpt lat="45.50141" lon="6.7411">
        <ele>2241.5</ele>
        <time>2021-08-12T10:16:45Z</time>
      </trkpt>
      <trkpt lat="45.50141" lon="6.7411">
        <ele>2241.5</ele>
        <time>2021-08-12T10:16:46Z</time>
      </trkpt>
      <trkpt lat="45.50141" lon="6.7411">
        <ele>2241.5</ele>
        <time>2021-08-12T10:16:47Z</time>
      </trkpt>
      <trkpt lat="45.50141" lon="6.7411">
        <ele>2241.5</ele>
        <time>2021-08-12T10:16:48Z</time>
      </trkpt>
      <trkpt lat="45.50141" lon="6.7411">
        <ele>2241.5</ele>
        <time>2021-08-12T10:16:49Z</time>
      </trkpt>
      <trkpt lat="45.50141" lon="6.7411">
        <ele>2241.5</ele>
        <time>2021-08-12T10:16:50Z</time>
      </trkpt>
      <trkpt lat="45.50141" lon="6.7411">
        <ele>2241.5</ele>
        <time>2021-08-12T10:16:51Z</time>
      </trkpt>
      <trkpt lat="45.50141" lon="6.7411">
        <ele>2241.5</ele>
        <time>2021-08-12T10:16:52Z</time>
      </trkpt>
      <trkpt lat="45.50141" lon="6.7411">
        <ele>2241.5</ele>
        <time>2021-08-12T10:16:53Z</time>
      </trkpt>
      <trkpt lat="45.50141" lon="6.7411">
        <ele>2241.5</ele>
        <time>2021-08-12T10:16:54Z</time>
      </trkpt>
      <trkpt lat="45.50141" lon="6.7411">
        <ele>2241.5</ele>
        <time>2021-08-12T10:16:55Z</time>
      </trkpt>
      <trkpt lat="45.50141" lon="6.7411">
        <ele>2241.5</ele>
        <time>2021-08-12T10:16:56Z</time>
      </trkpt>
      <trkpt lat="45.50141" lon="6.7411">
        <ele>2241.5</ele>
        <time>2021-08-12T10:16:57Z</time>
      </trkpt>
      <trkpt lat="45.50141" lon="6.7411">
        <ele>2241.5</ele>
        <time>2021-08-12T10:16:58Z</time>
      </trkpt>
      <trkpt lat="45.50141" lon="6.7411">
        <ele>2241.5</ele>
        <time>2021-08-12T10:16:59Z</time>
      </trkpt>
      <trkpt lat="45.50141" lon="6.7411">
        <ele>2241.5</ele>
        <time>2021-08-12T10:17:00Z</time>
      </trkpt>
      <trkpt lat="45.50141" lon="6.7411">
        <ele>2241.5</ele>
        <time>2021-08-12T10:17:01Z</time>
      </trkpt>
      <trkpt lat="45.50141" lon="6.7411">
        <ele>2241.5</ele>
        <time>2021-08-12T10:17:02Z</time>
      </trkpt>
      <trkpt lat="45.50141" lon="6.7411">
        <ele>2241.5</ele>
        <time>2021-08-12T10:17:03Z</time>
      </trkpt>
      <trkpt lat="45.50141" lon="6.7411">
        <ele>2241.5</ele>
        <time>2021-08-12T10:17:04Z</time>
      </trkpt>
      <trkpt lat="45.50141" lon="6.7411">
        <ele>2241.5</ele>
        <time>2021-08-12T10:17:05Z</time>
      </trkpt>
      <trkpt lat="45.50141" lon="6.7411">
        <ele>2241.5</ele>
        <time>2021-08-12T10:17:06Z</time>
      </trkpt>
      <trkpt lat="45.50141" lon="6.7411">
        <ele>2241.5</ele>
        <time>2021-08-12T10:17:07Z</time>
      </trkpt>
      <trkpt lat="45.50141" lon="6.7411">
        <ele>2241.5</ele>
        <time>2021-08-12T10:17:08Z</time>
      </trkpt>
      <trkpt lat="45.50141" lon="6.7411">
        <ele>2241.5</ele>
        <time>2021-08-12T10:17:09Z</time>
      </trkpt>
      <trkpt lat="45.50141" lon="6.7411">
        <ele>2241.5</ele>
        <time>2021-08-12T10:17:10Z</time>
      </trkpt>
      <trkpt lat="45.50141" lon="6.7411">
        <ele>2241.5</ele>
        <time>2021-08-12T10:17:11Z</time>
      </trkpt>
      <trkpt lat="45.50141" lon="6.7411">
        <ele>2241.5</ele>
        <time>2021-08-12T10:17:12Z</time>
      </trkpt>
      <trkpt lat="45.50141" lon="6.7411">
        <ele>2241.5</ele>
        <time>2021-08-12T10:17:13Z</time>
      </trkpt>
      <trkpt lat="45.50141" lon="6.7411">
        <ele>2241.5</ele>
        <time>2021-08-12T10:17:14Z</time>
      </trkpt>
      <trkpt lat="45.50141" lon="6.7411">
        <ele>2241.5</ele>
        <time>2021-08-12T10:17:15Z</time>
      </trkpt>
      <trkpt lat="45.50141" lon="6.7411">
        <ele>2241.5</ele>
        <time>2021-08-12T10:17:16Z</time>
      </trkpt>
      <trkpt lat="45.50141" lon="6.7411">
        <ele>2241.5</ele>
        <time>2021-08-12T10:17:17Z</time>
      </trkpt>
      <trkpt lat="45.50141" lon="6.7411">
        <ele>2241.5</ele>
        <time>2021-08-12T10:17:18Z</time>
      </trkpt>
      <trkpt lat="45.50141" lon="6.7411">
        <ele>2241.5</ele>
        <time>2021-08-12T10:17:19Z</time>
      </trkpt>
      <trkpt lat="45.50141" lon="6.7411">
        <ele>2241.5</ele>
        <time>2021-08-12T10:17:20Z</time>
      </trkpt>
      <trkpt lat="45.50141" lon="6.7411">
        <ele>2241.5</ele>
        <time>2021-08-12T10:17:21Z</time>
      </trkpt>
      <trkpt lat="45.50141" lon="6.7411">
        <ele>2241.5</ele>
        <time>2021-08-12T10:17:22Z</time>
      </trkpt>
      <trkpt lat="45.50141" lon="6.7411">
        <ele>2241.5</ele>
        <time>2021-08-12T10:17:23Z</time>
      </trkpt>
      <trkpt lat="45.50141" lon="6.7411">
        <ele>2241.5</ele>
        <time>2021-08-12T10:17:24Z</time>
      </trkpt>
      <trkpt lat="45.50141" lon="6.7411">
        <ele>2241.5</ele>
        <time>2021-08-12T10:17:25Z</time>
      </trkpt>
      <trkpt lat="45.50141" lon="6.7411">
        <ele>2241.5</ele>
        <time>2021-08-12T10:17:26Z</time>
      </trkpt>
      <trkpt lat="45.50141" lon="6.7411">
        <ele>2241.5</ele>
        <time>2021-08-12T10:17:27Z</time>
      </trkpt>
      <trkpt lat="45.50141" lon="6.7411">
        <ele>2241.5</ele>
        <time>2021-08-12T10:17:28Z</time>
      </trkpt>
      <trkpt lat="45.50141" lon="6.7411">
        <ele>2241.5</ele>
        <time>2021-08-12T10:17:29Z</time>
      </trkpt>
      <trkpt lat="45.50141" lon="6.7411">
        <ele>2241.5</ele>
        <time>2021-08-12T10:17:30Z</time>
      </trkpt>
      <trkpt lat="45.50141" lon="6.7411">
        <ele>2241.5</ele>
        <time>2021-08-12T10:17:31Z</time>
      </trkpt>
      <trkpt lat="45.50141" lon="6.7411">
        <ele>2241.5</ele>
        <time>2021-08-12T10:17:32Z</time>
      </trkpt>
      <trkpt lat="45.50141" lon="6.7411">
        <ele>2241.5</ele>
        <time>2021-08-12T10:17:33Z</time>
      </trkpt>
      <trkpt lat="45.50141" lon="6.7411">
        <ele>2241.5</ele>
        <time>2021-08-12T10:17:34Z</time>
      </trkpt>
      <trkpt lat="45.50141" lon="6.7411">
        <ele>2241.5</ele>
        <time>2021-08-12T10:17:35Z</time>
      </trkpt>
      <trkpt lat="45.50141" lon="6.7411">
        <ele>2241.5</ele>
        <time>2021-08-12T10:17:36Z</time>
      </trkpt>
      <trkpt lat="45.50141" lon="6.7411">
        <ele>2241.5</ele>
        <time>2021-08-12T10:17:37Z</time>
      </trkpt>
      <trkpt lat="45.50141" lon="6.7411">
        <ele>2241.5</ele>
        <time>2021-08-12T10:17:38Z</time>
      </trkpt>
      <trkpt lat="45.50141" lon="6.7411">
        <ele>2241.5</ele>
        <time>2021-08-12T10:17:39Z</time>
      </trkpt>
      <trkpt lat="45.50141" lon="6.7411">
        <ele>2241.5</ele>
        <time>2021-08-12T10:17:40Z</time>
      </trkpt>
      <trkpt lat="45.50141" lon="6.7411">
        <ele>2241.5</ele>
        <time>2021-08-12T10:17:41Z</time>
      </trkpt>
      <trkpt lat="45.50141" lon="6.7411">
        <ele>2241.5</ele>
        <time>2021-08-12T10:17:42Z</time>
      </trkpt>
      <trkpt lat="45.50141" lon="6.7411">
        <ele>2241.5</ele>
        <time>2021-08-12T10:17:43Z</time>
      </trkpt>
      <trkpt lat="45.50141" lon="6.7411">
        <ele>2241.5</ele>
        <time>2021-08-12T10:17:44Z</time>
      </trkpt>
      <trkpt lat="45.50141" lon="6.7411">
        <ele>2241.5</ele>
        <time>2021-08-12T10:17:45Z</time>
      </trkpt>
      <trkpt lat="45.50141" lon="6.7411">
        <ele>2241.5</ele>
        <time>2021-08-12T10:17:46Z</time>
      </trkpt>
      <trkpt lat="45.50141" lon="6.7411">
        <ele>2241.5</ele>
        <time>2021-08-12T10:17:47Z</time>
      </trkpt>
      <trkpt lat="45.50141" lon="6.7411">
        <ele>2241.5</ele>
        <time>2021-08-12T10:17:48Z</time>
      </trkpt>
      <trkpt lat="45.50141" lon="6.7411">
        <ele>2241.5</ele>
        <time>2021-08-12T10:17:49Z</time>
      </trkpt>
      <trkpt lat="45.50141" lon="6.7411">
        <ele>2241.5</ele>
        <time>2021-08-12T10:17:50Z</time>
      </trkpt>
      <trkpt lat="45.50141" lon="6.7411">
        <ele>2241.5</ele>
        <time>2021-08-12T10:17:51Z</time>
      </trkpt>
      <trkpt lat="45.50141" lon="6.7411">
        <ele>2241.5</ele>
        <time>2021-08-12T10:17:52Z</time>
      </trkpt>
      <trkpt lat="45.50141" lon="6.7411">
        <ele>2241.5</ele>
        <time>2021-08-12T10:17:53Z</time>
      </trkpt>
      <trkpt lat="45.50141" lon="6.7411">
        <ele>2241.5</ele>
        <time>2021-08-12T10:17:54Z</time>
      </trkpt>
      <trkpt lat="45.50141" lon="6.7411">
        <ele>2241.5</ele>
        <time>2021-08-12T10:17:55Z</time>
      </trkpt>
      <trkpt lat="45.50141" lon="6.7411">
        <ele>2241.5</ele>
        <time>2021-08-12T10:17:56Z</time>
      </trkpt>
      <trkpt lat="45.50141" lon="6.7411">
        <ele>2241.5</ele>
        <time>2021-08-12T10:17:57Z</time>
      </trkpt>
      <trkpt lat="45.50141" lon="6.7411">
        <ele>2241.5</ele>
        <time>2021-08-12T10:17:58Z</time>
      </trkpt>
      <trkpt lat="45.50141" lon="6.7411">
        <ele>2241.5</ele>
        <time>2021-08-12T10:17:59Z</time>
      </trkpt>
      <trkpt lat="45.50141" lon="6.7411">
        <ele>2241.5</ele>
        <time>2021-08-12T10:18:00Z</time>
      </trkpt>
      <trkpt lat="45.50141" lon="6.7411">
        <ele>2241.5</ele>
        <time>2021-08-12T10:18:01Z</time>
      </trkpt>
      <trkpt lat="45.50141" lon="6.7411">
        <ele>2241.5</ele>
        <time>2021-08-12T10:18:02Z</time>
      </trkpt>
      <trkpt lat="45.50141" lon="6.7411">
        <ele>2241.5</ele>
        <time>2021-08-12T10:18:03Z</time>
      </trkpt>
      <trkpt lat="45.50141" lon="6.7411">
        <ele>2241.5</ele>
        <time>2021-08-12T10:18:04Z</time>
      </trkpt>
      <trkpt lat="45.50141" lon="6.7411">
        <ele>2241.5</ele>
        <time>2021-08-12T10:18:05Z</time>
      </trkpt>
      <trkpt lat="45.50141" lon="6.7411">
        <ele>2241.5</ele>
        <time>2021-08-12T10:18:06Z</time>
      </trkpt>
      <trkpt lat="45.50141" lon="6.7411">
        <ele>2241.5</ele>
        <time>2021-08-12T10:18:07Z</time>
      </trkpt>
      <trkpt lat="45.50141" lon="6.7411">
        <ele>2241.5</ele>
        <time>2021-08-12T10:18:08Z</time>
      </trkpt>
      <trkpt lat="45.50141" lon="6.7411">
        <ele>2241.5</ele>
        <time>2021-08-12T10:18:09Z</time>
      </trkpt>
      <trkpt lat="45.50141" lon="6.7411">
        <ele>2241.5</ele>
        <time>2021-08-12T10:18:10Z</time>
      </trkpt>
      <trkpt lat="45.50141" lon="6.7411">
        <ele>2241.5</ele>
        <time>2021-08-12T10:18:11Z</time>
      </trkpt>
      <trkpt lat="45.50141" lon="6.7411">
        <ele>2241.5</ele>
        <time>2021-08-12T10:18:12Z</time>
      </trkpt>
      <trkpt lat="45.50141" lon="6.7411">
        <ele>2241.5</ele>
        <time>2021-08-12T10:18:13Z</time>
      </trkpt>
      <trkpt lat="45.50141" lon="6.7411">
        <ele>2241.5</ele>
        <time>2021-08-12T10:18:14Z</time>
      </trkpt>
      <trkpt lat="45.50141" lon="6.7411">
        <ele>2241.5</ele>
        <time>2021-08-12T10:18:15Z</time>
      </trkpt>
      <trkpt lat="45.50141" lon="6.7411">
        <ele>2241.5</ele>
        <time>2021-08-12T10:18:16Z</time>
      </trkpt>
      <trkpt lat="45.50141" lon="6.7411">
        <ele>2241.5</ele>
        <time>2021-08-12T10:18:17Z</time>
      </trkpt>
      <trkpt lat="45.50141" lon="6.7411">
        <ele>2241.5</ele>
        <time>2021-08-12T10:18:18Z</time>
      </trkpt>
      <trkpt lat="45.50141" lon="6.7411">
        <ele>2241.5</ele>
        <time>2021-08-12T10:18:19Z</time>
      </trkpt>
      <trkpt lat="45.50141" lon="6.7411">
        <ele>2241.5</ele>
        <time>2021-08-12T10:18:20Z</time>
      </trkpt>
      <trkpt lat="45.50141" lon="6.7411">
        <ele>2241.5</ele>
        <time>2021-08-12T10:18:21Z</time>
      </trkpt>
      <trkpt lat="45.50141" lon="6.7411">
        <ele>2241.5</ele>
        <time>2021-08-12T10:18:22Z</time>
      </trkpt>
      <trkpt lat="45.50141" lon="6.7411">
        <ele>2241.5</ele>
        <time>2021-08-12T10:18:23Z</time>
      </trkpt>
      <trkpt lat="45.50141" lon="6.7411">
        <ele>2241.5</ele>
        <time>2021-08-12T10:18:24Z</time>
      </trkpt>
      <trkpt lat="45.50141" lon="6.7411">
        <ele>2241.5</ele>
        <time>2021-08-12T10:18:25Z</time>
      </trkpt>
      <trkpt lat="45.50141" lon="6.7411">
        <ele>2241.5</ele>
        <time>2021-08-12T10:18:26Z</time>
      </trkpt>
      <trkpt lat="45.50141" lon="6.7411">
        <ele>2241.5</ele>
        <time>2021-08-12T10:18:27Z</time>
      </trkpt>
      <trkpt lat="45.50141" lon="6.7411">
        <ele>2241.5</ele>
        <time>2021-08-12T10:18:28Z</time>
      </trkpt>
      <trkpt lat="45.50141" lon="6.7411">
        <ele>2241.5</ele>
        <time>2021-08-12T10:18:29Z</time>
      </trkpt>
      <trkpt lat="45.50141" lon="6.7411">
        <ele>2241.5</ele>
        <time>2021-08-12T10:18:30Z</time>
      </trkpt>
      <trkpt lat="45.50141" lon="6.7411">
        <ele>2241.5</ele>
        <time>2021-08-12T10:18:31Z</time>
      </trkpt>
      <trkpt lat="45.50141" lon="6.7411">
        <ele>2241.5</ele>
        <time>2021-08-12T10:18:32Z</time>
      </trkpt>
      <trkpt lat="45.50141" lon="6.7411">
        <ele>2241.5</ele>
        <time>2021-08-12T10:18:33Z</time>
      </trkpt>
      <trkpt lat="45.50141" lon="6.7411">
        <ele>2241.5</ele>
        <time>2021-08-12T10:18:34Z</time>
      </trkpt>
      <trkpt lat="45.50141" lon="6.7411">
        <ele>2241.5</ele>
        <time>2021-08-12T10:18:35Z</time>
      </trkpt>
      <trkpt lat="45.50141" lon="6.7411">
        <ele>2241.5</ele>
        <time>2021-08-12T10:18:36Z</time>
      </trkpt>
      <trkpt lat="45.50141" lon="6.7411">
        <ele>2241.5</ele>
        <time>2021-08-12T10:18:37Z</time>
      </trkpt>
      <trkpt lat="45.50141" lon="6.7411">
        <ele>2241.5</ele>
        <time>2021-08-12T10:18:38Z</time>
      </trkpt>
      <trkpt lat="45.50141" lon="6.7411">
        <ele>2241.5</ele>
        <time>2021-08-12T10:18:39Z</time>
      </trkpt>
      <trkpt lat="45.50141" lon="6.7411">
        <ele>2241.5</ele>
        <time>2021-08-12T10:18:40Z</time>
      </trkpt>
      <trkpt lat="45.50141" lon="6.7411">
        <ele>2241.5</ele>
        <time>2021-08-12T10:18:41Z</time>
      </trkpt>
      <trkpt lat="45.50141" lon="6.7411">
        <ele>2241.5</ele>
        <time>2021-08-12T10:18:42Z</time>
      </trkpt>
      <trkpt lat="45.50141" lon="6.7411">
        <ele>2241.5</ele>
        <time>2021-08-12T10:18:43Z</time>
      </trkpt>
      <trkpt lat="45.50141" lon="6.7411">
        <ele>2241.5</ele>
        <time>2021-08-12T10:18:44Z</time>
      </trkpt>
      <trkpt lat="45.50141" lon="6.7411">
        <ele>2241.5</ele>
        <time>2021-08-12T10:18:45Z</time>
      </trkpt>
      <trkpt lat="45.50141" lon="6.7411">
        <ele>2241.5</ele>
        <time>2021-08-12T10:18:46Z</time>
      </trkpt>
      <trkpt lat="45.50141" lon="6.7411">
        <ele>2241.5</ele>
        <time>2021-08-12T10:18:47Z</time>
      </trkpt>
      <trkpt lat="45.50141" lon="6.7411">
        <ele>2241.5</ele>
        <time>2021-08-12T10:18:48Z</time>
      </trkpt>
      <trkpt lat="45.50141" lon="6.7411">
        <ele>2241.5</ele>
        <time>2021-08-12T10:18:49Z</time>
      </trkpt>
      <trkpt lat="45.50141" lon="6.7411">
        <ele>2241.5</ele>
        <time>2021-08-12T10:18:50Z</time>
      </trkpt>
      <trkpt lat="45.50141" lon="6.7411">
        <ele>2241.5</ele>
        <time>2021-08-12T10:18:51Z</time>
      </trkpt>
      <trkpt lat="45.50141" lon="6.7411">
        <ele>2241.5</ele>
        <time>2021-08-12T10:18:52Z</time>
      </trkpt>
      <trkpt lat="45.50141" lon="6.7411">
        <ele>2241.5</ele>
        <time>2021-08-12T10:18:53Z</time>
      </trkpt>
      <trkpt lat="45.50141" lon="6.7411">
        <ele>2241.5</ele>
        <time>2021-08-12T10:18:54Z</time>
      </trkpt>
      <trkpt lat="45.50141" lon="6.7411">
        <ele>2241.5</ele>
        <time>2021-08-12T10:18:55Z</time>
      </trkpt>
      <trkpt lat="45.50141" lon="6.7411">
        <ele>2241.5</ele>
        <time>2021-08-12T10:18:56Z</time>
      </trkpt>
      <trkpt lat="45.50141" lon="6.7411">
        <ele>2241.5</ele>
        <time>2021-08-12T10:18:57Z</time>
      </trkpt>
      <trkpt lat="45.50141" lon="6.7411">
        <ele>2241.5</ele>
        <time>2021-08-12T10:18:58Z</time>
      </trkpt>
      <trkpt lat="45.50141" lon="6.7411">
        <ele>2241.5</ele>
        <time>2021-08-12T10:18:59Z</time>
      </trkpt>
      <trkpt lat="45.50141" lon="6.7411">
        <ele>2241.5</ele>
        <time>2021-08-12T10:19:00Z</time>
      </trkpt>
      <trkpt lat="45.50141" lon="6.7411">
        <ele>2241.5</ele>
        <time>2021-08-12T10:19:01Z</time>
      </trkpt>
      <trkpt lat="45.50141" lon="6.7411">
        <ele>2241.5</ele>
        <time>2021-08-12T10:19:02Z</time>
      </trkpt>
      <trkpt lat="45.50141" lon="6.7411">
        <ele>2241.5</ele>
        <time>2021-08-12T10:19:03Z</time>
      </trkpt>
      <trkpt lat="45.50141" lon="6.7411">
        <ele>2241.5</ele>
        <time>2021-08-12T10:19:04Z</time>
      </trkpt>
      <trkpt lat="45.50141" lon="6.7411">
        <ele>2241.5</ele>
        <time>2021-08-12T10:19:05Z</time>
      </trkpt>
      <trkpt lat="45.50141" lon="6.7411">
        <ele>2241.5</ele>
        <time>2021-08-12T10:19:06Z</time>
      </trkpt>
      <trkpt lat="45.50141" lon="6.7411">
        <ele>2241.5</ele>
        <time>2021-08-12T10:19:07Z</time>
      </trkpt>
      <trkpt lat="45.50141" lon="6.7411">
        <ele>2241.5</ele>
        <time>2021-08-12T10:19:08Z</time>
      </trkpt>
      <trkpt lat="45.50141" lon="6.7411">
        <ele>2241.4</ele>
        <time>2021-08-12T10:19:09Z</time>
      </trkpt>
      <trkpt lat="45.50141" lon="6.7411">
        <ele>2241.4</ele>
        <time>2021-08-12T10:19:10Z</time>
      </trkpt>
      <trkpt lat="45.50141" lon="6.7411">
        <ele>2241.4</ele>
        <time>2021-08-12T10:19:11Z</time>
      </trkpt>
      <trkpt lat="45.50141" lon="6.7411">
        <ele>2241.4</ele>
        <time>2021-08-12T10:19:12Z</time>
      </trkpt>
      <trkpt lat="45.50141" lon="6.7411">
        <ele>2241.4</ele>
        <time>2021-08-12T10:19:13Z</time>
      </trkpt>
      <trkpt lat="45.50141" lon="6.7411">
        <ele>2241.4</ele>
        <time>2021-08-12T10:19:14Z</time>
      </trkpt>
      <trkpt lat="45.50141" lon="6.7411">
        <ele>2241.4</ele>
        <time>2021-08-12T10:19:15Z</time>
      </trkpt>
      <trkpt lat="45.50141" lon="6.7411">
        <ele>2241.4</ele>
        <time>2021-08-12T10:19:16Z</time>
      </trkpt>
      <trkpt lat="45.50141" lon="6.7411">
        <ele>2241.4</ele>
        <time>2021-08-12T10:19:17Z</time>
      </trkpt>
      <trkpt lat="45.50141" lon="6.7411">
        <ele>2241.4</ele>
        <time>2021-08-12T10:19:18Z</time>
      </trkpt>
      <trkpt lat="45.50141" lon="6.7411">
        <ele>2241.4</ele>
        <time>2021-08-12T10:19:19Z</time>
      </trkpt>
      <trkpt lat="45.50141" lon="6.7411">
        <ele>2241.4</ele>
        <time>2021-08-12T10:19:20Z</time>
      </trkpt>
      <trkpt lat="45.50141" lon="6.7411">
        <ele>2241.4</ele>
        <time>2021-08-12T10:19:21Z</time>
      </trkpt>
      <trkpt lat="45.50141" lon="6.7411">
        <ele>2241.4</ele>
        <time>2021-08-12T10:19:22Z</time>
      </trkpt>
      <trkpt lat="45.50141" lon="6.7411">
        <ele>2241.4</ele>
        <time>2021-08-12T10:19:23Z</time>
      </trkpt>
      <trkpt lat="45.50141" lon="6.7411">
        <ele>2241.4</ele>
        <time>2021-08-12T10:19:24Z</time>
      </trkpt>
      <trkpt lat="45.50141" lon="6.7411">
        <ele>2241.4</ele>
        <time>2021-08-12T10:19:25Z</time>
      </trkpt>
      <trkpt lat="45.50141" lon="6.7411">
        <ele>2241.4</ele>
        <time>2021-08-12T10:19:26Z</time>
      </trkpt>
      <trkpt lat="45.50141" lon="6.7411">
        <ele>2241.4</ele>
        <time>2021-08-12T10:19:27Z</time>
      </trkpt>
      <trkpt lat="45.50141" lon="6.7411">
        <ele>2241.4</ele>
        <time>2021-08-12T10:19:28Z</time>
      </trkpt>
      <trkpt lat="45.50141" lon="6.7411">
        <ele>2241.4</ele>
        <time>2021-08-12T10:19:29Z</time>
      </trkpt>
      <trkpt lat="45.50141" lon="6.7411">
        <ele>2241.4</ele>
        <time>2021-08-12T10:19:30Z</time>
      </trkpt>
      <trkpt lat="45.50141" lon="6.7411">
        <ele>2241.4</ele>
        <time>2021-08-12T10:19:31Z</time>
      </trkpt>
      <trkpt lat="45.50141" lon="6.7411">
        <ele>2241.4</ele>
        <time>2021-08-12T10:19:32Z</time>
      </trkpt>
      <trkpt lat="45.50141" lon="6.7411">
        <ele>2241.4</ele>
        <time>2021-08-12T10:19:33Z</time>
      </trkpt>
      <trkpt lat="45.50141" lon="6.7411">
        <ele>2241.4</ele>
        <time>2021-08-12T10:19:34Z</time>
      </trkpt>
      <trkpt lat="45.50141" lon="6.7411">
        <ele>2241.4</ele>
        <time>2021-08-12T10:19:35Z</time>
      </trkpt>
      <trkpt lat="45.50141" lon="6.7411">
        <ele>2241.4</ele>
        <time>2021-08-12T10:19:36Z</time>
      </trkpt>
      <trkpt lat="45.50141" lon="6.7411">
        <ele>2241.4</ele>
        <time>2021-08-12T10:19:37Z</time>
      </trkpt>
      <trkpt lat="45.50141" lon="6.7411">
        <ele>2241.4</ele>
        <time>2021-08-12T10:19:38Z</time>
      </trkpt>
      <trkpt lat="45.50141" lon="6.7411">
        <ele>2241.4</ele>
        <time>2021-08-12T10:19:39Z</time>
      </trkpt>
      <trkpt lat="45.50141" lon="6.7411">
        <ele>2241.4</ele>
        <time>2021-08-12T10:19:40Z</time>
      </trkpt>
      <trkpt lat="45.50141" lon="6.7411">
        <ele>2241.4</ele>
        <time>2021-08-12T10:19:41Z</time>
      </trkpt>
      <trkpt lat="45.50141" lon="6.7411">
        <ele>2241.4</ele>
        <time>2021-08-12T10:19:42Z</time>
      </trkpt>
      <trkpt lat="45.50141" lon="6.7411">
        <ele>2241.4</ele>
        <time>2021-08-12T10:19:43Z</time>
      </trkpt>
      <trkpt lat="45.50141" lon="6.7411">
        <ele>2241.4</ele>
        <time>2021-08-12T10:19:44Z</time>
      </trkpt>
      <trkpt lat="45.50141" lon="6.7411">
        <ele>2241.4</ele>
        <time>2021-08-12T10:19:45Z</time>
      </trkpt>
      <trkpt lat="45.50141" lon="6.7411">
        <ele>2241.4</ele>
        <time>2021-08-12T10:19:46Z</time>
      </trkpt>
      <trkpt lat="45.50141" lon="6.7411">
        <ele>2241.4</ele>
        <time>2021-08-12T10:19:47Z</time>
      </trkpt>
      <trkpt lat="45.50141" lon="6.7411">
        <ele>2241.4</ele>
        <time>2021-08-12T10:19:48Z</time>
      </trkpt>
      <trkpt lat="45.50141" lon="6.7411">
        <ele>2241.4</ele>
        <time>2021-08-12T10:19:49Z</time>
      </trkpt>
      <trkpt lat="45.50141" lon="6.7411">
        <ele>2241.4</ele>
        <time>2021-08-12T10:19:50Z</time>
      </trkpt>
      <trkpt lat="45.50141" lon="6.7411">
        <ele>2241.4</ele>
        <time>2021-08-12T10:19:51Z</time>
      </trkpt>
      <trkpt lat="45.50141" lon="6.7411">
        <ele>2241.4</ele>
        <time>2021-08-12T10:19:52Z</time>
      </trkpt>
      <trkpt lat="45.50141" lon="6.7411">
        <ele>2241.4</ele>
        <time>2021-08-12T10:19:53Z</time>
      </trkpt>
      <trkpt lat="45.50141" lon="6.7411">
        <ele>2241.4</ele>
        <time>2021-08-12T10:19:54Z</time>
      </trkpt>
      <trkpt lat="45.50141" lon="6.7411">
        <ele>2241.4</ele>
        <time>2021-08-12T10:19:55Z</time>
      </trkpt>
      <trkpt lat="45.50141" lon="6.7411">
        <ele>2241.4</ele>
        <time>2021-08-12T10:19:56Z</time>
      </trkpt>
      <trkpt lat="45.50141" lon="6.7411">
        <ele>2241.4</ele>
        <time>2021-08-12T10:19:57Z</time>
      </trkpt>
      <trkpt lat="45.50141" lon="6.7411">
        <ele>2241.4</ele>
        <time>2021-08-12T10:19:58Z</time>
      </trkpt>
      <trkpt lat="45.50141" lon="6.7411">
        <ele>2241.4</ele>
        <time>2021-08-12T10:19:59Z</time>
      </trkpt>
      <trkpt lat="45.50141" lon="6.7411">
        <ele>2241.4</ele>
        <time>2021-08-12T10:20:00Z</time>
      </trkpt>
      <trkpt lat="45.50141" lon="6.7411">
        <ele>2241.4</ele>
        <time>2021-08-12T10:20:01Z</time>
      </trkpt>
      <trkpt lat="45.50141" lon="6.7411">
        <ele>2241.4</ele>
        <time>2021-08-12T10:20:02Z</time>
      </trkpt>
      <trkpt lat="45.50141" lon="6.7411">
        <ele>2241.4</ele>
        <time>2021-08-12T10:20:03Z</time>
      </trkpt>
      <trkpt lat="45.50141" lon="6.7411">
        <ele>2241.4</ele>
        <time>2021-08-12T10:20:04Z</time>
      </trkpt>
      <trkpt lat="45.50141" lon="6.7411">
        <ele>2241.4</ele>
        <time>2021-08-12T10:20:05Z</time>
      </trkpt>
      <trkpt lat="45.50141" lon="6.7411">
        <ele>2241.4</ele>
        <time>2021-08-12T10:20:06Z</time>
      </trkpt>
      <trkpt lat="45.50141" lon="6.7411">
        <ele>2241.4</ele>
        <time>2021-08-12T10:20:07Z</time>
      </trkpt>
      <trkpt lat="45.50141" lon="6.7411">
        <ele>2241.4</ele>
        <time>2021-08-12T10:20:08Z</time>
      </trkpt>
      <trkpt lat="45.50141" lon="6.7411">
        <ele>2241.4</ele>
        <time>2021-08-12T10:20:09Z</time>
      </trkpt>
      <trkpt lat="45.50141" lon="6.7411">
        <ele>2241.4</ele>
        <time>2021-08-12T10:20:10Z</time>
      </trkpt>
      <trkpt lat="45.50141" lon="6.7411">
        <ele>2241.4</ele>
        <time>2021-08-12T10:20:11Z</time>
      </trkpt>
      <trkpt lat="45.50141" lon="6.7411">
        <ele>2241.4</ele>
        <time>2021-08-12T10:20:12Z</time>
      </trkpt>
      <trkpt lat="45.50141" lon="6.7411">
        <ele>2241.4</ele>
        <time>2021-08-12T10:20:13Z</time>
      </trkpt>
      <trkpt lat="45.50141" lon="6.7411">
        <ele>2241.4</ele>
        <time>2021-08-12T10:20:14Z</time>
      </trkpt>
      <trkpt lat="45.50141" lon="6.7411">
        <ele>2241.4</ele>
        <time>2021-08-12T10:20:15Z</time>
      </trkpt>
      <trkpt lat="45.50141" lon="6.7411">
        <ele>2241.4</ele>
        <time>2021-08-12T10:20:16Z</time>
      </trkpt>
      <trkpt lat="45.50141" lon="6.7411">
        <ele>2241.4</ele>
        <time>2021-08-12T10:20:17Z</time>
      </trkpt>
      <trkpt lat="45.50141" lon="6.7411">
        <ele>2241.4</ele>
        <time>2021-08-12T10:20:18Z</time>
      </trkpt>
      <trkpt lat="45.50141" lon="6.7411">
        <ele>2241.4</ele>
        <time>2021-08-12T10:20:19Z</time>
      </trkpt>
      <trkpt lat="45.50141" lon="6.7411">
        <ele>2241.4</ele>
        <time>2021-08-12T10:20:20Z</time>
      </trkpt>
      <trkpt lat="45.50141" lon="6.7411">
        <ele>2241.4</ele>
        <time>2021-08-12T10:20:21Z</time>
      </trkpt>
      <trkpt lat="45.50141" lon="6.7411">
        <ele>2241.4</ele>
        <time>2021-08-12T10:20:22Z</time>
      </trkpt>
      <trkpt lat="45.50141" lon="6.7411">
        <ele>2241.4</ele>
        <time>2021-08-12T10:20:23Z</time>
      </trkpt>
      <trkpt lat="45.50141" lon="6.7411">
        <ele>2241.4</ele>
        <time>2021-08-12T10:20:24Z</time>
      </trkpt>
      <trkpt lat="45.50141" lon="6.7411">
        <ele>2241.4</ele>
        <time>2021-08-12T10:20:25Z</time>
      </trkpt>
      <trkpt lat="45.50141" lon="6.7411">
        <ele>2241.4</ele>
        <time>2021-08-12T10:20:26Z</time>
      </trkpt>
      <trkpt lat="45.50141" lon="6.7411">
        <ele>2241.4</ele>
        <time>2021-08-12T10:20:27Z</time>
      </trkpt>
      <trkpt lat="45.50141" lon="6.7411">
        <ele>2241.4</ele>
        <time>2021-08-12T10:20:28Z</time>
      </trkpt>
      <trkpt lat="45.50141" lon="6.7411">
        <ele>2241.4</ele>
        <time>2021-08-12T10:20:29Z</time>
      </trkpt>
      <trkpt lat="45.50141" lon="6.7411">
        <ele>2241.4</ele>
        <time>2021-08-12T10:20:30Z</time>
      </trkpt>
      <trkpt lat="45.50141" lon="6.7411">
        <ele>2241.4</ele>
        <time>2021-08-12T10:20:31Z</time>
      </trkpt>
      <trkpt lat="45.50141" lon="6.7411">
        <ele>2241.4</ele>
        <time>2021-08-12T10:20:32Z</time>
      </trkpt>
      <trkpt lat="45.50141" lon="6.7411">
        <ele>2241.4</ele>
        <time>2021-08-12T10:20:33Z</time>
      </trkpt>
      <trkpt lat="45.50141" lon="6.7411">
        <ele>2241.4</ele>
        <time>2021-08-12T10:20:34Z</time>
      </trkpt>
      <trkpt lat="45.50141" lon="6.7411">
        <ele>2241.4</ele>
        <time>2021-08-12T10:20:35Z</time>
      </trkpt>
      <trkpt lat="45.50141" lon="6.7411">
        <ele>2241.4</ele>
        <time>2021-08-12T10:20:36Z</time>
      </trkpt>
      <trkpt lat="45.50141" lon="6.7411">
        <ele>2241.4</ele>
        <time>2021-08-12T10:20:37Z</time>
      </trkpt>
      <trkpt lat="45.50141" lon="6.7411">
        <ele>2241.4</ele>
        <time>2021-08-12T10:20:38Z</time>
      </trkpt>
      <trkpt lat="45.50141" lon="6.7411">
        <ele>2241.4</ele>
        <time>2021-08-12T10:20:39Z</time>
      </trkpt>
      <trkpt lat="45.50141" lon="6.7411">
        <ele>2241.4</ele>
        <time>2021-08-12T10:20:40Z</time>
      </trkpt>
      <trkpt lat="45.50141" lon="6.7411">
        <ele>2241.4</ele>
        <time>2021-08-12T10:20:41Z</time>
      </trkpt>
      <trkpt lat="45.50141" lon="6.7411">
        <ele>2241.4</ele>
        <time>2021-08-12T10:20:42Z</time>
      </trkpt>
      <trkpt lat="45.50141" lon="6.7411">
        <ele>2241.4</ele>
        <time>2021-08-12T10:20:43Z</time>
      </trkpt>
      <trkpt lat="45.50141" lon="6.7411">
        <ele>2241.4</ele>
        <time>2021-08-12T10:20:44Z</time>
      </trkpt>
      <trkpt lat="45.50141" lon="6.7411">
        <ele>2241.4</ele>
        <time>2021-08-12T10:20:45Z</time>
      </trkpt>
      <trkpt lat="45.50141" lon="6.7411">
        <ele>2241.4</ele>
        <time>2021-08-12T10:20:46Z</time>
      </trkpt>
      <trkpt lat="45.50141" lon="6.7411">
        <ele>2241.4</ele>
        <time>2021-08-12T10:20:47Z</time>
      </trkpt>
      <trkpt lat="45.50141" lon="6.7411">
        <ele>2241.4</ele>
        <time>2021-08-12T10:20:48Z</time>
      </trkpt>
      <trkpt lat="45.50141" lon="6.7411">
        <ele>2241.4</ele>
        <time>2021-08-12T10:20:49Z</time>
      </trkpt>
      <trkpt lat="45.50141" lon="6.7411">
        <ele>2241.4</ele>
        <time>2021-08-12T10:20:50Z</time>
      </trkpt>
      <trkpt lat="45.50141" lon="6.7411">
        <ele>2241.4</ele>
        <time>2021-08-12T10:20:51Z</time>
      </trkpt>
      <trkpt lat="45.50141" lon="6.7411">
        <ele>2241.4</ele>
        <time>2021-08-12T10:20:52Z</time>
      </trkpt>
      <trkpt lat="45.50141" lon="6.7411">
        <ele>2241.4</ele>
        <time>2021-08-12T10:20:53Z</time>
      </trkpt>
      <trkpt lat="45.50141" lon="6.7411">
        <ele>2241.4</ele>
        <time>2021-08-12T10:20:54Z</time>
      </trkpt>
      <trkpt lat="45.50141" lon="6.7411">
        <ele>2241.4</ele>
        <time>2021-08-12T10:20:55Z</time>
      </trkpt>
      <trkpt lat="45.50141" lon="6.7411">
        <ele>2241.4</ele>
        <time>2021-08-12T10:20:56Z</time>
      </trkpt>
      <trkpt lat="45.50141" lon="6.7411">
        <ele>2241.4</ele>
        <time>2021-08-12T10:20:57Z</time>
      </trkpt>
      <trkpt lat="45.50141" lon="6.7411">
        <ele>2241.4</ele>
        <time>2021-08-12T10:20:58Z</time>
      </trkpt>
      <trkpt lat="45.50141" lon="6.7411">
        <ele>2241.4</ele>
        <time>2021-08-12T10:20:59Z</time>
      </trkpt>
      <trkpt lat="45.50141" lon="6.7411">
        <ele>2241.4</ele>
        <time>2021-08-12T10:21:00Z</time>
      </trkpt>
      <trkpt lat="45.50141" lon="6.7411">
        <ele>2241.4</ele>
        <time>2021-08-12T10:21:01Z</time>
      </trkpt>
      <trkpt lat="45.50141" lon="6.7411">
        <ele>2241.4</ele>
        <time>2021-08-12T10:21:02Z</time>
      </trkpt>
      <trkpt lat="45.50141" lon="6.7411">
        <ele>2241.4</ele>
        <time>2021-08-12T10:21:03Z</time>
      </trkpt>
      <trkpt lat="45.50141" lon="6.7411">
        <ele>2241.4</ele>
        <time>2021-08-12T10:21:04Z</time>
      </trkpt>
      <trkpt lat="45.50141" lon="6.7411">
        <ele>2241.4</ele>
        <time>2021-08-12T10:21:05Z</time>
      </trkpt>
      <trkpt lat="45.50141" lon="6.7411">
        <ele>2241.4</ele>
        <time>2021-08-12T10:21:06Z</time>
      </trkpt>
      <trkpt lat="45.50141" lon="6.7411">
        <ele>2241.4</ele>
        <time>2021-08-12T10:21:07Z</time>
      </trkpt>
      <trkpt lat="45.50141" lon="6.7411">
        <ele>2241.4</ele>
        <time>2021-08-12T10:21:08Z</time>
      </trkpt>
      <trkpt lat="45.50141" lon="6.7411">
        <ele>2241.4</ele>
        <time>2021-08-12T10:21:09Z</time>
      </trkpt>
      <trkpt lat="45.50141" lon="6.7411">
        <ele>2241.4</ele>
        <time>2021-08-12T10:21:10Z</time>
      </trkpt>
      <trkpt lat="45.50141" lon="6.7411">
        <ele>2241.4</ele>
        <time>2021-08-12T10:21:11Z</time>
      </trkpt>
      <trkpt lat="45.50141" lon="6.7411">
        <ele>2241.4</ele>
        <time>2021-08-12T10:21:12Z</time>
      </trkpt>
      <trkpt lat="45.50141" lon="6.7411">
        <ele>2241.4</ele>
        <time>2021-08-12T10:21:13Z</time>
      </trkpt>
      <trkpt lat="45.50141" lon="6.7411">
        <ele>2241.4</ele>
        <time>2021-08-12T10:21:14Z</time>
      </trkpt>
      <trkpt lat="45.50141" lon="6.7411">
        <ele>2241.4</ele>
        <time>2021-08-12T10:21:15Z</time>
      </trkpt>
      <trkpt lat="45.50141" lon="6.7411">
        <ele>2241.4</ele>
        <time>2021-08-12T10:21:16Z</time>
      </trkpt>
      <trkpt lat="45.50141" lon="6.7411">
        <ele>2241.4</ele>
        <time>2021-08-12T10:21:17Z</time>
      </trkpt>
      <trkpt lat="45.50141" lon="6.7411">
        <ele>2241.4</ele>
        <time>2021-08-12T10:21:18Z</time>
      </trkpt>
      <trkpt lat="45.50141" lon="6.7411">
        <ele>2241.4</ele>
        <time>2021-08-12T10:21:19Z</time>
      </trkpt>
      <trkpt lat="45.50141" lon="6.7411">
        <ele>2241.4</ele>
        <time>2021-08-12T10:21:20Z</time>
      </trkpt>
      <trkpt lat="45.50141" lon="6.7411">
        <ele>2241.4</ele>
        <time>2021-08-12T10:21:21Z</time>
      </trkpt>
      <trkpt lat="45.50141" lon="6.7411">
        <ele>2241.4</ele>
        <time>2021-08-12T10:21:22Z</time>
      </trkpt>
      <trkpt lat="45.50141" lon="6.7411">
        <ele>2241.4</ele>
        <time>2021-08-12T10:21:23Z</time>
      </trkpt>
      <trkpt lat="45.50141" lon="6.7411">
        <ele>2241.4</ele>
        <time>2021-08-12T10:21:24Z</time>
      </trkpt>
      <trkpt lat="45.50141" lon="6.7411">
        <ele>2241.4</ele>
        <time>2021-08-12T10:21:25Z</time>
      </trkpt>
      <trkpt lat="45.50141" lon="6.7411">
        <ele>2241.4</ele>
        <time>2021-08-12T10:21:26Z</time>
      </trkpt>
      <trkpt lat="45.50141" lon="6.7411">
        <ele>2241.4</ele>
        <time>2021-08-12T10:21:27Z</time>
      </trkpt>
      <trkpt lat="45.50141" lon="6.7411">
        <ele>2241.4</ele>
        <time>2021-08-12T10:21:28Z</time>
      </trkpt>
      <trkpt lat="45.50141" lon="6.7411">
        <ele>2241.4</ele>
        <time>2021-08-12T10:21:29Z</time>
      </trkpt>
      <trkpt lat="45.50141" lon="6.7411">
        <ele>2241.4</ele>
        <time>2021-08-12T10:21:30Z</time>
      </trkpt>
      <trkpt lat="45.50141" lon="6.7411">
        <ele>2241.4</ele>
        <time>2021-08-12T10:21:31Z</time>
      </trkpt>
      <trkpt lat="45.50141" lon="6.7411">
        <ele>2241.4</ele>
        <time>2021-08-12T10:21:32Z</time>
      </trkpt>
      <trkpt lat="45.50141" lon="6.7411">
        <ele>2241.4</ele>
        <time>2021-08-12T10:21:33Z</time>
      </trkpt>
      <trkpt lat="45.50141" lon="6.7411">
        <ele>2241.4</ele>
        <time>2021-08-12T10:21:34Z</time>
      </trkpt>
      <trkpt lat="45.50141" lon="6.7411">
        <ele>2241.4</ele>
        <time>2021-08-12T10:21:35Z</time>
      </trkpt>
      <trkpt lat="45.50141" lon="6.7411">
        <ele>2241.4</ele>
        <time>2021-08-12T10:21:36Z</time>
      </trkpt>
      <trkpt lat="45.50141" lon="6.7411">
        <ele>2241.4</ele>
        <time>2021-08-12T10:21:37Z</time>
      </trkpt>
      <trkpt lat="45.50141" lon="6.7411">
        <ele>2241.4</ele>
        <time>2021-08-12T10:21:38Z</time>
      </trkpt>
      <trkpt lat="45.50141" lon="6.7411">
        <ele>2241.4</ele>
        <time>2021-08-12T10:21:39Z</time>
      </trkpt>
      <trkpt lat="45.50141" lon="6.7411">
        <ele>2241.4</ele>
        <time>2021-08-12T10:21:40Z</time>
      </trkpt>
      <trkpt lat="45.50141" lon="6.7411">
        <ele>2241.4</ele>
        <time>2021-08-12T10:21:41Z</time>
      </trkpt>
      <trkpt lat="45.50141" lon="6.7411">
        <ele>2241.4</ele>
        <time>2021-08-12T10:21:42Z</time>
      </trkpt>
      <trkpt lat="45.50141" lon="6.7411">
        <ele>2241.4</ele>
        <time>2021-08-12T10:21:43Z</time>
      </trkpt>
      <trkpt lat="45.50141" lon="6.7411">
        <ele>2241.4</ele>
        <time>2021-08-12T10:21:44Z</time>
      </trkpt>
      <trkpt lat="45.50141" lon="6.7411">
        <ele>2241.4</ele>
        <time>2021-08-12T10:21:45Z</time>
      </trkpt>
      <trkpt lat="45.50141" lon="6.7411">
        <ele>2241.4</ele>
        <time>2021-08-12T10:21:46Z</time>
      </trkpt>
      <trkpt lat="45.50141" lon="6.7411">
        <ele>2241.4</ele>
        <time>2021-08-12T10:21:47Z</time>
      </trkpt>
      <trkpt lat="45.50141" lon="6.7411">
        <ele>2241.4</ele>
        <time>2021-08-12T10:21:48Z</time>
      </trkpt>
      <trkpt lat="45.50141" lon="6.7411">
        <ele>2241.4</ele>
        <time>2021-08-12T10:21:49Z</time>
      </trkpt>
      <trkpt lat="45.50141" lon="6.7411">
        <ele>2241.4</ele>
        <time>2021-08-12T10:21:50Z</time>
      </trkpt>
      <trkpt lat="45.50141" lon="6.7411">
        <ele>2241.4</ele>
        <time>2021-08-12T10:21:51Z</time>
      </trkpt>
      <trkpt lat="45.50141" lon="6.7411">
        <ele>2241.4</ele>
        <time>2021-08-12T10:21:52Z</time>
      </trkpt>
      <trkpt lat="45.50141" lon="6.7411">
        <ele>2241.4</ele>
        <time>2021-08-12T10:21:53Z</time>
      </trkpt>
      <trkpt lat="45.50141" lon="6.7411">
        <ele>2241.4</ele>
        <time>2021-08-12T10:21:54Z</time>
      </trkpt>
      <trkpt lat="45.50141" lon="6.7411">
        <ele>2241.4</ele>
        <time>2021-08-12T10:21:55Z</time>
      </trkpt>
      <trkpt lat="45.50141" lon="6.7411">
        <ele>2241.4</ele>
        <time>2021-08-12T10:21:56Z</time>
      </trkpt>
      <trkpt lat="45.50141" lon="6.7411">
        <ele>2241.4</ele>
        <time>2021-08-12T10:21:57Z</time>
      </trkpt>
      <trkpt lat="45.50141" lon="6.7411">
        <ele>2241.4</ele>
        <time>2021-08-12T10:21:58Z</time>
      </trkpt>
      <trkpt lat="45.50141" lon="6.7411">
        <ele>2241.4</ele>
        <time>2021-08-12T10:21:59Z</time>
      </trkpt>
      <trkpt lat="45.50141" lon="6.7411">
        <ele>2241.4</ele>
        <time>2021-08-12T10:22:00Z</time>
      </trkpt>
      <trkpt lat="45.50141" lon="6.7411">
        <ele>2241.4</ele>
        <time>2021-08-12T10:22:01Z</time>
      </trkpt>
      <trkpt lat="45.50141" lon="6.7411">
        <ele>2241.4</ele>
        <time>2021-08-12T10:22:02Z</time>
      </trkpt>
      <trkpt lat="45.50141" lon="6.7411">
        <ele>2241.4</ele>
        <time>2021-08-12T10:22:03Z</time>
      </trkpt>
      <trkpt lat="45.50141" lon="6.7411">
        <ele>2241.4</ele>
        <time>2021-08-12T10:22:04Z</time>
      </trkpt>
      <trkpt lat="45.50141" lon="6.7411">
        <ele>2241.4</ele>
        <time>2021-08-12T10:22:05Z</time>
      </trkpt>
      <trkpt lat="45.50141" lon="6.7411">
        <ele>2241.4</ele>
        <time>2021-08-12T10:22:06Z</time>
      </trkpt>
      <trkpt lat="45.50141" lon="6.7411">
        <ele>2241.4</ele>
        <time>2021-08-12T10:22:07Z</time>
      </trkpt>
      <trkpt lat="45.50141" lon="6.7411">
        <ele>2241.4</ele>
        <time>2021-08-12T10:22:08Z</time>
      </trkpt>
      <trkpt lat="45.50141" lon="6.7411">
        <ele>2241.4</ele>
        <time>2021-08-12T10:22:09Z</time>
      </trkpt>
      <trkpt lat="45.50141" lon="6.7411">
        <ele>2241.4</ele>
        <time>2021-08-12T10:22:10Z</time>
      </trkpt>
      <trkpt lat="45.50141" lon="6.7411">
        <ele>2241.4</ele>
        <time>2021-08-12T10:22:11Z</time>
      </trkpt>
      <trkpt lat="45.50141" lon="6.7411">
        <ele>2241.4</ele>
        <time>2021-08-12T10:22:12Z</time>
      </trkpt>
      <trkpt lat="45.50141" lon="6.7411">
        <ele>2241.4</ele>
        <time>2021-08-12T10:22:13Z</time>
      </trkpt>
      <trkpt lat="45.50141" lon="6.7411">
        <ele>2241.4</ele>
        <time>2021-08-12T10:22:14Z</time>
      </trkpt>
      <trkpt lat="45.50141" lon="6.7411">
        <ele>2241.4</ele>
        <time>2021-08-12T10:22:15Z</time>
      </trkpt>
      <trkpt lat="45.50141" lon="6.7411">
        <ele>2241.4</ele>
        <time>2021-08-12T10:22:16Z</time>
      </trkpt>
      <trkpt lat="45.50141" lon="6.7411">
        <ele>2241.4</ele>
        <time>2021-08-12T10:22:17Z</time>
      </trkpt>
      <trkpt lat="45.50141" lon="6.7411">
        <ele>2241.4</ele>
        <time>2021-08-12T10:22:18Z</time>
      </trkpt>
      <trkpt lat="45.50141" lon="6.7411">
        <ele>2241.4</ele>
        <time>2021-08-12T10:22:19Z</time>
      </trkpt>
      <trkpt lat="45.50141" lon="6.7411">
        <ele>2241.4</ele>
        <time>2021-08-12T10:22:20Z</time>
      </trkpt>
      <trkpt lat="45.50141" lon="6.7411">
        <ele>2241.4</ele>
        <time>2021-08-12T10:22:21Z</time>
      </trkpt>
      <trkpt lat="45.50141" lon="6.7411">
        <ele>2241.4</ele>
        <time>2021-08-12T10:22:22Z</time>
      </trkpt>
      <trkpt lat="45.50141" lon="6.7411">
        <ele>2241.4</ele>
        <time>2021-08-12T10:22:23Z</time>
      </trkpt>
      <trkpt lat="45.50141" lon="6.7411">
        <ele>2241.4</ele>
        <time>2021-08-12T10:22:24Z</time>
      </trkpt>
      <trkpt lat="45.50141" lon="6.7411">
        <ele>2241.4</ele>
        <time>2021-08-12T10:22:25Z</time>
      </trkpt>
      <trkpt lat="45.50141" lon="6.7411">
        <ele>2241.4</ele>
        <time>2021-08-12T10:22:26Z</time>
      </trkpt>
      <trkpt lat="45.50141" lon="6.7411">
        <ele>2241.4</ele>
        <time>2021-08-12T10:22:27Z</time>
      </trkpt>
      <trkpt lat="45.50141" lon="6.7411">
        <ele>2241.4</ele>
        <time>2021-08-12T10:22:28Z</time>
      </trkpt>
      <trkpt lat="45.50141" lon="6.7411">
        <ele>2241.4</ele>
        <time>2021-08-12T10:22:29Z</time>
      </trkpt>
      <trkpt lat="45.50141" lon="6.7411">
        <ele>2241.4</ele>
        <time>2021-08-12T10:22:30Z</time>
      </trkpt>
      <trkpt lat="45.50141" lon="6.7411">
        <ele>2241.4</ele>
        <time>2021-08-12T10:22:31Z</time>
      </trkpt>
      <trkpt lat="45.50141" lon="6.7411">
        <ele>2241.4</ele>
        <time>2021-08-12T10:22:32Z</time>
      </trkpt>
      <trkpt lat="45.50141" lon="6.7411">
        <ele>2241.4</ele>
        <time>2021-08-12T10:22:33Z</time>
      </trkpt>
      <trkpt lat="45.50141" lon="6.7411">
        <ele>2241.4</ele>
        <time>2021-08-12T10:22:34Z</time>
      </trkpt>
      <trkpt lat="45.50141" lon="6.7411">
        <ele>2241.4</ele>
        <time>2021-08-12T10:22:35Z</time>
      </trkpt>
      <trkpt lat="45.50141" lon="6.7411">
        <ele>2241.4</ele>
        <time>2021-08-12T10:22:36Z</time>
      </trkpt>
      <trkpt lat="45.50141" lon="6.7411">
        <ele>2241.4</ele>
        <time>2021-08-12T10:22:37Z</time>
      </trkpt>
      <trkpt lat="45.50141" lon="6.7411">
        <ele>2241.4</ele>
        <time>2021-08-12T10:22:38Z</time>
      </trkpt>
      <trkpt lat="45.50141" lon="6.7411">
        <ele>2241.4</ele>
        <time>2021-08-12T10:22:39Z</time>
      </trkpt>
      <trkpt lat="45.50141" lon="6.7411">
        <ele>2241.4</ele>
        <time>2021-08-12T10:22:40Z</time>
      </trkpt>
      <trkpt lat="45.50141" lon="6.7411">
        <ele>2241.4</ele>
        <time>2021-08-12T10:22:41Z</time>
      </trkpt>
      <trkpt lat="45.50141" lon="6.7411">
        <ele>2241.4</ele>
        <time>2021-08-12T10:22:42Z</time>
      </trkpt>
      <trkpt lat="45.50141" lon="6.7411">
        <ele>2241.4</ele>
        <time>2021-08-12T10:22:43Z</time>
      </trkpt>
      <trkpt lat="45.50141" lon="6.7411">
        <ele>2241.4</ele>
        <time>2021-08-12T10:22:44Z</time>
      </trkpt>
      <trkpt lat="45.50141" lon="6.7411">
        <ele>2241.4</ele>
        <time>2021-08-12T10:22:45Z</time>
      </trkpt>
      <trkpt lat="45.50141" lon="6.7411">
        <ele>2241.4</ele>
        <time>2021-08-12T10:22:46Z</time>
      </trkpt>
      <trkpt lat="45.50141" lon="6.7411">
        <ele>2241.4</ele>
        <time>2021-08-12T10:22:47Z</time>
      </trkpt>
      <trkpt lat="45.50141" lon="6.7411">
        <ele>2241.4</ele>
        <time>2021-08-12T10:22:48Z</time>
      </trkpt>
      <trkpt lat="45.50141" lon="6.7411">
        <ele>2241.4</ele>
        <time>2021-08-12T10:22:49Z</time>
      </trkpt>
      <trkpt lat="45.50141" lon="6.7411">
        <ele>2241.4</ele>
        <time>2021-08-12T10:22:50Z</time>
      </trkpt>
      <trkpt lat="45.50141" lon="6.7411">
        <ele>2241.4</ele>
        <time>2021-08-12T10:22:51Z</time>
      </trkpt>
      <trkpt lat="45.50141" lon="6.7411">
        <ele>2241.4</ele>
        <time>2021-08-12T10:22:52Z</time>
      </trkpt>
      <trkpt lat="45.50141" lon="6.7411">
        <ele>2241.4</ele>
        <time>2021-08-12T10:22:53Z</time>
      </trkpt>
      <trkpt lat="45.50141" lon="6.7411">
        <ele>2241.4</ele>
        <time>2021-08-12T10:22:54Z</time>
      </trkpt>
      <trkpt lat="45.50141" lon="6.7411">
        <ele>2241.4</ele>
        <time>2021-08-12T10:22:55Z</time>
      </trkpt>
      <trkpt lat="45.50141" lon="6.7411">
        <ele>2241.4</ele>
        <time>2021-08-12T10:22:56Z</time>
      </trkpt>
      <trkpt lat="45.50141" lon="6.7411">
        <ele>2241.4</ele>
        <time>2021-08-12T10:22:57Z</time>
      </trkpt>
      <trkpt lat="45.50141" lon="6.7411">
        <ele>2241.4</ele>
        <time>2021-08-12T10:22:58Z</time>
      </trkpt>
      <trkpt lat="45.50141" lon="6.7411">
        <ele>2241.4</ele>
        <time>2021-08-12T10:22:59Z</time>
      </trkpt>
      <trkpt lat="45.50141" lon="6.7411">
        <ele>2241.4</ele>
        <time>2021-08-12T10:23:00Z</time>
      </trkpt>
      <trkpt lat="45.50141" lon="6.7411">
        <ele>2241.4</ele>
        <time>2021-08-12T10:23:01Z</time>
      </trkpt>
      <trkpt lat="45.50141" lon="6.7411">
        <ele>2241.4</ele>
        <time>2021-08-12T10:23:02Z</time>
      </trkpt>
      <trkpt lat="45.50141" lon="6.7411">
        <ele>2241.4</ele>
        <time>2021-08-12T10:23:03Z</time>
      </trkpt>
      <trkpt lat="45.50141" lon="6.7411">
        <ele>2241.4</ele>
        <time>2021-08-12T10:23:04Z</time>
      </trkpt>
      <trkpt lat="45.50141" lon="6.7411">
        <ele>2241.4</ele>
        <time>2021-08-12T10:23:05Z</time>
      </trkpt>
      <trkpt lat="45.50141" lon="6.7411">
        <ele>2241.4</ele>
        <time>2021-08-12T10:23:06Z</time>
      </trkpt>
      <trkpt lat="45.50141" lon="6.7411">
        <ele>2241.4</ele>
        <time>2021-08-12T10:23:07Z</time>
      </trkpt>
      <trkpt lat="45.50141" lon="6.7411">
        <ele>2241.4</ele>
        <time>2021-08-12T10:23:08Z</time>
      </trkpt>
      <trkpt lat="45.50141" lon="6.7411">
        <ele>2241.4</ele>
        <time>2021-08-12T10:23:09Z</time>
      </trkpt>
      <trkpt lat="45.50141" lon="6.7411">
        <ele>2241.4</ele>
        <time>2021-08-12T10:23:10Z</time>
      </trkpt>
      <trkpt lat="45.50141" lon="6.7411">
        <ele>2241.4</ele>
        <time>2021-08-12T10:23:11Z</time>
      </trkpt>
      <trkpt lat="45.50141" lon="6.7411">
        <ele>2241.4</ele>
        <time>2021-08-12T10:23:12Z</time>
      </trkpt>
      <trkpt lat="45.50141" lon="6.7411">
        <ele>2241.4</ele>
        <time>2021-08-12T10:23:13Z</time>
      </trkpt>
      <trkpt lat="45.50141" lon="6.7411">
        <ele>2241.4</ele>
        <time>2021-08-12T10:23:14Z</time>
      </trkpt>
      <trkpt lat="45.50141" lon="6.7411">
        <ele>2241.4</ele>
        <time>2021-08-12T10:23:15Z</time>
      </trkpt>
      <trkpt lat="45.50141" lon="6.7411">
        <ele>2241.4</ele>
        <time>2021-08-12T10:23:16Z</time>
      </trkpt>
      <trkpt lat="45.50141" lon="6.7411">
        <ele>2241.4</ele>
        <time>2021-08-12T10:23:17Z</time>
      </trkpt>
      <trkpt lat="45.50141" lon="6.7411">
        <ele>2241.4</ele>
        <time>2021-08-12T10:23:18Z</time>
      </trkpt>
      <trkpt lat="45.50141" lon="6.7411">
        <ele>2241.4</ele>
        <time>2021-08-12T10:23:19Z</time>
      </trkpt>
      <trkpt lat="45.50141" lon="6.7411">
        <ele>2241.4</ele>
        <time>2021-08-12T10:23:20Z</time>
      </trkpt>
      <trkpt lat="45.50141" lon="6.7411">
        <ele>2241.4</ele>
        <time>2021-08-12T10:23:21Z</time>
      </trkpt>
      <trkpt lat="45.50141" lon="6.7411">
        <ele>2241.4</ele>
        <time>2021-08-12T10:23:22Z</time>
      </trkpt>
      <trkpt lat="45.50141" lon="6.7411">
        <ele>2241.4</ele>
        <time>2021-08-12T10:23:23Z</time>
      </trkpt>
      <trkpt lat="45.50141" lon="6.7411">
        <ele>2241.4</ele>
        <time>2021-08-12T10:23:24Z</time>
      </trkpt>
      <trkpt lat="45.50141" lon="6.7411">
        <ele>2241.4</ele>
        <time>2021-08-12T10:23:25Z</time>
      </trkpt>
      <trkpt lat="45.50141" lon="6.7411">
        <ele>2241.4</ele>
        <time>2021-08-12T10:23:26Z</time>
      </trkpt>
      <trkpt lat="45.50141" lon="6.7411">
        <ele>2241.4</ele>
        <time>2021-08-12T10:23:27Z</time>
      </trkpt>
      <trkpt lat="45.50141" lon="6.7411">
        <ele>2241.4</ele>
        <time>2021-08-12T10:23:28Z</time>
      </trkpt>
      <trkpt lat="45.50141" lon="6.7411">
        <ele>2241.4</ele>
        <time>2021-08-12T10:23:29Z</time>
      </trkpt>
      <trkpt lat="45.50141" lon="6.7411">
        <ele>2241.4</ele>
        <time>2021-08-12T10:23:30Z</time>
      </trkpt>
      <trkpt lat="45.50141" lon="6.7411">
        <ele>2241.4</ele>
        <time>2021-08-12T10:23:31Z</time>
      </trkpt>
      <trkpt lat="45.50141" lon="6.7411">
        <ele>2241.4</ele>
        <time>2021-08-12T10:23:32Z</time>
      </trkpt>
      <trkpt lat="45.50141" lon="6.7411">
        <ele>2241.4</ele>
        <time>2021-08-12T10:23:33Z</time>
      </trkpt>
      <trkpt lat="45.50141" lon="6.7411">
        <ele>2241.4</ele>
        <time>2021-08-12T10:23:34Z</time>
      </trkpt>
      <trkpt lat="45.50141" lon="6.7411">
        <ele>2241.4</ele>
        <time>2021-08-12T10:23:35Z</time>
      </trkpt>
      <trkpt lat="45.50141" lon="6.7411">
        <ele>2241.4</ele>
        <time>2021-08-12T10:23:36Z</time>
      </trkpt>
      <trkpt lat="45.50141" lon="6.7411">
        <ele>2241.4</ele>
        <time>2021-08-12T10:23:37Z</time>
      </trkpt>
      <trkpt lat="45.50141" lon="6.7411">
        <ele>2241.4</ele>
        <time>2021-08-12T10:23:38Z</time>
      </trkpt>
      <trkpt lat="45.50141" lon="6.7411">
        <ele>2241.4</ele>
        <time>2021-08-12T10:23:39Z</time>
      </trkpt>
      <trkpt lat="45.50141" lon="6.7411">
        <ele>2241.4</ele>
        <time>2021-08-12T10:23:40Z</time>
      </trkpt>
      <trkpt lat="45.50141" lon="6.7411">
        <ele>2241.4</ele>
        <time>2021-08-12T10:23:41Z</time>
      </trkpt>
      <trkpt lat="45.50141" lon="6.7411">
        <ele>2241.4</ele>
        <time>2021-08-12T10:23:42Z</time>
      </trkpt>
      <trkpt lat="45.50141" lon="6.7411">
        <ele>2241.4</ele>
        <time>2021-08-12T10:23:43Z</time>
      </trkpt>
      <trkpt lat="45.50141" lon="6.7411">
        <ele>2241.4</ele>
        <time>2021-08-12T10:23:44Z</time>
      </trkpt>
      <trkpt lat="45.50141" lon="6.7411">
        <ele>2241.4</ele>
        <time>2021-08-12T10:23:45Z</time>
      </trkpt>
      <trkpt lat="45.50141" lon="6.7411">
        <ele>2241.4</ele>
        <time>2021-08-12T10:23:46Z</time>
      </trkpt>
      <trkpt lat="45.50141" lon="6.7411">
        <ele>2241.4</ele>
        <time>2021-08-12T10:23:47Z</time>
      </trkpt>
      <trkpt lat="45.50141" lon="6.7411">
        <ele>2241.4</ele>
        <time>2021-08-12T10:23:48Z</time>
      </trkpt>
      <trkpt lat="45.50141" lon="6.7411">
        <ele>2241.4</ele>
        <time>2021-08-12T10:23:49Z</time>
      </trkpt>
      <trkpt lat="45.50141" lon="6.7411">
        <ele>2241.4</ele>
        <time>2021-08-12T10:23:50Z</time>
      </trkpt>
      <trkpt lat="45.50141" lon="6.7411">
        <ele>2241.4</ele>
        <time>2021-08-12T10:23:51Z</time>
      </trkpt>
      <trkpt lat="45.50141" lon="6.7411">
        <ele>2241.4</ele>
        <time>2021-08-12T10:23:52Z</time>
      </trkpt>
      <trkpt lat="45.50141" lon="6.7411">
        <ele>2241.4</ele>
        <time>2021-08-12T10:23:53Z</time>
      </trkpt>
      <trkpt lat="45.50141" lon="6.7411">
        <ele>2241.4</ele>
        <time>2021-08-12T10:23:54Z</time>
      </trkpt>
      <trkpt lat="45.50141" lon="6.7411">
        <ele>2241.4</ele>
        <time>2021-08-12T10:23:55Z</time>
      </trkpt>
      <trkpt lat="45.50141" lon="6.7411">
        <ele>2241.4</ele>
        <time>2021-08-12T10:23:56Z</time>
      </trkpt>
      <trkpt lat="45.50141" lon="6.7411">
        <ele>2241.4</ele>
        <time>2021-08-12T10:23:57Z</time>
      </trkpt>
      <trkpt lat="45.50141" lon="6.7411">
        <ele>2241.4</ele>
        <time>2021-08-12T10:23:58Z</time>
      </trkpt>
      <trkpt lat="45.50141" lon="6.7411">
        <ele>2241.4</ele>
        <time>2021-08-12T10:23:59Z</time>
      </trkpt>
      <trkpt lat="45.50141" lon="6.7411">
        <ele>2241.4</ele>
        <time>2021-08-12T10:24:00Z</time>
      </trkpt>
      <trkpt lat="45.50141" lon="6.7411">
        <ele>2241.4</ele>
        <time>2021-08-12T10:24:01Z</time>
      </trkpt>
      <trkpt lat="45.50141" lon="6.7411">
        <ele>2241.4</ele>
        <time>2021-08-12T10:24:02Z</time>
      </trkpt>
      <trkpt lat="45.50141" lon="6.7411">
        <ele>2241.4</ele>
        <time>2021-08-12T10:24:03Z</time>
      </trkpt>
      <trkpt lat="45.50141" lon="6.7411">
        <ele>2241.4</ele>
        <time>2021-08-12T10:24:04Z</time>
      </trkpt>
      <trkpt lat="45.50141" lon="6.7411">
        <ele>2241.4</ele>
        <time>2021-08-12T10:24:05Z</time>
      </trkpt>
      <trkpt lat="45.50141" lon="6.7411">
        <ele>2241.4</ele>
        <time>2021-08-12T10:24:06Z</time>
      </trkpt>
      <trkpt lat="45.50141" lon="6.7411">
        <ele>2241.4</ele>
        <time>2021-08-12T10:24:07Z</time>
      </trkpt>
      <trkpt lat="45.50141" lon="6.7411">
        <ele>2241.4</ele>
        <time>2021-08-12T10:24:08Z</time>
      </trkpt>
      <trkpt lat="45.50141" lon="6.7411">
        <ele>2241.4</ele>
        <time>2021-08-12T10:24:09Z</time>
      </trkpt>
      <trkpt lat="45.50141" lon="6.7411">
        <ele>2241.4</ele>
        <time>2021-08-12T10:24:10Z</time>
      </trkpt>
      <trkpt lat="45.50141" lon="6.7411">
        <ele>2241.4</ele>
        <time>2021-08-12T10:24:11Z</time>
      </trkpt>
      <trkpt lat="45.50141" lon="6.7411">
        <ele>2241.4</ele>
        <time>2021-08-12T10:24:12Z</time>
      </trkpt>
      <trkpt lat="45.50141" lon="6.7411">
        <ele>2241.4</ele>
        <time>2021-08-12T10:24:13Z</time>
      </trkpt>
      <trkpt lat="45.50141" lon="6.7411">
        <ele>2241.4</ele>
        <time>2021-08-12T10:24:14Z</time>
      </trkpt>
      <trkpt lat="45.50141" lon="6.7411">
        <ele>2241.4</ele>
        <time>2021-08-12T10:24:15Z</time>
      </trkpt>
      <trkpt lat="45.50141" lon="6.7411">
        <ele>2241.4</ele>
        <time>2021-08-12T10:24:16Z</time>
      </trkpt>
      <trkpt lat="45.50141" lon="6.7411">
        <ele>2241.4</ele>
        <time>2021-08-12T10:24:17Z</time>
      </trkpt>
      <trkpt lat="45.50141" lon="6.7411">
        <ele>2241.4</ele>
        <time>2021-08-12T10:24:18Z</time>
      </trkpt>
      <trkpt lat="45.50141" lon="6.7411">
        <ele>2241.4</ele>
        <time>2021-08-12T10:24:19Z</time>
      </trkpt>
      <trkpt lat="45.50141" lon="6.7411">
        <ele>2241.4</ele>
        <time>2021-08-12T10:24:20Z</time>
      </trkpt>
      <trkpt lat="45.50141" lon="6.7411">
        <ele>2241.4</ele>
        <time>2021-08-12T10:24:21Z</time>
      </trkpt>
      <trkpt lat="45.50141" lon="6.7411">
        <ele>2241.4</ele>
        <time>2021-08-12T10:24:22Z</time>
      </trkpt>
      <trkpt lat="45.50141" lon="6.7411">
        <ele>2241.4</ele>
        <time>2021-08-12T10:24:23Z</time>
      </trkpt>
      <trkpt lat="45.50141" lon="6.7411">
        <ele>2241.4</ele>
        <time>2021-08-12T10:24:24Z</time>
      </trkpt>
      <trkpt lat="45.50141" lon="6.7411">
        <ele>2241.4</ele>
        <time>2021-08-12T10:24:25Z</time>
      </trkpt>
      <trkpt lat="45.50141" lon="6.7411">
        <ele>2241.4</ele>
        <time>2021-08-12T10:24:26Z</time>
      </trkpt>
      <trkpt lat="45.50141" lon="6.7411">
        <ele>2241.4</ele>
        <time>2021-08-12T10:24:27Z</time>
      </trkpt>
      <trkpt lat="45.50141" lon="6.7411">
        <ele>2241.4</ele>
        <time>2021-08-12T10:24:28Z</time>
      </trkpt>
      <trkpt lat="45.50141" lon="6.7411">
        <ele>2241.4</ele>
        <time>2021-08-12T10:24:29Z</time>
      </trkpt>
      <trkpt lat="45.50141" lon="6.7411">
        <ele>2241.4</ele>
        <time>2021-08-12T10:24:30Z</time>
      </trkpt>
      <trkpt lat="45.50141" lon="6.7411">
        <ele>2241.4</ele>
        <time>2021-08-12T10:24:31Z</time>
      </trkpt>
      <trkpt lat="45.50141" lon="6.7411">
        <ele>2241.4</ele>
        <time>2021-08-12T10:24:32Z</time>
      </trkpt>
      <trkpt lat="45.50141" lon="6.7411">
        <ele>2241.4</ele>
        <time>2021-08-12T10:24:33Z</time>
      </trkpt>
      <trkpt lat="45.50141" lon="6.7411">
        <ele>2241.4</ele>
        <time>2021-08-12T10:24:34Z</time>
      </trkpt>
      <trkpt lat="45.50141" lon="6.7411">
        <ele>2241.4</ele>
        <time>2021-08-12T10:24:35Z</time>
      </trkpt>
      <trkpt lat="45.50141" lon="6.7411">
        <ele>2241.4</ele>
        <time>2021-08-12T10:24:36Z</time>
      </trkpt>
      <trkpt lat="45.50141" lon="6.7411">
        <ele>2241.4</ele>
        <time>2021-08-12T10:24:37Z</time>
      </trkpt>
      <trkpt lat="45.50141" lon="6.7411">
        <ele>2241.4</ele>
        <time>2021-08-12T10:24:38Z</time>
      </trkpt>
      <trkpt lat="45.50141" lon="6.7411">
        <ele>2241.4</ele>
        <time>2021-08-12T10:24:39Z</time>
      </trkpt>
      <trkpt lat="45.50141" lon="6.7411">
        <ele>2241.4</ele>
        <time>2021-08-12T10:24:40Z</time>
      </trkpt>
      <trkpt lat="45.50141" lon="6.7411">
        <ele>2241.4</ele>
        <time>2021-08-12T10:24:41Z</time>
      </trkpt>
      <trkpt lat="45.50141" lon="6.7411">
        <ele>2241.4</ele>
        <time>2021-08-12T10:24:42Z</time>
      </trkpt>
      <trkpt lat="45.50141" lon="6.7411">
        <ele>2241.4</ele>
        <time>2021-08-12T10:24:43Z</time>
      </trkpt>
      <trkpt lat="45.50141" lon="6.7411">
        <ele>2241.4</ele>
        <time>2021-08-12T10:24:44Z</time>
      </trkpt>
      <trkpt lat="45.50141" lon="6.7411">
        <ele>2241.4</ele>
        <time>2021-08-12T10:24:45Z</time>
      </trkpt>
      <trkpt lat="45.50141" lon="6.7411">
        <ele>2241.4</ele>
        <time>2021-08-12T10:24:46Z</time>
      </trkpt>
      <trkpt lat="45.50141" lon="6.7411">
        <ele>2241.4</ele>
        <time>2021-08-12T10:24:47Z</time>
      </trkpt>
      <trkpt lat="45.50141" lon="6.7411">
        <ele>2241.4</ele>
        <time>2021-08-12T10:24:48Z</time>
      </trkpt>
      <trkpt lat="45.50141" lon="6.7411">
        <ele>2241.4</ele>
        <time>2021-08-12T10:24:49Z</time>
      </trkpt>
      <trkpt lat="45.50141" lon="6.7411">
        <ele>2241.4</ele>
        <time>2021-08-12T10:24:50Z</time>
      </trkpt>
      <trkpt lat="45.50141" lon="6.7411">
        <ele>2241.4</ele>
        <time>2021-08-12T10:24:51Z</time>
      </trkpt>
      <trkpt lat="45.50141" lon="6.7411">
        <ele>2241.4</ele>
        <time>2021-08-12T10:24:52Z</time>
      </trkpt>
      <trkpt lat="45.50141" lon="6.7411">
        <ele>2241.4</ele>
        <time>2021-08-12T10:24:53Z</time>
      </trkpt>
      <trkpt lat="45.50141" lon="6.7411">
        <ele>2241.4</ele>
        <time>2021-08-12T10:24:54Z</time>
      </trkpt>
      <trkpt lat="45.50141" lon="6.7411">
        <ele>2241.4</ele>
        <time>2021-08-12T10:24:55Z</time>
      </trkpt>
      <trkpt lat="45.50141" lon="6.7411">
        <ele>2241.4</ele>
        <time>2021-08-12T10:24:56Z</time>
      </trkpt>
      <trkpt lat="45.50141" lon="6.7411">
        <ele>2241.4</ele>
        <time>2021-08-12T10:24:57Z</time>
      </trkpt>
      <trkpt lat="45.50141" lon="6.7411">
        <ele>2241.4</ele>
        <time>2021-08-12T10:24:58Z</time>
      </trkpt>
      <trkpt lat="45.50141" lon="6.7411">
        <ele>2241.4</ele>
        <time>2021-08-12T10:24:59Z</time>
      </trkpt>
      <trkpt lat="45.50141" lon="6.7411">
        <ele>2241.4</ele>
        <time>2021-08-12T10:25:00Z</time>
      </trkpt>
      <trkpt lat="45.50141" lon="6.7411">
        <ele>2241.4</ele>
        <time>2021-08-12T10:25:01Z</time>
      </trkpt>
      <trkpt lat="45.50141" lon="6.7411">
        <ele>2241.4</ele>
        <time>2021-08-12T10:25:02Z</time>
      </trkpt>
      <trkpt lat="45.50141" lon="6.7411">
        <ele>2241.4</ele>
        <time>2021-08-12T10:25:03Z</time>
      </trkpt>
      <trkpt lat="45.50141" lon="6.7411">
        <ele>2241.4</ele>
        <time>2021-08-12T10:25:04Z</time>
      </trkpt>
      <trkpt lat="45.50141" lon="6.7411">
        <ele>2241.4</ele>
        <time>2021-08-12T10:25:05Z</time>
      </trkpt>
      <trkpt lat="45.50141" lon="6.7411">
        <ele>2241.4</ele>
        <time>2021-08-12T10:25:06Z</time>
      </trkpt>
      <trkpt lat="45.50141" lon="6.7411">
        <ele>2241.4</ele>
        <time>2021-08-12T10:25:07Z</time>
      </trkpt>
      <trkpt lat="45.50141" lon="6.7411">
        <ele>2241.4</ele>
        <time>2021-08-12T10:25:08Z</time>
      </trkpt>
      <trkpt lat="45.50141" lon="6.7411">
        <ele>2241.4</ele>
        <time>2021-08-12T10:25:09Z</time>
      </trkpt>
      <trkpt lat="45.50141" lon="6.7411">
        <ele>2241.4</ele>
        <time>2021-08-12T10:25:10Z</time>
      </trkpt>
      <trkpt lat="45.50141" lon="6.7411">
        <ele>2241.4</ele>
        <time>2021-08-12T10:25:11Z</time>
      </trkpt>
      <trkpt lat="45.50141" lon="6.7411">
        <ele>2241.4</ele>
        <time>2021-08-12T10:25:12Z</time>
      </trkpt>
      <trkpt lat="45.50141" lon="6.7411">
        <ele>2241.4</ele>
        <time>2021-08-12T10:25:13Z</time>
      </trkpt>
      <trkpt lat="45.50141" lon="6.7411">
        <ele>2241.4</ele>
        <time>2021-08-12T10:25:14Z</time>
      </trkpt>
      <trkpt lat="45.50141" lon="6.7411">
        <ele>2241.4</ele>
        <time>2021-08-12T10:25:15Z</time>
      </trkpt>
      <trkpt lat="45.50141" lon="6.7411">
        <ele>2241.4</ele>
        <time>2021-08-12T10:25:16Z</time>
      </trkpt>
      <trkpt lat="45.50141" lon="6.7411">
        <ele>2241.4</ele>
        <time>2021-08-12T10:25:17Z</time>
      </trkpt>
      <trkpt lat="45.50141" lon="6.7411">
        <ele>2241.4</ele>
        <time>2021-08-12T10:25:18Z</time>
      </trkpt>
      <trkpt lat="45.50141" lon="6.7411">
        <ele>2241.4</ele>
        <time>2021-08-12T10:25:19Z</time>
      </trkpt>
      <trkpt lat="45.50141" lon="6.7411">
        <ele>2241.4</ele>
        <time>2021-08-12T10:25:20Z</time>
      </trkpt>
      <trkpt lat="45.50141" lon="6.7411">
        <ele>2241.4</ele>
        <time>2021-08-12T10:25:21Z</time>
      </trkpt>
      <trkpt lat="45.50141" lon="6.7411">
        <ele>2241.4</ele>
        <time>2021-08-12T10:25:22Z</time>
      </trkpt>
      <trkpt lat="45.50141" lon="6.7411">
        <ele>2241.4</ele>
        <time>2021-08-12T10:25:23Z</time>
      </trkpt>
      <trkpt lat="45.50141" lon="6.7411">
        <ele>2241.4</ele>
        <time>2021-08-12T10:25:24Z</time>
      </trkpt>
      <trkpt lat="45.50141" lon="6.7411">
        <ele>2241.4</ele>
        <time>2021-08-12T10:25:25Z</time>
      </trkpt>
      <trkpt lat="45.50141" lon="6.7411">
        <ele>2241.4</ele>
        <time>2021-08-12T10:25:26Z</time>
      </trkpt>
      <trkpt lat="45.50141" lon="6.7411">
        <ele>2241.4</ele>
        <time>2021-08-12T10:25:27Z</time>
      </trkpt>
      <trkpt lat="45.50141" lon="6.7411">
        <ele>2241.4</ele>
        <time>2021-08-12T10:25:28Z</time>
      </trkpt>
      <trkpt lat="45.50141" lon="6.7411">
        <ele>2241.4</ele>
        <time>2021-08-12T10:25:29Z</time>
      </trkpt>
      <trkpt lat="45.50141" lon="6.7411">
        <ele>2241.4</ele>
        <time>2021-08-12T10:25:30Z</time>
      </trkpt>
      <trkpt lat="45.50141" lon="6.7411">
        <ele>2241.4</ele>
        <time>2021-08-12T10:25:31Z</time>
      </trkpt>
      <trkpt lat="45.50141" lon="6.7411">
        <ele>2241.4</ele>
        <time>2021-08-12T10:25:32Z</time>
      </trkpt>
      <trkpt lat="45.50141" lon="6.7411">
        <ele>2241.4</ele>
        <time>2021-08-12T10:25:33Z</time>
      </trkpt>
      <trkpt lat="45.50141" lon="6.7411">
        <ele>2241.4</ele>
        <time>2021-08-12T10:25:34Z</time>
      </trkpt>
      <trkpt lat="45.50141" lon="6.7411">
        <ele>2241.4</ele>
        <time>2021-08-12T10:25:35Z</time>
      </trkpt>
      <trkpt lat="45.50141" lon="6.7411">
        <ele>2241.4</ele>
        <time>2021-08-12T10:25:36Z</time>
      </trkpt>
      <trkpt lat="45.50141" lon="6.7411">
        <ele>2241.4</ele>
        <time>2021-08-12T10:25:37Z</time>
      </trkpt>
      <trkpt lat="45.50141" lon="6.7411">
        <ele>2241.4</ele>
        <time>2021-08-12T10:25:38Z</time>
      </trkpt>
      <trkpt lat="45.50141" lon="6.7411">
        <ele>2241.4</ele>
        <time>2021-08-12T10:25:39Z</time>
      </trkpt>
      <trkpt lat="45.50141" lon="6.7411">
        <ele>2241.4</ele>
        <time>2021-08-12T10:25:40Z</time>
      </trkpt>
      <trkpt lat="45.50141" lon="6.7411">
        <ele>2241.4</ele>
        <time>2021-08-12T10:25:41Z</time>
      </trkpt>
      <trkpt lat="45.50141" lon="6.7411">
        <ele>2241.4</ele>
        <time>2021-08-12T10:25:42Z</time>
      </trkpt>
      <trkpt lat="45.50141" lon="6.7411">
        <ele>2241.4</ele>
        <time>2021-08-12T10:25:43Z</time>
      </trkpt>
      <trkpt lat="45.50141" lon="6.7411">
        <ele>2241.4</ele>
        <time>2021-08-12T10:25:44Z</time>
      </trkpt>
      <trkpt lat="45.50141" lon="6.7411">
        <ele>2241.4</ele>
        <time>2021-08-12T10:25:45Z</time>
      </trkpt>
      <trkpt lat="45.50141" lon="6.7411">
        <ele>2241.4</ele>
        <time>2021-08-12T10:25:46Z</time>
      </trkpt>
      <trkpt lat="45.50141" lon="6.7411">
        <ele>2241.4</ele>
        <time>2021-08-12T10:25:47Z</time>
      </trkpt>
      <trkpt lat="45.50141" lon="6.7411">
        <ele>2241.4</ele>
        <time>2021-08-12T10:25:48Z</time>
      </trkpt>
      <trkpt lat="45.50141" lon="6.7411">
        <ele>2241.4</ele>
        <time>2021-08-12T10:25:49Z</time>
      </trkpt>
      <trkpt lat="45.50141" lon="6.7411">
        <ele>2241.4</ele>
        <time>2021-08-12T10:25:50Z</time>
      </trkpt>
      <trkpt lat="45.50141" lon="6.7411">
        <ele>2241.4</ele>
        <time>2021-08-12T10:25:51Z</time>
      </trkpt>
      <trkpt lat="45.50141" lon="6.7411">
        <ele>2241.4</ele>
        <time>2021-08-12T10:25:52Z</time>
      </trkpt>
      <trkpt lat="45.50141" lon="6.7411">
        <ele>2241.4</ele>
        <time>2021-08-12T10:25:53Z</time>
      </trkpt>
      <trkpt lat="45.50141" lon="6.7411">
        <ele>2241.4</ele>
        <time>2021-08-12T10:25:54Z</time>
      </trkpt>
      <trkpt lat="45.50141" lon="6.7411">
        <ele>2241.4</ele>
        <time>2021-08-12T10:25:55Z</time>
      </trkpt>
      <trkpt lat="45.50141" lon="6.7411">
        <ele>2241.4</ele>
        <time>2021-08-12T10:25:56Z</time>
      </trkpt>
      <trkpt lat="45.50141" lon="6.7411">
        <ele>2241.4</ele>
        <time>2021-08-12T10:25:57Z</time>
      </trkpt>
      <trkpt lat="45.50141" lon="6.7411">
        <ele>2241.4</ele>
        <time>2021-08-12T10:25:58Z</time>
      </trkpt>
      <trkpt lat="45.50141" lon="6.7411">
        <ele>2241.4</ele>
        <time>2021-08-12T10:25:59Z</time>
      </trkpt>
      <trkpt lat="45.50141" lon="6.7411">
        <ele>2241.4</ele>
        <time>2021-08-12T10:26:00Z</time>
      </trkpt>
      <trkpt lat="45.50141" lon="6.7411">
        <ele>2241.4</ele>
        <time>2021-08-12T10:26:01Z</time>
      </trkpt>
      <trkpt lat="45.50141" lon="6.7411">
        <ele>2241.4</ele>
        <time>2021-08-12T10:26:02Z</time>
      </trkpt>
      <trkpt lat="45.50141" lon="6.7411">
        <ele>2241.4</ele>
        <time>2021-08-12T10:26:03Z</time>
      </trkpt>
      <trkpt lat="45.50141" lon="6.7411">
        <ele>2241.4</ele>
        <time>2021-08-12T10:26:04Z</time>
      </trkpt>
      <trkpt lat="45.50141" lon="6.7411">
        <ele>2241.4</ele>
        <time>2021-08-12T10:26:05Z</time>
      </trkpt>
      <trkpt lat="45.50141" lon="6.7411">
        <ele>2241.4</ele>
        <time>2021-08-12T10:26:06Z</time>
      </trkpt>
      <trkpt lat="45.50141" lon="6.7411">
        <ele>2241.4</ele>
        <time>2021-08-12T10:26:07Z</time>
      </trkpt>
      <trkpt lat="45.50141" lon="6.7411">
        <ele>2241.4</ele>
        <time>2021-08-12T10:26:08Z</time>
      </trkpt>
      <trkpt lat="45.50141" lon="6.7411">
        <ele>2241.4</ele>
        <time>2021-08-12T10:26:09Z</time>
      </trkpt>
      <trkpt lat="45.50141" lon="6.7411">
        <ele>2241.4</ele>
        <time>2021-08-12T10:26:10Z</time>
      </trkpt>
      <trkpt lat="45.50141" lon="6.7411">
        <ele>2241.4</ele>
        <time>2021-08-12T10:26:11Z</time>
      </trkpt>
      <trkpt lat="45.50141" lon="6.7411">
        <ele>2241.4</ele>
        <time>2021-08-12T10:26:12Z</time>
      </trkpt>
      <trkpt lat="45.50141" lon="6.7411">
        <ele>2241.4</ele>
        <time>2021-08-12T10:26:13Z</time>
      </trkpt>
      <trkpt lat="45.50141" lon="6.7411">
        <ele>2241.4</ele>
        <time>2021-08-12T10:26:14Z</time>
      </trkpt>
      <trkpt lat="45.50141" lon="6.7411">
        <ele>2241.4</ele>
        <time>2021-08-12T10:26:15Z</time>
      </trkpt>
      <trkpt lat="45.50141" lon="6.7411">
        <ele>2241.4</ele>
        <time>2021-08-12T10:26:16Z</time>
      </trkpt>
      <trkpt lat="45.50141" lon="6.7411">
        <ele>2241.4</ele>
        <time>2021-08-12T10:26:17Z</time>
      </trkpt>
      <trkpt lat="45.50141" lon="6.7411">
        <ele>2241.4</ele>
        <time>2021-08-12T10:26:18Z</time>
      </trkpt>
      <trkpt lat="45.50141" lon="6.7411">
        <ele>2241.4</ele>
        <time>2021-08-12T10:26:19Z</time>
      </trkpt>
      <trkpt lat="45.50141" lon="6.7411">
        <ele>2241.4</ele>
        <time>2021-08-12T10:26:20Z</time>
      </trkpt>
      <trkpt lat="45.50141" lon="6.7411">
        <ele>2241.4</ele>
        <time>2021-08-12T10:26:21Z</time>
      </trkpt>
      <trkpt lat="45.50141" lon="6.7411">
        <ele>2241.4</ele>
        <time>2021-08-12T10:26:22Z</time>
      </trkpt>
      <trkpt lat="45.50141" lon="6.7411">
        <ele>2241.4</ele>
        <time>2021-08-12T10:26:23Z</time>
      </trkpt>
      <trkpt lat="45.50141" lon="6.7411">
        <ele>2241.4</ele>
        <time>2021-08-12T10:26:24Z</time>
      </trkpt>
      <trkpt lat="45.50141" lon="6.7411">
        <ele>2241.4</ele>
        <time>2021-08-12T10:26:25Z</time>
      </trkpt>
      <trkpt lat="45.50141" lon="6.7411">
        <ele>2241.4</ele>
        <time>2021-08-12T10:26:26Z</time>
      </trkpt>
      <trkpt lat="45.50141" lon="6.7411">
        <ele>2241.4</ele>
        <time>2021-08-12T10:26:27Z</time>
      </trkpt>
      <trkpt lat="45.50141" lon="6.7411">
        <ele>2241.4</ele>
        <time>2021-08-12T10:26:28Z</time>
      </trkpt>
      <trkpt lat="45.50141" lon="6.7411">
        <ele>2241.4</ele>
        <time>2021-08-12T10:26:29Z</time>
      </trkpt>
      <trkpt lat="45.50141" lon="6.7411">
        <ele>2241.4</ele>
        <time>2021-08-12T10:26:30Z</time>
      </trkpt>
      <trkpt lat="45.50141" lon="6.7411">
        <ele>2241.4</ele>
        <time>2021-08-12T10:26:31Z</time>
      </trkpt>
      <trkpt lat="45.50141" lon="6.7411">
        <ele>2241.4</ele>
        <time>2021-08-12T10:26:32Z</time>
      </trkpt>
      <trkpt lat="45.50141" lon="6.7411">
        <ele>2241.4</ele>
        <time>2021-08-12T10:26:33Z</time>
      </trkpt>
      <trkpt lat="45.50141" lon="6.7411">
        <ele>2241.4</ele>
        <time>2021-08-12T10:26:34Z</time>
      </trkpt>
      <trkpt lat="45.50141" lon="6.7411">
        <ele>2241.4</ele>
        <time>2021-08-12T10:26:35Z</time>
      </trkpt>
      <trkpt lat="45.50141" lon="6.7411">
        <ele>2241.4</ele>
        <time>2021-08-12T10:26:36Z</time>
      </trkpt>
      <trkpt lat="45.50141" lon="6.7411">
        <ele>2241.4</ele>
        <time>2021-08-12T10:26:37Z</time>
      </trkpt>
      <trkpt lat="45.50141" lon="6.7411">
        <ele>2241.4</ele>
        <time>2021-08-12T10:26:38Z</time>
      </trkpt>
      <trkpt lat="45.50141" lon="6.7411">
        <ele>2241.4</ele>
        <time>2021-08-12T10:26:39Z</time>
      </trkpt>
      <trkpt lat="45.50141" lon="6.7411">
        <ele>2241.4</ele>
        <time>2021-08-12T10:26:40Z</time>
      </trkpt>
      <trkpt lat="45.50141" lon="6.7411">
        <ele>2241.4</ele>
        <time>2021-08-12T10:26:41Z</time>
      </trkpt>
      <trkpt lat="45.50141" lon="6.7411">
        <ele>2241.4</ele>
        <time>2021-08-12T10:26:42Z</time>
      </trkpt>
      <trkpt lat="45.50141" lon="6.7411">
        <ele>2241.4</ele>
        <time>2021-08-12T10:26:43Z</time>
      </trkpt>
      <trkpt lat="45.50141" lon="6.7411">
        <ele>2241.4</ele>
        <time>2021-08-12T10:26:44Z</time>
      </trkpt>
      <trkpt lat="45.50141" lon="6.7411">
        <ele>2241.4</ele>
        <time>2021-08-12T10:26:45Z</time>
      </trkpt>
      <trkpt lat="45.50141" lon="6.7411">
        <ele>2241.4</ele>
        <time>2021-08-12T10:26:46Z</time>
      </trkpt>
      <trkpt lat="45.50141" lon="6.7411">
        <ele>2241.4</ele>
        <time>2021-08-12T10:26:47Z</time>
      </trkpt>
      <trkpt lat="45.50141" lon="6.7411">
        <ele>2241.4</ele>
        <time>2021-08-12T10:26:48Z</time>
      </trkpt>
      <trkpt lat="45.50141" lon="6.7411">
        <ele>2241.4</ele>
        <time>2021-08-12T10:26:49Z</time>
      </trkpt>
      <trkpt lat="45.50141" lon="6.7411">
        <ele>2241.4</ele>
        <time>2021-08-12T10:26:50Z</time>
      </trkpt>
      <trkpt lat="45.50141" lon="6.7411">
        <ele>2241.4</ele>
        <time>2021-08-12T10:26:51Z</time>
      </trkpt>
      <trkpt lat="45.50141" lon="6.7411">
        <ele>2241.4</ele>
        <time>2021-08-12T10:26:52Z</time>
      </trkpt>
      <trkpt lat="45.50141" lon="6.7411">
        <ele>2241.4</ele>
        <time>2021-08-12T10:26:53Z</time>
      </trkpt>
      <trkpt lat="45.50141" lon="6.7411">
        <ele>2241.4</ele>
        <time>2021-08-12T10:26:54Z</time>
      </trkpt>
      <trkpt lat="45.50141" lon="6.7411">
        <ele>2241.4</ele>
        <time>2021-08-12T10:26:55Z</time>
      </trkpt>
      <trkpt lat="45.50141" lon="6.7411">
        <ele>2241.4</ele>
        <time>2021-08-12T10:26:56Z</time>
      </trkpt>
      <trkpt lat="45.50141" lon="6.7411">
        <ele>2241.4</ele>
        <time>2021-08-12T10:26:57Z</time>
      </trkpt>
      <trkpt lat="45.50141" lon="6.7411">
        <ele>2241.4</ele>
        <time>2021-08-12T10:26:58Z</time>
      </trkpt>
      <trkpt lat="45.50141" lon="6.7411">
        <ele>2241.4</ele>
        <time>2021-08-12T10:26:59Z</time>
      </trkpt>
      <trkpt lat="45.50141" lon="6.7411">
        <ele>2241.4</ele>
        <time>2021-08-12T10:27:00Z</time>
      </trkpt>
      <trkpt lat="45.50141" lon="6.7411">
        <ele>2241.4</ele>
        <time>2021-08-12T10:27:01Z</time>
      </trkpt>
      <trkpt lat="45.50141" lon="6.7411">
        <ele>2241.4</ele>
        <time>2021-08-12T10:27:02Z</time>
      </trkpt>
      <trkpt lat="45.50141" lon="6.7411">
        <ele>2241.4</ele>
        <time>2021-08-12T10:27:03Z</time>
      </trkpt>
      <trkpt lat="45.50141" lon="6.7411">
        <ele>2241.4</ele>
        <time>2021-08-12T10:27:04Z</time>
      </trkpt>
      <trkpt lat="45.50141" lon="6.7411">
        <ele>2241.4</ele>
        <time>2021-08-12T10:27:05Z</time>
      </trkpt>
      <trkpt lat="45.50141" lon="6.7411">
        <ele>2241.4</ele>
        <time>2021-08-12T10:27:06Z</time>
      </trkpt>
      <trkpt lat="45.50141" lon="6.7411">
        <ele>2241.4</ele>
        <time>2021-08-12T10:27:07Z</time>
      </trkpt>
      <trkpt lat="45.50141" lon="6.7411">
        <ele>2241.4</ele>
        <time>2021-08-12T10:27:08Z</time>
      </trkpt>
      <trkpt lat="45.50141" lon="6.7411">
        <ele>2241.4</ele>
        <time>2021-08-12T10:27:09Z</time>
      </trkpt>
      <trkpt lat="45.50141" lon="6.7411">
        <ele>2241.4</ele>
        <time>2021-08-12T10:27:10Z</time>
      </trkpt>
      <trkpt lat="45.50141" lon="6.7411">
        <ele>2241.4</ele>
        <time>2021-08-12T10:27:11Z</time>
      </trkpt>
      <trkpt lat="45.50141" lon="6.7411">
        <ele>2241.4</ele>
        <time>2021-08-12T10:27:12Z</time>
      </trkpt>
      <trkpt lat="45.50141" lon="6.7411">
        <ele>2241.4</ele>
        <time>2021-08-12T10:27:13Z</time>
      </trkpt>
      <trkpt lat="45.50141" lon="6.7411">
        <ele>2241.4</ele>
        <time>2021-08-12T10:27:14Z</time>
      </trkpt>
      <trkpt lat="45.50141" lon="6.7411">
        <ele>2241.4</ele>
        <time>2021-08-12T10:27:15Z</time>
      </trkpt>
      <trkpt lat="45.50141" lon="6.7411">
        <ele>2241.4</ele>
        <time>2021-08-12T10:27:16Z</time>
      </trkpt>
      <trkpt lat="45.50141" lon="6.7411">
        <ele>2241.4</ele>
        <time>2021-08-12T10:27:17Z</time>
      </trkpt>
      <trkpt lat="45.50141" lon="6.7411">
        <ele>2241.4</ele>
        <time>2021-08-12T10:27:18Z</time>
      </trkpt>
      <trkpt lat="45.50141" lon="6.7411">
        <ele>2241.4</ele>
        <time>2021-08-12T10:27:19Z</time>
      </trkpt>
      <trkpt lat="45.50141" lon="6.7411">
        <ele>2241.4</ele>
        <time>2021-08-12T10:27:20Z</time>
      </trkpt>
      <trkpt lat="45.50141" lon="6.7411">
        <ele>2241.4</ele>
        <time>2021-08-12T10:27:21Z</time>
      </trkpt>
      <trkpt lat="45.50141" lon="6.7411">
        <ele>2241.4</ele>
        <time>2021-08-12T10:27:22Z</time>
      </trkpt>
      <trkpt lat="45.50141" lon="6.7411">
        <ele>2241.4</ele>
        <time>2021-08-12T10:27:23Z</time>
      </trkpt>
      <trkpt lat="45.50141" lon="6.7411">
        <ele>2241.4</ele>
        <time>2021-08-12T10:27:24Z</time>
      </trkpt>
      <trkpt lat="45.50141" lon="6.7411">
        <ele>2241.4</ele>
        <time>2021-08-12T10:27:25Z</time>
      </trkpt>
      <trkpt lat="45.50141" lon="6.7411">
        <ele>2241.4</ele>
        <time>2021-08-12T10:27:26Z</time>
      </trkpt>
      <trkpt lat="45.50141" lon="6.7411">
        <ele>2241.4</ele>
        <time>2021-08-12T10:27:27Z</time>
      </trkpt>
      <trkpt lat="45.50141" lon="6.7411">
        <ele>2241.4</ele>
        <time>2021-08-12T10:27:28Z</time>
      </trkpt>
      <trkpt lat="45.50141" lon="6.7411">
        <ele>2241.4</ele>
        <time>2021-08-12T10:27:29Z</time>
      </trkpt>
      <trkpt lat="45.50141" lon="6.7411">
        <ele>2241.4</ele>
        <time>2021-08-12T10:27:30Z</time>
      </trkpt>
      <trkpt lat="45.50141" lon="6.7411">
        <ele>2241.4</ele>
        <time>2021-08-12T10:27:31Z</time>
      </trkpt>
      <trkpt lat="45.50141" lon="6.7411">
        <ele>2241.4</ele>
        <time>2021-08-12T10:27:32Z</time>
      </trkpt>
      <trkpt lat="45.50141" lon="6.7411">
        <ele>2241.4</ele>
        <time>2021-08-12T10:27:33Z</time>
      </trkpt>
      <trkpt lat="45.50141" lon="6.7411">
        <ele>2241.4</ele>
        <time>2021-08-12T10:27:34Z</time>
      </trkpt>
      <trkpt lat="45.50141" lon="6.7411">
        <ele>2241.4</ele>
        <time>2021-08-12T10:27:35Z</time>
      </trkpt>
      <trkpt lat="45.50141" lon="6.7411">
        <ele>2241.4</ele>
        <time>2021-08-12T10:27:36Z</time>
      </trkpt>
      <trkpt lat="45.50141" lon="6.7411">
        <ele>2241.4</ele>
        <time>2021-08-12T10:27:37Z</time>
      </trkpt>
      <trkpt lat="45.50141" lon="6.7411">
        <ele>2241.4</ele>
        <time>2021-08-12T10:27:38Z</time>
      </trkpt>
      <trkpt lat="45.50141" lon="6.7411">
        <ele>2241.4</ele>
        <time>2021-08-12T10:27:39Z</time>
      </trkpt>
      <trkpt lat="45.50141" lon="6.7411">
        <ele>2241.4</ele>
        <time>2021-08-12T10:27:40Z</time>
      </trkpt>
      <trkpt lat="45.50141" lon="6.7411">
        <ele>2241.4</ele>
        <time>2021-08-12T10:27:41Z</time>
      </trkpt>
      <trkpt lat="45.50141" lon="6.7411">
        <ele>2241.4</ele>
        <time>2021-08-12T10:27:42Z</time>
      </trkpt>
      <trkpt lat="45.50141" lon="6.7411">
        <ele>2241.4</ele>
        <time>2021-08-12T10:27:43Z</time>
      </trkpt>
      <trkpt lat="45.50141" lon="6.7411">
        <ele>2241.4</ele>
        <time>2021-08-12T10:27:44Z</time>
      </trkpt>
      <trkpt lat="45.50141" lon="6.7411">
        <ele>2241.4</ele>
        <time>2021-08-12T10:27:45Z</time>
      </trkpt>
      <trkpt lat="45.50141" lon="6.7411">
        <ele>2241.4</ele>
        <time>2021-08-12T10:27:46Z</time>
      </trkpt>
      <trkpt lat="45.50141" lon="6.7411">
        <ele>2241.4</ele>
        <time>2021-08-12T10:27:47Z</time>
      </trkpt>
      <trkpt lat="45.50141" lon="6.7411">
        <ele>2241.4</ele>
        <time>2021-08-12T10:27:48Z</time>
      </trkpt>
      <trkpt lat="45.50141" lon="6.7411">
        <ele>2241.4</ele>
        <time>2021-08-12T10:27:49Z</time>
      </trkpt>
      <trkpt lat="45.50141" lon="6.7411">
        <ele>2241.4</ele>
        <time>2021-08-12T10:27:50Z</time>
      </trkpt>
      <trkpt lat="45.50141" lon="6.7411">
        <ele>2241.4</ele>
        <time>2021-08-12T10:27:51Z</time>
      </trkpt>
      <trkpt lat="45.50141" lon="6.7411">
        <ele>2241.4</ele>
        <time>2021-08-12T10:27:52Z</time>
      </trkpt>
      <trkpt lat="45.50141" lon="6.7411">
        <ele>2241.4</ele>
        <time>2021-08-12T10:27:53Z</time>
      </trkpt>
      <trkpt lat="45.50141" lon="6.7411">
        <ele>2241.4</ele>
        <time>2021-08-12T10:27:54Z</time>
      </trkpt>
      <trkpt lat="45.50141" lon="6.7411">
        <ele>2241.4</ele>
        <time>2021-08-12T10:27:55Z</time>
      </trkpt>
      <trkpt lat="45.50141" lon="6.7411">
        <ele>2241.4</ele>
        <time>2021-08-12T10:27:56Z</time>
      </trkpt>
      <trkpt lat="45.50141" lon="6.7411">
        <ele>2241.4</ele>
        <time>2021-08-12T10:27:57Z</time>
      </trkpt>
      <trkpt lat="45.50141" lon="6.7411">
        <ele>2241.4</ele>
        <time>2021-08-12T10:27:58Z</time>
      </trkpt>
      <trkpt lat="45.50141" lon="6.7411">
        <ele>2241.4</ele>
        <time>2021-08-12T10:27:59Z</time>
      </trkpt>
      <trkpt lat="45.50141" lon="6.7411">
        <ele>2241.4</ele>
        <time>2021-08-12T10:28:00Z</time>
      </trkpt>
      <trkpt lat="45.50141" lon="6.7411">
        <ele>2241.4</ele>
        <time>2021-08-12T10:28:01Z</time>
      </trkpt>
      <trkpt lat="45.50141" lon="6.7411">
        <ele>2241.4</ele>
        <time>2021-08-12T10:28:02Z</time>
      </trkpt>
      <trkpt lat="45.50141" lon="6.7411">
        <ele>2241.4</ele>
        <time>2021-08-12T10:28:03Z</time>
      </trkpt>
      <trkpt lat="45.50141" lon="6.7411">
        <ele>2241.4</ele>
        <time>2021-08-12T10:28:04Z</time>
      </trkpt>
      <trkpt lat="45.50141" lon="6.7411">
        <ele>2241.4</ele>
        <time>2021-08-12T10:28:05Z</time>
      </trkpt>
      <trkpt lat="45.50141" lon="6.7411">
        <ele>2241.4</ele>
        <time>2021-08-12T10:28:06Z</time>
      </trkpt>
      <trkpt lat="45.50141" lon="6.7411">
        <ele>2241.4</ele>
        <time>2021-08-12T10:28:07Z</time>
      </trkpt>
      <trkpt lat="45.50141" lon="6.7411">
        <ele>2241.4</ele>
        <time>2021-08-12T10:28:08Z</time>
      </trkpt>
      <trkpt lat="45.50141" lon="6.7411">
        <ele>2241.4</ele>
        <time>2021-08-12T10:28:09Z</time>
      </trkpt>
      <trkpt lat="45.50141" lon="6.7411">
        <ele>2241.4</ele>
        <time>2021-08-12T10:28:10Z</time>
      </trkpt>
      <trkpt lat="45.50141" lon="6.7411">
        <ele>2241.4</ele>
        <time>2021-08-12T10:28:11Z</time>
      </trkpt>
      <trkpt lat="45.50141" lon="6.7411">
        <ele>2241.4</ele>
        <time>2021-08-12T10:28:12Z</time>
      </trkpt>
      <trkpt lat="45.50141" lon="6.7411">
        <ele>2241.4</ele>
        <time>2021-08-12T10:28:13Z</time>
      </trkpt>
      <trkpt lat="45.50141" lon="6.7411">
        <ele>2241.4</ele>
        <time>2021-08-12T10:28:14Z</time>
      </trkpt>
      <trkpt lat="45.50141" lon="6.7411">
        <ele>2241.4</ele>
        <time>2021-08-12T10:28:15Z</time>
      </trkpt>
      <trkpt lat="45.50141" lon="6.7411">
        <ele>2241.4</ele>
        <time>2021-08-12T10:28:16Z</time>
      </trkpt>
      <trkpt lat="45.50141" lon="6.7411">
        <ele>2241.4</ele>
        <time>2021-08-12T10:28:17Z</time>
      </trkpt>
      <trkpt lat="45.50141" lon="6.7411">
        <ele>2241.4</ele>
        <time>2021-08-12T10:28:18Z</time>
      </trkpt>
      <trkpt lat="45.50141" lon="6.7411">
        <ele>2241.4</ele>
        <time>2021-08-12T10:28:19Z</time>
      </trkpt>
      <trkpt lat="45.50141" lon="6.7411">
        <ele>2241.4</ele>
        <time>2021-08-12T10:28:20Z</time>
      </trkpt>
      <trkpt lat="45.50141" lon="6.7411">
        <ele>2241.4</ele>
        <time>2021-08-12T10:28:21Z</time>
      </trkpt>
      <trkpt lat="45.50141" lon="6.7411">
        <ele>2241.4</ele>
        <time>2021-08-12T10:28:22Z</time>
      </trkpt>
      <trkpt lat="45.50141" lon="6.7411">
        <ele>2241.4</ele>
        <time>2021-08-12T10:28:23Z</time>
      </trkpt>
      <trkpt lat="45.50141" lon="6.7411">
        <ele>2241.4</ele>
        <time>2021-08-12T10:28:24Z</time>
      </trkpt>
      <trkpt lat="45.50141" lon="6.7411">
        <ele>2241.4</ele>
        <time>2021-08-12T10:28:25Z</time>
      </trkpt>
      <trkpt lat="45.50141" lon="6.7411">
        <ele>2241.4</ele>
        <time>2021-08-12T10:28:26Z</time>
      </trkpt>
      <trkpt lat="45.50141" lon="6.7411">
        <ele>2241.4</ele>
        <time>2021-08-12T10:28:27Z</time>
      </trkpt>
      <trkpt lat="45.50141" lon="6.7411">
        <ele>2241.4</ele>
        <time>2021-08-12T10:28:28Z</time>
      </trkpt>
      <trkpt lat="45.50141" lon="6.7411">
        <ele>2241.4</ele>
        <time>2021-08-12T10:28:29Z</time>
      </trkpt>
      <trkpt lat="45.50141" lon="6.7411">
        <ele>2241.4</ele>
        <time>2021-08-12T10:28:30Z</time>
      </trkpt>
      <trkpt lat="45.50141" lon="6.7411">
        <ele>2241.4</ele>
        <time>2021-08-12T10:28:31Z</time>
      </trkpt>
      <trkpt lat="45.50141" lon="6.7411">
        <ele>2241.4</ele>
        <time>2021-08-12T10:28:32Z</time>
      </trkpt>
      <trkpt lat="45.50141" lon="6.7411">
        <ele>2241.4</ele>
        <time>2021-08-12T10:28:33Z</time>
      </trkpt>
      <trkpt lat="45.50141" lon="6.7411">
        <ele>2241.4</ele>
        <time>2021-08-12T10:28:34Z</time>
      </trkpt>
      <trkpt lat="45.50141" lon="6.7411">
        <ele>2241.4</ele>
        <time>2021-08-12T10:28:35Z</time>
      </trkpt>
      <trkpt lat="45.50141" lon="6.7411">
        <ele>2241.4</ele>
        <time>2021-08-12T10:28:36Z</time>
      </trkpt>
      <trkpt lat="45.50141" lon="6.7411">
        <ele>2241.4</ele>
        <time>2021-08-12T10:28:37Z</time>
      </trkpt>
      <trkpt lat="45.50141" lon="6.7411">
        <ele>2241.4</ele>
        <time>2021-08-12T10:28:38Z</time>
      </trkpt>
      <trkpt lat="45.50141" lon="6.7411">
        <ele>2241.4</ele>
        <time>2021-08-12T10:28:39Z</time>
      </trkpt>
      <trkpt lat="45.50141" lon="6.7411">
        <ele>2241.4</ele>
        <time>2021-08-12T10:28:40Z</time>
      </trkpt>
      <trkpt lat="45.50141" lon="6.7411">
        <ele>2241.4</ele>
        <time>2021-08-12T10:28:41Z</time>
      </trkpt>
      <trkpt lat="45.50141" lon="6.7411">
        <ele>2241.4</ele>
        <time>2021-08-12T10:28:42Z</time>
      </trkpt>
      <trkpt lat="45.50141" lon="6.7411">
        <ele>2241.4</ele>
        <time>2021-08-12T10:28:43Z</time>
      </trkpt>
      <trkpt lat="45.50141" lon="6.7411">
        <ele>2241.4</ele>
        <time>2021-08-12T10:28:44Z</time>
      </trkpt>
      <trkpt lat="45.50141" lon="6.7411">
        <ele>2241.4</ele>
        <time>2021-08-12T10:28:45Z</time>
      </trkpt>
      <trkpt lat="45.50141" lon="6.7411">
        <ele>2241.4</ele>
        <time>2021-08-12T10:28:46Z</time>
      </trkpt>
      <trkpt lat="45.50141" lon="6.7411">
        <ele>2241.4</ele>
        <time>2021-08-12T10:28:47Z</time>
      </trkpt>
      <trkpt lat="45.50141" lon="6.7411">
        <ele>2241.4</ele>
        <time>2021-08-12T10:28:48Z</time>
      </trkpt>
      <trkpt lat="45.50141" lon="6.7411">
        <ele>2241.4</ele>
        <time>2021-08-12T10:28:49Z</time>
      </trkpt>
      <trkpt lat="45.50141" lon="6.7411">
        <ele>2241.4</ele>
        <time>2021-08-12T10:28:50Z</time>
      </trkpt>
      <trkpt lat="45.50141" lon="6.7411">
        <ele>2241.4</ele>
        <time>2021-08-12T10:28:51Z</time>
      </trkpt>
      <trkpt lat="45.50141" lon="6.7411">
        <ele>2241.4</ele>
        <time>2021-08-12T10:28:52Z</time>
      </trkpt>
      <trkpt lat="45.50141" lon="6.7411">
        <ele>2241.4</ele>
        <time>2021-08-12T10:28:53Z</time>
      </trkpt>
      <trkpt lat="45.50141" lon="6.7411">
        <ele>2241.4</ele>
        <time>2021-08-12T10:28:54Z</time>
      </trkpt>
      <trkpt lat="45.50141" lon="6.7411">
        <ele>2241.4</ele>
        <time>2021-08-12T10:28:55Z</time>
      </trkpt>
      <trkpt lat="45.50141" lon="6.7411">
        <ele>2241.4</ele>
        <time>2021-08-12T10:28:56Z</time>
      </trkpt>
      <trkpt lat="45.50141" lon="6.7411">
        <ele>2241.4</ele>
        <time>2021-08-12T10:28:57Z</time>
      </trkpt>
      <trkpt lat="45.50141" lon="6.7411">
        <ele>2241.4</ele>
        <time>2021-08-12T10:28:58Z</time>
      </trkpt>
      <trkpt lat="45.50141" lon="6.7411">
        <ele>2241.4</ele>
        <time>2021-08-12T10:28:59Z</time>
      </trkpt>
      <trkpt lat="45.50141" lon="6.7411">
        <ele>2241.4</ele>
        <time>2021-08-12T10:29:00Z</time>
      </trkpt>
      <trkpt lat="45.50141" lon="6.7411">
        <ele>2241.4</ele>
        <time>2021-08-12T10:29:01Z</time>
      </trkpt>
      <trkpt lat="45.50141" lon="6.7411">
        <ele>2241.4</ele>
        <time>2021-08-12T10:29:02Z</time>
      </trkpt>
      <trkpt lat="45.50141" lon="6.7411">
        <ele>2241.4</ele>
        <time>2021-08-12T10:29:03Z</time>
      </trkpt>
      <trkpt lat="45.50141" lon="6.7411">
        <ele>2241.4</ele>
        <time>2021-08-12T10:29:04Z</time>
      </trkpt>
      <trkpt lat="45.50141" lon="6.7411">
        <ele>2241.4</ele>
        <time>2021-08-12T10:29:05Z</time>
      </trkpt>
      <trkpt lat="45.50141" lon="6.7411">
        <ele>2241.4</ele>
        <time>2021-08-12T10:29:06Z</time>
      </trkpt>
      <trkpt lat="45.50141" lon="6.7411">
        <ele>2241.4</ele>
        <time>2021-08-12T10:29:07Z</time>
      </trkpt>
      <trkpt lat="45.50141" lon="6.7411">
        <ele>2241.4</ele>
        <time>2021-08-12T10:29:08Z</time>
      </trkpt>
      <trkpt lat="45.50141" lon="6.7411">
        <ele>2241.4</ele>
        <time>2021-08-12T10:29:09Z</time>
      </trkpt>
      <trkpt lat="45.50141" lon="6.7411">
        <ele>2241.4</ele>
        <time>2021-08-12T10:29:10Z</time>
      </trkpt>
      <trkpt lat="45.50141" lon="6.7411">
        <ele>2241.4</ele>
        <time>2021-08-12T10:29:11Z</time>
      </trkpt>
      <trkpt lat="45.50141" lon="6.7411">
        <ele>2241.4</ele>
        <time>2021-08-12T10:29:12Z</time>
      </trkpt>
      <trkpt lat="45.50141" lon="6.7411">
        <ele>2241.4</ele>
        <time>2021-08-12T10:29:13Z</time>
      </trkpt>
      <trkpt lat="45.50141" lon="6.7411">
        <ele>2241.4</ele>
        <time>2021-08-12T10:29:14Z</time>
      </trkpt>
      <trkpt lat="45.50141" lon="6.7411">
        <ele>2241.4</ele>
        <time>2021-08-12T10:29:15Z</time>
      </trkpt>
      <trkpt lat="45.50141" lon="6.7411">
        <ele>2241.4</ele>
        <time>2021-08-12T10:29:16Z</time>
      </trkpt>
      <trkpt lat="45.50141" lon="6.7411">
        <ele>2241.4</ele>
        <time>2021-08-12T10:29:17Z</time>
      </trkpt>
      <trkpt lat="45.50141" lon="6.7411">
        <ele>2241.4</ele>
        <time>2021-08-12T10:29:18Z</time>
      </trkpt>
      <trkpt lat="45.50141" lon="6.7411">
        <ele>2241.4</ele>
        <time>2021-08-12T10:29:19Z</time>
      </trkpt>
      <trkpt lat="45.50141" lon="6.7411">
        <ele>2241.4</ele>
        <time>2021-08-12T10:29:20Z</time>
      </trkpt>
      <trkpt lat="45.50141" lon="6.7411">
        <ele>2241.4</ele>
        <time>2021-08-12T10:29:21Z</time>
      </trkpt>
      <trkpt lat="45.50141" lon="6.7411">
        <ele>2241.4</ele>
        <time>2021-08-12T10:29:22Z</time>
      </trkpt>
      <trkpt lat="45.50141" lon="6.7411">
        <ele>2241.4</ele>
        <time>2021-08-12T10:29:23Z</time>
      </trkpt>
      <trkpt lat="45.50141" lon="6.7411">
        <ele>2241.4</ele>
        <time>2021-08-12T10:29:24Z</time>
      </trkpt>
      <trkpt lat="45.50141" lon="6.7411">
        <ele>2241.4</ele>
        <time>2021-08-12T10:29:25Z</time>
      </trkpt>
      <trkpt lat="45.50141" lon="6.7411">
        <ele>2241.4</ele>
        <time>2021-08-12T10:29:26Z</time>
      </trkpt>
      <trkpt lat="45.50141" lon="6.7411">
        <ele>2241.4</ele>
        <time>2021-08-12T10:29:27Z</time>
      </trkpt>
      <trkpt lat="45.50141" lon="6.7411">
        <ele>2241.4</ele>
        <time>2021-08-12T10:29:28Z</time>
      </trkpt>
      <trkpt lat="45.50141" lon="6.7411">
        <ele>2241.4</ele>
        <time>2021-08-12T10:29:29Z</time>
      </trkpt>
      <trkpt lat="45.50141" lon="6.7411">
        <ele>2241.4</ele>
        <time>2021-08-12T10:29:30Z</time>
      </trkpt>
      <trkpt lat="45.50141" lon="6.7411">
        <ele>2241.4</ele>
        <time>2021-08-12T10:29:31Z</time>
      </trkpt>
      <trkpt lat="45.50141" lon="6.7411">
        <ele>2241.4</ele>
        <time>2021-08-12T10:29:32Z</time>
      </trkpt>
      <trkpt lat="45.50141" lon="6.7411">
        <ele>2241.4</ele>
        <time>2021-08-12T10:29:33Z</time>
      </trkpt>
      <trkpt lat="45.50141" lon="6.7411">
        <ele>2241.4</ele>
        <time>2021-08-12T10:29:34Z</time>
      </trkpt>
      <trkpt lat="45.50141" lon="6.7411">
        <ele>2241.4</ele>
        <time>2021-08-12T10:29:35Z</time>
      </trkpt>
      <trkpt lat="45.50141" lon="6.7411">
        <ele>2241.4</ele>
        <time>2021-08-12T10:29:36Z</time>
      </trkpt>
      <trkpt lat="45.50141" lon="6.7411">
        <ele>2241.4</ele>
        <time>2021-08-12T10:29:37Z</time>
      </trkpt>
      <trkpt lat="45.50141" lon="6.7411">
        <ele>2241.4</ele>
        <time>2021-08-12T10:29:38Z</time>
      </trkpt>
      <trkpt lat="45.50141" lon="6.7411">
        <ele>2241.4</ele>
        <time>2021-08-12T10:29:39Z</time>
      </trkpt>
      <trkpt lat="45.50141" lon="6.7411">
        <ele>2241.4</ele>
        <time>2021-08-12T10:29:40Z</time>
      </trkpt>
      <trkpt lat="45.50141" lon="6.7411">
        <ele>2241.4</ele>
        <time>2021-08-12T10:29:41Z</time>
      </trkpt>
      <trkpt lat="45.50141" lon="6.7411">
        <ele>2241.4</ele>
        <time>2021-08-12T10:29:42Z</time>
      </trkpt>
      <trkpt lat="45.50141" lon="6.7411">
        <ele>2241.4</ele>
        <time>2021-08-12T10:29:43Z</time>
      </trkpt>
      <trkpt lat="45.50141" lon="6.7411">
        <ele>2241.4</ele>
        <time>2021-08-12T10:29:44Z</time>
      </trkpt>
      <trkpt lat="45.50141" lon="6.7411">
        <ele>2241.4</ele>
        <time>2021-08-12T10:29:45Z</time>
      </trkpt>
      <trkpt lat="45.50141" lon="6.7411">
        <ele>2241.4</ele>
        <time>2021-08-12T10:29:46Z</time>
      </trkpt>
      <trkpt lat="45.50141" lon="6.7411">
        <ele>2241.4</ele>
        <time>2021-08-12T10:29:47Z</time>
      </trkpt>
      <trkpt lat="45.50141" lon="6.7411">
        <ele>2241.4</ele>
        <time>2021-08-12T10:29:48Z</time>
      </trkpt>
      <trkpt lat="45.50141" lon="6.7411">
        <ele>2241.4</ele>
        <time>2021-08-12T10:29:49Z</time>
      </trkpt>
      <trkpt lat="45.50141" lon="6.7411">
        <ele>2241.4</ele>
        <time>2021-08-12T10:29:50Z</time>
      </trkpt>
      <trkpt lat="45.50141" lon="6.7411">
        <ele>2241.4</ele>
        <time>2021-08-12T10:29:51Z</time>
      </trkpt>
      <trkpt lat="45.50141" lon="6.7411">
        <ele>2241.4</ele>
        <time>2021-08-12T10:29:52Z</time>
      </trkpt>
      <trkpt lat="45.50141" lon="6.7411">
        <ele>2241.4</ele>
        <time>2021-08-12T10:29:53Z</time>
      </trkpt>
      <trkpt lat="45.50141" lon="6.7411">
        <ele>2241.4</ele>
        <time>2021-08-12T10:29:54Z</time>
      </trkpt>
      <trkpt lat="45.50141" lon="6.7411">
        <ele>2241.4</ele>
        <time>2021-08-12T10:29:55Z</time>
      </trkpt>
      <trkpt lat="45.50141" lon="6.7411">
        <ele>2241.4</ele>
        <time>2021-08-12T10:29:56Z</time>
      </trkpt>
      <trkpt lat="45.50141" lon="6.7411">
        <ele>2241.4</ele>
        <time>2021-08-12T10:29:57Z</time>
      </trkpt>
      <trkpt lat="45.50141" lon="6.7411">
        <ele>2241.4</ele>
        <time>2021-08-12T10:29:58Z</time>
      </trkpt>
      <trkpt lat="45.50141" lon="6.7411">
        <ele>2241.4</ele>
        <time>2021-08-12T10:29:59Z</time>
      </trkpt>
      <trkpt lat="45.50141" lon="6.7411">
        <ele>2241.4</ele>
        <time>2021-08-12T10:30:00Z</time>
      </trkpt>
      <trkpt lat="45.50141" lon="6.7411">
        <ele>2241.4</ele>
        <time>2021-08-12T10:30:01Z</time>
      </trkpt>
      <trkpt lat="45.50141" lon="6.7411">
        <ele>2241.4</ele>
        <time>2021-08-12T10:30:02Z</time>
      </trkpt>
      <trkpt lat="45.50141" lon="6.7411">
        <ele>2241.4</ele>
        <time>2021-08-12T10:30:03Z</time>
      </trkpt>
      <trkpt lat="45.50141" lon="6.7411">
        <ele>2241.4</ele>
        <time>2021-08-12T10:30:04Z</time>
      </trkpt>
      <trkpt lat="45.50141" lon="6.7411">
        <ele>2241.4</ele>
        <time>2021-08-12T10:30:05Z</time>
      </trkpt>
      <trkpt lat="45.50141" lon="6.7411">
        <ele>2241.4</ele>
        <time>2021-08-12T10:30:06Z</time>
      </trkpt>
      <trkpt lat="45.50141" lon="6.7411">
        <ele>2241.4</ele>
        <time>2021-08-12T10:30:07Z</time>
      </trkpt>
      <trkpt lat="45.50141" lon="6.7411">
        <ele>2241.4</ele>
        <time>2021-08-12T10:30:08Z</time>
      </trkpt>
      <trkpt lat="45.50141" lon="6.7411">
        <ele>2241.4</ele>
        <time>2021-08-12T10:30:09Z</time>
      </trkpt>
      <trkpt lat="45.50141" lon="6.7411">
        <ele>2241.4</ele>
        <time>2021-08-12T10:30:10Z</time>
      </trkpt>
      <trkpt lat="45.50141" lon="6.7411">
        <ele>2241.4</ele>
        <time>2021-08-12T10:30:11Z</time>
      </trkpt>
      <trkpt lat="45.50141" lon="6.7411">
        <ele>2241.4</ele>
        <time>2021-08-12T10:30:12Z</time>
      </trkpt>
      <trkpt lat="45.50141" lon="6.7411">
        <ele>2241.4</ele>
        <time>2021-08-12T10:30:13Z</time>
      </trkpt>
      <trkpt lat="45.50141" lon="6.7411">
        <ele>2241.4</ele>
        <time>2021-08-12T10:30:14Z</time>
      </trkpt>
      <trkpt lat="45.50141" lon="6.7411">
        <ele>2241.4</ele>
        <time>2021-08-12T10:30:15Z</time>
      </trkpt>
      <trkpt lat="45.50141" lon="6.7411">
        <ele>2241.4</ele>
        <time>2021-08-12T10:30:16Z</time>
      </trkpt>
      <trkpt lat="45.50141" lon="6.7411">
        <ele>2241.4</ele>
        <time>2021-08-12T10:30:17Z</time>
      </trkpt>
      <trkpt lat="45.50141" lon="6.7411">
        <ele>2241.4</ele>
        <time>2021-08-12T10:30:18Z</time>
      </trkpt>
      <trkpt lat="45.50141" lon="6.7411">
        <ele>2241.4</ele>
        <time>2021-08-12T10:30:19Z</time>
      </trkpt>
      <trkpt lat="45.50141" lon="6.7411">
        <ele>2241.4</ele>
        <time>2021-08-12T10:30:20Z</time>
      </trkpt>
      <trkpt lat="45.50141" lon="6.7411">
        <ele>2241.4</ele>
        <time>2021-08-12T10:30:21Z</time>
      </trkpt>
      <trkpt lat="45.50141" lon="6.7411">
        <ele>2241.4</ele>
        <time>2021-08-12T10:30:22Z</time>
      </trkpt>
      <trkpt lat="45.50141" lon="6.7411">
        <ele>2241.4</ele>
        <time>2021-08-12T10:30:23Z</time>
      </trkpt>
      <trkpt lat="45.50141" lon="6.7411">
        <ele>2241.4</ele>
        <time>2021-08-12T10:30:24Z</time>
      </trkpt>
      <trkpt lat="45.50141" lon="6.7411">
        <ele>2241.4</ele>
        <time>2021-08-12T10:30:25Z</time>
      </trkpt>
      <trkpt lat="45.50141" lon="6.7411">
        <ele>2241.4</ele>
        <time>2021-08-12T10:30:26Z</time>
      </trkpt>
      <trkpt lat="45.50141" lon="6.7411">
        <ele>2241.4</ele>
        <time>2021-08-12T10:30:27Z</time>
      </trkpt>
      <trkpt lat="45.50141" lon="6.7411">
        <ele>2241.4</ele>
        <time>2021-08-12T10:30:28Z</time>
      </trkpt>
      <trkpt lat="45.50141" lon="6.7411">
        <ele>2241.4</ele>
        <time>2021-08-12T10:30:29Z</time>
      </trkpt>
      <trkpt lat="45.50141" lon="6.7411">
        <ele>2241.4</ele>
        <time>2021-08-12T10:30:30Z</time>
      </trkpt>
      <trkpt lat="45.50141" lon="6.7411">
        <ele>2241.4</ele>
        <time>2021-08-12T10:30:31Z</time>
      </trkpt>
      <trkpt lat="45.50141" lon="6.7411">
        <ele>2241.4</ele>
        <time>2021-08-12T10:30:32Z</time>
      </trkpt>
      <trkpt lat="45.50141" lon="6.7411">
        <ele>2241.4</ele>
        <time>2021-08-12T10:30:33Z</time>
      </trkpt>
      <trkpt lat="45.50141" lon="6.7411">
        <ele>2241.4</ele>
        <time>2021-08-12T10:30:34Z</time>
      </trkpt>
      <trkpt lat="45.50141" lon="6.7411">
        <ele>2241.4</ele>
        <time>2021-08-12T10:30:35Z</time>
      </trkpt>
      <trkpt lat="45.50141" lon="6.7411">
        <ele>2241.4</ele>
        <time>2021-08-12T10:30:36Z</time>
      </trkpt>
      <trkpt lat="45.50141" lon="6.7411">
        <ele>2241.4</ele>
        <time>2021-08-12T10:30:37Z</time>
      </trkpt>
      <trkpt lat="45.50141" lon="6.7411">
        <ele>2241.4</ele>
        <time>2021-08-12T10:30:38Z</time>
      </trkpt>
      <trkpt lat="45.50141" lon="6.7411">
        <ele>2241.4</ele>
        <time>2021-08-12T10:30:39Z</time>
      </trkpt>
      <trkpt lat="45.50141" lon="6.7411">
        <ele>2241.4</ele>
        <time>2021-08-12T10:30:40Z</time>
      </trkpt>
      <trkpt lat="45.50141" lon="6.7411">
        <ele>2241.4</ele>
        <time>2021-08-12T10:30:41Z</time>
      </trkpt>
      <trkpt lat="45.50141" lon="6.7411">
        <ele>2241.4</ele>
        <time>2021-08-12T10:30:42Z</time>
      </trkpt>
      <trkpt lat="45.50141" lon="6.7411">
        <ele>2241.4</ele>
        <time>2021-08-12T10:30:43Z</time>
      </trkpt>
      <trkpt lat="45.50141" lon="6.7411">
        <ele>2241.4</ele>
        <time>2021-08-12T10:30:44Z</time>
      </trkpt>
      <trkpt lat="45.50141" lon="6.7411">
        <ele>2241.4</ele>
        <time>2021-08-12T10:30:45Z</time>
      </trkpt>
      <trkpt lat="45.50141" lon="6.7411">
        <ele>2241.4</ele>
        <time>2021-08-12T10:30:46Z</time>
      </trkpt>
      <trkpt lat="45.50141" lon="6.7411">
        <ele>2241.4</ele>
        <time>2021-08-12T10:30:47Z</time>
      </trkpt>
      <trkpt lat="45.50141" lon="6.7411">
        <ele>2241.4</ele>
        <time>2021-08-12T10:30:48Z</time>
      </trkpt>
      <trkpt lat="45.50141" lon="6.7411">
        <ele>2241.4</ele>
        <time>2021-08-12T10:30:49Z</time>
      </trkpt>
      <trkpt lat="45.50141" lon="6.7411">
        <ele>2241.4</ele>
        <time>2021-08-12T10:30:50Z</time>
      </trkpt>
      <trkpt lat="45.50141" lon="6.7411">
        <ele>2241.4</ele>
        <time>2021-08-12T10:30:51Z</time>
      </trkpt>
      <trkpt lat="45.50141" lon="6.7411">
        <ele>2241.4</ele>
        <time>2021-08-12T10:30:52Z</time>
      </trkpt>
      <trkpt lat="45.50141" lon="6.7411">
        <ele>2241.4</ele>
        <time>2021-08-12T10:30:53Z</time>
      </trkpt>
      <trkpt lat="45.50141" lon="6.7411">
        <ele>2241.4</ele>
        <time>2021-08-12T10:30:54Z</time>
      </trkpt>
      <trkpt lat="45.50141" lon="6.7411">
        <ele>2241.4</ele>
        <time>2021-08-12T10:30:55Z</time>
      </trkpt>
      <trkpt lat="45.50141" lon="6.7411">
        <ele>2241.4</ele>
        <time>2021-08-12T10:30:56Z</time>
      </trkpt>
      <trkpt lat="45.50141" lon="6.7411">
        <ele>2241.4</ele>
        <time>2021-08-12T10:30:57Z</time>
      </trkpt>
      <trkpt lat="45.50141" lon="6.7411">
        <ele>2241.4</ele>
        <time>2021-08-12T10:30:58Z</time>
      </trkpt>
      <trkpt lat="45.50141" lon="6.7411">
        <ele>2241.4</ele>
        <time>2021-08-12T10:30:59Z</time>
      </trkpt>
      <trkpt lat="45.50141" lon="6.7411">
        <ele>2241.4</ele>
        <time>2021-08-12T10:31:00Z</time>
      </trkpt>
      <trkpt lat="45.50141" lon="6.7411">
        <ele>2241.4</ele>
        <time>2021-08-12T10:31:01Z</time>
      </trkpt>
      <trkpt lat="45.50141" lon="6.7411">
        <ele>2241.4</ele>
        <time>2021-08-12T10:31:02Z</time>
      </trkpt>
      <trkpt lat="45.50141" lon="6.7411">
        <ele>2241.4</ele>
        <time>2021-08-12T10:31:03Z</time>
      </trkpt>
      <trkpt lat="45.50141" lon="6.7411">
        <ele>2241.4</ele>
        <time>2021-08-12T10:31:04Z</time>
      </trkpt>
      <trkpt lat="45.50141" lon="6.7411">
        <ele>2241.4</ele>
        <time>2021-08-12T10:31:05Z</time>
      </trkpt>
      <trkpt lat="45.50141" lon="6.7411">
        <ele>2241.4</ele>
        <time>2021-08-12T10:31:06Z</time>
      </trkpt>
      <trkpt lat="45.50141" lon="6.7411">
        <ele>2241.4</ele>
        <time>2021-08-12T10:31:07Z</time>
      </trkpt>
      <trkpt lat="45.50141" lon="6.7411">
        <ele>2241.4</ele>
        <time>2021-08-12T10:31:08Z</time>
      </trkpt>
      <trkpt lat="45.50141" lon="6.7411">
        <ele>2241.4</ele>
        <time>2021-08-12T10:31:09Z</time>
      </trkpt>
      <trkpt lat="45.50141" lon="6.7411">
        <ele>2241.4</ele>
        <time>2021-08-12T10:31:10Z</time>
      </trkpt>
      <trkpt lat="45.50141" lon="6.7411">
        <ele>2241.4</ele>
        <time>2021-08-12T10:31:11Z</time>
      </trkpt>
      <trkpt lat="45.50141" lon="6.7411">
        <ele>2241.4</ele>
        <time>2021-08-12T10:31:12Z</time>
      </trkpt>
      <trkpt lat="45.50141" lon="6.7411">
        <ele>2241.4</ele>
        <time>2021-08-12T10:31:13Z</time>
      </trkpt>
      <trkpt lat="45.50141" lon="6.7411">
        <ele>2241.4</ele>
        <time>2021-08-12T10:31:14Z</time>
      </trkpt>
      <trkpt lat="45.50141" lon="6.7411">
        <ele>2241.4</ele>
        <time>2021-08-12T10:31:15Z</time>
      </trkpt>
      <trkpt lat="45.50141" lon="6.7411">
        <ele>2241.4</ele>
        <time>2021-08-12T10:31:16Z</time>
      </trkpt>
      <trkpt lat="45.50141" lon="6.7411">
        <ele>2241.4</ele>
        <time>2021-08-12T10:31:17Z</time>
      </trkpt>
      <trkpt lat="45.50141" lon="6.7411">
        <ele>2241.4</ele>
        <time>2021-08-12T10:31:18Z</time>
      </trkpt>
      <trkpt lat="45.50141" lon="6.7411">
        <ele>2241.4</ele>
        <time>2021-08-12T10:31:19Z</time>
      </trkpt>
      <trkpt lat="45.50141" lon="6.7411">
        <ele>2241.4</ele>
        <time>2021-08-12T10:31:20Z</time>
      </trkpt>
      <trkpt lat="45.50141" lon="6.7411">
        <ele>2241.4</ele>
        <time>2021-08-12T10:31:21Z</time>
      </trkpt>
      <trkpt lat="45.50141" lon="6.7411">
        <ele>2241.4</ele>
        <time>2021-08-12T10:31:22Z</time>
      </trkpt>
      <trkpt lat="45.50141" lon="6.7411">
        <ele>2241.4</ele>
        <time>2021-08-12T10:31:23Z</time>
      </trkpt>
      <trkpt lat="45.50141" lon="6.7411">
        <ele>2241.4</ele>
        <time>2021-08-12T10:31:24Z</time>
      </trkpt>
      <trkpt lat="45.50141" lon="6.7411">
        <ele>2241.4</ele>
        <time>2021-08-12T10:31:25Z</time>
      </trkpt>
      <trkpt lat="45.50141" lon="6.7411">
        <ele>2241.4</ele>
        <time>2021-08-12T10:31:26Z</time>
      </trkpt>
      <trkpt lat="45.50141" lon="6.7411">
        <ele>2241.4</ele>
        <time>2021-08-12T10:31:27Z</time>
      </trkpt>
      <trkpt lat="45.50141" lon="6.7411">
        <ele>2241.4</ele>
        <time>2021-08-12T10:31:28Z</time>
      </trkpt>
      <trkpt lat="45.50141" lon="6.7411">
        <ele>2241.4</ele>
        <time>2021-08-12T10:31:29Z</time>
      </trkpt>
      <trkpt lat="45.50141" lon="6.7411">
        <ele>2241.4</ele>
        <time>2021-08-12T10:31:30Z</time>
      </trkpt>
      <trkpt lat="45.50141" lon="6.7411">
        <ele>2241.4</ele>
        <time>2021-08-12T10:31:31Z</time>
      </trkpt>
      <trkpt lat="45.50141" lon="6.7411">
        <ele>2241.4</ele>
        <time>2021-08-12T10:31:32Z</time>
      </trkpt>
      <trkpt lat="45.50141" lon="6.7411">
        <ele>2241.4</ele>
        <time>2021-08-12T10:31:33Z</time>
      </trkpt>
      <trkpt lat="45.50141" lon="6.7411">
        <ele>2241.4</ele>
        <time>2021-08-12T10:31:34Z</time>
      </trkpt>
      <trkpt lat="45.50141" lon="6.7411">
        <ele>2241.4</ele>
        <time>2021-08-12T10:31:35Z</time>
      </trkpt>
      <trkpt lat="45.50141" lon="6.7411">
        <ele>2241.4</ele>
        <time>2021-08-12T10:31:36Z</time>
      </trkpt>
      <trkpt lat="45.50141" lon="6.7411">
        <ele>2241.4</ele>
        <time>2021-08-12T10:31:37Z</time>
      </trkpt>
      <trkpt lat="45.50141" lon="6.7411">
        <ele>2241.4</ele>
        <time>2021-08-12T10:31:38Z</time>
      </trkpt>
      <trkpt lat="45.50141" lon="6.7411">
        <ele>2241.4</ele>
        <time>2021-08-12T10:31:39Z</time>
      </trkpt>
      <trkpt lat="45.50141" lon="6.7411">
        <ele>2241.4</ele>
        <time>2021-08-12T10:31:40Z</time>
      </trkpt>
      <trkpt lat="45.50141" lon="6.7411">
        <ele>2241.4</ele>
        <time>2021-08-12T10:31:41Z</time>
      </trkpt>
      <trkpt lat="45.50141" lon="6.7411">
        <ele>2241.4</ele>
        <time>2021-08-12T10:31:42Z</time>
      </trkpt>
      <trkpt lat="45.50141" lon="6.7411">
        <ele>2241.4</ele>
        <time>2021-08-12T10:31:43Z</time>
      </trkpt>
      <trkpt lat="45.50141" lon="6.7411">
        <ele>2241.4</ele>
        <time>2021-08-12T10:31:44Z</time>
      </trkpt>
      <trkpt lat="45.50141" lon="6.7411">
        <ele>2241.4</ele>
        <time>2021-08-12T10:31:45Z</time>
      </trkpt>
      <trkpt lat="45.50141" lon="6.7411">
        <ele>2241.4</ele>
        <time>2021-08-12T10:31:46Z</time>
      </trkpt>
      <trkpt lat="45.50141" lon="6.7411">
        <ele>2241.4</ele>
        <time>2021-08-12T10:31:47Z</time>
      </trkpt>
      <trkpt lat="45.50141" lon="6.7411">
        <ele>2241.4</ele>
        <time>2021-08-12T10:31:48Z</time>
      </trkpt>
      <trkpt lat="45.50141" lon="6.7411">
        <ele>2241.4</ele>
        <time>2021-08-12T10:31:49Z</time>
      </trkpt>
      <trkpt lat="45.50141" lon="6.7411">
        <ele>2241.4</ele>
        <time>2021-08-12T10:31:50Z</time>
      </trkpt>
      <trkpt lat="45.50141" lon="6.7411">
        <ele>2241.4</ele>
        <time>2021-08-12T10:31:51Z</time>
      </trkpt>
      <trkpt lat="45.50141" lon="6.7411">
        <ele>2241.4</ele>
        <time>2021-08-12T10:31:52Z</time>
      </trkpt>
      <trkpt lat="45.50141" lon="6.7411">
        <ele>2241.4</ele>
        <time>2021-08-12T10:31:53Z</time>
      </trkpt>
      <trkpt lat="45.50141" lon="6.7411">
        <ele>2241.4</ele>
        <time>2021-08-12T10:31:54Z</time>
      </trkpt>
      <trkpt lat="45.50141" lon="6.7411">
        <ele>2241.4</ele>
        <time>2021-08-12T10:31:55Z</time>
      </trkpt>
      <trkpt lat="45.50141" lon="6.7411">
        <ele>2241.4</ele>
        <time>2021-08-12T10:31:56Z</time>
      </trkpt>
      <trkpt lat="45.50141" lon="6.7411">
        <ele>2241.4</ele>
        <time>2021-08-12T10:31:57Z</time>
      </trkpt>
      <trkpt lat="45.50141" lon="6.7411">
        <ele>2241.4</ele>
        <time>2021-08-12T10:31:58Z</time>
      </trkpt>
      <trkpt lat="45.50141" lon="6.7411">
        <ele>2241.4</ele>
        <time>2021-08-12T10:31:59Z</time>
      </trkpt>
      <trkpt lat="45.50141" lon="6.7411">
        <ele>2241.4</ele>
        <time>2021-08-12T10:32:00Z</time>
      </trkpt>
      <trkpt lat="45.50141" lon="6.7411">
        <ele>2241.4</ele>
        <time>2021-08-12T10:32:01Z</time>
      </trkpt>
      <trkpt lat="45.50141" lon="6.7411">
        <ele>2241.4</ele>
        <time>2021-08-12T10:32:02Z</time>
      </trkpt>
      <trkpt lat="45.50141" lon="6.7411">
        <ele>2241.4</ele>
        <time>2021-08-12T10:32:03Z</time>
      </trkpt>
      <trkpt lat="45.50141" lon="6.7411">
        <ele>2241.4</ele>
        <time>2021-08-12T10:32:04Z</time>
      </trkpt>
      <trkpt lat="45.50141" lon="6.7411">
        <ele>2241.4</ele>
        <time>2021-08-12T10:32:05Z</time>
      </trkpt>
      <trkpt lat="45.50141" lon="6.7411">
        <ele>2241.4</ele>
        <time>2021-08-12T10:32:06Z</time>
      </trkpt>
      <trkpt lat="45.50141" lon="6.7411">
        <ele>2241.4</ele>
        <time>2021-08-12T10:32:07Z</time>
      </trkpt>
      <trkpt lat="45.50141" lon="6.7411">
        <ele>2241.4</ele>
        <time>2021-08-12T10:32:08Z</time>
      </trkpt>
      <trkpt lat="45.50141" lon="6.7411">
        <ele>2241.4</ele>
        <time>2021-08-12T10:32:09Z</time>
      </trkpt>
      <trkpt lat="45.50141" lon="6.7411">
        <ele>2241.4</ele>
        <time>2021-08-12T10:32:10Z</time>
      </trkpt>
      <trkpt lat="45.50141" lon="6.7411">
        <ele>2241.4</ele>
        <time>2021-08-12T10:32:11Z</time>
      </trkpt>
      <trkpt lat="45.50141" lon="6.7411">
        <ele>2241.4</ele>
        <time>2021-08-12T10:32:12Z</time>
      </trkpt>
      <trkpt lat="45.50141" lon="6.7411">
        <ele>2241.4</ele>
        <time>2021-08-12T10:32:13Z</time>
      </trkpt>
      <trkpt lat="45.50141" lon="6.7411">
        <ele>2241.4</ele>
        <time>2021-08-12T10:32:14Z</time>
      </trkpt>
      <trkpt lat="45.50141" lon="6.7411">
        <ele>2241.4</ele>
        <time>2021-08-12T10:32:15Z</time>
      </trkpt>
      <trkpt lat="45.50141" lon="6.7411">
        <ele>2241.4</ele>
        <time>2021-08-12T10:32:16Z</time>
      </trkpt>
      <trkpt lat="45.50141" lon="6.7411">
        <ele>2241.4</ele>
        <time>2021-08-12T10:32:17Z</time>
      </trkpt>
      <trkpt lat="45.50141" lon="6.7411">
        <ele>2241.4</ele>
        <time>2021-08-12T10:32:18Z</time>
      </trkpt>
      <trkpt lat="45.50141" lon="6.7411">
        <ele>2241.4</ele>
        <time>2021-08-12T10:32:19Z</time>
      </trkpt>
      <trkpt lat="45.50141" lon="6.7411">
        <ele>2241.4</ele>
        <time>2021-08-12T10:32:20Z</time>
      </trkpt>
      <trkpt lat="45.50141" lon="6.7411">
        <ele>2241.4</ele>
        <time>2021-08-12T10:32:21Z</time>
      </trkpt>
      <trkpt lat="45.50141" lon="6.7411">
        <ele>2241.4</ele>
        <time>2021-08-12T10:32:22Z</time>
      </trkpt>
      <trkpt lat="45.50141" lon="6.7411">
        <ele>2241.4</ele>
        <time>2021-08-12T10:32:23Z</time>
      </trkpt>
      <trkpt lat="45.50141" lon="6.7411">
        <ele>2241.4</ele>
        <time>2021-08-12T10:32:24Z</time>
      </trkpt>
      <trkpt lat="45.50141" lon="6.7411">
        <ele>2241.4</ele>
        <time>2021-08-12T10:32:25Z</time>
      </trkpt>
      <trkpt lat="45.50141" lon="6.7411">
        <ele>2241.4</ele>
        <time>2021-08-12T10:32:26Z</time>
      </trkpt>
      <trkpt lat="45.50141" lon="6.7411">
        <ele>2241.4</ele>
        <time>2021-08-12T10:32:27Z</time>
      </trkpt>
      <trkpt lat="45.50141" lon="6.7411">
        <ele>2241.4</ele>
        <time>2021-08-12T10:32:28Z</time>
      </trkpt>
      <trkpt lat="45.50141" lon="6.7411">
        <ele>2241.4</ele>
        <time>2021-08-12T10:32:29Z</time>
      </trkpt>
      <trkpt lat="45.50141" lon="6.7411">
        <ele>2241.4</ele>
        <time>2021-08-12T10:32:30Z</time>
      </trkpt>
      <trkpt lat="45.50141" lon="6.7411">
        <ele>2241.4</ele>
        <time>2021-08-12T10:32:31Z</time>
      </trkpt>
      <trkpt lat="45.50141" lon="6.7411">
        <ele>2241.4</ele>
        <time>2021-08-12T10:32:32Z</time>
      </trkpt>
      <trkpt lat="45.50141" lon="6.7411">
        <ele>2241.4</ele>
        <time>2021-08-12T10:32:33Z</time>
      </trkpt>
      <trkpt lat="45.50141" lon="6.7411">
        <ele>2241.4</ele>
        <time>2021-08-12T10:32:34Z</time>
      </trkpt>
      <trkpt lat="45.50141" lon="6.7411">
        <ele>2241.4</ele>
        <time>2021-08-12T10:32:35Z</time>
      </trkpt>
      <trkpt lat="45.50141" lon="6.7411">
        <ele>2241.4</ele>
        <time>2021-08-12T10:32:36Z</time>
      </trkpt>
      <trkpt lat="45.50141" lon="6.7411">
        <ele>2241.4</ele>
        <time>2021-08-12T10:32:37Z</time>
      </trkpt>
      <trkpt lat="45.50141" lon="6.7411">
        <ele>2241.4</ele>
        <time>2021-08-12T10:32:38Z</time>
      </trkpt>
      <trkpt lat="45.50141" lon="6.7411">
        <ele>2241.4</ele>
        <time>2021-08-12T10:32:39Z</time>
      </trkpt>
      <trkpt lat="45.50141" lon="6.7411">
        <ele>2241.4</ele>
        <time>2021-08-12T10:32:40Z</time>
      </trkpt>
      <trkpt lat="45.50141" lon="6.7411">
        <ele>2241.4</ele>
        <time>2021-08-12T10:32:41Z</time>
      </trkpt>
      <trkpt lat="45.50141" lon="6.7411">
        <ele>2241.4</ele>
        <time>2021-08-12T10:32:42Z</time>
      </trkpt>
      <trkpt lat="45.50141" lon="6.7411">
        <ele>2241.4</ele>
        <time>2021-08-12T10:32:43Z</time>
      </trkpt>
      <trkpt lat="45.50141" lon="6.7411">
        <ele>2241.4</ele>
        <time>2021-08-12T10:32:44Z</time>
      </trkpt>
      <trkpt lat="45.50141" lon="6.7411">
        <ele>2241.4</ele>
        <time>2021-08-12T10:32:45Z</time>
      </trkpt>
      <trkpt lat="45.50141" lon="6.7411">
        <ele>2241.4</ele>
        <time>2021-08-12T10:32:46Z</time>
      </trkpt>
      <trkpt lat="45.50141" lon="6.7411">
        <ele>2241.4</ele>
        <time>2021-08-12T10:32:47Z</time>
      </trkpt>
      <trkpt lat="45.50141" lon="6.7411">
        <ele>2241.4</ele>
        <time>2021-08-12T10:32:48Z</time>
      </trkpt>
      <trkpt lat="45.50141" lon="6.7411">
        <ele>2241.4</ele>
        <time>2021-08-12T10:32:49Z</time>
      </trkpt>
      <trkpt lat="45.50141" lon="6.7411">
        <ele>2241.4</ele>
        <time>2021-08-12T10:32:50Z</time>
      </trkpt>
      <trkpt lat="45.50141" lon="6.7411">
        <ele>2241.4</ele>
        <time>2021-08-12T10:32:51Z</time>
      </trkpt>
      <trkpt lat="45.50141" lon="6.7411">
        <ele>2241.4</ele>
        <time>2021-08-12T10:32:52Z</time>
      </trkpt>
      <trkpt lat="45.50141" lon="6.7411">
        <ele>2241.4</ele>
        <time>2021-08-12T10:32:53Z</time>
      </trkpt>
      <trkpt lat="45.50141" lon="6.7411">
        <ele>2241.4</ele>
        <time>2021-08-12T10:32:54Z</time>
      </trkpt>
      <trkpt lat="45.50141" lon="6.7411">
        <ele>2241.4</ele>
        <time>2021-08-12T10:32:55Z</time>
      </trkpt>
      <trkpt lat="45.50141" lon="6.7411">
        <ele>2241.4</ele>
        <time>2021-08-12T10:32:56Z</time>
      </trkpt>
      <trkpt lat="45.50141" lon="6.7411">
        <ele>2241.4</ele>
        <time>2021-08-12T10:32:57Z</time>
      </trkpt>
      <trkpt lat="45.50141" lon="6.7411">
        <ele>2241.4</ele>
        <time>2021-08-12T10:32:58Z</time>
      </trkpt>
      <trkpt lat="45.50141" lon="6.7411">
        <ele>2241.4</ele>
        <time>2021-08-12T10:32:59Z</time>
      </trkpt>
      <trkpt lat="45.50141" lon="6.7411">
        <ele>2241.4</ele>
        <time>2021-08-12T10:33:00Z</time>
      </trkpt>
      <trkpt lat="45.50141" lon="6.7411">
        <ele>2241.4</ele>
        <time>2021-08-12T10:33:01Z</time>
      </trkpt>
      <trkpt lat="45.50141" lon="6.7411">
        <ele>2241.4</ele>
        <time>2021-08-12T10:33:02Z</time>
      </trkpt>
      <trkpt lat="45.50141" lon="6.7411">
        <ele>2241.4</ele>
        <time>2021-08-12T10:33:03Z</time>
      </trkpt>
      <trkpt lat="45.50141" lon="6.7411">
        <ele>2241.4</ele>
        <time>2021-08-12T10:33:04Z</time>
      </trkpt>
      <trkpt lat="45.50141" lon="6.7411">
        <ele>2241.4</ele>
        <time>2021-08-12T10:33:05Z</time>
      </trkpt>
      <trkpt lat="45.50141" lon="6.7411">
        <ele>2241.4</ele>
        <time>2021-08-12T10:33:06Z</time>
      </trkpt>
      <trkpt lat="45.50141" lon="6.7411">
        <ele>2241.4</ele>
        <time>2021-08-12T10:33:07Z</time>
      </trkpt>
      <trkpt lat="45.50141" lon="6.7411">
        <ele>2241.4</ele>
        <time>2021-08-12T10:33:08Z</time>
      </trkpt>
      <trkpt lat="45.50141" lon="6.7411">
        <ele>2241.4</ele>
        <time>2021-08-12T10:33:09Z</time>
      </trkpt>
      <trkpt lat="45.50141" lon="6.7411">
        <ele>2241.4</ele>
        <time>2021-08-12T10:33:10Z</time>
      </trkpt>
      <trkpt lat="45.50141" lon="6.7411">
        <ele>2241.4</ele>
        <time>2021-08-12T10:33:11Z</time>
      </trkpt>
      <trkpt lat="45.50141" lon="6.7411">
        <ele>2241.4</ele>
        <time>2021-08-12T10:33:12Z</time>
      </trkpt>
      <trkpt lat="45.50141" lon="6.7411">
        <ele>2241.4</ele>
        <time>2021-08-12T10:33:13Z</time>
      </trkpt>
      <trkpt lat="45.50141" lon="6.7411">
        <ele>2241.4</ele>
        <time>2021-08-12T10:33:14Z</time>
      </trkpt>
      <trkpt lat="45.50141" lon="6.7411">
        <ele>2241.4</ele>
        <time>2021-08-12T10:33:15Z</time>
      </trkpt>
      <trkpt lat="45.50141" lon="6.7411">
        <ele>2241.4</ele>
        <time>2021-08-12T10:33:16Z</time>
      </trkpt>
      <trkpt lat="45.50141" lon="6.7411">
        <ele>2241.4</ele>
        <time>2021-08-12T10:33:17Z</time>
      </trkpt>
      <trkpt lat="45.50141" lon="6.7411">
        <ele>2241.4</ele>
        <time>2021-08-12T10:33:18Z</time>
      </trkpt>
      <trkpt lat="45.50141" lon="6.7411">
        <ele>2241.4</ele>
        <time>2021-08-12T10:33:19Z</time>
      </trkpt>
      <trkpt lat="45.50141" lon="6.7411">
        <ele>2241.4</ele>
        <time>2021-08-12T10:33:20Z</time>
      </trkpt>
      <trkpt lat="45.50141" lon="6.7411">
        <ele>2241.4</ele>
        <time>2021-08-12T10:33:21Z</time>
      </trkpt>
      <trkpt lat="45.50141" lon="6.7411">
        <ele>2241.4</ele>
        <time>2021-08-12T10:33:22Z</time>
      </trkpt>
      <trkpt lat="45.50141" lon="6.7411">
        <ele>2241.4</ele>
        <time>2021-08-12T10:33:23Z</time>
      </trkpt>
      <trkpt lat="45.50141" lon="6.7411">
        <ele>2241.4</ele>
        <time>2021-08-12T10:33:24Z</time>
      </trkpt>
      <trkpt lat="45.50141" lon="6.7411">
        <ele>2241.4</ele>
        <time>2021-08-12T10:33:25Z</time>
      </trkpt>
      <trkpt lat="45.50141" lon="6.7411">
        <ele>2241.4</ele>
        <time>2021-08-12T10:33:26Z</time>
      </trkpt>
      <trkpt lat="45.50141" lon="6.7411">
        <ele>2241.4</ele>
        <time>2021-08-12T10:33:27Z</time>
      </trkpt>
      <trkpt lat="45.50141" lon="6.7411">
        <ele>2241.4</ele>
        <time>2021-08-12T10:33:28Z</time>
      </trkpt>
      <trkpt lat="45.50141" lon="6.7411">
        <ele>2241.4</ele>
        <time>2021-08-12T10:33:29Z</time>
      </trkpt>
      <trkpt lat="45.50141" lon="6.7411">
        <ele>2241.4</ele>
        <time>2021-08-12T10:33:30Z</time>
      </trkpt>
      <trkpt lat="45.50141" lon="6.7411">
        <ele>2241.4</ele>
        <time>2021-08-12T10:33:31Z</time>
      </trkpt>
      <trkpt lat="45.50141" lon="6.7411">
        <ele>2241.4</ele>
        <time>2021-08-12T10:33:32Z</time>
      </trkpt>
      <trkpt lat="45.50141" lon="6.7411">
        <ele>2241.4</ele>
        <time>2021-08-12T10:33:33Z</time>
      </trkpt>
      <trkpt lat="45.50141" lon="6.7411">
        <ele>2241.4</ele>
        <time>2021-08-12T10:33:34Z</time>
      </trkpt>
      <trkpt lat="45.50141" lon="6.7411">
        <ele>2241.4</ele>
        <time>2021-08-12T10:33:35Z</time>
      </trkpt>
      <trkpt lat="45.50141" lon="6.7411">
        <ele>2241.4</ele>
        <time>2021-08-12T10:33:36Z</time>
      </trkpt>
      <trkpt lat="45.50141" lon="6.7411">
        <ele>2241.4</ele>
        <time>2021-08-12T10:33:37Z</time>
      </trkpt>
      <trkpt lat="45.50141" lon="6.7411">
        <ele>2241.4</ele>
        <time>2021-08-12T10:33:38Z</time>
      </trkpt>
      <trkpt lat="45.50141" lon="6.7411">
        <ele>2241.4</ele>
        <time>2021-08-12T10:33:39Z</time>
      </trkpt>
      <trkpt lat="45.50141" lon="6.7411">
        <ele>2241.4</ele>
        <time>2021-08-12T10:33:40Z</time>
      </trkpt>
      <trkpt lat="45.50141" lon="6.7411">
        <ele>2241.4</ele>
        <time>2021-08-12T10:33:41Z</time>
      </trkpt>
      <trkpt lat="45.50141" lon="6.7411">
        <ele>2241.4</ele>
        <time>2021-08-12T10:33:42Z</time>
      </trkpt>
      <trkpt lat="45.50141" lon="6.7411">
        <ele>2241.4</ele>
        <time>2021-08-12T10:33:43Z</time>
      </trkpt>
      <trkpt lat="45.50141" lon="6.7411">
        <ele>2241.4</ele>
        <time>2021-08-12T10:33:44Z</time>
      </trkpt>
      <trkpt lat="45.50141" lon="6.7411">
        <ele>2241.4</ele>
        <time>2021-08-12T10:33:45Z</time>
      </trkpt>
      <trkpt lat="45.50141" lon="6.7411">
        <ele>2241.4</ele>
        <time>2021-08-12T10:33:46Z</time>
      </trkpt>
      <trkpt lat="45.50141" lon="6.7411">
        <ele>2241.4</ele>
        <time>2021-08-12T10:33:47Z</time>
      </trkpt>
      <trkpt lat="45.50141" lon="6.7411">
        <ele>2241.4</ele>
        <time>2021-08-12T10:33:48Z</time>
      </trkpt>
      <trkpt lat="45.50141" lon="6.7411">
        <ele>2241.4</ele>
        <time>2021-08-12T10:33:49Z</time>
      </trkpt>
      <trkpt lat="45.50141" lon="6.7411">
        <ele>2241.4</ele>
        <time>2021-08-12T10:33:50Z</time>
      </trkpt>
      <trkpt lat="45.50141" lon="6.7411">
        <ele>2241.4</ele>
        <time>2021-08-12T10:33:51Z</time>
      </trkpt>
      <trkpt lat="45.50141" lon="6.7411">
        <ele>2241.4</ele>
        <time>2021-08-12T10:33:52Z</time>
      </trkpt>
      <trkpt lat="45.50141" lon="6.7411">
        <ele>2241.4</ele>
        <time>2021-08-12T10:33:53Z</time>
      </trkpt>
      <trkpt lat="45.50141" lon="6.7411">
        <ele>2241.4</ele>
        <time>2021-08-12T10:33:54Z</time>
      </trkpt>
      <trkpt lat="45.50141" lon="6.7411">
        <ele>2241.4</ele>
        <time>2021-08-12T10:33:55Z</time>
      </trkpt>
      <trkpt lat="45.50141" lon="6.7411">
        <ele>2241.4</ele>
        <time>2021-08-12T10:33:56Z</time>
      </trkpt>
      <trkpt lat="45.50141" lon="6.7411">
        <ele>2241.4</ele>
        <time>2021-08-12T10:33:57Z</time>
      </trkpt>
      <trkpt lat="45.50141" lon="6.7411">
        <ele>2241.4</ele>
        <time>2021-08-12T10:33:58Z</time>
      </trkpt>
      <trkpt lat="45.50141" lon="6.7411">
        <ele>2241.4</ele>
        <time>2021-08-12T10:33:59Z</time>
      </trkpt>
      <trkpt lat="45.50141" lon="6.7411">
        <ele>2241.4</ele>
        <time>2021-08-12T10:34:00Z</time>
      </trkpt>
      <trkpt lat="45.50141" lon="6.7411">
        <ele>2241.4</ele>
        <time>2021-08-12T10:34:01Z</time>
      </trkpt>
      <trkpt lat="45.50141" lon="6.7411">
        <ele>2241.4</ele>
        <time>2021-08-12T10:34:02Z</time>
      </trkpt>
      <trkpt lat="45.50141" lon="6.7411">
        <ele>2241.4</ele>
        <time>2021-08-12T10:34:03Z</time>
      </trkpt>
      <trkpt lat="45.50141" lon="6.7411">
        <ele>2241.4</ele>
        <time>2021-08-12T10:34:04Z</time>
      </trkpt>
      <trkpt lat="45.50141" lon="6.7411">
        <ele>2241.4</ele>
        <time>2021-08-12T10:34:05Z</time>
      </trkpt>
      <trkpt lat="45.50141" lon="6.7411">
        <ele>2241.4</ele>
        <time>2021-08-12T10:34:06Z</time>
      </trkpt>
      <trkpt lat="45.50141" lon="6.7411">
        <ele>2241.4</ele>
        <time>2021-08-12T10:34:07Z</time>
      </trkpt>
      <trkpt lat="45.50141" lon="6.7411">
        <ele>2241.4</ele>
        <time>2021-08-12T10:34:08Z</time>
      </trkpt>
      <trkpt lat="45.50141" lon="6.7411">
        <ele>2241.4</ele>
        <time>2021-08-12T10:34:09Z</time>
      </trkpt>
      <trkpt lat="45.50141" lon="6.7411">
        <ele>2241.4</ele>
        <time>2021-08-12T10:34:10Z</time>
      </trkpt>
      <trkpt lat="45.50141" lon="6.7411">
        <ele>2241.4</ele>
        <time>2021-08-12T10:34:11Z</time>
      </trkpt>
      <trkpt lat="45.50141" lon="6.7411">
        <ele>2241.4</ele>
        <time>2021-08-12T10:34:12Z</time>
      </trkpt>
      <trkpt lat="45.50141" lon="6.7411">
        <ele>2241.4</ele>
        <time>2021-08-12T10:34:13Z</time>
      </trkpt>
      <trkpt lat="45.50141" lon="6.7411">
        <ele>2241.4</ele>
        <time>2021-08-12T10:34:14Z</time>
      </trkpt>
      <trkpt lat="45.50141" lon="6.7411">
        <ele>2241.4</ele>
        <time>2021-08-12T10:34:15Z</time>
      </trkpt>
      <trkpt lat="45.50141" lon="6.7411">
        <ele>2241.4</ele>
        <time>2021-08-12T10:34:16Z</time>
      </trkpt>
      <trkpt lat="45.50141" lon="6.7411">
        <ele>2241.4</ele>
        <time>2021-08-12T10:34:17Z</time>
      </trkpt>
      <trkpt lat="45.50141" lon="6.7411">
        <ele>2241.4</ele>
        <time>2021-08-12T10:34:18Z</time>
      </trkpt>
      <trkpt lat="45.50141" lon="6.7411">
        <ele>2241.4</ele>
        <time>2021-08-12T10:34:19Z</time>
      </trkpt>
      <trkpt lat="45.50141" lon="6.7411">
        <ele>2241.4</ele>
        <time>2021-08-12T10:34:20Z</time>
      </trkpt>
      <trkpt lat="45.50141" lon="6.7411">
        <ele>2241.4</ele>
        <time>2021-08-12T10:34:21Z</time>
      </trkpt>
      <trkpt lat="45.50141" lon="6.7411">
        <ele>2241.4</ele>
        <time>2021-08-12T10:34:22Z</time>
      </trkpt>
      <trkpt lat="45.50141" lon="6.7411">
        <ele>2241.4</ele>
        <time>2021-08-12T10:34:23Z</time>
      </trkpt>
      <trkpt lat="45.50141" lon="6.7411">
        <ele>2241.4</ele>
        <time>2021-08-12T10:34:24Z</time>
      </trkpt>
      <trkpt lat="45.50141" lon="6.7411">
        <ele>2241.4</ele>
        <time>2021-08-12T10:34:25Z</time>
      </trkpt>
      <trkpt lat="45.50141" lon="6.7411">
        <ele>2241.4</ele>
        <time>2021-08-12T10:34:26Z</time>
      </trkpt>
      <trkpt lat="45.50141" lon="6.7411">
        <ele>2241.4</ele>
        <time>2021-08-12T10:34:27Z</time>
      </trkpt>
      <trkpt lat="45.50141" lon="6.7411">
        <ele>2241.4</ele>
        <time>2021-08-12T10:34:28Z</time>
      </trkpt>
      <trkpt lat="45.50141" lon="6.7411">
        <ele>2241.4</ele>
        <time>2021-08-12T10:34:29Z</time>
      </trkpt>
      <trkpt lat="45.50141" lon="6.7411">
        <ele>2241.4</ele>
        <time>2021-08-12T10:34:30Z</time>
      </trkpt>
      <trkpt lat="45.50141" lon="6.7411">
        <ele>2241.4</ele>
        <time>2021-08-12T10:34:31Z</time>
      </trkpt>
      <trkpt lat="45.50141" lon="6.7411">
        <ele>2241.4</ele>
        <time>2021-08-12T10:34:32Z</time>
      </trkpt>
      <trkpt lat="45.50141" lon="6.7411">
        <ele>2241.4</ele>
        <time>2021-08-12T10:34:33Z</time>
      </trkpt>
      <trkpt lat="45.50141" lon="6.7411">
        <ele>2241.4</ele>
        <time>2021-08-12T10:34:34Z</time>
      </trkpt>
      <trkpt lat="45.50141" lon="6.7411">
        <ele>2241.4</ele>
        <time>2021-08-12T10:34:35Z</time>
      </trkpt>
      <trkpt lat="45.50141" lon="6.7411">
        <ele>2241.4</ele>
        <time>2021-08-12T10:34:36Z</time>
      </trkpt>
      <trkpt lat="45.50141" lon="6.7411">
        <ele>2241.4</ele>
        <time>2021-08-12T10:34:37Z</time>
      </trkpt>
      <trkpt lat="45.50141" lon="6.7411">
        <ele>2241.4</ele>
        <time>2021-08-12T10:34:38Z</time>
      </trkpt>
      <trkpt lat="45.50141" lon="6.7411">
        <ele>2241.4</ele>
        <time>2021-08-12T10:34:39Z</time>
      </trkpt>
      <trkpt lat="45.50141" lon="6.7411">
        <ele>2241.4</ele>
        <time>2021-08-12T10:34:40Z</time>
      </trkpt>
      <trkpt lat="45.50141" lon="6.7411">
        <ele>2241.4</ele>
        <time>2021-08-12T10:34:41Z</time>
      </trkpt>
      <trkpt lat="45.50141" lon="6.7411">
        <ele>2241.4</ele>
        <time>2021-08-12T10:34:42Z</time>
      </trkpt>
      <trkpt lat="45.50141" lon="6.7411">
        <ele>2241.4</ele>
        <time>2021-08-12T10:34:43Z</time>
      </trkpt>
      <trkpt lat="45.50141" lon="6.7411">
        <ele>2241.4</ele>
        <time>2021-08-12T10:34:44Z</time>
      </trkpt>
      <trkpt lat="45.50141" lon="6.7411">
        <ele>2241.4</ele>
        <time>2021-08-12T10:34:45Z</time>
      </trkpt>
      <trkpt lat="45.50141" lon="6.7411">
        <ele>2241.4</ele>
        <time>2021-08-12T10:34:46Z</time>
      </trkpt>
      <trkpt lat="45.50141" lon="6.7411">
        <ele>2241.4</ele>
        <time>2021-08-12T10:34:47Z</time>
      </trkpt>
      <trkpt lat="45.50141" lon="6.7411">
        <ele>2241.4</ele>
        <time>2021-08-12T10:34:48Z</time>
      </trkpt>
      <trkpt lat="45.50141" lon="6.7411">
        <ele>2241.4</ele>
        <time>2021-08-12T10:34:49Z</time>
      </trkpt>
      <trkpt lat="45.50141" lon="6.7411">
        <ele>2241.4</ele>
        <time>2021-08-12T10:34:50Z</time>
      </trkpt>
      <trkpt lat="45.50141" lon="6.7411">
        <ele>2241.4</ele>
        <time>2021-08-12T10:34:51Z</time>
      </trkpt>
      <trkpt lat="45.50141" lon="6.7411">
        <ele>2241.4</ele>
        <time>2021-08-12T10:34:52Z</time>
      </trkpt>
      <trkpt lat="45.50141" lon="6.7411">
        <ele>2241.4</ele>
        <time>2021-08-12T10:34:53Z</time>
      </trkpt>
      <trkpt lat="45.50141" lon="6.7411">
        <ele>2241.4</ele>
        <time>2021-08-12T10:34:54Z</time>
      </trkpt>
      <trkpt lat="45.50141" lon="6.7411">
        <ele>2241.4</ele>
        <time>2021-08-12T10:34:55Z</time>
      </trkpt>
      <trkpt lat="45.50141" lon="6.7411">
        <ele>2241.4</ele>
        <time>2021-08-12T10:34:56Z</time>
      </trkpt>
      <trkpt lat="45.50141" lon="6.7411">
        <ele>2241.4</ele>
        <time>2021-08-12T10:34:57Z</time>
      </trkpt>
      <trkpt lat="45.50141" lon="6.7411">
        <ele>2241.4</ele>
        <time>2021-08-12T10:34:58Z</time>
      </trkpt>
      <trkpt lat="45.50141" lon="6.7411">
        <ele>2241.4</ele>
        <time>2021-08-12T10:34:59Z</time>
      </trkpt>
      <trkpt lat="45.50141" lon="6.7411">
        <ele>2241.4</ele>
        <time>2021-08-12T10:35:00Z</time>
      </trkpt>
      <trkpt lat="45.50141" lon="6.7411">
        <ele>2241.4</ele>
        <time>2021-08-12T10:35:01Z</time>
      </trkpt>
      <trkpt lat="45.50141" lon="6.7411">
        <ele>2241.4</ele>
        <time>2021-08-12T10:35:02Z</time>
      </trkpt>
      <trkpt lat="45.50141" lon="6.7411">
        <ele>2241.4</ele>
        <time>2021-08-12T10:35:03Z</time>
      </trkpt>
      <trkpt lat="45.50141" lon="6.7411">
        <ele>2241.4</ele>
        <time>2021-08-12T10:35:04Z</time>
      </trkpt>
      <trkpt lat="45.50141" lon="6.7411">
        <ele>2241.4</ele>
        <time>2021-08-12T10:35:05Z</time>
      </trkpt>
      <trkpt lat="45.50141" lon="6.7411">
        <ele>2241.4</ele>
        <time>2021-08-12T10:35:06Z</time>
      </trkpt>
      <trkpt lat="45.50141" lon="6.7411">
        <ele>2241.4</ele>
        <time>2021-08-12T10:35:07Z</time>
      </trkpt>
      <trkpt lat="45.50141" lon="6.7411">
        <ele>2241.4</ele>
        <time>2021-08-12T10:35:08Z</time>
      </trkpt>
      <trkpt lat="45.50141" lon="6.7411">
        <ele>2241.4</ele>
        <time>2021-08-12T10:35:09Z</time>
      </trkpt>
      <trkpt lat="45.50141" lon="6.7411">
        <ele>2241.4</ele>
        <time>2021-08-12T10:35:10Z</time>
      </trkpt>
      <trkpt lat="45.50141" lon="6.7411">
        <ele>2241.4</ele>
        <time>2021-08-12T10:35:11Z</time>
      </trkpt>
      <trkpt lat="45.50141" lon="6.7411">
        <ele>2241.4</ele>
        <time>2021-08-12T10:35:12Z</time>
      </trkpt>
      <trkpt lat="45.50141" lon="6.7411">
        <ele>2241.4</ele>
        <time>2021-08-12T10:35:13Z</time>
      </trkpt>
      <trkpt lat="45.50141" lon="6.7411">
        <ele>2241.4</ele>
        <time>2021-08-12T10:35:14Z</time>
      </trkpt>
      <trkpt lat="45.50141" lon="6.7411">
        <ele>2241.4</ele>
        <time>2021-08-12T10:35:15Z</time>
      </trkpt>
      <trkpt lat="45.50141" lon="6.7411">
        <ele>2241.4</ele>
        <time>2021-08-12T10:35:16Z</time>
      </trkpt>
      <trkpt lat="45.50141" lon="6.7411">
        <ele>2241.4</ele>
        <time>2021-08-12T10:35:17Z</time>
      </trkpt>
      <trkpt lat="45.50141" lon="6.7411">
        <ele>2241.4</ele>
        <time>2021-08-12T10:35:18Z</time>
      </trkpt>
      <trkpt lat="45.50141" lon="6.7411">
        <ele>2241.4</ele>
        <time>2021-08-12T10:35:19Z</time>
      </trkpt>
      <trkpt lat="45.50141" lon="6.7411">
        <ele>2241.4</ele>
        <time>2021-08-12T10:35:20Z</time>
      </trkpt>
      <trkpt lat="45.50141" lon="6.7411">
        <ele>2241.4</ele>
        <time>2021-08-12T10:35:21Z</time>
      </trkpt>
      <trkpt lat="45.50141" lon="6.7411">
        <ele>2241.4</ele>
        <time>2021-08-12T10:35:22Z</time>
      </trkpt>
      <trkpt lat="45.50141" lon="6.7411">
        <ele>2241.4</ele>
        <time>2021-08-12T10:35:23Z</time>
      </trkpt>
      <trkpt lat="45.50141" lon="6.7411">
        <ele>2241.4</ele>
        <time>2021-08-12T10:35:24Z</time>
      </trkpt>
      <trkpt lat="45.50141" lon="6.7411">
        <ele>2241.4</ele>
        <time>2021-08-12T10:35:25Z</time>
      </trkpt>
      <trkpt lat="45.50141" lon="6.7411">
        <ele>2241.4</ele>
        <time>2021-08-12T10:35:26Z</time>
      </trkpt>
      <trkpt lat="45.50141" lon="6.7411">
        <ele>2241.4</ele>
        <time>2021-08-12T10:35:27Z</time>
      </trkpt>
      <trkpt lat="45.50141" lon="6.7411">
        <ele>2241.4</ele>
        <time>2021-08-12T10:35:28Z</time>
      </trkpt>
      <trkpt lat="45.50141" lon="6.7411">
        <ele>2241.4</ele>
        <time>2021-08-12T10:35:29Z</time>
      </trkpt>
      <trkpt lat="45.50141" lon="6.7411">
        <ele>2241.4</ele>
        <time>2021-08-12T10:35:30Z</time>
      </trkpt>
      <trkpt lat="45.50141" lon="6.7411">
        <ele>2241.4</ele>
        <time>2021-08-12T10:35:31Z</time>
      </trkpt>
      <trkpt lat="45.50141" lon="6.7411">
        <ele>2241.4</ele>
        <time>2021-08-12T10:35:32Z</time>
      </trkpt>
      <trkpt lat="45.50141" lon="6.7411">
        <ele>2241.4</ele>
        <time>2021-08-12T10:35:33Z</time>
      </trkpt>
      <trkpt lat="45.50141" lon="6.7411">
        <ele>2241.4</ele>
        <time>2021-08-12T10:35:34Z</time>
      </trkpt>
      <trkpt lat="45.50141" lon="6.7411">
        <ele>2241.4</ele>
        <time>2021-08-12T10:35:35Z</time>
      </trkpt>
      <trkpt lat="45.50141" lon="6.7411">
        <ele>2241.4</ele>
        <time>2021-08-12T10:35:36Z</time>
      </trkpt>
      <trkpt lat="45.50141" lon="6.7411">
        <ele>2241.4</ele>
        <time>2021-08-12T10:35:37Z</time>
      </trkpt>
      <trkpt lat="45.50141" lon="6.7411">
        <ele>2241.4</ele>
        <time>2021-08-12T10:35:38Z</time>
      </trkpt>
      <trkpt lat="45.50141" lon="6.7411">
        <ele>2241.4</ele>
        <time>2021-08-12T10:35:39Z</time>
      </trkpt>
      <trkpt lat="45.50141" lon="6.7411">
        <ele>2241.4</ele>
        <time>2021-08-12T10:35:40Z</time>
      </trkpt>
      <trkpt lat="45.50141" lon="6.7411">
        <ele>2241.4</ele>
        <time>2021-08-12T10:35:41Z</time>
      </trkpt>
      <trkpt lat="45.50141" lon="6.7411">
        <ele>2241.4</ele>
        <time>2021-08-12T10:35:42Z</time>
      </trkpt>
      <trkpt lat="45.50141" lon="6.7411">
        <ele>2241.4</ele>
        <time>2021-08-12T10:35:43Z</time>
      </trkpt>
      <trkpt lat="45.50141" lon="6.7411">
        <ele>2241.4</ele>
        <time>2021-08-12T10:35:44Z</time>
      </trkpt>
      <trkpt lat="45.50141" lon="6.7411">
        <ele>2241.4</ele>
        <time>2021-08-12T10:35:45Z</time>
      </trkpt>
      <trkpt lat="45.50141" lon="6.7411">
        <ele>2241.4</ele>
        <time>2021-08-12T10:35:46Z</time>
      </trkpt>
      <trkpt lat="45.50141" lon="6.7411">
        <ele>2241.4</ele>
        <time>2021-08-12T10:35:47Z</time>
      </trkpt>
      <trkpt lat="45.50141" lon="6.7411">
        <ele>2241.4</ele>
        <time>2021-08-12T10:35:48Z</time>
      </trkpt>
      <trkpt lat="45.50141" lon="6.7411">
        <ele>2241.4</ele>
        <time>2021-08-12T10:35:49Z</time>
      </trkpt>
      <trkpt lat="45.50141" lon="6.7411">
        <ele>2241.4</ele>
        <time>2021-08-12T10:35:50Z</time>
      </trkpt>
      <trkpt lat="45.50141" lon="6.7411">
        <ele>2241.4</ele>
        <time>2021-08-12T10:35:51Z</time>
      </trkpt>
      <trkpt lat="45.50141" lon="6.7411">
        <ele>2241.4</ele>
        <time>2021-08-12T10:35:52Z</time>
      </trkpt>
      <trkpt lat="45.50141" lon="6.7411">
        <ele>2241.4</ele>
        <time>2021-08-12T10:35:53Z</time>
      </trkpt>
      <trkpt lat="45.50141" lon="6.7411">
        <ele>2241.4</ele>
        <time>2021-08-12T10:35:54Z</time>
      </trkpt>
      <trkpt lat="45.50141" lon="6.7411">
        <ele>2241.4</ele>
        <time>2021-08-12T10:35:55Z</time>
      </trkpt>
      <trkpt lat="45.50141" lon="6.7411">
        <ele>2241.4</ele>
        <time>2021-08-12T10:35:56Z</time>
      </trkpt>
      <trkpt lat="45.50141" lon="6.7411">
        <ele>2241.4</ele>
        <time>2021-08-12T10:35:57Z</time>
      </trkpt>
      <trkpt lat="45.50141" lon="6.7411">
        <ele>2241.4</ele>
        <time>2021-08-12T10:35:58Z</time>
      </trkpt>
      <trkpt lat="45.50141" lon="6.7411">
        <ele>2241.4</ele>
        <time>2021-08-12T10:35:59Z</time>
      </trkpt>
      <trkpt lat="45.50141" lon="6.7411">
        <ele>2241.4</ele>
        <time>2021-08-12T10:36:00Z</time>
      </trkpt>
      <trkpt lat="45.50141" lon="6.7411">
        <ele>2241.4</ele>
        <time>2021-08-12T10:36:01Z</time>
      </trkpt>
      <trkpt lat="45.50141" lon="6.7411">
        <ele>2241.4</ele>
        <time>2021-08-12T10:36:02Z</time>
      </trkpt>
      <trkpt lat="45.50141" lon="6.7411">
        <ele>2241.4</ele>
        <time>2021-08-12T10:36:03Z</time>
      </trkpt>
      <trkpt lat="45.50141" lon="6.7411">
        <ele>2241.4</ele>
        <time>2021-08-12T10:36:04Z</time>
      </trkpt>
      <trkpt lat="45.50141" lon="6.7411">
        <ele>2241.4</ele>
        <time>2021-08-12T10:36:05Z</time>
      </trkpt>
      <trkpt lat="45.50141" lon="6.7411">
        <ele>2241.4</ele>
        <time>2021-08-12T10:36:06Z</time>
      </trkpt>
      <trkpt lat="45.50141" lon="6.7411">
        <ele>2241.4</ele>
        <time>2021-08-12T10:36:07Z</time>
      </trkpt>
      <trkpt lat="45.50141" lon="6.7411">
        <ele>2241.4</ele>
        <time>2021-08-12T10:36:08Z</time>
      </trkpt>
      <trkpt lat="45.50141" lon="6.7411">
        <ele>2241.4</ele>
        <time>2021-08-12T10:36:09Z</time>
      </trkpt>
      <trkpt lat="45.50141" lon="6.7411">
        <ele>2241.4</ele>
        <time>2021-08-12T10:36:10Z</time>
      </trkpt>
      <trkpt lat="45.50141" lon="6.7411">
        <ele>2241.4</ele>
        <time>2021-08-12T10:36:11Z</time>
      </trkpt>
      <trkpt lat="45.50141" lon="6.7411">
        <ele>2241.4</ele>
        <time>2021-08-12T10:36:12Z</time>
      </trkpt>
      <trkpt lat="45.50141" lon="6.7411">
        <ele>2241.4</ele>
        <time>2021-08-12T10:36:13Z</time>
      </trkpt>
      <trkpt lat="45.50141" lon="6.7411">
        <ele>2241.4</ele>
        <time>2021-08-12T10:36:14Z</time>
      </trkpt>
      <trkpt lat="45.50141" lon="6.7411">
        <ele>2241.4</ele>
        <time>2021-08-12T10:36:15Z</time>
      </trkpt>
      <trkpt lat="45.50141" lon="6.7411">
        <ele>2241.4</ele>
        <time>2021-08-12T10:36:16Z</time>
      </trkpt>
      <trkpt lat="45.50141" lon="6.7411">
        <ele>2241.4</ele>
        <time>2021-08-12T10:36:17Z</time>
      </trkpt>
      <trkpt lat="45.50141" lon="6.7411">
        <ele>2241.4</ele>
        <time>2021-08-12T10:36:18Z</time>
      </trkpt>
      <trkpt lat="45.50141" lon="6.7411">
        <ele>2241.4</ele>
        <time>2021-08-12T10:36:19Z</time>
      </trkpt>
      <trkpt lat="45.50141" lon="6.7411">
        <ele>2241.4</ele>
        <time>2021-08-12T10:36:20Z</time>
      </trkpt>
      <trkpt lat="45.50141" lon="6.7411">
        <ele>2241.4</ele>
        <time>2021-08-12T10:36:21Z</time>
      </trkpt>
      <trkpt lat="45.50141" lon="6.7411">
        <ele>2241.4</ele>
        <time>2021-08-12T10:36:22Z</time>
      </trkpt>
      <trkpt lat="45.50141" lon="6.7411">
        <ele>2241.4</ele>
        <time>2021-08-12T10:36:23Z</time>
      </trkpt>
      <trkpt lat="45.50141" lon="6.7411">
        <ele>2241.4</ele>
        <time>2021-08-12T10:36:24Z</time>
      </trkpt>
      <trkpt lat="45.50141" lon="6.7411">
        <ele>2241.4</ele>
        <time>2021-08-12T10:36:25Z</time>
      </trkpt>
      <trkpt lat="45.50141" lon="6.7411">
        <ele>2241.4</ele>
        <time>2021-08-12T10:36:26Z</time>
      </trkpt>
      <trkpt lat="45.50141" lon="6.7411">
        <ele>2241.4</ele>
        <time>2021-08-12T10:36:27Z</time>
      </trkpt>
      <trkpt lat="45.50141" lon="6.7411">
        <ele>2241.4</ele>
        <time>2021-08-12T10:36:28Z</time>
      </trkpt>
      <trkpt lat="45.50141" lon="6.7411">
        <ele>2241.4</ele>
        <time>2021-08-12T10:36:29Z</time>
      </trkpt>
      <trkpt lat="45.50141" lon="6.7411">
        <ele>2241.4</ele>
        <time>2021-08-12T10:36:30Z</time>
      </trkpt>
      <trkpt lat="45.50141" lon="6.7411">
        <ele>2241.4</ele>
        <time>2021-08-12T10:36:31Z</time>
      </trkpt>
      <trkpt lat="45.50141" lon="6.7411">
        <ele>2241.4</ele>
        <time>2021-08-12T10:36:32Z</time>
      </trkpt>
      <trkpt lat="45.50141" lon="6.7411">
        <ele>2241.4</ele>
        <time>2021-08-12T10:36:33Z</time>
      </trkpt>
      <trkpt lat="45.50141" lon="6.7411">
        <ele>2241.4</ele>
        <time>2021-08-12T10:36:34Z</time>
      </trkpt>
      <trkpt lat="45.50141" lon="6.7411">
        <ele>2241.4</ele>
        <time>2021-08-12T10:36:35Z</time>
      </trkpt>
      <trkpt lat="45.50141" lon="6.7411">
        <ele>2241.4</ele>
        <time>2021-08-12T10:36:36Z</time>
      </trkpt>
      <trkpt lat="45.50141" lon="6.7411">
        <ele>2241.4</ele>
        <time>2021-08-12T10:36:37Z</time>
      </trkpt>
      <trkpt lat="45.50141" lon="6.7411">
        <ele>2241.4</ele>
        <time>2021-08-12T10:36:38Z</time>
      </trkpt>
      <trkpt lat="45.50141" lon="6.7411">
        <ele>2241.4</ele>
        <time>2021-08-12T10:36:39Z</time>
      </trkpt>
      <trkpt lat="45.50141" lon="6.7411">
        <ele>2241.4</ele>
        <time>2021-08-12T10:36:40Z</time>
      </trkpt>
      <trkpt lat="45.50141" lon="6.7411">
        <ele>2241.4</ele>
        <time>2021-08-12T10:36:41Z</time>
      </trkpt>
      <trkpt lat="45.50141" lon="6.7411">
        <ele>2241.4</ele>
        <time>2021-08-12T10:36:42Z</time>
      </trkpt>
      <trkpt lat="45.50141" lon="6.7411">
        <ele>2241.4</ele>
        <time>2021-08-12T10:36:43Z</time>
      </trkpt>
      <trkpt lat="45.50141" lon="6.7411">
        <ele>2241.4</ele>
        <time>2021-08-12T10:36:44Z</time>
      </trkpt>
      <trkpt lat="45.50141" lon="6.7411">
        <ele>2241.4</ele>
        <time>2021-08-12T10:36:45Z</time>
      </trkpt>
      <trkpt lat="45.50141" lon="6.7411">
        <ele>2241.4</ele>
        <time>2021-08-12T10:36:46Z</time>
      </trkpt>
      <trkpt lat="45.50141" lon="6.7411">
        <ele>2241.4</ele>
        <time>2021-08-12T10:36:47Z</time>
      </trkpt>
      <trkpt lat="45.50141" lon="6.7411">
        <ele>2241.4</ele>
        <time>2021-08-12T10:36:48Z</time>
      </trkpt>
      <trkpt lat="45.50141" lon="6.7411">
        <ele>2241.4</ele>
        <time>2021-08-12T10:36:49Z</time>
      </trkpt>
      <trkpt lat="45.50141" lon="6.7411">
        <ele>2241.4</ele>
        <time>2021-08-12T10:36:50Z</time>
      </trkpt>
      <trkpt lat="45.50141" lon="6.7411">
        <ele>2241.4</ele>
        <time>2021-08-12T10:36:51Z</time>
      </trkpt>
      <trkpt lat="45.50141" lon="6.7411">
        <ele>2241.4</ele>
        <time>2021-08-12T10:36:52Z</time>
      </trkpt>
      <trkpt lat="45.50141" lon="6.7411">
        <ele>2241.4</ele>
        <time>2021-08-12T10:36:53Z</time>
      </trkpt>
      <trkpt lat="45.50141" lon="6.7411">
        <ele>2241.4</ele>
        <time>2021-08-12T10:36:54Z</time>
      </trkpt>
      <trkpt lat="45.50141" lon="6.7411">
        <ele>2241.4</ele>
        <time>2021-08-12T10:36:55Z</time>
      </trkpt>
      <trkpt lat="45.50141" lon="6.7411">
        <ele>2241.4</ele>
        <time>2021-08-12T10:36:56Z</time>
      </trkpt>
      <trkpt lat="45.50141" lon="6.7411">
        <ele>2241.4</ele>
        <time>2021-08-12T10:36:57Z</time>
      </trkpt>
      <trkpt lat="45.50141" lon="6.7411">
        <ele>2241.4</ele>
        <time>2021-08-12T10:36:58Z</time>
      </trkpt>
      <trkpt lat="45.50141" lon="6.7411">
        <ele>2241.4</ele>
        <time>2021-08-12T10:36:59Z</time>
      </trkpt>
      <trkpt lat="45.50141" lon="6.7411">
        <ele>2241.4</ele>
        <time>2021-08-12T10:37:00Z</time>
      </trkpt>
      <trkpt lat="45.50141" lon="6.7411">
        <ele>2241.4</ele>
        <time>2021-08-12T10:37:01Z</time>
      </trkpt>
      <trkpt lat="45.50141" lon="6.7411">
        <ele>2241.4</ele>
        <time>2021-08-12T10:37:02Z</time>
      </trkpt>
      <trkpt lat="45.50141" lon="6.7411">
        <ele>2241.4</ele>
        <time>2021-08-12T10:37:03Z</time>
      </trkpt>
      <trkpt lat="45.50141" lon="6.7411">
        <ele>2241.4</ele>
        <time>2021-08-12T10:37:04Z</time>
      </trkpt>
      <trkpt lat="45.50141" lon="6.7411">
        <ele>2241.4</ele>
        <time>2021-08-12T10:37:05Z</time>
      </trkpt>
      <trkpt lat="45.50141" lon="6.7411">
        <ele>2241.4</ele>
        <time>2021-08-12T10:37:06Z</time>
      </trkpt>
      <trkpt lat="45.50141" lon="6.7411">
        <ele>2241.4</ele>
        <time>2021-08-12T10:37:07Z</time>
      </trkpt>
      <trkpt lat="45.50141" lon="6.7411">
        <ele>2241.4</ele>
        <time>2021-08-12T10:37:08Z</time>
      </trkpt>
      <trkpt lat="45.50141" lon="6.7411">
        <ele>2241.4</ele>
        <time>2021-08-12T10:37:09Z</time>
      </trkpt>
      <trkpt lat="45.50141" lon="6.7411">
        <ele>2241.4</ele>
        <time>2021-08-12T10:37:10Z</time>
      </trkpt>
      <trkpt lat="45.50141" lon="6.7411">
        <ele>2241.4</ele>
        <time>2021-08-12T10:37:11Z</time>
      </trkpt>
      <trkpt lat="45.50141" lon="6.7411">
        <ele>2241.4</ele>
        <time>2021-08-12T10:37:12Z</time>
      </trkpt>
      <trkpt lat="45.50141" lon="6.7411">
        <ele>2241.4</ele>
        <time>2021-08-12T10:37:13Z</time>
      </trkpt>
      <trkpt lat="45.50141" lon="6.7411">
        <ele>2241.4</ele>
        <time>2021-08-12T10:37:14Z</time>
      </trkpt>
      <trkpt lat="45.50141" lon="6.7411">
        <ele>2241.4</ele>
        <time>2021-08-12T10:37:15Z</time>
      </trkpt>
      <trkpt lat="45.50141" lon="6.7411">
        <ele>2241.4</ele>
        <time>2021-08-12T10:37:16Z</time>
      </trkpt>
      <trkpt lat="45.50141" lon="6.7411">
        <ele>2241.4</ele>
        <time>2021-08-12T10:37:17Z</time>
      </trkpt>
      <trkpt lat="45.50141" lon="6.7411">
        <ele>2241.4</ele>
        <time>2021-08-12T10:37:18Z</time>
      </trkpt>
      <trkpt lat="45.50141" lon="6.7411">
        <ele>2241.4</ele>
        <time>2021-08-12T10:37:19Z</time>
      </trkpt>
      <trkpt lat="45.50141" lon="6.7411">
        <ele>2241.4</ele>
        <time>2021-08-12T10:37:20Z</time>
      </trkpt>
      <trkpt lat="45.50141" lon="6.7411">
        <ele>2241.4</ele>
        <time>2021-08-12T10:37:21Z</time>
      </trkpt>
      <trkpt lat="45.50141" lon="6.7411">
        <ele>2241.4</ele>
        <time>2021-08-12T10:37:22Z</time>
      </trkpt>
      <trkpt lat="45.50141" lon="6.7411">
        <ele>2241.4</ele>
        <time>2021-08-12T10:37:23Z</time>
      </trkpt>
      <trkpt lat="45.50141" lon="6.7411">
        <ele>2241.4</ele>
        <time>2021-08-12T10:37:24Z</time>
      </trkpt>
      <trkpt lat="45.50141" lon="6.7411">
        <ele>2241.4</ele>
        <time>2021-08-12T10:37:25Z</time>
      </trkpt>
      <trkpt lat="45.50141" lon="6.7411">
        <ele>2241.4</ele>
        <time>2021-08-12T10:37:26Z</time>
      </trkpt>
      <trkpt lat="45.50141" lon="6.7411">
        <ele>2241.4</ele>
        <time>2021-08-12T10:37:27Z</time>
      </trkpt>
      <trkpt lat="45.50141" lon="6.7411">
        <ele>2241.4</ele>
        <time>2021-08-12T10:37:28Z</time>
      </trkpt>
      <trkpt lat="45.50141" lon="6.7411">
        <ele>2241.4</ele>
        <time>2021-08-12T10:37:29Z</time>
      </trkpt>
      <trkpt lat="45.50141" lon="6.7411">
        <ele>2241.4</ele>
        <time>2021-08-12T10:37:30Z</time>
      </trkpt>
      <trkpt lat="45.50141" lon="6.7411">
        <ele>2241.4</ele>
        <time>2021-08-12T10:37:31Z</time>
      </trkpt>
      <trkpt lat="45.50141" lon="6.7411">
        <ele>2241.4</ele>
        <time>2021-08-12T10:37:32Z</time>
      </trkpt>
      <trkpt lat="45.50141" lon="6.7411">
        <ele>2241.4</ele>
        <time>2021-08-12T10:37:33Z</time>
      </trkpt>
      <trkpt lat="45.50141" lon="6.7411">
        <ele>2241.4</ele>
        <time>2021-08-12T10:37:34Z</time>
      </trkpt>
      <trkpt lat="45.50141" lon="6.7411">
        <ele>2241.4</ele>
        <time>2021-08-12T10:37:35Z</time>
      </trkpt>
      <trkpt lat="45.50141" lon="6.7411">
        <ele>2241.4</ele>
        <time>2021-08-12T10:37:36Z</time>
      </trkpt>
      <trkpt lat="45.50141" lon="6.7411">
        <ele>2241.4</ele>
        <time>2021-08-12T10:37:37Z</time>
      </trkpt>
      <trkpt lat="45.50141" lon="6.7411">
        <ele>2241.4</ele>
        <time>2021-08-12T10:37:38Z</time>
      </trkpt>
      <trkpt lat="45.50141" lon="6.7411">
        <ele>2241.4</ele>
        <time>2021-08-12T10:37:39Z</time>
      </trkpt>
      <trkpt lat="45.50141" lon="6.7411">
        <ele>2241.4</ele>
        <time>2021-08-12T10:37:40Z</time>
      </trkpt>
      <trkpt lat="45.50141" lon="6.7411">
        <ele>2241.4</ele>
        <time>2021-08-12T10:37:41Z</time>
      </trkpt>
      <trkpt lat="45.50141" lon="6.7411">
        <ele>2241.4</ele>
        <time>2021-08-12T10:37:42Z</time>
      </trkpt>
      <trkpt lat="45.50141" lon="6.7411">
        <ele>2241.4</ele>
        <time>2021-08-12T10:37:43Z</time>
      </trkpt>
      <trkpt lat="45.50141" lon="6.7411">
        <ele>2241.4</ele>
        <time>2021-08-12T10:37:44Z</time>
      </trkpt>
      <trkpt lat="45.50141" lon="6.7411">
        <ele>2241.4</ele>
        <time>2021-08-12T10:37:45Z</time>
      </trkpt>
      <trkpt lat="45.50141" lon="6.7411">
        <ele>2241.4</ele>
        <time>2021-08-12T10:37:46Z</time>
      </trkpt>
      <trkpt lat="45.50141" lon="6.7411">
        <ele>2241.4</ele>
        <time>2021-08-12T10:37:47Z</time>
      </trkpt>
      <trkpt lat="45.50141" lon="6.7411">
        <ele>2241.4</ele>
        <time>2021-08-12T10:37:48Z</time>
      </trkpt>
      <trkpt lat="45.50141" lon="6.7411">
        <ele>2241.4</ele>
        <time>2021-08-12T10:37:49Z</time>
      </trkpt>
      <trkpt lat="45.50141" lon="6.7411">
        <ele>2241.4</ele>
        <time>2021-08-12T10:37:50Z</time>
      </trkpt>
      <trkpt lat="45.50141" lon="6.7411">
        <ele>2241.4</ele>
        <time>2021-08-12T10:37:51Z</time>
      </trkpt>
      <trkpt lat="45.50141" lon="6.7411">
        <ele>2241.4</ele>
        <time>2021-08-12T10:37:52Z</time>
      </trkpt>
      <trkpt lat="45.50141" lon="6.7411">
        <ele>2241.4</ele>
        <time>2021-08-12T10:37:53Z</time>
      </trkpt>
      <trkpt lat="45.50141" lon="6.7411">
        <ele>2241.4</ele>
        <time>2021-08-12T10:37:54Z</time>
      </trkpt>
      <trkpt lat="45.50141" lon="6.7411">
        <ele>2241.4</ele>
        <time>2021-08-12T10:37:55Z</time>
      </trkpt>
      <trkpt lat="45.50141" lon="6.7411">
        <ele>2241.4</ele>
        <time>2021-08-12T10:37:56Z</time>
      </trkpt>
      <trkpt lat="45.50141" lon="6.7411">
        <ele>2241.4</ele>
        <time>2021-08-12T10:37:57Z</time>
      </trkpt>
      <trkpt lat="45.50141" lon="6.7411">
        <ele>2241.4</ele>
        <time>2021-08-12T10:37:58Z</time>
      </trkpt>
      <trkpt lat="45.50141" lon="6.7411">
        <ele>2241.4</ele>
        <time>2021-08-12T10:37:59Z</time>
      </trkpt>
      <trkpt lat="45.50141" lon="6.7411">
        <ele>2241.4</ele>
        <time>2021-08-12T10:38:00Z</time>
      </trkpt>
      <trkpt lat="45.50141" lon="6.7411">
        <ele>2241.4</ele>
        <time>2021-08-12T10:38:01Z</time>
      </trkpt>
      <trkpt lat="45.50141" lon="6.7411">
        <ele>2241.4</ele>
        <time>2021-08-12T10:38:02Z</time>
      </trkpt>
      <trkpt lat="45.50141" lon="6.7411">
        <ele>2241.4</ele>
        <time>2021-08-12T10:38:03Z</time>
      </trkpt>
      <trkpt lat="45.50141" lon="6.7411">
        <ele>2241.4</ele>
        <time>2021-08-12T10:38:04Z</time>
      </trkpt>
      <trkpt lat="45.50141" lon="6.7411">
        <ele>2241.4</ele>
        <time>2021-08-12T10:38:05Z</time>
      </trkpt>
      <trkpt lat="45.50141" lon="6.7411">
        <ele>2241.4</ele>
        <time>2021-08-12T10:38:06Z</time>
      </trkpt>
      <trkpt lat="45.50141" lon="6.7411">
        <ele>2241.4</ele>
        <time>2021-08-12T10:38:07Z</time>
      </trkpt>
      <trkpt lat="45.50141" lon="6.7411">
        <ele>2241.4</ele>
        <time>2021-08-12T10:38:08Z</time>
      </trkpt>
      <trkpt lat="45.50141" lon="6.7411">
        <ele>2241.4</ele>
        <time>2021-08-12T10:38:09Z</time>
      </trkpt>
      <trkpt lat="45.50141" lon="6.7411">
        <ele>2241.4</ele>
        <time>2021-08-12T10:38:10Z</time>
      </trkpt>
      <trkpt lat="45.50141" lon="6.7411">
        <ele>2241.4</ele>
        <time>2021-08-12T10:38:11Z</time>
      </trkpt>
      <trkpt lat="45.50141" lon="6.7411">
        <ele>2241.4</ele>
        <time>2021-08-12T10:38:12Z</time>
      </trkpt>
      <trkpt lat="45.50141" lon="6.7411">
        <ele>2241.4</ele>
        <time>2021-08-12T10:38:13Z</time>
      </trkpt>
      <trkpt lat="45.50141" lon="6.7411">
        <ele>2241.4</ele>
        <time>2021-08-12T10:38:14Z</time>
      </trkpt>
      <trkpt lat="45.50141" lon="6.7411">
        <ele>2241.4</ele>
        <time>2021-08-12T10:38:15Z</time>
      </trkpt>
      <trkpt lat="45.50141" lon="6.7411">
        <ele>2241.4</ele>
        <time>2021-08-12T10:38:16Z</time>
      </trkpt>
      <trkpt lat="45.50141" lon="6.7411">
        <ele>2241.4</ele>
        <time>2021-08-12T10:38:17Z</time>
      </trkpt>
      <trkpt lat="45.50141" lon="6.7411">
        <ele>2241.4</ele>
        <time>2021-08-12T10:38:18Z</time>
      </trkpt>
      <trkpt lat="45.50141" lon="6.7411">
        <ele>2241.4</ele>
        <time>2021-08-12T10:38:19Z</time>
      </trkpt>
      <trkpt lat="45.50141" lon="6.7411">
        <ele>2241.4</ele>
        <time>2021-08-12T10:38:20Z</time>
      </trkpt>
      <trkpt lat="45.50141" lon="6.7411">
        <ele>2241.4</ele>
        <time>2021-08-12T10:38:21Z</time>
      </trkpt>
      <trkpt lat="45.50141" lon="6.7411">
        <ele>2241.4</ele>
        <time>2021-08-12T10:38:22Z</time>
      </trkpt>
      <trkpt lat="45.50141" lon="6.7411">
        <ele>2241.4</ele>
        <time>2021-08-12T10:38:23Z</time>
      </trkpt>
      <trkpt lat="45.50141" lon="6.7411">
        <ele>2241.4</ele>
        <time>2021-08-12T10:38:24Z</time>
      </trkpt>
      <trkpt lat="45.50141" lon="6.7411">
        <ele>2241.4</ele>
        <time>2021-08-12T10:38:25Z</time>
      </trkpt>
      <trkpt lat="45.50141" lon="6.7411">
        <ele>2241.4</ele>
        <time>2021-08-12T10:38:26Z</time>
      </trkpt>
      <trkpt lat="45.50141" lon="6.7411">
        <ele>2241.4</ele>
        <time>2021-08-12T10:38:27Z</time>
      </trkpt>
      <trkpt lat="45.50141" lon="6.7411">
        <ele>2241.4</ele>
        <time>2021-08-12T10:38:28Z</time>
      </trkpt>
      <trkpt lat="45.50141" lon="6.7411">
        <ele>2241.4</ele>
        <time>2021-08-12T10:38:29Z</time>
      </trkpt>
      <trkpt lat="45.50141" lon="6.7411">
        <ele>2241.4</ele>
        <time>2021-08-12T10:38:30Z</time>
      </trkpt>
      <trkpt lat="45.50141" lon="6.7411">
        <ele>2241.4</ele>
        <time>2021-08-12T10:38:31Z</time>
      </trkpt>
      <trkpt lat="45.50141" lon="6.7411">
        <ele>2241.4</ele>
        <time>2021-08-12T10:38:32Z</time>
      </trkpt>
      <trkpt lat="45.50141" lon="6.7411">
        <ele>2241.4</ele>
        <time>2021-08-12T10:38:33Z</time>
      </trkpt>
      <trkpt lat="45.50141" lon="6.7411">
        <ele>2241.4</ele>
        <time>2021-08-12T10:38:34Z</time>
      </trkpt>
      <trkpt lat="45.50141" lon="6.7411">
        <ele>2241.4</ele>
        <time>2021-08-12T10:38:35Z</time>
      </trkpt>
      <trkpt lat="45.50141" lon="6.7411">
        <ele>2241.4</ele>
        <time>2021-08-12T10:38:36Z</time>
      </trkpt>
      <trkpt lat="45.50141" lon="6.7411">
        <ele>2241.4</ele>
        <time>2021-08-12T10:38:37Z</time>
      </trkpt>
      <trkpt lat="45.50141" lon="6.7411">
        <ele>2241.4</ele>
        <time>2021-08-12T10:38:38Z</time>
      </trkpt>
      <trkpt lat="45.50141" lon="6.7411">
        <ele>2241.4</ele>
        <time>2021-08-12T10:38:39Z</time>
      </trkpt>
      <trkpt lat="45.50141" lon="6.7411">
        <ele>2241.4</ele>
        <time>2021-08-12T10:38:40Z</time>
      </trkpt>
      <trkpt lat="45.50141" lon="6.7411">
        <ele>2241.4</ele>
        <time>2021-08-12T10:38:41Z</time>
      </trkpt>
      <trkpt lat="45.50141" lon="6.7411">
        <ele>2241.4</ele>
        <time>2021-08-12T10:38:42Z</time>
      </trkpt>
      <trkpt lat="45.50141" lon="6.7411">
        <ele>2241.4</ele>
        <time>2021-08-12T10:38:43Z</time>
      </trkpt>
      <trkpt lat="45.50141" lon="6.7411">
        <ele>2241.4</ele>
        <time>2021-08-12T10:38:44Z</time>
      </trkpt>
      <trkpt lat="45.50141" lon="6.7411">
        <ele>2241.4</ele>
        <time>2021-08-12T10:38:45Z</time>
      </trkpt>
      <trkpt lat="45.50141" lon="6.7411">
        <ele>2241.4</ele>
        <time>2021-08-12T10:38:46Z</time>
      </trkpt>
      <trkpt lat="45.50141" lon="6.7411">
        <ele>2241.4</ele>
        <time>2021-08-12T10:38:47Z</time>
      </trkpt>
      <trkpt lat="45.50141" lon="6.7411">
        <ele>2241.4</ele>
        <time>2021-08-12T10:38:48Z</time>
      </trkpt>
      <trkpt lat="45.50141" lon="6.7411">
        <ele>2241.4</ele>
        <time>2021-08-12T10:38:49Z</time>
      </trkpt>
      <trkpt lat="45.50141" lon="6.7411">
        <ele>2241.4</ele>
        <time>2021-08-12T10:38:50Z</time>
      </trkpt>
      <trkpt lat="45.50141" lon="6.7411">
        <ele>2241.4</ele>
        <time>2021-08-12T10:38:51Z</time>
      </trkpt>
      <trkpt lat="45.50141" lon="6.7411">
        <ele>2241.4</ele>
        <time>2021-08-12T10:38:52Z</time>
      </trkpt>
      <trkpt lat="45.50141" lon="6.7411">
        <ele>2241.4</ele>
        <time>2021-08-12T10:38:53Z</time>
      </trkpt>
      <trkpt lat="45.50141" lon="6.7411">
        <ele>2241.4</ele>
        <time>2021-08-12T10:38:54Z</time>
      </trkpt>
      <trkpt lat="45.50141" lon="6.7411">
        <ele>2241.4</ele>
        <time>2021-08-12T10:38:55Z</time>
      </trkpt>
      <trkpt lat="45.50141" lon="6.7411">
        <ele>2241.4</ele>
        <time>2021-08-12T10:38:56Z</time>
      </trkpt>
      <trkpt lat="45.50141" lon="6.7411">
        <ele>2241.4</ele>
        <time>2021-08-12T10:38:57Z</time>
      </trkpt>
      <trkpt lat="45.50141" lon="6.7411">
        <ele>2241.4</ele>
        <time>2021-08-12T10:38:58Z</time>
      </trkpt>
      <trkpt lat="45.50141" lon="6.7411">
        <ele>2241.4</ele>
        <time>2021-08-12T10:38:59Z</time>
      </trkpt>
      <trkpt lat="45.50141" lon="6.7411">
        <ele>2241.4</ele>
        <time>2021-08-12T10:39:00Z</time>
      </trkpt>
      <trkpt lat="45.50141" lon="6.7411">
        <ele>2241.4</ele>
        <time>2021-08-12T10:39:01Z</time>
      </trkpt>
      <trkpt lat="45.50141" lon="6.7411">
        <ele>2241.4</ele>
        <time>2021-08-12T10:39:02Z</time>
      </trkpt>
      <trkpt lat="45.50141" lon="6.7411">
        <ele>2241.4</ele>
        <time>2021-08-12T10:39:03Z</time>
      </trkpt>
      <trkpt lat="45.50141" lon="6.7411">
        <ele>2241.4</ele>
        <time>2021-08-12T10:39:04Z</time>
      </trkpt>
      <trkpt lat="45.50141" lon="6.7411">
        <ele>2241.4</ele>
        <time>2021-08-12T10:39:05Z</time>
      </trkpt>
      <trkpt lat="45.50141" lon="6.7411">
        <ele>2241.4</ele>
        <time>2021-08-12T10:39:06Z</time>
      </trkpt>
      <trkpt lat="45.50141" lon="6.7411">
        <ele>2241.4</ele>
        <time>2021-08-12T10:39:07Z</time>
      </trkpt>
      <trkpt lat="45.50141" lon="6.7411">
        <ele>2241.4</ele>
        <time>2021-08-12T10:39:08Z</time>
      </trkpt>
      <trkpt lat="45.50141" lon="6.7411">
        <ele>2241.4</ele>
        <time>2021-08-12T10:39:09Z</time>
      </trkpt>
      <trkpt lat="45.50141" lon="6.7411">
        <ele>2241.4</ele>
        <time>2021-08-12T10:39:10Z</time>
      </trkpt>
      <trkpt lat="45.50141" lon="6.7411">
        <ele>2241.4</ele>
        <time>2021-08-12T10:39:11Z</time>
      </trkpt>
      <trkpt lat="45.50141" lon="6.7411">
        <ele>2241.4</ele>
        <time>2021-08-12T10:39:12Z</time>
      </trkpt>
      <trkpt lat="45.50141" lon="6.7411">
        <ele>2241.4</ele>
        <time>2021-08-12T10:39:13Z</time>
      </trkpt>
      <trkpt lat="45.50141" lon="6.7411">
        <ele>2241.4</ele>
        <time>2021-08-12T10:39:14Z</time>
      </trkpt>
      <trkpt lat="45.50141" lon="6.7411">
        <ele>2241.4</ele>
        <time>2021-08-12T10:39:15Z</time>
      </trkpt>
      <trkpt lat="45.50141" lon="6.7411">
        <ele>2241.4</ele>
        <time>2021-08-12T10:39:16Z</time>
      </trkpt>
      <trkpt lat="45.50141" lon="6.7411">
        <ele>2241.4</ele>
        <time>2021-08-12T10:39:17Z</time>
      </trkpt>
      <trkpt lat="45.50141" lon="6.7411">
        <ele>2241.4</ele>
        <time>2021-08-12T10:39:18Z</time>
      </trkpt>
      <trkpt lat="45.50141" lon="6.7411">
        <ele>2241.4</ele>
        <time>2021-08-12T10:39:19Z</time>
      </trkpt>
      <trkpt lat="45.50141" lon="6.7411">
        <ele>2241.4</ele>
        <time>2021-08-12T10:39:20Z</time>
      </trkpt>
      <trkpt lat="45.50141" lon="6.7411">
        <ele>2241.4</ele>
        <time>2021-08-12T10:39:21Z</time>
      </trkpt>
      <trkpt lat="45.50141" lon="6.7411">
        <ele>2241.4</ele>
        <time>2021-08-12T10:39:22Z</time>
      </trkpt>
      <trkpt lat="45.50141" lon="6.7411">
        <ele>2241.4</ele>
        <time>2021-08-12T10:39:23Z</time>
      </trkpt>
      <trkpt lat="45.50141" lon="6.7411">
        <ele>2241.4</ele>
        <time>2021-08-12T10:39:24Z</time>
      </trkpt>
      <trkpt lat="45.50141" lon="6.7411">
        <ele>2241.4</ele>
        <time>2021-08-12T10:39:25Z</time>
      </trkpt>
      <trkpt lat="45.50141" lon="6.7411">
        <ele>2241.4</ele>
        <time>2021-08-12T10:39:26Z</time>
      </trkpt>
      <trkpt lat="45.50141" lon="6.7411">
        <ele>2241.4</ele>
        <time>2021-08-12T10:39:27Z</time>
      </trkpt>
      <trkpt lat="45.50141" lon="6.7411">
        <ele>2241.4</ele>
        <time>2021-08-12T10:39:28Z</time>
      </trkpt>
      <trkpt lat="45.50141" lon="6.7411">
        <ele>2241.4</ele>
        <time>2021-08-12T10:39:29Z</time>
      </trkpt>
      <trkpt lat="45.50141" lon="6.7411">
        <ele>2241.4</ele>
        <time>2021-08-12T10:39:30Z</time>
      </trkpt>
      <trkpt lat="45.50141" lon="6.7411">
        <ele>2241.4</ele>
        <time>2021-08-12T10:39:31Z</time>
      </trkpt>
      <trkpt lat="45.50141" lon="6.7411">
        <ele>2241.4</ele>
        <time>2021-08-12T10:39:32Z</time>
      </trkpt>
      <trkpt lat="45.50141" lon="6.7411">
        <ele>2241.4</ele>
        <time>2021-08-12T10:39:33Z</time>
      </trkpt>
      <trkpt lat="45.50141" lon="6.7411">
        <ele>2241.4</ele>
        <time>2021-08-12T10:39:34Z</time>
      </trkpt>
      <trkpt lat="45.50141" lon="6.7411">
        <ele>2241.4</ele>
        <time>2021-08-12T10:39:35Z</time>
      </trkpt>
      <trkpt lat="45.50141" lon="6.7411">
        <ele>2241.4</ele>
        <time>2021-08-12T10:39:36Z</time>
      </trkpt>
      <trkpt lat="45.50141" lon="6.7411">
        <ele>2241.4</ele>
        <time>2021-08-12T10:39:37Z</time>
      </trkpt>
      <trkpt lat="45.50141" lon="6.7411">
        <ele>2241.4</ele>
        <time>2021-08-12T10:39:38Z</time>
      </trkpt>
      <trkpt lat="45.50141" lon="6.7411">
        <ele>2241.4</ele>
        <time>2021-08-12T10:39:39Z</time>
      </trkpt>
      <trkpt lat="45.50141" lon="6.7411">
        <ele>2241.4</ele>
        <time>2021-08-12T10:39:40Z</time>
      </trkpt>
      <trkpt lat="45.50141" lon="6.7411">
        <ele>2241.4</ele>
        <time>2021-08-12T10:39:41Z</time>
      </trkpt>
      <trkpt lat="45.50141" lon="6.7411">
        <ele>2241.4</ele>
        <time>2021-08-12T10:39:42Z</time>
      </trkpt>
      <trkpt lat="45.50141" lon="6.7411">
        <ele>2241.4</ele>
        <time>2021-08-12T10:39:43Z</time>
      </trkpt>
      <trkpt lat="45.50141" lon="6.7411">
        <ele>2241.4</ele>
        <time>2021-08-12T10:39:44Z</time>
      </trkpt>
      <trkpt lat="45.50141" lon="6.7411">
        <ele>2241.4</ele>
        <time>2021-08-12T10:39:45Z</time>
      </trkpt>
      <trkpt lat="45.50141" lon="6.7411">
        <ele>2241.4</ele>
        <time>2021-08-12T10:39:46Z</time>
      </trkpt>
      <trkpt lat="45.50141" lon="6.7411">
        <ele>2241.4</ele>
        <time>2021-08-12T10:39:47Z</time>
      </trkpt>
      <trkpt lat="45.50141" lon="6.7411">
        <ele>2241.4</ele>
        <time>2021-08-12T10:39:48Z</time>
      </trkpt>
      <trkpt lat="45.50141" lon="6.7411">
        <ele>2241.4</ele>
        <time>2021-08-12T10:39:49Z</time>
      </trkpt>
      <trkpt lat="45.50141" lon="6.7411">
        <ele>2241.4</ele>
        <time>2021-08-12T10:39:50Z</time>
      </trkpt>
      <trkpt lat="45.50141" lon="6.7411">
        <ele>2241.4</ele>
        <time>2021-08-12T10:39:51Z</time>
      </trkpt>
      <trkpt lat="45.50141" lon="6.7411">
        <ele>2241.4</ele>
        <time>2021-08-12T10:39:52Z</time>
      </trkpt>
      <trkpt lat="45.50141" lon="6.7411">
        <ele>2241.4</ele>
        <time>2021-08-12T10:39:53Z</time>
      </trkpt>
      <trkpt lat="45.50141" lon="6.7411">
        <ele>2241.4</ele>
        <time>2021-08-12T10:39:54Z</time>
      </trkpt>
      <trkpt lat="45.50141" lon="6.7411">
        <ele>2241.4</ele>
        <time>2021-08-12T10:39:55Z</time>
      </trkpt>
      <trkpt lat="45.50141" lon="6.7411">
        <ele>2241.4</ele>
        <time>2021-08-12T10:39:56Z</time>
      </trkpt>
      <trkpt lat="45.50141" lon="6.7411">
        <ele>2241.4</ele>
        <time>2021-08-12T10:39:57Z</time>
      </trkpt>
      <trkpt lat="45.50141" lon="6.7411">
        <ele>2241.4</ele>
        <time>2021-08-12T10:39:58Z</time>
      </trkpt>
      <trkpt lat="45.50141" lon="6.7411">
        <ele>2241.4</ele>
        <time>2021-08-12T10:39:59Z</time>
      </trkpt>
      <trkpt lat="45.50141" lon="6.7411">
        <ele>2241.4</ele>
        <time>2021-08-12T10:40:00Z</time>
      </trkpt>
      <trkpt lat="45.50141" lon="6.7411">
        <ele>2241.4</ele>
        <time>2021-08-12T10:40:01Z</time>
      </trkpt>
      <trkpt lat="45.50141" lon="6.7411">
        <ele>2241.4</ele>
        <time>2021-08-12T10:40:02Z</time>
      </trkpt>
      <trkpt lat="45.50141" lon="6.7411">
        <ele>2241.4</ele>
        <time>2021-08-12T10:40:03Z</time>
      </trkpt>
      <trkpt lat="45.50141" lon="6.7411">
        <ele>2241.4</ele>
        <time>2021-08-12T10:40:04Z</time>
      </trkpt>
      <trkpt lat="45.50141" lon="6.7411">
        <ele>2241.4</ele>
        <time>2021-08-12T10:40:05Z</time>
      </trkpt>
      <trkpt lat="45.50141" lon="6.7411">
        <ele>2241.4</ele>
        <time>2021-08-12T10:40:06Z</time>
      </trkpt>
      <trkpt lat="45.50141" lon="6.7411">
        <ele>2241.4</ele>
        <time>2021-08-12T10:40:07Z</time>
      </trkpt>
      <trkpt lat="45.50141" lon="6.7411">
        <ele>2241.4</ele>
        <time>2021-08-12T10:40:08Z</time>
      </trkpt>
      <trkpt lat="45.50141" lon="6.7411">
        <ele>2241.4</ele>
        <time>2021-08-12T10:40:09Z</time>
      </trkpt>
      <trkpt lat="45.50141" lon="6.7411">
        <ele>2241.4</ele>
        <time>2021-08-12T10:40:10Z</time>
      </trkpt>
      <trkpt lat="45.50141" lon="6.7411">
        <ele>2241.4</ele>
        <time>2021-08-12T10:40:11Z</time>
      </trkpt>
      <trkpt lat="45.50141" lon="6.7411">
        <ele>2241.4</ele>
        <time>2021-08-12T10:40:12Z</time>
      </trkpt>
      <trkpt lat="45.50141" lon="6.7411">
        <ele>2241.4</ele>
        <time>2021-08-12T10:40:13Z</time>
      </trkpt>
      <trkpt lat="45.50141" lon="6.7411">
        <ele>2241.4</ele>
        <time>2021-08-12T10:40:14Z</time>
      </trkpt>
      <trkpt lat="45.50141" lon="6.7411">
        <ele>2241.4</ele>
        <time>2021-08-12T10:40:15Z</time>
      </trkpt>
      <trkpt lat="45.50141" lon="6.7411">
        <ele>2241.4</ele>
        <time>2021-08-12T10:40:16Z</time>
      </trkpt>
      <trkpt lat="45.50141" lon="6.7411">
        <ele>2241.4</ele>
        <time>2021-08-12T10:40:17Z</time>
      </trkpt>
      <trkpt lat="45.50141" lon="6.7411">
        <ele>2241.4</ele>
        <time>2021-08-12T10:40:18Z</time>
      </trkpt>
      <trkpt lat="45.50141" lon="6.7411">
        <ele>2241.4</ele>
        <time>2021-08-12T10:40:19Z</time>
      </trkpt>
      <trkpt lat="45.50141" lon="6.7411">
        <ele>2241.4</ele>
        <time>2021-08-12T10:40:20Z</time>
      </trkpt>
      <trkpt lat="45.50141" lon="6.7411">
        <ele>2241.4</ele>
        <time>2021-08-12T10:40:21Z</time>
      </trkpt>
      <trkpt lat="45.50141" lon="6.7411">
        <ele>2241.4</ele>
        <time>2021-08-12T10:40:22Z</time>
      </trkpt>
      <trkpt lat="45.50141" lon="6.7411">
        <ele>2241.4</ele>
        <time>2021-08-12T10:40:23Z</time>
      </trkpt>
      <trkpt lat="45.50141" lon="6.7411">
        <ele>2241.4</ele>
        <time>2021-08-12T10:40:24Z</time>
      </trkpt>
      <trkpt lat="45.50141" lon="6.7411">
        <ele>2241.4</ele>
        <time>2021-08-12T10:40:25Z</time>
      </trkpt>
      <trkpt lat="45.50141" lon="6.7411">
        <ele>2241.4</ele>
        <time>2021-08-12T10:40:26Z</time>
      </trkpt>
      <trkpt lat="45.50141" lon="6.7411">
        <ele>2241.4</ele>
        <time>2021-08-12T10:40:27Z</time>
      </trkpt>
      <trkpt lat="45.50141" lon="6.7411">
        <ele>2241.4</ele>
        <time>2021-08-12T10:40:28Z</time>
      </trkpt>
      <trkpt lat="45.50141" lon="6.7411">
        <ele>2241.4</ele>
        <time>2021-08-12T10:40:29Z</time>
      </trkpt>
      <trkpt lat="45.50141" lon="6.7411">
        <ele>2241.4</ele>
        <time>2021-08-12T10:40:30Z</time>
      </trkpt>
      <trkpt lat="45.50141" lon="6.7411">
        <ele>2241.4</ele>
        <time>2021-08-12T10:40:31Z</time>
      </trkpt>
      <trkpt lat="45.50141" lon="6.7411">
        <ele>2241.4</ele>
        <time>2021-08-12T10:40:32Z</time>
      </trkpt>
      <trkpt lat="45.50141" lon="6.7411">
        <ele>2241.4</ele>
        <time>2021-08-12T10:40:33Z</time>
      </trkpt>
      <trkpt lat="45.50141" lon="6.7411">
        <ele>2241.4</ele>
        <time>2021-08-12T10:40:34Z</time>
      </trkpt>
      <trkpt lat="45.50141" lon="6.7411">
        <ele>2241.4</ele>
        <time>2021-08-12T10:40:35Z</time>
      </trkpt>
      <trkpt lat="45.50141" lon="6.7411">
        <ele>2241.4</ele>
        <time>2021-08-12T10:40:36Z</time>
      </trkpt>
      <trkpt lat="45.50141" lon="6.7411">
        <ele>2241.4</ele>
        <time>2021-08-12T10:40:37Z</time>
      </trkpt>
      <trkpt lat="45.50141" lon="6.7411">
        <ele>2241.4</ele>
        <time>2021-08-12T10:40:38Z</time>
      </trkpt>
      <trkpt lat="45.50141" lon="6.7411">
        <ele>2241.4</ele>
        <time>2021-08-12T10:40:39Z</time>
      </trkpt>
      <trkpt lat="45.50141" lon="6.7411">
        <ele>2241.4</ele>
        <time>2021-08-12T10:40:40Z</time>
      </trkpt>
      <trkpt lat="45.50141" lon="6.7411">
        <ele>2241.4</ele>
        <time>2021-08-12T10:40:41Z</time>
      </trkpt>
      <trkpt lat="45.50141" lon="6.7411">
        <ele>2241.4</ele>
        <time>2021-08-12T10:40:42Z</time>
      </trkpt>
      <trkpt lat="45.50141" lon="6.7411">
        <ele>2241.4</ele>
        <time>2021-08-12T10:40:43Z</time>
      </trkpt>
      <trkpt lat="45.50141" lon="6.7411">
        <ele>2241.4</ele>
        <time>2021-08-12T10:40:44Z</time>
      </trkpt>
      <trkpt lat="45.50141" lon="6.7411">
        <ele>2241.4</ele>
        <time>2021-08-12T10:40:45Z</time>
      </trkpt>
      <trkpt lat="45.50141" lon="6.7411">
        <ele>2241.4</ele>
        <time>2021-08-12T10:40:46Z</time>
      </trkpt>
      <trkpt lat="45.50141" lon="6.7411">
        <ele>2241.4</ele>
        <time>2021-08-12T10:40:47Z</time>
      </trkpt>
      <trkpt lat="45.50141" lon="6.7411">
        <ele>2241.4</ele>
        <time>2021-08-12T10:40:48Z</time>
      </trkpt>
      <trkpt lat="45.50141" lon="6.7411">
        <ele>2241.4</ele>
        <time>2021-08-12T10:40:49Z</time>
      </trkpt>
      <trkpt lat="45.50141" lon="6.7411">
        <ele>2241.4</ele>
        <time>2021-08-12T10:40:50Z</time>
      </trkpt>
      <trkpt lat="45.50141" lon="6.7411">
        <ele>2241.4</ele>
        <time>2021-08-12T10:40:51Z</time>
      </trkpt>
      <trkpt lat="45.50141" lon="6.7411">
        <ele>2241.4</ele>
        <time>2021-08-12T10:40:52Z</time>
      </trkpt>
      <trkpt lat="45.50141" lon="6.7411">
        <ele>2241.4</ele>
        <time>2021-08-12T10:40:53Z</time>
      </trkpt>
      <trkpt lat="45.50141" lon="6.7411">
        <ele>2241.4</ele>
        <time>2021-08-12T10:40:54Z</time>
      </trkpt>
      <trkpt lat="45.50141" lon="6.7411">
        <ele>2241.4</ele>
        <time>2021-08-12T10:40:55Z</time>
      </trkpt>
      <trkpt lat="45.50141" lon="6.7411">
        <ele>2241.4</ele>
        <time>2021-08-12T10:40:56Z</time>
      </trkpt>
      <trkpt lat="45.50141" lon="6.7411">
        <ele>2241.4</ele>
        <time>2021-08-12T10:40:57Z</time>
      </trkpt>
      <trkpt lat="45.50141" lon="6.7411">
        <ele>2241.4</ele>
        <time>2021-08-12T10:40:58Z</time>
      </trkpt>
      <trkpt lat="45.50141" lon="6.7411">
        <ele>2241.4</ele>
        <time>2021-08-12T10:40:59Z</time>
      </trkpt>
      <trkpt lat="45.50141" lon="6.7411">
        <ele>2241.4</ele>
        <time>2021-08-12T10:41:00Z</time>
      </trkpt>
      <trkpt lat="45.50141" lon="6.7411">
        <ele>2241.4</ele>
        <time>2021-08-12T10:41:01Z</time>
      </trkpt>
      <trkpt lat="45.50141" lon="6.7411">
        <ele>2241.4</ele>
        <time>2021-08-12T10:41:02Z</time>
      </trkpt>
      <trkpt lat="45.50141" lon="6.7411">
        <ele>2241.4</ele>
        <time>2021-08-12T10:41:03Z</time>
      </trkpt>
      <trkpt lat="45.50141" lon="6.7411">
        <ele>2241.4</ele>
        <time>2021-08-12T10:41:04Z</time>
      </trkpt>
      <trkpt lat="45.50141" lon="6.7411">
        <ele>2241.4</ele>
        <time>2021-08-12T10:41:05Z</time>
      </trkpt>
      <trkpt lat="45.50141" lon="6.7411">
        <ele>2241.4</ele>
        <time>2021-08-12T10:41:06Z</time>
      </trkpt>
      <trkpt lat="45.50141" lon="6.7411">
        <ele>2241.4</ele>
        <time>2021-08-12T10:41:07Z</time>
      </trkpt>
      <trkpt lat="45.50141" lon="6.7411">
        <ele>2241.4</ele>
        <time>2021-08-12T10:41:08Z</time>
      </trkpt>
      <trkpt lat="45.50141" lon="6.7411">
        <ele>2241.4</ele>
        <time>2021-08-12T10:41:09Z</time>
      </trkpt>
      <trkpt lat="45.50141" lon="6.7411">
        <ele>2241.4</ele>
        <time>2021-08-12T10:41:10Z</time>
      </trkpt>
      <trkpt lat="45.50141" lon="6.7411">
        <ele>2241.4</ele>
        <time>2021-08-12T10:41:11Z</time>
      </trkpt>
      <trkpt lat="45.50141" lon="6.7411">
        <ele>2241.4</ele>
        <time>2021-08-12T10:41:12Z</time>
      </trkpt>
      <trkpt lat="45.50141" lon="6.7411">
        <ele>2241.4</ele>
        <time>2021-08-12T10:41:13Z</time>
      </trkpt>
      <trkpt lat="45.50141" lon="6.7411">
        <ele>2241.4</ele>
        <time>2021-08-12T10:41:14Z</time>
      </trkpt>
      <trkpt lat="45.50141" lon="6.7411">
        <ele>2241.4</ele>
        <time>2021-08-12T10:41:15Z</time>
      </trkpt>
      <trkpt lat="45.50141" lon="6.7411">
        <ele>2241.4</ele>
        <time>2021-08-12T10:41:16Z</time>
      </trkpt>
      <trkpt lat="45.50141" lon="6.7411">
        <ele>2241.4</ele>
        <time>2021-08-12T10:41:17Z</time>
      </trkpt>
      <trkpt lat="45.50141" lon="6.7411">
        <ele>2241.4</ele>
        <time>2021-08-12T10:41:18Z</time>
      </trkpt>
      <trkpt lat="45.50141" lon="6.7411">
        <ele>2241.4</ele>
        <time>2021-08-12T10:41:19Z</time>
      </trkpt>
      <trkpt lat="45.50141" lon="6.7411">
        <ele>2241.4</ele>
        <time>2021-08-12T10:41:20Z</time>
      </trkpt>
      <trkpt lat="45.50141" lon="6.7411">
        <ele>2241.4</ele>
        <time>2021-08-12T10:41:21Z</time>
      </trkpt>
      <trkpt lat="45.50141" lon="6.7411">
        <ele>2241.4</ele>
        <time>2021-08-12T10:41:22Z</time>
      </trkpt>
      <trkpt lat="45.50141" lon="6.7411">
        <ele>2241.4</ele>
        <time>2021-08-12T10:41:23Z</time>
      </trkpt>
      <trkpt lat="45.50141" lon="6.7411">
        <ele>2241.4</ele>
        <time>2021-08-12T10:41:24Z</time>
      </trkpt>
      <trkpt lat="45.50141" lon="6.7411">
        <ele>2241.4</ele>
        <time>2021-08-12T10:41:25Z</time>
      </trkpt>
      <trkpt lat="45.50141" lon="6.7411">
        <ele>2241.4</ele>
        <time>2021-08-12T10:41:26Z</time>
      </trkpt>
      <trkpt lat="45.50141" lon="6.7411">
        <ele>2241.4</ele>
        <time>2021-08-12T10:41:27Z</time>
      </trkpt>
      <trkpt lat="45.50141" lon="6.7411">
        <ele>2241.4</ele>
        <time>2021-08-12T10:41:28Z</time>
      </trkpt>
      <trkpt lat="45.50141" lon="6.7411">
        <ele>2241.4</ele>
        <time>2021-08-12T10:41:29Z</time>
      </trkpt>
      <trkpt lat="45.50141" lon="6.7411">
        <ele>2241.4</ele>
        <time>2021-08-12T10:41:30Z</time>
      </trkpt>
      <trkpt lat="45.50141" lon="6.7411">
        <ele>2241.4</ele>
        <time>2021-08-12T10:41:31Z</time>
      </trkpt>
      <trkpt lat="45.50141" lon="6.7411">
        <ele>2241.4</ele>
        <time>2021-08-12T10:41:32Z</time>
      </trkpt>
      <trkpt lat="45.50141" lon="6.7411">
        <ele>2241.4</ele>
        <time>2021-08-12T10:41:33Z</time>
      </trkpt>
      <trkpt lat="45.50141" lon="6.7411">
        <ele>2241.4</ele>
        <time>2021-08-12T10:41:34Z</time>
      </trkpt>
      <trkpt lat="45.50141" lon="6.7411">
        <ele>2241.4</ele>
        <time>2021-08-12T10:41:35Z</time>
      </trkpt>
      <trkpt lat="45.50141" lon="6.7411">
        <ele>2241.4</ele>
        <time>2021-08-12T10:41:36Z</time>
      </trkpt>
      <trkpt lat="45.50141" lon="6.7411">
        <ele>2241.4</ele>
        <time>2021-08-12T10:41:37Z</time>
      </trkpt>
      <trkpt lat="45.50141" lon="6.7411">
        <ele>2241.4</ele>
        <time>2021-08-12T10:41:38Z</time>
      </trkpt>
      <trkpt lat="45.50141" lon="6.7411">
        <ele>2241.4</ele>
        <time>2021-08-12T10:41:39Z</time>
      </trkpt>
      <trkpt lat="45.50141" lon="6.7411">
        <ele>2241.4</ele>
        <time>2021-08-12T10:41:40Z</time>
      </trkpt>
      <trkpt lat="45.50141" lon="6.7411">
        <ele>2241.4</ele>
        <time>2021-08-12T10:41:41Z</time>
      </trkpt>
      <trkpt lat="45.50141" lon="6.7411">
        <ele>2241.4</ele>
        <time>2021-08-12T10:41:42Z</time>
      </trkpt>
      <trkpt lat="45.50141" lon="6.7411">
        <ele>2241.4</ele>
        <time>2021-08-12T10:41:43Z</time>
      </trkpt>
      <trkpt lat="45.50141" lon="6.7411">
        <ele>2241.4</ele>
        <time>2021-08-12T10:41:44Z</time>
      </trkpt>
      <trkpt lat="45.50141" lon="6.7411">
        <ele>2241.4</ele>
        <time>2021-08-12T10:41:45Z</time>
      </trkpt>
      <trkpt lat="45.50141" lon="6.7411">
        <ele>2241.4</ele>
        <time>2021-08-12T10:41:46Z</time>
      </trkpt>
      <trkpt lat="45.50141" lon="6.7411">
        <ele>2241.4</ele>
        <time>2021-08-12T10:41:47Z</time>
      </trkpt>
      <trkpt lat="45.50141" lon="6.7411">
        <ele>2241.4</ele>
        <time>2021-08-12T10:41:48Z</time>
      </trkpt>
      <trkpt lat="45.50141" lon="6.7411">
        <ele>2241.4</ele>
        <time>2021-08-12T10:41:49Z</time>
      </trkpt>
      <trkpt lat="45.50141" lon="6.7411">
        <ele>2241.4</ele>
        <time>2021-08-12T10:41:50Z</time>
      </trkpt>
      <trkpt lat="45.50141" lon="6.7411">
        <ele>2241.4</ele>
        <time>2021-08-12T10:41:51Z</time>
      </trkpt>
      <trkpt lat="45.50141" lon="6.7411">
        <ele>2241.4</ele>
        <time>2021-08-12T10:41:52Z</time>
      </trkpt>
      <trkpt lat="45.50141" lon="6.7411">
        <ele>2241.4</ele>
        <time>2021-08-12T10:41:53Z</time>
      </trkpt>
      <trkpt lat="45.50141" lon="6.7411">
        <ele>2241.4</ele>
        <time>2021-08-12T10:41:54Z</time>
      </trkpt>
      <trkpt lat="45.50141" lon="6.7411">
        <ele>2241.4</ele>
        <time>2021-08-12T10:41:55Z</time>
      </trkpt>
      <trkpt lat="45.50141" lon="6.7411">
        <ele>2241.4</ele>
        <time>2021-08-12T10:41:56Z</time>
      </trkpt>
      <trkpt lat="45.50141" lon="6.7411">
        <ele>2241.4</ele>
        <time>2021-08-12T10:41:57Z</time>
      </trkpt>
      <trkpt lat="45.50141" lon="6.7411">
        <ele>2241.4</ele>
        <time>2021-08-12T10:41:58Z</time>
      </trkpt>
      <trkpt lat="45.50141" lon="6.7411">
        <ele>2241.4</ele>
        <time>2021-08-12T10:41:59Z</time>
      </trkpt>
      <trkpt lat="45.50141" lon="6.7411">
        <ele>2241.4</ele>
        <time>2021-08-12T10:42:00Z</time>
      </trkpt>
      <trkpt lat="45.50141" lon="6.7411">
        <ele>2241.4</ele>
        <time>2021-08-12T10:42:01Z</time>
      </trkpt>
      <trkpt lat="45.50141" lon="6.7411">
        <ele>2241.4</ele>
        <time>2021-08-12T10:42:02Z</time>
      </trkpt>
      <trkpt lat="45.50141" lon="6.7411">
        <ele>2241.4</ele>
        <time>2021-08-12T10:42:03Z</time>
      </trkpt>
      <trkpt lat="45.50141" lon="6.7411">
        <ele>2241.4</ele>
        <time>2021-08-12T10:42:04Z</time>
      </trkpt>
      <trkpt lat="45.50141" lon="6.7411">
        <ele>2241.4</ele>
        <time>2021-08-12T10:42:05Z</time>
      </trkpt>
      <trkpt lat="45.50141" lon="6.7411">
        <ele>2241.4</ele>
        <time>2021-08-12T10:42:06Z</time>
      </trkpt>
      <trkpt lat="45.50141" lon="6.7411">
        <ele>2241.4</ele>
        <time>2021-08-12T10:42:07Z</time>
      </trkpt>
      <trkpt lat="45.50141" lon="6.7411">
        <ele>2241.4</ele>
        <time>2021-08-12T10:42:08Z</time>
      </trkpt>
      <trkpt lat="45.50141" lon="6.7411">
        <ele>2241.4</ele>
        <time>2021-08-12T10:42:09Z</time>
      </trkpt>
      <trkpt lat="45.50141" lon="6.7411">
        <ele>2241.4</ele>
        <time>2021-08-12T10:42:10Z</time>
      </trkpt>
      <trkpt lat="45.50141" lon="6.7411">
        <ele>2241.4</ele>
        <time>2021-08-12T10:42:11Z</time>
      </trkpt>
      <trkpt lat="45.50141" lon="6.7411">
        <ele>2241.4</ele>
        <time>2021-08-12T10:42:12Z</time>
      </trkpt>
      <trkpt lat="45.50141" lon="6.7411">
        <ele>2241.4</ele>
        <time>2021-08-12T10:42:13Z</time>
      </trkpt>
      <trkpt lat="45.50141" lon="6.7411">
        <ele>2241.4</ele>
        <time>2021-08-12T10:42:14Z</time>
      </trkpt>
      <trkpt lat="45.50141" lon="6.7411">
        <ele>2241.4</ele>
        <time>2021-08-12T10:42:15Z</time>
      </trkpt>
      <trkpt lat="45.50141" lon="6.7411">
        <ele>2241.4</ele>
        <time>2021-08-12T10:42:16Z</time>
      </trkpt>
      <trkpt lat="45.50141" lon="6.7411">
        <ele>2241.4</ele>
        <time>2021-08-12T10:42:17Z</time>
      </trkpt>
      <trkpt lat="45.50141" lon="6.7411">
        <ele>2241.4</ele>
        <time>2021-08-12T10:42:18Z</time>
      </trkpt>
      <trkpt lat="45.50141" lon="6.7411">
        <ele>2241.4</ele>
        <time>2021-08-12T10:42:19Z</time>
      </trkpt>
      <trkpt lat="45.50141" lon="6.7411">
        <ele>2241.4</ele>
        <time>2021-08-12T10:42:20Z</time>
      </trkpt>
      <trkpt lat="45.50141" lon="6.7411">
        <ele>2241.4</ele>
        <time>2021-08-12T10:42:21Z</time>
      </trkpt>
      <trkpt lat="45.50141" lon="6.7411">
        <ele>2241.4</ele>
        <time>2021-08-12T10:42:22Z</time>
      </trkpt>
      <trkpt lat="45.50141" lon="6.7411">
        <ele>2241.4</ele>
        <time>2021-08-12T10:42:23Z</time>
      </trkpt>
      <trkpt lat="45.50141" lon="6.7411">
        <ele>2241.4</ele>
        <time>2021-08-12T10:42:24Z</time>
      </trkpt>
      <trkpt lat="45.50141" lon="6.7411">
        <ele>2241.4</ele>
        <time>2021-08-12T10:42:25Z</time>
      </trkpt>
      <trkpt lat="45.50141" lon="6.7411">
        <ele>2241.4</ele>
        <time>2021-08-12T10:42:26Z</time>
      </trkpt>
      <trkpt lat="45.50141" lon="6.7411">
        <ele>2241.4</ele>
        <time>2021-08-12T10:42:27Z</time>
      </trkpt>
      <trkpt lat="45.50141" lon="6.7411">
        <ele>2241.4</ele>
        <time>2021-08-12T10:42:28Z</time>
      </trkpt>
      <trkpt lat="45.50141" lon="6.7411">
        <ele>2241.4</ele>
        <time>2021-08-12T10:42:29Z</time>
      </trkpt>
      <trkpt lat="45.50141" lon="6.7411">
        <ele>2241.4</ele>
        <time>2021-08-12T10:42:30Z</time>
      </trkpt>
      <trkpt lat="45.50141" lon="6.7411">
        <ele>2241.4</ele>
        <time>2021-08-12T10:42:31Z</time>
      </trkpt>
      <trkpt lat="45.50141" lon="6.7411">
        <ele>2241.4</ele>
        <time>2021-08-12T10:42:32Z</time>
      </trkpt>
      <trkpt lat="45.50141" lon="6.7411">
        <ele>2241.4</ele>
        <time>2021-08-12T10:42:33Z</time>
      </trkpt>
      <trkpt lat="45.50141" lon="6.7411">
        <ele>2241.4</ele>
        <time>2021-08-12T10:42:34Z</time>
      </trkpt>
      <trkpt lat="45.50141" lon="6.7411">
        <ele>2241.4</ele>
        <time>2021-08-12T10:42:35Z</time>
      </trkpt>
      <trkpt lat="45.50141" lon="6.7411">
        <ele>2241.4</ele>
        <time>2021-08-12T10:42:36Z</time>
      </trkpt>
      <trkpt lat="45.50141" lon="6.7411">
        <ele>2241.4</ele>
        <time>2021-08-12T10:42:37Z</time>
      </trkpt>
      <trkpt lat="45.50141" lon="6.7411">
        <ele>2241.4</ele>
        <time>2021-08-12T10:42:38Z</time>
      </trkpt>
      <trkpt lat="45.50141" lon="6.7411">
        <ele>2241.4</ele>
        <time>2021-08-12T10:42:39Z</time>
      </trkpt>
      <trkpt lat="45.50141" lon="6.7411">
        <ele>2241.4</ele>
        <time>2021-08-12T10:42:40Z</time>
      </trkpt>
      <trkpt lat="45.50141" lon="6.7411">
        <ele>2241.4</ele>
        <time>2021-08-12T10:42:41Z</time>
      </trkpt>
      <trkpt lat="45.50141" lon="6.7411">
        <ele>2241.4</ele>
        <time>2021-08-12T10:42:42Z</time>
      </trkpt>
      <trkpt lat="45.50141" lon="6.7411">
        <ele>2241.4</ele>
        <time>2021-08-12T10:42:43Z</time>
      </trkpt>
      <trkpt lat="45.50141" lon="6.7411">
        <ele>2241.4</ele>
        <time>2021-08-12T10:42:44Z</time>
      </trkpt>
      <trkpt lat="45.50141" lon="6.7411">
        <ele>2241.4</ele>
        <time>2021-08-12T10:42:45Z</time>
      </trkpt>
      <trkpt lat="45.50141" lon="6.7411">
        <ele>2241.4</ele>
        <time>2021-08-12T10:42:46Z</time>
      </trkpt>
      <trkpt lat="45.50141" lon="6.7411">
        <ele>2241.4</ele>
        <time>2021-08-12T10:42:47Z</time>
      </trkpt>
      <trkpt lat="45.50141" lon="6.7411">
        <ele>2241.4</ele>
        <time>2021-08-12T10:42:48Z</time>
      </trkpt>
      <trkpt lat="45.50141" lon="6.7411">
        <ele>2241.4</ele>
        <time>2021-08-12T10:42:49Z</time>
      </trkpt>
      <trkpt lat="45.50141" lon="6.7411">
        <ele>2241.4</ele>
        <time>2021-08-12T10:42:50Z</time>
      </trkpt>
      <trkpt lat="45.50141" lon="6.7411">
        <ele>2241.4</ele>
        <time>2021-08-12T10:42:51Z</time>
      </trkpt>
      <trkpt lat="45.50141" lon="6.7411">
        <ele>2241.4</ele>
        <time>2021-08-12T10:42:52Z</time>
      </trkpt>
      <trkpt lat="45.50141" lon="6.7411">
        <ele>2241.4</ele>
        <time>2021-08-12T10:42:53Z</time>
      </trkpt>
      <trkpt lat="45.50141" lon="6.7411">
        <ele>2241.4</ele>
        <time>2021-08-12T10:42:54Z</time>
      </trkpt>
      <trkpt lat="45.50141" lon="6.7411">
        <ele>2241.4</ele>
        <time>2021-08-12T10:42:55Z</time>
      </trkpt>
      <trkpt lat="45.50141" lon="6.7411">
        <ele>2241.4</ele>
        <time>2021-08-12T10:42:56Z</time>
      </trkpt>
      <trkpt lat="45.50141" lon="6.7411">
        <ele>2241.4</ele>
        <time>2021-08-12T10:42:57Z</time>
      </trkpt>
      <trkpt lat="45.50141" lon="6.7411">
        <ele>2241.4</ele>
        <time>2021-08-12T10:42:58Z</time>
      </trkpt>
      <trkpt lat="45.50141" lon="6.7411">
        <ele>2241.4</ele>
        <time>2021-08-12T10:42:59Z</time>
      </trkpt>
      <trkpt lat="45.50141" lon="6.7411">
        <ele>2241.4</ele>
        <time>2021-08-12T10:43:00Z</time>
      </trkpt>
      <trkpt lat="45.50141" lon="6.7411">
        <ele>2241.4</ele>
        <time>2021-08-12T10:43:01Z</time>
      </trkpt>
      <trkpt lat="45.50141" lon="6.7411">
        <ele>2241.4</ele>
        <time>2021-08-12T10:43:02Z</time>
      </trkpt>
      <trkpt lat="45.50141" lon="6.7411">
        <ele>2241.4</ele>
        <time>2021-08-12T10:43:03Z</time>
      </trkpt>
      <trkpt lat="45.50141" lon="6.7411">
        <ele>2241.4</ele>
        <time>2021-08-12T10:43:04Z</time>
      </trkpt>
      <trkpt lat="45.50141" lon="6.7411">
        <ele>2241.4</ele>
        <time>2021-08-12T10:43:05Z</time>
      </trkpt>
      <trkpt lat="45.50141" lon="6.7411">
        <ele>2241.4</ele>
        <time>2021-08-12T10:43:06Z</time>
      </trkpt>
      <trkpt lat="45.50141" lon="6.7411">
        <ele>2241.4</ele>
        <time>2021-08-12T10:43:07Z</time>
      </trkpt>
      <trkpt lat="45.50141" lon="6.7411">
        <ele>2241.4</ele>
        <time>2021-08-12T10:43:08Z</time>
      </trkpt>
      <trkpt lat="45.50141" lon="6.7411">
        <ele>2241.4</ele>
        <time>2021-08-12T10:43:09Z</time>
      </trkpt>
      <trkpt lat="45.50141" lon="6.7411">
        <ele>2241.4</ele>
        <time>2021-08-12T10:43:10Z</time>
      </trkpt>
      <trkpt lat="45.50141" lon="6.7411">
        <ele>2241.4</ele>
        <time>2021-08-12T10:43:11Z</time>
      </trkpt>
      <trkpt lat="45.50141" lon="6.7411">
        <ele>2241.4</ele>
        <time>2021-08-12T10:43:12Z</time>
      </trkpt>
      <trkpt lat="45.50141" lon="6.7411">
        <ele>2241.4</ele>
        <time>2021-08-12T10:43:13Z</time>
      </trkpt>
      <trkpt lat="45.50141" lon="6.7411">
        <ele>2241.4</ele>
        <time>2021-08-12T10:43:14Z</time>
      </trkpt>
      <trkpt lat="45.50141" lon="6.7411">
        <ele>2241.4</ele>
        <time>2021-08-12T10:43:15Z</time>
      </trkpt>
      <trkpt lat="45.50141" lon="6.7411">
        <ele>2241.4</ele>
        <time>2021-08-12T10:43:16Z</time>
      </trkpt>
      <trkpt lat="45.50141" lon="6.7411">
        <ele>2241.4</ele>
        <time>2021-08-12T10:43:17Z</time>
      </trkpt>
      <trkpt lat="45.50141" lon="6.7411">
        <ele>2241.4</ele>
        <time>2021-08-12T10:43:18Z</time>
      </trkpt>
      <trkpt lat="45.50141" lon="6.7411">
        <ele>2241.4</ele>
        <time>2021-08-12T10:43:19Z</time>
      </trkpt>
      <trkpt lat="45.50141" lon="6.7411">
        <ele>2241.4</ele>
        <time>2021-08-12T10:43:20Z</time>
      </trkpt>
      <trkpt lat="45.50141" lon="6.7411">
        <ele>2241.4</ele>
        <time>2021-08-12T10:43:21Z</time>
      </trkpt>
      <trkpt lat="45.50141" lon="6.7411">
        <ele>2241.4</ele>
        <time>2021-08-12T10:43:22Z</time>
      </trkpt>
      <trkpt lat="45.50141" lon="6.7411">
        <ele>2241.4</ele>
        <time>2021-08-12T10:43:23Z</time>
      </trkpt>
      <trkpt lat="45.50141" lon="6.7411">
        <ele>2241.4</ele>
        <time>2021-08-12T10:43:24Z</time>
      </trkpt>
      <trkpt lat="45.50141" lon="6.7411">
        <ele>2241.4</ele>
        <time>2021-08-12T10:43:25Z</time>
      </trkpt>
      <trkpt lat="45.50141" lon="6.7411">
        <ele>2241.4</ele>
        <time>2021-08-12T10:43:26Z</time>
      </trkpt>
      <trkpt lat="45.50141" lon="6.7411">
        <ele>2241.4</ele>
        <time>2021-08-12T10:43:27Z</time>
      </trkpt>
      <trkpt lat="45.50141" lon="6.7411">
        <ele>2241.4</ele>
        <time>2021-08-12T10:43:28Z</time>
      </trkpt>
      <trkpt lat="45.50141" lon="6.7411">
        <ele>2241.4</ele>
        <time>2021-08-12T10:43:29Z</time>
      </trkpt>
      <trkpt lat="45.50141" lon="6.7411">
        <ele>2241.4</ele>
        <time>2021-08-12T10:43:30Z</time>
      </trkpt>
      <trkpt lat="45.50141" lon="6.7411">
        <ele>2241.4</ele>
        <time>2021-08-12T10:43:31Z</time>
      </trkpt>
      <trkpt lat="45.50141" lon="6.7411">
        <ele>2241.4</ele>
        <time>2021-08-12T10:43:32Z</time>
      </trkpt>
      <trkpt lat="45.50141" lon="6.7411">
        <ele>2241.4</ele>
        <time>2021-08-12T10:43:33Z</time>
      </trkpt>
      <trkpt lat="45.50141" lon="6.7411">
        <ele>2241.4</ele>
        <time>2021-08-12T10:43:34Z</time>
      </trkpt>
      <trkpt lat="45.50141" lon="6.7411">
        <ele>2241.4</ele>
        <time>2021-08-12T10:43:35Z</time>
      </trkpt>
      <trkpt lat="45.50141" lon="6.7411">
        <ele>2241.4</ele>
        <time>2021-08-12T10:43:36Z</time>
      </trkpt>
      <trkpt lat="45.50141" lon="6.7411">
        <ele>2241.4</ele>
        <time>2021-08-12T10:43:37Z</time>
      </trkpt>
      <trkpt lat="45.50141" lon="6.7411">
        <ele>2241.4</ele>
        <time>2021-08-12T10:43:38Z</time>
      </trkpt>
      <trkpt lat="45.50141" lon="6.7411">
        <ele>2241.4</ele>
        <time>2021-08-12T10:43:39Z</time>
      </trkpt>
      <trkpt lat="45.50141" lon="6.7411">
        <ele>2241.4</ele>
        <time>2021-08-12T10:43:40Z</time>
      </trkpt>
      <trkpt lat="45.50141" lon="6.7411">
        <ele>2241.4</ele>
        <time>2021-08-12T10:43:41Z</time>
      </trkpt>
      <trkpt lat="45.50141" lon="6.7411">
        <ele>2241.4</ele>
        <time>2021-08-12T10:43:42Z</time>
      </trkpt>
      <trkpt lat="45.50141" lon="6.7411">
        <ele>2241.4</ele>
        <time>2021-08-12T10:43:43Z</time>
      </trkpt>
      <trkpt lat="45.50141" lon="6.7411">
        <ele>2241.4</ele>
        <time>2021-08-12T10:43:44Z</time>
      </trkpt>
      <trkpt lat="45.50141" lon="6.7411">
        <ele>2241.4</ele>
        <time>2021-08-12T10:43:45Z</time>
      </trkpt>
      <trkpt lat="45.50141" lon="6.7411">
        <ele>2241.4</ele>
        <time>2021-08-12T10:43:46Z</time>
      </trkpt>
      <trkpt lat="45.50141" lon="6.7411">
        <ele>2241.4</ele>
        <time>2021-08-12T10:43:47Z</time>
      </trkpt>
      <trkpt lat="45.50141" lon="6.7411">
        <ele>2241.4</ele>
        <time>2021-08-12T10:43:48Z</time>
      </trkpt>
      <trkpt lat="45.50141" lon="6.7411">
        <ele>2241.4</ele>
        <time>2021-08-12T10:43:49Z</time>
      </trkpt>
      <trkpt lat="45.50141" lon="6.7411">
        <ele>2241.4</ele>
        <time>2021-08-12T10:43:50Z</time>
      </trkpt>
      <trkpt lat="45.50141" lon="6.7411">
        <ele>2241.4</ele>
        <time>2021-08-12T10:43:51Z</time>
      </trkpt>
      <trkpt lat="45.50141" lon="6.7411">
        <ele>2241.4</ele>
        <time>2021-08-12T10:43:52Z</time>
      </trkpt>
      <trkpt lat="45.50141" lon="6.7411">
        <ele>2241.4</ele>
        <time>2021-08-12T10:43:53Z</time>
      </trkpt>
      <trkpt lat="45.50141" lon="6.7411">
        <ele>2241.4</ele>
        <time>2021-08-12T10:43:54Z</time>
      </trkpt>
      <trkpt lat="45.50141" lon="6.7411">
        <ele>2241.4</ele>
        <time>2021-08-12T10:43:55Z</time>
      </trkpt>
      <trkpt lat="45.50141" lon="6.7411">
        <ele>2241.4</ele>
        <time>2021-08-12T10:43:56Z</time>
      </trkpt>
      <trkpt lat="45.50141" lon="6.7411">
        <ele>2241.4</ele>
        <time>2021-08-12T10:43:57Z</time>
      </trkpt>
      <trkpt lat="45.50141" lon="6.7411">
        <ele>2241.4</ele>
        <time>2021-08-12T10:43:58Z</time>
      </trkpt>
      <trkpt lat="45.50141" lon="6.7411">
        <ele>2241.4</ele>
        <time>2021-08-12T10:43:59Z</time>
      </trkpt>
      <trkpt lat="45.50141" lon="6.7411">
        <ele>2241.4</ele>
        <time>2021-08-12T10:44:00Z</time>
      </trkpt>
      <trkpt lat="45.50141" lon="6.7411">
        <ele>2241.4</ele>
        <time>2021-08-12T10:44:01Z</time>
      </trkpt>
      <trkpt lat="45.50141" lon="6.7411">
        <ele>2241.4</ele>
        <time>2021-08-12T10:44:02Z</time>
      </trkpt>
      <trkpt lat="45.50141" lon="6.7411">
        <ele>2241.4</ele>
        <time>2021-08-12T10:44:03Z</time>
      </trkpt>
      <trkpt lat="45.50141" lon="6.7411">
        <ele>2241.4</ele>
        <time>2021-08-12T10:44:04Z</time>
      </trkpt>
      <trkpt lat="45.50141" lon="6.7411">
        <ele>2241.4</ele>
        <time>2021-08-12T10:44:05Z</time>
      </trkpt>
      <trkpt lat="45.50141" lon="6.7411">
        <ele>2241.4</ele>
        <time>2021-08-12T10:44:06Z</time>
      </trkpt>
      <trkpt lat="45.50141" lon="6.7411">
        <ele>2241.4</ele>
        <time>2021-08-12T10:44:07Z</time>
      </trkpt>
      <trkpt lat="45.50141" lon="6.7411">
        <ele>2241.4</ele>
        <time>2021-08-12T10:44:08Z</time>
      </trkpt>
      <trkpt lat="45.50141" lon="6.7411">
        <ele>2241.4</ele>
        <time>2021-08-12T10:44:09Z</time>
      </trkpt>
      <trkpt lat="45.50141" lon="6.7411">
        <ele>2241.4</ele>
        <time>2021-08-12T10:44:10Z</time>
      </trkpt>
      <trkpt lat="45.50141" lon="6.7411">
        <ele>2241.4</ele>
        <time>2021-08-12T10:44:11Z</time>
      </trkpt>
      <trkpt lat="45.50141" lon="6.7411">
        <ele>2241.4</ele>
        <time>2021-08-12T10:44:12Z</time>
      </trkpt>
      <trkpt lat="45.50141" lon="6.7411">
        <ele>2241.4</ele>
        <time>2021-08-12T10:44:13Z</time>
      </trkpt>
      <trkpt lat="45.50141" lon="6.7411">
        <ele>2241.4</ele>
        <time>2021-08-12T10:44:14Z</time>
      </trkpt>
      <trkpt lat="45.50141" lon="6.7411">
        <ele>2241.4</ele>
        <time>2021-08-12T10:44:15Z</time>
      </trkpt>
      <trkpt lat="45.50141" lon="6.7411">
        <ele>2241.4</ele>
        <time>2021-08-12T10:44:16Z</time>
      </trkpt>
      <trkpt lat="45.50141" lon="6.7411">
        <ele>2241.4</ele>
        <time>2021-08-12T10:44:17Z</time>
      </trkpt>
      <trkpt lat="45.50141" lon="6.7411">
        <ele>2241.4</ele>
        <time>2021-08-12T10:44:18Z</time>
      </trkpt>
      <trkpt lat="45.50141" lon="6.7411">
        <ele>2241.4</ele>
        <time>2021-08-12T10:44:19Z</time>
      </trkpt>
      <trkpt lat="45.50141" lon="6.7411">
        <ele>2241.4</ele>
        <time>2021-08-12T10:44:20Z</time>
      </trkpt>
      <trkpt lat="45.50141" lon="6.7411">
        <ele>2241.4</ele>
        <time>2021-08-12T10:44:21Z</time>
      </trkpt>
      <trkpt lat="45.50141" lon="6.7411">
        <ele>2241.4</ele>
        <time>2021-08-12T10:44:22Z</time>
      </trkpt>
      <trkpt lat="45.50141" lon="6.7411">
        <ele>2241.4</ele>
        <time>2021-08-12T10:44:23Z</time>
      </trkpt>
      <trkpt lat="45.50141" lon="6.7411">
        <ele>2241.4</ele>
        <time>2021-08-12T10:44:24Z</time>
      </trkpt>
      <trkpt lat="45.50141" lon="6.7411">
        <ele>2241.4</ele>
        <time>2021-08-12T10:44:25Z</time>
      </trkpt>
      <trkpt lat="45.50141" lon="6.7411">
        <ele>2241.4</ele>
        <time>2021-08-12T10:44:26Z</time>
      </trkpt>
      <trkpt lat="45.50141" lon="6.7411">
        <ele>2241.4</ele>
        <time>2021-08-12T10:44:27Z</time>
      </trkpt>
      <trkpt lat="45.50141" lon="6.7411">
        <ele>2241.4</ele>
        <time>2021-08-12T10:44:28Z</time>
      </trkpt>
      <trkpt lat="45.50141" lon="6.7411">
        <ele>2241.4</ele>
        <time>2021-08-12T10:44:29Z</time>
      </trkpt>
      <trkpt lat="45.50141" lon="6.7411">
        <ele>2241.4</ele>
        <time>2021-08-12T10:44:30Z</time>
      </trkpt>
      <trkpt lat="45.50141" lon="6.7411">
        <ele>2241.4</ele>
        <time>2021-08-12T10:44:31Z</time>
      </trkpt>
      <trkpt lat="45.50141" lon="6.7411">
        <ele>2241.4</ele>
        <time>2021-08-12T10:44:32Z</time>
      </trkpt>
      <trkpt lat="45.50141" lon="6.7411">
        <ele>2241.4</ele>
        <time>2021-08-12T10:44:33Z</time>
      </trkpt>
      <trkpt lat="45.50141" lon="6.7411">
        <ele>2241.4</ele>
        <time>2021-08-12T10:44:34Z</time>
      </trkpt>
      <trkpt lat="45.50141" lon="6.7411">
        <ele>2241.4</ele>
        <time>2021-08-12T10:44:35Z</time>
      </trkpt>
      <trkpt lat="45.50141" lon="6.7411">
        <ele>2241.4</ele>
        <time>2021-08-12T10:44:36Z</time>
      </trkpt>
      <trkpt lat="45.50141" lon="6.7411">
        <ele>2241.4</ele>
        <time>2021-08-12T10:44:37Z</time>
      </trkpt>
      <trkpt lat="45.50141" lon="6.7411">
        <ele>2241.4</ele>
        <time>2021-08-12T10:44:38Z</time>
      </trkpt>
      <trkpt lat="45.50141" lon="6.7411">
        <ele>2241.4</ele>
        <time>2021-08-12T10:44:39Z</time>
      </trkpt>
      <trkpt lat="45.50141" lon="6.7411">
        <ele>2241.4</ele>
        <time>2021-08-12T10:44:40Z</time>
      </trkpt>
      <trkpt lat="45.50141" lon="6.7411">
        <ele>2241.4</ele>
        <time>2021-08-12T10:44:41Z</time>
      </trkpt>
      <trkpt lat="45.50141" lon="6.7411">
        <ele>2241.4</ele>
        <time>2021-08-12T10:44:42Z</time>
      </trkpt>
      <trkpt lat="45.50141" lon="6.7411">
        <ele>2241.4</ele>
        <time>2021-08-12T10:44:43Z</time>
      </trkpt>
      <trkpt lat="45.50141" lon="6.7411">
        <ele>2241.4</ele>
        <time>2021-08-12T10:44:44Z</time>
      </trkpt>
      <trkpt lat="45.50141" lon="6.7411">
        <ele>2241.4</ele>
        <time>2021-08-12T10:44:45Z</time>
      </trkpt>
      <trkpt lat="45.50141" lon="6.7411">
        <ele>2241.4</ele>
        <time>2021-08-12T10:44:46Z</time>
      </trkpt>
      <trkpt lat="45.50141" lon="6.7411">
        <ele>2241.4</ele>
        <time>2021-08-12T10:44:47Z</time>
      </trkpt>
      <trkpt lat="45.50141" lon="6.7411">
        <ele>2241.4</ele>
        <time>2021-08-12T10:44:48Z</time>
      </trkpt>
      <trkpt lat="45.50141" lon="6.7411">
        <ele>2241.4</ele>
        <time>2021-08-12T10:44:49Z</time>
      </trkpt>
      <trkpt lat="45.50141" lon="6.7411">
        <ele>2241.4</ele>
        <time>2021-08-12T10:44:50Z</time>
      </trkpt>
      <trkpt lat="45.50141" lon="6.7411">
        <ele>2241.4</ele>
        <time>2021-08-12T10:44:51Z</time>
      </trkpt>
      <trkpt lat="45.50141" lon="6.7411">
        <ele>2241.4</ele>
        <time>2021-08-12T10:44:52Z</time>
      </trkpt>
      <trkpt lat="45.50141" lon="6.7411">
        <ele>2241.4</ele>
        <time>2021-08-12T10:44:53Z</time>
      </trkpt>
      <trkpt lat="45.50141" lon="6.7411">
        <ele>2241.4</ele>
        <time>2021-08-12T10:44:54Z</time>
      </trkpt>
      <trkpt lat="45.50141" lon="6.7411">
        <ele>2241.4</ele>
        <time>2021-08-12T10:44:55Z</time>
      </trkpt>
      <trkpt lat="45.50141" lon="6.7411">
        <ele>2241.4</ele>
        <time>2021-08-12T10:44:56Z</time>
      </trkpt>
      <trkpt lat="45.50141" lon="6.7411">
        <ele>2241.4</ele>
        <time>2021-08-12T10:44:57Z</time>
      </trkpt>
      <trkpt lat="45.50141" lon="6.7411">
        <ele>2241.4</ele>
        <time>2021-08-12T10:44:58Z</time>
      </trkpt>
      <trkpt lat="45.50141" lon="6.7411">
        <ele>2241.4</ele>
        <time>2021-08-12T10:44:59Z</time>
      </trkpt>
      <trkpt lat="45.50141" lon="6.7411">
        <ele>2241.4</ele>
        <time>2021-08-12T10:45:00Z</time>
      </trkpt>
      <trkpt lat="45.50141" lon="6.7411">
        <ele>2241.4</ele>
        <time>2021-08-12T10:45:01Z</time>
      </trkpt>
      <trkpt lat="45.50141" lon="6.7411">
        <ele>2241.4</ele>
        <time>2021-08-12T10:45:02Z</time>
      </trkpt>
      <trkpt lat="45.50141" lon="6.7411">
        <ele>2241.4</ele>
        <time>2021-08-12T10:45:03Z</time>
      </trkpt>
      <trkpt lat="45.50141" lon="6.7411">
        <ele>2241.4</ele>
        <time>2021-08-12T10:45:04Z</time>
      </trkpt>
      <trkpt lat="45.50141" lon="6.7411">
        <ele>2241.4</ele>
        <time>2021-08-12T10:45:05Z</time>
      </trkpt>
      <trkpt lat="45.50141" lon="6.7411">
        <ele>2241.4</ele>
        <time>2021-08-12T10:45:06Z</time>
      </trkpt>
      <trkpt lat="45.50141" lon="6.7411">
        <ele>2241.4</ele>
        <time>2021-08-12T10:45:07Z</time>
      </trkpt>
      <trkpt lat="45.50141" lon="6.7411">
        <ele>2241.4</ele>
        <time>2021-08-12T10:45:08Z</time>
      </trkpt>
      <trkpt lat="45.50141" lon="6.7411">
        <ele>2241.4</ele>
        <time>2021-08-12T10:45:09Z</time>
      </trkpt>
      <trkpt lat="45.50141" lon="6.7411">
        <ele>2241.4</ele>
        <time>2021-08-12T10:45:10Z</time>
      </trkpt>
      <trkpt lat="45.50141" lon="6.7411">
        <ele>2241.4</ele>
        <time>2021-08-12T10:45:11Z</time>
      </trkpt>
      <trkpt lat="45.50141" lon="6.7411">
        <ele>2241.4</ele>
        <time>2021-08-12T10:45:12Z</time>
      </trkpt>
      <trkpt lat="45.50141" lon="6.7411">
        <ele>2241.4</ele>
        <time>2021-08-12T10:45:13Z</time>
      </trkpt>
      <trkpt lat="45.50141" lon="6.7411">
        <ele>2241.4</ele>
        <time>2021-08-12T10:45:14Z</time>
      </trkpt>
      <trkpt lat="45.50141" lon="6.7411">
        <ele>2241.4</ele>
        <time>2021-08-12T10:45:15Z</time>
      </trkpt>
      <trkpt lat="45.50141" lon="6.7411">
        <ele>2241.4</ele>
        <time>2021-08-12T10:45:16Z</time>
      </trkpt>
      <trkpt lat="45.50141" lon="6.7411">
        <ele>2241.4</ele>
        <time>2021-08-12T10:45:17Z</time>
      </trkpt>
      <trkpt lat="45.50141" lon="6.7411">
        <ele>2241.4</ele>
        <time>2021-08-12T10:45:18Z</time>
      </trkpt>
      <trkpt lat="45.50141" lon="6.7411">
        <ele>2241.4</ele>
        <time>2021-08-12T10:45:19Z</time>
      </trkpt>
      <trkpt lat="45.50141" lon="6.7411">
        <ele>2241.4</ele>
        <time>2021-08-12T10:45:20Z</time>
      </trkpt>
      <trkpt lat="45.50141" lon="6.7411">
        <ele>2241.4</ele>
        <time>2021-08-12T10:45:21Z</time>
      </trkpt>
      <trkpt lat="45.50141" lon="6.7411">
        <ele>2241.4</ele>
        <time>2021-08-12T10:45:22Z</time>
      </trkpt>
      <trkpt lat="45.50141" lon="6.7411">
        <ele>2241.4</ele>
        <time>2021-08-12T10:45:23Z</time>
      </trkpt>
      <trkpt lat="45.50141" lon="6.7411">
        <ele>2241.4</ele>
        <time>2021-08-12T10:45:24Z</time>
      </trkpt>
      <trkpt lat="45.50141" lon="6.7411">
        <ele>2241.4</ele>
        <time>2021-08-12T10:45:25Z</time>
      </trkpt>
      <trkpt lat="45.50141" lon="6.7411">
        <ele>2241.4</ele>
        <time>2021-08-12T10:45:26Z</time>
      </trkpt>
      <trkpt lat="45.50141" lon="6.7411">
        <ele>2241.4</ele>
        <time>2021-08-12T10:45:27Z</time>
      </trkpt>
      <trkpt lat="45.50141" lon="6.7411">
        <ele>2241.4</ele>
        <time>2021-08-12T10:45:28Z</time>
      </trkpt>
      <trkpt lat="45.50141" lon="6.7411">
        <ele>2241.4</ele>
        <time>2021-08-12T10:45:29Z</time>
      </trkpt>
      <trkpt lat="45.50141" lon="6.7411">
        <ele>2241.4</ele>
        <time>2021-08-12T10:45:30Z</time>
      </trkpt>
      <trkpt lat="45.50141" lon="6.7411">
        <ele>2241.4</ele>
        <time>2021-08-12T10:45:31Z</time>
      </trkpt>
      <trkpt lat="45.50141" lon="6.7411">
        <ele>2241.4</ele>
        <time>2021-08-12T10:45:32Z</time>
      </trkpt>
      <trkpt lat="45.50141" lon="6.7411">
        <ele>2241.4</ele>
        <time>2021-08-12T10:45:33Z</time>
      </trkpt>
      <trkpt lat="45.50141" lon="6.7411">
        <ele>2241.4</ele>
        <time>2021-08-12T10:45:34Z</time>
      </trkpt>
      <trkpt lat="45.50141" lon="6.7411">
        <ele>2241.4</ele>
        <time>2021-08-12T10:45:35Z</time>
      </trkpt>
      <trkpt lat="45.50141" lon="6.7411">
        <ele>2241.4</ele>
        <time>2021-08-12T10:45:36Z</time>
      </trkpt>
      <trkpt lat="45.50141" lon="6.7411">
        <ele>2241.4</ele>
        <time>2021-08-12T10:45:37Z</time>
      </trkpt>
      <trkpt lat="45.50141" lon="6.7411">
        <ele>2241.4</ele>
        <time>2021-08-12T10:45:38Z</time>
      </trkpt>
      <trkpt lat="45.50141" lon="6.7411">
        <ele>2241.4</ele>
        <time>2021-08-12T10:45:39Z</time>
      </trkpt>
      <trkpt lat="45.50141" lon="6.7411">
        <ele>2241.4</ele>
        <time>2021-08-12T10:45:40Z</time>
      </trkpt>
      <trkpt lat="45.50141" lon="6.7411">
        <ele>2241.4</ele>
        <time>2021-08-12T10:45:41Z</time>
      </trkpt>
      <trkpt lat="45.50141" lon="6.7411">
        <ele>2241.4</ele>
        <time>2021-08-12T10:45:42Z</time>
      </trkpt>
      <trkpt lat="45.50141" lon="6.7411">
        <ele>2241.4</ele>
        <time>2021-08-12T10:45:43Z</time>
      </trkpt>
      <trkpt lat="45.50141" lon="6.7411">
        <ele>2241.4</ele>
        <time>2021-08-12T10:45:44Z</time>
      </trkpt>
      <trkpt lat="45.50141" lon="6.7411">
        <ele>2241.4</ele>
        <time>2021-08-12T10:45:45Z</time>
      </trkpt>
      <trkpt lat="45.50141" lon="6.7411">
        <ele>2241.4</ele>
        <time>2021-08-12T10:45:46Z</time>
      </trkpt>
      <trkpt lat="45.50141" lon="6.7411">
        <ele>2241.4</ele>
        <time>2021-08-12T10:45:47Z</time>
      </trkpt>
      <trkpt lat="45.50141" lon="6.7411">
        <ele>2241.4</ele>
        <time>2021-08-12T10:45:48Z</time>
      </trkpt>
      <trkpt lat="45.50141" lon="6.7411">
        <ele>2241.4</ele>
        <time>2021-08-12T10:45:49Z</time>
      </trkpt>
      <trkpt lat="45.50141" lon="6.7411">
        <ele>2241.4</ele>
        <time>2021-08-12T10:45:50Z</time>
      </trkpt>
      <trkpt lat="45.50141" lon="6.7411">
        <ele>2241.4</ele>
        <time>2021-08-12T10:45:51Z</time>
      </trkpt>
      <trkpt lat="45.50141" lon="6.7411">
        <ele>2241.4</ele>
        <time>2021-08-12T10:45:52Z</time>
      </trkpt>
      <trkpt lat="45.50141" lon="6.7411">
        <ele>2241.4</ele>
        <time>2021-08-12T10:45:53Z</time>
      </trkpt>
      <trkpt lat="45.50141" lon="6.7411">
        <ele>2241.4</ele>
        <time>2021-08-12T10:45:54Z</time>
      </trkpt>
      <trkpt lat="45.50141" lon="6.7411">
        <ele>2241.4</ele>
        <time>2021-08-12T10:45:55Z</time>
      </trkpt>
      <trkpt lat="45.50141" lon="6.7411">
        <ele>2241.4</ele>
        <time>2021-08-12T10:45:56Z</time>
      </trkpt>
      <trkpt lat="45.50141" lon="6.7411">
        <ele>2241.4</ele>
        <time>2021-08-12T10:45:57Z</time>
      </trkpt>
      <trkpt lat="45.50141" lon="6.7411">
        <ele>2241.4</ele>
        <time>2021-08-12T10:45:58Z</time>
      </trkpt>
      <trkpt lat="45.50141" lon="6.7411">
        <ele>2241.4</ele>
        <time>2021-08-12T10:45:59Z</time>
      </trkpt>
      <trkpt lat="45.50141" lon="6.7411">
        <ele>2241.4</ele>
        <time>2021-08-12T10:46:00Z</time>
      </trkpt>
      <trkpt lat="45.50141" lon="6.7411">
        <ele>2241.4</ele>
        <time>2021-08-12T10:46:01Z</time>
      </trkpt>
      <trkpt lat="45.50141" lon="6.7411">
        <ele>2241.4</ele>
        <time>2021-08-12T10:46:02Z</time>
      </trkpt>
      <trkpt lat="45.50141" lon="6.7411">
        <ele>2241.4</ele>
        <time>2021-08-12T10:46:03Z</time>
      </trkpt>
      <trkpt lat="45.50141" lon="6.7411">
        <ele>2241.4</ele>
        <time>2021-08-12T10:46:04Z</time>
      </trkpt>
      <trkpt lat="45.50141" lon="6.7411">
        <ele>2241.4</ele>
        <time>2021-08-12T10:46:05Z</time>
      </trkpt>
      <trkpt lat="45.50141" lon="6.7411">
        <ele>2241.4</ele>
        <time>2021-08-12T10:46:06Z</time>
      </trkpt>
      <trkpt lat="45.50141" lon="6.7411">
        <ele>2241.4</ele>
        <time>2021-08-12T10:46:07Z</time>
      </trkpt>
      <trkpt lat="45.50141" lon="6.7411">
        <ele>2241.4</ele>
        <time>2021-08-12T10:46:08Z</time>
      </trkpt>
      <trkpt lat="45.50141" lon="6.7411">
        <ele>2241.4</ele>
        <time>2021-08-12T10:46:09Z</time>
      </trkpt>
      <trkpt lat="45.50141" lon="6.7411">
        <ele>2241.4</ele>
        <time>2021-08-12T10:46:10Z</time>
      </trkpt>
      <trkpt lat="45.50141" lon="6.7411">
        <ele>2241.4</ele>
        <time>2021-08-12T10:46:11Z</time>
      </trkpt>
      <trkpt lat="45.50141" lon="6.7411">
        <ele>2241.4</ele>
        <time>2021-08-12T10:46:12Z</time>
      </trkpt>
      <trkpt lat="45.50141" lon="6.7411">
        <ele>2241.4</ele>
        <time>2021-08-12T10:46:13Z</time>
      </trkpt>
      <trkpt lat="45.50141" lon="6.7411">
        <ele>2241.4</ele>
        <time>2021-08-12T10:46:14Z</time>
      </trkpt>
      <trkpt lat="45.50141" lon="6.7411">
        <ele>2241.4</ele>
        <time>2021-08-12T10:46:15Z</time>
      </trkpt>
      <trkpt lat="45.50141" lon="6.7411">
        <ele>2241.4</ele>
        <time>2021-08-12T10:46:16Z</time>
      </trkpt>
      <trkpt lat="45.50141" lon="6.7411">
        <ele>2241.4</ele>
        <time>2021-08-12T10:46:17Z</time>
      </trkpt>
      <trkpt lat="45.50141" lon="6.7411">
        <ele>2241.4</ele>
        <time>2021-08-12T10:46:18Z</time>
      </trkpt>
      <trkpt lat="45.50141" lon="6.7411">
        <ele>2241.4</ele>
        <time>2021-08-12T10:46:19Z</time>
      </trkpt>
      <trkpt lat="45.50141" lon="6.7411">
        <ele>2241.4</ele>
        <time>2021-08-12T10:46:20Z</time>
      </trkpt>
      <trkpt lat="45.50141" lon="6.7411">
        <ele>2241.4</ele>
        <time>2021-08-12T10:46:21Z</time>
      </trkpt>
      <trkpt lat="45.50141" lon="6.7411">
        <ele>2241.4</ele>
        <time>2021-08-12T10:46:22Z</time>
      </trkpt>
      <trkpt lat="45.50141" lon="6.7411">
        <ele>2241.4</ele>
        <time>2021-08-12T10:46:23Z</time>
      </trkpt>
      <trkpt lat="45.50141" lon="6.7411">
        <ele>2241.4</ele>
        <time>2021-08-12T10:46:24Z</time>
      </trkpt>
      <trkpt lat="45.50141" lon="6.7411">
        <ele>2241.4</ele>
        <time>2021-08-12T10:46:25Z</time>
      </trkpt>
      <trkpt lat="45.50141" lon="6.7411">
        <ele>2241.4</ele>
        <time>2021-08-12T10:46:26Z</time>
      </trkpt>
      <trkpt lat="45.50141" lon="6.7411">
        <ele>2241.4</ele>
        <time>2021-08-12T10:46:27Z</time>
      </trkpt>
      <trkpt lat="45.50141" lon="6.7411">
        <ele>2241.4</ele>
        <time>2021-08-12T10:46:28Z</time>
      </trkpt>
      <trkpt lat="45.50141" lon="6.7411">
        <ele>2241.4</ele>
        <time>2021-08-12T10:46:29Z</time>
      </trkpt>
      <trkpt lat="45.50141" lon="6.7411">
        <ele>2241.4</ele>
        <time>2021-08-12T10:46:30Z</time>
      </trkpt>
      <trkpt lat="45.50141" lon="6.7411">
        <ele>2241.4</ele>
        <time>2021-08-12T10:46:31Z</time>
      </trkpt>
      <trkpt lat="45.50141" lon="6.7411">
        <ele>2241.4</ele>
        <time>2021-08-12T10:46:32Z</time>
      </trkpt>
      <trkpt lat="45.50141" lon="6.7411">
        <ele>2241.4</ele>
        <time>2021-08-12T10:46:33Z</time>
      </trkpt>
      <trkpt lat="45.50141" lon="6.7411">
        <ele>2241.4</ele>
        <time>2021-08-12T10:46:34Z</time>
      </trkpt>
      <trkpt lat="45.50141" lon="6.7411">
        <ele>2241.4</ele>
        <time>2021-08-12T10:46:35Z</time>
      </trkpt>
      <trkpt lat="45.50141" lon="6.7411">
        <ele>2241.4</ele>
        <time>2021-08-12T10:46:36Z</time>
      </trkpt>
      <trkpt lat="45.50141" lon="6.7411">
        <ele>2241.4</ele>
        <time>2021-08-12T10:46:37Z</time>
      </trkpt>
      <trkpt lat="45.50141" lon="6.7411">
        <ele>2241.4</ele>
        <time>2021-08-12T10:46:38Z</time>
      </trkpt>
      <trkpt lat="45.50141" lon="6.7411">
        <ele>2241.4</ele>
        <time>2021-08-12T10:46:39Z</time>
      </trkpt>
      <trkpt lat="45.50141" lon="6.7411">
        <ele>2241.4</ele>
        <time>2021-08-12T10:46:40Z</time>
      </trkpt>
      <trkpt lat="45.50141" lon="6.7411">
        <ele>2241.4</ele>
        <time>2021-08-12T10:46:41Z</time>
      </trkpt>
      <trkpt lat="45.50141" lon="6.7411">
        <ele>2241.4</ele>
        <time>2021-08-12T10:46:42Z</time>
      </trkpt>
      <trkpt lat="45.50141" lon="6.7411">
        <ele>2241.4</ele>
        <time>2021-08-12T10:46:43Z</time>
      </trkpt>
      <trkpt lat="45.50141" lon="6.7411">
        <ele>2241.4</ele>
        <time>2021-08-12T10:46:44Z</time>
      </trkpt>
      <trkpt lat="45.50141" lon="6.7411">
        <ele>2241.4</ele>
        <time>2021-08-12T10:46:45Z</time>
      </trkpt>
      <trkpt lat="45.50141" lon="6.7411">
        <ele>2241.4</ele>
        <time>2021-08-12T10:46:46Z</time>
      </trkpt>
      <trkpt lat="45.50141" lon="6.7411">
        <ele>2241.4</ele>
        <time>2021-08-12T10:46:47Z</time>
      </trkpt>
      <trkpt lat="45.50141" lon="6.7411">
        <ele>2241.4</ele>
        <time>2021-08-12T10:46:48Z</time>
      </trkpt>
      <trkpt lat="45.50141" lon="6.7411">
        <ele>2241.4</ele>
        <time>2021-08-12T10:46:49Z</time>
      </trkpt>
      <trkpt lat="45.50141" lon="6.7411">
        <ele>2241.4</ele>
        <time>2021-08-12T10:46:50Z</time>
      </trkpt>
      <trkpt lat="45.50141" lon="6.7411">
        <ele>2241.4</ele>
        <time>2021-08-12T10:46:51Z</time>
      </trkpt>
      <trkpt lat="45.50141" lon="6.7411">
        <ele>2241.4</ele>
        <time>2021-08-12T10:46:52Z</time>
      </trkpt>
      <trkpt lat="45.50141" lon="6.7411">
        <ele>2241.4</ele>
        <time>2021-08-12T10:46:53Z</time>
      </trkpt>
      <trkpt lat="45.50141" lon="6.7411">
        <ele>2241.4</ele>
        <time>2021-08-12T10:46:54Z</time>
      </trkpt>
      <trkpt lat="45.50141" lon="6.7411">
        <ele>2241.4</ele>
        <time>2021-08-12T10:46:55Z</time>
      </trkpt>
      <trkpt lat="45.50141" lon="6.7411">
        <ele>2241.4</ele>
        <time>2021-08-12T10:46:56Z</time>
      </trkpt>
      <trkpt lat="45.50141" lon="6.7411">
        <ele>2241.4</ele>
        <time>2021-08-12T10:46:57Z</time>
      </trkpt>
      <trkpt lat="45.50141" lon="6.7411">
        <ele>2241.4</ele>
        <time>2021-08-12T10:46:58Z</time>
      </trkpt>
      <trkpt lat="45.50141" lon="6.7411">
        <ele>2241.4</ele>
        <time>2021-08-12T10:46:59Z</time>
      </trkpt>
      <trkpt lat="45.50141" lon="6.7411">
        <ele>2241.4</ele>
        <time>2021-08-12T10:47:00Z</time>
      </trkpt>
      <trkpt lat="45.50141" lon="6.7411">
        <ele>2241.4</ele>
        <time>2021-08-12T10:47:01Z</time>
      </trkpt>
      <trkpt lat="45.50141" lon="6.7411">
        <ele>2241.4</ele>
        <time>2021-08-12T10:47:02Z</time>
      </trkpt>
      <trkpt lat="45.50141" lon="6.7411">
        <ele>2241.4</ele>
        <time>2021-08-12T10:47:03Z</time>
      </trkpt>
      <trkpt lat="45.50141" lon="6.7411">
        <ele>2241.4</ele>
        <time>2021-08-12T10:47:04Z</time>
      </trkpt>
      <trkpt lat="45.50141" lon="6.7411">
        <ele>2241.4</ele>
        <time>2021-08-12T10:47:05Z</time>
      </trkpt>
      <trkpt lat="45.50141" lon="6.7411">
        <ele>2241.4</ele>
        <time>2021-08-12T10:47:06Z</time>
      </trkpt>
      <trkpt lat="45.50141" lon="6.7411">
        <ele>2241.4</ele>
        <time>2021-08-12T10:47:07Z</time>
      </trkpt>
      <trkpt lat="45.50141" lon="6.7411">
        <ele>2241.4</ele>
        <time>2021-08-12T10:47:08Z</time>
      </trkpt>
      <trkpt lat="45.50141" lon="6.7411">
        <ele>2241.4</ele>
        <time>2021-08-12T10:47:09Z</time>
      </trkpt>
      <trkpt lat="45.50141" lon="6.7411">
        <ele>2241.4</ele>
        <time>2021-08-12T10:47:10Z</time>
      </trkpt>
      <trkpt lat="45.50141" lon="6.7411">
        <ele>2241.4</ele>
        <time>2021-08-12T10:47:11Z</time>
      </trkpt>
      <trkpt lat="45.50141" lon="6.7411">
        <ele>2241.4</ele>
        <time>2021-08-12T10:47:12Z</time>
      </trkpt>
      <trkpt lat="45.50141" lon="6.7411">
        <ele>2241.4</ele>
        <time>2021-08-12T10:47:13Z</time>
      </trkpt>
      <trkpt lat="45.50141" lon="6.7411">
        <ele>2241.4</ele>
        <time>2021-08-12T10:47:14Z</time>
      </trkpt>
      <trkpt lat="45.50141" lon="6.7411">
        <ele>2241.4</ele>
        <time>2021-08-12T10:47:15Z</time>
      </trkpt>
      <trkpt lat="45.50141" lon="6.7411">
        <ele>2241.4</ele>
        <time>2021-08-12T10:47:16Z</time>
      </trkpt>
      <trkpt lat="45.50141" lon="6.7411">
        <ele>2241.4</ele>
        <time>2021-08-12T10:47:17Z</time>
      </trkpt>
      <trkpt lat="45.50141" lon="6.7411">
        <ele>2241.4</ele>
        <time>2021-08-12T10:47:18Z</time>
      </trkpt>
      <trkpt lat="45.50141" lon="6.7411">
        <ele>2241.4</ele>
        <time>2021-08-12T10:47:19Z</time>
      </trkpt>
      <trkpt lat="45.50141" lon="6.7411">
        <ele>2241.4</ele>
        <time>2021-08-12T10:47:20Z</time>
      </trkpt>
      <trkpt lat="45.50141" lon="6.7411">
        <ele>2241.4</ele>
        <time>2021-08-12T10:47:21Z</time>
      </trkpt>
      <trkpt lat="45.50141" lon="6.7411">
        <ele>2241.4</ele>
        <time>2021-08-12T10:47:22Z</time>
      </trkpt>
      <trkpt lat="45.50141" lon="6.7411">
        <ele>2241.4</ele>
        <time>2021-08-12T10:47:23Z</time>
      </trkpt>
      <trkpt lat="45.50141" lon="6.7411">
        <ele>2241.4</ele>
        <time>2021-08-12T10:47:24Z</time>
      </trkpt>
      <trkpt lat="45.50141" lon="6.7411">
        <ele>2241.4</ele>
        <time>2021-08-12T10:47:25Z</time>
      </trkpt>
      <trkpt lat="45.50141" lon="6.7411">
        <ele>2241.4</ele>
        <time>2021-08-12T10:47:26Z</time>
      </trkpt>
      <trkpt lat="45.50141" lon="6.7411">
        <ele>2241.4</ele>
        <time>2021-08-12T10:47:27Z</time>
      </trkpt>
      <trkpt lat="45.50141" lon="6.7411">
        <ele>2241.4</ele>
        <time>2021-08-12T10:47:28Z</time>
      </trkpt>
      <trkpt lat="45.50141" lon="6.7411">
        <ele>2241.4</ele>
        <time>2021-08-12T10:47:29Z</time>
      </trkpt>
      <trkpt lat="45.50141" lon="6.7411">
        <ele>2241.4</ele>
        <time>2021-08-12T10:47:30Z</time>
      </trkpt>
      <trkpt lat="45.50141" lon="6.7411">
        <ele>2241.4</ele>
        <time>2021-08-12T10:47:31Z</time>
      </trkpt>
      <trkpt lat="45.50141" lon="6.7411">
        <ele>2241.4</ele>
        <time>2021-08-12T10:47:32Z</time>
      </trkpt>
      <trkpt lat="45.50141" lon="6.7411">
        <ele>2241.4</ele>
        <time>2021-08-12T10:47:33Z</time>
      </trkpt>
      <trkpt lat="45.50141" lon="6.7411">
        <ele>2241.4</ele>
        <time>2021-08-12T10:47:34Z</time>
      </trkpt>
      <trkpt lat="45.50141" lon="6.7411">
        <ele>2241.4</ele>
        <time>2021-08-12T10:47:35Z</time>
      </trkpt>
      <trkpt lat="45.50141" lon="6.7411">
        <ele>2241.4</ele>
        <time>2021-08-12T10:47:36Z</time>
      </trkpt>
      <trkpt lat="45.50141" lon="6.7411">
        <ele>2241.4</ele>
        <time>2021-08-12T10:47:37Z</time>
      </trkpt>
      <trkpt lat="45.50141" lon="6.7411">
        <ele>2241.4</ele>
        <time>2021-08-12T10:47:38Z</time>
      </trkpt>
      <trkpt lat="45.50141" lon="6.7411">
        <ele>2241.4</ele>
        <time>2021-08-12T10:47:39Z</time>
      </trkpt>
      <trkpt lat="45.50141" lon="6.7411">
        <ele>2241.4</ele>
        <time>2021-08-12T10:47:40Z</time>
      </trkpt>
      <trkpt lat="45.50141" lon="6.7411">
        <ele>2241.4</ele>
        <time>2021-08-12T10:47:41Z</time>
      </trkpt>
      <trkpt lat="45.50141" lon="6.7411">
        <ele>2241.4</ele>
        <time>2021-08-12T10:47:42Z</time>
      </trkpt>
      <trkpt lat="45.50141" lon="6.7411">
        <ele>2241.4</ele>
        <time>2021-08-12T10:47:43Z</time>
      </trkpt>
      <trkpt lat="45.50141" lon="6.7411">
        <ele>2241.4</ele>
        <time>2021-08-12T10:47:44Z</time>
      </trkpt>
      <trkpt lat="45.50141" lon="6.7411">
        <ele>2241.4</ele>
        <time>2021-08-12T10:47:45Z</time>
      </trkpt>
      <trkpt lat="45.50141" lon="6.7411">
        <ele>2241.4</ele>
        <time>2021-08-12T10:47:46Z</time>
      </trkpt>
      <trkpt lat="45.50141" lon="6.7411">
        <ele>2241.4</ele>
        <time>2021-08-12T10:47:47Z</time>
      </trkpt>
      <trkpt lat="45.50141" lon="6.7411">
        <ele>2241.4</ele>
        <time>2021-08-12T10:47:48Z</time>
      </trkpt>
      <trkpt lat="45.50141" lon="6.7411">
        <ele>2241.4</ele>
        <time>2021-08-12T10:47:49Z</time>
      </trkpt>
      <trkpt lat="45.50141" lon="6.7411">
        <ele>2241.4</ele>
        <time>2021-08-12T10:47:50Z</time>
      </trkpt>
      <trkpt lat="45.50141" lon="6.7411">
        <ele>2241.4</ele>
        <time>2021-08-12T10:47:51Z</time>
      </trkpt>
      <trkpt lat="45.50141" lon="6.7411">
        <ele>2241.4</ele>
        <time>2021-08-12T10:47:52Z</time>
      </trkpt>
      <trkpt lat="45.50141" lon="6.7411">
        <ele>2241.4</ele>
        <time>2021-08-12T10:47:53Z</time>
      </trkpt>
      <trkpt lat="45.50141" lon="6.7411">
        <ele>2241.4</ele>
        <time>2021-08-12T10:47:54Z</time>
      </trkpt>
      <trkpt lat="45.50141" lon="6.7411">
        <ele>2241.4</ele>
        <time>2021-08-12T10:47:55Z</time>
      </trkpt>
      <trkpt lat="45.50141" lon="6.7411">
        <ele>2241.4</ele>
        <time>2021-08-12T10:47:56Z</time>
      </trkpt>
      <trkpt lat="45.50141" lon="6.7411">
        <ele>2241.4</ele>
        <time>2021-08-12T10:47:57Z</time>
      </trkpt>
      <trkpt lat="45.50141" lon="6.7411">
        <ele>2241.4</ele>
        <time>2021-08-12T10:47:58Z</time>
      </trkpt>
      <trkpt lat="45.50141" lon="6.7411">
        <ele>2241.4</ele>
        <time>2021-08-12T10:47:59Z</time>
      </trkpt>
      <trkpt lat="45.50141" lon="6.7411">
        <ele>2241.4</ele>
        <time>2021-08-12T10:48:00Z</time>
      </trkpt>
      <trkpt lat="45.50141" lon="6.7411">
        <ele>2241.4</ele>
        <time>2021-08-12T10:48:01Z</time>
      </trkpt>
      <trkpt lat="45.50141" lon="6.7411">
        <ele>2241.4</ele>
        <time>2021-08-12T10:48:02Z</time>
      </trkpt>
      <trkpt lat="45.50141" lon="6.7411">
        <ele>2241.4</ele>
        <time>2021-08-12T10:48:03Z</time>
      </trkpt>
      <trkpt lat="45.50141" lon="6.7411">
        <ele>2241.4</ele>
        <time>2021-08-12T10:48:04Z</time>
      </trkpt>
      <trkpt lat="45.50141" lon="6.7411">
        <ele>2241.4</ele>
        <time>2021-08-12T10:48:05Z</time>
      </trkpt>
      <trkpt lat="45.50141" lon="6.7411">
        <ele>2241.4</ele>
        <time>2021-08-12T10:48:06Z</time>
      </trkpt>
      <trkpt lat="45.50141" lon="6.7411">
        <ele>2241.4</ele>
        <time>2021-08-12T10:48:07Z</time>
      </trkpt>
      <trkpt lat="45.50141" lon="6.7411">
        <ele>2241.4</ele>
        <time>2021-08-12T10:48:08Z</time>
      </trkpt>
      <trkpt lat="45.50141" lon="6.7411">
        <ele>2241.4</ele>
        <time>2021-08-12T10:48:09Z</time>
      </trkpt>
      <trkpt lat="45.50141" lon="6.7411">
        <ele>2241.4</ele>
        <time>2021-08-12T10:48:10Z</time>
      </trkpt>
      <trkpt lat="45.50141" lon="6.7411">
        <ele>2241.4</ele>
        <time>2021-08-12T10:48:11Z</time>
      </trkpt>
      <trkpt lat="45.50141" lon="6.7411">
        <ele>2241.4</ele>
        <time>2021-08-12T10:48:12Z</time>
      </trkpt>
      <trkpt lat="45.50141" lon="6.7411">
        <ele>2241.4</ele>
        <time>2021-08-12T10:48:13Z</time>
      </trkpt>
      <trkpt lat="45.50141" lon="6.7411">
        <ele>2241.4</ele>
        <time>2021-08-12T10:48:14Z</time>
      </trkpt>
      <trkpt lat="45.50141" lon="6.7411">
        <ele>2241.4</ele>
        <time>2021-08-12T10:48:15Z</time>
      </trkpt>
      <trkpt lat="45.50141" lon="6.7411">
        <ele>2241.4</ele>
        <time>2021-08-12T10:48:16Z</time>
      </trkpt>
      <trkpt lat="45.50141" lon="6.7411">
        <ele>2241.4</ele>
        <time>2021-08-12T10:48:17Z</time>
      </trkpt>
      <trkpt lat="45.50141" lon="6.7411">
        <ele>2241.4</ele>
        <time>2021-08-12T10:48:18Z</time>
      </trkpt>
      <trkpt lat="45.50141" lon="6.7411">
        <ele>2241.4</ele>
        <time>2021-08-12T10:48:19Z</time>
      </trkpt>
      <trkpt lat="45.50141" lon="6.7411">
        <ele>2241.4</ele>
        <time>2021-08-12T10:48:20Z</time>
      </trkpt>
      <trkpt lat="45.50141" lon="6.7411">
        <ele>2241.4</ele>
        <time>2021-08-12T10:48:21Z</time>
      </trkpt>
      <trkpt lat="45.50141" lon="6.7411">
        <ele>2241.4</ele>
        <time>2021-08-12T10:48:22Z</time>
      </trkpt>
      <trkpt lat="45.50141" lon="6.7411">
        <ele>2241.4</ele>
        <time>2021-08-12T10:48:23Z</time>
      </trkpt>
      <trkpt lat="45.50141" lon="6.7411">
        <ele>2241.4</ele>
        <time>2021-08-12T10:48:24Z</time>
      </trkpt>
      <trkpt lat="45.50141" lon="6.7411">
        <ele>2241.4</ele>
        <time>2021-08-12T10:48:25Z</time>
      </trkpt>
      <trkpt lat="45.50141" lon="6.7411">
        <ele>2241.4</ele>
        <time>2021-08-12T10:48:26Z</time>
      </trkpt>
      <trkpt lat="45.50141" lon="6.7411">
        <ele>2241.4</ele>
        <time>2021-08-12T10:48:27Z</time>
      </trkpt>
      <trkpt lat="45.50141" lon="6.7411">
        <ele>2241.4</ele>
        <time>2021-08-12T10:48:28Z</time>
      </trkpt>
      <trkpt lat="45.50141" lon="6.7411">
        <ele>2241.4</ele>
        <time>2021-08-12T10:48:29Z</time>
      </trkpt>
      <trkpt lat="45.50141" lon="6.7411">
        <ele>2241.4</ele>
        <time>2021-08-12T10:48:30Z</time>
      </trkpt>
      <trkpt lat="45.50141" lon="6.7411">
        <ele>2241.4</ele>
        <time>2021-08-12T10:48:31Z</time>
      </trkpt>
      <trkpt lat="45.50141" lon="6.7411">
        <ele>2241.4</ele>
        <time>2021-08-12T10:48:32Z</time>
      </trkpt>
      <trkpt lat="45.50141" lon="6.7411">
        <ele>2241.4</ele>
        <time>2021-08-12T10:48:33Z</time>
      </trkpt>
      <trkpt lat="45.50141" lon="6.7411">
        <ele>2241.4</ele>
        <time>2021-08-12T10:48:34Z</time>
      </trkpt>
      <trkpt lat="45.50141" lon="6.7411">
        <ele>2241.4</ele>
        <time>2021-08-12T10:48:35Z</time>
      </trkpt>
      <trkpt lat="45.50141" lon="6.7411">
        <ele>2241.4</ele>
        <time>2021-08-12T10:48:36Z</time>
      </trkpt>
      <trkpt lat="45.50141" lon="6.7411">
        <ele>2241.4</ele>
        <time>2021-08-12T10:48:37Z</time>
      </trkpt>
      <trkpt lat="45.50141" lon="6.7411">
        <ele>2241.4</ele>
        <time>2021-08-12T10:48:38Z</time>
      </trkpt>
      <trkpt lat="45.50141" lon="6.7411">
        <ele>2241.4</ele>
        <time>2021-08-12T10:48:39Z</time>
      </trkpt>
      <trkpt lat="45.50141" lon="6.7411">
        <ele>2241.4</ele>
        <time>2021-08-12T10:48:40Z</time>
      </trkpt>
      <trkpt lat="45.50141" lon="6.7411">
        <ele>2241.4</ele>
        <time>2021-08-12T10:48:41Z</time>
      </trkpt>
      <trkpt lat="45.50141" lon="6.7411">
        <ele>2241.4</ele>
        <time>2021-08-12T10:48:42Z</time>
      </trkpt>
      <trkpt lat="45.50141" lon="6.7411">
        <ele>2241.4</ele>
        <time>2021-08-12T10:48:43Z</time>
      </trkpt>
      <trkpt lat="45.50141" lon="6.7411">
        <ele>2241.4</ele>
        <time>2021-08-12T10:48:44Z</time>
      </trkpt>
      <trkpt lat="45.50141" lon="6.7411">
        <ele>2241.4</ele>
        <time>2021-08-12T10:48:45Z</time>
      </trkpt>
      <trkpt lat="45.50141" lon="6.7411">
        <ele>2241.4</ele>
        <time>2021-08-12T10:48:46Z</time>
      </trkpt>
      <trkpt lat="45.50141" lon="6.7411">
        <ele>2241.4</ele>
        <time>2021-08-12T10:48:47Z</time>
      </trkpt>
      <trkpt lat="45.50141" lon="6.7411">
        <ele>2241.4</ele>
        <time>2021-08-12T10:48:48Z</time>
      </trkpt>
      <trkpt lat="45.50141" lon="6.7411">
        <ele>2241.4</ele>
        <time>2021-08-12T10:48:49Z</time>
      </trkpt>
      <trkpt lat="45.50141" lon="6.7411">
        <ele>2241.4</ele>
        <time>2021-08-12T10:48:50Z</time>
      </trkpt>
      <trkpt lat="45.50141" lon="6.7411">
        <ele>2241.4</ele>
        <time>2021-08-12T10:48:51Z</time>
      </trkpt>
      <trkpt lat="45.50141" lon="6.7411">
        <ele>2241.4</ele>
        <time>2021-08-12T10:48:52Z</time>
      </trkpt>
      <trkpt lat="45.50141" lon="6.7411">
        <ele>2241.4</ele>
        <time>2021-08-12T10:48:53Z</time>
      </trkpt>
      <trkpt lat="45.50141" lon="6.7411">
        <ele>2241.4</ele>
        <time>2021-08-12T10:48:54Z</time>
      </trkpt>
      <trkpt lat="45.50141" lon="6.7411">
        <ele>2241.4</ele>
        <time>2021-08-12T10:48:55Z</time>
      </trkpt>
      <trkpt lat="45.50141" lon="6.7411">
        <ele>2241.4</ele>
        <time>2021-08-12T10:48:56Z</time>
      </trkpt>
      <trkpt lat="45.50141" lon="6.7411">
        <ele>2241.4</ele>
        <time>2021-08-12T10:48:57Z</time>
      </trkpt>
      <trkpt lat="45.50141" lon="6.7411">
        <ele>2241.4</ele>
        <time>2021-08-12T10:48:58Z</time>
      </trkpt>
      <trkpt lat="45.50141" lon="6.7411">
        <ele>2241.4</ele>
        <time>2021-08-12T10:48:59Z</time>
      </trkpt>
      <trkpt lat="45.50141" lon="6.7411">
        <ele>2241.4</ele>
        <time>2021-08-12T10:49:00Z</time>
      </trkpt>
      <trkpt lat="45.50141" lon="6.7411">
        <ele>2241.4</ele>
        <time>2021-08-12T10:49:01Z</time>
      </trkpt>
      <trkpt lat="45.50141" lon="6.7411">
        <ele>2241.4</ele>
        <time>2021-08-12T10:49:02Z</time>
      </trkpt>
      <trkpt lat="45.50141" lon="6.7411">
        <ele>2241.4</ele>
        <time>2021-08-12T10:49:03Z</time>
      </trkpt>
      <trkpt lat="45.50141" lon="6.7411">
        <ele>2241.4</ele>
        <time>2021-08-12T10:49:04Z</time>
      </trkpt>
      <trkpt lat="45.50141" lon="6.7411">
        <ele>2241.4</ele>
        <time>2021-08-12T10:49:05Z</time>
      </trkpt>
      <trkpt lat="45.50141" lon="6.7411">
        <ele>2241.4</ele>
        <time>2021-08-12T10:49:06Z</time>
      </trkpt>
      <trkpt lat="45.50141" lon="6.7411">
        <ele>2241.4</ele>
        <time>2021-08-12T10:49:07Z</time>
      </trkpt>
      <trkpt lat="45.50141" lon="6.7411">
        <ele>2241.4</ele>
        <time>2021-08-12T10:49:08Z</time>
      </trkpt>
      <trkpt lat="45.50141" lon="6.7411">
        <ele>2241.4</ele>
        <time>2021-08-12T10:49:09Z</time>
      </trkpt>
      <trkpt lat="45.50141" lon="6.7411">
        <ele>2241.4</ele>
        <time>2021-08-12T10:49:10Z</time>
      </trkpt>
      <trkpt lat="45.50141" lon="6.7411">
        <ele>2241.4</ele>
        <time>2021-08-12T10:49:11Z</time>
      </trkpt>
      <trkpt lat="45.50141" lon="6.7411">
        <ele>2241.4</ele>
        <time>2021-08-12T10:49:12Z</time>
      </trkpt>
      <trkpt lat="45.50141" lon="6.7411">
        <ele>2241.4</ele>
        <time>2021-08-12T10:49:13Z</time>
      </trkpt>
      <trkpt lat="45.50141" lon="6.7411">
        <ele>2241.4</ele>
        <time>2021-08-12T10:49:14Z</time>
      </trkpt>
      <trkpt lat="45.50141" lon="6.7411">
        <ele>2241.4</ele>
        <time>2021-08-12T10:49:15Z</time>
      </trkpt>
      <trkpt lat="45.50141" lon="6.7411">
        <ele>2241.4</ele>
        <time>2021-08-12T10:49:16Z</time>
      </trkpt>
      <trkpt lat="45.50141" lon="6.7411">
        <ele>2241.4</ele>
        <time>2021-08-12T10:49:17Z</time>
      </trkpt>
      <trkpt lat="45.50141" lon="6.7411">
        <ele>2241.4</ele>
        <time>2021-08-12T10:49:18Z</time>
      </trkpt>
      <trkpt lat="45.50141" lon="6.7411">
        <ele>2241.4</ele>
        <time>2021-08-12T10:49:19Z</time>
      </trkpt>
      <trkpt lat="45.50141" lon="6.7411">
        <ele>2241.4</ele>
        <time>2021-08-12T10:49:20Z</time>
      </trkpt>
      <trkpt lat="45.50141" lon="6.7411">
        <ele>2241.4</ele>
        <time>2021-08-12T10:49:21Z</time>
      </trkpt>
      <trkpt lat="45.50141" lon="6.7411">
        <ele>2241.4</ele>
        <time>2021-08-12T10:49:22Z</time>
      </trkpt>
      <trkpt lat="45.50141" lon="6.7411">
        <ele>2241.4</ele>
        <time>2021-08-12T10:49:23Z</time>
      </trkpt>
      <trkpt lat="45.50141" lon="6.7411">
        <ele>2241.4</ele>
        <time>2021-08-12T10:49:24Z</time>
      </trkpt>
      <trkpt lat="45.50141" lon="6.7411">
        <ele>2241.4</ele>
        <time>2021-08-12T10:49:25Z</time>
      </trkpt>
      <trkpt lat="45.50141" lon="6.7411">
        <ele>2241.4</ele>
        <time>2021-08-12T10:49:26Z</time>
      </trkpt>
      <trkpt lat="45.50141" lon="6.7411">
        <ele>2241.4</ele>
        <time>2021-08-12T10:49:27Z</time>
      </trkpt>
      <trkpt lat="45.50141" lon="6.7411">
        <ele>2241.4</ele>
        <time>2021-08-12T10:49:28Z</time>
      </trkpt>
      <trkpt lat="45.50141" lon="6.7411">
        <ele>2241.4</ele>
        <time>2021-08-12T10:49:29Z</time>
      </trkpt>
      <trkpt lat="45.50141" lon="6.7411">
        <ele>2241.4</ele>
        <time>2021-08-12T10:49:30Z</time>
      </trkpt>
      <trkpt lat="45.50141" lon="6.7411">
        <ele>2241.4</ele>
        <time>2021-08-12T10:49:31Z</time>
      </trkpt>
      <trkpt lat="45.50141" lon="6.7411">
        <ele>2241.4</ele>
        <time>2021-08-12T10:49:32Z</time>
      </trkpt>
      <trkpt lat="45.50141" lon="6.7411">
        <ele>2241.4</ele>
        <time>2021-08-12T10:49:33Z</time>
      </trkpt>
      <trkpt lat="45.50141" lon="6.7411">
        <ele>2241.4</ele>
        <time>2021-08-12T10:49:34Z</time>
      </trkpt>
      <trkpt lat="45.50141" lon="6.7411">
        <ele>2241.4</ele>
        <time>2021-08-12T10:49:35Z</time>
      </trkpt>
      <trkpt lat="45.50141" lon="6.7411">
        <ele>2241.4</ele>
        <time>2021-08-12T10:49:36Z</time>
      </trkpt>
      <trkpt lat="45.50141" lon="6.7411">
        <ele>2241.4</ele>
        <time>2021-08-12T10:49:37Z</time>
      </trkpt>
      <trkpt lat="45.50141" lon="6.7411">
        <ele>2241.4</ele>
        <time>2021-08-12T10:49:38Z</time>
      </trkpt>
      <trkpt lat="45.50141" lon="6.7411">
        <ele>2241.4</ele>
        <time>2021-08-12T10:49:39Z</time>
      </trkpt>
      <trkpt lat="45.50141" lon="6.7411">
        <ele>2241.4</ele>
        <time>2021-08-12T10:49:40Z</time>
      </trkpt>
      <trkpt lat="45.50141" lon="6.7411">
        <ele>2241.4</ele>
        <time>2021-08-12T10:49:41Z</time>
      </trkpt>
      <trkpt lat="45.50141" lon="6.7411">
        <ele>2241.4</ele>
        <time>2021-08-12T10:49:42Z</time>
      </trkpt>
      <trkpt lat="45.50141" lon="6.7411">
        <ele>2241.4</ele>
        <time>2021-08-12T10:49:43Z</time>
      </trkpt>
      <trkpt lat="45.50141" lon="6.7411">
        <ele>2241.4</ele>
        <time>2021-08-12T10:49:44Z</time>
      </trkpt>
      <trkpt lat="45.50141" lon="6.7411">
        <ele>2241.4</ele>
        <time>2021-08-12T10:49:45Z</time>
      </trkpt>
      <trkpt lat="45.50141" lon="6.7411">
        <ele>2241.4</ele>
        <time>2021-08-12T10:49:46Z</time>
      </trkpt>
      <trkpt lat="45.50141" lon="6.7411">
        <ele>2241.4</ele>
        <time>2021-08-12T10:49:47Z</time>
      </trkpt>
      <trkpt lat="45.50141" lon="6.7411">
        <ele>2241.4</ele>
        <time>2021-08-12T10:49:48Z</time>
      </trkpt>
      <trkpt lat="45.50141" lon="6.7411">
        <ele>2241.4</ele>
        <time>2021-08-12T10:49:49Z</time>
      </trkpt>
      <trkpt lat="45.50141" lon="6.7411">
        <ele>2241.4</ele>
        <time>2021-08-12T10:49:50Z</time>
      </trkpt>
      <trkpt lat="45.50141" lon="6.7411">
        <ele>2241.4</ele>
        <time>2021-08-12T10:49:51Z</time>
      </trkpt>
      <trkpt lat="45.50141" lon="6.7411">
        <ele>2241.4</ele>
        <time>2021-08-12T10:49:52Z</time>
      </trkpt>
      <trkpt lat="45.50141" lon="6.7411">
        <ele>2241.4</ele>
        <time>2021-08-12T10:49:53Z</time>
      </trkpt>
      <trkpt lat="45.50141" lon="6.7411">
        <ele>2241.4</ele>
        <time>2021-08-12T10:49:54Z</time>
      </trkpt>
      <trkpt lat="45.50141" lon="6.7411">
        <ele>2241.4</ele>
        <time>2021-08-12T10:49:55Z</time>
      </trkpt>
      <trkpt lat="45.50141" lon="6.7411">
        <ele>2241.4</ele>
        <time>2021-08-12T10:49:56Z</time>
      </trkpt>
      <trkpt lat="45.50141" lon="6.7411">
        <ele>2241.4</ele>
        <time>2021-08-12T10:49:57Z</time>
      </trkpt>
      <trkpt lat="45.50141" lon="6.7411">
        <ele>2241.4</ele>
        <time>2021-08-12T10:49:58Z</time>
      </trkpt>
      <trkpt lat="45.50141" lon="6.7411">
        <ele>2241.4</ele>
        <time>2021-08-12T10:49:59Z</time>
      </trkpt>
      <trkpt lat="45.50141" lon="6.7411">
        <ele>2241.4</ele>
        <time>2021-08-12T10:50:00Z</time>
      </trkpt>
      <trkpt lat="45.50141" lon="6.7411">
        <ele>2241.4</ele>
        <time>2021-08-12T10:50:01Z</time>
      </trkpt>
      <trkpt lat="45.50141" lon="6.7411">
        <ele>2241.4</ele>
        <time>2021-08-12T10:50:02Z</time>
      </trkpt>
      <trkpt lat="45.50141" lon="6.7411">
        <ele>2241.4</ele>
        <time>2021-08-12T10:50:03Z</time>
      </trkpt>
      <trkpt lat="45.50141" lon="6.7411">
        <ele>2241.4</ele>
        <time>2021-08-12T10:50:04Z</time>
      </trkpt>
      <trkpt lat="45.50141" lon="6.7411">
        <ele>2241.4</ele>
        <time>2021-08-12T10:50:05Z</time>
      </trkpt>
      <trkpt lat="45.50141" lon="6.7411">
        <ele>2241.4</ele>
        <time>2021-08-12T10:50:06Z</time>
      </trkpt>
      <trkpt lat="45.50141" lon="6.7411">
        <ele>2241.4</ele>
        <time>2021-08-12T10:50:07Z</time>
      </trkpt>
      <trkpt lat="45.50141" lon="6.7411">
        <ele>2241.4</ele>
        <time>2021-08-12T10:50:08Z</time>
      </trkpt>
      <trkpt lat="45.50141" lon="6.7411">
        <ele>2241.4</ele>
        <time>2021-08-12T10:50:09Z</time>
      </trkpt>
      <trkpt lat="45.50141" lon="6.7411">
        <ele>2241.4</ele>
        <time>2021-08-12T10:50:10Z</time>
      </trkpt>
      <trkpt lat="45.50141" lon="6.7411">
        <ele>2241.4</ele>
        <time>2021-08-12T10:50:11Z</time>
      </trkpt>
      <trkpt lat="45.50141" lon="6.7411">
        <ele>2241.4</ele>
        <time>2021-08-12T10:50:12Z</time>
      </trkpt>
      <trkpt lat="45.50141" lon="6.7411">
        <ele>2241.4</ele>
        <time>2021-08-12T10:50:13Z</time>
      </trkpt>
      <trkpt lat="45.50141" lon="6.7411">
        <ele>2241.4</ele>
        <time>2021-08-12T10:50:14Z</time>
      </trkpt>
      <trkpt lat="45.50141" lon="6.7411">
        <ele>2241.4</ele>
        <time>2021-08-12T10:50:15Z</time>
      </trkpt>
      <trkpt lat="45.50141" lon="6.7411">
        <ele>2241.4</ele>
        <time>2021-08-12T10:50:16Z</time>
      </trkpt>
      <trkpt lat="45.50141" lon="6.7411">
        <ele>2241.4</ele>
        <time>2021-08-12T10:50:17Z</time>
      </trkpt>
      <trkpt lat="45.50141" lon="6.7411">
        <ele>2241.4</ele>
        <time>2021-08-12T10:50:18Z</time>
      </trkpt>
      <trkpt lat="45.50141" lon="6.7411">
        <ele>2241.4</ele>
        <time>2021-08-12T10:50:19Z</time>
      </trkpt>
      <trkpt lat="45.50141" lon="6.7411">
        <ele>2241.4</ele>
        <time>2021-08-12T10:50:20Z</time>
      </trkpt>
      <trkpt lat="45.50141" lon="6.7411">
        <ele>2241.4</ele>
        <time>2021-08-12T10:50:21Z</time>
      </trkpt>
      <trkpt lat="45.50141" lon="6.7411">
        <ele>2241.4</ele>
        <time>2021-08-12T10:50:22Z</time>
      </trkpt>
      <trkpt lat="45.50141" lon="6.7411">
        <ele>2241.4</ele>
        <time>2021-08-12T10:50:23Z</time>
      </trkpt>
      <trkpt lat="45.50141" lon="6.7411">
        <ele>2241.4</ele>
        <time>2021-08-12T10:50:24Z</time>
      </trkpt>
      <trkpt lat="45.50141" lon="6.7411">
        <ele>2241.4</ele>
        <time>2021-08-12T10:50:25Z</time>
      </trkpt>
      <trkpt lat="45.50141" lon="6.7411">
        <ele>2241.4</ele>
        <time>2021-08-12T10:50:26Z</time>
      </trkpt>
      <trkpt lat="45.50141" lon="6.7411">
        <ele>2241.4</ele>
        <time>2021-08-12T10:50:27Z</time>
      </trkpt>
      <trkpt lat="45.50141" lon="6.7411">
        <ele>2241.4</ele>
        <time>2021-08-12T10:50:28Z</time>
      </trkpt>
      <trkpt lat="45.50141" lon="6.7411">
        <ele>2241.4</ele>
        <time>2021-08-12T10:50:29Z</time>
      </trkpt>
      <trkpt lat="45.50141" lon="6.7411">
        <ele>2241.4</ele>
        <time>2021-08-12T10:50:30Z</time>
      </trkpt>
      <trkpt lat="45.50141" lon="6.7411">
        <ele>2241.4</ele>
        <time>2021-08-12T10:50:31Z</time>
      </trkpt>
      <trkpt lat="45.50141" lon="6.7411">
        <ele>2241.4</ele>
        <time>2021-08-12T10:50:32Z</time>
      </trkpt>
      <trkpt lat="45.50141" lon="6.7411">
        <ele>2241.4</ele>
        <time>2021-08-12T10:50:33Z</time>
      </trkpt>
      <trkpt lat="45.50141" lon="6.7411">
        <ele>2241.4</ele>
        <time>2021-08-12T10:50:34Z</time>
      </trkpt>
      <trkpt lat="45.50141" lon="6.7411">
        <ele>2241.4</ele>
        <time>2021-08-12T10:50:35Z</time>
      </trkpt>
      <trkpt lat="45.50141" lon="6.7411">
        <ele>2241.4</ele>
        <time>2021-08-12T10:50:36Z</time>
      </trkpt>
      <trkpt lat="45.50141" lon="6.7411">
        <ele>2241.4</ele>
        <time>2021-08-12T10:50:37Z</time>
      </trkpt>
      <trkpt lat="45.50141" lon="6.7411">
        <ele>2241.4</ele>
        <time>2021-08-12T10:50:38Z</time>
      </trkpt>
      <trkpt lat="45.50141" lon="6.7411">
        <ele>2241.4</ele>
        <time>2021-08-12T10:50:39Z</time>
      </trkpt>
      <trkpt lat="45.50141" lon="6.7411">
        <ele>2241.4</ele>
        <time>2021-08-12T10:50:40Z</time>
      </trkpt>
      <trkpt lat="45.50141" lon="6.7411">
        <ele>2241.4</ele>
        <time>2021-08-12T10:50:41Z</time>
      </trkpt>
      <trkpt lat="45.50141" lon="6.7411">
        <ele>2241.4</ele>
        <time>2021-08-12T10:50:42Z</time>
      </trkpt>
      <trkpt lat="45.50141" lon="6.7411">
        <ele>2241.4</ele>
        <time>2021-08-12T10:50:43Z</time>
      </trkpt>
      <trkpt lat="45.50141" lon="6.7411">
        <ele>2241.4</ele>
        <time>2021-08-12T10:50:44Z</time>
      </trkpt>
      <trkpt lat="45.50141" lon="6.7411">
        <ele>2241.4</ele>
        <time>2021-08-12T10:50:45Z</time>
      </trkpt>
      <trkpt lat="45.50141" lon="6.7411">
        <ele>2241.4</ele>
        <time>2021-08-12T10:50:46Z</time>
      </trkpt>
      <trkpt lat="45.50141" lon="6.7411">
        <ele>2241.4</ele>
        <time>2021-08-12T10:50:47Z</time>
      </trkpt>
      <trkpt lat="45.50141" lon="6.7411">
        <ele>2241.4</ele>
        <time>2021-08-12T10:50:48Z</time>
      </trkpt>
      <trkpt lat="45.50141" lon="6.7411">
        <ele>2241.4</ele>
        <time>2021-08-12T10:50:49Z</time>
      </trkpt>
      <trkpt lat="45.50141" lon="6.7411">
        <ele>2241.4</ele>
        <time>2021-08-12T10:50:50Z</time>
      </trkpt>
      <trkpt lat="45.50141" lon="6.7411">
        <ele>2241.4</ele>
        <time>2021-08-12T10:50:51Z</time>
      </trkpt>
      <trkpt lat="45.50141" lon="6.7411">
        <ele>2241.4</ele>
        <time>2021-08-12T10:50:52Z</time>
      </trkpt>
      <trkpt lat="45.50141" lon="6.7411">
        <ele>2241.4</ele>
        <time>2021-08-12T10:50:53Z</time>
      </trkpt>
      <trkpt lat="45.50141" lon="6.7411">
        <ele>2241.4</ele>
        <time>2021-08-12T10:50:54Z</time>
      </trkpt>
      <trkpt lat="45.50141" lon="6.7411">
        <ele>2241.4</ele>
        <time>2021-08-12T10:50:55Z</time>
      </trkpt>
      <trkpt lat="45.50141" lon="6.7411">
        <ele>2241.4</ele>
        <time>2021-08-12T10:50:56Z</time>
      </trkpt>
      <trkpt lat="45.50141" lon="6.7411">
        <ele>2241.4</ele>
        <time>2021-08-12T10:50:57Z</time>
      </trkpt>
      <trkpt lat="45.50141" lon="6.7411">
        <ele>2241.4</ele>
        <time>2021-08-12T10:50:58Z</time>
      </trkpt>
      <trkpt lat="45.50141" lon="6.7411">
        <ele>2241.4</ele>
        <time>2021-08-12T10:50:59Z</time>
      </trkpt>
      <trkpt lat="45.50141" lon="6.7411">
        <ele>2241.4</ele>
        <time>2021-08-12T10:51:00Z</time>
      </trkpt>
      <trkpt lat="45.50141" lon="6.7411">
        <ele>2241.4</ele>
        <time>2021-08-12T10:51:01Z</time>
      </trkpt>
      <trkpt lat="45.50141" lon="6.7411">
        <ele>2241.4</ele>
        <time>2021-08-12T10:51:02Z</time>
      </trkpt>
      <trkpt lat="45.50141" lon="6.7411">
        <ele>2241.4</ele>
        <time>2021-08-12T10:51:03Z</time>
      </trkpt>
      <trkpt lat="45.50141" lon="6.7411">
        <ele>2241.4</ele>
        <time>2021-08-12T10:51:04Z</time>
      </trkpt>
      <trkpt lat="45.50141" lon="6.7411">
        <ele>2241.4</ele>
        <time>2021-08-12T10:51:05Z</time>
      </trkpt>
      <trkpt lat="45.50141" lon="6.7411">
        <ele>2241.4</ele>
        <time>2021-08-12T10:51:06Z</time>
      </trkpt>
      <trkpt lat="45.50141" lon="6.7411">
        <ele>2241.4</ele>
        <time>2021-08-12T10:51:07Z</time>
      </trkpt>
      <trkpt lat="45.50141" lon="6.7411">
        <ele>2241.4</ele>
        <time>2021-08-12T10:51:08Z</time>
      </trkpt>
      <trkpt lat="45.50141" lon="6.7411">
        <ele>2241.4</ele>
        <time>2021-08-12T10:51:09Z</time>
      </trkpt>
      <trkpt lat="45.50141" lon="6.7411">
        <ele>2241.4</ele>
        <time>2021-08-12T10:51:10Z</time>
      </trkpt>
      <trkpt lat="45.50141" lon="6.7411">
        <ele>2241.4</ele>
        <time>2021-08-12T10:51:11Z</time>
      </trkpt>
      <trkpt lat="45.50141" lon="6.7411">
        <ele>2241.4</ele>
        <time>2021-08-12T10:51:12Z</time>
      </trkpt>
      <trkpt lat="45.50141" lon="6.7411">
        <ele>2241.4</ele>
        <time>2021-08-12T10:51:13Z</time>
      </trkpt>
      <trkpt lat="45.50141" lon="6.7411">
        <ele>2241.4</ele>
        <time>2021-08-12T10:51:14Z</time>
      </trkpt>
      <trkpt lat="45.50141" lon="6.7411">
        <ele>2241.4</ele>
        <time>2021-08-12T10:51:15Z</time>
      </trkpt>
      <trkpt lat="45.50141" lon="6.7411">
        <ele>2241.4</ele>
        <time>2021-08-12T10:51:16Z</time>
      </trkpt>
      <trkpt lat="45.50141" lon="6.7411">
        <ele>2241.4</ele>
        <time>2021-08-12T10:51:17Z</time>
      </trkpt>
      <trkpt lat="45.50141" lon="6.7411">
        <ele>2241.4</ele>
        <time>2021-08-12T10:51:18Z</time>
      </trkpt>
      <trkpt lat="45.50141" lon="6.7411">
        <ele>2241.4</ele>
        <time>2021-08-12T10:51:19Z</time>
      </trkpt>
      <trkpt lat="45.50141" lon="6.7411">
        <ele>2241.4</ele>
        <time>2021-08-12T10:51:20Z</time>
      </trkpt>
      <trkpt lat="45.50141" lon="6.7411">
        <ele>2241.4</ele>
        <time>2021-08-12T10:51:21Z</time>
      </trkpt>
      <trkpt lat="45.50141" lon="6.7411">
        <ele>2241.4</ele>
        <time>2021-08-12T10:51:22Z</time>
      </trkpt>
      <trkpt lat="45.50141" lon="6.7411">
        <ele>2241.4</ele>
        <time>2021-08-12T10:51:23Z</time>
      </trkpt>
      <trkpt lat="45.50141" lon="6.7411">
        <ele>2241.4</ele>
        <time>2021-08-12T10:51:24Z</time>
      </trkpt>
      <trkpt lat="45.50141" lon="6.7411">
        <ele>2241.4</ele>
        <time>2021-08-12T10:51:25Z</time>
      </trkpt>
      <trkpt lat="45.50141" lon="6.7411">
        <ele>2241.4</ele>
        <time>2021-08-12T10:51:26Z</time>
      </trkpt>
      <trkpt lat="45.50141" lon="6.7411">
        <ele>2241.4</ele>
        <time>2021-08-12T10:51:27Z</time>
      </trkpt>
      <trkpt lat="45.50141" lon="6.7411">
        <ele>2241.4</ele>
        <time>2021-08-12T10:51:28Z</time>
      </trkpt>
      <trkpt lat="45.50141" lon="6.7411">
        <ele>2241.4</ele>
        <time>2021-08-12T10:51:29Z</time>
      </trkpt>
      <trkpt lat="45.50141" lon="6.7411">
        <ele>2241.4</ele>
        <time>2021-08-12T10:51:30Z</time>
      </trkpt>
      <trkpt lat="45.50141" lon="6.7411">
        <ele>2241.4</ele>
        <time>2021-08-12T10:51:31Z</time>
      </trkpt>
      <trkpt lat="45.50141" lon="6.7411">
        <ele>2241.4</ele>
        <time>2021-08-12T10:51:32Z</time>
      </trkpt>
      <trkpt lat="45.50141" lon="6.7411">
        <ele>2241.4</ele>
        <time>2021-08-12T10:51:33Z</time>
      </trkpt>
      <trkpt lat="45.50141" lon="6.7411">
        <ele>2241.4</ele>
        <time>2021-08-12T10:51:34Z</time>
      </trkpt>
      <trkpt lat="45.50141" lon="6.7411">
        <ele>2241.4</ele>
        <time>2021-08-12T10:51:35Z</time>
      </trkpt>
      <trkpt lat="45.50141" lon="6.7411">
        <ele>2241.4</ele>
        <time>2021-08-12T10:51:36Z</time>
      </trkpt>
      <trkpt lat="45.50141" lon="6.7411">
        <ele>2241.4</ele>
        <time>2021-08-12T10:51:37Z</time>
      </trkpt>
      <trkpt lat="45.50141" lon="6.7411">
        <ele>2241.4</ele>
        <time>2021-08-12T10:51:38Z</time>
      </trkpt>
      <trkpt lat="45.50141" lon="6.7411">
        <ele>2241.4</ele>
        <time>2021-08-12T10:51:39Z</time>
      </trkpt>
      <trkpt lat="45.50141" lon="6.7411">
        <ele>2241.4</ele>
        <time>2021-08-12T10:51:40Z</time>
      </trkpt>
      <trkpt lat="45.50141" lon="6.7411">
        <ele>2241.4</ele>
        <time>2021-08-12T10:51:41Z</time>
      </trkpt>
      <trkpt lat="45.50141" lon="6.7411">
        <ele>2241.4</ele>
        <time>2021-08-12T10:51:42Z</time>
      </trkpt>
      <trkpt lat="45.50141" lon="6.7411">
        <ele>2241.4</ele>
        <time>2021-08-12T10:51:43Z</time>
      </trkpt>
      <trkpt lat="45.50141" lon="6.7411">
        <ele>2241.4</ele>
        <time>2021-08-12T10:51:44Z</time>
      </trkpt>
      <trkpt lat="45.50141" lon="6.7411">
        <ele>2241.4</ele>
        <time>2021-08-12T10:51:45Z</time>
      </trkpt>
      <trkpt lat="45.50141" lon="6.7411">
        <ele>2241.4</ele>
        <time>2021-08-12T10:51:46Z</time>
      </trkpt>
      <trkpt lat="45.50141" lon="6.7411">
        <ele>2241.4</ele>
        <time>2021-08-12T10:51:47Z</time>
      </trkpt>
      <trkpt lat="45.50141" lon="6.7411">
        <ele>2241.4</ele>
        <time>2021-08-12T10:51:48Z</time>
      </trkpt>
      <trkpt lat="45.50141" lon="6.7411">
        <ele>2241.4</ele>
        <time>2021-08-12T10:51:49Z</time>
      </trkpt>
      <trkpt lat="45.50141" lon="6.7411">
        <ele>2241.4</ele>
        <time>2021-08-12T10:51:50Z</time>
      </trkpt>
      <trkpt lat="45.50141" lon="6.7411">
        <ele>2241.4</ele>
        <time>2021-08-12T10:51:51Z</time>
      </trkpt>
      <trkpt lat="45.50141" lon="6.7411">
        <ele>2241.4</ele>
        <time>2021-08-12T10:51:52Z</time>
      </trkpt>
      <trkpt lat="45.50141" lon="6.7411">
        <ele>2241.4</ele>
        <time>2021-08-12T10:51:53Z</time>
      </trkpt>
      <trkpt lat="45.50141" lon="6.7411">
        <ele>2241.4</ele>
        <time>2021-08-12T10:51:54Z</time>
      </trkpt>
      <trkpt lat="45.50141" lon="6.7411">
        <ele>2241.4</ele>
        <time>2021-08-12T10:51:55Z</time>
      </trkpt>
      <trkpt lat="45.50141" lon="6.7411">
        <ele>2241.4</ele>
        <time>2021-08-12T10:51:56Z</time>
      </trkpt>
      <trkpt lat="45.50141" lon="6.7411">
        <ele>2241.4</ele>
        <time>2021-08-12T10:51:57Z</time>
      </trkpt>
      <trkpt lat="45.50141" lon="6.7411">
        <ele>2241.4</ele>
        <time>2021-08-12T10:51:58Z</time>
      </trkpt>
      <trkpt lat="45.50141" lon="6.7411">
        <ele>2241.4</ele>
        <time>2021-08-12T10:51:59Z</time>
      </trkpt>
      <trkpt lat="45.50141" lon="6.7411">
        <ele>2241.4</ele>
        <time>2021-08-12T10:52:00Z</time>
      </trkpt>
      <trkpt lat="45.50141" lon="6.7411">
        <ele>2241.4</ele>
        <time>2021-08-12T10:52:01Z</time>
      </trkpt>
      <trkpt lat="45.50141" lon="6.7411">
        <ele>2241.4</ele>
        <time>2021-08-12T10:52:02Z</time>
      </trkpt>
      <trkpt lat="45.50141" lon="6.7411">
        <ele>2241.4</ele>
        <time>2021-08-12T10:52:03Z</time>
      </trkpt>
      <trkpt lat="45.50141" lon="6.7411">
        <ele>2241.4</ele>
        <time>2021-08-12T10:52:04Z</time>
      </trkpt>
      <trkpt lat="45.50141" lon="6.7411">
        <ele>2241.4</ele>
        <time>2021-08-12T10:52:05Z</time>
      </trkpt>
      <trkpt lat="45.50141" lon="6.7411">
        <ele>2241.4</ele>
        <time>2021-08-12T10:52:06Z</time>
      </trkpt>
      <trkpt lat="45.50141" lon="6.7411">
        <ele>2241.4</ele>
        <time>2021-08-12T10:52:07Z</time>
      </trkpt>
      <trkpt lat="45.50141" lon="6.7411">
        <ele>2241.4</ele>
        <time>2021-08-12T10:52:08Z</time>
      </trkpt>
      <trkpt lat="45.50141" lon="6.7411">
        <ele>2241.4</ele>
        <time>2021-08-12T10:52:09Z</time>
      </trkpt>
      <trkpt lat="45.50141" lon="6.7411">
        <ele>2241.4</ele>
        <time>2021-08-12T10:52:10Z</time>
      </trkpt>
      <trkpt lat="45.50141" lon="6.7411">
        <ele>2241.4</ele>
        <time>2021-08-12T10:52:11Z</time>
      </trkpt>
      <trkpt lat="45.50141" lon="6.7411">
        <ele>2241.4</ele>
        <time>2021-08-12T10:52:12Z</time>
      </trkpt>
      <trkpt lat="45.50141" lon="6.7411">
        <ele>2241.4</ele>
        <time>2021-08-12T10:52:13Z</time>
      </trkpt>
      <trkpt lat="45.50141" lon="6.7411">
        <ele>2241.4</ele>
        <time>2021-08-12T10:52:14Z</time>
      </trkpt>
      <trkpt lat="45.50141" lon="6.7411">
        <ele>2241.4</ele>
        <time>2021-08-12T10:52:15Z</time>
      </trkpt>
      <trkpt lat="45.50141" lon="6.7411">
        <ele>2241.4</ele>
        <time>2021-08-12T10:52:16Z</time>
      </trkpt>
      <trkpt lat="45.50141" lon="6.7411">
        <ele>2241.4</ele>
        <time>2021-08-12T10:52:17Z</time>
      </trkpt>
      <trkpt lat="45.50141" lon="6.7411">
        <ele>2241.4</ele>
        <time>2021-08-12T10:52:18Z</time>
      </trkpt>
      <trkpt lat="45.50141" lon="6.7411">
        <ele>2241.4</ele>
        <time>2021-08-12T10:52:19Z</time>
      </trkpt>
      <trkpt lat="45.50141" lon="6.7411">
        <ele>2241.4</ele>
        <time>2021-08-12T10:52:20Z</time>
      </trkpt>
      <trkpt lat="45.50141" lon="6.7411">
        <ele>2241.4</ele>
        <time>2021-08-12T10:52:21Z</time>
      </trkpt>
      <trkpt lat="45.50141" lon="6.7411">
        <ele>2241.4</ele>
        <time>2021-08-12T10:52:22Z</time>
      </trkpt>
      <trkpt lat="45.50141" lon="6.7411">
        <ele>2241.4</ele>
        <time>2021-08-12T10:52:23Z</time>
      </trkpt>
      <trkpt lat="45.50141" lon="6.7411">
        <ele>2241.4</ele>
        <time>2021-08-12T10:52:24Z</time>
      </trkpt>
      <trkpt lat="45.50141" lon="6.7411">
        <ele>2241.4</ele>
        <time>2021-08-12T10:52:25Z</time>
      </trkpt>
      <trkpt lat="45.50141" lon="6.7411">
        <ele>2241.4</ele>
        <time>2021-08-12T10:52:26Z</time>
      </trkpt>
      <trkpt lat="45.50141" lon="6.7411">
        <ele>2241.4</ele>
        <time>2021-08-12T10:52:27Z</time>
      </trkpt>
      <trkpt lat="45.50141" lon="6.7411">
        <ele>2241.4</ele>
        <time>2021-08-12T10:52:28Z</time>
      </trkpt>
      <trkpt lat="45.50141" lon="6.7411">
        <ele>2241.4</ele>
        <time>2021-08-12T10:52:29Z</time>
      </trkpt>
      <trkpt lat="45.50141" lon="6.7411">
        <ele>2241.4</ele>
        <time>2021-08-12T10:52:30Z</time>
      </trkpt>
      <trkpt lat="45.50141" lon="6.7411">
        <ele>2241.4</ele>
        <time>2021-08-12T10:52:31Z</time>
      </trkpt>
      <trkpt lat="45.50141" lon="6.7411">
        <ele>2241.4</ele>
        <time>2021-08-12T10:52:32Z</time>
      </trkpt>
      <trkpt lat="45.50141" lon="6.7411">
        <ele>2241.4</ele>
        <time>2021-08-12T10:52:33Z</time>
      </trkpt>
      <trkpt lat="45.50141" lon="6.7411">
        <ele>2241.4</ele>
        <time>2021-08-12T10:52:34Z</time>
      </trkpt>
      <trkpt lat="45.50141" lon="6.7411">
        <ele>2241.4</ele>
        <time>2021-08-12T10:52:35Z</time>
      </trkpt>
      <trkpt lat="45.50141" lon="6.7411">
        <ele>2241.4</ele>
        <time>2021-08-12T10:52:36Z</time>
      </trkpt>
      <trkpt lat="45.50141" lon="6.7411">
        <ele>2241.4</ele>
        <time>2021-08-12T10:52:37Z</time>
      </trkpt>
      <trkpt lat="45.50141" lon="6.7411">
        <ele>2241.4</ele>
        <time>2021-08-12T10:52:38Z</time>
      </trkpt>
      <trkpt lat="45.50141" lon="6.7411">
        <ele>2241.4</ele>
        <time>2021-08-12T10:52:39Z</time>
      </trkpt>
      <trkpt lat="45.50141" lon="6.7411">
        <ele>2241.4</ele>
        <time>2021-08-12T10:52:40Z</time>
      </trkpt>
      <trkpt lat="45.50141" lon="6.7411">
        <ele>2241.4</ele>
        <time>2021-08-12T10:52:41Z</time>
      </trkpt>
      <trkpt lat="45.50141" lon="6.7411">
        <ele>2241.4</ele>
        <time>2021-08-12T10:52:42Z</time>
      </trkpt>
      <trkpt lat="45.50141" lon="6.7411">
        <ele>2241.4</ele>
        <time>2021-08-12T10:52:43Z</time>
      </trkpt>
      <trkpt lat="45.50141" lon="6.7411">
        <ele>2241.4</ele>
        <time>2021-08-12T10:52:44Z</time>
      </trkpt>
      <trkpt lat="45.50141" lon="6.7411">
        <ele>2241.4</ele>
        <time>2021-08-12T10:52:45Z</time>
      </trkpt>
      <trkpt lat="45.50141" lon="6.7411">
        <ele>2241.4</ele>
        <time>2021-08-12T10:52:46Z</time>
      </trkpt>
      <trkpt lat="45.50141" lon="6.7411">
        <ele>2241.4</ele>
        <time>2021-08-12T10:52:47Z</time>
      </trkpt>
      <trkpt lat="45.50141" lon="6.7411">
        <ele>2241.4</ele>
        <time>2021-08-12T10:52:48Z</time>
      </trkpt>
      <trkpt lat="45.50141" lon="6.7411">
        <ele>2241.4</ele>
        <time>2021-08-12T10:52:49Z</time>
      </trkpt>
      <trkpt lat="45.50141" lon="6.7411">
        <ele>2241.4</ele>
        <time>2021-08-12T10:52:50Z</time>
      </trkpt>
      <trkpt lat="45.50141" lon="6.7411">
        <ele>2241.4</ele>
        <time>2021-08-12T10:52:51Z</time>
      </trkpt>
      <trkpt lat="45.50141" lon="6.7411">
        <ele>2241.4</ele>
        <time>2021-08-12T10:52:52Z</time>
      </trkpt>
      <trkpt lat="45.50141" lon="6.7411">
        <ele>2241.4</ele>
        <time>2021-08-12T10:52:53Z</time>
      </trkpt>
      <trkpt lat="45.50141" lon="6.7411">
        <ele>2241.4</ele>
        <time>2021-08-12T10:52:54Z</time>
      </trkpt>
      <trkpt lat="45.50141" lon="6.7411">
        <ele>2241.4</ele>
        <time>2021-08-12T10:52:55Z</time>
      </trkpt>
      <trkpt lat="45.50141" lon="6.7411">
        <ele>2241.4</ele>
        <time>2021-08-12T10:52:56Z</time>
      </trkpt>
      <trkpt lat="45.50141" lon="6.7411">
        <ele>2241.4</ele>
        <time>2021-08-12T10:52:57Z</time>
      </trkpt>
      <trkpt lat="45.50141" lon="6.7411">
        <ele>2241.4</ele>
        <time>2021-08-12T10:52:58Z</time>
      </trkpt>
      <trkpt lat="45.50141" lon="6.7411">
        <ele>2241.4</ele>
        <time>2021-08-12T10:52:59Z</time>
      </trkpt>
      <trkpt lat="45.50141" lon="6.7411">
        <ele>2241.4</ele>
        <time>2021-08-12T10:53:00Z</time>
      </trkpt>
      <trkpt lat="45.50141" lon="6.7411">
        <ele>2241.4</ele>
        <time>2021-08-12T10:53:01Z</time>
      </trkpt>
      <trkpt lat="45.50141" lon="6.7411">
        <ele>2241.4</ele>
        <time>2021-08-12T10:53:02Z</time>
      </trkpt>
      <trkpt lat="45.50141" lon="6.7411">
        <ele>2241.4</ele>
        <time>2021-08-12T10:53:03Z</time>
      </trkpt>
      <trkpt lat="45.50141" lon="6.7411">
        <ele>2241.4</ele>
        <time>2021-08-12T10:53:04Z</time>
      </trkpt>
      <trkpt lat="45.50141" lon="6.7411">
        <ele>2241.4</ele>
        <time>2021-08-12T10:53:05Z</time>
      </trkpt>
      <trkpt lat="45.50141" lon="6.7411">
        <ele>2241.4</ele>
        <time>2021-08-12T10:53:06Z</time>
      </trkpt>
      <trkpt lat="45.50141" lon="6.7411">
        <ele>2241.4</ele>
        <time>2021-08-12T10:53:07Z</time>
      </trkpt>
      <trkpt lat="45.50141" lon="6.7411">
        <ele>2241.4</ele>
        <time>2021-08-12T10:53:08Z</time>
      </trkpt>
      <trkpt lat="45.50141" lon="6.7411">
        <ele>2241.4</ele>
        <time>2021-08-12T10:53:09Z</time>
      </trkpt>
      <trkpt lat="45.50141" lon="6.7411">
        <ele>2241.4</ele>
        <time>2021-08-12T10:53:10Z</time>
      </trkpt>
      <trkpt lat="45.50141" lon="6.7411">
        <ele>2241.4</ele>
        <time>2021-08-12T10:53:11Z</time>
      </trkpt>
      <trkpt lat="45.50141" lon="6.7411">
        <ele>2241.4</ele>
        <time>2021-08-12T10:53:12Z</time>
      </trkpt>
      <trkpt lat="45.50141" lon="6.7411">
        <ele>2241.4</ele>
        <time>2021-08-12T10:53:13Z</time>
      </trkpt>
      <trkpt lat="45.50141" lon="6.7411">
        <ele>2241.4</ele>
        <time>2021-08-12T10:53:14Z</time>
      </trkpt>
      <trkpt lat="45.50141" lon="6.7411">
        <ele>2241.4</ele>
        <time>2021-08-12T10:53:15Z</time>
      </trkpt>
      <trkpt lat="45.50141" lon="6.7411">
        <ele>2241.4</ele>
        <time>2021-08-12T10:53:16Z</time>
      </trkpt>
      <trkpt lat="45.50141" lon="6.7411">
        <ele>2241.4</ele>
        <time>2021-08-12T10:53:17Z</time>
      </trkpt>
      <trkpt lat="45.50141" lon="6.7411">
        <ele>2241.4</ele>
        <time>2021-08-12T10:53:18Z</time>
      </trkpt>
      <trkpt lat="45.50141" lon="6.7411">
        <ele>2241.4</ele>
        <time>2021-08-12T10:53:19Z</time>
      </trkpt>
      <trkpt lat="45.50141" lon="6.7411">
        <ele>2241.4</ele>
        <time>2021-08-12T10:53:20Z</time>
      </trkpt>
      <trkpt lat="45.50141" lon="6.7411">
        <ele>2241.4</ele>
        <time>2021-08-12T10:53:21Z</time>
      </trkpt>
      <trkpt lat="45.50141" lon="6.7411">
        <ele>2241.4</ele>
        <time>2021-08-12T10:53:22Z</time>
      </trkpt>
      <trkpt lat="45.50141" lon="6.7411">
        <ele>2241.4</ele>
        <time>2021-08-12T10:53:23Z</time>
      </trkpt>
      <trkpt lat="45.50141" lon="6.7411">
        <ele>2241.4</ele>
        <time>2021-08-12T10:53:24Z</time>
      </trkpt>
      <trkpt lat="45.50141" lon="6.7411">
        <ele>2241.4</ele>
        <time>2021-08-12T10:53:25Z</time>
      </trkpt>
      <trkpt lat="45.50141" lon="6.7411">
        <ele>2241.4</ele>
        <time>2021-08-12T10:53:26Z</time>
      </trkpt>
      <trkpt lat="45.50141" lon="6.7411">
        <ele>2241.4</ele>
        <time>2021-08-12T10:53:27Z</time>
      </trkpt>
      <trkpt lat="45.50141" lon="6.7411">
        <ele>2241.4</ele>
        <time>2021-08-12T10:53:28Z</time>
      </trkpt>
      <trkpt lat="45.50141" lon="6.7411">
        <ele>2241.4</ele>
        <time>2021-08-12T10:53:29Z</time>
      </trkpt>
      <trkpt lat="45.50141" lon="6.7411">
        <ele>2241.4</ele>
        <time>2021-08-12T10:53:30Z</time>
      </trkpt>
      <trkpt lat="45.50141" lon="6.7411">
        <ele>2241.4</ele>
        <time>2021-08-12T10:53:31Z</time>
      </trkpt>
      <trkpt lat="45.50141" lon="6.7411">
        <ele>2241.4</ele>
        <time>2021-08-12T10:53:32Z</time>
      </trkpt>
      <trkpt lat="45.50141" lon="6.7411">
        <ele>2241.4</ele>
        <time>2021-08-12T10:53:33Z</time>
      </trkpt>
      <trkpt lat="45.50141" lon="6.7411">
        <ele>2241.4</ele>
        <time>2021-08-12T10:53:34Z</time>
      </trkpt>
      <trkpt lat="45.50141" lon="6.7411">
        <ele>2241.4</ele>
        <time>2021-08-12T10:53:35Z</time>
      </trkpt>
      <trkpt lat="45.50141" lon="6.7411">
        <ele>2241.4</ele>
        <time>2021-08-12T10:53:36Z</time>
      </trkpt>
      <trkpt lat="45.50141" lon="6.7411">
        <ele>2241.4</ele>
        <time>2021-08-12T10:53:37Z</time>
      </trkpt>
      <trkpt lat="45.50141" lon="6.7411">
        <ele>2241.4</ele>
        <time>2021-08-12T10:53:38Z</time>
      </trkpt>
      <trkpt lat="45.50141" lon="6.7411">
        <ele>2241.4</ele>
        <time>2021-08-12T10:53:39Z</time>
      </trkpt>
      <trkpt lat="45.50141" lon="6.7411">
        <ele>2241.4</ele>
        <time>2021-08-12T10:53:40Z</time>
      </trkpt>
      <trkpt lat="45.50141" lon="6.7411">
        <ele>2241.4</ele>
        <time>2021-08-12T10:53:41Z</time>
      </trkpt>
      <trkpt lat="45.50141" lon="6.7411">
        <ele>2241.4</ele>
        <time>2021-08-12T10:53:42Z</time>
      </trkpt>
      <trkpt lat="45.50141" lon="6.7411">
        <ele>2241.4</ele>
        <time>2021-08-12T10:53:43Z</time>
      </trkpt>
      <trkpt lat="45.50141" lon="6.7411">
        <ele>2241.4</ele>
        <time>2021-08-12T10:53:44Z</time>
      </trkpt>
      <trkpt lat="45.50141" lon="6.7411">
        <ele>2241.4</ele>
        <time>2021-08-12T10:53:45Z</time>
      </trkpt>
      <trkpt lat="45.50141" lon="6.7411">
        <ele>2241.4</ele>
        <time>2021-08-12T10:53:46Z</time>
      </trkpt>
      <trkpt lat="45.50141" lon="6.7411">
        <ele>2241.4</ele>
        <time>2021-08-12T10:53:47Z</time>
      </trkpt>
      <trkpt lat="45.50141" lon="6.7411">
        <ele>2241.4</ele>
        <time>2021-08-12T10:53:48Z</time>
      </trkpt>
      <trkpt lat="45.50141" lon="6.7411">
        <ele>2241.4</ele>
        <time>2021-08-12T10:53:49Z</time>
      </trkpt>
      <trkpt lat="45.50141" lon="6.7411">
        <ele>2241.4</ele>
        <time>2021-08-12T10:53:50Z</time>
      </trkpt>
      <trkpt lat="45.50141" lon="6.7411">
        <ele>2241.4</ele>
        <time>2021-08-12T10:53:51Z</time>
      </trkpt>
      <trkpt lat="45.50141" lon="6.7411">
        <ele>2241.4</ele>
        <time>2021-08-12T10:53:52Z</time>
      </trkpt>
      <trkpt lat="45.50141" lon="6.7411">
        <ele>2241.4</ele>
        <time>2021-08-12T10:53:53Z</time>
      </trkpt>
      <trkpt lat="45.50141" lon="6.7411">
        <ele>2241.4</ele>
        <time>2021-08-12T10:53:54Z</time>
      </trkpt>
      <trkpt lat="45.50141" lon="6.7411">
        <ele>2241.4</ele>
        <time>2021-08-12T10:53:55Z</time>
      </trkpt>
      <trkpt lat="45.50141" lon="6.7411">
        <ele>2241.4</ele>
        <time>2021-08-12T10:53:56Z</time>
      </trkpt>
      <trkpt lat="45.50141" lon="6.7411">
        <ele>2241.4</ele>
        <time>2021-08-12T10:53:57Z</time>
      </trkpt>
      <trkpt lat="45.50141" lon="6.7411">
        <ele>2241.4</ele>
        <time>2021-08-12T10:53:58Z</time>
      </trkpt>
      <trkpt lat="45.50141" lon="6.7411">
        <ele>2241.4</ele>
        <time>2021-08-12T10:53:59Z</time>
      </trkpt>
      <trkpt lat="45.50141" lon="6.7411">
        <ele>2241.4</ele>
        <time>2021-08-12T10:54:00Z</time>
      </trkpt>
      <trkpt lat="45.50141" lon="6.7411">
        <ele>2241.4</ele>
        <time>2021-08-12T10:54:01Z</time>
      </trkpt>
      <trkpt lat="45.50141" lon="6.7411">
        <ele>2241.4</ele>
        <time>2021-08-12T10:54:02Z</time>
      </trkpt>
      <trkpt lat="45.50141" lon="6.7411">
        <ele>2241.4</ele>
        <time>2021-08-12T10:54:03Z</time>
      </trkpt>
      <trkpt lat="45.50141" lon="6.7411">
        <ele>2241.4</ele>
        <time>2021-08-12T10:54:04Z</time>
      </trkpt>
      <trkpt lat="45.50141" lon="6.7411">
        <ele>2241.4</ele>
        <time>2021-08-12T10:54:05Z</time>
      </trkpt>
      <trkpt lat="45.50141" lon="6.7411">
        <ele>2241.4</ele>
        <time>2021-08-12T10:54:06Z</time>
      </trkpt>
      <trkpt lat="45.50141" lon="6.7411">
        <ele>2241.4</ele>
        <time>2021-08-12T10:54:07Z</time>
      </trkpt>
      <trkpt lat="45.50141" lon="6.7411">
        <ele>2241.4</ele>
        <time>2021-08-12T10:54:08Z</time>
      </trkpt>
      <trkpt lat="45.50141" lon="6.7411">
        <ele>2241.4</ele>
        <time>2021-08-12T10:54:09Z</time>
      </trkpt>
      <trkpt lat="45.50141" lon="6.7411">
        <ele>2241.4</ele>
        <time>2021-08-12T10:54:10Z</time>
      </trkpt>
      <trkpt lat="45.50141" lon="6.7411">
        <ele>2241.4</ele>
        <time>2021-08-12T10:54:11Z</time>
      </trkpt>
      <trkpt lat="45.50141" lon="6.7411">
        <ele>2241.4</ele>
        <time>2021-08-12T10:54:12Z</time>
      </trkpt>
      <trkpt lat="45.50141" lon="6.7411">
        <ele>2241.4</ele>
        <time>2021-08-12T10:54:13Z</time>
      </trkpt>
      <trkpt lat="45.50141" lon="6.7411">
        <ele>2241.4</ele>
        <time>2021-08-12T10:54:14Z</time>
      </trkpt>
      <trkpt lat="45.50141" lon="6.7411">
        <ele>2241.4</ele>
        <time>2021-08-12T10:54:15Z</time>
      </trkpt>
      <trkpt lat="45.50141" lon="6.7411">
        <ele>2241.4</ele>
        <time>2021-08-12T10:54:16Z</time>
      </trkpt>
      <trkpt lat="45.50141" lon="6.7411">
        <ele>2241.4</ele>
        <time>2021-08-12T10:54:17Z</time>
      </trkpt>
      <trkpt lat="45.50141" lon="6.7411">
        <ele>2241.4</ele>
        <time>2021-08-12T10:54:18Z</time>
      </trkpt>
      <trkpt lat="45.50141" lon="6.7411">
        <ele>2241.4</ele>
        <time>2021-08-12T10:54:19Z</time>
      </trkpt>
      <trkpt lat="45.50141" lon="6.7411">
        <ele>2241.4</ele>
        <time>2021-08-12T10:54:20Z</time>
      </trkpt>
      <trkpt lat="45.50141" lon="6.7411">
        <ele>2241.4</ele>
        <time>2021-08-12T10:54:21Z</time>
      </trkpt>
      <trkpt lat="45.50141" lon="6.7411">
        <ele>2241.4</ele>
        <time>2021-08-12T10:54:22Z</time>
      </trkpt>
      <trkpt lat="45.50141" lon="6.7411">
        <ele>2241.4</ele>
        <time>2021-08-12T10:54:23Z</time>
      </trkpt>
      <trkpt lat="45.50141" lon="6.7411">
        <ele>2241.4</ele>
        <time>2021-08-12T10:54:24Z</time>
      </trkpt>
      <trkpt lat="45.50141" lon="6.7411">
        <ele>2241.4</ele>
        <time>2021-08-12T10:54:25Z</time>
      </trkpt>
      <trkpt lat="45.50141" lon="6.7411">
        <ele>2241.4</ele>
        <time>2021-08-12T10:54:26Z</time>
      </trkpt>
      <trkpt lat="45.50141" lon="6.7411">
        <ele>2241.4</ele>
        <time>2021-08-12T10:54:27Z</time>
      </trkpt>
      <trkpt lat="45.50141" lon="6.7411">
        <ele>2241.4</ele>
        <time>2021-08-12T10:54:28Z</time>
      </trkpt>
      <trkpt lat="45.50141" lon="6.7411">
        <ele>2241.4</ele>
        <time>2021-08-12T10:54:29Z</time>
      </trkpt>
      <trkpt lat="45.50141" lon="6.7411">
        <ele>2241.4</ele>
        <time>2021-08-12T10:54:30Z</time>
      </trkpt>
      <trkpt lat="45.50141" lon="6.7411">
        <ele>2241.4</ele>
        <time>2021-08-12T10:54:31Z</time>
      </trkpt>
      <trkpt lat="45.50141" lon="6.7411">
        <ele>2241.4</ele>
        <time>2021-08-12T10:54:32Z</time>
      </trkpt>
      <trkpt lat="45.50141" lon="6.7411">
        <ele>2241.4</ele>
        <time>2021-08-12T10:54:33Z</time>
      </trkpt>
      <trkpt lat="45.50141" lon="6.7411">
        <ele>2241.4</ele>
        <time>2021-08-12T10:54:34Z</time>
      </trkpt>
      <trkpt lat="45.50141" lon="6.7411">
        <ele>2241.4</ele>
        <time>2021-08-12T10:54:35Z</time>
      </trkpt>
      <trkpt lat="45.50141" lon="6.7411">
        <ele>2241.4</ele>
        <time>2021-08-12T10:54:36Z</time>
      </trkpt>
      <trkpt lat="45.50141" lon="6.7411">
        <ele>2241.4</ele>
        <time>2021-08-12T10:54:37Z</time>
      </trkpt>
      <trkpt lat="45.50141" lon="6.7411">
        <ele>2241.4</ele>
        <time>2021-08-12T10:54:38Z</time>
      </trkpt>
      <trkpt lat="45.50141" lon="6.7411">
        <ele>2241.4</ele>
        <time>2021-08-12T10:54:39Z</time>
      </trkpt>
      <trkpt lat="45.50141" lon="6.7411">
        <ele>2241.4</ele>
        <time>2021-08-12T10:54:40Z</time>
      </trkpt>
      <trkpt lat="45.50141" lon="6.7411">
        <ele>2241.4</ele>
        <time>2021-08-12T10:54:41Z</time>
      </trkpt>
      <trkpt lat="45.50141" lon="6.7411">
        <ele>2241.4</ele>
        <time>2021-08-12T10:54:42Z</time>
      </trkpt>
      <trkpt lat="45.50141" lon="6.7411">
        <ele>2241.4</ele>
        <time>2021-08-12T10:54:43Z</time>
      </trkpt>
      <trkpt lat="45.50141" lon="6.7411">
        <ele>2241.4</ele>
        <time>2021-08-12T10:54:44Z</time>
      </trkpt>
      <trkpt lat="45.50141" lon="6.7411">
        <ele>2241.4</ele>
        <time>2021-08-12T10:54:45Z</time>
      </trkpt>
      <trkpt lat="45.50141" lon="6.7411">
        <ele>2241.4</ele>
        <time>2021-08-12T10:54:46Z</time>
      </trkpt>
      <trkpt lat="45.50141" lon="6.7411">
        <ele>2241.4</ele>
        <time>2021-08-12T10:54:47Z</time>
      </trkpt>
      <trkpt lat="45.50141" lon="6.7411">
        <ele>2241.4</ele>
        <time>2021-08-12T10:54:48Z</time>
      </trkpt>
      <trkpt lat="45.50141" lon="6.7411">
        <ele>2241.4</ele>
        <time>2021-08-12T10:54:49Z</time>
      </trkpt>
      <trkpt lat="45.50141" lon="6.7411">
        <ele>2241.4</ele>
        <time>2021-08-12T10:54:50Z</time>
      </trkpt>
      <trkpt lat="45.50141" lon="6.7411">
        <ele>2241.4</ele>
        <time>2021-08-12T10:54:51Z</time>
      </trkpt>
      <trkpt lat="45.50141" lon="6.7411">
        <ele>2241.4</ele>
        <time>2021-08-12T10:54:52Z</time>
      </trkpt>
      <trkpt lat="45.50141" lon="6.7411">
        <ele>2241.4</ele>
        <time>2021-08-12T10:54:53Z</time>
      </trkpt>
      <trkpt lat="45.50141" lon="6.7411">
        <ele>2241.4</ele>
        <time>2021-08-12T10:54:54Z</time>
      </trkpt>
      <trkpt lat="45.50141" lon="6.7411">
        <ele>2241.4</ele>
        <time>2021-08-12T10:54:55Z</time>
      </trkpt>
      <trkpt lat="45.50141" lon="6.7411">
        <ele>2241.4</ele>
        <time>2021-08-12T10:54:56Z</time>
      </trkpt>
      <trkpt lat="45.50141" lon="6.7411">
        <ele>2241.4</ele>
        <time>2021-08-12T10:54:57Z</time>
      </trkpt>
      <trkpt lat="45.50141" lon="6.7411">
        <ele>2241.4</ele>
        <time>2021-08-12T10:54:58Z</time>
      </trkpt>
      <trkpt lat="45.50141" lon="6.7411">
        <ele>2241.4</ele>
        <time>2021-08-12T10:54:59Z</time>
      </trkpt>
      <trkpt lat="45.50141" lon="6.7411">
        <ele>2241.4</ele>
        <time>2021-08-12T10:55:00Z</time>
      </trkpt>
      <trkpt lat="45.50141" lon="6.7411">
        <ele>2241.4</ele>
        <time>2021-08-12T10:55:01Z</time>
      </trkpt>
      <trkpt lat="45.50141" lon="6.7411">
        <ele>2241.4</ele>
        <time>2021-08-12T10:55:02Z</time>
      </trkpt>
      <trkpt lat="45.50141" lon="6.7411">
        <ele>2241.4</ele>
        <time>2021-08-12T10:55:03Z</time>
      </trkpt>
      <trkpt lat="45.50141" lon="6.7411">
        <ele>2241.4</ele>
        <time>2021-08-12T10:55:04Z</time>
      </trkpt>
      <trkpt lat="45.50141" lon="6.7411">
        <ele>2241.4</ele>
        <time>2021-08-12T10:55:05Z</time>
      </trkpt>
      <trkpt lat="45.50141" lon="6.7411">
        <ele>2241.4</ele>
        <time>2021-08-12T10:55:06Z</time>
      </trkpt>
      <trkpt lat="45.50141" lon="6.7411">
        <ele>2241.4</ele>
        <time>2021-08-12T10:55:07Z</time>
      </trkpt>
      <trkpt lat="45.50141" lon="6.7411">
        <ele>2241.4</ele>
        <time>2021-08-12T10:55:08Z</time>
      </trkpt>
      <trkpt lat="45.50141" lon="6.7411">
        <ele>2241.4</ele>
        <time>2021-08-12T10:55:09Z</time>
      </trkpt>
      <trkpt lat="45.50141" lon="6.7411">
        <ele>2241.4</ele>
        <time>2021-08-12T10:55:10Z</time>
      </trkpt>
      <trkpt lat="45.50141" lon="6.7411">
        <ele>2241.4</ele>
        <time>2021-08-12T10:55:11Z</time>
      </trkpt>
      <trkpt lat="45.50141" lon="6.7411">
        <ele>2241.4</ele>
        <time>2021-08-12T10:55:12Z</time>
      </trkpt>
      <trkpt lat="45.50141" lon="6.7411">
        <ele>2241.4</ele>
        <time>2021-08-12T10:55:13Z</time>
      </trkpt>
      <trkpt lat="45.50141" lon="6.7411">
        <ele>2241.4</ele>
        <time>2021-08-12T10:55:14Z</time>
      </trkpt>
      <trkpt lat="45.50141" lon="6.7411">
        <ele>2241.4</ele>
        <time>2021-08-12T10:55:15Z</time>
      </trkpt>
      <trkpt lat="45.50141" lon="6.7411">
        <ele>2241.4</ele>
        <time>2021-08-12T10:55:16Z</time>
      </trkpt>
      <trkpt lat="45.50141" lon="6.7411">
        <ele>2241.4</ele>
        <time>2021-08-12T10:55:17Z</time>
      </trkpt>
      <trkpt lat="45.50141" lon="6.7411">
        <ele>2241.4</ele>
        <time>2021-08-12T10:55:18Z</time>
      </trkpt>
      <trkpt lat="45.50141" lon="6.7411">
        <ele>2241.4</ele>
        <time>2021-08-12T10:55:19Z</time>
      </trkpt>
      <trkpt lat="45.50141" lon="6.7411">
        <ele>2241.4</ele>
        <time>2021-08-12T10:55:20Z</time>
      </trkpt>
      <trkpt lat="45.50141" lon="6.7411">
        <ele>2241.4</ele>
        <time>2021-08-12T10:55:21Z</time>
      </trkpt>
      <trkpt lat="45.50141" lon="6.7411">
        <ele>2241.4</ele>
        <time>2021-08-12T10:55:22Z</time>
      </trkpt>
      <trkpt lat="45.50141" lon="6.7411">
        <ele>2241.4</ele>
        <time>2021-08-12T10:55:23Z</time>
      </trkpt>
      <trkpt lat="45.50141" lon="6.7411">
        <ele>2241.4</ele>
        <time>2021-08-12T10:55:24Z</time>
      </trkpt>
      <trkpt lat="45.50141" lon="6.7411">
        <ele>2241.4</ele>
        <time>2021-08-12T10:55:25Z</time>
      </trkpt>
      <trkpt lat="45.50141" lon="6.7411">
        <ele>2241.4</ele>
        <time>2021-08-12T10:55:26Z</time>
      </trkpt>
      <trkpt lat="45.50141" lon="6.7411">
        <ele>2241.4</ele>
        <time>2021-08-12T10:55:27Z</time>
      </trkpt>
      <trkpt lat="45.50141" lon="6.7411">
        <ele>2241.4</ele>
        <time>2021-08-12T10:55:28Z</time>
      </trkpt>
      <trkpt lat="45.50141" lon="6.7411">
        <ele>2241.4</ele>
        <time>2021-08-12T10:55:29Z</time>
      </trkpt>
      <trkpt lat="45.50141" lon="6.7411">
        <ele>2241.4</ele>
        <time>2021-08-12T10:55:30Z</time>
      </trkpt>
      <trkpt lat="45.50141" lon="6.7411">
        <ele>2241.4</ele>
        <time>2021-08-12T10:55:31Z</time>
      </trkpt>
      <trkpt lat="45.50141" lon="6.7411">
        <ele>2241.4</ele>
        <time>2021-08-12T10:55:32Z</time>
      </trkpt>
      <trkpt lat="45.50141" lon="6.7411">
        <ele>2241.4</ele>
        <time>2021-08-12T10:55:33Z</time>
      </trkpt>
      <trkpt lat="45.50141" lon="6.7411">
        <ele>2241.4</ele>
        <time>2021-08-12T10:55:34Z</time>
      </trkpt>
      <trkpt lat="45.50141" lon="6.7411">
        <ele>2241.4</ele>
        <time>2021-08-12T10:55:35Z</time>
      </trkpt>
      <trkpt lat="45.50141" lon="6.7411">
        <ele>2241.4</ele>
        <time>2021-08-12T10:55:36Z</time>
      </trkpt>
      <trkpt lat="45.50141" lon="6.7411">
        <ele>2241.4</ele>
        <time>2021-08-12T10:55:37Z</time>
      </trkpt>
      <trkpt lat="45.50141" lon="6.7411">
        <ele>2241.4</ele>
        <time>2021-08-12T10:55:38Z</time>
      </trkpt>
      <trkpt lat="45.50141" lon="6.7411">
        <ele>2241.4</ele>
        <time>2021-08-12T10:55:39Z</time>
      </trkpt>
      <trkpt lat="45.50141" lon="6.7411">
        <ele>2241.4</ele>
        <time>2021-08-12T10:55:40Z</time>
      </trkpt>
      <trkpt lat="45.50141" lon="6.7411">
        <ele>2241.4</ele>
        <time>2021-08-12T10:55:41Z</time>
      </trkpt>
      <trkpt lat="45.50141" lon="6.7411">
        <ele>2241.4</ele>
        <time>2021-08-12T10:55:42Z</time>
      </trkpt>
      <trkpt lat="45.50141" lon="6.7411">
        <ele>2241.4</ele>
        <time>2021-08-12T10:55:43Z</time>
      </trkpt>
      <trkpt lat="45.50141" lon="6.7411">
        <ele>2241.4</ele>
        <time>2021-08-12T10:55:44Z</time>
      </trkpt>
      <trkpt lat="45.50141" lon="6.7411">
        <ele>2241.4</ele>
        <time>2021-08-12T10:55:45Z</time>
      </trkpt>
      <trkpt lat="45.50141" lon="6.7411">
        <ele>2241.4</ele>
        <time>2021-08-12T10:55:46Z</time>
      </trkpt>
      <trkpt lat="45.50141" lon="6.7411">
        <ele>2241.4</ele>
        <time>2021-08-12T10:55:47Z</time>
      </trkpt>
      <trkpt lat="45.50141" lon="6.7411">
        <ele>2241.4</ele>
        <time>2021-08-12T10:55:48Z</time>
      </trkpt>
      <trkpt lat="45.50141" lon="6.7411">
        <ele>2241.4</ele>
        <time>2021-08-12T10:55:49Z</time>
      </trkpt>
      <trkpt lat="45.50141" lon="6.7411">
        <ele>2241.4</ele>
        <time>2021-08-12T10:55:50Z</time>
      </trkpt>
      <trkpt lat="45.50141" lon="6.7411">
        <ele>2241.4</ele>
        <time>2021-08-12T10:55:51Z</time>
      </trkpt>
      <trkpt lat="45.50141" lon="6.7411">
        <ele>2241.4</ele>
        <time>2021-08-12T10:55:52Z</time>
      </trkpt>
      <trkpt lat="45.50141" lon="6.7411">
        <ele>2241.4</ele>
        <time>2021-08-12T10:55:53Z</time>
      </trkpt>
      <trkpt lat="45.50141" lon="6.7411">
        <ele>2241.4</ele>
        <time>2021-08-12T10:55:54Z</time>
      </trkpt>
      <trkpt lat="45.50141" lon="6.7411">
        <ele>2241.4</ele>
        <time>2021-08-12T10:55:55Z</time>
      </trkpt>
      <trkpt lat="45.50141" lon="6.7411">
        <ele>2241.4</ele>
        <time>2021-08-12T10:55:56Z</time>
      </trkpt>
      <trkpt lat="45.50141" lon="6.7411">
        <ele>2241.4</ele>
        <time>2021-08-12T10:55:57Z</time>
      </trkpt>
      <trkpt lat="45.50141" lon="6.7411">
        <ele>2241.4</ele>
        <time>2021-08-12T10:55:58Z</time>
      </trkpt>
      <trkpt lat="45.50141" lon="6.7411">
        <ele>2241.4</ele>
        <time>2021-08-12T10:55:59Z</time>
      </trkpt>
      <trkpt lat="45.50141" lon="6.7411">
        <ele>2241.4</ele>
        <time>2021-08-12T10:56:00Z</time>
      </trkpt>
      <trkpt lat="45.50141" lon="6.7411">
        <ele>2241.4</ele>
        <time>2021-08-12T10:56:01Z</time>
      </trkpt>
      <trkpt lat="45.50141" lon="6.7411">
        <ele>2241.4</ele>
        <time>2021-08-12T10:56:02Z</time>
      </trkpt>
      <trkpt lat="45.50141" lon="6.7411">
        <ele>2241.4</ele>
        <time>2021-08-12T10:56:03Z</time>
      </trkpt>
      <trkpt lat="45.50141" lon="6.7411">
        <ele>2241.4</ele>
        <time>2021-08-12T10:56:04Z</time>
      </trkpt>
      <trkpt lat="45.50141" lon="6.7411">
        <ele>2241.4</ele>
        <time>2021-08-12T10:56:05Z</time>
      </trkpt>
      <trkpt lat="45.50141" lon="6.7411">
        <ele>2241.4</ele>
        <time>2021-08-12T10:56:06Z</time>
      </trkpt>
      <trkpt lat="45.50141" lon="6.7411">
        <ele>2241.4</ele>
        <time>2021-08-12T10:56:07Z</time>
      </trkpt>
      <trkpt lat="45.50141" lon="6.7411">
        <ele>2241.4</ele>
        <time>2021-08-12T10:56:08Z</time>
      </trkpt>
      <trkpt lat="45.50141" lon="6.7411">
        <ele>2241.4</ele>
        <time>2021-08-12T10:56:09Z</time>
      </trkpt>
      <trkpt lat="45.50141" lon="6.7411">
        <ele>2241.4</ele>
        <time>2021-08-12T10:56:10Z</time>
      </trkpt>
      <trkpt lat="45.50141" lon="6.7411">
        <ele>2241.4</ele>
        <time>2021-08-12T10:56:11Z</time>
      </trkpt>
      <trkpt lat="45.50141" lon="6.7411">
        <ele>2241.4</ele>
        <time>2021-08-12T10:56:12Z</time>
      </trkpt>
      <trkpt lat="45.50141" lon="6.7411">
        <ele>2241.4</ele>
        <time>2021-08-12T10:56:13Z</time>
      </trkpt>
      <trkpt lat="45.50141" lon="6.7411">
        <ele>2241.4</ele>
        <time>2021-08-12T10:56:14Z</time>
      </trkpt>
      <trkpt lat="45.50141" lon="6.7411">
        <ele>2241.4</ele>
        <time>2021-08-12T10:56:15Z</time>
      </trkpt>
      <trkpt lat="45.50141" lon="6.7411">
        <ele>2241.4</ele>
        <time>2021-08-12T10:56:16Z</time>
      </trkpt>
      <trkpt lat="45.50141" lon="6.7411">
        <ele>2241.4</ele>
        <time>2021-08-12T10:56:17Z</time>
      </trkpt>
      <trkpt lat="45.50141" lon="6.7411">
        <ele>2241.4</ele>
        <time>2021-08-12T10:56:18Z</time>
      </trkpt>
      <trkpt lat="45.50141" lon="6.7411">
        <ele>2241.4</ele>
        <time>2021-08-12T10:56:19Z</time>
      </trkpt>
      <trkpt lat="45.50141" lon="6.7411">
        <ele>2241.4</ele>
        <time>2021-08-12T10:56:20Z</time>
      </trkpt>
      <trkpt lat="45.50141" lon="6.7411">
        <ele>2241.4</ele>
        <time>2021-08-12T10:56:21Z</time>
      </trkpt>
      <trkpt lat="45.50141" lon="6.7411">
        <ele>2241.4</ele>
        <time>2021-08-12T10:56:22Z</time>
      </trkpt>
      <trkpt lat="45.50141" lon="6.7411">
        <ele>2241.4</ele>
        <time>2021-08-12T10:56:23Z</time>
      </trkpt>
      <trkpt lat="45.50141" lon="6.7411">
        <ele>2241.4</ele>
        <time>2021-08-12T10:56:24Z</time>
      </trkpt>
      <trkpt lat="45.50141" lon="6.7411">
        <ele>2241.4</ele>
        <time>2021-08-12T10:56:25Z</time>
      </trkpt>
      <trkpt lat="45.50141" lon="6.7411">
        <ele>2241.4</ele>
        <time>2021-08-12T10:56:26Z</time>
      </trkpt>
      <trkpt lat="45.50141" lon="6.7411">
        <ele>2241.4</ele>
        <time>2021-08-12T10:56:27Z</time>
      </trkpt>
      <trkpt lat="45.50141" lon="6.7411">
        <ele>2241.4</ele>
        <time>2021-08-12T10:56:28Z</time>
      </trkpt>
      <trkpt lat="45.50141" lon="6.7411">
        <ele>2241.4</ele>
        <time>2021-08-12T10:56:29Z</time>
      </trkpt>
      <trkpt lat="45.50141" lon="6.7411">
        <ele>2241.4</ele>
        <time>2021-08-12T10:56:30Z</time>
      </trkpt>
      <trkpt lat="45.50141" lon="6.7411">
        <ele>2241.4</ele>
        <time>2021-08-12T10:56:31Z</time>
      </trkpt>
      <trkpt lat="45.50141" lon="6.7411">
        <ele>2241.4</ele>
        <time>2021-08-12T10:56:32Z</time>
      </trkpt>
      <trkpt lat="45.50141" lon="6.7411">
        <ele>2241.4</ele>
        <time>2021-08-12T10:56:33Z</time>
      </trkpt>
      <trkpt lat="45.50141" lon="6.7411">
        <ele>2241.4</ele>
        <time>2021-08-12T10:56:34Z</time>
      </trkpt>
      <trkpt lat="45.50141" lon="6.7411">
        <ele>2241.4</ele>
        <time>2021-08-12T10:56:35Z</time>
      </trkpt>
      <trkpt lat="45.50141" lon="6.7411">
        <ele>2241.4</ele>
        <time>2021-08-12T10:56:36Z</time>
      </trkpt>
      <trkpt lat="45.50141" lon="6.7411">
        <ele>2241.4</ele>
        <time>2021-08-12T10:56:37Z</time>
      </trkpt>
      <trkpt lat="45.50141" lon="6.7411">
        <ele>2241.4</ele>
        <time>2021-08-12T10:56:38Z</time>
      </trkpt>
      <trkpt lat="45.50141" lon="6.7411">
        <ele>2241.4</ele>
        <time>2021-08-12T10:56:39Z</time>
      </trkpt>
      <trkpt lat="45.50141" lon="6.7411">
        <ele>2241.4</ele>
        <time>2021-08-12T10:56:40Z</time>
      </trkpt>
      <trkpt lat="45.50141" lon="6.7411">
        <ele>2241.4</ele>
        <time>2021-08-12T10:56:41Z</time>
      </trkpt>
      <trkpt lat="45.50141" lon="6.7411">
        <ele>2241.4</ele>
        <time>2021-08-12T10:56:42Z</time>
      </trkpt>
      <trkpt lat="45.50141" lon="6.7411">
        <ele>2241.4</ele>
        <time>2021-08-12T10:56:43Z</time>
      </trkpt>
      <trkpt lat="45.50141" lon="6.7411">
        <ele>2241.4</ele>
        <time>2021-08-12T10:56:44Z</time>
      </trkpt>
      <trkpt lat="45.50141" lon="6.7411">
        <ele>2241.4</ele>
        <time>2021-08-12T10:56:45Z</time>
      </trkpt>
      <trkpt lat="45.50141" lon="6.7411">
        <ele>2241.4</ele>
        <time>2021-08-12T10:56:46Z</time>
      </trkpt>
      <trkpt lat="45.50141" lon="6.7411">
        <ele>2241.4</ele>
        <time>2021-08-12T10:56:47Z</time>
      </trkpt>
      <trkpt lat="45.50141" lon="6.7411">
        <ele>2241.4</ele>
        <time>2021-08-12T10:56:48Z</time>
      </trkpt>
      <trkpt lat="45.50141" lon="6.7411">
        <ele>2241.4</ele>
        <time>2021-08-12T10:56:49Z</time>
      </trkpt>
      <trkpt lat="45.50141" lon="6.7411">
        <ele>2241.4</ele>
        <time>2021-08-12T10:56:50Z</time>
      </trkpt>
      <trkpt lat="45.50141" lon="6.7411">
        <ele>2241.4</ele>
        <time>2021-08-12T10:56:51Z</time>
      </trkpt>
      <trkpt lat="45.50141" lon="6.7411">
        <ele>2241.4</ele>
        <time>2021-08-12T10:56:52Z</time>
      </trkpt>
      <trkpt lat="45.50141" lon="6.7411">
        <ele>2241.4</ele>
        <time>2021-08-12T10:56:53Z</time>
      </trkpt>
      <trkpt lat="45.50141" lon="6.7411">
        <ele>2241.4</ele>
        <time>2021-08-12T10:56:54Z</time>
      </trkpt>
      <trkpt lat="45.50141" lon="6.7411">
        <ele>2241.4</ele>
        <time>2021-08-12T10:56:55Z</time>
      </trkpt>
      <trkpt lat="45.50141" lon="6.7411">
        <ele>2241.4</ele>
        <time>2021-08-12T10:56:56Z</time>
      </trkpt>
      <trkpt lat="45.50141" lon="6.7411">
        <ele>2241.4</ele>
        <time>2021-08-12T10:56:57Z</time>
      </trkpt>
      <trkpt lat="45.50141" lon="6.7411">
        <ele>2241.4</ele>
        <time>2021-08-12T10:56:58Z</time>
      </trkpt>
      <trkpt lat="45.50141" lon="6.7411">
        <ele>2241.4</ele>
        <time>2021-08-12T10:56:59Z</time>
      </trkpt>
      <trkpt lat="45.50141" lon="6.7411">
        <ele>2241.4</ele>
        <time>2021-08-12T10:57:00Z</time>
      </trkpt>
      <trkpt lat="45.50141" lon="6.7411">
        <ele>2241.4</ele>
        <time>2021-08-12T10:57:01Z</time>
      </trkpt>
      <trkpt lat="45.50141" lon="6.7411">
        <ele>2241.4</ele>
        <time>2021-08-12T10:57:02Z</time>
      </trkpt>
      <trkpt lat="45.50141" lon="6.7411">
        <ele>2241.4</ele>
        <time>2021-08-12T10:57:03Z</time>
      </trkpt>
      <trkpt lat="45.50141" lon="6.7411">
        <ele>2241.4</ele>
        <time>2021-08-12T10:57:04Z</time>
      </trkpt>
      <trkpt lat="45.50141" lon="6.7411">
        <ele>2241.4</ele>
        <time>2021-08-12T10:57:05Z</time>
      </trkpt>
      <trkpt lat="45.50141" lon="6.7411">
        <ele>2241.4</ele>
        <time>2021-08-12T10:57:06Z</time>
      </trkpt>
      <trkpt lat="45.50141" lon="6.7411">
        <ele>2241.4</ele>
        <time>2021-08-12T10:57:07Z</time>
      </trkpt>
      <trkpt lat="45.50141" lon="6.7411">
        <ele>2241.4</ele>
        <time>2021-08-12T10:57:08Z</time>
      </trkpt>
      <trkpt lat="45.50141" lon="6.7411">
        <ele>2241.4</ele>
        <time>2021-08-12T10:57:09Z</time>
      </trkpt>
      <trkpt lat="45.50141" lon="6.7411">
        <ele>2241.4</ele>
        <time>2021-08-12T10:57:10Z</time>
      </trkpt>
      <trkpt lat="45.50141" lon="6.7411">
        <ele>2241.4</ele>
        <time>2021-08-12T10:57:11Z</time>
      </trkpt>
      <trkpt lat="45.50141" lon="6.7411">
        <ele>2241.4</ele>
        <time>2021-08-12T10:57:12Z</time>
      </trkpt>
      <trkpt lat="45.50141" lon="6.7411">
        <ele>2241.4</ele>
        <time>2021-08-12T10:57:13Z</time>
      </trkpt>
      <trkpt lat="45.50141" lon="6.7411">
        <ele>2241.4</ele>
        <time>2021-08-12T10:57:14Z</time>
      </trkpt>
      <trkpt lat="45.50141" lon="6.7411">
        <ele>2241.4</ele>
        <time>2021-08-12T10:57:15Z</time>
      </trkpt>
      <trkpt lat="45.50141" lon="6.7411">
        <ele>2241.4</ele>
        <time>2021-08-12T10:57:16Z</time>
      </trkpt>
      <trkpt lat="45.50141" lon="6.7411">
        <ele>2241.4</ele>
        <time>2021-08-12T10:57:17Z</time>
      </trkpt>
      <trkpt lat="45.50141" lon="6.7411">
        <ele>2241.4</ele>
        <time>2021-08-12T10:57:18Z</time>
      </trkpt>
      <trkpt lat="45.50141" lon="6.7411">
        <ele>2241.4</ele>
        <time>2021-08-12T10:57:19Z</time>
      </trkpt>
      <trkpt lat="45.50141" lon="6.7411">
        <ele>2241.4</ele>
        <time>2021-08-12T10:57:20Z</time>
      </trkpt>
      <trkpt lat="45.50141" lon="6.7411">
        <ele>2241.4</ele>
        <time>2021-08-12T10:57:21Z</time>
      </trkpt>
      <trkpt lat="45.50141" lon="6.7411">
        <ele>2241.4</ele>
        <time>2021-08-12T10:57:22Z</time>
      </trkpt>
      <trkpt lat="45.50141" lon="6.7411">
        <ele>2241.4</ele>
        <time>2021-08-12T10:57:23Z</time>
      </trkpt>
      <trkpt lat="45.50141" lon="6.7411">
        <ele>2241.4</ele>
        <time>2021-08-12T10:57:24Z</time>
      </trkpt>
      <trkpt lat="45.50141" lon="6.7411">
        <ele>2241.4</ele>
        <time>2021-08-12T10:57:25Z</time>
      </trkpt>
      <trkpt lat="45.50141" lon="6.7411">
        <ele>2241.4</ele>
        <time>2021-08-12T10:57:26Z</time>
      </trkpt>
      <trkpt lat="45.50141" lon="6.7411">
        <ele>2241.4</ele>
        <time>2021-08-12T10:57:27Z</time>
      </trkpt>
      <trkpt lat="45.50141" lon="6.7411">
        <ele>2241.4</ele>
        <time>2021-08-12T10:57:28Z</time>
      </trkpt>
      <trkpt lat="45.50141" lon="6.7411">
        <ele>2241.4</ele>
        <time>2021-08-12T10:57:29Z</time>
      </trkpt>
      <trkpt lat="45.50141" lon="6.7411">
        <ele>2241.4</ele>
        <time>2021-08-12T10:57:30Z</time>
      </trkpt>
      <trkpt lat="45.50141" lon="6.7411">
        <ele>2241.4</ele>
        <time>2021-08-12T10:57:31Z</time>
      </trkpt>
      <trkpt lat="45.50141" lon="6.7411">
        <ele>2241.4</ele>
        <time>2021-08-12T10:57:32Z</time>
      </trkpt>
      <trkpt lat="45.50141" lon="6.7411">
        <ele>2241.4</ele>
        <time>2021-08-12T10:57:33Z</time>
      </trkpt>
      <trkpt lat="45.50141" lon="6.7411">
        <ele>2241.4</ele>
        <time>2021-08-12T10:57:34Z</time>
      </trkpt>
      <trkpt lat="45.50141" lon="6.7411">
        <ele>2241.4</ele>
        <time>2021-08-12T10:57:35Z</time>
      </trkpt>
      <trkpt lat="45.50141" lon="6.7411">
        <ele>2241.4</ele>
        <time>2021-08-12T10:57:36Z</time>
      </trkpt>
      <trkpt lat="45.50141" lon="6.7411">
        <ele>2241.4</ele>
        <time>2021-08-12T10:57:37Z</time>
      </trkpt>
      <trkpt lat="45.50141" lon="6.7411">
        <ele>2241.4</ele>
        <time>2021-08-12T10:57:38Z</time>
      </trkpt>
      <trkpt lat="45.50141" lon="6.7411">
        <ele>2241.4</ele>
        <time>2021-08-12T10:57:39Z</time>
      </trkpt>
      <trkpt lat="45.50141" lon="6.7411">
        <ele>2241.4</ele>
        <time>2021-08-12T10:57:40Z</time>
      </trkpt>
      <trkpt lat="45.50141" lon="6.7411">
        <ele>2241.4</ele>
        <time>2021-08-12T10:57:41Z</time>
      </trkpt>
      <trkpt lat="45.50141" lon="6.7411">
        <ele>2241.4</ele>
        <time>2021-08-12T10:57:42Z</time>
      </trkpt>
      <trkpt lat="45.50141" lon="6.7411">
        <ele>2241.4</ele>
        <time>2021-08-12T10:57:43Z</time>
      </trkpt>
      <trkpt lat="45.50141" lon="6.7411">
        <ele>2241.4</ele>
        <time>2021-08-12T10:57:44Z</time>
      </trkpt>
      <trkpt lat="45.50141" lon="6.7411">
        <ele>2241.4</ele>
        <time>2021-08-12T10:57:45Z</time>
      </trkpt>
      <trkpt lat="45.50141" lon="6.7411">
        <ele>2241.4</ele>
        <time>2021-08-12T10:57:46Z</time>
      </trkpt>
      <trkpt lat="45.50141" lon="6.7411">
        <ele>2241.4</ele>
        <time>2021-08-12T10:57:47Z</time>
      </trkpt>
      <trkpt lat="45.50141" lon="6.7411">
        <ele>2241.4</ele>
        <time>2021-08-12T10:57:48Z</time>
      </trkpt>
      <trkpt lat="45.50141" lon="6.7411">
        <ele>2241.4</ele>
        <time>2021-08-12T10:57:49Z</time>
      </trkpt>
      <trkpt lat="45.50141" lon="6.7411">
        <ele>2241.4</ele>
        <time>2021-08-12T10:57:50Z</time>
      </trkpt>
      <trkpt lat="45.50141" lon="6.7411">
        <ele>2241.4</ele>
        <time>2021-08-12T10:57:51Z</time>
      </trkpt>
      <trkpt lat="45.50141" lon="6.7411">
        <ele>2241.4</ele>
        <time>2021-08-12T10:57:52Z</time>
      </trkpt>
      <trkpt lat="45.50141" lon="6.7411">
        <ele>2241.4</ele>
        <time>2021-08-12T10:57:53Z</time>
      </trkpt>
      <trkpt lat="45.50141" lon="6.7411">
        <ele>2241.4</ele>
        <time>2021-08-12T10:57:54Z</time>
      </trkpt>
      <trkpt lat="45.50141" lon="6.7411">
        <ele>2241.4</ele>
        <time>2021-08-12T10:57:55Z</time>
      </trkpt>
      <trkpt lat="45.50141" lon="6.7411">
        <ele>2241.4</ele>
        <time>2021-08-12T10:57:56Z</time>
      </trkpt>
      <trkpt lat="45.50141" lon="6.7411">
        <ele>2241.4</ele>
        <time>2021-08-12T10:57:57Z</time>
      </trkpt>
      <trkpt lat="45.50141" lon="6.7411">
        <ele>2241.4</ele>
        <time>2021-08-12T10:57:58Z</time>
      </trkpt>
      <trkpt lat="45.50141" lon="6.7411">
        <ele>2241.4</ele>
        <time>2021-08-12T10:57:59Z</time>
      </trkpt>
      <trkpt lat="45.50141" lon="6.7411">
        <ele>2241.4</ele>
        <time>2021-08-12T10:58:00Z</time>
      </trkpt>
      <trkpt lat="45.50141" lon="6.7411">
        <ele>2241.4</ele>
        <time>2021-08-12T10:58:01Z</time>
      </trkpt>
      <trkpt lat="45.50141" lon="6.7411">
        <ele>2241.4</ele>
        <time>2021-08-12T10:58:02Z</time>
      </trkpt>
      <trkpt lat="45.50141" lon="6.7411">
        <ele>2241.4</ele>
        <time>2021-08-12T10:58:03Z</time>
      </trkpt>
      <trkpt lat="45.50141" lon="6.7411">
        <ele>2241.4</ele>
        <time>2021-08-12T10:58:04Z</time>
      </trkpt>
      <trkpt lat="45.50141" lon="6.7411">
        <ele>2241.4</ele>
        <time>2021-08-12T10:58:05Z</time>
      </trkpt>
      <trkpt lat="45.50141" lon="6.7411">
        <ele>2241.4</ele>
        <time>2021-08-12T10:58:06Z</time>
      </trkpt>
      <trkpt lat="45.50141" lon="6.7411">
        <ele>2241.4</ele>
        <time>2021-08-12T10:58:07Z</time>
      </trkpt>
      <trkpt lat="45.50141" lon="6.7411">
        <ele>2241.4</ele>
        <time>2021-08-12T10:58:08Z</time>
      </trkpt>
      <trkpt lat="45.50141" lon="6.7411">
        <ele>2241.4</ele>
        <time>2021-08-12T10:58:09Z</time>
      </trkpt>
      <trkpt lat="45.50141" lon="6.7411">
        <ele>2241.4</ele>
        <time>2021-08-12T10:58:10Z</time>
      </trkpt>
      <trkpt lat="45.50141" lon="6.7411">
        <ele>2241.4</ele>
        <time>2021-08-12T10:58:11Z</time>
      </trkpt>
      <trkpt lat="45.50141" lon="6.7411">
        <ele>2241.4</ele>
        <time>2021-08-12T10:58:12Z</time>
      </trkpt>
      <trkpt lat="45.50141" lon="6.7411">
        <ele>2241.4</ele>
        <time>2021-08-12T10:58:13Z</time>
      </trkpt>
      <trkpt lat="45.50141" lon="6.7411">
        <ele>2241.4</ele>
        <time>2021-08-12T10:58:14Z</time>
      </trkpt>
      <trkpt lat="45.50141" lon="6.7411">
        <ele>2241.4</ele>
        <time>2021-08-12T10:58:15Z</time>
      </trkpt>
      <trkpt lat="45.50141" lon="6.7411">
        <ele>2241.4</ele>
        <time>2021-08-12T10:58:16Z</time>
      </trkpt>
      <trkpt lat="45.50141" lon="6.7411">
        <ele>2241.4</ele>
        <time>2021-08-12T10:58:17Z</time>
      </trkpt>
      <trkpt lat="45.50141" lon="6.7411">
        <ele>2241.4</ele>
        <time>2021-08-12T10:58:18Z</time>
      </trkpt>
      <trkpt lat="45.50141" lon="6.7411">
        <ele>2241.4</ele>
        <time>2021-08-12T10:58:19Z</time>
      </trkpt>
      <trkpt lat="45.50141" lon="6.7411">
        <ele>2241.4</ele>
        <time>2021-08-12T10:58:20Z</time>
      </trkpt>
      <trkpt lat="45.50141" lon="6.7411">
        <ele>2241.4</ele>
        <time>2021-08-12T10:58:21Z</time>
      </trkpt>
      <trkpt lat="45.50141" lon="6.7411">
        <ele>2241.4</ele>
        <time>2021-08-12T10:58:22Z</time>
      </trkpt>
      <trkpt lat="45.50141" lon="6.7411">
        <ele>2241.4</ele>
        <time>2021-08-12T10:58:23Z</time>
      </trkpt>
      <trkpt lat="45.50141" lon="6.7411">
        <ele>2241.4</ele>
        <time>2021-08-12T10:58:24Z</time>
      </trkpt>
      <trkpt lat="45.50141" lon="6.7411">
        <ele>2241.4</ele>
        <time>2021-08-12T10:58:25Z</time>
      </trkpt>
      <trkpt lat="45.50141" lon="6.7411">
        <ele>2241.4</ele>
        <time>2021-08-12T10:58:26Z</time>
      </trkpt>
      <trkpt lat="45.50141" lon="6.7411">
        <ele>2241.4</ele>
        <time>2021-08-12T10:58:27Z</time>
      </trkpt>
      <trkpt lat="45.50141" lon="6.7411">
        <ele>2241.4</ele>
        <time>2021-08-12T10:58:28Z</time>
      </trkpt>
      <trkpt lat="45.50141" lon="6.7411">
        <ele>2241.4</ele>
        <time>2021-08-12T10:58:29Z</time>
      </trkpt>
      <trkpt lat="45.50141" lon="6.7411">
        <ele>2241.4</ele>
        <time>2021-08-12T10:58:30Z</time>
      </trkpt>
      <trkpt lat="45.50141" lon="6.7411">
        <ele>2241.4</ele>
        <time>2021-08-12T10:58:31Z</time>
      </trkpt>
      <trkpt lat="45.50141" lon="6.7411">
        <ele>2241.4</ele>
        <time>2021-08-12T10:58:32Z</time>
      </trkpt>
      <trkpt lat="45.50141" lon="6.7411">
        <ele>2241.4</ele>
        <time>2021-08-12T10:58:33Z</time>
      </trkpt>
      <trkpt lat="45.50141" lon="6.7411">
        <ele>2241.4</ele>
        <time>2021-08-12T10:58:34Z</time>
      </trkpt>
      <trkpt lat="45.50141" lon="6.7411">
        <ele>2241.4</ele>
        <time>2021-08-12T10:58:35Z</time>
      </trkpt>
      <trkpt lat="45.50141" lon="6.7411">
        <ele>2241.4</ele>
        <time>2021-08-12T10:58:36Z</time>
      </trkpt>
      <trkpt lat="45.50141" lon="6.7411">
        <ele>2241.4</ele>
        <time>2021-08-12T10:58:37Z</time>
      </trkpt>
      <trkpt lat="45.50141" lon="6.7411">
        <ele>2241.4</ele>
        <time>2021-08-12T10:58:38Z</time>
      </trkpt>
      <trkpt lat="45.50141" lon="6.7411">
        <ele>2241.4</ele>
        <time>2021-08-12T10:58:39Z</time>
      </trkpt>
      <trkpt lat="45.50141" lon="6.7411">
        <ele>2241.4</ele>
        <time>2021-08-12T10:58:40Z</time>
      </trkpt>
      <trkpt lat="45.50141" lon="6.7411">
        <ele>2241.4</ele>
        <time>2021-08-12T10:58:41Z</time>
      </trkpt>
      <trkpt lat="45.50141" lon="6.7411">
        <ele>2241.4</ele>
        <time>2021-08-12T10:58:42Z</time>
      </trkpt>
      <trkpt lat="45.50141" lon="6.7411">
        <ele>2241.4</ele>
        <time>2021-08-12T10:58:43Z</time>
      </trkpt>
      <trkpt lat="45.50141" lon="6.7411">
        <ele>2241.4</ele>
        <time>2021-08-12T10:58:44Z</time>
      </trkpt>
      <trkpt lat="45.50141" lon="6.7411">
        <ele>2241.4</ele>
        <time>2021-08-12T10:58:45Z</time>
      </trkpt>
      <trkpt lat="45.50141" lon="6.7411">
        <ele>2241.4</ele>
        <time>2021-08-12T10:58:46Z</time>
      </trkpt>
      <trkpt lat="45.50141" lon="6.7411">
        <ele>2241.4</ele>
        <time>2021-08-12T10:58:47Z</time>
      </trkpt>
      <trkpt lat="45.50141" lon="6.7411">
        <ele>2241.4</ele>
        <time>2021-08-12T10:58:48Z</time>
      </trkpt>
      <trkpt lat="45.50141" lon="6.7411">
        <ele>2241.4</ele>
        <time>2021-08-12T10:58:49Z</time>
      </trkpt>
      <trkpt lat="45.50141" lon="6.7411">
        <ele>2241.4</ele>
        <time>2021-08-12T10:58:50Z</time>
      </trkpt>
      <trkpt lat="45.50141" lon="6.7411">
        <ele>2241.4</ele>
        <time>2021-08-12T10:58:51Z</time>
      </trkpt>
      <trkpt lat="45.50141" lon="6.7411">
        <ele>2241.4</ele>
        <time>2021-08-12T10:58:52Z</time>
      </trkpt>
      <trkpt lat="45.50141" lon="6.7411">
        <ele>2241.4</ele>
        <time>2021-08-12T10:58:53Z</time>
      </trkpt>
      <trkpt lat="45.50141" lon="6.7411">
        <ele>2241.4</ele>
        <time>2021-08-12T10:58:54Z</time>
      </trkpt>
      <trkpt lat="45.50141" lon="6.7411">
        <ele>2241.4</ele>
        <time>2021-08-12T10:58:55Z</time>
      </trkpt>
      <trkpt lat="45.50141" lon="6.7411">
        <ele>2241.4</ele>
        <time>2021-08-12T10:58:56Z</time>
      </trkpt>
      <trkpt lat="45.50141" lon="6.7411">
        <ele>2241.4</ele>
        <time>2021-08-12T10:58:57Z</time>
      </trkpt>
      <trkpt lat="45.50141" lon="6.7411">
        <ele>2241.4</ele>
        <time>2021-08-12T10:58:58Z</time>
      </trkpt>
      <trkpt lat="45.50141" lon="6.7411">
        <ele>2241.4</ele>
        <time>2021-08-12T10:58:59Z</time>
      </trkpt>
      <trkpt lat="45.50141" lon="6.7411">
        <ele>2241.4</ele>
        <time>2021-08-12T10:59:00Z</time>
      </trkpt>
      <trkpt lat="45.50141" lon="6.7411">
        <ele>2241.4</ele>
        <time>2021-08-12T10:59:01Z</time>
      </trkpt>
      <trkpt lat="45.50141" lon="6.7411">
        <ele>2241.4</ele>
        <time>2021-08-12T10:59:02Z</time>
      </trkpt>
      <trkpt lat="45.50141" lon="6.7411">
        <ele>2241.4</ele>
        <time>2021-08-12T10:59:03Z</time>
      </trkpt>
      <trkpt lat="45.50141" lon="6.7411">
        <ele>2241.4</ele>
        <time>2021-08-12T10:59:04Z</time>
      </trkpt>
      <trkpt lat="45.50141" lon="6.7411">
        <ele>2241.4</ele>
        <time>2021-08-12T10:59:05Z</time>
      </trkpt>
      <trkpt lat="45.50141" lon="6.7411">
        <ele>2241.4</ele>
        <time>2021-08-12T10:59:06Z</time>
      </trkpt>
      <trkpt lat="45.50141" lon="6.7411">
        <ele>2241.4</ele>
        <time>2021-08-12T10:59:07Z</time>
      </trkpt>
      <trkpt lat="45.50141" lon="6.7411">
        <ele>2241.4</ele>
        <time>2021-08-12T10:59:08Z</time>
      </trkpt>
      <trkpt lat="45.50141" lon="6.7411">
        <ele>2241.4</ele>
        <time>2021-08-12T10:59:09Z</time>
      </trkpt>
      <trkpt lat="45.50141" lon="6.7411">
        <ele>2241.4</ele>
        <time>2021-08-12T10:59:10Z</time>
      </trkpt>
      <trkpt lat="45.50141" lon="6.7411">
        <ele>2241.4</ele>
        <time>2021-08-12T10:59:11Z</time>
      </trkpt>
      <trkpt lat="45.50141" lon="6.7411">
        <ele>2241.4</ele>
        <time>2021-08-12T10:59:12Z</time>
      </trkpt>
      <trkpt lat="45.50141" lon="6.7411">
        <ele>2241.4</ele>
        <time>2021-08-12T10:59:13Z</time>
      </trkpt>
      <trkpt lat="45.50141" lon="6.7411">
        <ele>2241.4</ele>
        <time>2021-08-12T10:59:14Z</time>
      </trkpt>
      <trkpt lat="45.50141" lon="6.7411">
        <ele>2241.4</ele>
        <time>2021-08-12T10:59:15Z</time>
      </trkpt>
      <trkpt lat="45.50141" lon="6.7411">
        <ele>2241.4</ele>
        <time>2021-08-12T10:59:16Z</time>
      </trkpt>
      <trkpt lat="45.50141" lon="6.7411">
        <ele>2241.4</ele>
        <time>2021-08-12T10:59:17Z</time>
      </trkpt>
      <trkpt lat="45.50141" lon="6.7411">
        <ele>2241.4</ele>
        <time>2021-08-12T10:59:18Z</time>
      </trkpt>
      <trkpt lat="45.50141" lon="6.7411">
        <ele>2241.4</ele>
        <time>2021-08-12T10:59:19Z</time>
      </trkpt>
      <trkpt lat="45.50141" lon="6.7411">
        <ele>2241.4</ele>
        <time>2021-08-12T10:59:20Z</time>
      </trkpt>
      <trkpt lat="45.50141" lon="6.7411">
        <ele>2241.4</ele>
        <time>2021-08-12T10:59:21Z</time>
      </trkpt>
      <trkpt lat="45.50141" lon="6.7411">
        <ele>2241.4</ele>
        <time>2021-08-12T10:59:22Z</time>
      </trkpt>
      <trkpt lat="45.50141" lon="6.7411">
        <ele>2241.4</ele>
        <time>2021-08-12T10:59:23Z</time>
      </trkpt>
      <trkpt lat="45.50141" lon="6.7411">
        <ele>2241.4</ele>
        <time>2021-08-12T10:59:24Z</time>
      </trkpt>
      <trkpt lat="45.50141" lon="6.7411">
        <ele>2241.4</ele>
        <time>2021-08-12T10:59:25Z</time>
      </trkpt>
      <trkpt lat="45.50141" lon="6.7411">
        <ele>2241.4</ele>
        <time>2021-08-12T10:59:26Z</time>
      </trkpt>
      <trkpt lat="45.50141" lon="6.7411">
        <ele>2241.4</ele>
        <time>2021-08-12T10:59:27Z</time>
      </trkpt>
      <trkpt lat="45.50141" lon="6.7411">
        <ele>2241.4</ele>
        <time>2021-08-12T10:59:28Z</time>
      </trkpt>
      <trkpt lat="45.50141" lon="6.7411">
        <ele>2241.4</ele>
        <time>2021-08-12T10:59:29Z</time>
      </trkpt>
      <trkpt lat="45.50141" lon="6.7411">
        <ele>2241.4</ele>
        <time>2021-08-12T10:59:30Z</time>
      </trkpt>
      <trkpt lat="45.50141" lon="6.7411">
        <ele>2241.4</ele>
        <time>2021-08-12T10:59:31Z</time>
      </trkpt>
      <trkpt lat="45.50141" lon="6.7411">
        <ele>2241.4</ele>
        <time>2021-08-12T10:59:32Z</time>
      </trkpt>
      <trkpt lat="45.50141" lon="6.7411">
        <ele>2241.4</ele>
        <time>2021-08-12T10:59:33Z</time>
      </trkpt>
      <trkpt lat="45.50141" lon="6.7411">
        <ele>2241.4</ele>
        <time>2021-08-12T10:59:34Z</time>
      </trkpt>
      <trkpt lat="45.50141" lon="6.7411">
        <ele>2241.4</ele>
        <time>2021-08-12T10:59:35Z</time>
      </trkpt>
      <trkpt lat="45.50141" lon="6.7411">
        <ele>2241.4</ele>
        <time>2021-08-12T10:59:36Z</time>
      </trkpt>
      <trkpt lat="45.50141" lon="6.7411">
        <ele>2241.4</ele>
        <time>2021-08-12T10:59:37Z</time>
      </trkpt>
      <trkpt lat="45.50141" lon="6.7411">
        <ele>2241.4</ele>
        <time>2021-08-12T10:59:38Z</time>
      </trkpt>
      <trkpt lat="45.50141" lon="6.7411">
        <ele>2241.4</ele>
        <time>2021-08-12T10:59:39Z</time>
      </trkpt>
      <trkpt lat="45.50141" lon="6.7411">
        <ele>2241.4</ele>
        <time>2021-08-12T10:59:40Z</time>
      </trkpt>
      <trkpt lat="45.50141" lon="6.7411">
        <ele>2241.4</ele>
        <time>2021-08-12T10:59:41Z</time>
      </trkpt>
      <trkpt lat="45.50141" lon="6.7411">
        <ele>2241.4</ele>
        <time>2021-08-12T10:59:42Z</time>
      </trkpt>
      <trkpt lat="45.50141" lon="6.7411">
        <ele>2241.4</ele>
        <time>2021-08-12T10:59:43Z</time>
      </trkpt>
      <trkpt lat="45.50141" lon="6.7411">
        <ele>2241.4</ele>
        <time>2021-08-12T10:59:44Z</time>
      </trkpt>
      <trkpt lat="45.50141" lon="6.7411">
        <ele>2241.4</ele>
        <time>2021-08-12T10:59:45Z</time>
      </trkpt>
      <trkpt lat="45.50141" lon="6.7411">
        <ele>2241.4</ele>
        <time>2021-08-12T10:59:46Z</time>
      </trkpt>
      <trkpt lat="45.50141" lon="6.7411">
        <ele>2241.4</ele>
        <time>2021-08-12T10:59:47Z</time>
      </trkpt>
      <trkpt lat="45.50141" lon="6.7411">
        <ele>2241.4</ele>
        <time>2021-08-12T10:59:48Z</time>
      </trkpt>
      <trkpt lat="45.50141" lon="6.7411">
        <ele>2241.4</ele>
        <time>2021-08-12T10:59:49Z</time>
      </trkpt>
      <trkpt lat="45.50141" lon="6.7411">
        <ele>2241.4</ele>
        <time>2021-08-12T10:59:50Z</time>
      </trkpt>
      <trkpt lat="45.50141" lon="6.74111">
        <ele>2241.4</ele>
        <time>2021-08-12T10:59:51Z</time>
      </trkpt>
      <trkpt lat="45.50141" lon="6.74111">
        <ele>2241.4</ele>
        <time>2021-08-12T10:59:52Z</time>
      </trkpt>
      <trkpt lat="45.50141" lon="6.74111">
        <ele>2241.4</ele>
        <time>2021-08-12T10:59:53Z</time>
      </trkpt>
      <trkpt lat="45.50141" lon="6.74111">
        <ele>2241.4</ele>
        <time>2021-08-12T10:59:54Z</time>
      </trkpt>
      <trkpt lat="45.50141" lon="6.74111">
        <ele>2241.4</ele>
        <time>2021-08-12T10:59:55Z</time>
      </trkpt>
      <trkpt lat="45.50141" lon="6.74111">
        <ele>2241.4</ele>
        <time>2021-08-12T10:59:56Z</time>
      </trkpt>
      <trkpt lat="45.50141" lon="6.74111">
        <ele>2241.4</ele>
        <time>2021-08-12T10:59:57Z</time>
      </trkpt>
      <trkpt lat="45.50141" lon="6.74111">
        <ele>2241.4</ele>
        <time>2021-08-12T10:59:58Z</time>
      </trkpt>
      <trkpt lat="45.50141" lon="6.74111">
        <ele>2241.4</ele>
        <time>2021-08-12T10:59:59Z</time>
      </trkpt>
      <trkpt lat="45.50141" lon="6.74111">
        <ele>2241.4</ele>
        <time>2021-08-12T11:00:00Z</time>
      </trkpt>
      <trkpt lat="45.50141" lon="6.74111">
        <ele>2241.4</ele>
        <time>2021-08-12T11:00:01Z</time>
      </trkpt>
      <trkpt lat="45.50141" lon="6.74111">
        <ele>2241.4</ele>
        <time>2021-08-12T11:00:02Z</time>
      </trkpt>
      <trkpt lat="45.50141" lon="6.74111">
        <ele>2241.4</ele>
        <time>2021-08-12T11:00:03Z</time>
      </trkpt>
      <trkpt lat="45.50141" lon="6.74111">
        <ele>2241.4</ele>
        <time>2021-08-12T11:00:04Z</time>
      </trkpt>
      <trkpt lat="45.50141" lon="6.74111">
        <ele>2241.4</ele>
        <time>2021-08-12T11:00:05Z</time>
      </trkpt>
      <trkpt lat="45.50142" lon="6.74111">
        <ele>2241.4</ele>
        <time>2021-08-12T11:00:06Z</time>
      </trkpt>
      <trkpt lat="45.50142" lon="6.74111">
        <ele>2241.4</ele>
        <time>2021-08-12T11:00:07Z</time>
      </trkpt>
      <trkpt lat="45.50142" lon="6.74111">
        <ele>2241.4</ele>
        <time>2021-08-12T11:00:08Z</time>
      </trkpt>
      <trkpt lat="45.50142" lon="6.74111">
        <ele>2241.4</ele>
        <time>2021-08-12T11:00:09Z</time>
      </trkpt>
      <trkpt lat="45.50142" lon="6.74111">
        <ele>2241.4</ele>
        <time>2021-08-12T11:00:10Z</time>
      </trkpt>
      <trkpt lat="45.50142" lon="6.74111">
        <ele>2241.4</ele>
        <time>2021-08-12T11:00:11Z</time>
      </trkpt>
      <trkpt lat="45.50142" lon="6.74111">
        <ele>2241.4</ele>
        <time>2021-08-12T11:00:12Z</time>
      </trkpt>
      <trkpt lat="45.50142" lon="6.74111">
        <ele>2241.4</ele>
        <time>2021-08-12T11:00:13Z</time>
      </trkpt>
      <trkpt lat="45.50142" lon="6.74111">
        <ele>2241.4</ele>
        <time>2021-08-12T11:00:14Z</time>
      </trkpt>
      <trkpt lat="45.50142" lon="6.74111">
        <ele>2241.4</ele>
        <time>2021-08-12T11:00:15Z</time>
      </trkpt>
      <trkpt lat="45.50142" lon="6.74111">
        <ele>2241.4</ele>
        <time>2021-08-12T11:00:16Z</time>
      </trkpt>
      <trkpt lat="45.50142" lon="6.74111">
        <ele>2241.4</ele>
        <time>2021-08-12T11:00:17Z</time>
      </trkpt>
      <trkpt lat="45.50142" lon="6.74111">
        <ele>2241.4</ele>
        <time>2021-08-12T11:00:18Z</time>
      </trkpt>
      <trkpt lat="45.50142" lon="6.74111">
        <ele>2241.4</ele>
        <time>2021-08-12T11:00:19Z</time>
      </trkpt>
      <trkpt lat="45.50142" lon="6.74111">
        <ele>2241.4</ele>
        <time>2021-08-12T11:00:20Z</time>
      </trkpt>
      <trkpt lat="45.50142" lon="6.74111">
        <ele>2241.4</ele>
        <time>2021-08-12T11:00:21Z</time>
      </trkpt>
      <trkpt lat="45.50142" lon="6.74111">
        <ele>2241.4</ele>
        <time>2021-08-12T11:00:22Z</time>
      </trkpt>
      <trkpt lat="45.50142" lon="6.74111">
        <ele>2241.4</ele>
        <time>2021-08-12T11:00:23Z</time>
      </trkpt>
      <trkpt lat="45.50142" lon="6.74111">
        <ele>2241.4</ele>
        <time>2021-08-12T11:00:24Z</time>
      </trkpt>
      <trkpt lat="45.50142" lon="6.74111">
        <ele>2241.4</ele>
        <time>2021-08-12T11:00:25Z</time>
      </trkpt>
      <trkpt lat="45.50142" lon="6.74111">
        <ele>2241.4</ele>
        <time>2021-08-12T11:00:26Z</time>
      </trkpt>
      <trkpt lat="45.50142" lon="6.74111">
        <ele>2241.4</ele>
        <time>2021-08-12T11:00:27Z</time>
      </trkpt>
      <trkpt lat="45.50142" lon="6.74111">
        <ele>2241.4</ele>
        <time>2021-08-12T11:00:28Z</time>
      </trkpt>
      <trkpt lat="45.50142" lon="6.74111">
        <ele>2241.4</ele>
        <time>2021-08-12T11:00:29Z</time>
      </trkpt>
      <trkpt lat="45.50142" lon="6.74111">
        <ele>2241.4</ele>
        <time>2021-08-12T11:00:30Z</time>
      </trkpt>
      <trkpt lat="45.50142" lon="6.74111">
        <ele>2241.4</ele>
        <time>2021-08-12T11:00:31Z</time>
      </trkpt>
      <trkpt lat="45.50142" lon="6.74111">
        <ele>2241.4</ele>
        <time>2021-08-12T11:00:32Z</time>
      </trkpt>
      <trkpt lat="45.50142" lon="6.74111">
        <ele>2241.4</ele>
        <time>2021-08-12T11:00:33Z</time>
      </trkpt>
      <trkpt lat="45.50142" lon="6.74111">
        <ele>2241.4</ele>
        <time>2021-08-12T11:00:34Z</time>
      </trkpt>
      <trkpt lat="45.50142" lon="6.74111">
        <ele>2241.4</ele>
        <time>2021-08-12T11:00:35Z</time>
      </trkpt>
      <trkpt lat="45.50142" lon="6.74111">
        <ele>2241.4</ele>
        <time>2021-08-12T11:00:36Z</time>
      </trkpt>
      <trkpt lat="45.50142" lon="6.74111">
        <ele>2241.4</ele>
        <time>2021-08-12T11:00:37Z</time>
      </trkpt>
      <trkpt lat="45.50142" lon="6.74111">
        <ele>2241.4</ele>
        <time>2021-08-12T11:00:38Z</time>
      </trkpt>
      <trkpt lat="45.50142" lon="6.74111">
        <ele>2241.4</ele>
        <time>2021-08-12T11:00:39Z</time>
      </trkpt>
      <trkpt lat="45.50142" lon="6.74111">
        <ele>2241.4</ele>
        <time>2021-08-12T11:00:40Z</time>
      </trkpt>
      <trkpt lat="45.50142" lon="6.74111">
        <ele>2241.4</ele>
        <time>2021-08-12T11:00:41Z</time>
      </trkpt>
      <trkpt lat="45.50142" lon="6.74111">
        <ele>2241.4</ele>
        <time>2021-08-12T11:00:42Z</time>
      </trkpt>
      <trkpt lat="45.50142" lon="6.74111">
        <ele>2241.4</ele>
        <time>2021-08-12T11:00:43Z</time>
      </trkpt>
      <trkpt lat="45.50142" lon="6.74111">
        <ele>2241.4</ele>
        <time>2021-08-12T11:00:44Z</time>
      </trkpt>
      <trkpt lat="45.50142" lon="6.74111">
        <ele>2241.4</ele>
        <time>2021-08-12T11:00:45Z</time>
      </trkpt>
      <trkpt lat="45.50142" lon="6.74111">
        <ele>2241.4</ele>
        <time>2021-08-12T11:00:46Z</time>
      </trkpt>
      <trkpt lat="45.50142" lon="6.74111">
        <ele>2241.4</ele>
        <time>2021-08-12T11:00:47Z</time>
      </trkpt>
      <trkpt lat="45.50142" lon="6.74111">
        <ele>2241.4</ele>
        <time>2021-08-12T11:00:48Z</time>
      </trkpt>
      <trkpt lat="45.50142" lon="6.74111">
        <ele>2241.4</ele>
        <time>2021-08-12T11:00:49Z</time>
      </trkpt>
      <trkpt lat="45.50142" lon="6.74111">
        <ele>2241.4</ele>
        <time>2021-08-12T11:00:50Z</time>
      </trkpt>
      <trkpt lat="45.50142" lon="6.74111">
        <ele>2241.4</ele>
        <time>2021-08-12T11:00:51Z</time>
      </trkpt>
      <trkpt lat="45.50142" lon="6.74111">
        <ele>2241.4</ele>
        <time>2021-08-12T11:00:52Z</time>
      </trkpt>
      <trkpt lat="45.50142" lon="6.74111">
        <ele>2241.4</ele>
        <time>2021-08-12T11:00:53Z</time>
      </trkpt>
      <trkpt lat="45.50142" lon="6.74111">
        <ele>2241.4</ele>
        <time>2021-08-12T11:00:54Z</time>
      </trkpt>
      <trkpt lat="45.50142" lon="6.74111">
        <ele>2241.4</ele>
        <time>2021-08-12T11:00:55Z</time>
      </trkpt>
      <trkpt lat="45.50142" lon="6.74111">
        <ele>2241.4</ele>
        <time>2021-08-12T11:00:56Z</time>
      </trkpt>
      <trkpt lat="45.50142" lon="6.74111">
        <ele>2241.4</ele>
        <time>2021-08-12T11:00:57Z</time>
      </trkpt>
      <trkpt lat="45.50142" lon="6.74111">
        <ele>2241.4</ele>
        <time>2021-08-12T11:00:58Z</time>
      </trkpt>
      <trkpt lat="45.50142" lon="6.74111">
        <ele>2241.4</ele>
        <time>2021-08-12T11:00:59Z</time>
      </trkpt>
      <trkpt lat="45.50142" lon="6.74111">
        <ele>2241.4</ele>
        <time>2021-08-12T11:01:00Z</time>
      </trkpt>
      <trkpt lat="45.50142" lon="6.74111">
        <ele>2241.3</ele>
        <time>2021-08-12T11:01:01Z</time>
      </trkpt>
      <trkpt lat="45.50142" lon="6.74111">
        <ele>2241.3</ele>
        <time>2021-08-12T11:01:02Z</time>
      </trkpt>
      <trkpt lat="45.50142" lon="6.74111">
        <ele>2241.3</ele>
        <time>2021-08-12T11:01:03Z</time>
      </trkpt>
      <trkpt lat="45.50142" lon="6.74111">
        <ele>2241.3</ele>
        <time>2021-08-12T11:01:04Z</time>
      </trkpt>
      <trkpt lat="45.50142" lon="6.74111">
        <ele>2241.3</ele>
        <time>2021-08-12T11:01:05Z</time>
      </trkpt>
      <trkpt lat="45.50142" lon="6.74111">
        <ele>2241.3</ele>
        <time>2021-08-12T11:01:06Z</time>
      </trkpt>
      <trkpt lat="45.50142" lon="6.74111">
        <ele>2241.3</ele>
        <time>2021-08-12T11:01:07Z</time>
      </trkpt>
      <trkpt lat="45.50142" lon="6.74111">
        <ele>2241.3</ele>
        <time>2021-08-12T11:01:08Z</time>
      </trkpt>
      <trkpt lat="45.50142" lon="6.74111">
        <ele>2241.3</ele>
        <time>2021-08-12T11:01:09Z</time>
      </trkpt>
      <trkpt lat="45.50142" lon="6.74111">
        <ele>2241.3</ele>
        <time>2021-08-12T11:01:10Z</time>
      </trkpt>
      <trkpt lat="45.50142" lon="6.74111">
        <ele>2241.3</ele>
        <time>2021-08-12T11:01:11Z</time>
      </trkpt>
      <trkpt lat="45.50142" lon="6.74111">
        <ele>2241.3</ele>
        <time>2021-08-12T11:01:12Z</time>
      </trkpt>
      <trkpt lat="45.50142" lon="6.74111">
        <ele>2241.3</ele>
        <time>2021-08-12T11:01:13Z</time>
      </trkpt>
      <trkpt lat="45.50142" lon="6.74111">
        <ele>2241.3</ele>
        <time>2021-08-12T11:01:14Z</time>
      </trkpt>
      <trkpt lat="45.50142" lon="6.74111">
        <ele>2241.3</ele>
        <time>2021-08-12T11:01:15Z</time>
      </trkpt>
      <trkpt lat="45.50142" lon="6.74111">
        <ele>2241.3</ele>
        <time>2021-08-12T11:01:16Z</time>
      </trkpt>
      <trkpt lat="45.50142" lon="6.74111">
        <ele>2241.3</ele>
        <time>2021-08-12T11:01:17Z</time>
      </trkpt>
      <trkpt lat="45.50142" lon="6.74111">
        <ele>2241.3</ele>
        <time>2021-08-12T11:01:18Z</time>
      </trkpt>
      <trkpt lat="45.50142" lon="6.74111">
        <ele>2241.3</ele>
        <time>2021-08-12T11:01:19Z</time>
      </trkpt>
      <trkpt lat="45.50142" lon="6.74111">
        <ele>2241.3</ele>
        <time>2021-08-12T11:01:20Z</time>
      </trkpt>
      <trkpt lat="45.50142" lon="6.74111">
        <ele>2241.3</ele>
        <time>2021-08-12T11:01:21Z</time>
      </trkpt>
      <trkpt lat="45.50142" lon="6.74111">
        <ele>2241.3</ele>
        <time>2021-08-12T11:01:22Z</time>
      </trkpt>
      <trkpt lat="45.50142" lon="6.74111">
        <ele>2241.3</ele>
        <time>2021-08-12T11:01:23Z</time>
      </trkpt>
      <trkpt lat="45.50142" lon="6.74111">
        <ele>2241.3</ele>
        <time>2021-08-12T11:01:24Z</time>
      </trkpt>
      <trkpt lat="45.50142" lon="6.74111">
        <ele>2241.3</ele>
        <time>2021-08-12T11:01:25Z</time>
      </trkpt>
      <trkpt lat="45.50142" lon="6.74111">
        <ele>2241.3</ele>
        <time>2021-08-12T11:01:26Z</time>
      </trkpt>
      <trkpt lat="45.50142" lon="6.74111">
        <ele>2241.3</ele>
        <time>2021-08-12T11:01:27Z</time>
      </trkpt>
      <trkpt lat="45.50142" lon="6.74111">
        <ele>2241.3</ele>
        <time>2021-08-12T11:01:28Z</time>
      </trkpt>
      <trkpt lat="45.50142" lon="6.74111">
        <ele>2241.3</ele>
        <time>2021-08-12T11:01:29Z</time>
      </trkpt>
      <trkpt lat="45.50142" lon="6.74111">
        <ele>2241.3</ele>
        <time>2021-08-12T11:01:30Z</time>
      </trkpt>
      <trkpt lat="45.50142" lon="6.74111">
        <ele>2241.3</ele>
        <time>2021-08-12T11:01:31Z</time>
      </trkpt>
      <trkpt lat="45.50142" lon="6.74111">
        <ele>2241.3</ele>
        <time>2021-08-12T11:01:32Z</time>
      </trkpt>
      <trkpt lat="45.50142" lon="6.74111">
        <ele>2241.3</ele>
        <time>2021-08-12T11:01:33Z</time>
      </trkpt>
      <trkpt lat="45.50142" lon="6.74111">
        <ele>2241.3</ele>
        <time>2021-08-12T11:01:34Z</time>
      </trkpt>
      <trkpt lat="45.50142" lon="6.74111">
        <ele>2241.3</ele>
        <time>2021-08-12T11:01:35Z</time>
      </trkpt>
      <trkpt lat="45.50142" lon="6.74111">
        <ele>2241.3</ele>
        <time>2021-08-12T11:01:36Z</time>
      </trkpt>
      <trkpt lat="45.50142" lon="6.74111">
        <ele>2241.3</ele>
        <time>2021-08-12T11:01:37Z</time>
      </trkpt>
      <trkpt lat="45.50142" lon="6.74111">
        <ele>2241.3</ele>
        <time>2021-08-12T11:01:38Z</time>
      </trkpt>
      <trkpt lat="45.50142" lon="6.74111">
        <ele>2241.3</ele>
        <time>2021-08-12T11:01:39Z</time>
      </trkpt>
      <trkpt lat="45.50142" lon="6.74111">
        <ele>2241.3</ele>
        <time>2021-08-12T11:01:40Z</time>
      </trkpt>
      <trkpt lat="45.50142" lon="6.74111">
        <ele>2241.3</ele>
        <time>2021-08-12T11:01:41Z</time>
      </trkpt>
      <trkpt lat="45.50142" lon="6.74111">
        <ele>2241.3</ele>
        <time>2021-08-12T11:01:42Z</time>
      </trkpt>
      <trkpt lat="45.50142" lon="6.74111">
        <ele>2241.3</ele>
        <time>2021-08-12T11:01:43Z</time>
      </trkpt>
      <trkpt lat="45.50142" lon="6.74111">
        <ele>2241.3</ele>
        <time>2021-08-12T11:01:44Z</time>
      </trkpt>
      <trkpt lat="45.50142" lon="6.74111">
        <ele>2241.3</ele>
        <time>2021-08-12T11:01:45Z</time>
      </trkpt>
      <trkpt lat="45.50142" lon="6.74111">
        <ele>2241.3</ele>
        <time>2021-08-12T11:01:46Z</time>
      </trkpt>
      <trkpt lat="45.50142" lon="6.74111">
        <ele>2241.3</ele>
        <time>2021-08-12T11:01:47Z</time>
      </trkpt>
      <trkpt lat="45.50142" lon="6.74111">
        <ele>2241.3</ele>
        <time>2021-08-12T11:01:48Z</time>
      </trkpt>
      <trkpt lat="45.50142" lon="6.74111">
        <ele>2241.3</ele>
        <time>2021-08-12T11:01:49Z</time>
      </trkpt>
      <trkpt lat="45.50142" lon="6.74111">
        <ele>2241.3</ele>
        <time>2021-08-12T11:01:50Z</time>
      </trkpt>
      <trkpt lat="45.50142" lon="6.74111">
        <ele>2241.3</ele>
        <time>2021-08-12T11:01:51Z</time>
      </trkpt>
      <trkpt lat="45.50142" lon="6.74111">
        <ele>2241.3</ele>
        <time>2021-08-12T11:01:52Z</time>
      </trkpt>
      <trkpt lat="45.50142" lon="6.74111">
        <ele>2241.3</ele>
        <time>2021-08-12T11:01:53Z</time>
      </trkpt>
      <trkpt lat="45.50142" lon="6.74111">
        <ele>2241.3</ele>
        <time>2021-08-12T11:01:54Z</time>
      </trkpt>
      <trkpt lat="45.50142" lon="6.74111">
        <ele>2241.3</ele>
        <time>2021-08-12T11:01:55Z</time>
      </trkpt>
      <trkpt lat="45.50142" lon="6.74111">
        <ele>2241.3</ele>
        <time>2021-08-12T11:01:56Z</time>
      </trkpt>
      <trkpt lat="45.50142" lon="6.74111">
        <ele>2241.3</ele>
        <time>2021-08-12T11:01:57Z</time>
      </trkpt>
      <trkpt lat="45.50142" lon="6.74111">
        <ele>2241.3</ele>
        <time>2021-08-12T11:01:58Z</time>
      </trkpt>
      <trkpt lat="45.50142" lon="6.74111">
        <ele>2241.3</ele>
        <time>2021-08-12T11:01:59Z</time>
      </trkpt>
      <trkpt lat="45.50142" lon="6.74111">
        <ele>2241.3</ele>
        <time>2021-08-12T11:02:00Z</time>
      </trkpt>
      <trkpt lat="45.50142" lon="6.74111">
        <ele>2241.3</ele>
        <time>2021-08-12T11:02:01Z</time>
      </trkpt>
      <trkpt lat="45.50142" lon="6.74111">
        <ele>2241.3</ele>
        <time>2021-08-12T11:02:02Z</time>
      </trkpt>
      <trkpt lat="45.50142" lon="6.74111">
        <ele>2241.3</ele>
        <time>2021-08-12T11:02:03Z</time>
      </trkpt>
      <trkpt lat="45.50142" lon="6.74111">
        <ele>2241.3</ele>
        <time>2021-08-12T11:02:04Z</time>
      </trkpt>
      <trkpt lat="45.50142" lon="6.74111">
        <ele>2241.3</ele>
        <time>2021-08-12T11:02:05Z</time>
      </trkpt>
      <trkpt lat="45.50142" lon="6.74111">
        <ele>2241.3</ele>
        <time>2021-08-12T11:02:06Z</time>
      </trkpt>
      <trkpt lat="45.50142" lon="6.74111">
        <ele>2241.3</ele>
        <time>2021-08-12T11:02:07Z</time>
      </trkpt>
      <trkpt lat="45.50142" lon="6.74111">
        <ele>2241.3</ele>
        <time>2021-08-12T11:02:08Z</time>
      </trkpt>
      <trkpt lat="45.50142" lon="6.74111">
        <ele>2241.3</ele>
        <time>2021-08-12T11:02:09Z</time>
      </trkpt>
      <trkpt lat="45.50142" lon="6.74111">
        <ele>2241.3</ele>
        <time>2021-08-12T11:02:10Z</time>
      </trkpt>
      <trkpt lat="45.50142" lon="6.74111">
        <ele>2241.3</ele>
        <time>2021-08-12T11:02:11Z</time>
      </trkpt>
      <trkpt lat="45.50142" lon="6.74111">
        <ele>2241.3</ele>
        <time>2021-08-12T11:02:12Z</time>
      </trkpt>
      <trkpt lat="45.50142" lon="6.74111">
        <ele>2241.3</ele>
        <time>2021-08-12T11:02:13Z</time>
      </trkpt>
      <trkpt lat="45.50142" lon="6.74111">
        <ele>2241.3</ele>
        <time>2021-08-12T11:02:14Z</time>
      </trkpt>
      <trkpt lat="45.50142" lon="6.74111">
        <ele>2241.3</ele>
        <time>2021-08-12T11:02:15Z</time>
      </trkpt>
      <trkpt lat="45.50142" lon="6.74111">
        <ele>2241.3</ele>
        <time>2021-08-12T11:02:16Z</time>
      </trkpt>
      <trkpt lat="45.50142" lon="6.74111">
        <ele>2241.3</ele>
        <time>2021-08-12T11:02:17Z</time>
      </trkpt>
      <trkpt lat="45.50142" lon="6.74111">
        <ele>2241.3</ele>
        <time>2021-08-12T11:02:18Z</time>
      </trkpt>
      <trkpt lat="45.50142" lon="6.74111">
        <ele>2241.3</ele>
        <time>2021-08-12T11:02:19Z</time>
      </trkpt>
      <trkpt lat="45.50142" lon="6.74111">
        <ele>2241.3</ele>
        <time>2021-08-12T11:02:20Z</time>
      </trkpt>
      <trkpt lat="45.50142" lon="6.74111">
        <ele>2241.3</ele>
        <time>2021-08-12T11:02:21Z</time>
      </trkpt>
      <trkpt lat="45.50142" lon="6.74111">
        <ele>2241.3</ele>
        <time>2021-08-12T11:02:22Z</time>
      </trkpt>
      <trkpt lat="45.50142" lon="6.74111">
        <ele>2241.3</ele>
        <time>2021-08-12T11:02:23Z</time>
      </trkpt>
      <trkpt lat="45.50142" lon="6.74111">
        <ele>2241.3</ele>
        <time>2021-08-12T11:02:24Z</time>
      </trkpt>
      <trkpt lat="45.50142" lon="6.74111">
        <ele>2241.3</ele>
        <time>2021-08-12T11:02:25Z</time>
      </trkpt>
      <trkpt lat="45.50142" lon="6.74111">
        <ele>2241.3</ele>
        <time>2021-08-12T11:02:26Z</time>
      </trkpt>
      <trkpt lat="45.50142" lon="6.74111">
        <ele>2241.3</ele>
        <time>2021-08-12T11:02:27Z</time>
      </trkpt>
      <trkpt lat="45.50142" lon="6.74111">
        <ele>2241.3</ele>
        <time>2021-08-12T11:02:28Z</time>
      </trkpt>
      <trkpt lat="45.50142" lon="6.74111">
        <ele>2241.3</ele>
        <time>2021-08-12T11:02:29Z</time>
      </trkpt>
      <trkpt lat="45.50142" lon="6.74111">
        <ele>2241.3</ele>
        <time>2021-08-12T11:02:30Z</time>
      </trkpt>
      <trkpt lat="45.50142" lon="6.74111">
        <ele>2241.3</ele>
        <time>2021-08-12T11:02:31Z</time>
      </trkpt>
      <trkpt lat="45.50142" lon="6.74111">
        <ele>2241.3</ele>
        <time>2021-08-12T11:02:32Z</time>
      </trkpt>
      <trkpt lat="45.50142" lon="6.74111">
        <ele>2241.3</ele>
        <time>2021-08-12T11:02:33Z</time>
      </trkpt>
      <trkpt lat="45.50142" lon="6.74111">
        <ele>2241.3</ele>
        <time>2021-08-12T11:02:34Z</time>
      </trkpt>
      <trkpt lat="45.50142" lon="6.74111">
        <ele>2241.3</ele>
        <time>2021-08-12T11:02:35Z</time>
      </trkpt>
      <trkpt lat="45.50142" lon="6.74111">
        <ele>2241.3</ele>
        <time>2021-08-12T11:02:36Z</time>
      </trkpt>
      <trkpt lat="45.50142" lon="6.74111">
        <ele>2241.3</ele>
        <time>2021-08-12T11:02:37Z</time>
      </trkpt>
      <trkpt lat="45.50142" lon="6.74111">
        <ele>2241.3</ele>
        <time>2021-08-12T11:02:38Z</time>
      </trkpt>
      <trkpt lat="45.50142" lon="6.74111">
        <ele>2241.3</ele>
        <time>2021-08-12T11:02:39Z</time>
      </trkpt>
      <trkpt lat="45.50142" lon="6.74111">
        <ele>2241.3</ele>
        <time>2021-08-12T11:02:40Z</time>
      </trkpt>
      <trkpt lat="45.50142" lon="6.74111">
        <ele>2241.3</ele>
        <time>2021-08-12T11:02:41Z</time>
      </trkpt>
      <trkpt lat="45.50142" lon="6.74111">
        <ele>2241.3</ele>
        <time>2021-08-12T11:02:42Z</time>
      </trkpt>
      <trkpt lat="45.50142" lon="6.74111">
        <ele>2241.3</ele>
        <time>2021-08-12T11:02:43Z</time>
      </trkpt>
      <trkpt lat="45.50142" lon="6.74111">
        <ele>2241.3</ele>
        <time>2021-08-12T11:02:44Z</time>
      </trkpt>
      <trkpt lat="45.50142" lon="6.74111">
        <ele>2241.3</ele>
        <time>2021-08-12T11:02:45Z</time>
      </trkpt>
      <trkpt lat="45.50142" lon="6.74111">
        <ele>2241.3</ele>
        <time>2021-08-12T11:02:46Z</time>
      </trkpt>
      <trkpt lat="45.50142" lon="6.74111">
        <ele>2241.3</ele>
        <time>2021-08-12T11:02:47Z</time>
      </trkpt>
      <trkpt lat="45.50142" lon="6.74111">
        <ele>2241.3</ele>
        <time>2021-08-12T11:02:48Z</time>
      </trkpt>
      <trkpt lat="45.50142" lon="6.74111">
        <ele>2241.3</ele>
        <time>2021-08-12T11:02:49Z</time>
      </trkpt>
      <trkpt lat="45.50142" lon="6.74111">
        <ele>2241.3</ele>
        <time>2021-08-12T11:02:50Z</time>
      </trkpt>
      <trkpt lat="45.50142" lon="6.74111">
        <ele>2241.3</ele>
        <time>2021-08-12T11:02:51Z</time>
      </trkpt>
      <trkpt lat="45.50142" lon="6.74111">
        <ele>2241.3</ele>
        <time>2021-08-12T11:02:52Z</time>
      </trkpt>
      <trkpt lat="45.50142" lon="6.74111">
        <ele>2241.3</ele>
        <time>2021-08-12T11:02:53Z</time>
      </trkpt>
      <trkpt lat="45.50142" lon="6.74111">
        <ele>2241.3</ele>
        <time>2021-08-12T11:02:54Z</time>
      </trkpt>
      <trkpt lat="45.50142" lon="6.74111">
        <ele>2241.3</ele>
        <time>2021-08-12T11:02:55Z</time>
      </trkpt>
      <trkpt lat="45.50142" lon="6.74111">
        <ele>2241.3</ele>
        <time>2021-08-12T11:02:56Z</time>
      </trkpt>
      <trkpt lat="45.50142" lon="6.74111">
        <ele>2241.3</ele>
        <time>2021-08-12T11:02:57Z</time>
      </trkpt>
      <trkpt lat="45.50142" lon="6.74111">
        <ele>2241.3</ele>
        <time>2021-08-12T11:02:58Z</time>
      </trkpt>
      <trkpt lat="45.50142" lon="6.74111">
        <ele>2241.3</ele>
        <time>2021-08-12T11:02:59Z</time>
      </trkpt>
      <trkpt lat="45.50142" lon="6.74111">
        <ele>2241.3</ele>
        <time>2021-08-12T11:03:00Z</time>
      </trkpt>
      <trkpt lat="45.50142" lon="6.74111">
        <ele>2241.3</ele>
        <time>2021-08-12T11:03:01Z</time>
      </trkpt>
      <trkpt lat="45.50142" lon="6.74111">
        <ele>2241.3</ele>
        <time>2021-08-12T11:03:02Z</time>
      </trkpt>
      <trkpt lat="45.50142" lon="6.74111">
        <ele>2241.3</ele>
        <time>2021-08-12T11:03:03Z</time>
      </trkpt>
      <trkpt lat="45.50142" lon="6.74111">
        <ele>2241.3</ele>
        <time>2021-08-12T11:03:04Z</time>
      </trkpt>
      <trkpt lat="45.50142" lon="6.74111">
        <ele>2241.3</ele>
        <time>2021-08-12T11:03:05Z</time>
      </trkpt>
      <trkpt lat="45.50142" lon="6.74111">
        <ele>2241.3</ele>
        <time>2021-08-12T11:03:06Z</time>
      </trkpt>
      <trkpt lat="45.50142" lon="6.74111">
        <ele>2241.3</ele>
        <time>2021-08-12T11:03:07Z</time>
      </trkpt>
      <trkpt lat="45.50142" lon="6.74111">
        <ele>2241.3</ele>
        <time>2021-08-12T11:03:08Z</time>
      </trkpt>
      <trkpt lat="45.50142" lon="6.74111">
        <ele>2241.3</ele>
        <time>2021-08-12T11:03:09Z</time>
      </trkpt>
      <trkpt lat="45.50142" lon="6.74111">
        <ele>2241.3</ele>
        <time>2021-08-12T11:03:10Z</time>
      </trkpt>
      <trkpt lat="45.50142" lon="6.74111">
        <ele>2241.3</ele>
        <time>2021-08-12T11:03:11Z</time>
      </trkpt>
      <trkpt lat="45.50142" lon="6.74111">
        <ele>2241.3</ele>
        <time>2021-08-12T11:03:12Z</time>
      </trkpt>
      <trkpt lat="45.50142" lon="6.74111">
        <ele>2241.3</ele>
        <time>2021-08-12T11:03:13Z</time>
      </trkpt>
      <trkpt lat="45.50142" lon="6.74111">
        <ele>2241.3</ele>
        <time>2021-08-12T11:03:14Z</time>
      </trkpt>
      <trkpt lat="45.50142" lon="6.74111">
        <ele>2241.3</ele>
        <time>2021-08-12T11:03:15Z</time>
      </trkpt>
      <trkpt lat="45.50142" lon="6.74111">
        <ele>2241.3</ele>
        <time>2021-08-12T11:03:16Z</time>
      </trkpt>
      <trkpt lat="45.50142" lon="6.74111">
        <ele>2241.3</ele>
        <time>2021-08-12T11:03:17Z</time>
      </trkpt>
      <trkpt lat="45.50142" lon="6.74111">
        <ele>2241.3</ele>
        <time>2021-08-12T11:03:18Z</time>
      </trkpt>
      <trkpt lat="45.50142" lon="6.74111">
        <ele>2241.3</ele>
        <time>2021-08-12T11:03:19Z</time>
      </trkpt>
      <trkpt lat="45.50142" lon="6.74111">
        <ele>2241.3</ele>
        <time>2021-08-12T11:03:20Z</time>
      </trkpt>
      <trkpt lat="45.50142" lon="6.74111">
        <ele>2241.3</ele>
        <time>2021-08-12T11:03:21Z</time>
      </trkpt>
      <trkpt lat="45.50142" lon="6.74111">
        <ele>2241.3</ele>
        <time>2021-08-12T11:03:22Z</time>
      </trkpt>
      <trkpt lat="45.50142" lon="6.74111">
        <ele>2241.3</ele>
        <time>2021-08-12T11:03:23Z</time>
      </trkpt>
      <trkpt lat="45.50142" lon="6.74111">
        <ele>2241.3</ele>
        <time>2021-08-12T11:03:24Z</time>
      </trkpt>
      <trkpt lat="45.50142" lon="6.74111">
        <ele>2241.3</ele>
        <time>2021-08-12T11:03:25Z</time>
      </trkpt>
      <trkpt lat="45.50142" lon="6.74111">
        <ele>2241.3</ele>
        <time>2021-08-12T11:03:26Z</time>
      </trkpt>
      <trkpt lat="45.50142" lon="6.74111">
        <ele>2241.3</ele>
        <time>2021-08-12T11:03:27Z</time>
      </trkpt>
      <trkpt lat="45.50142" lon="6.74111">
        <ele>2241.3</ele>
        <time>2021-08-12T11:03:28Z</time>
      </trkpt>
      <trkpt lat="45.50142" lon="6.74111">
        <ele>2241.3</ele>
        <time>2021-08-12T11:03:29Z</time>
      </trkpt>
      <trkpt lat="45.50142" lon="6.74111">
        <ele>2241.3</ele>
        <time>2021-08-12T11:03:30Z</time>
      </trkpt>
      <trkpt lat="45.50142" lon="6.74111">
        <ele>2241.3</ele>
        <time>2021-08-12T11:03:31Z</time>
      </trkpt>
      <trkpt lat="45.50142" lon="6.74111">
        <ele>2241.3</ele>
        <time>2021-08-12T11:03:32Z</time>
      </trkpt>
      <trkpt lat="45.50142" lon="6.74111">
        <ele>2241.3</ele>
        <time>2021-08-12T11:03:33Z</time>
      </trkpt>
      <trkpt lat="45.50142" lon="6.74111">
        <ele>2241.3</ele>
        <time>2021-08-12T11:03:34Z</time>
      </trkpt>
      <trkpt lat="45.50142" lon="6.74111">
        <ele>2241.3</ele>
        <time>2021-08-12T11:03:35Z</time>
      </trkpt>
      <trkpt lat="45.50142" lon="6.74111">
        <ele>2241.3</ele>
        <time>2021-08-12T11:03:36Z</time>
      </trkpt>
      <trkpt lat="45.50142" lon="6.74111">
        <ele>2241.3</ele>
        <time>2021-08-12T11:03:37Z</time>
      </trkpt>
      <trkpt lat="45.50142" lon="6.74111">
        <ele>2241.3</ele>
        <time>2021-08-12T11:03:38Z</time>
      </trkpt>
      <trkpt lat="45.50142" lon="6.74111">
        <ele>2241.3</ele>
        <time>2021-08-12T11:03:39Z</time>
      </trkpt>
      <trkpt lat="45.50142" lon="6.74111">
        <ele>2241.3</ele>
        <time>2021-08-12T11:03:40Z</time>
      </trkpt>
      <trkpt lat="45.50142" lon="6.74111">
        <ele>2241.3</ele>
        <time>2021-08-12T11:03:41Z</time>
      </trkpt>
      <trkpt lat="45.50142" lon="6.74111">
        <ele>2241.3</ele>
        <time>2021-08-12T11:03:42Z</time>
      </trkpt>
      <trkpt lat="45.50142" lon="6.74111">
        <ele>2241.3</ele>
        <time>2021-08-12T11:03:43Z</time>
      </trkpt>
      <trkpt lat="45.50142" lon="6.74111">
        <ele>2241.3</ele>
        <time>2021-08-12T11:03:44Z</time>
      </trkpt>
      <trkpt lat="45.50142" lon="6.74111">
        <ele>2241.3</ele>
        <time>2021-08-12T11:03:45Z</time>
      </trkpt>
      <trkpt lat="45.50142" lon="6.74111">
        <ele>2241.3</ele>
        <time>2021-08-12T11:03:46Z</time>
      </trkpt>
      <trkpt lat="45.50142" lon="6.74111">
        <ele>2241.3</ele>
        <time>2021-08-12T11:03:47Z</time>
      </trkpt>
      <trkpt lat="45.50142" lon="6.74111">
        <ele>2241.3</ele>
        <time>2021-08-12T11:03:48Z</time>
      </trkpt>
      <trkpt lat="45.50142" lon="6.74111">
        <ele>2241.2</ele>
        <time>2021-08-12T11:03:49Z</time>
      </trkpt>
      <trkpt lat="45.50142" lon="6.74111">
        <ele>2241.2</ele>
        <time>2021-08-12T11:03:50Z</time>
      </trkpt>
      <trkpt lat="45.50143" lon="6.74111">
        <ele>2241.2</ele>
        <time>2021-08-12T11:03:51Z</time>
      </trkpt>
      <trkpt lat="45.50143" lon="6.7411">
        <ele>2241.2</ele>
        <time>2021-08-12T11:03:52Z</time>
      </trkpt>
      <trkpt lat="45.50143" lon="6.7411">
        <ele>2241.2</ele>
        <time>2021-08-12T11:03:53Z</time>
      </trkpt>
      <trkpt lat="45.50143" lon="6.74109">
        <ele>2241.1</ele>
        <time>2021-08-12T11:03:54Z</time>
      </trkpt>
      <trkpt lat="45.50143" lon="6.74109">
        <ele>2241.1</ele>
        <time>2021-08-12T11:03:55Z</time>
      </trkpt>
      <trkpt lat="45.50143" lon="6.74108">
        <ele>2241.1</ele>
        <time>2021-08-12T11:03:56Z</time>
      </trkpt>
      <trkpt lat="45.50143" lon="6.74107">
        <ele>2241</ele>
        <time>2021-08-12T11:03:57Z</time>
      </trkpt>
      <trkpt lat="45.50143" lon="6.74106">
        <ele>2241</ele>
        <time>2021-08-12T11:03:58Z</time>
      </trkpt>
      <trkpt lat="45.50143" lon="6.74106">
        <ele>2240.9</ele>
        <time>2021-08-12T11:03:59Z</time>
      </trkpt>
      <trkpt lat="45.50143" lon="6.74105">
        <ele>2240.9</ele>
        <time>2021-08-12T11:04:00Z</time>
      </trkpt>
      <trkpt lat="45.50143" lon="6.74104">
        <ele>2240.9</ele>
        <time>2021-08-12T11:04:01Z</time>
      </trkpt>
      <trkpt lat="45.50143" lon="6.74104">
        <ele>2240.8</ele>
        <time>2021-08-12T11:04:02Z</time>
      </trkpt>
      <trkpt lat="45.50143" lon="6.74104">
        <ele>2240.8</ele>
        <time>2021-08-12T11:04:03Z</time>
      </trkpt>
      <trkpt lat="45.50143" lon="6.74103">
        <ele>2240.8</ele>
        <time>2021-08-12T11:04:04Z</time>
      </trkpt>
      <trkpt lat="45.50143" lon="6.74103">
        <ele>2240.8</ele>
        <time>2021-08-12T11:04:05Z</time>
      </trkpt>
      <trkpt lat="45.50143" lon="6.74103">
        <ele>2240.8</ele>
        <time>2021-08-12T11:04:06Z</time>
      </trkpt>
      <trkpt lat="45.50143" lon="6.74103">
        <ele>2240.8</ele>
        <time>2021-08-12T11:04:07Z</time>
      </trkpt>
      <trkpt lat="45.50143" lon="6.74103">
        <ele>2240.8</ele>
        <time>2021-08-12T11:04:08Z</time>
      </trkpt>
      <trkpt lat="45.50143" lon="6.74103">
        <ele>2240.8</ele>
        <time>2021-08-12T11:04:09Z</time>
      </trkpt>
      <trkpt lat="45.50143" lon="6.74103">
        <ele>2240.8</ele>
        <time>2021-08-12T11:04:10Z</time>
      </trkpt>
      <trkpt lat="45.50143" lon="6.74102">
        <ele>2240.8</ele>
        <time>2021-08-12T11:04:11Z</time>
      </trkpt>
      <trkpt lat="45.50143" lon="6.74102">
        <ele>2240.7</ele>
        <time>2021-08-12T11:04:12Z</time>
      </trkpt>
      <trkpt lat="45.50143" lon="6.74101">
        <ele>2240.7</ele>
        <time>2021-08-12T11:04:13Z</time>
      </trkpt>
      <trkpt lat="45.50143" lon="6.74101">
        <ele>2240.7</ele>
        <time>2021-08-12T11:04:14Z</time>
      </trkpt>
      <trkpt lat="45.50143" lon="6.741">
        <ele>2240.7</ele>
        <time>2021-08-12T11:04:15Z</time>
      </trkpt>
      <trkpt lat="45.50143" lon="6.741">
        <ele>2240.6</ele>
        <time>2021-08-12T11:04:16Z</time>
      </trkpt>
      <trkpt lat="45.50143" lon="6.74099">
        <ele>2240.6</ele>
        <time>2021-08-12T11:04:17Z</time>
      </trkpt>
      <trkpt lat="45.50143" lon="6.74099">
        <ele>2240.6</ele>
        <time>2021-08-12T11:04:18Z</time>
      </trkpt>
      <trkpt lat="45.50143" lon="6.74098">
        <ele>2240.5</ele>
        <time>2021-08-12T11:04:19Z</time>
      </trkpt>
      <trkpt lat="45.50142" lon="6.74097">
        <ele>2240.5</ele>
        <time>2021-08-12T11:04:20Z</time>
      </trkpt>
      <trkpt lat="45.50142" lon="6.74097">
        <ele>2240.5</ele>
        <time>2021-08-12T11:04:21Z</time>
      </trkpt>
      <trkpt lat="45.50142" lon="6.74096">
        <ele>2240.4</ele>
        <time>2021-08-12T11:04:22Z</time>
      </trkpt>
      <trkpt lat="45.50142" lon="6.74095">
        <ele>2240.4</ele>
        <time>2021-08-12T11:04:23Z</time>
      </trkpt>
      <trkpt lat="45.50142" lon="6.74094">
        <ele>2240.3</ele>
        <time>2021-08-12T11:04:24Z</time>
      </trkpt>
      <trkpt lat="45.50142" lon="6.74093">
        <ele>2240.3</ele>
        <time>2021-08-12T11:04:25Z</time>
      </trkpt>
      <trkpt lat="45.50142" lon="6.74093">
        <ele>2240.2</ele>
        <time>2021-08-12T11:04:26Z</time>
      </trkpt>
      <trkpt lat="45.50142" lon="6.74092">
        <ele>2240.2</ele>
        <time>2021-08-12T11:04:27Z</time>
      </trkpt>
      <trkpt lat="45.50141" lon="6.74091">
        <ele>2240.1</ele>
        <time>2021-08-12T11:04:28Z</time>
      </trkpt>
      <trkpt lat="45.50141" lon="6.7409">
        <ele>2240.1</ele>
        <time>2021-08-12T11:04:29Z</time>
      </trkpt>
      <trkpt lat="45.50141" lon="6.74089">
        <ele>2240.1</ele>
        <time>2021-08-12T11:04:30Z</time>
      </trkpt>
      <trkpt lat="45.50141" lon="6.74088">
        <ele>2240</ele>
        <time>2021-08-12T11:04:31Z</time>
      </trkpt>
      <trkpt lat="45.50141" lon="6.74088">
        <ele>2240</ele>
        <time>2021-08-12T11:04:32Z</time>
      </trkpt>
      <trkpt lat="45.50141" lon="6.74087">
        <ele>2239.9</ele>
        <time>2021-08-12T11:04:33Z</time>
      </trkpt>
      <trkpt lat="45.50141" lon="6.74086">
        <ele>2239.9</ele>
        <time>2021-08-12T11:04:34Z</time>
      </trkpt>
      <trkpt lat="45.5014" lon="6.74086">
        <ele>2239.9</ele>
        <time>2021-08-12T11:04:35Z</time>
      </trkpt>
      <trkpt lat="45.5014" lon="6.74086">
        <ele>2239.9</ele>
        <time>2021-08-12T11:04:36Z</time>
      </trkpt>
      <trkpt lat="45.5014" lon="6.74085">
        <ele>2239.8</ele>
        <time>2021-08-12T11:04:37Z</time>
      </trkpt>
      <trkpt lat="45.5014" lon="6.74085">
        <ele>2239.8</ele>
        <time>2021-08-12T11:04:38Z</time>
      </trkpt>
      <trkpt lat="45.5014" lon="6.74085">
        <ele>2239.8</ele>
        <time>2021-08-12T11:04:39Z</time>
      </trkpt>
      <trkpt lat="45.5014" lon="6.74084">
        <ele>2239.8</ele>
        <time>2021-08-12T11:04:40Z</time>
      </trkpt>
      <trkpt lat="45.50141" lon="6.74084">
        <ele>2239.8</ele>
        <time>2021-08-12T11:04:41Z</time>
      </trkpt>
      <trkpt lat="45.50141" lon="6.74083">
        <ele>2239.7</ele>
        <time>2021-08-12T11:04:42Z</time>
      </trkpt>
      <trkpt lat="45.50142" lon="6.74083">
        <ele>2239.7</ele>
        <time>2021-08-12T11:04:43Z</time>
      </trkpt>
      <trkpt lat="45.50142" lon="6.74082">
        <ele>2239.6</ele>
        <time>2021-08-12T11:04:44Z</time>
      </trkpt>
      <trkpt lat="45.50143" lon="6.74081">
        <ele>2239.6</ele>
        <time>2021-08-12T11:04:45Z</time>
      </trkpt>
      <trkpt lat="45.50143" lon="6.74081">
        <ele>2239.5</ele>
        <time>2021-08-12T11:04:46Z</time>
      </trkpt>
      <trkpt lat="45.50143" lon="6.7408">
        <ele>2239.5</ele>
        <time>2021-08-12T11:04:47Z</time>
      </trkpt>
      <trkpt lat="45.50143" lon="6.7408">
        <ele>2239.5</ele>
        <time>2021-08-12T11:04:48Z</time>
      </trkpt>
      <trkpt lat="45.50143" lon="6.74079">
        <ele>2239.4</ele>
        <time>2021-08-12T11:04:49Z</time>
      </trkpt>
      <trkpt lat="45.50143" lon="6.74079">
        <ele>2239.4</ele>
        <time>2021-08-12T11:04:50Z</time>
      </trkpt>
      <trkpt lat="45.50143" lon="6.74078">
        <ele>2239.4</ele>
        <time>2021-08-12T11:04:51Z</time>
      </trkpt>
      <trkpt lat="45.50142" lon="6.74078">
        <ele>2239.4</ele>
        <time>2021-08-12T11:04:52Z</time>
      </trkpt>
      <trkpt lat="45.50142" lon="6.74077">
        <ele>2239.3</ele>
        <time>2021-08-12T11:04:53Z</time>
      </trkpt>
      <trkpt lat="45.50142" lon="6.74076">
        <ele>2239.3</ele>
        <time>2021-08-12T11:04:54Z</time>
      </trkpt>
      <trkpt lat="45.50141" lon="6.74076">
        <ele>2239.2</ele>
        <time>2021-08-12T11:04:55Z</time>
      </trkpt>
      <trkpt lat="45.50141" lon="6.74075">
        <ele>2239.2</ele>
        <time>2021-08-12T11:04:56Z</time>
      </trkpt>
      <trkpt lat="45.5014" lon="6.74074">
        <ele>2239.1</ele>
        <time>2021-08-12T11:04:57Z</time>
      </trkpt>
      <trkpt lat="45.5014" lon="6.74073">
        <ele>2239</ele>
        <time>2021-08-12T11:04:58Z</time>
      </trkpt>
      <trkpt lat="45.5014" lon="6.74072">
        <ele>2239</ele>
        <time>2021-08-12T11:04:59Z</time>
      </trkpt>
      <trkpt lat="45.50139" lon="6.7407">
        <ele>2238.9</ele>
        <time>2021-08-12T11:05:00Z</time>
      </trkpt>
      <trkpt lat="45.50139" lon="6.74069">
        <ele>2238.8</ele>
        <time>2021-08-12T11:05:01Z</time>
      </trkpt>
      <trkpt lat="45.50139" lon="6.74067">
        <ele>2238.8</ele>
        <time>2021-08-12T11:05:02Z</time>
      </trkpt>
      <trkpt lat="45.50138" lon="6.74066">
        <ele>2238.7</ele>
        <time>2021-08-12T11:05:03Z</time>
      </trkpt>
      <trkpt lat="45.50138" lon="6.74064">
        <ele>2238.6</ele>
        <time>2021-08-12T11:05:04Z</time>
      </trkpt>
      <trkpt lat="45.50138" lon="6.74063">
        <ele>2238.5</ele>
        <time>2021-08-12T11:05:05Z</time>
      </trkpt>
      <trkpt lat="45.50137" lon="6.74061">
        <ele>2238.4</ele>
        <time>2021-08-12T11:05:06Z</time>
      </trkpt>
      <trkpt lat="45.50137" lon="6.7406">
        <ele>2238.3</ele>
        <time>2021-08-12T11:05:07Z</time>
      </trkpt>
      <trkpt lat="45.50136" lon="6.74058">
        <ele>2238.3</ele>
        <time>2021-08-12T11:05:08Z</time>
      </trkpt>
      <trkpt lat="45.50136" lon="6.74057">
        <ele>2238.2</ele>
        <time>2021-08-12T11:05:09Z</time>
      </trkpt>
      <trkpt lat="45.50135" lon="6.74056">
        <ele>2238.1</ele>
        <time>2021-08-12T11:05:10Z</time>
      </trkpt>
      <trkpt lat="45.50135" lon="6.74055">
        <ele>2238</ele>
        <time>2021-08-12T11:05:11Z</time>
      </trkpt>
      <trkpt lat="45.50134" lon="6.74054">
        <ele>2238</ele>
        <time>2021-08-12T11:05:12Z</time>
      </trkpt>
      <trkpt lat="45.50134" lon="6.74053">
        <ele>2237.9</ele>
        <time>2021-08-12T11:05:13Z</time>
      </trkpt>
      <trkpt lat="45.50133" lon="6.74052">
        <ele>2237.9</ele>
        <time>2021-08-12T11:05:14Z</time>
      </trkpt>
      <trkpt lat="45.50133" lon="6.74052">
        <ele>2237.8</ele>
        <time>2021-08-12T11:05:15Z</time>
      </trkpt>
      <trkpt lat="45.50132" lon="6.74052">
        <ele>2237.8</ele>
        <time>2021-08-12T11:05:16Z</time>
      </trkpt>
      <trkpt lat="45.50132" lon="6.74052">
        <ele>2237.8</ele>
        <time>2021-08-12T11:05:17Z</time>
      </trkpt>
      <trkpt lat="45.50131" lon="6.74053">
        <ele>2237.7</ele>
        <time>2021-08-12T11:05:18Z</time>
      </trkpt>
      <trkpt lat="45.50131" lon="6.74053">
        <ele>2237.7</ele>
        <time>2021-08-12T11:05:19Z</time>
      </trkpt>
      <trkpt lat="45.5013" lon="6.74054">
        <ele>2237.6</ele>
        <time>2021-08-12T11:05:20Z</time>
      </trkpt>
      <trkpt lat="45.5013" lon="6.74055">
        <ele>2237.5</ele>
        <time>2021-08-12T11:05:21Z</time>
      </trkpt>
      <trkpt lat="45.50129" lon="6.74056">
        <ele>2237.5</ele>
        <time>2021-08-12T11:05:22Z</time>
      </trkpt>
      <trkpt lat="45.50128" lon="6.74057">
        <ele>2237.4</ele>
        <time>2021-08-12T11:05:23Z</time>
      </trkpt>
      <trkpt lat="45.50128" lon="6.74058">
        <ele>2237.3</ele>
        <time>2021-08-12T11:05:24Z</time>
      </trkpt>
      <trkpt lat="45.50127" lon="6.74059">
        <ele>2237.3</ele>
        <time>2021-08-12T11:05:25Z</time>
      </trkpt>
      <trkpt lat="45.50127" lon="6.7406">
        <ele>2237.2</ele>
        <time>2021-08-12T11:05:26Z</time>
      </trkpt>
      <trkpt lat="45.50126" lon="6.74061">
        <ele>2237.2</ele>
        <time>2021-08-12T11:05:27Z</time>
      </trkpt>
      <trkpt lat="45.50126" lon="6.74061">
        <ele>2237.1</ele>
        <time>2021-08-12T11:05:28Z</time>
      </trkpt>
      <trkpt lat="45.50125" lon="6.74062">
        <ele>2237</ele>
        <time>2021-08-12T11:05:29Z</time>
      </trkpt>
      <trkpt lat="45.50124" lon="6.74063">
        <ele>2237</ele>
        <time>2021-08-12T11:05:30Z</time>
      </trkpt>
      <trkpt lat="45.50124" lon="6.74063">
        <ele>2236.9</ele>
        <time>2021-08-12T11:05:31Z</time>
      </trkpt>
      <trkpt lat="45.50123" lon="6.74063">
        <ele>2236.9</ele>
        <time>2021-08-12T11:05:32Z</time>
      </trkpt>
      <trkpt lat="45.50122" lon="6.74064">
        <ele>2236.8</ele>
        <time>2021-08-12T11:05:33Z</time>
      </trkpt>
      <trkpt lat="45.50122" lon="6.74064">
        <ele>2236.8</ele>
        <time>2021-08-12T11:05:34Z</time>
      </trkpt>
      <trkpt lat="45.50121" lon="6.74063">
        <ele>2236.8</ele>
        <time>2021-08-12T11:05:35Z</time>
      </trkpt>
      <trkpt lat="45.50121" lon="6.74063">
        <ele>2236.7</ele>
        <time>2021-08-12T11:05:36Z</time>
      </trkpt>
      <trkpt lat="45.5012" lon="6.74063">
        <ele>2236.7</ele>
        <time>2021-08-12T11:05:37Z</time>
      </trkpt>
      <trkpt lat="45.50119" lon="6.74062">
        <ele>2236.6</ele>
        <time>2021-08-12T11:05:38Z</time>
      </trkpt>
      <trkpt lat="45.50119" lon="6.74061">
        <ele>2236.5</ele>
        <time>2021-08-12T11:05:39Z</time>
      </trkpt>
      <trkpt lat="45.50118" lon="6.74061">
        <ele>2236.5</ele>
        <time>2021-08-12T11:05:40Z</time>
      </trkpt>
      <trkpt lat="45.50118" lon="6.7406">
        <ele>2236.4</ele>
        <time>2021-08-12T11:05:41Z</time>
      </trkpt>
      <trkpt lat="45.50117" lon="6.74059">
        <ele>2236.4</ele>
        <time>2021-08-12T11:05:42Z</time>
      </trkpt>
      <trkpt lat="45.50117" lon="6.74058">
        <ele>2236.3</ele>
        <time>2021-08-12T11:05:43Z</time>
      </trkpt>
      <trkpt lat="45.50117" lon="6.74057">
        <ele>2236.3</ele>
        <time>2021-08-12T11:05:44Z</time>
      </trkpt>
      <trkpt lat="45.50117" lon="6.74056">
        <ele>2236.2</ele>
        <time>2021-08-12T11:05:45Z</time>
      </trkpt>
      <trkpt lat="45.50116" lon="6.74055">
        <ele>2236.2</ele>
        <time>2021-08-12T11:05:46Z</time>
      </trkpt>
      <trkpt lat="45.50116" lon="6.74055">
        <ele>2236.2</ele>
        <time>2021-08-12T11:05:47Z</time>
      </trkpt>
      <trkpt lat="45.50116" lon="6.74054">
        <ele>2236.1</ele>
        <time>2021-08-12T11:05:48Z</time>
      </trkpt>
      <trkpt lat="45.50116" lon="6.74053">
        <ele>2236.1</ele>
        <time>2021-08-12T11:05:49Z</time>
      </trkpt>
      <trkpt lat="45.50116" lon="6.74053">
        <ele>2236.1</ele>
        <time>2021-08-12T11:05:50Z</time>
      </trkpt>
      <trkpt lat="45.50117" lon="6.74052">
        <ele>2236</ele>
        <time>2021-08-12T11:05:51Z</time>
      </trkpt>
      <trkpt lat="45.50117" lon="6.74052">
        <ele>2236</ele>
        <time>2021-08-12T11:05:52Z</time>
      </trkpt>
      <trkpt lat="45.50117" lon="6.74051">
        <ele>2236</ele>
        <time>2021-08-12T11:05:53Z</time>
      </trkpt>
      <trkpt lat="45.50117" lon="6.74051">
        <ele>2235.9</ele>
        <time>2021-08-12T11:05:54Z</time>
      </trkpt>
      <trkpt lat="45.50117" lon="6.7405">
        <ele>2235.9</ele>
        <time>2021-08-12T11:05:55Z</time>
      </trkpt>
      <trkpt lat="45.50118" lon="6.7405">
        <ele>2235.9</ele>
        <time>2021-08-12T11:05:56Z</time>
      </trkpt>
      <trkpt lat="45.50118" lon="6.74049">
        <ele>2235.8</ele>
        <time>2021-08-12T11:05:57Z</time>
      </trkpt>
      <trkpt lat="45.50118" lon="6.74049">
        <ele>2235.8</ele>
        <time>2021-08-12T11:05:58Z</time>
      </trkpt>
      <trkpt lat="45.50118" lon="6.74048">
        <ele>2235.8</ele>
        <time>2021-08-12T11:05:59Z</time>
      </trkpt>
      <trkpt lat="45.50118" lon="6.74048">
        <ele>2235.8</ele>
        <time>2021-08-12T11:06:00Z</time>
      </trkpt>
      <trkpt lat="45.50118" lon="6.74047">
        <ele>2235.7</ele>
        <time>2021-08-12T11:06:01Z</time>
      </trkpt>
      <trkpt lat="45.50119" lon="6.74047">
        <ele>2235.7</ele>
        <time>2021-08-12T11:06:02Z</time>
      </trkpt>
      <trkpt lat="45.50119" lon="6.74046">
        <ele>2235.7</ele>
        <time>2021-08-12T11:06:03Z</time>
      </trkpt>
      <trkpt lat="45.50119" lon="6.74046">
        <ele>2235.5</ele>
        <time>2021-08-12T11:06:04Z</time>
      </trkpt>
      <trkpt lat="45.50119" lon="6.74045">
        <ele>2235.4</ele>
        <time>2021-08-12T11:06:05Z</time>
      </trkpt>
      <trkpt lat="45.50119" lon="6.74044">
        <ele>2235.3</ele>
        <time>2021-08-12T11:06:06Z</time>
      </trkpt>
      <trkpt lat="45.50118" lon="6.74044">
        <ele>2235.2</ele>
        <time>2021-08-12T11:06:07Z</time>
      </trkpt>
      <trkpt lat="45.50118" lon="6.74043">
        <ele>2235.1</ele>
        <time>2021-08-12T11:06:08Z</time>
      </trkpt>
      <trkpt lat="45.50118" lon="6.74043">
        <ele>2235.1</ele>
        <time>2021-08-12T11:06:09Z</time>
      </trkpt>
      <trkpt lat="45.50118" lon="6.74042">
        <ele>2235</ele>
        <time>2021-08-12T11:06:10Z</time>
      </trkpt>
      <trkpt lat="45.50118" lon="6.74042">
        <ele>2234.9</ele>
        <time>2021-08-12T11:06:11Z</time>
      </trkpt>
      <trkpt lat="45.50118" lon="6.74041">
        <ele>2234.9</ele>
        <time>2021-08-12T11:06:12Z</time>
      </trkpt>
      <trkpt lat="45.50118" lon="6.74041">
        <ele>2234.8</ele>
        <time>2021-08-12T11:06:13Z</time>
      </trkpt>
      <trkpt lat="45.50118" lon="6.74041">
        <ele>2234.8</ele>
        <time>2021-08-12T11:06:14Z</time>
      </trkpt>
      <trkpt lat="45.50118" lon="6.74041">
        <ele>2234.8</ele>
        <time>2021-08-12T11:06:15Z</time>
      </trkpt>
      <trkpt lat="45.50118" lon="6.74041">
        <ele>2234.8</ele>
        <time>2021-08-12T11:06:16Z</time>
      </trkpt>
      <trkpt lat="45.50118" lon="6.74041">
        <ele>2234.7</ele>
        <time>2021-08-12T11:06:17Z</time>
      </trkpt>
      <trkpt lat="45.50118" lon="6.74041">
        <ele>2234.7</ele>
        <time>2021-08-12T11:06:18Z</time>
      </trkpt>
      <trkpt lat="45.50118" lon="6.7404">
        <ele>2234.6</ele>
        <time>2021-08-12T11:06:19Z</time>
      </trkpt>
      <trkpt lat="45.50118" lon="6.74039">
        <ele>2234.5</ele>
        <time>2021-08-12T11:06:20Z</time>
      </trkpt>
      <trkpt lat="45.50118" lon="6.74039">
        <ele>2234.4</ele>
        <time>2021-08-12T11:06:21Z</time>
      </trkpt>
      <trkpt lat="45.50118" lon="6.74038">
        <ele>2234.4</ele>
        <time>2021-08-12T11:06:22Z</time>
      </trkpt>
      <trkpt lat="45.50118" lon="6.74038">
        <ele>2234.4</ele>
        <time>2021-08-12T11:06:23Z</time>
      </trkpt>
      <trkpt lat="45.50118" lon="6.74038">
        <ele>2234.4</ele>
        <time>2021-08-12T11:06:24Z</time>
      </trkpt>
      <trkpt lat="45.50118" lon="6.74038">
        <ele>2234.3</ele>
        <time>2021-08-12T11:06:25Z</time>
      </trkpt>
      <trkpt lat="45.50118" lon="6.74038">
        <ele>2234.3</ele>
        <time>2021-08-12T11:06:26Z</time>
      </trkpt>
      <trkpt lat="45.50118" lon="6.74038">
        <ele>2234.3</ele>
        <time>2021-08-12T11:06:27Z</time>
      </trkpt>
      <trkpt lat="45.50118" lon="6.74038">
        <ele>2234.3</ele>
        <time>2021-08-12T11:06:28Z</time>
      </trkpt>
      <trkpt lat="45.50118" lon="6.74038">
        <ele>2234.3</ele>
        <time>2021-08-12T11:06:29Z</time>
      </trkpt>
      <trkpt lat="45.50118" lon="6.74038">
        <ele>2234.3</ele>
        <time>2021-08-12T11:06:30Z</time>
      </trkpt>
      <trkpt lat="45.50118" lon="6.74038">
        <ele>2234.3</ele>
        <time>2021-08-12T11:06:31Z</time>
      </trkpt>
      <trkpt lat="45.50118" lon="6.74038">
        <ele>2234.3</ele>
        <time>2021-08-12T11:06:32Z</time>
      </trkpt>
      <trkpt lat="45.50118" lon="6.74038">
        <ele>2234.3</ele>
        <time>2021-08-12T11:06:33Z</time>
      </trkpt>
      <trkpt lat="45.50118" lon="6.74038">
        <ele>2234.3</ele>
        <time>2021-08-12T11:06:34Z</time>
      </trkpt>
      <trkpt lat="45.50118" lon="6.74038">
        <ele>2234.3</ele>
        <time>2021-08-12T11:06:35Z</time>
      </trkpt>
      <trkpt lat="45.50118" lon="6.74038">
        <ele>2234.3</ele>
        <time>2021-08-12T11:06:36Z</time>
      </trkpt>
      <trkpt lat="45.50118" lon="6.74038">
        <ele>2234.3</ele>
        <time>2021-08-12T11:06:37Z</time>
      </trkpt>
      <trkpt lat="45.50118" lon="6.74038">
        <ele>2234.3</ele>
        <time>2021-08-12T11:06:38Z</time>
      </trkpt>
      <trkpt lat="45.50118" lon="6.74038">
        <ele>2234.2</ele>
        <time>2021-08-12T11:06:39Z</time>
      </trkpt>
      <trkpt lat="45.50118" lon="6.74038">
        <ele>2234.2</ele>
        <time>2021-08-12T11:06:40Z</time>
      </trkpt>
      <trkpt lat="45.50118" lon="6.74038">
        <ele>2234.2</ele>
        <time>2021-08-12T11:06:41Z</time>
      </trkpt>
      <trkpt lat="45.50118" lon="6.74038">
        <ele>2234.1</ele>
        <time>2021-08-12T11:06:42Z</time>
      </trkpt>
      <trkpt lat="45.50117" lon="6.74037">
        <ele>2234</ele>
        <time>2021-08-12T11:06:43Z</time>
      </trkpt>
      <trkpt lat="45.50117" lon="6.74037">
        <ele>2234</ele>
        <time>2021-08-12T11:06:44Z</time>
      </trkpt>
      <trkpt lat="45.50116" lon="6.74037">
        <ele>2233.9</ele>
        <time>2021-08-12T11:06:45Z</time>
      </trkpt>
      <trkpt lat="45.50116" lon="6.74037">
        <ele>2233.7</ele>
        <time>2021-08-12T11:06:46Z</time>
      </trkpt>
      <trkpt lat="45.50115" lon="6.74037">
        <ele>2233.6</ele>
        <time>2021-08-12T11:06:47Z</time>
      </trkpt>
      <trkpt lat="45.50115" lon="6.74036">
        <ele>2233.5</ele>
        <time>2021-08-12T11:06:48Z</time>
      </trkpt>
      <trkpt lat="45.50114" lon="6.74036">
        <ele>2233.5</ele>
        <time>2021-08-12T11:06:49Z</time>
      </trkpt>
      <trkpt lat="45.50114" lon="6.74036">
        <ele>2233.5</ele>
        <time>2021-08-12T11:06:50Z</time>
      </trkpt>
      <trkpt lat="45.50114" lon="6.74036">
        <ele>2233.5</ele>
        <time>2021-08-12T11:06:51Z</time>
      </trkpt>
      <trkpt lat="45.50114" lon="6.74036">
        <ele>2233.5</ele>
        <time>2021-08-12T11:06:52Z</time>
      </trkpt>
      <trkpt lat="45.50114" lon="6.74036">
        <ele>2233.4</ele>
        <time>2021-08-12T11:06:53Z</time>
      </trkpt>
      <trkpt lat="45.50114" lon="6.74036">
        <ele>2233.4</ele>
        <time>2021-08-12T11:06:54Z</time>
      </trkpt>
      <trkpt lat="45.50114" lon="6.74035">
        <ele>2233.4</ele>
        <time>2021-08-12T11:06:55Z</time>
      </trkpt>
      <trkpt lat="45.50114" lon="6.74035">
        <ele>2233.3</ele>
        <time>2021-08-12T11:06:56Z</time>
      </trkpt>
      <trkpt lat="45.50113" lon="6.74035">
        <ele>2233.3</ele>
        <time>2021-08-12T11:06:57Z</time>
      </trkpt>
      <trkpt lat="45.50113" lon="6.74034">
        <ele>2233.2</ele>
        <time>2021-08-12T11:06:58Z</time>
      </trkpt>
      <trkpt lat="45.50113" lon="6.74034">
        <ele>2233.1</ele>
        <time>2021-08-12T11:06:59Z</time>
      </trkpt>
      <trkpt lat="45.50113" lon="6.74034">
        <ele>2233.1</ele>
        <time>2021-08-12T11:07:00Z</time>
      </trkpt>
      <trkpt lat="45.50113" lon="6.74033">
        <ele>2233</ele>
        <time>2021-08-12T11:07:01Z</time>
      </trkpt>
      <trkpt lat="45.50112" lon="6.74033">
        <ele>2233</ele>
        <time>2021-08-12T11:07:02Z</time>
      </trkpt>
      <trkpt lat="45.50112" lon="6.74032">
        <ele>2232.9</ele>
        <time>2021-08-12T11:07:03Z</time>
      </trkpt>
      <trkpt lat="45.50112" lon="6.74032">
        <ele>2232.9</ele>
        <time>2021-08-12T11:07:04Z</time>
      </trkpt>
      <trkpt lat="45.50112" lon="6.74032">
        <ele>2232.8</ele>
        <time>2021-08-12T11:07:05Z</time>
      </trkpt>
      <trkpt lat="45.50112" lon="6.74031">
        <ele>2232.8</ele>
        <time>2021-08-12T11:07:06Z</time>
      </trkpt>
      <trkpt lat="45.50113" lon="6.74031">
        <ele>2232.8</ele>
        <time>2021-08-12T11:07:07Z</time>
      </trkpt>
      <trkpt lat="45.50113" lon="6.74031">
        <ele>2232.7</ele>
        <time>2021-08-12T11:07:08Z</time>
      </trkpt>
      <trkpt lat="45.50113" lon="6.74031">
        <ele>2232.7</ele>
        <time>2021-08-12T11:07:09Z</time>
      </trkpt>
      <trkpt lat="45.50113" lon="6.7403">
        <ele>2232.7</ele>
        <time>2021-08-12T11:07:10Z</time>
      </trkpt>
      <trkpt lat="45.50113" lon="6.7403">
        <ele>2232.6</ele>
        <time>2021-08-12T11:07:11Z</time>
      </trkpt>
      <trkpt lat="45.50113" lon="6.7403">
        <ele>2232.6</ele>
        <time>2021-08-12T11:07:12Z</time>
      </trkpt>
      <trkpt lat="45.50114" lon="6.7403">
        <ele>2232.6</ele>
        <time>2021-08-12T11:07:13Z</time>
      </trkpt>
      <trkpt lat="45.50114" lon="6.7403">
        <ele>2232.6</ele>
        <time>2021-08-12T11:07:14Z</time>
      </trkpt>
      <trkpt lat="45.50114" lon="6.7403">
        <ele>2232.6</ele>
        <time>2021-08-12T11:07:15Z</time>
      </trkpt>
      <trkpt lat="45.50114" lon="6.74029">
        <ele>2232.6</ele>
        <time>2021-08-12T11:07:16Z</time>
      </trkpt>
      <trkpt lat="45.50114" lon="6.74029">
        <ele>2232.5</ele>
        <time>2021-08-12T11:07:17Z</time>
      </trkpt>
      <trkpt lat="45.50114" lon="6.74029">
        <ele>2232.5</ele>
        <time>2021-08-12T11:07:18Z</time>
      </trkpt>
      <trkpt lat="45.50114" lon="6.74029">
        <ele>2232.5</ele>
        <time>2021-08-12T11:07:19Z</time>
      </trkpt>
      <trkpt lat="45.50114" lon="6.74029">
        <ele>2232.5</ele>
        <time>2021-08-12T11:07:20Z</time>
      </trkpt>
      <trkpt lat="45.50114" lon="6.74029">
        <ele>2232.5</ele>
        <time>2021-08-12T11:07:21Z</time>
      </trkpt>
      <trkpt lat="45.50114" lon="6.74029">
        <ele>2232.5</ele>
        <time>2021-08-12T11:07:22Z</time>
      </trkpt>
      <trkpt lat="45.50114" lon="6.74029">
        <ele>2232.5</ele>
        <time>2021-08-12T11:07:23Z</time>
      </trkpt>
      <trkpt lat="45.50114" lon="6.74029">
        <ele>2232.5</ele>
        <time>2021-08-12T11:07:24Z</time>
      </trkpt>
      <trkpt lat="45.50114" lon="6.74029">
        <ele>2232.5</ele>
        <time>2021-08-12T11:07:25Z</time>
      </trkpt>
      <trkpt lat="45.50114" lon="6.74029">
        <ele>2232.5</ele>
        <time>2021-08-12T11:07:26Z</time>
      </trkpt>
      <trkpt lat="45.50114" lon="6.74029">
        <ele>2232.5</ele>
        <time>2021-08-12T11:07:27Z</time>
      </trkpt>
      <trkpt lat="45.50114" lon="6.74029">
        <ele>2232.5</ele>
        <time>2021-08-12T11:07:28Z</time>
      </trkpt>
      <trkpt lat="45.50114" lon="6.74029">
        <ele>2232.5</ele>
        <time>2021-08-12T11:07:29Z</time>
      </trkpt>
      <trkpt lat="45.50114" lon="6.74029">
        <ele>2232.5</ele>
        <time>2021-08-12T11:07:30Z</time>
      </trkpt>
      <trkpt lat="45.50114" lon="6.74029">
        <ele>2232.5</ele>
        <time>2021-08-12T11:07:31Z</time>
      </trkpt>
      <trkpt lat="45.50114" lon="6.74029">
        <ele>2232.5</ele>
        <time>2021-08-12T11:07:32Z</time>
      </trkpt>
      <trkpt lat="45.50114" lon="6.74029">
        <ele>2232.5</ele>
        <time>2021-08-12T11:07:33Z</time>
      </trkpt>
      <trkpt lat="45.50114" lon="6.74029">
        <ele>2232.5</ele>
        <time>2021-08-12T11:07:34Z</time>
      </trkpt>
      <trkpt lat="45.50114" lon="6.74029">
        <ele>2232.5</ele>
        <time>2021-08-12T11:07:35Z</time>
      </trkpt>
      <trkpt lat="45.50114" lon="6.74029">
        <ele>2232.5</ele>
        <time>2021-08-12T11:07:36Z</time>
      </trkpt>
      <trkpt lat="45.50114" lon="6.74029">
        <ele>2232.5</ele>
        <time>2021-08-12T11:07:37Z</time>
      </trkpt>
      <trkpt lat="45.50114" lon="6.74029">
        <ele>2232.5</ele>
        <time>2021-08-12T11:07:38Z</time>
      </trkpt>
      <trkpt lat="45.50114" lon="6.74029">
        <ele>2232.5</ele>
        <time>2021-08-12T11:07:39Z</time>
      </trkpt>
      <trkpt lat="45.50114" lon="6.74029">
        <ele>2232.5</ele>
        <time>2021-08-12T11:07:40Z</time>
      </trkpt>
      <trkpt lat="45.50114" lon="6.74029">
        <ele>2232.5</ele>
        <time>2021-08-12T11:07:41Z</time>
      </trkpt>
      <trkpt lat="45.50114" lon="6.7403">
        <ele>2232.5</ele>
        <time>2021-08-12T11:07:42Z</time>
      </trkpt>
      <trkpt lat="45.50114" lon="6.7403">
        <ele>2232.5</ele>
        <time>2021-08-12T11:07:43Z</time>
      </trkpt>
      <trkpt lat="45.50114" lon="6.7403">
        <ele>2232.5</ele>
        <time>2021-08-12T11:07:44Z</time>
      </trkpt>
      <trkpt lat="45.50114" lon="6.7403">
        <ele>2232.5</ele>
        <time>2021-08-12T11:07:45Z</time>
      </trkpt>
      <trkpt lat="45.50113" lon="6.7403">
        <ele>2232.5</ele>
        <time>2021-08-12T11:07:46Z</time>
      </trkpt>
      <trkpt lat="45.50113" lon="6.7403">
        <ele>2232.4</ele>
        <time>2021-08-12T11:07:47Z</time>
      </trkpt>
      <trkpt lat="45.50114" lon="6.74029">
        <ele>2232.4</ele>
        <time>2021-08-12T11:07:48Z</time>
      </trkpt>
      <trkpt lat="45.50114" lon="6.74029">
        <ele>2232.4</ele>
        <time>2021-08-12T11:07:49Z</time>
      </trkpt>
      <trkpt lat="45.50114" lon="6.74029">
        <ele>2232.4</ele>
        <time>2021-08-12T11:07:50Z</time>
      </trkpt>
      <trkpt lat="45.50114" lon="6.74029">
        <ele>2232.3</ele>
        <time>2021-08-12T11:07:51Z</time>
      </trkpt>
      <trkpt lat="45.50114" lon="6.74028">
        <ele>2232.3</ele>
        <time>2021-08-12T11:07:52Z</time>
      </trkpt>
      <trkpt lat="45.50114" lon="6.74028">
        <ele>2232.2</ele>
        <time>2021-08-12T11:07:53Z</time>
      </trkpt>
      <trkpt lat="45.50115" lon="6.74027">
        <ele>2232.2</ele>
        <time>2021-08-12T11:07:54Z</time>
      </trkpt>
      <trkpt lat="45.50115" lon="6.74027">
        <ele>2232.1</ele>
        <time>2021-08-12T11:07:55Z</time>
      </trkpt>
      <trkpt lat="45.50115" lon="6.74026">
        <ele>2232</ele>
        <time>2021-08-12T11:07:56Z</time>
      </trkpt>
      <trkpt lat="45.50116" lon="6.74025">
        <ele>2231.9</ele>
        <time>2021-08-12T11:07:57Z</time>
      </trkpt>
      <trkpt lat="45.50116" lon="6.74024">
        <ele>2231.9</ele>
        <time>2021-08-12T11:07:58Z</time>
      </trkpt>
      <trkpt lat="45.50117" lon="6.74023">
        <ele>2231.8</ele>
        <time>2021-08-12T11:07:59Z</time>
      </trkpt>
      <trkpt lat="45.50117" lon="6.74023">
        <ele>2231.7</ele>
        <time>2021-08-12T11:08:00Z</time>
      </trkpt>
      <trkpt lat="45.50118" lon="6.74022">
        <ele>2231.6</ele>
        <time>2021-08-12T11:08:01Z</time>
      </trkpt>
      <trkpt lat="45.50118" lon="6.74021">
        <ele>2231.5</ele>
        <time>2021-08-12T11:08:02Z</time>
      </trkpt>
      <trkpt lat="45.50119" lon="6.7402">
        <ele>2231.4</ele>
        <time>2021-08-12T11:08:03Z</time>
      </trkpt>
      <trkpt lat="45.5012" lon="6.74019">
        <ele>2231.3</ele>
        <time>2021-08-12T11:08:04Z</time>
      </trkpt>
      <trkpt lat="45.5012" lon="6.74018">
        <ele>2231.2</ele>
        <time>2021-08-12T11:08:05Z</time>
      </trkpt>
      <trkpt lat="45.50121" lon="6.74017">
        <ele>2231.1</ele>
        <time>2021-08-12T11:08:06Z</time>
      </trkpt>
      <trkpt lat="45.50121" lon="6.74016">
        <ele>2231.1</ele>
        <time>2021-08-12T11:08:07Z</time>
      </trkpt>
      <trkpt lat="45.50122" lon="6.74015">
        <ele>2231</ele>
        <time>2021-08-12T11:08:08Z</time>
      </trkpt>
      <trkpt lat="45.50122" lon="6.74015">
        <ele>2230.9</ele>
        <time>2021-08-12T11:08:09Z</time>
      </trkpt>
      <trkpt lat="45.50122" lon="6.74014">
        <ele>2230.8</ele>
        <time>2021-08-12T11:08:10Z</time>
      </trkpt>
      <trkpt lat="45.50123" lon="6.74013">
        <ele>2230.8</ele>
        <time>2021-08-12T11:08:11Z</time>
      </trkpt>
      <trkpt lat="45.50123" lon="6.74013">
        <ele>2230.7</ele>
        <time>2021-08-12T11:08:12Z</time>
      </trkpt>
      <trkpt lat="45.50123" lon="6.74012">
        <ele>2230.7</ele>
        <time>2021-08-12T11:08:13Z</time>
      </trkpt>
      <trkpt lat="45.50124" lon="6.74012">
        <ele>2230.6</ele>
        <time>2021-08-12T11:08:14Z</time>
      </trkpt>
      <trkpt lat="45.50124" lon="6.74011">
        <ele>2230.6</ele>
        <time>2021-08-12T11:08:15Z</time>
      </trkpt>
      <trkpt lat="45.50124" lon="6.74011">
        <ele>2230.5</ele>
        <time>2021-08-12T11:08:16Z</time>
      </trkpt>
      <trkpt lat="45.50124" lon="6.7401">
        <ele>2230.5</ele>
        <time>2021-08-12T11:08:17Z</time>
      </trkpt>
      <trkpt lat="45.50125" lon="6.7401">
        <ele>2230.4</ele>
        <time>2021-08-12T11:08:18Z</time>
      </trkpt>
      <trkpt lat="45.50125" lon="6.7401">
        <ele>2230.4</ele>
        <time>2021-08-12T11:08:19Z</time>
      </trkpt>
      <trkpt lat="45.50126" lon="6.74009">
        <ele>2230.3</ele>
        <time>2021-08-12T11:08:20Z</time>
      </trkpt>
      <trkpt lat="45.50126" lon="6.74009">
        <ele>2230.3</ele>
        <time>2021-08-12T11:08:21Z</time>
      </trkpt>
      <trkpt lat="45.50126" lon="6.74008">
        <ele>2230.2</ele>
        <time>2021-08-12T11:08:22Z</time>
      </trkpt>
      <trkpt lat="45.50127" lon="6.74008">
        <ele>2230.1</ele>
        <time>2021-08-12T11:08:23Z</time>
      </trkpt>
      <trkpt lat="45.50128" lon="6.74007">
        <ele>2230.1</ele>
        <time>2021-08-12T11:08:24Z</time>
      </trkpt>
      <trkpt lat="45.50128" lon="6.74007">
        <ele>2230</ele>
        <time>2021-08-12T11:08:25Z</time>
      </trkpt>
      <trkpt lat="45.50129" lon="6.74006">
        <ele>2229.9</ele>
        <time>2021-08-12T11:08:26Z</time>
      </trkpt>
      <trkpt lat="45.50129" lon="6.74006">
        <ele>2229.8</ele>
        <time>2021-08-12T11:08:27Z</time>
      </trkpt>
      <trkpt lat="45.5013" lon="6.74005">
        <ele>2229.7</ele>
        <time>2021-08-12T11:08:28Z</time>
      </trkpt>
      <trkpt lat="45.5013" lon="6.74005">
        <ele>2229.6</ele>
        <time>2021-08-12T11:08:29Z</time>
      </trkpt>
      <trkpt lat="45.50131" lon="6.74004">
        <ele>2229.6</ele>
        <time>2021-08-12T11:08:30Z</time>
      </trkpt>
      <trkpt lat="45.50131" lon="6.74003">
        <ele>2229.5</ele>
        <time>2021-08-12T11:08:31Z</time>
      </trkpt>
      <trkpt lat="45.50132" lon="6.74003">
        <ele>2229.4</ele>
        <time>2021-08-12T11:08:32Z</time>
      </trkpt>
      <trkpt lat="45.50132" lon="6.74002">
        <ele>2229.3</ele>
        <time>2021-08-12T11:08:33Z</time>
      </trkpt>
      <trkpt lat="45.50133" lon="6.74002">
        <ele>2229.2</ele>
        <time>2021-08-12T11:08:34Z</time>
      </trkpt>
      <trkpt lat="45.50133" lon="6.74001">
        <ele>2229.2</ele>
        <time>2021-08-12T11:08:35Z</time>
      </trkpt>
      <trkpt lat="45.50133" lon="6.74">
        <ele>2229.1</ele>
        <time>2021-08-12T11:08:36Z</time>
      </trkpt>
      <trkpt lat="45.50133" lon="6.74">
        <ele>2229</ele>
        <time>2021-08-12T11:08:37Z</time>
      </trkpt>
      <trkpt lat="45.50134" lon="6.73999">
        <ele>2229</ele>
        <time>2021-08-12T11:08:38Z</time>
      </trkpt>
      <trkpt lat="45.50134" lon="6.73999">
        <ele>2228.9</ele>
        <time>2021-08-12T11:08:39Z</time>
      </trkpt>
      <trkpt lat="45.50134" lon="6.73998">
        <ele>2228.8</ele>
        <time>2021-08-12T11:08:40Z</time>
      </trkpt>
      <trkpt lat="45.50135" lon="6.73998">
        <ele>2228.7</ele>
        <time>2021-08-12T11:08:41Z</time>
      </trkpt>
      <trkpt lat="45.50135" lon="6.73997">
        <ele>2228.6</ele>
        <time>2021-08-12T11:08:42Z</time>
      </trkpt>
      <trkpt lat="45.50135" lon="6.73996">
        <ele>2228.6</ele>
        <time>2021-08-12T11:08:43Z</time>
      </trkpt>
      <trkpt lat="45.50136" lon="6.73996">
        <ele>2228.5</ele>
        <time>2021-08-12T11:08:44Z</time>
      </trkpt>
      <trkpt lat="45.50136" lon="6.73995">
        <ele>2228.4</ele>
        <time>2021-08-12T11:08:45Z</time>
      </trkpt>
      <trkpt lat="45.50136" lon="6.73995">
        <ele>2228.3</ele>
        <time>2021-08-12T11:08:46Z</time>
      </trkpt>
      <trkpt lat="45.50137" lon="6.73994">
        <ele>2228.2</ele>
        <time>2021-08-12T11:08:47Z</time>
      </trkpt>
      <trkpt lat="45.50137" lon="6.73994">
        <ele>2228.1</ele>
        <time>2021-08-12T11:08:48Z</time>
      </trkpt>
      <trkpt lat="45.50137" lon="6.73993">
        <ele>2228.1</ele>
        <time>2021-08-12T11:08:49Z</time>
      </trkpt>
      <trkpt lat="45.50138" lon="6.73993">
        <ele>2228</ele>
        <time>2021-08-12T11:08:50Z</time>
      </trkpt>
      <trkpt lat="45.50138" lon="6.73992">
        <ele>2227.9</ele>
        <time>2021-08-12T11:08:51Z</time>
      </trkpt>
      <trkpt lat="45.50138" lon="6.73992">
        <ele>2227.8</ele>
        <time>2021-08-12T11:08:52Z</time>
      </trkpt>
      <trkpt lat="45.50138" lon="6.73991">
        <ele>2227.7</ele>
        <time>2021-08-12T11:08:53Z</time>
      </trkpt>
      <trkpt lat="45.50139" lon="6.7399">
        <ele>2227.6</ele>
        <time>2021-08-12T11:08:54Z</time>
      </trkpt>
      <trkpt lat="45.50139" lon="6.7399">
        <ele>2227.6</ele>
        <time>2021-08-12T11:08:55Z</time>
      </trkpt>
      <trkpt lat="45.50139" lon="6.73989">
        <ele>2227.5</ele>
        <time>2021-08-12T11:08:56Z</time>
      </trkpt>
      <trkpt lat="45.5014" lon="6.73989">
        <ele>2227.4</ele>
        <time>2021-08-12T11:08:57Z</time>
      </trkpt>
      <trkpt lat="45.5014" lon="6.73988">
        <ele>2227.3</ele>
        <time>2021-08-12T11:08:58Z</time>
      </trkpt>
      <trkpt lat="45.5014" lon="6.73988">
        <ele>2227.2</ele>
        <time>2021-08-12T11:08:59Z</time>
      </trkpt>
      <trkpt lat="45.5014" lon="6.73987">
        <ele>2227.2</ele>
        <time>2021-08-12T11:09:00Z</time>
      </trkpt>
      <trkpt lat="45.5014" lon="6.73987">
        <ele>2227.1</ele>
        <time>2021-08-12T11:09:01Z</time>
      </trkpt>
      <trkpt lat="45.50141" lon="6.73987">
        <ele>2227</ele>
        <time>2021-08-12T11:09:02Z</time>
      </trkpt>
      <trkpt lat="45.50141" lon="6.73986">
        <ele>2226.9</ele>
        <time>2021-08-12T11:09:03Z</time>
      </trkpt>
      <trkpt lat="45.50141" lon="6.73986">
        <ele>2226.9</ele>
        <time>2021-08-12T11:09:04Z</time>
      </trkpt>
      <trkpt lat="45.50141" lon="6.73985">
        <ele>2226.8</ele>
        <time>2021-08-12T11:09:05Z</time>
      </trkpt>
      <trkpt lat="45.50142" lon="6.73985">
        <ele>2226.7</ele>
        <time>2021-08-12T11:09:06Z</time>
      </trkpt>
      <trkpt lat="45.50142" lon="6.73984">
        <ele>2226.6</ele>
        <time>2021-08-12T11:09:07Z</time>
      </trkpt>
      <trkpt lat="45.50142" lon="6.73984">
        <ele>2226.5</ele>
        <time>2021-08-12T11:09:08Z</time>
      </trkpt>
      <trkpt lat="45.50143" lon="6.73983">
        <ele>2226.4</ele>
        <time>2021-08-12T11:09:09Z</time>
      </trkpt>
      <trkpt lat="45.50143" lon="6.73983">
        <ele>2226.3</ele>
        <time>2021-08-12T11:09:10Z</time>
      </trkpt>
      <trkpt lat="45.50144" lon="6.73983">
        <ele>2226.2</ele>
        <time>2021-08-12T11:09:11Z</time>
      </trkpt>
      <trkpt lat="45.50144" lon="6.73982">
        <ele>2226.1</ele>
        <time>2021-08-12T11:09:12Z</time>
      </trkpt>
      <trkpt lat="45.50145" lon="6.73982">
        <ele>2225.9</ele>
        <time>2021-08-12T11:09:13Z</time>
      </trkpt>
      <trkpt lat="45.50145" lon="6.73981">
        <ele>2225.8</ele>
        <time>2021-08-12T11:09:14Z</time>
      </trkpt>
      <trkpt lat="45.50146" lon="6.73981">
        <ele>2225.6</ele>
        <time>2021-08-12T11:09:15Z</time>
      </trkpt>
      <trkpt lat="45.50147" lon="6.73981">
        <ele>2225.5</ele>
        <time>2021-08-12T11:09:16Z</time>
      </trkpt>
      <trkpt lat="45.50147" lon="6.7398">
        <ele>2225.3</ele>
        <time>2021-08-12T11:09:17Z</time>
      </trkpt>
      <trkpt lat="45.50148" lon="6.7398">
        <ele>2225.1</ele>
        <time>2021-08-12T11:09:18Z</time>
      </trkpt>
      <trkpt lat="45.50149" lon="6.73979">
        <ele>2225</ele>
        <time>2021-08-12T11:09:19Z</time>
      </trkpt>
      <trkpt lat="45.5015" lon="6.73979">
        <ele>2224.8</ele>
        <time>2021-08-12T11:09:20Z</time>
      </trkpt>
      <trkpt lat="45.5015" lon="6.73978">
        <ele>2224.6</ele>
        <time>2021-08-12T11:09:21Z</time>
      </trkpt>
      <trkpt lat="45.50151" lon="6.73978">
        <ele>2224.5</ele>
        <time>2021-08-12T11:09:22Z</time>
      </trkpt>
      <trkpt lat="45.50152" lon="6.73977">
        <ele>2224.3</ele>
        <time>2021-08-12T11:09:23Z</time>
      </trkpt>
      <trkpt lat="45.50152" lon="6.73977">
        <ele>2224.1</ele>
        <time>2021-08-12T11:09:24Z</time>
      </trkpt>
      <trkpt lat="45.50153" lon="6.73976">
        <ele>2223.9</ele>
        <time>2021-08-12T11:09:25Z</time>
      </trkpt>
      <trkpt lat="45.50154" lon="6.73976">
        <ele>2223.7</ele>
        <time>2021-08-12T11:09:26Z</time>
      </trkpt>
      <trkpt lat="45.50155" lon="6.73975">
        <ele>2223.6</ele>
        <time>2021-08-12T11:09:27Z</time>
      </trkpt>
      <trkpt lat="45.50155" lon="6.73974">
        <ele>2223.4</ele>
        <time>2021-08-12T11:09:28Z</time>
      </trkpt>
      <trkpt lat="45.50156" lon="6.73974">
        <ele>2223.2</ele>
        <time>2021-08-12T11:09:29Z</time>
      </trkpt>
      <trkpt lat="45.50157" lon="6.73973">
        <ele>2223</ele>
        <time>2021-08-12T11:09:30Z</time>
      </trkpt>
      <trkpt lat="45.50157" lon="6.73973">
        <ele>2222.9</ele>
        <time>2021-08-12T11:09:31Z</time>
      </trkpt>
      <trkpt lat="45.50158" lon="6.73972">
        <ele>2222.7</ele>
        <time>2021-08-12T11:09:32Z</time>
      </trkpt>
      <trkpt lat="45.50159" lon="6.73972">
        <ele>2222.5</ele>
        <time>2021-08-12T11:09:33Z</time>
      </trkpt>
      <trkpt lat="45.5016" lon="6.73971">
        <ele>2222.3</ele>
        <time>2021-08-12T11:09:34Z</time>
      </trkpt>
      <trkpt lat="45.5016" lon="6.73971">
        <ele>2222.1</ele>
        <time>2021-08-12T11:09:35Z</time>
      </trkpt>
      <trkpt lat="45.50161" lon="6.7397">
        <ele>2221.9</ele>
        <time>2021-08-12T11:09:36Z</time>
      </trkpt>
      <trkpt lat="45.50162" lon="6.7397">
        <ele>2221.7</ele>
        <time>2021-08-12T11:09:37Z</time>
      </trkpt>
      <trkpt lat="45.50163" lon="6.73969">
        <ele>2221.6</ele>
        <time>2021-08-12T11:09:38Z</time>
      </trkpt>
      <trkpt lat="45.50164" lon="6.73969">
        <ele>2221.4</ele>
        <time>2021-08-12T11:09:39Z</time>
      </trkpt>
      <trkpt lat="45.50164" lon="6.73969">
        <ele>2221.2</ele>
        <time>2021-08-12T11:09:40Z</time>
      </trkpt>
      <trkpt lat="45.50165" lon="6.73968">
        <ele>2221</ele>
        <time>2021-08-12T11:09:41Z</time>
      </trkpt>
      <trkpt lat="45.50166" lon="6.73968">
        <ele>2220.9</ele>
        <time>2021-08-12T11:09:42Z</time>
      </trkpt>
      <trkpt lat="45.50167" lon="6.73968">
        <ele>2220.7</ele>
        <time>2021-08-12T11:09:43Z</time>
      </trkpt>
      <trkpt lat="45.50168" lon="6.73967">
        <ele>2220.5</ele>
        <time>2021-08-12T11:09:44Z</time>
      </trkpt>
      <trkpt lat="45.50169" lon="6.73967">
        <ele>2220.3</ele>
        <time>2021-08-12T11:09:45Z</time>
      </trkpt>
      <trkpt lat="45.5017" lon="6.73967">
        <ele>2220.2</ele>
        <time>2021-08-12T11:09:46Z</time>
      </trkpt>
      <trkpt lat="45.50171" lon="6.73966">
        <ele>2220</ele>
        <time>2021-08-12T11:09:47Z</time>
      </trkpt>
      <trkpt lat="45.50172" lon="6.73966">
        <ele>2219.8</ele>
        <time>2021-08-12T11:09:48Z</time>
      </trkpt>
      <trkpt lat="45.50173" lon="6.73965">
        <ele>2219.6</ele>
        <time>2021-08-12T11:09:49Z</time>
      </trkpt>
      <trkpt lat="45.50173" lon="6.73965">
        <ele>2219.5</ele>
        <time>2021-08-12T11:09:50Z</time>
      </trkpt>
      <trkpt lat="45.50174" lon="6.73964">
        <ele>2219.3</ele>
        <time>2021-08-12T11:09:51Z</time>
      </trkpt>
      <trkpt lat="45.50175" lon="6.73964">
        <ele>2219.1</ele>
        <time>2021-08-12T11:09:52Z</time>
      </trkpt>
      <trkpt lat="45.50176" lon="6.73963">
        <ele>2218.9</ele>
        <time>2021-08-12T11:09:53Z</time>
      </trkpt>
      <trkpt lat="45.50177" lon="6.73963">
        <ele>2218.8</ele>
        <time>2021-08-12T11:09:54Z</time>
      </trkpt>
      <trkpt lat="45.50178" lon="6.73962">
        <ele>2218.6</ele>
        <time>2021-08-12T11:09:55Z</time>
      </trkpt>
      <trkpt lat="45.50179" lon="6.73962">
        <ele>2218.5</ele>
        <time>2021-08-12T11:09:56Z</time>
      </trkpt>
      <trkpt lat="45.5018" lon="6.73962">
        <ele>2218.3</ele>
        <time>2021-08-12T11:09:57Z</time>
      </trkpt>
      <trkpt lat="45.5018" lon="6.73961">
        <ele>2218.2</ele>
        <time>2021-08-12T11:09:58Z</time>
      </trkpt>
      <trkpt lat="45.50181" lon="6.73961">
        <ele>2218.1</ele>
        <time>2021-08-12T11:09:59Z</time>
      </trkpt>
      <trkpt lat="45.50181" lon="6.73961">
        <ele>2218</ele>
        <time>2021-08-12T11:10:00Z</time>
      </trkpt>
      <trkpt lat="45.50182" lon="6.7396">
        <ele>2217.9</ele>
        <time>2021-08-12T11:10:01Z</time>
      </trkpt>
      <trkpt lat="45.50182" lon="6.7396">
        <ele>2217.9</ele>
        <time>2021-08-12T11:10:02Z</time>
      </trkpt>
      <trkpt lat="45.50182" lon="6.7396">
        <ele>2217.9</ele>
        <time>2021-08-12T11:10:03Z</time>
      </trkpt>
      <trkpt lat="45.50182" lon="6.73961">
        <ele>2217.9</ele>
        <time>2021-08-12T11:10:04Z</time>
      </trkpt>
      <trkpt lat="45.50182" lon="6.73961">
        <ele>2217.8</ele>
        <time>2021-08-12T11:10:05Z</time>
      </trkpt>
      <trkpt lat="45.50181" lon="6.73961">
        <ele>2217.8</ele>
        <time>2021-08-12T11:10:06Z</time>
      </trkpt>
      <trkpt lat="45.50181" lon="6.73961">
        <ele>2217.8</ele>
        <time>2021-08-12T11:10:07Z</time>
      </trkpt>
      <trkpt lat="45.50182" lon="6.73961">
        <ele>2217.7</ele>
        <time>2021-08-12T11:10:08Z</time>
      </trkpt>
      <trkpt lat="45.50182" lon="6.73961">
        <ele>2217.7</ele>
        <time>2021-08-12T11:10:09Z</time>
      </trkpt>
      <trkpt lat="45.50183" lon="6.73961">
        <ele>2217.6</ele>
        <time>2021-08-12T11:10:10Z</time>
      </trkpt>
      <trkpt lat="45.50184" lon="6.73961">
        <ele>2217.4</ele>
        <time>2021-08-12T11:10:11Z</time>
      </trkpt>
      <trkpt lat="45.50184" lon="6.73961">
        <ele>2217.3</ele>
        <time>2021-08-12T11:10:12Z</time>
      </trkpt>
      <trkpt lat="45.50185" lon="6.73961">
        <ele>2217.2</ele>
        <time>2021-08-12T11:10:13Z</time>
      </trkpt>
      <trkpt lat="45.50186" lon="6.73961">
        <ele>2217.1</ele>
        <time>2021-08-12T11:10:14Z</time>
      </trkpt>
      <trkpt lat="45.50187" lon="6.7396">
        <ele>2216.9</ele>
        <time>2021-08-12T11:10:15Z</time>
      </trkpt>
      <trkpt lat="45.50187" lon="6.7396">
        <ele>2216.8</ele>
        <time>2021-08-12T11:10:16Z</time>
      </trkpt>
      <trkpt lat="45.50188" lon="6.7396">
        <ele>2216.7</ele>
        <time>2021-08-12T11:10:17Z</time>
      </trkpt>
      <trkpt lat="45.50189" lon="6.7396">
        <ele>2216.6</ele>
        <time>2021-08-12T11:10:18Z</time>
      </trkpt>
      <trkpt lat="45.5019" lon="6.7396">
        <ele>2216.4</ele>
        <time>2021-08-12T11:10:19Z</time>
      </trkpt>
      <trkpt lat="45.50191" lon="6.7396">
        <ele>2216.3</ele>
        <time>2021-08-12T11:10:20Z</time>
      </trkpt>
      <trkpt lat="45.50192" lon="6.7396">
        <ele>2216.1</ele>
        <time>2021-08-12T11:10:21Z</time>
      </trkpt>
      <trkpt lat="45.50193" lon="6.73959">
        <ele>2216</ele>
        <time>2021-08-12T11:10:22Z</time>
      </trkpt>
      <trkpt lat="45.50193" lon="6.73959">
        <ele>2215.8</ele>
        <time>2021-08-12T11:10:23Z</time>
      </trkpt>
      <trkpt lat="45.50194" lon="6.73959">
        <ele>2215.7</ele>
        <time>2021-08-12T11:10:24Z</time>
      </trkpt>
      <trkpt lat="45.50195" lon="6.73959">
        <ele>2215.6</ele>
        <time>2021-08-12T11:10:25Z</time>
      </trkpt>
      <trkpt lat="45.50196" lon="6.73959">
        <ele>2215.4</ele>
        <time>2021-08-12T11:10:26Z</time>
      </trkpt>
      <trkpt lat="45.50197" lon="6.73958">
        <ele>2215.3</ele>
        <time>2021-08-12T11:10:27Z</time>
      </trkpt>
      <trkpt lat="45.50198" lon="6.73958">
        <ele>2215.1</ele>
        <time>2021-08-12T11:10:28Z</time>
      </trkpt>
      <trkpt lat="45.50199" lon="6.73958">
        <ele>2215</ele>
        <time>2021-08-12T11:10:29Z</time>
      </trkpt>
      <trkpt lat="45.502" lon="6.73958">
        <ele>2214.8</ele>
        <time>2021-08-12T11:10:30Z</time>
      </trkpt>
      <trkpt lat="45.50201" lon="6.73958">
        <ele>2214.7</ele>
        <time>2021-08-12T11:10:31Z</time>
      </trkpt>
      <trkpt lat="45.50201" lon="6.73958">
        <ele>2214.5</ele>
        <time>2021-08-12T11:10:32Z</time>
      </trkpt>
      <trkpt lat="45.50202" lon="6.73958">
        <ele>2214.4</ele>
        <time>2021-08-12T11:10:33Z</time>
      </trkpt>
      <trkpt lat="45.50203" lon="6.73958">
        <ele>2214.3</ele>
        <time>2021-08-12T11:10:34Z</time>
      </trkpt>
      <trkpt lat="45.50204" lon="6.73958">
        <ele>2214.1</ele>
        <time>2021-08-12T11:10:35Z</time>
      </trkpt>
      <trkpt lat="45.50204" lon="6.73958">
        <ele>2214</ele>
        <time>2021-08-12T11:10:36Z</time>
      </trkpt>
      <trkpt lat="45.50205" lon="6.73958">
        <ele>2213.9</ele>
        <time>2021-08-12T11:10:37Z</time>
      </trkpt>
      <trkpt lat="45.50206" lon="6.73958">
        <ele>2213.8</ele>
        <time>2021-08-12T11:10:38Z</time>
      </trkpt>
      <trkpt lat="45.50206" lon="6.73959">
        <ele>2213.7</ele>
        <time>2021-08-12T11:10:39Z</time>
      </trkpt>
      <trkpt lat="45.50207" lon="6.73959">
        <ele>2213.6</ele>
        <time>2021-08-12T11:10:40Z</time>
      </trkpt>
      <trkpt lat="45.50207" lon="6.73959">
        <ele>2213.4</ele>
        <time>2021-08-12T11:10:41Z</time>
      </trkpt>
      <trkpt lat="45.50208" lon="6.7396">
        <ele>2213.3</ele>
        <time>2021-08-12T11:10:42Z</time>
      </trkpt>
      <trkpt lat="45.50208" lon="6.7396">
        <ele>2213.2</ele>
        <time>2021-08-12T11:10:43Z</time>
      </trkpt>
      <trkpt lat="45.50209" lon="6.7396">
        <ele>2213.1</ele>
        <time>2021-08-12T11:10:44Z</time>
      </trkpt>
      <trkpt lat="45.50209" lon="6.73961">
        <ele>2213</ele>
        <time>2021-08-12T11:10:45Z</time>
      </trkpt>
      <trkpt lat="45.5021" lon="6.73961">
        <ele>2212.9</ele>
        <time>2021-08-12T11:10:46Z</time>
      </trkpt>
      <trkpt lat="45.50211" lon="6.73962">
        <ele>2212.7</ele>
        <time>2021-08-12T11:10:47Z</time>
      </trkpt>
      <trkpt lat="45.50211" lon="6.73962">
        <ele>2212.6</ele>
        <time>2021-08-12T11:10:48Z</time>
      </trkpt>
      <trkpt lat="45.50212" lon="6.73963">
        <ele>2212.5</ele>
        <time>2021-08-12T11:10:49Z</time>
      </trkpt>
      <trkpt lat="45.50212" lon="6.73963">
        <ele>2212.4</ele>
        <time>2021-08-12T11:10:50Z</time>
      </trkpt>
      <trkpt lat="45.50213" lon="6.73963">
        <ele>2212.2</ele>
        <time>2021-08-12T11:10:51Z</time>
      </trkpt>
      <trkpt lat="45.50213" lon="6.73964">
        <ele>2212.1</ele>
        <time>2021-08-12T11:10:52Z</time>
      </trkpt>
      <trkpt lat="45.50214" lon="6.73964">
        <ele>2212</ele>
        <time>2021-08-12T11:10:53Z</time>
      </trkpt>
      <trkpt lat="45.50214" lon="6.73964">
        <ele>2211.9</ele>
        <time>2021-08-12T11:10:54Z</time>
      </trkpt>
      <trkpt lat="45.50215" lon="6.73965">
        <ele>2211.8</ele>
        <time>2021-08-12T11:10:55Z</time>
      </trkpt>
      <trkpt lat="45.50215" lon="6.73965">
        <ele>2211.7</ele>
        <time>2021-08-12T11:10:56Z</time>
      </trkpt>
      <trkpt lat="45.50216" lon="6.73965">
        <ele>2211.6</ele>
        <time>2021-08-12T11:10:57Z</time>
      </trkpt>
      <trkpt lat="45.50216" lon="6.73965">
        <ele>2211.5</ele>
        <time>2021-08-12T11:10:58Z</time>
      </trkpt>
      <trkpt lat="45.50216" lon="6.73965">
        <ele>2211.4</ele>
        <time>2021-08-12T11:10:59Z</time>
      </trkpt>
      <trkpt lat="45.50217" lon="6.73966">
        <ele>2211.3</ele>
        <time>2021-08-12T11:11:00Z</time>
      </trkpt>
      <trkpt lat="45.50217" lon="6.73966">
        <ele>2211.2</ele>
        <time>2021-08-12T11:11:01Z</time>
      </trkpt>
      <trkpt lat="45.50218" lon="6.73966">
        <ele>2211.2</ele>
        <time>2021-08-12T11:11:02Z</time>
      </trkpt>
      <trkpt lat="45.50218" lon="6.73966">
        <ele>2211.1</ele>
        <time>2021-08-12T11:11:03Z</time>
      </trkpt>
      <trkpt lat="45.50218" lon="6.73966">
        <ele>2211</ele>
        <time>2021-08-12T11:11:04Z</time>
      </trkpt>
      <trkpt lat="45.50219" lon="6.73966">
        <ele>2210.9</ele>
        <time>2021-08-12T11:11:05Z</time>
      </trkpt>
      <trkpt lat="45.50219" lon="6.73966">
        <ele>2210.9</ele>
        <time>2021-08-12T11:11:06Z</time>
      </trkpt>
      <trkpt lat="45.50219" lon="6.73966">
        <ele>2210.8</ele>
        <time>2021-08-12T11:11:07Z</time>
      </trkpt>
      <trkpt lat="45.5022" lon="6.73966">
        <ele>2210.7</ele>
        <time>2021-08-12T11:11:08Z</time>
      </trkpt>
      <trkpt lat="45.5022" lon="6.73966">
        <ele>2210.7</ele>
        <time>2021-08-12T11:11:09Z</time>
      </trkpt>
      <trkpt lat="45.5022" lon="6.73966">
        <ele>2210.6</ele>
        <time>2021-08-12T11:11:10Z</time>
      </trkpt>
      <trkpt lat="45.50221" lon="6.73966">
        <ele>2210.5</ele>
        <time>2021-08-12T11:11:11Z</time>
      </trkpt>
      <trkpt lat="45.50221" lon="6.73966">
        <ele>2210.4</ele>
        <time>2021-08-12T11:11:12Z</time>
      </trkpt>
      <trkpt lat="45.50221" lon="6.73966">
        <ele>2210.3</ele>
        <time>2021-08-12T11:11:13Z</time>
      </trkpt>
      <trkpt lat="45.50222" lon="6.73966">
        <ele>2210.2</ele>
        <time>2021-08-12T11:11:14Z</time>
      </trkpt>
      <trkpt lat="45.50222" lon="6.73966">
        <ele>2210.2</ele>
        <time>2021-08-12T11:11:15Z</time>
      </trkpt>
      <trkpt lat="45.50223" lon="6.73966">
        <ele>2210</ele>
        <time>2021-08-12T11:11:16Z</time>
      </trkpt>
      <trkpt lat="45.50223" lon="6.73966">
        <ele>2209.9</ele>
        <time>2021-08-12T11:11:17Z</time>
      </trkpt>
      <trkpt lat="45.50223" lon="6.73966">
        <ele>2209.8</ele>
        <time>2021-08-12T11:11:18Z</time>
      </trkpt>
      <trkpt lat="45.50224" lon="6.73966">
        <ele>2209.7</ele>
        <time>2021-08-12T11:11:19Z</time>
      </trkpt>
      <trkpt lat="45.50224" lon="6.73966">
        <ele>2209.6</ele>
        <time>2021-08-12T11:11:20Z</time>
      </trkpt>
      <trkpt lat="45.50225" lon="6.73966">
        <ele>2209.5</ele>
        <time>2021-08-12T11:11:21Z</time>
      </trkpt>
      <trkpt lat="45.50225" lon="6.73966">
        <ele>2209.4</ele>
        <time>2021-08-12T11:11:22Z</time>
      </trkpt>
      <trkpt lat="45.50226" lon="6.73966">
        <ele>2209.2</ele>
        <time>2021-08-12T11:11:23Z</time>
      </trkpt>
      <trkpt lat="45.50227" lon="6.73966">
        <ele>2209.1</ele>
        <time>2021-08-12T11:11:24Z</time>
      </trkpt>
      <trkpt lat="45.50227" lon="6.73966">
        <ele>2209</ele>
        <time>2021-08-12T11:11:25Z</time>
      </trkpt>
      <trkpt lat="45.50228" lon="6.73966">
        <ele>2208.8</ele>
        <time>2021-08-12T11:11:26Z</time>
      </trkpt>
      <trkpt lat="45.50228" lon="6.73966">
        <ele>2208.7</ele>
        <time>2021-08-12T11:11:27Z</time>
      </trkpt>
      <trkpt lat="45.50229" lon="6.73966">
        <ele>2208.5</ele>
        <time>2021-08-12T11:11:28Z</time>
      </trkpt>
      <trkpt lat="45.50229" lon="6.73966">
        <ele>2208.4</ele>
        <time>2021-08-12T11:11:29Z</time>
      </trkpt>
      <trkpt lat="45.5023" lon="6.73966">
        <ele>2208.3</ele>
        <time>2021-08-12T11:11:30Z</time>
      </trkpt>
      <trkpt lat="45.5023" lon="6.73967">
        <ele>2208.1</ele>
        <time>2021-08-12T11:11:31Z</time>
      </trkpt>
      <trkpt lat="45.50231" lon="6.73967">
        <ele>2208</ele>
        <time>2021-08-12T11:11:32Z</time>
      </trkpt>
      <trkpt lat="45.50231" lon="6.73967">
        <ele>2207.8</ele>
        <time>2021-08-12T11:11:33Z</time>
      </trkpt>
      <trkpt lat="45.50232" lon="6.73967">
        <ele>2207.7</ele>
        <time>2021-08-12T11:11:34Z</time>
      </trkpt>
      <trkpt lat="45.50232" lon="6.73967">
        <ele>2207.6</ele>
        <time>2021-08-12T11:11:35Z</time>
      </trkpt>
      <trkpt lat="45.50233" lon="6.73967">
        <ele>2207.4</ele>
        <time>2021-08-12T11:11:36Z</time>
      </trkpt>
      <trkpt lat="45.50233" lon="6.73967">
        <ele>2207.3</ele>
        <time>2021-08-12T11:11:37Z</time>
      </trkpt>
      <trkpt lat="45.50234" lon="6.73967">
        <ele>2207.2</ele>
        <time>2021-08-12T11:11:38Z</time>
      </trkpt>
      <trkpt lat="45.50234" lon="6.73967">
        <ele>2207.1</ele>
        <time>2021-08-12T11:11:39Z</time>
      </trkpt>
      <trkpt lat="45.50235" lon="6.73968">
        <ele>2206.9</ele>
        <time>2021-08-12T11:11:40Z</time>
      </trkpt>
      <trkpt lat="45.50235" lon="6.73968">
        <ele>2206.8</ele>
        <time>2021-08-12T11:11:41Z</time>
      </trkpt>
      <trkpt lat="45.50236" lon="6.73968">
        <ele>2206.6</ele>
        <time>2021-08-12T11:11:42Z</time>
      </trkpt>
      <trkpt lat="45.50236" lon="6.73968">
        <ele>2206.5</ele>
        <time>2021-08-12T11:11:43Z</time>
      </trkpt>
      <trkpt lat="45.50237" lon="6.73969">
        <ele>2206.4</ele>
        <time>2021-08-12T11:11:44Z</time>
      </trkpt>
      <trkpt lat="45.50237" lon="6.73969">
        <ele>2206.2</ele>
        <time>2021-08-12T11:11:45Z</time>
      </trkpt>
      <trkpt lat="45.50238" lon="6.7397">
        <ele>2206</ele>
        <time>2021-08-12T11:11:46Z</time>
      </trkpt>
      <trkpt lat="45.50238" lon="6.7397">
        <ele>2205.9</ele>
        <time>2021-08-12T11:11:47Z</time>
      </trkpt>
      <trkpt lat="45.50239" lon="6.73971">
        <ele>2205.7</ele>
        <time>2021-08-12T11:11:48Z</time>
      </trkpt>
      <trkpt lat="45.50239" lon="6.73971">
        <ele>2205.6</ele>
        <time>2021-08-12T11:11:49Z</time>
      </trkpt>
      <trkpt lat="45.5024" lon="6.73972">
        <ele>2205.4</ele>
        <time>2021-08-12T11:11:50Z</time>
      </trkpt>
      <trkpt lat="45.5024" lon="6.73972">
        <ele>2205.2</ele>
        <time>2021-08-12T11:11:51Z</time>
      </trkpt>
      <trkpt lat="45.50241" lon="6.73972">
        <ele>2205.1</ele>
        <time>2021-08-12T11:11:52Z</time>
      </trkpt>
      <trkpt lat="45.50241" lon="6.73973">
        <ele>2204.9</ele>
        <time>2021-08-12T11:11:53Z</time>
      </trkpt>
      <trkpt lat="45.50242" lon="6.73973">
        <ele>2204.7</ele>
        <time>2021-08-12T11:11:54Z</time>
      </trkpt>
      <trkpt lat="45.50242" lon="6.73973">
        <ele>2204.6</ele>
        <time>2021-08-12T11:11:55Z</time>
      </trkpt>
      <trkpt lat="45.50243" lon="6.73973">
        <ele>2204.4</ele>
        <time>2021-08-12T11:11:56Z</time>
      </trkpt>
      <trkpt lat="45.50244" lon="6.73973">
        <ele>2204.2</ele>
        <time>2021-08-12T11:11:57Z</time>
      </trkpt>
      <trkpt lat="45.50244" lon="6.73973">
        <ele>2204.1</ele>
        <time>2021-08-12T11:11:58Z</time>
      </trkpt>
      <trkpt lat="45.50244" lon="6.73973">
        <ele>2204</ele>
        <time>2021-08-12T11:11:59Z</time>
      </trkpt>
      <trkpt lat="45.50245" lon="6.73973">
        <ele>2204</ele>
        <time>2021-08-12T11:12:00Z</time>
      </trkpt>
      <trkpt lat="45.50245" lon="6.73973">
        <ele>2204</ele>
        <time>2021-08-12T11:12:01Z</time>
      </trkpt>
      <trkpt lat="45.50245" lon="6.73973">
        <ele>2204</ele>
        <time>2021-08-12T11:12:02Z</time>
      </trkpt>
      <trkpt lat="45.50245" lon="6.73973">
        <ele>2203.9</ele>
        <time>2021-08-12T11:12:03Z</time>
      </trkpt>
      <trkpt lat="45.50245" lon="6.73972">
        <ele>2203.9</ele>
        <time>2021-08-12T11:12:04Z</time>
      </trkpt>
      <trkpt lat="45.50245" lon="6.73972">
        <ele>2203.7</ele>
        <time>2021-08-12T11:12:05Z</time>
      </trkpt>
      <trkpt lat="45.50246" lon="6.73972">
        <ele>2203.6</ele>
        <time>2021-08-12T11:12:06Z</time>
      </trkpt>
      <trkpt lat="45.50246" lon="6.73971">
        <ele>2203.4</ele>
        <time>2021-08-12T11:12:07Z</time>
      </trkpt>
      <trkpt lat="45.50247" lon="6.73971">
        <ele>2203.2</ele>
        <time>2021-08-12T11:12:08Z</time>
      </trkpt>
      <trkpt lat="45.50248" lon="6.73971">
        <ele>2203</ele>
        <time>2021-08-12T11:12:09Z</time>
      </trkpt>
      <trkpt lat="45.50248" lon="6.73971">
        <ele>2202.8</ele>
        <time>2021-08-12T11:12:10Z</time>
      </trkpt>
      <trkpt lat="45.50249" lon="6.73971">
        <ele>2202.6</ele>
        <time>2021-08-12T11:12:11Z</time>
      </trkpt>
      <trkpt lat="45.5025" lon="6.73972">
        <ele>2202.4</ele>
        <time>2021-08-12T11:12:12Z</time>
      </trkpt>
      <trkpt lat="45.5025" lon="6.73973">
        <ele>2202.2</ele>
        <time>2021-08-12T11:12:13Z</time>
      </trkpt>
      <trkpt lat="45.50251" lon="6.73973">
        <ele>2202.1</ele>
        <time>2021-08-12T11:12:14Z</time>
      </trkpt>
      <trkpt lat="45.50252" lon="6.73974">
        <ele>2201.9</ele>
        <time>2021-08-12T11:12:15Z</time>
      </trkpt>
      <trkpt lat="45.50252" lon="6.73974">
        <ele>2201.7</ele>
        <time>2021-08-12T11:12:16Z</time>
      </trkpt>
      <trkpt lat="45.50253" lon="6.73975">
        <ele>2201.6</ele>
        <time>2021-08-12T11:12:17Z</time>
      </trkpt>
      <trkpt lat="45.50253" lon="6.73975">
        <ele>2201.4</ele>
        <time>2021-08-12T11:12:18Z</time>
      </trkpt>
      <trkpt lat="45.50254" lon="6.73975">
        <ele>2201.2</ele>
        <time>2021-08-12T11:12:19Z</time>
      </trkpt>
      <trkpt lat="45.50255" lon="6.73976">
        <ele>2201.1</ele>
        <time>2021-08-12T11:12:20Z</time>
      </trkpt>
      <trkpt lat="45.50255" lon="6.73976">
        <ele>2200.9</ele>
        <time>2021-08-12T11:12:21Z</time>
      </trkpt>
      <trkpt lat="45.50256" lon="6.73976">
        <ele>2200.8</ele>
        <time>2021-08-12T11:12:22Z</time>
      </trkpt>
      <trkpt lat="45.50256" lon="6.73976">
        <ele>2200.6</ele>
        <time>2021-08-12T11:12:23Z</time>
      </trkpt>
      <trkpt lat="45.50257" lon="6.73977">
        <ele>2200.5</ele>
        <time>2021-08-12T11:12:24Z</time>
      </trkpt>
      <trkpt lat="45.50258" lon="6.73977">
        <ele>2200.3</ele>
        <time>2021-08-12T11:12:25Z</time>
      </trkpt>
      <trkpt lat="45.50258" lon="6.73977">
        <ele>2200.2</ele>
        <time>2021-08-12T11:12:26Z</time>
      </trkpt>
      <trkpt lat="45.50259" lon="6.73977">
        <ele>2200</ele>
        <time>2021-08-12T11:12:27Z</time>
      </trkpt>
      <trkpt lat="45.5026" lon="6.73977">
        <ele>2199.8</ele>
        <time>2021-08-12T11:12:28Z</time>
      </trkpt>
      <trkpt lat="45.5026" lon="6.73977">
        <ele>2199.7</ele>
        <time>2021-08-12T11:12:29Z</time>
      </trkpt>
      <trkpt lat="45.50261" lon="6.73977">
        <ele>2199.5</ele>
        <time>2021-08-12T11:12:30Z</time>
      </trkpt>
      <trkpt lat="45.50261" lon="6.73977">
        <ele>2199.4</ele>
        <time>2021-08-12T11:12:31Z</time>
      </trkpt>
      <trkpt lat="45.50262" lon="6.73977">
        <ele>2199.3</ele>
        <time>2021-08-12T11:12:32Z</time>
      </trkpt>
      <trkpt lat="45.50262" lon="6.73976">
        <ele>2199.1</ele>
        <time>2021-08-12T11:12:33Z</time>
      </trkpt>
      <trkpt lat="45.50263" lon="6.73976">
        <ele>2198.9</ele>
        <time>2021-08-12T11:12:34Z</time>
      </trkpt>
      <trkpt lat="45.50263" lon="6.73975">
        <ele>2198.8</ele>
        <time>2021-08-12T11:12:35Z</time>
      </trkpt>
      <trkpt lat="45.50264" lon="6.73974">
        <ele>2198.6</ele>
        <time>2021-08-12T11:12:36Z</time>
      </trkpt>
      <trkpt lat="45.50264" lon="6.73973">
        <ele>2198.4</ele>
        <time>2021-08-12T11:12:37Z</time>
      </trkpt>
      <trkpt lat="45.50265" lon="6.73972">
        <ele>2198.2</ele>
        <time>2021-08-12T11:12:38Z</time>
      </trkpt>
      <trkpt lat="45.50265" lon="6.73971">
        <ele>2198</ele>
        <time>2021-08-12T11:12:39Z</time>
      </trkpt>
      <trkpt lat="45.50265" lon="6.7397">
        <ele>2197.9</ele>
        <time>2021-08-12T11:12:40Z</time>
      </trkpt>
      <trkpt lat="45.50266" lon="6.7397">
        <ele>2197.7</ele>
        <time>2021-08-12T11:12:41Z</time>
      </trkpt>
      <trkpt lat="45.50266" lon="6.73969">
        <ele>2197.6</ele>
        <time>2021-08-12T11:12:42Z</time>
      </trkpt>
      <trkpt lat="45.50266" lon="6.73969">
        <ele>2197.5</ele>
        <time>2021-08-12T11:12:43Z</time>
      </trkpt>
      <trkpt lat="45.50267" lon="6.73968">
        <ele>2197.4</ele>
        <time>2021-08-12T11:12:44Z</time>
      </trkpt>
      <trkpt lat="45.50267" lon="6.73968">
        <ele>2197.3</ele>
        <time>2021-08-12T11:12:45Z</time>
      </trkpt>
      <trkpt lat="45.50267" lon="6.73968">
        <ele>2197.2</ele>
        <time>2021-08-12T11:12:46Z</time>
      </trkpt>
      <trkpt lat="45.50268" lon="6.73968">
        <ele>2197.1</ele>
        <time>2021-08-12T11:12:47Z</time>
      </trkpt>
      <trkpt lat="45.50268" lon="6.73968">
        <ele>2197</ele>
        <time>2021-08-12T11:12:48Z</time>
      </trkpt>
      <trkpt lat="45.50268" lon="6.73969">
        <ele>2196.9</ele>
        <time>2021-08-12T11:12:49Z</time>
      </trkpt>
      <trkpt lat="45.50269" lon="6.73969">
        <ele>2196.8</ele>
        <time>2021-08-12T11:12:50Z</time>
      </trkpt>
      <trkpt lat="45.50269" lon="6.73969">
        <ele>2196.7</ele>
        <time>2021-08-12T11:12:51Z</time>
      </trkpt>
      <trkpt lat="45.5027" lon="6.73969">
        <ele>2196.6</ele>
        <time>2021-08-12T11:12:52Z</time>
      </trkpt>
      <trkpt lat="45.5027" lon="6.73969">
        <ele>2196.4</ele>
        <time>2021-08-12T11:12:53Z</time>
      </trkpt>
      <trkpt lat="45.50271" lon="6.73969">
        <ele>2196.3</ele>
        <time>2021-08-12T11:12:54Z</time>
      </trkpt>
      <trkpt lat="45.50272" lon="6.73969">
        <ele>2196.1</ele>
        <time>2021-08-12T11:12:55Z</time>
      </trkpt>
      <trkpt lat="45.50272" lon="6.73969">
        <ele>2196</ele>
        <time>2021-08-12T11:12:56Z</time>
      </trkpt>
      <trkpt lat="45.50273" lon="6.73968">
        <ele>2195.8</ele>
        <time>2021-08-12T11:12:57Z</time>
      </trkpt>
      <trkpt lat="45.50274" lon="6.73968">
        <ele>2195.6</ele>
        <time>2021-08-12T11:12:58Z</time>
      </trkpt>
      <trkpt lat="45.50274" lon="6.73968">
        <ele>2195.5</ele>
        <time>2021-08-12T11:12:59Z</time>
      </trkpt>
      <trkpt lat="45.50275" lon="6.73967">
        <ele>2195.3</ele>
        <time>2021-08-12T11:13:00Z</time>
      </trkpt>
      <trkpt lat="45.50276" lon="6.73967">
        <ele>2195.1</ele>
        <time>2021-08-12T11:13:01Z</time>
      </trkpt>
      <trkpt lat="45.50276" lon="6.73967">
        <ele>2195</ele>
        <time>2021-08-12T11:13:02Z</time>
      </trkpt>
      <trkpt lat="45.50277" lon="6.73966">
        <ele>2194.8</ele>
        <time>2021-08-12T11:13:03Z</time>
      </trkpt>
      <trkpt lat="45.50277" lon="6.73966">
        <ele>2194.7</ele>
        <time>2021-08-12T11:13:04Z</time>
      </trkpt>
      <trkpt lat="45.50278" lon="6.73966">
        <ele>2194.6</ele>
        <time>2021-08-12T11:13:05Z</time>
      </trkpt>
      <trkpt lat="45.50278" lon="6.73966">
        <ele>2194.5</ele>
        <time>2021-08-12T11:13:06Z</time>
      </trkpt>
      <trkpt lat="45.50278" lon="6.73965">
        <ele>2194.4</ele>
        <time>2021-08-12T11:13:07Z</time>
      </trkpt>
      <trkpt lat="45.50279" lon="6.73965">
        <ele>2194.3</ele>
        <time>2021-08-12T11:13:08Z</time>
      </trkpt>
      <trkpt lat="45.50279" lon="6.73965">
        <ele>2194.2</ele>
        <time>2021-08-12T11:13:09Z</time>
      </trkpt>
      <trkpt lat="45.5028" lon="6.73965">
        <ele>2194.1</ele>
        <time>2021-08-12T11:13:10Z</time>
      </trkpt>
      <trkpt lat="45.5028" lon="6.73965">
        <ele>2194</ele>
        <time>2021-08-12T11:13:11Z</time>
      </trkpt>
      <trkpt lat="45.5028" lon="6.73965">
        <ele>2194</ele>
        <time>2021-08-12T11:13:12Z</time>
      </trkpt>
      <trkpt lat="45.50281" lon="6.73965">
        <ele>2193.9</ele>
        <time>2021-08-12T11:13:13Z</time>
      </trkpt>
      <trkpt lat="45.50281" lon="6.73965">
        <ele>2193.8</ele>
        <time>2021-08-12T11:13:14Z</time>
      </trkpt>
      <trkpt lat="45.50281" lon="6.73965">
        <ele>2193.7</ele>
        <time>2021-08-12T11:13:15Z</time>
      </trkpt>
      <trkpt lat="45.50282" lon="6.73965">
        <ele>2193.6</ele>
        <time>2021-08-12T11:13:16Z</time>
      </trkpt>
      <trkpt lat="45.50282" lon="6.73965">
        <ele>2193.5</ele>
        <time>2021-08-12T11:13:17Z</time>
      </trkpt>
      <trkpt lat="45.50282" lon="6.73965">
        <ele>2193.4</ele>
        <time>2021-08-12T11:13:18Z</time>
      </trkpt>
      <trkpt lat="45.50283" lon="6.73964">
        <ele>2193.3</ele>
        <time>2021-08-12T11:13:19Z</time>
      </trkpt>
      <trkpt lat="45.50283" lon="6.73964">
        <ele>2193.2</ele>
        <time>2021-08-12T11:13:20Z</time>
      </trkpt>
      <trkpt lat="45.50284" lon="6.73964">
        <ele>2193.1</ele>
        <time>2021-08-12T11:13:21Z</time>
      </trkpt>
      <trkpt lat="45.50284" lon="6.73964">
        <ele>2193</ele>
        <time>2021-08-12T11:13:22Z</time>
      </trkpt>
      <trkpt lat="45.50285" lon="6.73963">
        <ele>2192.8</ele>
        <time>2021-08-12T11:13:23Z</time>
      </trkpt>
      <trkpt lat="45.50285" lon="6.73963">
        <ele>2192.7</ele>
        <time>2021-08-12T11:13:24Z</time>
      </trkpt>
      <trkpt lat="45.50286" lon="6.73962">
        <ele>2192.5</ele>
        <time>2021-08-12T11:13:25Z</time>
      </trkpt>
      <trkpt lat="45.50286" lon="6.73961">
        <ele>2192.3</ele>
        <time>2021-08-12T11:13:26Z</time>
      </trkpt>
      <trkpt lat="45.50287" lon="6.73961">
        <ele>2192.2</ele>
        <time>2021-08-12T11:13:27Z</time>
      </trkpt>
      <trkpt lat="45.50288" lon="6.7396">
        <ele>2192</ele>
        <time>2021-08-12T11:13:28Z</time>
      </trkpt>
      <trkpt lat="45.50288" lon="6.73959">
        <ele>2191.8</ele>
        <time>2021-08-12T11:13:29Z</time>
      </trkpt>
      <trkpt lat="45.50289" lon="6.73959">
        <ele>2191.7</ele>
        <time>2021-08-12T11:13:30Z</time>
      </trkpt>
      <trkpt lat="45.50289" lon="6.73958">
        <ele>2191.5</ele>
        <time>2021-08-12T11:13:31Z</time>
      </trkpt>
      <trkpt lat="45.50289" lon="6.73958">
        <ele>2191.4</ele>
        <time>2021-08-12T11:13:32Z</time>
      </trkpt>
      <trkpt lat="45.5029" lon="6.73957">
        <ele>2191.3</ele>
        <time>2021-08-12T11:13:33Z</time>
      </trkpt>
      <trkpt lat="45.5029" lon="6.73957">
        <ele>2191.2</ele>
        <time>2021-08-12T11:13:34Z</time>
      </trkpt>
      <trkpt lat="45.5029" lon="6.73957">
        <ele>2191.1</ele>
        <time>2021-08-12T11:13:35Z</time>
      </trkpt>
      <trkpt lat="45.50291" lon="6.73957">
        <ele>2191.1</ele>
        <time>2021-08-12T11:13:36Z</time>
      </trkpt>
      <trkpt lat="45.50291" lon="6.73957">
        <ele>2191</ele>
        <time>2021-08-12T11:13:37Z</time>
      </trkpt>
      <trkpt lat="45.50291" lon="6.73956">
        <ele>2191</ele>
        <time>2021-08-12T11:13:38Z</time>
      </trkpt>
      <trkpt lat="45.50291" lon="6.73956">
        <ele>2190.9</ele>
        <time>2021-08-12T11:13:39Z</time>
      </trkpt>
      <trkpt lat="45.50291" lon="6.73956">
        <ele>2190.9</ele>
        <time>2021-08-12T11:13:40Z</time>
      </trkpt>
      <trkpt lat="45.50291" lon="6.73956">
        <ele>2190.9</ele>
        <time>2021-08-12T11:13:41Z</time>
      </trkpt>
      <trkpt lat="45.50292" lon="6.73956">
        <ele>2190.9</ele>
        <time>2021-08-12T11:13:42Z</time>
      </trkpt>
      <trkpt lat="45.50292" lon="6.73956">
        <ele>2190.8</ele>
        <time>2021-08-12T11:13:43Z</time>
      </trkpt>
      <trkpt lat="45.50292" lon="6.73956">
        <ele>2190.8</ele>
        <time>2021-08-12T11:13:44Z</time>
      </trkpt>
      <trkpt lat="45.50292" lon="6.73956">
        <ele>2190.8</ele>
        <time>2021-08-12T11:13:45Z</time>
      </trkpt>
      <trkpt lat="45.50292" lon="6.73956">
        <ele>2190.8</ele>
        <time>2021-08-12T11:13:46Z</time>
      </trkpt>
      <trkpt lat="45.50292" lon="6.73956">
        <ele>2190.7</ele>
        <time>2021-08-12T11:13:47Z</time>
      </trkpt>
      <trkpt lat="45.50292" lon="6.73956">
        <ele>2190.7</ele>
        <time>2021-08-12T11:13:48Z</time>
      </trkpt>
      <trkpt lat="45.50292" lon="6.73955">
        <ele>2190.6</ele>
        <time>2021-08-12T11:13:49Z</time>
      </trkpt>
      <trkpt lat="45.50293" lon="6.73955">
        <ele>2190.6</ele>
        <time>2021-08-12T11:13:50Z</time>
      </trkpt>
      <trkpt lat="45.50293" lon="6.73955">
        <ele>2190.5</ele>
        <time>2021-08-12T11:13:51Z</time>
      </trkpt>
      <trkpt lat="45.50293" lon="6.73954">
        <ele>2190.4</ele>
        <time>2021-08-12T11:13:52Z</time>
      </trkpt>
      <trkpt lat="45.50294" lon="6.73954">
        <ele>2190.2</ele>
        <time>2021-08-12T11:13:53Z</time>
      </trkpt>
      <trkpt lat="45.50294" lon="6.73953">
        <ele>2190.1</ele>
        <time>2021-08-12T11:13:54Z</time>
      </trkpt>
      <trkpt lat="45.50295" lon="6.73953">
        <ele>2190</ele>
        <time>2021-08-12T11:13:55Z</time>
      </trkpt>
      <trkpt lat="45.50295" lon="6.73952">
        <ele>2189.8</ele>
        <time>2021-08-12T11:13:56Z</time>
      </trkpt>
      <trkpt lat="45.50296" lon="6.73951">
        <ele>2189.6</ele>
        <time>2021-08-12T11:13:57Z</time>
      </trkpt>
      <trkpt lat="45.50296" lon="6.73951">
        <ele>2189.4</ele>
        <time>2021-08-12T11:13:58Z</time>
      </trkpt>
      <trkpt lat="45.50297" lon="6.7395">
        <ele>2189.3</ele>
        <time>2021-08-12T11:13:59Z</time>
      </trkpt>
      <trkpt lat="45.50297" lon="6.73949">
        <ele>2189.1</ele>
        <time>2021-08-12T11:14:00Z</time>
      </trkpt>
      <trkpt lat="45.50298" lon="6.73949">
        <ele>2188.9</ele>
        <time>2021-08-12T11:14:01Z</time>
      </trkpt>
      <trkpt lat="45.50299" lon="6.73948">
        <ele>2188.7</ele>
        <time>2021-08-12T11:14:02Z</time>
      </trkpt>
      <trkpt lat="45.50299" lon="6.73947">
        <ele>2188.6</ele>
        <time>2021-08-12T11:14:03Z</time>
      </trkpt>
      <trkpt lat="45.503" lon="6.73947">
        <ele>2188.4</ele>
        <time>2021-08-12T11:14:04Z</time>
      </trkpt>
      <trkpt lat="45.503" lon="6.73946">
        <ele>2188.3</ele>
        <time>2021-08-12T11:14:05Z</time>
      </trkpt>
      <trkpt lat="45.50301" lon="6.73946">
        <ele>2188.1</ele>
        <time>2021-08-12T11:14:06Z</time>
      </trkpt>
      <trkpt lat="45.50301" lon="6.73945">
        <ele>2188</ele>
        <time>2021-08-12T11:14:07Z</time>
      </trkpt>
      <trkpt lat="45.50302" lon="6.73945">
        <ele>2187.9</ele>
        <time>2021-08-12T11:14:08Z</time>
      </trkpt>
      <trkpt lat="45.50302" lon="6.73944">
        <ele>2187.8</ele>
        <time>2021-08-12T11:14:09Z</time>
      </trkpt>
      <trkpt lat="45.50302" lon="6.73944">
        <ele>2187.7</ele>
        <time>2021-08-12T11:14:10Z</time>
      </trkpt>
      <trkpt lat="45.50302" lon="6.73944">
        <ele>2187.7</ele>
        <time>2021-08-12T11:14:11Z</time>
      </trkpt>
      <trkpt lat="45.50302" lon="6.73944">
        <ele>2187.6</ele>
        <time>2021-08-12T11:14:12Z</time>
      </trkpt>
      <trkpt lat="45.50303" lon="6.73944">
        <ele>2187.6</ele>
        <time>2021-08-12T11:14:13Z</time>
      </trkpt>
      <trkpt lat="45.50303" lon="6.73944">
        <ele>2187.6</ele>
        <time>2021-08-12T11:14:14Z</time>
      </trkpt>
      <trkpt lat="45.50303" lon="6.73944">
        <ele>2187.6</ele>
        <time>2021-08-12T11:14:15Z</time>
      </trkpt>
      <trkpt lat="45.50303" lon="6.73944">
        <ele>2187.6</ele>
        <time>2021-08-12T11:14:16Z</time>
      </trkpt>
      <trkpt lat="45.50303" lon="6.73944">
        <ele>2187.6</ele>
        <time>2021-08-12T11:14:17Z</time>
      </trkpt>
      <trkpt lat="45.50303" lon="6.73944">
        <ele>2187.6</ele>
        <time>2021-08-12T11:14:18Z</time>
      </trkpt>
      <trkpt lat="45.50303" lon="6.73944">
        <ele>2187.6</ele>
        <time>2021-08-12T11:14:19Z</time>
      </trkpt>
      <trkpt lat="45.50303" lon="6.73944">
        <ele>2187.5</ele>
        <time>2021-08-12T11:14:20Z</time>
      </trkpt>
      <trkpt lat="45.50303" lon="6.73943">
        <ele>2187.5</ele>
        <time>2021-08-12T11:14:21Z</time>
      </trkpt>
      <trkpt lat="45.50303" lon="6.73943">
        <ele>2187.4</ele>
        <time>2021-08-12T11:14:22Z</time>
      </trkpt>
      <trkpt lat="45.50303" lon="6.73943">
        <ele>2187.4</ele>
        <time>2021-08-12T11:14:23Z</time>
      </trkpt>
      <trkpt lat="45.50303" lon="6.73943">
        <ele>2187.3</ele>
        <time>2021-08-12T11:14:24Z</time>
      </trkpt>
      <trkpt lat="45.50304" lon="6.73942">
        <ele>2187.2</ele>
        <time>2021-08-12T11:14:25Z</time>
      </trkpt>
      <trkpt lat="45.50304" lon="6.73942">
        <ele>2187.1</ele>
        <time>2021-08-12T11:14:26Z</time>
      </trkpt>
      <trkpt lat="45.50304" lon="6.73942">
        <ele>2187</ele>
        <time>2021-08-12T11:14:27Z</time>
      </trkpt>
      <trkpt lat="45.50305" lon="6.73941">
        <ele>2186.9</ele>
        <time>2021-08-12T11:14:28Z</time>
      </trkpt>
      <trkpt lat="45.50305" lon="6.73941">
        <ele>2186.8</ele>
        <time>2021-08-12T11:14:29Z</time>
      </trkpt>
      <trkpt lat="45.50306" lon="6.7394">
        <ele>2186.7</ele>
        <time>2021-08-12T11:14:30Z</time>
      </trkpt>
      <trkpt lat="45.50306" lon="6.7394">
        <ele>2186.5</ele>
        <time>2021-08-12T11:14:31Z</time>
      </trkpt>
      <trkpt lat="45.50307" lon="6.73939">
        <ele>2186.4</ele>
        <time>2021-08-12T11:14:32Z</time>
      </trkpt>
      <trkpt lat="45.50307" lon="6.73939">
        <ele>2186.3</ele>
        <time>2021-08-12T11:14:33Z</time>
      </trkpt>
      <trkpt lat="45.50308" lon="6.73939">
        <ele>2186.1</ele>
        <time>2021-08-12T11:14:34Z</time>
      </trkpt>
      <trkpt lat="45.50308" lon="6.73938">
        <ele>2186</ele>
        <time>2021-08-12T11:14:35Z</time>
      </trkpt>
      <trkpt lat="45.50309" lon="6.73938">
        <ele>2185.8</ele>
        <time>2021-08-12T11:14:36Z</time>
      </trkpt>
      <trkpt lat="45.50309" lon="6.73937">
        <ele>2185.7</ele>
        <time>2021-08-12T11:14:37Z</time>
      </trkpt>
      <trkpt lat="45.5031" lon="6.73937">
        <ele>2185.6</ele>
        <time>2021-08-12T11:14:38Z</time>
      </trkpt>
      <trkpt lat="45.5031" lon="6.73937">
        <ele>2185.4</ele>
        <time>2021-08-12T11:14:39Z</time>
      </trkpt>
      <trkpt lat="45.50311" lon="6.73936">
        <ele>2185.3</ele>
        <time>2021-08-12T11:14:40Z</time>
      </trkpt>
      <trkpt lat="45.50311" lon="6.73936">
        <ele>2185.2</ele>
        <time>2021-08-12T11:14:41Z</time>
      </trkpt>
      <trkpt lat="45.50312" lon="6.73936">
        <ele>2185.1</ele>
        <time>2021-08-12T11:14:42Z</time>
      </trkpt>
      <trkpt lat="45.50312" lon="6.73935">
        <ele>2185</ele>
        <time>2021-08-12T11:14:43Z</time>
      </trkpt>
      <trkpt lat="45.50312" lon="6.73935">
        <ele>2184.9</ele>
        <time>2021-08-12T11:14:44Z</time>
      </trkpt>
      <trkpt lat="45.50313" lon="6.73935">
        <ele>2184.8</ele>
        <time>2021-08-12T11:14:45Z</time>
      </trkpt>
      <trkpt lat="45.50313" lon="6.73935">
        <ele>2184.7</ele>
        <time>2021-08-12T11:14:46Z</time>
      </trkpt>
      <trkpt lat="45.50313" lon="6.73934">
        <ele>2184.6</ele>
        <time>2021-08-12T11:14:47Z</time>
      </trkpt>
      <trkpt lat="45.50313" lon="6.73934">
        <ele>2184.6</ele>
        <time>2021-08-12T11:14:48Z</time>
      </trkpt>
      <trkpt lat="45.50314" lon="6.73934">
        <ele>2184.5</ele>
        <time>2021-08-12T11:14:49Z</time>
      </trkpt>
      <trkpt lat="45.50314" lon="6.73934">
        <ele>2184.5</ele>
        <time>2021-08-12T11:14:50Z</time>
      </trkpt>
      <trkpt lat="45.50314" lon="6.73934">
        <ele>2184.4</ele>
        <time>2021-08-12T11:14:51Z</time>
      </trkpt>
      <trkpt lat="45.50314" lon="6.73933">
        <ele>2184.3</ele>
        <time>2021-08-12T11:14:52Z</time>
      </trkpt>
      <trkpt lat="45.50314" lon="6.73933">
        <ele>2184.3</ele>
        <time>2021-08-12T11:14:53Z</time>
      </trkpt>
      <trkpt lat="45.50315" lon="6.73933">
        <ele>2184.2</ele>
        <time>2021-08-12T11:14:54Z</time>
      </trkpt>
      <trkpt lat="45.50315" lon="6.73933">
        <ele>2184.2</ele>
        <time>2021-08-12T11:14:55Z</time>
      </trkpt>
      <trkpt lat="45.50315" lon="6.73933">
        <ele>2184.1</ele>
        <time>2021-08-12T11:14:56Z</time>
      </trkpt>
      <trkpt lat="45.50315" lon="6.73933">
        <ele>2184.1</ele>
        <time>2021-08-12T11:14:57Z</time>
      </trkpt>
      <trkpt lat="45.50316" lon="6.73933">
        <ele>2184</ele>
        <time>2021-08-12T11:14:58Z</time>
      </trkpt>
      <trkpt lat="45.50316" lon="6.73932">
        <ele>2183.9</ele>
        <time>2021-08-12T11:14:59Z</time>
      </trkpt>
      <trkpt lat="45.50316" lon="6.73932">
        <ele>2183.8</ele>
        <time>2021-08-12T11:15:00Z</time>
      </trkpt>
      <trkpt lat="45.50317" lon="6.73932">
        <ele>2183.7</ele>
        <time>2021-08-12T11:15:01Z</time>
      </trkpt>
      <trkpt lat="45.50317" lon="6.73932">
        <ele>2183.6</ele>
        <time>2021-08-12T11:15:02Z</time>
      </trkpt>
      <trkpt lat="45.50317" lon="6.73931">
        <ele>2183.5</ele>
        <time>2021-08-12T11:15:03Z</time>
      </trkpt>
      <trkpt lat="45.50318" lon="6.73931">
        <ele>2183.4</ele>
        <time>2021-08-12T11:15:04Z</time>
      </trkpt>
      <trkpt lat="45.50318" lon="6.7393">
        <ele>2183.3</ele>
        <time>2021-08-12T11:15:05Z</time>
      </trkpt>
      <trkpt lat="45.50319" lon="6.7393">
        <ele>2183.1</ele>
        <time>2021-08-12T11:15:06Z</time>
      </trkpt>
      <trkpt lat="45.50319" lon="6.7393">
        <ele>2183</ele>
        <time>2021-08-12T11:15:07Z</time>
      </trkpt>
      <trkpt lat="45.5032" lon="6.73929">
        <ele>2182.9</ele>
        <time>2021-08-12T11:15:08Z</time>
      </trkpt>
      <trkpt lat="45.5032" lon="6.73929">
        <ele>2182.8</ele>
        <time>2021-08-12T11:15:09Z</time>
      </trkpt>
      <trkpt lat="45.5032" lon="6.73928">
        <ele>2182.7</ele>
        <time>2021-08-12T11:15:10Z</time>
      </trkpt>
      <trkpt lat="45.50321" lon="6.73928">
        <ele>2182.6</ele>
        <time>2021-08-12T11:15:11Z</time>
      </trkpt>
      <trkpt lat="45.50321" lon="6.73928">
        <ele>2182.5</ele>
        <time>2021-08-12T11:15:12Z</time>
      </trkpt>
      <trkpt lat="45.50321" lon="6.73927">
        <ele>2182.4</ele>
        <time>2021-08-12T11:15:13Z</time>
      </trkpt>
      <trkpt lat="45.50322" lon="6.73927">
        <ele>2182.3</ele>
        <time>2021-08-12T11:15:14Z</time>
      </trkpt>
      <trkpt lat="45.50322" lon="6.73926">
        <ele>2182.2</ele>
        <time>2021-08-12T11:15:15Z</time>
      </trkpt>
      <trkpt lat="45.50322" lon="6.73926">
        <ele>2182.1</ele>
        <time>2021-08-12T11:15:16Z</time>
      </trkpt>
      <trkpt lat="45.50323" lon="6.73925">
        <ele>2182</ele>
        <time>2021-08-12T11:15:17Z</time>
      </trkpt>
      <trkpt lat="45.50323" lon="6.73925">
        <ele>2181.9</ele>
        <time>2021-08-12T11:15:18Z</time>
      </trkpt>
      <trkpt lat="45.50323" lon="6.73924">
        <ele>2181.8</ele>
        <time>2021-08-12T11:15:19Z</time>
      </trkpt>
      <trkpt lat="45.50323" lon="6.73924">
        <ele>2181.7</ele>
        <time>2021-08-12T11:15:20Z</time>
      </trkpt>
      <trkpt lat="45.50324" lon="6.73923">
        <ele>2181.5</ele>
        <time>2021-08-12T11:15:21Z</time>
      </trkpt>
      <trkpt lat="45.50324" lon="6.73923">
        <ele>2181.4</ele>
        <time>2021-08-12T11:15:22Z</time>
      </trkpt>
      <trkpt lat="45.50324" lon="6.73922">
        <ele>2181.3</ele>
        <time>2021-08-12T11:15:23Z</time>
      </trkpt>
      <trkpt lat="45.50324" lon="6.73921">
        <ele>2181.2</ele>
        <time>2021-08-12T11:15:24Z</time>
      </trkpt>
      <trkpt lat="45.50325" lon="6.73921">
        <ele>2181.1</ele>
        <time>2021-08-12T11:15:25Z</time>
      </trkpt>
      <trkpt lat="45.50325" lon="6.7392">
        <ele>2180.9</ele>
        <time>2021-08-12T11:15:26Z</time>
      </trkpt>
      <trkpt lat="45.50325" lon="6.7392">
        <ele>2180.8</ele>
        <time>2021-08-12T11:15:27Z</time>
      </trkpt>
      <trkpt lat="45.50326" lon="6.73919">
        <ele>2180.7</ele>
        <time>2021-08-12T11:15:28Z</time>
      </trkpt>
      <trkpt lat="45.50326" lon="6.73918">
        <ele>2180.5</ele>
        <time>2021-08-12T11:15:29Z</time>
      </trkpt>
      <trkpt lat="45.50326" lon="6.73917">
        <ele>2180.4</ele>
        <time>2021-08-12T11:15:30Z</time>
      </trkpt>
      <trkpt lat="45.50327" lon="6.73917">
        <ele>2180.3</ele>
        <time>2021-08-12T11:15:31Z</time>
      </trkpt>
      <trkpt lat="45.50327" lon="6.73916">
        <ele>2180.1</ele>
        <time>2021-08-12T11:15:32Z</time>
      </trkpt>
      <trkpt lat="45.50327" lon="6.73915">
        <ele>2180</ele>
        <time>2021-08-12T11:15:33Z</time>
      </trkpt>
      <trkpt lat="45.50328" lon="6.73915">
        <ele>2179.9</ele>
        <time>2021-08-12T11:15:34Z</time>
      </trkpt>
      <trkpt lat="45.50328" lon="6.73914">
        <ele>2179.7</ele>
        <time>2021-08-12T11:15:35Z</time>
      </trkpt>
      <trkpt lat="45.50328" lon="6.73914">
        <ele>2179.6</ele>
        <time>2021-08-12T11:15:36Z</time>
      </trkpt>
      <trkpt lat="45.50328" lon="6.73913">
        <ele>2179.6</ele>
        <time>2021-08-12T11:15:37Z</time>
      </trkpt>
      <trkpt lat="45.50329" lon="6.73913">
        <ele>2179.5</ele>
        <time>2021-08-12T11:15:38Z</time>
      </trkpt>
      <trkpt lat="45.50329" lon="6.73912">
        <ele>2179.4</ele>
        <time>2021-08-12T11:15:39Z</time>
      </trkpt>
      <trkpt lat="45.50329" lon="6.73912">
        <ele>2179.4</ele>
        <time>2021-08-12T11:15:40Z</time>
      </trkpt>
      <trkpt lat="45.50329" lon="6.73912">
        <ele>2179.3</ele>
        <time>2021-08-12T11:15:41Z</time>
      </trkpt>
      <trkpt lat="45.50329" lon="6.73912">
        <ele>2179.3</ele>
        <time>2021-08-12T11:15:42Z</time>
      </trkpt>
      <trkpt lat="45.50329" lon="6.73912">
        <ele>2179.3</ele>
        <time>2021-08-12T11:15:43Z</time>
      </trkpt>
      <trkpt lat="45.50329" lon="6.73912">
        <ele>2179.3</ele>
        <time>2021-08-12T11:15:44Z</time>
      </trkpt>
      <trkpt lat="45.50329" lon="6.73912">
        <ele>2179.3</ele>
        <time>2021-08-12T11:15:45Z</time>
      </trkpt>
      <trkpt lat="45.50329" lon="6.73912">
        <ele>2179.3</ele>
        <time>2021-08-12T11:15:46Z</time>
      </trkpt>
      <trkpt lat="45.50329" lon="6.73912">
        <ele>2179.3</ele>
        <time>2021-08-12T11:15:47Z</time>
      </trkpt>
      <trkpt lat="45.50329" lon="6.73912">
        <ele>2179.3</ele>
        <time>2021-08-12T11:15:48Z</time>
      </trkpt>
      <trkpt lat="45.50329" lon="6.73912">
        <ele>2179.3</ele>
        <time>2021-08-12T11:15:49Z</time>
      </trkpt>
      <trkpt lat="45.50329" lon="6.73912">
        <ele>2179.3</ele>
        <time>2021-08-12T11:15:50Z</time>
      </trkpt>
      <trkpt lat="45.50329" lon="6.73912">
        <ele>2179.3</ele>
        <time>2021-08-12T11:15:51Z</time>
      </trkpt>
      <trkpt lat="45.50329" lon="6.73912">
        <ele>2179.3</ele>
        <time>2021-08-12T11:15:52Z</time>
      </trkpt>
      <trkpt lat="45.50329" lon="6.73912">
        <ele>2179.3</ele>
        <time>2021-08-12T11:15:53Z</time>
      </trkpt>
      <trkpt lat="45.50329" lon="6.73912">
        <ele>2179.3</ele>
        <time>2021-08-12T11:15:54Z</time>
      </trkpt>
      <trkpt lat="45.50329" lon="6.73912">
        <ele>2179.3</ele>
        <time>2021-08-12T11:15:55Z</time>
      </trkpt>
      <trkpt lat="45.50329" lon="6.73912">
        <ele>2179.3</ele>
        <time>2021-08-12T11:15:56Z</time>
      </trkpt>
      <trkpt lat="45.50329" lon="6.73912">
        <ele>2179.3</ele>
        <time>2021-08-12T11:15:57Z</time>
      </trkpt>
      <trkpt lat="45.50329" lon="6.73912">
        <ele>2179.2</ele>
        <time>2021-08-12T11:15:58Z</time>
      </trkpt>
      <trkpt lat="45.50329" lon="6.73912">
        <ele>2179.2</ele>
        <time>2021-08-12T11:15:59Z</time>
      </trkpt>
      <trkpt lat="45.50329" lon="6.73912">
        <ele>2179.2</ele>
        <time>2021-08-12T11:16:00Z</time>
      </trkpt>
      <trkpt lat="45.50329" lon="6.73912">
        <ele>2179.2</ele>
        <time>2021-08-12T11:16:01Z</time>
      </trkpt>
      <trkpt lat="45.50329" lon="6.73912">
        <ele>2179.2</ele>
        <time>2021-08-12T11:16:02Z</time>
      </trkpt>
      <trkpt lat="45.50329" lon="6.73912">
        <ele>2179.2</ele>
        <time>2021-08-12T11:16:03Z</time>
      </trkpt>
      <trkpt lat="45.50329" lon="6.73912">
        <ele>2179.2</ele>
        <time>2021-08-12T11:16:04Z</time>
      </trkpt>
      <trkpt lat="45.50329" lon="6.73912">
        <ele>2179.2</ele>
        <time>2021-08-12T11:16:05Z</time>
      </trkpt>
      <trkpt lat="45.50329" lon="6.73912">
        <ele>2179.2</ele>
        <time>2021-08-12T11:16:06Z</time>
      </trkpt>
      <trkpt lat="45.50329" lon="6.73912">
        <ele>2179.2</ele>
        <time>2021-08-12T11:16:07Z</time>
      </trkpt>
      <trkpt lat="45.50329" lon="6.73912">
        <ele>2179.2</ele>
        <time>2021-08-12T11:16:08Z</time>
      </trkpt>
      <trkpt lat="45.50329" lon="6.73912">
        <ele>2179.2</ele>
        <time>2021-08-12T11:16:09Z</time>
      </trkpt>
      <trkpt lat="45.50329" lon="6.73912">
        <ele>2179.2</ele>
        <time>2021-08-12T11:16:10Z</time>
      </trkpt>
      <trkpt lat="45.50329" lon="6.73912">
        <ele>2179.2</ele>
        <time>2021-08-12T11:16:11Z</time>
      </trkpt>
      <trkpt lat="45.50329" lon="6.73912">
        <ele>2179.2</ele>
        <time>2021-08-12T11:16:12Z</time>
      </trkpt>
      <trkpt lat="45.50329" lon="6.73912">
        <ele>2179.2</ele>
        <time>2021-08-12T11:16:13Z</time>
      </trkpt>
      <trkpt lat="45.50329" lon="6.73912">
        <ele>2179.2</ele>
        <time>2021-08-12T11:16:14Z</time>
      </trkpt>
      <trkpt lat="45.50329" lon="6.73912">
        <ele>2179.2</ele>
        <time>2021-08-12T11:16:15Z</time>
      </trkpt>
      <trkpt lat="45.50329" lon="6.73912">
        <ele>2179.2</ele>
        <time>2021-08-12T11:16:16Z</time>
      </trkpt>
      <trkpt lat="45.50329" lon="6.73912">
        <ele>2179.2</ele>
        <time>2021-08-12T11:16:17Z</time>
      </trkpt>
      <trkpt lat="45.50329" lon="6.73912">
        <ele>2179.2</ele>
        <time>2021-08-12T11:16:18Z</time>
      </trkpt>
      <trkpt lat="45.50329" lon="6.73912">
        <ele>2179.2</ele>
        <time>2021-08-12T11:16:19Z</time>
      </trkpt>
      <trkpt lat="45.50329" lon="6.73912">
        <ele>2179.2</ele>
        <time>2021-08-12T11:16:20Z</time>
      </trkpt>
      <trkpt lat="45.50329" lon="6.73912">
        <ele>2179.2</ele>
        <time>2021-08-12T11:16:21Z</time>
      </trkpt>
      <trkpt lat="45.50329" lon="6.73912">
        <ele>2179.2</ele>
        <time>2021-08-12T11:16:22Z</time>
      </trkpt>
      <trkpt lat="45.50329" lon="6.73912">
        <ele>2179.2</ele>
        <time>2021-08-12T11:16:23Z</time>
      </trkpt>
      <trkpt lat="45.50329" lon="6.73912">
        <ele>2179.2</ele>
        <time>2021-08-12T11:16:24Z</time>
      </trkpt>
      <trkpt lat="45.50329" lon="6.73912">
        <ele>2179.2</ele>
        <time>2021-08-12T11:16:25Z</time>
      </trkpt>
      <trkpt lat="45.50329" lon="6.73912">
        <ele>2179.2</ele>
        <time>2021-08-12T11:16:26Z</time>
      </trkpt>
      <trkpt lat="45.50329" lon="6.73912">
        <ele>2179.2</ele>
        <time>2021-08-12T11:16:27Z</time>
      </trkpt>
      <trkpt lat="45.50329" lon="6.73912">
        <ele>2179.2</ele>
        <time>2021-08-12T11:16:28Z</time>
      </trkpt>
      <trkpt lat="45.50329" lon="6.73911">
        <ele>2179.2</ele>
        <time>2021-08-12T11:16:29Z</time>
      </trkpt>
      <trkpt lat="45.50329" lon="6.73911">
        <ele>2179.2</ele>
        <time>2021-08-12T11:16:30Z</time>
      </trkpt>
      <trkpt lat="45.50329" lon="6.73911">
        <ele>2179.1</ele>
        <time>2021-08-12T11:16:31Z</time>
      </trkpt>
      <trkpt lat="45.50329" lon="6.73911">
        <ele>2179.1</ele>
        <time>2021-08-12T11:16:32Z</time>
      </trkpt>
      <trkpt lat="45.50329" lon="6.73911">
        <ele>2179.1</ele>
        <time>2021-08-12T11:16:33Z</time>
      </trkpt>
      <trkpt lat="45.50329" lon="6.73911">
        <ele>2179.1</ele>
        <time>2021-08-12T11:16:34Z</time>
      </trkpt>
      <trkpt lat="45.50329" lon="6.73911">
        <ele>2179.1</ele>
        <time>2021-08-12T11:16:35Z</time>
      </trkpt>
      <trkpt lat="45.50329" lon="6.73911">
        <ele>2179</ele>
        <time>2021-08-12T11:16:36Z</time>
      </trkpt>
      <trkpt lat="45.50329" lon="6.7391">
        <ele>2179</ele>
        <time>2021-08-12T11:16:37Z</time>
      </trkpt>
      <trkpt lat="45.50329" lon="6.7391">
        <ele>2179</ele>
        <time>2021-08-12T11:16:38Z</time>
      </trkpt>
      <trkpt lat="45.50329" lon="6.7391">
        <ele>2178.9</ele>
        <time>2021-08-12T11:16:39Z</time>
      </trkpt>
      <trkpt lat="45.50329" lon="6.7391">
        <ele>2178.9</ele>
        <time>2021-08-12T11:16:40Z</time>
      </trkpt>
      <trkpt lat="45.50329" lon="6.73909">
        <ele>2178.8</ele>
        <time>2021-08-12T11:16:41Z</time>
      </trkpt>
      <trkpt lat="45.5033" lon="6.73909">
        <ele>2178.7</ele>
        <time>2021-08-12T11:16:42Z</time>
      </trkpt>
      <trkpt lat="45.5033" lon="6.73908">
        <ele>2178.6</ele>
        <time>2021-08-12T11:16:43Z</time>
      </trkpt>
      <trkpt lat="45.5033" lon="6.73908">
        <ele>2178.5</ele>
        <time>2021-08-12T11:16:44Z</time>
      </trkpt>
      <trkpt lat="45.5033" lon="6.73907">
        <ele>2178.4</ele>
        <time>2021-08-12T11:16:45Z</time>
      </trkpt>
      <trkpt lat="45.5033" lon="6.73906">
        <ele>2178.2</ele>
        <time>2021-08-12T11:16:46Z</time>
      </trkpt>
      <trkpt lat="45.5033" lon="6.73905">
        <ele>2178.1</ele>
        <time>2021-08-12T11:16:47Z</time>
      </trkpt>
      <trkpt lat="45.5033" lon="6.73904">
        <ele>2177.9</ele>
        <time>2021-08-12T11:16:48Z</time>
      </trkpt>
      <trkpt lat="45.5033" lon="6.73903">
        <ele>2177.8</ele>
        <time>2021-08-12T11:16:49Z</time>
      </trkpt>
      <trkpt lat="45.5033" lon="6.73902">
        <ele>2177.6</ele>
        <time>2021-08-12T11:16:50Z</time>
      </trkpt>
      <trkpt lat="45.5033" lon="6.73902">
        <ele>2177.5</ele>
        <time>2021-08-12T11:16:51Z</time>
      </trkpt>
      <trkpt lat="45.5033" lon="6.73901">
        <ele>2177.5</ele>
        <time>2021-08-12T11:16:52Z</time>
      </trkpt>
      <trkpt lat="45.5033" lon="6.73901">
        <ele>2177.4</ele>
        <time>2021-08-12T11:16:53Z</time>
      </trkpt>
      <trkpt lat="45.5033" lon="6.73901">
        <ele>2177.4</ele>
        <time>2021-08-12T11:16:54Z</time>
      </trkpt>
      <trkpt lat="45.5033" lon="6.73901">
        <ele>2177.4</ele>
        <time>2021-08-12T11:16:55Z</time>
      </trkpt>
      <trkpt lat="45.5033" lon="6.73901">
        <ele>2177.3</ele>
        <time>2021-08-12T11:16:56Z</time>
      </trkpt>
      <trkpt lat="45.5033" lon="6.73901">
        <ele>2177.3</ele>
        <time>2021-08-12T11:16:57Z</time>
      </trkpt>
      <trkpt lat="45.5033" lon="6.73901">
        <ele>2177.3</ele>
        <time>2021-08-12T11:16:58Z</time>
      </trkpt>
      <trkpt lat="45.5033" lon="6.73901">
        <ele>2177.3</ele>
        <time>2021-08-12T11:16:59Z</time>
      </trkpt>
      <trkpt lat="45.5033" lon="6.73901">
        <ele>2177.3</ele>
        <time>2021-08-12T11:17:00Z</time>
      </trkpt>
      <trkpt lat="45.5033" lon="6.739">
        <ele>2177.2</ele>
        <time>2021-08-12T11:17:01Z</time>
      </trkpt>
      <trkpt lat="45.5033" lon="6.739">
        <ele>2177.2</ele>
        <time>2021-08-12T11:17:02Z</time>
      </trkpt>
      <trkpt lat="45.5033" lon="6.73899">
        <ele>2177.1</ele>
        <time>2021-08-12T11:17:03Z</time>
      </trkpt>
      <trkpt lat="45.5033" lon="6.73899">
        <ele>2177</ele>
        <time>2021-08-12T11:17:04Z</time>
      </trkpt>
      <trkpt lat="45.5033" lon="6.73898">
        <ele>2176.9</ele>
        <time>2021-08-12T11:17:05Z</time>
      </trkpt>
      <trkpt lat="45.5033" lon="6.73898">
        <ele>2176.8</ele>
        <time>2021-08-12T11:17:06Z</time>
      </trkpt>
      <trkpt lat="45.5033" lon="6.73897">
        <ele>2176.7</ele>
        <time>2021-08-12T11:17:07Z</time>
      </trkpt>
      <trkpt lat="45.5033" lon="6.73896">
        <ele>2176.6</ele>
        <time>2021-08-12T11:17:08Z</time>
      </trkpt>
      <trkpt lat="45.50331" lon="6.73896">
        <ele>2176.5</ele>
        <time>2021-08-12T11:17:09Z</time>
      </trkpt>
      <trkpt lat="45.50331" lon="6.73895">
        <ele>2176.3</ele>
        <time>2021-08-12T11:17:10Z</time>
      </trkpt>
      <trkpt lat="45.50331" lon="6.73894">
        <ele>2176.2</ele>
        <time>2021-08-12T11:17:11Z</time>
      </trkpt>
      <trkpt lat="45.50331" lon="6.73894">
        <ele>2176.1</ele>
        <time>2021-08-12T11:17:12Z</time>
      </trkpt>
      <trkpt lat="45.50331" lon="6.73893">
        <ele>2176</ele>
        <time>2021-08-12T11:17:13Z</time>
      </trkpt>
      <trkpt lat="45.50331" lon="6.73892">
        <ele>2175.8</ele>
        <time>2021-08-12T11:17:14Z</time>
      </trkpt>
      <trkpt lat="45.50332" lon="6.73892">
        <ele>2175.7</ele>
        <time>2021-08-12T11:17:15Z</time>
      </trkpt>
      <trkpt lat="45.50332" lon="6.73891">
        <ele>2175.6</ele>
        <time>2021-08-12T11:17:16Z</time>
      </trkpt>
      <trkpt lat="45.50332" lon="6.7389">
        <ele>2175.4</ele>
        <time>2021-08-12T11:17:17Z</time>
      </trkpt>
      <trkpt lat="45.50332" lon="6.7389">
        <ele>2175.3</ele>
        <time>2021-08-12T11:17:18Z</time>
      </trkpt>
      <trkpt lat="45.50333" lon="6.73889">
        <ele>2175.1</ele>
        <time>2021-08-12T11:17:19Z</time>
      </trkpt>
      <trkpt lat="45.50333" lon="6.73888">
        <ele>2175</ele>
        <time>2021-08-12T11:17:20Z</time>
      </trkpt>
      <trkpt lat="45.50333" lon="6.73888">
        <ele>2174.9</ele>
        <time>2021-08-12T11:17:21Z</time>
      </trkpt>
      <trkpt lat="45.50334" lon="6.73887">
        <ele>2174.7</ele>
        <time>2021-08-12T11:17:22Z</time>
      </trkpt>
      <trkpt lat="45.50334" lon="6.73887">
        <ele>2174.6</ele>
        <time>2021-08-12T11:17:23Z</time>
      </trkpt>
      <trkpt lat="45.50334" lon="6.73886">
        <ele>2174.5</ele>
        <time>2021-08-12T11:17:24Z</time>
      </trkpt>
      <trkpt lat="45.50335" lon="6.73886">
        <ele>2174.4</ele>
        <time>2021-08-12T11:17:25Z</time>
      </trkpt>
      <trkpt lat="45.50335" lon="6.73885">
        <ele>2174.3</ele>
        <time>2021-08-12T11:17:26Z</time>
      </trkpt>
      <trkpt lat="45.50335" lon="6.73885">
        <ele>2174.2</ele>
        <time>2021-08-12T11:17:27Z</time>
      </trkpt>
      <trkpt lat="45.50335" lon="6.73885">
        <ele>2174.1</ele>
        <time>2021-08-12T11:17:28Z</time>
      </trkpt>
      <trkpt lat="45.50336" lon="6.73884">
        <ele>2174</ele>
        <time>2021-08-12T11:17:29Z</time>
      </trkpt>
      <trkpt lat="45.50336" lon="6.73884">
        <ele>2173.9</ele>
        <time>2021-08-12T11:17:30Z</time>
      </trkpt>
      <trkpt lat="45.50336" lon="6.73883">
        <ele>2173.8</ele>
        <time>2021-08-12T11:17:31Z</time>
      </trkpt>
      <trkpt lat="45.50336" lon="6.73883">
        <ele>2173.7</ele>
        <time>2021-08-12T11:17:32Z</time>
      </trkpt>
      <trkpt lat="45.50336" lon="6.73882">
        <ele>2173.5</ele>
        <time>2021-08-12T11:17:33Z</time>
      </trkpt>
      <trkpt lat="45.50336" lon="6.73881">
        <ele>2173.3</ele>
        <time>2021-08-12T11:17:34Z</time>
      </trkpt>
      <trkpt lat="45.50336" lon="6.7388">
        <ele>2173.1</ele>
        <time>2021-08-12T11:17:35Z</time>
      </trkpt>
      <trkpt lat="45.50336" lon="6.73879">
        <ele>2172.9</ele>
        <time>2021-08-12T11:17:36Z</time>
      </trkpt>
      <trkpt lat="45.50336" lon="6.73877">
        <ele>2172.6</ele>
        <time>2021-08-12T11:17:37Z</time>
      </trkpt>
      <trkpt lat="45.50335" lon="6.73876">
        <ele>2172.4</ele>
        <time>2021-08-12T11:17:38Z</time>
      </trkpt>
      <trkpt lat="45.50335" lon="6.73875">
        <ele>2172.1</ele>
        <time>2021-08-12T11:17:39Z</time>
      </trkpt>
      <trkpt lat="45.50335" lon="6.73873">
        <ele>2171.9</ele>
        <time>2021-08-12T11:17:40Z</time>
      </trkpt>
      <trkpt lat="45.50336" lon="6.73872">
        <ele>2171.6</ele>
        <time>2021-08-12T11:17:41Z</time>
      </trkpt>
      <trkpt lat="45.50336" lon="6.73871">
        <ele>2171.4</ele>
        <time>2021-08-12T11:17:42Z</time>
      </trkpt>
      <trkpt lat="45.50336" lon="6.7387">
        <ele>2171.2</ele>
        <time>2021-08-12T11:17:43Z</time>
      </trkpt>
      <trkpt lat="45.50336" lon="6.73869">
        <ele>2171</ele>
        <time>2021-08-12T11:17:44Z</time>
      </trkpt>
      <trkpt lat="45.50337" lon="6.73869">
        <ele>2170.8</ele>
        <time>2021-08-12T11:17:45Z</time>
      </trkpt>
      <trkpt lat="45.50337" lon="6.73868">
        <ele>2170.6</ele>
        <time>2021-08-12T11:17:46Z</time>
      </trkpt>
      <trkpt lat="45.50338" lon="6.73867">
        <ele>2170.4</ele>
        <time>2021-08-12T11:17:47Z</time>
      </trkpt>
      <trkpt lat="45.50338" lon="6.73867">
        <ele>2170.2</ele>
        <time>2021-08-12T11:17:48Z</time>
      </trkpt>
      <trkpt lat="45.50339" lon="6.73866">
        <ele>2170</ele>
        <time>2021-08-12T11:17:49Z</time>
      </trkpt>
      <trkpt lat="45.50339" lon="6.73866">
        <ele>2169.8</ele>
        <time>2021-08-12T11:17:50Z</time>
      </trkpt>
      <trkpt lat="45.5034" lon="6.73865">
        <ele>2169.7</ele>
        <time>2021-08-12T11:17:51Z</time>
      </trkpt>
      <trkpt lat="45.50341" lon="6.73865">
        <ele>2169.5</ele>
        <time>2021-08-12T11:17:52Z</time>
      </trkpt>
      <trkpt lat="45.50341" lon="6.73865">
        <ele>2169.3</ele>
        <time>2021-08-12T11:17:53Z</time>
      </trkpt>
      <trkpt lat="45.50342" lon="6.73865">
        <ele>2169.1</ele>
        <time>2021-08-12T11:17:54Z</time>
      </trkpt>
      <trkpt lat="45.50343" lon="6.73864">
        <ele>2168.9</ele>
        <time>2021-08-12T11:17:55Z</time>
      </trkpt>
      <trkpt lat="45.50343" lon="6.73864">
        <ele>2168.7</ele>
        <time>2021-08-12T11:17:56Z</time>
      </trkpt>
      <trkpt lat="45.50344" lon="6.73864">
        <ele>2168.5</ele>
        <time>2021-08-12T11:17:57Z</time>
      </trkpt>
      <trkpt lat="45.50345" lon="6.73864">
        <ele>2168.1</ele>
        <time>2021-08-12T11:17:58Z</time>
      </trkpt>
      <trkpt lat="45.50346" lon="6.73864">
        <ele>2167.9</ele>
        <time>2021-08-12T11:17:59Z</time>
      </trkpt>
      <trkpt lat="45.50347" lon="6.73864">
        <ele>2167.7</ele>
        <time>2021-08-12T11:18:00Z</time>
      </trkpt>
      <trkpt lat="45.50348" lon="6.73864">
        <ele>2167.5</ele>
        <time>2021-08-12T11:18:01Z</time>
      </trkpt>
      <trkpt lat="45.50348" lon="6.73865">
        <ele>2167.3</ele>
        <time>2021-08-12T11:18:02Z</time>
      </trkpt>
      <trkpt lat="45.50349" lon="6.73865">
        <ele>2167</ele>
        <time>2021-08-12T11:18:03Z</time>
      </trkpt>
      <trkpt lat="45.5035" lon="6.73865">
        <ele>2166.8</ele>
        <time>2021-08-12T11:18:04Z</time>
      </trkpt>
      <trkpt lat="45.50351" lon="6.73865">
        <ele>2166.6</ele>
        <time>2021-08-12T11:18:05Z</time>
      </trkpt>
      <trkpt lat="45.50352" lon="6.73865">
        <ele>2166.4</ele>
        <time>2021-08-12T11:18:06Z</time>
      </trkpt>
      <trkpt lat="45.50352" lon="6.73865">
        <ele>2166.2</ele>
        <time>2021-08-12T11:18:07Z</time>
      </trkpt>
      <trkpt lat="45.50353" lon="6.73865">
        <ele>2165.9</ele>
        <time>2021-08-12T11:18:08Z</time>
      </trkpt>
      <trkpt lat="45.50354" lon="6.73865">
        <ele>2165.7</ele>
        <time>2021-08-12T11:18:09Z</time>
      </trkpt>
      <trkpt lat="45.50355" lon="6.73865">
        <ele>2165.5</ele>
        <time>2021-08-12T11:18:10Z</time>
      </trkpt>
      <trkpt lat="45.50355" lon="6.73865">
        <ele>2165.3</ele>
        <time>2021-08-12T11:18:11Z</time>
      </trkpt>
      <trkpt lat="45.50356" lon="6.73866">
        <ele>2165.1</ele>
        <time>2021-08-12T11:18:12Z</time>
      </trkpt>
      <trkpt lat="45.50357" lon="6.73866">
        <ele>2164.9</ele>
        <time>2021-08-12T11:18:13Z</time>
      </trkpt>
      <trkpt lat="45.50358" lon="6.73866">
        <ele>2164.7</ele>
        <time>2021-08-12T11:18:14Z</time>
      </trkpt>
      <trkpt lat="45.50358" lon="6.73866">
        <ele>2164.5</ele>
        <time>2021-08-12T11:18:15Z</time>
      </trkpt>
      <trkpt lat="45.50359" lon="6.73866">
        <ele>2164.2</ele>
        <time>2021-08-12T11:18:16Z</time>
      </trkpt>
      <trkpt lat="45.5036" lon="6.73866">
        <ele>2164</ele>
        <time>2021-08-12T11:18:17Z</time>
      </trkpt>
      <trkpt lat="45.50361" lon="6.73866">
        <ele>2163.8</ele>
        <time>2021-08-12T11:18:18Z</time>
      </trkpt>
      <trkpt lat="45.50362" lon="6.73866">
        <ele>2163.6</ele>
        <time>2021-08-12T11:18:19Z</time>
      </trkpt>
      <trkpt lat="45.50362" lon="6.73866">
        <ele>2163.4</ele>
        <time>2021-08-12T11:18:20Z</time>
      </trkpt>
      <trkpt lat="45.50363" lon="6.73866">
        <ele>2163.2</ele>
        <time>2021-08-12T11:18:21Z</time>
      </trkpt>
      <trkpt lat="45.50364" lon="6.73867">
        <ele>2163</ele>
        <time>2021-08-12T11:18:22Z</time>
      </trkpt>
      <trkpt lat="45.50365" lon="6.73867">
        <ele>2162.8</ele>
        <time>2021-08-12T11:18:23Z</time>
      </trkpt>
      <trkpt lat="45.50365" lon="6.73867">
        <ele>2162.5</ele>
        <time>2021-08-12T11:18:24Z</time>
      </trkpt>
      <trkpt lat="45.50366" lon="6.73867">
        <ele>2162.3</ele>
        <time>2021-08-12T11:18:25Z</time>
      </trkpt>
      <trkpt lat="45.50367" lon="6.73867">
        <ele>2162.1</ele>
        <time>2021-08-12T11:18:26Z</time>
      </trkpt>
      <trkpt lat="45.50368" lon="6.73867">
        <ele>2161.9</ele>
        <time>2021-08-12T11:18:27Z</time>
      </trkpt>
      <trkpt lat="45.50368" lon="6.73867">
        <ele>2161.7</ele>
        <time>2021-08-12T11:18:28Z</time>
      </trkpt>
      <trkpt lat="45.50369" lon="6.73867">
        <ele>2161.5</ele>
        <time>2021-08-12T11:18:29Z</time>
      </trkpt>
      <trkpt lat="45.5037" lon="6.73867">
        <ele>2161.3</ele>
        <time>2021-08-12T11:18:30Z</time>
      </trkpt>
      <trkpt lat="45.50371" lon="6.73867">
        <ele>2161.1</ele>
        <time>2021-08-12T11:18:31Z</time>
      </trkpt>
      <trkpt lat="45.50372" lon="6.73867">
        <ele>2160.9</ele>
        <time>2021-08-12T11:18:32Z</time>
      </trkpt>
      <trkpt lat="45.50372" lon="6.73868">
        <ele>2160.7</ele>
        <time>2021-08-12T11:18:33Z</time>
      </trkpt>
      <trkpt lat="45.50373" lon="6.73868">
        <ele>2160.5</ele>
        <time>2021-08-12T11:18:34Z</time>
      </trkpt>
      <trkpt lat="45.50374" lon="6.73868">
        <ele>2160.3</ele>
        <time>2021-08-12T11:18:35Z</time>
      </trkpt>
      <trkpt lat="45.50375" lon="6.73868">
        <ele>2160.1</ele>
        <time>2021-08-12T11:18:36Z</time>
      </trkpt>
      <trkpt lat="45.50375" lon="6.73868">
        <ele>2159.9</ele>
        <time>2021-08-12T11:18:37Z</time>
      </trkpt>
      <trkpt lat="45.50376" lon="6.73868">
        <ele>2159.7</ele>
        <time>2021-08-12T11:18:38Z</time>
      </trkpt>
      <trkpt lat="45.50377" lon="6.73868">
        <ele>2159.5</ele>
        <time>2021-08-12T11:18:39Z</time>
      </trkpt>
      <trkpt lat="45.50378" lon="6.73868">
        <ele>2159.3</ele>
        <time>2021-08-12T11:18:40Z</time>
      </trkpt>
      <trkpt lat="45.50378" lon="6.73868">
        <ele>2159.1</ele>
        <time>2021-08-12T11:18:41Z</time>
      </trkpt>
      <trkpt lat="45.50379" lon="6.73868">
        <ele>2158.9</ele>
        <time>2021-08-12T11:18:42Z</time>
      </trkpt>
      <trkpt lat="45.5038" lon="6.73869">
        <ele>2158.7</ele>
        <time>2021-08-12T11:18:43Z</time>
      </trkpt>
      <trkpt lat="45.50381" lon="6.73869">
        <ele>2158.5</ele>
        <time>2021-08-12T11:18:44Z</time>
      </trkpt>
      <trkpt lat="45.50382" lon="6.73869">
        <ele>2158.3</ele>
        <time>2021-08-12T11:18:45Z</time>
      </trkpt>
      <trkpt lat="45.50382" lon="6.73869">
        <ele>2158.1</ele>
        <time>2021-08-12T11:18:46Z</time>
      </trkpt>
      <trkpt lat="45.50383" lon="6.73869">
        <ele>2157.9</ele>
        <time>2021-08-12T11:18:47Z</time>
      </trkpt>
      <trkpt lat="45.50384" lon="6.73869">
        <ele>2157.7</ele>
        <time>2021-08-12T11:18:48Z</time>
      </trkpt>
      <trkpt lat="45.50385" lon="6.73869">
        <ele>2157.5</ele>
        <time>2021-08-12T11:18:49Z</time>
      </trkpt>
      <trkpt lat="45.50385" lon="6.73869">
        <ele>2157.4</ele>
        <time>2021-08-12T11:18:50Z</time>
      </trkpt>
      <trkpt lat="45.50386" lon="6.73869">
        <ele>2157.2</ele>
        <time>2021-08-12T11:18:51Z</time>
      </trkpt>
      <trkpt lat="45.50387" lon="6.73869">
        <ele>2157</ele>
        <time>2021-08-12T11:18:52Z</time>
      </trkpt>
      <trkpt lat="45.50388" lon="6.7387">
        <ele>2156.8</ele>
        <time>2021-08-12T11:18:53Z</time>
      </trkpt>
      <trkpt lat="45.50388" lon="6.7387">
        <ele>2156.6</ele>
        <time>2021-08-12T11:18:54Z</time>
      </trkpt>
      <trkpt lat="45.50389" lon="6.7387">
        <ele>2156.5</ele>
        <time>2021-08-12T11:18:55Z</time>
      </trkpt>
      <trkpt lat="45.5039" lon="6.7387">
        <ele>2156.3</ele>
        <time>2021-08-12T11:18:56Z</time>
      </trkpt>
      <trkpt lat="45.50391" lon="6.7387">
        <ele>2156.1</ele>
        <time>2021-08-12T11:18:57Z</time>
      </trkpt>
      <trkpt lat="45.50392" lon="6.7387">
        <ele>2155.9</ele>
        <time>2021-08-12T11:18:58Z</time>
      </trkpt>
      <trkpt lat="45.50392" lon="6.7387">
        <ele>2155.7</ele>
        <time>2021-08-12T11:18:59Z</time>
      </trkpt>
      <trkpt lat="45.50393" lon="6.7387">
        <ele>2155.6</ele>
        <time>2021-08-12T11:19:00Z</time>
      </trkpt>
      <trkpt lat="45.50394" lon="6.7387">
        <ele>2155.4</ele>
        <time>2021-08-12T11:19:01Z</time>
      </trkpt>
      <trkpt lat="45.50395" lon="6.7387">
        <ele>2155.2</ele>
        <time>2021-08-12T11:19:02Z</time>
      </trkpt>
      <trkpt lat="45.50396" lon="6.7387">
        <ele>2155</ele>
        <time>2021-08-12T11:19:03Z</time>
      </trkpt>
      <trkpt lat="45.50396" lon="6.7387">
        <ele>2154.8</ele>
        <time>2021-08-12T11:19:04Z</time>
      </trkpt>
      <trkpt lat="45.50397" lon="6.7387">
        <ele>2154.6</ele>
        <time>2021-08-12T11:19:05Z</time>
      </trkpt>
      <trkpt lat="45.50398" lon="6.73869">
        <ele>2154.4</ele>
        <time>2021-08-12T11:19:06Z</time>
      </trkpt>
      <trkpt lat="45.50399" lon="6.73869">
        <ele>2154.2</ele>
        <time>2021-08-12T11:19:07Z</time>
      </trkpt>
      <trkpt lat="45.504" lon="6.73869">
        <ele>2154.1</ele>
        <time>2021-08-12T11:19:08Z</time>
      </trkpt>
      <trkpt lat="45.50401" lon="6.73869">
        <ele>2153.9</ele>
        <time>2021-08-12T11:19:09Z</time>
      </trkpt>
      <trkpt lat="45.50401" lon="6.73869">
        <ele>2153.7</ele>
        <time>2021-08-12T11:19:10Z</time>
      </trkpt>
      <trkpt lat="45.50402" lon="6.73869">
        <ele>2153.6</ele>
        <time>2021-08-12T11:19:11Z</time>
      </trkpt>
      <trkpt lat="45.50403" lon="6.73868">
        <ele>2153.4</ele>
        <time>2021-08-12T11:19:12Z</time>
      </trkpt>
      <trkpt lat="45.50404" lon="6.73868">
        <ele>2153.3</ele>
        <time>2021-08-12T11:19:13Z</time>
      </trkpt>
      <trkpt lat="45.50404" lon="6.73868">
        <ele>2153.1</ele>
        <time>2021-08-12T11:19:14Z</time>
      </trkpt>
      <trkpt lat="45.50405" lon="6.73868">
        <ele>2153</ele>
        <time>2021-08-12T11:19:15Z</time>
      </trkpt>
      <trkpt lat="45.50406" lon="6.73868">
        <ele>2152.8</ele>
        <time>2021-08-12T11:19:16Z</time>
      </trkpt>
      <trkpt lat="45.50407" lon="6.73867">
        <ele>2152.7</ele>
        <time>2021-08-12T11:19:17Z</time>
      </trkpt>
      <trkpt lat="45.50407" lon="6.73867">
        <ele>2152.6</ele>
        <time>2021-08-12T11:19:18Z</time>
      </trkpt>
      <trkpt lat="45.50408" lon="6.73867">
        <ele>2152.5</ele>
        <time>2021-08-12T11:19:19Z</time>
      </trkpt>
      <trkpt lat="45.50409" lon="6.73867">
        <ele>2152.3</ele>
        <time>2021-08-12T11:19:20Z</time>
      </trkpt>
      <trkpt lat="45.50409" lon="6.73866">
        <ele>2152.2</ele>
        <time>2021-08-12T11:19:21Z</time>
      </trkpt>
      <trkpt lat="45.5041" lon="6.73866">
        <ele>2152.1</ele>
        <time>2021-08-12T11:19:22Z</time>
      </trkpt>
      <trkpt lat="45.5041" lon="6.73866">
        <ele>2152</ele>
        <time>2021-08-12T11:19:23Z</time>
      </trkpt>
      <trkpt lat="45.50411" lon="6.73865">
        <ele>2151.9</ele>
        <time>2021-08-12T11:19:24Z</time>
      </trkpt>
      <trkpt lat="45.50412" lon="6.73865">
        <ele>2151.8</ele>
        <time>2021-08-12T11:19:25Z</time>
      </trkpt>
      <trkpt lat="45.50412" lon="6.73865">
        <ele>2151.7</ele>
        <time>2021-08-12T11:19:26Z</time>
      </trkpt>
      <trkpt lat="45.50413" lon="6.73864">
        <ele>2151.6</ele>
        <time>2021-08-12T11:19:27Z</time>
      </trkpt>
      <trkpt lat="45.50413" lon="6.73864">
        <ele>2151.5</ele>
        <time>2021-08-12T11:19:28Z</time>
      </trkpt>
      <trkpt lat="45.50414" lon="6.73864">
        <ele>2151.4</ele>
        <time>2021-08-12T11:19:29Z</time>
      </trkpt>
      <trkpt lat="45.50414" lon="6.73863">
        <ele>2151.3</ele>
        <time>2021-08-12T11:19:30Z</time>
      </trkpt>
      <trkpt lat="45.50415" lon="6.73863">
        <ele>2151.2</ele>
        <time>2021-08-12T11:19:31Z</time>
      </trkpt>
      <trkpt lat="45.50416" lon="6.73862">
        <ele>2151.1</ele>
        <time>2021-08-12T11:19:32Z</time>
      </trkpt>
      <trkpt lat="45.50416" lon="6.73862">
        <ele>2151</ele>
        <time>2021-08-12T11:19:33Z</time>
      </trkpt>
      <trkpt lat="45.50417" lon="6.73861">
        <ele>2150.9</ele>
        <time>2021-08-12T11:19:34Z</time>
      </trkpt>
      <trkpt lat="45.50417" lon="6.73861">
        <ele>2150.8</ele>
        <time>2021-08-12T11:19:35Z</time>
      </trkpt>
      <trkpt lat="45.50418" lon="6.73861">
        <ele>2150.7</ele>
        <time>2021-08-12T11:19:36Z</time>
      </trkpt>
      <trkpt lat="45.50418" lon="6.7386">
        <ele>2150.6</ele>
        <time>2021-08-12T11:19:37Z</time>
      </trkpt>
      <trkpt lat="45.50419" lon="6.7386">
        <ele>2150.5</ele>
        <time>2021-08-12T11:19:38Z</time>
      </trkpt>
      <trkpt lat="45.50419" lon="6.73859">
        <ele>2150.4</ele>
        <time>2021-08-12T11:19:39Z</time>
      </trkpt>
      <trkpt lat="45.5042" lon="6.73859">
        <ele>2150.3</ele>
        <time>2021-08-12T11:19:40Z</time>
      </trkpt>
      <trkpt lat="45.5042" lon="6.73859">
        <ele>2150.3</ele>
        <time>2021-08-12T11:19:41Z</time>
      </trkpt>
      <trkpt lat="45.50421" lon="6.73858">
        <ele>2150.2</ele>
        <time>2021-08-12T11:19:42Z</time>
      </trkpt>
      <trkpt lat="45.50421" lon="6.73858">
        <ele>2150.1</ele>
        <time>2021-08-12T11:19:43Z</time>
      </trkpt>
      <trkpt lat="45.50422" lon="6.73858">
        <ele>2148.2</ele>
        <time>2021-08-12T11:19:44Z</time>
      </trkpt>
      <trkpt lat="45.50422" lon="6.73858">
        <ele>2148.2</ele>
        <time>2021-08-12T11:19:45Z</time>
      </trkpt>
      <trkpt lat="45.50422" lon="6.73857">
        <ele>2148.2</ele>
        <time>2021-08-12T11:19:46Z</time>
      </trkpt>
      <trkpt lat="45.50423" lon="6.73857">
        <ele>2148.2</ele>
        <time>2021-08-12T11:19:47Z</time>
      </trkpt>
      <trkpt lat="45.50423" lon="6.73857">
        <ele>2148.9</ele>
        <time>2021-08-12T11:19:48Z</time>
      </trkpt>
      <trkpt lat="45.50424" lon="6.73856">
        <ele>2148.9</ele>
        <time>2021-08-12T11:19:49Z</time>
      </trkpt>
      <trkpt lat="45.50424" lon="6.73856">
        <ele>2148.9</ele>
        <time>2021-08-12T11:19:50Z</time>
      </trkpt>
      <trkpt lat="45.50424" lon="6.73856">
        <ele>2147.1</ele>
        <time>2021-08-12T11:19:51Z</time>
      </trkpt>
      <trkpt lat="45.50425" lon="6.73855">
        <ele>2147.1</ele>
        <time>2021-08-12T11:19:52Z</time>
      </trkpt>
      <trkpt lat="45.50425" lon="6.73855">
        <ele>2147.1</ele>
        <time>2021-08-12T11:19:53Z</time>
      </trkpt>
      <trkpt lat="45.50425" lon="6.73854">
        <ele>2147.1</ele>
        <time>2021-08-12T11:19:54Z</time>
      </trkpt>
      <trkpt lat="45.50425" lon="6.73854">
        <ele>2147.1</ele>
        <time>2021-08-12T11:19:55Z</time>
      </trkpt>
      <trkpt lat="45.50425" lon="6.73853">
        <ele>2147.1</ele>
        <time>2021-08-12T11:19:56Z</time>
      </trkpt>
      <trkpt lat="45.50425" lon="6.73853">
        <ele>2147.1</ele>
        <time>2021-08-12T11:19:57Z</time>
      </trkpt>
      <trkpt lat="45.50426" lon="6.73852">
        <ele>2147.7</ele>
        <time>2021-08-12T11:19:58Z</time>
      </trkpt>
      <trkpt lat="45.50426" lon="6.73852">
        <ele>2147.7</ele>
        <time>2021-08-12T11:19:59Z</time>
      </trkpt>
      <trkpt lat="45.50426" lon="6.73852">
        <ele>2147.7</ele>
        <time>2021-08-12T11:20:00Z</time>
      </trkpt>
      <trkpt lat="45.50426" lon="6.73851">
        <ele>2147.7</ele>
        <time>2021-08-12T11:20:01Z</time>
      </trkpt>
      <trkpt lat="45.50427" lon="6.73851">
        <ele>2147.7</ele>
        <time>2021-08-12T11:20:02Z</time>
      </trkpt>
      <trkpt lat="45.50427" lon="6.7385">
        <ele>2147.7</ele>
        <time>2021-08-12T11:20:03Z</time>
      </trkpt>
      <trkpt lat="45.50427" lon="6.7385">
        <ele>2146</ele>
        <time>2021-08-12T11:20:04Z</time>
      </trkpt>
      <trkpt lat="45.50428" lon="6.73849">
        <ele>2146</ele>
        <time>2021-08-12T11:20:05Z</time>
      </trkpt>
      <trkpt lat="45.50428" lon="6.73849">
        <ele>2146</ele>
        <time>2021-08-12T11:20:06Z</time>
      </trkpt>
      <trkpt lat="45.50429" lon="6.73849">
        <ele>2146</ele>
        <time>2021-08-12T11:20:07Z</time>
      </trkpt>
      <trkpt lat="45.50429" lon="6.73848">
        <ele>2146.5</ele>
        <time>2021-08-12T11:20:08Z</time>
      </trkpt>
      <trkpt lat="45.5043" lon="6.73848">
        <ele>2146.5</ele>
        <time>2021-08-12T11:20:09Z</time>
      </trkpt>
      <trkpt lat="45.5043" lon="6.73847">
        <ele>2144.8</ele>
        <time>2021-08-12T11:20:10Z</time>
      </trkpt>
      <trkpt lat="45.50431" lon="6.73847">
        <ele>2144.8</ele>
        <time>2021-08-12T11:20:11Z</time>
      </trkpt>
      <trkpt lat="45.50432" lon="6.73847">
        <ele>2144.8</ele>
        <time>2021-08-12T11:20:12Z</time>
      </trkpt>
      <trkpt lat="45.50432" lon="6.73847">
        <ele>2144.8</ele>
        <time>2021-08-12T11:20:13Z</time>
      </trkpt>
      <trkpt lat="45.50433" lon="6.73846">
        <ele>2144.8</ele>
        <time>2021-08-12T11:20:14Z</time>
      </trkpt>
      <trkpt lat="45.50433" lon="6.73846">
        <ele>2143.1</ele>
        <time>2021-08-12T11:20:15Z</time>
      </trkpt>
      <trkpt lat="45.50434" lon="6.73846">
        <ele>2143.1</ele>
        <time>2021-08-12T11:20:16Z</time>
      </trkpt>
      <trkpt lat="45.50434" lon="6.73845">
        <ele>2143.1</ele>
        <time>2021-08-12T11:20:17Z</time>
      </trkpt>
      <trkpt lat="45.50435" lon="6.73845">
        <ele>2143.1</ele>
        <time>2021-08-12T11:20:18Z</time>
      </trkpt>
      <trkpt lat="45.50436" lon="6.73845">
        <ele>2143.1</ele>
        <time>2021-08-12T11:20:19Z</time>
      </trkpt>
      <trkpt lat="45.50436" lon="6.73845">
        <ele>2143.1</ele>
        <time>2021-08-12T11:20:20Z</time>
      </trkpt>
      <trkpt lat="45.50437" lon="6.73845">
        <ele>2141.3</ele>
        <time>2021-08-12T11:20:21Z</time>
      </trkpt>
      <trkpt lat="45.50437" lon="6.73844">
        <ele>2141.3</ele>
        <time>2021-08-12T11:20:22Z</time>
      </trkpt>
      <trkpt lat="45.50438" lon="6.73844">
        <ele>2141.3</ele>
        <time>2021-08-12T11:20:23Z</time>
      </trkpt>
      <trkpt lat="45.50438" lon="6.73844">
        <ele>2141.3</ele>
        <time>2021-08-12T11:20:24Z</time>
      </trkpt>
      <trkpt lat="45.50439" lon="6.73844">
        <ele>2141.3</ele>
        <time>2021-08-12T11:20:25Z</time>
      </trkpt>
      <trkpt lat="45.50439" lon="6.73844">
        <ele>2141.3</ele>
        <time>2021-08-12T11:20:26Z</time>
      </trkpt>
      <trkpt lat="45.50439" lon="6.73844">
        <ele>2139.6</ele>
        <time>2021-08-12T11:20:27Z</time>
      </trkpt>
      <trkpt lat="45.5044" lon="6.73844">
        <ele>2139.6</ele>
        <time>2021-08-12T11:20:28Z</time>
      </trkpt>
      <trkpt lat="45.5044" lon="6.73844">
        <ele>2139.6</ele>
        <time>2021-08-12T11:20:29Z</time>
      </trkpt>
      <trkpt lat="45.5044" lon="6.73844">
        <ele>2139.6</ele>
        <time>2021-08-12T11:20:30Z</time>
      </trkpt>
      <trkpt lat="45.50441" lon="6.73844">
        <ele>2139.6</ele>
        <time>2021-08-12T11:20:31Z</time>
      </trkpt>
      <trkpt lat="45.50441" lon="6.73844">
        <ele>2139.6</ele>
        <time>2021-08-12T11:20:32Z</time>
      </trkpt>
      <trkpt lat="45.50441" lon="6.73843">
        <ele>2139.6</ele>
        <time>2021-08-12T11:20:33Z</time>
      </trkpt>
      <trkpt lat="45.50441" lon="6.73843">
        <ele>2139.6</ele>
        <time>2021-08-12T11:20:34Z</time>
      </trkpt>
      <trkpt lat="45.50441" lon="6.73843">
        <ele>2139.6</ele>
        <time>2021-08-12T11:20:35Z</time>
      </trkpt>
      <trkpt lat="45.50441" lon="6.73843">
        <ele>2139.6</ele>
        <time>2021-08-12T11:20:36Z</time>
      </trkpt>
      <trkpt lat="45.50442" lon="6.73843">
        <ele>2139.6</ele>
        <time>2021-08-12T11:20:37Z</time>
      </trkpt>
      <trkpt lat="45.50442" lon="6.73843">
        <ele>2139.6</ele>
        <time>2021-08-12T11:20:38Z</time>
      </trkpt>
      <trkpt lat="45.50442" lon="6.73843">
        <ele>2139.6</ele>
        <time>2021-08-12T11:20:39Z</time>
      </trkpt>
      <trkpt lat="45.50442" lon="6.73843">
        <ele>2139.6</ele>
        <time>2021-08-12T11:20:40Z</time>
      </trkpt>
      <trkpt lat="45.50442" lon="6.73843">
        <ele>2139.5</ele>
        <time>2021-08-12T11:20:41Z</time>
      </trkpt>
      <trkpt lat="45.50442" lon="6.73843">
        <ele>2139.5</ele>
        <time>2021-08-12T11:20:42Z</time>
      </trkpt>
      <trkpt lat="45.50442" lon="6.73843">
        <ele>2139.5</ele>
        <time>2021-08-12T11:20:43Z</time>
      </trkpt>
      <trkpt lat="45.50443" lon="6.73842">
        <ele>2137.5</ele>
        <time>2021-08-12T11:20:44Z</time>
      </trkpt>
      <trkpt lat="45.50444" lon="6.73842">
        <ele>2137.5</ele>
        <time>2021-08-12T11:20:45Z</time>
      </trkpt>
      <trkpt lat="45.50444" lon="6.73841">
        <ele>2137.5</ele>
        <time>2021-08-12T11:20:46Z</time>
      </trkpt>
      <trkpt lat="45.50445" lon="6.73841">
        <ele>2137.5</ele>
        <time>2021-08-12T11:20:47Z</time>
      </trkpt>
      <trkpt lat="45.50446" lon="6.7384">
        <ele>2135.5</ele>
        <time>2021-08-12T11:20:48Z</time>
      </trkpt>
      <trkpt lat="45.50446" lon="6.7384">
        <ele>2135.5</ele>
        <time>2021-08-12T11:20:49Z</time>
      </trkpt>
      <trkpt lat="45.50446" lon="6.7384">
        <ele>2135.5</ele>
        <time>2021-08-12T11:20:50Z</time>
      </trkpt>
      <trkpt lat="45.50446" lon="6.7384">
        <ele>2135.5</ele>
        <time>2021-08-12T11:20:51Z</time>
      </trkpt>
      <trkpt lat="45.50446" lon="6.7384">
        <ele>2135.5</ele>
        <time>2021-08-12T11:20:52Z</time>
      </trkpt>
      <trkpt lat="45.50446" lon="6.7384">
        <ele>2135.5</ele>
        <time>2021-08-12T11:20:53Z</time>
      </trkpt>
      <trkpt lat="45.50446" lon="6.7384">
        <ele>2135.5</ele>
        <time>2021-08-12T11:20:54Z</time>
      </trkpt>
      <trkpt lat="45.50447" lon="6.7384">
        <ele>2135.8</ele>
        <time>2021-08-12T11:20:55Z</time>
      </trkpt>
      <trkpt lat="45.50447" lon="6.73839">
        <ele>2135.8</ele>
        <time>2021-08-12T11:20:56Z</time>
      </trkpt>
      <trkpt lat="45.50447" lon="6.73839">
        <ele>2135.8</ele>
        <time>2021-08-12T11:20:57Z</time>
      </trkpt>
      <trkpt lat="45.50448" lon="6.73838">
        <ele>2135.8</ele>
        <time>2021-08-12T11:20:58Z</time>
      </trkpt>
      <trkpt lat="45.50449" lon="6.73838">
        <ele>2133.9</ele>
        <time>2021-08-12T11:20:59Z</time>
      </trkpt>
      <trkpt lat="45.50449" lon="6.73838">
        <ele>2133.9</ele>
        <time>2021-08-12T11:21:00Z</time>
      </trkpt>
      <trkpt lat="45.5045" lon="6.73837">
        <ele>2133.9</ele>
        <time>2021-08-12T11:21:01Z</time>
      </trkpt>
      <trkpt lat="45.50451" lon="6.73837">
        <ele>2133.9</ele>
        <time>2021-08-12T11:21:02Z</time>
      </trkpt>
      <trkpt lat="45.50451" lon="6.73837">
        <ele>2133.9</ele>
        <time>2021-08-12T11:21:03Z</time>
      </trkpt>
      <trkpt lat="45.50452" lon="6.73836">
        <ele>2132.1</ele>
        <time>2021-08-12T11:21:04Z</time>
      </trkpt>
      <trkpt lat="45.50453" lon="6.73836">
        <ele>2132.1</ele>
        <time>2021-08-12T11:21:05Z</time>
      </trkpt>
      <trkpt lat="45.50453" lon="6.73836">
        <ele>2132.1</ele>
        <time>2021-08-12T11:21:06Z</time>
      </trkpt>
      <trkpt lat="45.50454" lon="6.73836">
        <ele>2132.1</ele>
        <time>2021-08-12T11:21:07Z</time>
      </trkpt>
      <trkpt lat="45.50455" lon="6.73835">
        <ele>2130.5</ele>
        <time>2021-08-12T11:21:08Z</time>
      </trkpt>
      <trkpt lat="45.50455" lon="6.73835">
        <ele>2130.8</ele>
        <time>2021-08-12T11:21:09Z</time>
      </trkpt>
      <trkpt lat="45.50456" lon="6.73835">
        <ele>2130.8</ele>
        <time>2021-08-12T11:21:10Z</time>
      </trkpt>
      <trkpt lat="45.50456" lon="6.73835">
        <ele>2130.7</ele>
        <time>2021-08-12T11:21:11Z</time>
      </trkpt>
      <trkpt lat="45.50457" lon="6.73835">
        <ele>2130.7</ele>
        <time>2021-08-12T11:21:12Z</time>
      </trkpt>
      <trkpt lat="45.50457" lon="6.73835">
        <ele>2130.7</ele>
        <time>2021-08-12T11:21:13Z</time>
      </trkpt>
      <trkpt lat="45.50458" lon="6.73835">
        <ele>2129.1</ele>
        <time>2021-08-12T11:21:14Z</time>
      </trkpt>
      <trkpt lat="45.50458" lon="6.73835">
        <ele>2129.1</ele>
        <time>2021-08-12T11:21:15Z</time>
      </trkpt>
      <trkpt lat="45.50458" lon="6.73835">
        <ele>2128.9</ele>
        <time>2021-08-12T11:21:16Z</time>
      </trkpt>
      <trkpt lat="45.50458" lon="6.73835">
        <ele>2128.9</ele>
        <time>2021-08-12T11:21:17Z</time>
      </trkpt>
      <trkpt lat="45.50459" lon="6.73835">
        <ele>2128.9</ele>
        <time>2021-08-12T11:21:18Z</time>
      </trkpt>
      <trkpt lat="45.50459" lon="6.73836">
        <ele>2128.9</ele>
        <time>2021-08-12T11:21:19Z</time>
      </trkpt>
      <trkpt lat="45.50459" lon="6.73836">
        <ele>2128.9</ele>
        <time>2021-08-12T11:21:20Z</time>
      </trkpt>
      <trkpt lat="45.50459" lon="6.73836">
        <ele>2128.9</ele>
        <time>2021-08-12T11:21:21Z</time>
      </trkpt>
      <trkpt lat="45.50459" lon="6.73836">
        <ele>2128.9</ele>
        <time>2021-08-12T11:21:22Z</time>
      </trkpt>
      <trkpt lat="45.50459" lon="6.73836">
        <ele>2128.9</ele>
        <time>2021-08-12T11:21:23Z</time>
      </trkpt>
      <trkpt lat="45.50459" lon="6.73836">
        <ele>2128.9</ele>
        <time>2021-08-12T11:21:24Z</time>
      </trkpt>
      <trkpt lat="45.50459" lon="6.73836">
        <ele>2128.9</ele>
        <time>2021-08-12T11:21:25Z</time>
      </trkpt>
      <trkpt lat="45.50459" lon="6.73836">
        <ele>2128.9</ele>
        <time>2021-08-12T11:21:26Z</time>
      </trkpt>
      <trkpt lat="45.50459" lon="6.73836">
        <ele>2128.9</ele>
        <time>2021-08-12T11:21:27Z</time>
      </trkpt>
      <trkpt lat="45.50459" lon="6.73836">
        <ele>2128.9</ele>
        <time>2021-08-12T11:21:28Z</time>
      </trkpt>
      <trkpt lat="45.50459" lon="6.73836">
        <ele>2128.9</ele>
        <time>2021-08-12T11:21:29Z</time>
      </trkpt>
      <trkpt lat="45.50459" lon="6.73836">
        <ele>2128.9</ele>
        <time>2021-08-12T11:21:30Z</time>
      </trkpt>
      <trkpt lat="45.50459" lon="6.73836">
        <ele>2128.9</ele>
        <time>2021-08-12T11:21:31Z</time>
      </trkpt>
      <trkpt lat="45.50458" lon="6.73836">
        <ele>2128.9</ele>
        <time>2021-08-12T11:21:32Z</time>
      </trkpt>
      <trkpt lat="45.50458" lon="6.73836">
        <ele>2128.9</ele>
        <time>2021-08-12T11:21:33Z</time>
      </trkpt>
      <trkpt lat="45.50459" lon="6.73836">
        <ele>2128.9</ele>
        <time>2021-08-12T11:21:34Z</time>
      </trkpt>
      <trkpt lat="45.50459" lon="6.73836">
        <ele>2128.9</ele>
        <time>2021-08-12T11:21:35Z</time>
      </trkpt>
      <trkpt lat="45.50459" lon="6.73836">
        <ele>2128.9</ele>
        <time>2021-08-12T11:21:36Z</time>
      </trkpt>
      <trkpt lat="45.50459" lon="6.73835">
        <ele>2128.9</ele>
        <time>2021-08-12T11:21:37Z</time>
      </trkpt>
      <trkpt lat="45.50459" lon="6.73835">
        <ele>2129.2</ele>
        <time>2021-08-12T11:21:38Z</time>
      </trkpt>
      <trkpt lat="45.50459" lon="6.73835">
        <ele>2129.2</ele>
        <time>2021-08-12T11:21:39Z</time>
      </trkpt>
      <trkpt lat="45.50459" lon="6.73835">
        <ele>2129.2</ele>
        <time>2021-08-12T11:21:40Z</time>
      </trkpt>
      <trkpt lat="45.5046" lon="6.73834">
        <ele>2129.2</ele>
        <time>2021-08-12T11:21:41Z</time>
      </trkpt>
      <trkpt lat="45.5046" lon="6.73834">
        <ele>2129.2</ele>
        <time>2021-08-12T11:21:42Z</time>
      </trkpt>
      <trkpt lat="45.5046" lon="6.73833">
        <ele>2127.6</ele>
        <time>2021-08-12T11:21:43Z</time>
      </trkpt>
      <trkpt lat="45.50461" lon="6.73833">
        <ele>2127.6</ele>
        <time>2021-08-12T11:21:44Z</time>
      </trkpt>
      <trkpt lat="45.50461" lon="6.73833">
        <ele>2127.6</ele>
        <time>2021-08-12T11:21:45Z</time>
      </trkpt>
      <trkpt lat="45.50461" lon="6.73832">
        <ele>2127.6</ele>
        <time>2021-08-12T11:21:46Z</time>
      </trkpt>
      <trkpt lat="45.50462" lon="6.73832">
        <ele>2127.7</ele>
        <time>2021-08-12T11:21:47Z</time>
      </trkpt>
      <trkpt lat="45.50462" lon="6.73831">
        <ele>2127.7</ele>
        <time>2021-08-12T11:21:48Z</time>
      </trkpt>
      <trkpt lat="45.50462" lon="6.73831">
        <ele>2127.7</ele>
        <time>2021-08-12T11:21:49Z</time>
      </trkpt>
      <trkpt lat="45.50463" lon="6.73831">
        <ele>2127.9</ele>
        <time>2021-08-12T11:21:50Z</time>
      </trkpt>
      <trkpt lat="45.50463" lon="6.7383">
        <ele>2127.9</ele>
        <time>2021-08-12T11:21:51Z</time>
      </trkpt>
      <trkpt lat="45.50463" lon="6.7383">
        <ele>2128</ele>
        <time>2021-08-12T11:21:52Z</time>
      </trkpt>
      <trkpt lat="45.50463" lon="6.7383">
        <ele>2126.3</ele>
        <time>2021-08-12T11:21:53Z</time>
      </trkpt>
      <trkpt lat="45.50464" lon="6.7383">
        <ele>2126.3</ele>
        <time>2021-08-12T11:21:54Z</time>
      </trkpt>
      <trkpt lat="45.50464" lon="6.7383">
        <ele>2126.3</ele>
        <time>2021-08-12T11:21:55Z</time>
      </trkpt>
      <trkpt lat="45.50464" lon="6.73829">
        <ele>2126.3</ele>
        <time>2021-08-12T11:21:56Z</time>
      </trkpt>
      <trkpt lat="45.50464" lon="6.73829">
        <ele>2126.3</ele>
        <time>2021-08-12T11:21:57Z</time>
      </trkpt>
      <trkpt lat="45.50464" lon="6.73829">
        <ele>2126.3</ele>
        <time>2021-08-12T11:21:58Z</time>
      </trkpt>
      <trkpt lat="45.50464" lon="6.73829">
        <ele>2126.3</ele>
        <time>2021-08-12T11:21:59Z</time>
      </trkpt>
      <trkpt lat="45.50464" lon="6.73829">
        <ele>2126.3</ele>
        <time>2021-08-12T11:22:00Z</time>
      </trkpt>
      <trkpt lat="45.50464" lon="6.73829">
        <ele>2126.4</ele>
        <time>2021-08-12T11:22:01Z</time>
      </trkpt>
      <trkpt lat="45.50464" lon="6.73829">
        <ele>2126.4</ele>
        <time>2021-08-12T11:22:02Z</time>
      </trkpt>
      <trkpt lat="45.50464" lon="6.73829">
        <ele>2126.4</ele>
        <time>2021-08-12T11:22:03Z</time>
      </trkpt>
      <trkpt lat="45.50464" lon="6.73829">
        <ele>2126.4</ele>
        <time>2021-08-12T11:22:04Z</time>
      </trkpt>
      <trkpt lat="45.50465" lon="6.73828">
        <ele>2126.4</ele>
        <time>2021-08-12T11:22:05Z</time>
      </trkpt>
      <trkpt lat="45.50465" lon="6.73828">
        <ele>2126.4</ele>
        <time>2021-08-12T11:22:06Z</time>
      </trkpt>
      <trkpt lat="45.50466" lon="6.73828">
        <ele>2126.4</ele>
        <time>2021-08-12T11:22:07Z</time>
      </trkpt>
      <trkpt lat="45.50466" lon="6.73827">
        <ele>2126.4</ele>
        <time>2021-08-12T11:22:08Z</time>
      </trkpt>
      <trkpt lat="45.50467" lon="6.73827">
        <ele>2124.7</ele>
        <time>2021-08-12T11:22:09Z</time>
      </trkpt>
      <trkpt lat="45.50467" lon="6.73827">
        <ele>2124.9</ele>
        <time>2021-08-12T11:22:10Z</time>
      </trkpt>
      <trkpt lat="45.50467" lon="6.73826">
        <ele>2125</ele>
        <time>2021-08-12T11:22:11Z</time>
      </trkpt>
      <trkpt lat="45.50467" lon="6.73826">
        <ele>2125</ele>
        <time>2021-08-12T11:22:12Z</time>
      </trkpt>
      <trkpt lat="45.50467" lon="6.73826">
        <ele>2125</ele>
        <time>2021-08-12T11:22:13Z</time>
      </trkpt>
      <trkpt lat="45.50467" lon="6.73826">
        <ele>2125</ele>
        <time>2021-08-12T11:22:14Z</time>
      </trkpt>
      <trkpt lat="45.50467" lon="6.73826">
        <ele>2125</ele>
        <time>2021-08-12T11:22:15Z</time>
      </trkpt>
      <trkpt lat="45.50467" lon="6.73826">
        <ele>2125</ele>
        <time>2021-08-12T11:22:16Z</time>
      </trkpt>
      <trkpt lat="45.50467" lon="6.73826">
        <ele>2125</ele>
        <time>2021-08-12T11:22:17Z</time>
      </trkpt>
      <trkpt lat="45.50468" lon="6.73826">
        <ele>2125</ele>
        <time>2021-08-12T11:22:18Z</time>
      </trkpt>
      <trkpt lat="45.50468" lon="6.73826">
        <ele>2125.1</ele>
        <time>2021-08-12T11:22:19Z</time>
      </trkpt>
      <trkpt lat="45.50468" lon="6.73826">
        <ele>2125.1</ele>
        <time>2021-08-12T11:22:20Z</time>
      </trkpt>
      <trkpt lat="45.50469" lon="6.73825">
        <ele>2125.1</ele>
        <time>2021-08-12T11:22:21Z</time>
      </trkpt>
      <trkpt lat="45.50469" lon="6.73825">
        <ele>2125.1</ele>
        <time>2021-08-12T11:22:22Z</time>
      </trkpt>
      <trkpt lat="45.5047" lon="6.73825">
        <ele>2123.3</ele>
        <time>2021-08-12T11:22:23Z</time>
      </trkpt>
      <trkpt lat="45.5047" lon="6.73824">
        <ele>2123.3</ele>
        <time>2021-08-12T11:22:24Z</time>
      </trkpt>
      <trkpt lat="45.50471" lon="6.73824">
        <ele>2123.4</ele>
        <time>2021-08-12T11:22:25Z</time>
      </trkpt>
      <trkpt lat="45.50472" lon="6.73824">
        <ele>2123.4</ele>
        <time>2021-08-12T11:22:26Z</time>
      </trkpt>
      <trkpt lat="45.50472" lon="6.73823">
        <ele>2123.4</ele>
        <time>2021-08-12T11:22:27Z</time>
      </trkpt>
      <trkpt lat="45.50473" lon="6.73823">
        <ele>2121.6</ele>
        <time>2021-08-12T11:22:28Z</time>
      </trkpt>
      <trkpt lat="45.50473" lon="6.73822">
        <ele>2121.9</ele>
        <time>2021-08-12T11:22:29Z</time>
      </trkpt>
      <trkpt lat="45.50474" lon="6.73822">
        <ele>2121.9</ele>
        <time>2021-08-12T11:22:30Z</time>
      </trkpt>
      <trkpt lat="45.50474" lon="6.73822">
        <ele>2121.9</ele>
        <time>2021-08-12T11:22:31Z</time>
      </trkpt>
      <trkpt lat="45.50474" lon="6.73821">
        <ele>2121.9</ele>
        <time>2021-08-12T11:22:32Z</time>
      </trkpt>
      <trkpt lat="45.50474" lon="6.73821">
        <ele>2121.9</ele>
        <time>2021-08-12T11:22:33Z</time>
      </trkpt>
      <trkpt lat="45.50474" lon="6.73822">
        <ele>2121.9</ele>
        <time>2021-08-12T11:22:34Z</time>
      </trkpt>
      <trkpt lat="45.50475" lon="6.73822">
        <ele>2121.9</ele>
        <time>2021-08-12T11:22:35Z</time>
      </trkpt>
      <trkpt lat="45.50475" lon="6.73822">
        <ele>2122</ele>
        <time>2021-08-12T11:22:36Z</time>
      </trkpt>
      <trkpt lat="45.50475" lon="6.73822">
        <ele>2122</ele>
        <time>2021-08-12T11:22:37Z</time>
      </trkpt>
      <trkpt lat="45.50475" lon="6.73822">
        <ele>2122</ele>
        <time>2021-08-12T11:22:38Z</time>
      </trkpt>
      <trkpt lat="45.50475" lon="6.73822">
        <ele>2122</ele>
        <time>2021-08-12T11:22:39Z</time>
      </trkpt>
      <trkpt lat="45.50475" lon="6.73822">
        <ele>2122</ele>
        <time>2021-08-12T11:22:40Z</time>
      </trkpt>
      <trkpt lat="45.50475" lon="6.73822">
        <ele>2120.3</ele>
        <time>2021-08-12T11:22:41Z</time>
      </trkpt>
      <trkpt lat="45.50476" lon="6.73822">
        <ele>2120.3</ele>
        <time>2021-08-12T11:22:42Z</time>
      </trkpt>
      <trkpt lat="45.50476" lon="6.73822">
        <ele>2120.3</ele>
        <time>2021-08-12T11:22:43Z</time>
      </trkpt>
      <trkpt lat="45.50476" lon="6.73822">
        <ele>2120.3</ele>
        <time>2021-08-12T11:22:44Z</time>
      </trkpt>
      <trkpt lat="45.50476" lon="6.73822">
        <ele>2120.4</ele>
        <time>2021-08-12T11:22:45Z</time>
      </trkpt>
      <trkpt lat="45.50477" lon="6.73822">
        <ele>2120.4</ele>
        <time>2021-08-12T11:22:46Z</time>
      </trkpt>
      <trkpt lat="45.50477" lon="6.73822">
        <ele>2120.4</ele>
        <time>2021-08-12T11:22:47Z</time>
      </trkpt>
      <trkpt lat="45.50477" lon="6.73822">
        <ele>2120.4</ele>
        <time>2021-08-12T11:22:48Z</time>
      </trkpt>
      <trkpt lat="45.50478" lon="6.73822">
        <ele>2120.4</ele>
        <time>2021-08-12T11:22:49Z</time>
      </trkpt>
      <trkpt lat="45.50478" lon="6.73822">
        <ele>2120.4</ele>
        <time>2021-08-12T11:22:50Z</time>
      </trkpt>
      <trkpt lat="45.50478" lon="6.73821">
        <ele>2118.8</ele>
        <time>2021-08-12T11:22:51Z</time>
      </trkpt>
      <trkpt lat="45.50479" lon="6.73821">
        <ele>2118.8</ele>
        <time>2021-08-12T11:22:52Z</time>
      </trkpt>
      <trkpt lat="45.50479" lon="6.73821">
        <ele>2118.8</ele>
        <time>2021-08-12T11:22:53Z</time>
      </trkpt>
      <trkpt lat="45.50479" lon="6.73821">
        <ele>2118.8</ele>
        <time>2021-08-12T11:22:54Z</time>
      </trkpt>
      <trkpt lat="45.5048" lon="6.73821">
        <ele>2118.8</ele>
        <time>2021-08-12T11:22:55Z</time>
      </trkpt>
      <trkpt lat="45.5048" lon="6.7382">
        <ele>2118.8</ele>
        <time>2021-08-12T11:22:56Z</time>
      </trkpt>
      <trkpt lat="45.5048" lon="6.7382">
        <ele>2118.8</ele>
        <time>2021-08-12T11:22:57Z</time>
      </trkpt>
      <trkpt lat="45.50481" lon="6.7382">
        <ele>2118.9</ele>
        <time>2021-08-12T11:22:58Z</time>
      </trkpt>
      <trkpt lat="45.50481" lon="6.73819">
        <ele>2118.9</ele>
        <time>2021-08-12T11:22:59Z</time>
      </trkpt>
      <trkpt lat="45.50481" lon="6.73819">
        <ele>2118.9</ele>
        <time>2021-08-12T11:23:00Z</time>
      </trkpt>
      <trkpt lat="45.50482" lon="6.73818">
        <ele>2117.3</ele>
        <time>2021-08-12T11:23:01Z</time>
      </trkpt>
      <trkpt lat="45.50482" lon="6.73818">
        <ele>2117.6</ele>
        <time>2021-08-12T11:23:02Z</time>
      </trkpt>
      <trkpt lat="45.50482" lon="6.73817">
        <ele>2117.6</ele>
        <time>2021-08-12T11:23:03Z</time>
      </trkpt>
      <trkpt lat="45.50482" lon="6.73817">
        <ele>2117.6</ele>
        <time>2021-08-12T11:23:04Z</time>
      </trkpt>
      <trkpt lat="45.50483" lon="6.73817">
        <ele>2117.6</ele>
        <time>2021-08-12T11:23:05Z</time>
      </trkpt>
      <trkpt lat="45.50483" lon="6.73816">
        <ele>2117.6</ele>
        <time>2021-08-12T11:23:06Z</time>
      </trkpt>
      <trkpt lat="45.50483" lon="6.73816">
        <ele>2117.6</ele>
        <time>2021-08-12T11:23:07Z</time>
      </trkpt>
      <trkpt lat="45.50483" lon="6.73815">
        <ele>2117.6</ele>
        <time>2021-08-12T11:23:08Z</time>
      </trkpt>
      <trkpt lat="45.50484" lon="6.73815">
        <ele>2117.6</ele>
        <time>2021-08-12T11:23:09Z</time>
      </trkpt>
      <trkpt lat="45.50484" lon="6.73814">
        <ele>2117.6</ele>
        <time>2021-08-12T11:23:10Z</time>
      </trkpt>
      <trkpt lat="45.50484" lon="6.73814">
        <ele>2117.9</ele>
        <time>2021-08-12T11:23:11Z</time>
      </trkpt>
      <trkpt lat="45.50485" lon="6.73813">
        <ele>2116.5</ele>
        <time>2021-08-12T11:23:12Z</time>
      </trkpt>
      <trkpt lat="45.50485" lon="6.73813">
        <ele>2116.5</ele>
        <time>2021-08-12T11:23:13Z</time>
      </trkpt>
      <trkpt lat="45.50485" lon="6.73812">
        <ele>2116.5</ele>
        <time>2021-08-12T11:23:14Z</time>
      </trkpt>
      <trkpt lat="45.50486" lon="6.73812">
        <ele>2116.5</ele>
        <time>2021-08-12T11:23:15Z</time>
      </trkpt>
      <trkpt lat="45.50486" lon="6.73812">
        <ele>2116.5</ele>
        <time>2021-08-12T11:23:16Z</time>
      </trkpt>
      <trkpt lat="45.50487" lon="6.73811">
        <ele>2116.5</ele>
        <time>2021-08-12T11:23:17Z</time>
      </trkpt>
      <trkpt lat="45.50487" lon="6.73811">
        <ele>2116.5</ele>
        <time>2021-08-12T11:23:18Z</time>
      </trkpt>
      <trkpt lat="45.50487" lon="6.7381">
        <ele>2116.5</ele>
        <time>2021-08-12T11:23:19Z</time>
      </trkpt>
      <trkpt lat="45.50488" lon="6.7381">
        <ele>2115.1</ele>
        <time>2021-08-12T11:23:20Z</time>
      </trkpt>
      <trkpt lat="45.50488" lon="6.7381">
        <ele>2115.2</ele>
        <time>2021-08-12T11:23:21Z</time>
      </trkpt>
      <trkpt lat="45.50489" lon="6.73809">
        <ele>2115.5</ele>
        <time>2021-08-12T11:23:22Z</time>
      </trkpt>
      <trkpt lat="45.50489" lon="6.73809">
        <ele>2115.5</ele>
        <time>2021-08-12T11:23:23Z</time>
      </trkpt>
      <trkpt lat="45.5049" lon="6.73809">
        <ele>2115.5</ele>
        <time>2021-08-12T11:23:24Z</time>
      </trkpt>
      <trkpt lat="45.5049" lon="6.73809">
        <ele>2115.5</ele>
        <time>2021-08-12T11:23:25Z</time>
      </trkpt>
      <trkpt lat="45.5049" lon="6.73808">
        <ele>2115.5</ele>
        <time>2021-08-12T11:23:26Z</time>
      </trkpt>
      <trkpt lat="45.50491" lon="6.73808">
        <ele>2114.2</ele>
        <time>2021-08-12T11:23:27Z</time>
      </trkpt>
      <trkpt lat="45.50491" lon="6.73808">
        <ele>2114.2</ele>
        <time>2021-08-12T11:23:28Z</time>
      </trkpt>
      <trkpt lat="45.50492" lon="6.73808">
        <ele>2114.2</ele>
        <time>2021-08-12T11:23:29Z</time>
      </trkpt>
      <trkpt lat="45.50492" lon="6.73808">
        <ele>2114.2</ele>
        <time>2021-08-12T11:23:30Z</time>
      </trkpt>
      <trkpt lat="45.50492" lon="6.73808">
        <ele>2114.2</ele>
        <time>2021-08-12T11:23:31Z</time>
      </trkpt>
      <trkpt lat="45.50493" lon="6.73808">
        <ele>2114.2</ele>
        <time>2021-08-12T11:23:32Z</time>
      </trkpt>
      <trkpt lat="45.50493" lon="6.73808">
        <ele>2114.2</ele>
        <time>2021-08-12T11:23:33Z</time>
      </trkpt>
      <trkpt lat="45.50493" lon="6.73808">
        <ele>2112.9</ele>
        <time>2021-08-12T11:23:34Z</time>
      </trkpt>
      <trkpt lat="45.50494" lon="6.73808">
        <ele>2112.9</ele>
        <time>2021-08-12T11:23:35Z</time>
      </trkpt>
      <trkpt lat="45.50494" lon="6.73808">
        <ele>2112.9</ele>
        <time>2021-08-12T11:23:36Z</time>
      </trkpt>
      <trkpt lat="45.50494" lon="6.73808">
        <ele>2112.9</ele>
        <time>2021-08-12T11:23:37Z</time>
      </trkpt>
      <trkpt lat="45.50495" lon="6.73808">
        <ele>2112.9</ele>
        <time>2021-08-12T11:23:38Z</time>
      </trkpt>
      <trkpt lat="45.50495" lon="6.73808">
        <ele>2112.9</ele>
        <time>2021-08-12T11:23:39Z</time>
      </trkpt>
      <trkpt lat="45.50495" lon="6.73808">
        <ele>2112.9</ele>
        <time>2021-08-12T11:23:40Z</time>
      </trkpt>
      <trkpt lat="45.50496" lon="6.73808">
        <ele>2112.9</ele>
        <time>2021-08-12T11:23:41Z</time>
      </trkpt>
      <trkpt lat="45.50496" lon="6.73809">
        <ele>2113</ele>
        <time>2021-08-12T11:23:42Z</time>
      </trkpt>
      <trkpt lat="45.50496" lon="6.73809">
        <ele>2113</ele>
        <time>2021-08-12T11:23:43Z</time>
      </trkpt>
      <trkpt lat="45.50497" lon="6.73809">
        <ele>2111.5</ele>
        <time>2021-08-12T11:23:44Z</time>
      </trkpt>
      <trkpt lat="45.50497" lon="6.73809">
        <ele>2111.5</ele>
        <time>2021-08-12T11:23:45Z</time>
      </trkpt>
      <trkpt lat="45.50498" lon="6.73808">
        <ele>2111.5</ele>
        <time>2021-08-12T11:23:46Z</time>
      </trkpt>
      <trkpt lat="45.50498" lon="6.73808">
        <ele>2111.5</ele>
        <time>2021-08-12T11:23:47Z</time>
      </trkpt>
      <trkpt lat="45.50499" lon="6.73808">
        <ele>2111.6</ele>
        <time>2021-08-12T11:23:48Z</time>
      </trkpt>
      <trkpt lat="45.50499" lon="6.73808">
        <ele>2111.6</ele>
        <time>2021-08-12T11:23:49Z</time>
      </trkpt>
      <trkpt lat="45.505" lon="6.73808">
        <ele>2110</ele>
        <time>2021-08-12T11:23:50Z</time>
      </trkpt>
      <trkpt lat="45.505" lon="6.73808">
        <ele>2110</ele>
        <time>2021-08-12T11:23:51Z</time>
      </trkpt>
      <trkpt lat="45.50501" lon="6.73808">
        <ele>2110.1</ele>
        <time>2021-08-12T11:23:52Z</time>
      </trkpt>
      <trkpt lat="45.50501" lon="6.73808">
        <ele>2110.1</ele>
        <time>2021-08-12T11:23:53Z</time>
      </trkpt>
      <trkpt lat="45.50501" lon="6.73808">
        <ele>2110.1</ele>
        <time>2021-08-12T11:23:54Z</time>
      </trkpt>
      <trkpt lat="45.50501" lon="6.73807">
        <ele>2110.1</ele>
        <time>2021-08-12T11:23:55Z</time>
      </trkpt>
      <trkpt lat="45.50501" lon="6.73807">
        <ele>2110.1</ele>
        <time>2021-08-12T11:23:56Z</time>
      </trkpt>
      <trkpt lat="45.50501" lon="6.73807">
        <ele>2110.1</ele>
        <time>2021-08-12T11:23:57Z</time>
      </trkpt>
      <trkpt lat="45.50501" lon="6.73807">
        <ele>2110.1</ele>
        <time>2021-08-12T11:23:58Z</time>
      </trkpt>
      <trkpt lat="45.50501" lon="6.73807">
        <ele>2110.1</ele>
        <time>2021-08-12T11:23:59Z</time>
      </trkpt>
      <trkpt lat="45.50501" lon="6.73807">
        <ele>2110.1</ele>
        <time>2021-08-12T11:24:00Z</time>
      </trkpt>
      <trkpt lat="45.50501" lon="6.73807">
        <ele>2110.2</ele>
        <time>2021-08-12T11:24:01Z</time>
      </trkpt>
      <trkpt lat="45.50501" lon="6.73807">
        <ele>2110.2</ele>
        <time>2021-08-12T11:24:02Z</time>
      </trkpt>
      <trkpt lat="45.50501" lon="6.73807">
        <ele>2110.2</ele>
        <time>2021-08-12T11:24:03Z</time>
      </trkpt>
      <trkpt lat="45.50501" lon="6.73807">
        <ele>2110.2</ele>
        <time>2021-08-12T11:24:04Z</time>
      </trkpt>
      <trkpt lat="45.50501" lon="6.73807">
        <ele>2110.2</ele>
        <time>2021-08-12T11:24:05Z</time>
      </trkpt>
      <trkpt lat="45.50502" lon="6.73807">
        <ele>2110.2</ele>
        <time>2021-08-12T11:24:06Z</time>
      </trkpt>
      <trkpt lat="45.50502" lon="6.73807">
        <ele>2110.2</ele>
        <time>2021-08-12T11:24:07Z</time>
      </trkpt>
      <trkpt lat="45.50502" lon="6.73807">
        <ele>2110.2</ele>
        <time>2021-08-12T11:24:08Z</time>
      </trkpt>
      <trkpt lat="45.50503" lon="6.73807">
        <ele>2108.7</ele>
        <time>2021-08-12T11:24:09Z</time>
      </trkpt>
      <trkpt lat="45.50503" lon="6.73807">
        <ele>2108.7</ele>
        <time>2021-08-12T11:24:10Z</time>
      </trkpt>
      <trkpt lat="45.50504" lon="6.73807">
        <ele>2108.7</ele>
        <time>2021-08-12T11:24:11Z</time>
      </trkpt>
      <trkpt lat="45.50504" lon="6.73808">
        <ele>2108.7</ele>
        <time>2021-08-12T11:24:12Z</time>
      </trkpt>
      <trkpt lat="45.50505" lon="6.73808">
        <ele>2108.7</ele>
        <time>2021-08-12T11:24:13Z</time>
      </trkpt>
      <trkpt lat="45.50506" lon="6.73808">
        <ele>2107.2</ele>
        <time>2021-08-12T11:24:14Z</time>
      </trkpt>
      <trkpt lat="45.50507" lon="6.73808">
        <ele>2107.2</ele>
        <time>2021-08-12T11:24:15Z</time>
      </trkpt>
      <trkpt lat="45.50508" lon="6.73808">
        <ele>2107.2</ele>
        <time>2021-08-12T11:24:16Z</time>
      </trkpt>
      <trkpt lat="45.50508" lon="6.73809">
        <ele>2107.2</ele>
        <time>2021-08-12T11:24:17Z</time>
      </trkpt>
      <trkpt lat="45.50509" lon="6.73809">
        <ele>2105.9</ele>
        <time>2021-08-12T11:24:18Z</time>
      </trkpt>
      <trkpt lat="45.50509" lon="6.73809">
        <ele>2105.9</ele>
        <time>2021-08-12T11:24:19Z</time>
      </trkpt>
      <trkpt lat="45.50509" lon="6.73809">
        <ele>2105.9</ele>
        <time>2021-08-12T11:24:20Z</time>
      </trkpt>
      <trkpt lat="45.50509" lon="6.73809">
        <ele>2105.9</ele>
        <time>2021-08-12T11:24:21Z</time>
      </trkpt>
      <trkpt lat="45.50509" lon="6.73809">
        <ele>2105.9</ele>
        <time>2021-08-12T11:24:22Z</time>
      </trkpt>
      <trkpt lat="45.50509" lon="6.73809">
        <ele>2105.9</ele>
        <time>2021-08-12T11:24:23Z</time>
      </trkpt>
      <trkpt lat="45.50509" lon="6.73809">
        <ele>2105.9</ele>
        <time>2021-08-12T11:24:24Z</time>
      </trkpt>
      <trkpt lat="45.5051" lon="6.73809">
        <ele>2105.9</ele>
        <time>2021-08-12T11:24:25Z</time>
      </trkpt>
      <trkpt lat="45.50511" lon="6.73809">
        <ele>2105.9</ele>
        <time>2021-08-12T11:24:26Z</time>
      </trkpt>
      <trkpt lat="45.50511" lon="6.73809">
        <ele>2106</ele>
        <time>2021-08-12T11:24:27Z</time>
      </trkpt>
      <trkpt lat="45.50512" lon="6.73809">
        <ele>2104.7</ele>
        <time>2021-08-12T11:24:28Z</time>
      </trkpt>
      <trkpt lat="45.50513" lon="6.73809">
        <ele>2104.7</ele>
        <time>2021-08-12T11:24:29Z</time>
      </trkpt>
      <trkpt lat="45.50513" lon="6.73809">
        <ele>2104.7</ele>
        <time>2021-08-12T11:24:30Z</time>
      </trkpt>
      <trkpt lat="45.50514" lon="6.73809">
        <ele>2104.7</ele>
        <time>2021-08-12T11:24:31Z</time>
      </trkpt>
      <trkpt lat="45.50515" lon="6.73809">
        <ele>2103.6</ele>
        <time>2021-08-12T11:24:32Z</time>
      </trkpt>
      <trkpt lat="45.50515" lon="6.7381">
        <ele>2103.3</ele>
        <time>2021-08-12T11:24:33Z</time>
      </trkpt>
      <trkpt lat="45.50516" lon="6.7381">
        <ele>2103.3</ele>
        <time>2021-08-12T11:24:34Z</time>
      </trkpt>
      <trkpt lat="45.50517" lon="6.7381">
        <ele>2103.3</ele>
        <time>2021-08-12T11:24:35Z</time>
      </trkpt>
      <trkpt lat="45.50517" lon="6.73811">
        <ele>2103.4</ele>
        <time>2021-08-12T11:24:36Z</time>
      </trkpt>
      <trkpt lat="45.50518" lon="6.73811">
        <ele>2102.1</ele>
        <time>2021-08-12T11:24:37Z</time>
      </trkpt>
      <trkpt lat="45.50518" lon="6.73812">
        <ele>2102.2</ele>
        <time>2021-08-12T11:24:38Z</time>
      </trkpt>
      <trkpt lat="45.50519" lon="6.73812">
        <ele>2102.2</ele>
        <time>2021-08-12T11:24:39Z</time>
      </trkpt>
      <trkpt lat="45.50519" lon="6.73813">
        <ele>2102.2</ele>
        <time>2021-08-12T11:24:40Z</time>
      </trkpt>
      <trkpt lat="45.50519" lon="6.73814">
        <ele>2102.2</ele>
        <time>2021-08-12T11:24:41Z</time>
      </trkpt>
      <trkpt lat="45.5052" lon="6.73814">
        <ele>2102</ele>
        <time>2021-08-12T11:24:42Z</time>
      </trkpt>
      <trkpt lat="45.5052" lon="6.73815">
        <ele>2102</ele>
        <time>2021-08-12T11:24:43Z</time>
      </trkpt>
      <trkpt lat="45.5052" lon="6.73815">
        <ele>2100.7</ele>
        <time>2021-08-12T11:24:44Z</time>
      </trkpt>
      <trkpt lat="45.50521" lon="6.73815">
        <ele>2100.7</ele>
        <time>2021-08-12T11:24:45Z</time>
      </trkpt>
      <trkpt lat="45.50521" lon="6.73816">
        <ele>2100.7</ele>
        <time>2021-08-12T11:24:46Z</time>
      </trkpt>
      <trkpt lat="45.50521" lon="6.73816">
        <ele>2100.7</ele>
        <time>2021-08-12T11:24:47Z</time>
      </trkpt>
      <trkpt lat="45.50521" lon="6.73816">
        <ele>2100.7</ele>
        <time>2021-08-12T11:24:48Z</time>
      </trkpt>
      <trkpt lat="45.50521" lon="6.73816">
        <ele>2100.7</ele>
        <time>2021-08-12T11:24:49Z</time>
      </trkpt>
      <trkpt lat="45.50522" lon="6.73816">
        <ele>2100.8</ele>
        <time>2021-08-12T11:24:50Z</time>
      </trkpt>
      <trkpt lat="45.50522" lon="6.73817">
        <ele>2100.8</ele>
        <time>2021-08-12T11:24:51Z</time>
      </trkpt>
      <trkpt lat="45.50522" lon="6.73817">
        <ele>2100.8</ele>
        <time>2021-08-12T11:24:52Z</time>
      </trkpt>
      <trkpt lat="45.50521" lon="6.73816">
        <ele>2100.8</ele>
        <time>2021-08-12T11:24:53Z</time>
      </trkpt>
      <trkpt lat="45.50521" lon="6.73816">
        <ele>2100.8</ele>
        <time>2021-08-12T11:24:54Z</time>
      </trkpt>
      <trkpt lat="45.50521" lon="6.73816">
        <ele>2100.8</ele>
        <time>2021-08-12T11:24:55Z</time>
      </trkpt>
      <trkpt lat="45.50521" lon="6.73816">
        <ele>2100.8</ele>
        <time>2021-08-12T11:24:56Z</time>
      </trkpt>
      <trkpt lat="45.50521" lon="6.73816">
        <ele>2100.8</ele>
        <time>2021-08-12T11:24:57Z</time>
      </trkpt>
      <trkpt lat="45.50521" lon="6.73816">
        <ele>2100.8</ele>
        <time>2021-08-12T11:24:58Z</time>
      </trkpt>
      <trkpt lat="45.50522" lon="6.73817">
        <ele>2100.9</ele>
        <time>2021-08-12T11:24:59Z</time>
      </trkpt>
      <trkpt lat="45.50522" lon="6.73817">
        <ele>2100.9</ele>
        <time>2021-08-12T11:25:00Z</time>
      </trkpt>
      <trkpt lat="45.50522" lon="6.73818">
        <ele>2100.9</ele>
        <time>2021-08-12T11:25:01Z</time>
      </trkpt>
      <trkpt lat="45.50522" lon="6.73818">
        <ele>2100.9</ele>
        <time>2021-08-12T11:25:02Z</time>
      </trkpt>
      <trkpt lat="45.50523" lon="6.73819">
        <ele>2100.7</ele>
        <time>2021-08-12T11:25:03Z</time>
      </trkpt>
      <trkpt lat="45.50523" lon="6.7382">
        <ele>2100.7</ele>
        <time>2021-08-12T11:25:04Z</time>
      </trkpt>
      <trkpt lat="45.50523" lon="6.73821">
        <ele>2100.7</ele>
        <time>2021-08-12T11:25:05Z</time>
      </trkpt>
      <trkpt lat="45.50524" lon="6.73822">
        <ele>2099.3</ele>
        <time>2021-08-12T11:25:06Z</time>
      </trkpt>
      <trkpt lat="45.50524" lon="6.73823">
        <ele>2099.1</ele>
        <time>2021-08-12T11:25:07Z</time>
      </trkpt>
      <trkpt lat="45.50525" lon="6.73824">
        <ele>2099.1</ele>
        <time>2021-08-12T11:25:08Z</time>
      </trkpt>
      <trkpt lat="45.50525" lon="6.73824">
        <ele>2099.2</ele>
        <time>2021-08-12T11:25:09Z</time>
      </trkpt>
      <trkpt lat="45.50526" lon="6.73825">
        <ele>2099.2</ele>
        <time>2021-08-12T11:25:10Z</time>
      </trkpt>
      <trkpt lat="45.50527" lon="6.73825">
        <ele>2097.7</ele>
        <time>2021-08-12T11:25:11Z</time>
      </trkpt>
      <trkpt lat="45.50527" lon="6.73826">
        <ele>2097.7</ele>
        <time>2021-08-12T11:25:12Z</time>
      </trkpt>
      <trkpt lat="45.50528" lon="6.73826">
        <ele>2097.7</ele>
        <time>2021-08-12T11:25:13Z</time>
      </trkpt>
      <trkpt lat="45.50528" lon="6.73826">
        <ele>2097.7</ele>
        <time>2021-08-12T11:25:14Z</time>
      </trkpt>
      <trkpt lat="45.50529" lon="6.73825">
        <ele>2097.7</ele>
        <time>2021-08-12T11:25:15Z</time>
      </trkpt>
      <trkpt lat="45.50529" lon="6.73825">
        <ele>2097.8</ele>
        <time>2021-08-12T11:25:16Z</time>
      </trkpt>
      <trkpt lat="45.5053" lon="6.73825">
        <ele>2096.3</ele>
        <time>2021-08-12T11:25:17Z</time>
      </trkpt>
      <trkpt lat="45.50531" lon="6.73825">
        <ele>2096.3</ele>
        <time>2021-08-12T11:25:18Z</time>
      </trkpt>
      <trkpt lat="45.50531" lon="6.73824">
        <ele>2096.3</ele>
        <time>2021-08-12T11:25:19Z</time>
      </trkpt>
      <trkpt lat="45.50532" lon="6.73824">
        <ele>2096.3</ele>
        <time>2021-08-12T11:25:20Z</time>
      </trkpt>
      <trkpt lat="45.50532" lon="6.73824">
        <ele>2096.3</ele>
        <time>2021-08-12T11:25:21Z</time>
      </trkpt>
      <trkpt lat="45.50533" lon="6.73824">
        <ele>2095</ele>
        <time>2021-08-12T11:25:22Z</time>
      </trkpt>
      <trkpt lat="45.50534" lon="6.73824">
        <ele>2095</ele>
        <time>2021-08-12T11:25:23Z</time>
      </trkpt>
      <trkpt lat="45.50534" lon="6.73824">
        <ele>2095</ele>
        <time>2021-08-12T11:25:24Z</time>
      </trkpt>
      <trkpt lat="45.50535" lon="6.73824">
        <ele>2095</ele>
        <time>2021-08-12T11:25:25Z</time>
      </trkpt>
      <trkpt lat="45.50536" lon="6.73824">
        <ele>2093.8</ele>
        <time>2021-08-12T11:25:26Z</time>
      </trkpt>
      <trkpt lat="45.50536" lon="6.73824">
        <ele>2093.8</ele>
        <time>2021-08-12T11:25:27Z</time>
      </trkpt>
      <trkpt lat="45.50537" lon="6.73824">
        <ele>2093.8</ele>
        <time>2021-08-12T11:25:28Z</time>
      </trkpt>
      <trkpt lat="45.50537" lon="6.73824">
        <ele>2093.8</ele>
        <time>2021-08-12T11:25:29Z</time>
      </trkpt>
      <trkpt lat="45.50537" lon="6.73824">
        <ele>2093.8</ele>
        <time>2021-08-12T11:25:30Z</time>
      </trkpt>
      <trkpt lat="45.50537" lon="6.73824">
        <ele>2093.8</ele>
        <time>2021-08-12T11:25:31Z</time>
      </trkpt>
      <trkpt lat="45.50537" lon="6.73824">
        <ele>2093.8</ele>
        <time>2021-08-12T11:25:32Z</time>
      </trkpt>
      <trkpt lat="45.50537" lon="6.73824">
        <ele>2093.8</ele>
        <time>2021-08-12T11:25:33Z</time>
      </trkpt>
      <trkpt lat="45.50537" lon="6.73824">
        <ele>2093.8</ele>
        <time>2021-08-12T11:25:34Z</time>
      </trkpt>
      <trkpt lat="45.50537" lon="6.73824">
        <ele>2093.9</ele>
        <time>2021-08-12T11:25:35Z</time>
      </trkpt>
      <trkpt lat="45.50537" lon="6.73824">
        <ele>2093.9</ele>
        <time>2021-08-12T11:25:36Z</time>
      </trkpt>
      <trkpt lat="45.50537" lon="6.73824">
        <ele>2093.9</ele>
        <time>2021-08-12T11:25:37Z</time>
      </trkpt>
      <trkpt lat="45.50538" lon="6.73824">
        <ele>2093.9</ele>
        <time>2021-08-12T11:25:38Z</time>
      </trkpt>
      <trkpt lat="45.50539" lon="6.73824">
        <ele>2092.7</ele>
        <time>2021-08-12T11:25:39Z</time>
      </trkpt>
      <trkpt lat="45.50539" lon="6.73824">
        <ele>2092.7</ele>
        <time>2021-08-12T11:25:40Z</time>
      </trkpt>
      <trkpt lat="45.5054" lon="6.73824">
        <ele>2092.7</ele>
        <time>2021-08-12T11:25:41Z</time>
      </trkpt>
      <trkpt lat="45.50541" lon="6.73824">
        <ele>2092.8</ele>
        <time>2021-08-12T11:25:42Z</time>
      </trkpt>
      <trkpt lat="45.50541" lon="6.73825">
        <ele>2092.8</ele>
        <time>2021-08-12T11:25:43Z</time>
      </trkpt>
      <trkpt lat="45.50542" lon="6.73825">
        <ele>2091.6</ele>
        <time>2021-08-12T11:25:44Z</time>
      </trkpt>
      <trkpt lat="45.50543" lon="6.73825">
        <ele>2091.6</ele>
        <time>2021-08-12T11:25:45Z</time>
      </trkpt>
      <trkpt lat="45.50543" lon="6.73825">
        <ele>2091.6</ele>
        <time>2021-08-12T11:25:46Z</time>
      </trkpt>
      <trkpt lat="45.50544" lon="6.73825">
        <ele>2091.5</ele>
        <time>2021-08-12T11:25:47Z</time>
      </trkpt>
      <trkpt lat="45.50544" lon="6.73826">
        <ele>2091.3</ele>
        <time>2021-08-12T11:25:48Z</time>
      </trkpt>
      <trkpt lat="45.50545" lon="6.73826">
        <ele>2091.2</ele>
        <time>2021-08-12T11:25:49Z</time>
      </trkpt>
      <trkpt lat="45.50545" lon="6.73826">
        <ele>2091.1</ele>
        <time>2021-08-12T11:25:50Z</time>
      </trkpt>
      <trkpt lat="45.50545" lon="6.73826">
        <ele>2091</ele>
        <time>2021-08-12T11:25:51Z</time>
      </trkpt>
      <trkpt lat="45.50546" lon="6.73825">
        <ele>2090.9</ele>
        <time>2021-08-12T11:25:52Z</time>
      </trkpt>
      <trkpt lat="45.50546" lon="6.73825">
        <ele>2090.8</ele>
        <time>2021-08-12T11:25:53Z</time>
      </trkpt>
      <trkpt lat="45.50546" lon="6.73825">
        <ele>2090.7</ele>
        <time>2021-08-12T11:25:54Z</time>
      </trkpt>
      <trkpt lat="45.50547" lon="6.73824">
        <ele>2090.6</ele>
        <time>2021-08-12T11:25:55Z</time>
      </trkpt>
      <trkpt lat="45.50547" lon="6.73824">
        <ele>2090.4</ele>
        <time>2021-08-12T11:25:56Z</time>
      </trkpt>
      <trkpt lat="45.50548" lon="6.73823">
        <ele>2090.2</ele>
        <time>2021-08-12T11:25:57Z</time>
      </trkpt>
      <trkpt lat="45.50548" lon="6.73823">
        <ele>2090.1</ele>
        <time>2021-08-12T11:25:58Z</time>
      </trkpt>
      <trkpt lat="45.50549" lon="6.73822">
        <ele>2089.9</ele>
        <time>2021-08-12T11:25:59Z</time>
      </trkpt>
      <trkpt lat="45.50549" lon="6.73821">
        <ele>2089.7</ele>
        <time>2021-08-12T11:26:00Z</time>
      </trkpt>
      <trkpt lat="45.50549" lon="6.7382">
        <ele>2089.5</ele>
        <time>2021-08-12T11:26:01Z</time>
      </trkpt>
      <trkpt lat="45.50549" lon="6.73819">
        <ele>2089.4</ele>
        <time>2021-08-12T11:26:02Z</time>
      </trkpt>
      <trkpt lat="45.5055" lon="6.73818">
        <ele>2089.2</ele>
        <time>2021-08-12T11:26:03Z</time>
      </trkpt>
      <trkpt lat="45.5055" lon="6.73818">
        <ele>2089.1</ele>
        <time>2021-08-12T11:26:04Z</time>
      </trkpt>
      <trkpt lat="45.5055" lon="6.73817">
        <ele>2088.9</ele>
        <time>2021-08-12T11:26:05Z</time>
      </trkpt>
      <trkpt lat="45.5055" lon="6.73817">
        <ele>2088.8</ele>
        <time>2021-08-12T11:26:06Z</time>
      </trkpt>
      <trkpt lat="45.50551" lon="6.73817">
        <ele>2088.7</ele>
        <time>2021-08-12T11:26:07Z</time>
      </trkpt>
      <trkpt lat="45.50552" lon="6.73818">
        <ele>2088.5</ele>
        <time>2021-08-12T11:26:08Z</time>
      </trkpt>
      <trkpt lat="45.50552" lon="6.73818">
        <ele>2088.4</ele>
        <time>2021-08-12T11:26:09Z</time>
      </trkpt>
      <trkpt lat="45.50553" lon="6.73818">
        <ele>2088.2</ele>
        <time>2021-08-12T11:26:10Z</time>
      </trkpt>
      <trkpt lat="45.50553" lon="6.73819">
        <ele>2088.1</ele>
        <time>2021-08-12T11:26:11Z</time>
      </trkpt>
      <trkpt lat="45.50553" lon="6.73819">
        <ele>2088</ele>
        <time>2021-08-12T11:26:12Z</time>
      </trkpt>
      <trkpt lat="45.50554" lon="6.73819">
        <ele>2087.8</ele>
        <time>2021-08-12T11:26:13Z</time>
      </trkpt>
      <trkpt lat="45.50554" lon="6.7382">
        <ele>2087.7</ele>
        <time>2021-08-12T11:26:14Z</time>
      </trkpt>
      <trkpt lat="45.50554" lon="6.7382">
        <ele>2087.7</ele>
        <time>2021-08-12T11:26:15Z</time>
      </trkpt>
      <trkpt lat="45.50555" lon="6.7382">
        <ele>2087.6</ele>
        <time>2021-08-12T11:26:16Z</time>
      </trkpt>
      <trkpt lat="45.50555" lon="6.7382">
        <ele>2087.5</ele>
        <time>2021-08-12T11:26:17Z</time>
      </trkpt>
      <trkpt lat="45.50555" lon="6.7382">
        <ele>2087.5</ele>
        <time>2021-08-12T11:26:18Z</time>
      </trkpt>
      <trkpt lat="45.50555" lon="6.7382">
        <ele>2087.5</ele>
        <time>2021-08-12T11:26:19Z</time>
      </trkpt>
      <trkpt lat="45.50555" lon="6.7382">
        <ele>2087.5</ele>
        <time>2021-08-12T11:26:20Z</time>
      </trkpt>
      <trkpt lat="45.50555" lon="6.73821">
        <ele>2087.5</ele>
        <time>2021-08-12T11:26:21Z</time>
      </trkpt>
      <trkpt lat="45.50555" lon="6.73821">
        <ele>2087.5</ele>
        <time>2021-08-12T11:26:22Z</time>
      </trkpt>
      <trkpt lat="45.50555" lon="6.73821">
        <ele>2087.5</ele>
        <time>2021-08-12T11:26:23Z</time>
      </trkpt>
      <trkpt lat="45.50555" lon="6.73821">
        <ele>2087.5</ele>
        <time>2021-08-12T11:26:24Z</time>
      </trkpt>
      <trkpt lat="45.50555" lon="6.73821">
        <ele>2087.5</ele>
        <time>2021-08-12T11:26:25Z</time>
      </trkpt>
      <trkpt lat="45.50555" lon="6.7382">
        <ele>2087.4</ele>
        <time>2021-08-12T11:26:26Z</time>
      </trkpt>
      <trkpt lat="45.50555" lon="6.7382">
        <ele>2087.4</ele>
        <time>2021-08-12T11:26:27Z</time>
      </trkpt>
      <trkpt lat="45.50555" lon="6.7382">
        <ele>2087.4</ele>
        <time>2021-08-12T11:26:28Z</time>
      </trkpt>
      <trkpt lat="45.50555" lon="6.7382">
        <ele>2087.4</ele>
        <time>2021-08-12T11:26:29Z</time>
      </trkpt>
      <trkpt lat="45.50555" lon="6.7382">
        <ele>2087.4</ele>
        <time>2021-08-12T11:26:30Z</time>
      </trkpt>
      <trkpt lat="45.50555" lon="6.7382">
        <ele>2087.3</ele>
        <time>2021-08-12T11:26:31Z</time>
      </trkpt>
      <trkpt lat="45.50555" lon="6.7382">
        <ele>2087.3</ele>
        <time>2021-08-12T11:26:32Z</time>
      </trkpt>
      <trkpt lat="45.50555" lon="6.7382">
        <ele>2087.3</ele>
        <time>2021-08-12T11:26:33Z</time>
      </trkpt>
      <trkpt lat="45.50555" lon="6.7382">
        <ele>2087.3</ele>
        <time>2021-08-12T11:26:34Z</time>
      </trkpt>
      <trkpt lat="45.50555" lon="6.73821">
        <ele>2087.3</ele>
        <time>2021-08-12T11:26:35Z</time>
      </trkpt>
      <trkpt lat="45.50555" lon="6.73821">
        <ele>2087.2</ele>
        <time>2021-08-12T11:26:36Z</time>
      </trkpt>
      <trkpt lat="45.50555" lon="6.73821">
        <ele>2087.1</ele>
        <time>2021-08-12T11:26:37Z</time>
      </trkpt>
      <trkpt lat="45.50555" lon="6.73821">
        <ele>2087.1</ele>
        <time>2021-08-12T11:26:38Z</time>
      </trkpt>
      <trkpt lat="45.50555" lon="6.73822">
        <ele>2087</ele>
        <time>2021-08-12T11:26:39Z</time>
      </trkpt>
      <trkpt lat="45.50556" lon="6.73823">
        <ele>2086.8</ele>
        <time>2021-08-12T11:26:40Z</time>
      </trkpt>
      <trkpt lat="45.50556" lon="6.73823">
        <ele>2086.7</ele>
        <time>2021-08-12T11:26:41Z</time>
      </trkpt>
      <trkpt lat="45.50556" lon="6.73824">
        <ele>2086.5</ele>
        <time>2021-08-12T11:26:42Z</time>
      </trkpt>
      <trkpt lat="45.50557" lon="6.73825">
        <ele>2086.3</ele>
        <time>2021-08-12T11:26:43Z</time>
      </trkpt>
      <trkpt lat="45.50557" lon="6.73825">
        <ele>2086.1</ele>
        <time>2021-08-12T11:26:44Z</time>
      </trkpt>
      <trkpt lat="45.50558" lon="6.73826">
        <ele>2085.9</ele>
        <time>2021-08-12T11:26:45Z</time>
      </trkpt>
      <trkpt lat="45.50558" lon="6.73826">
        <ele>2085.7</ele>
        <time>2021-08-12T11:26:46Z</time>
      </trkpt>
      <trkpt lat="45.50559" lon="6.73827">
        <ele>2085.5</ele>
        <time>2021-08-12T11:26:47Z</time>
      </trkpt>
      <trkpt lat="45.5056" lon="6.73827">
        <ele>2085.4</ele>
        <time>2021-08-12T11:26:48Z</time>
      </trkpt>
      <trkpt lat="45.5056" lon="6.73828">
        <ele>2085.2</ele>
        <time>2021-08-12T11:26:49Z</time>
      </trkpt>
      <trkpt lat="45.50561" lon="6.73828">
        <ele>2085</ele>
        <time>2021-08-12T11:26:50Z</time>
      </trkpt>
      <trkpt lat="45.50561" lon="6.73829">
        <ele>2084.8</ele>
        <time>2021-08-12T11:26:51Z</time>
      </trkpt>
      <trkpt lat="45.50562" lon="6.73829">
        <ele>2084.7</ele>
        <time>2021-08-12T11:26:52Z</time>
      </trkpt>
      <trkpt lat="45.50562" lon="6.7383">
        <ele>2084.5</ele>
        <time>2021-08-12T11:26:53Z</time>
      </trkpt>
      <trkpt lat="45.50563" lon="6.7383">
        <ele>2084.3</ele>
        <time>2021-08-12T11:26:54Z</time>
      </trkpt>
      <trkpt lat="45.50563" lon="6.73831">
        <ele>2084.2</ele>
        <time>2021-08-12T11:26:55Z</time>
      </trkpt>
      <trkpt lat="45.50563" lon="6.73831">
        <ele>2084</ele>
        <time>2021-08-12T11:26:56Z</time>
      </trkpt>
      <trkpt lat="45.50564" lon="6.73832">
        <ele>2083.9</ele>
        <time>2021-08-12T11:26:57Z</time>
      </trkpt>
      <trkpt lat="45.50564" lon="6.73832">
        <ele>2083.7</ele>
        <time>2021-08-12T11:26:58Z</time>
      </trkpt>
      <trkpt lat="45.50565" lon="6.73833">
        <ele>2083.5</ele>
        <time>2021-08-12T11:26:59Z</time>
      </trkpt>
      <trkpt lat="45.50565" lon="6.73833">
        <ele>2083.4</ele>
        <time>2021-08-12T11:27:00Z</time>
      </trkpt>
      <trkpt lat="45.50566" lon="6.73834">
        <ele>2083.2</ele>
        <time>2021-08-12T11:27:01Z</time>
      </trkpt>
      <trkpt lat="45.50566" lon="6.73835">
        <ele>2083</ele>
        <time>2021-08-12T11:27:02Z</time>
      </trkpt>
      <trkpt lat="45.50566" lon="6.73835">
        <ele>2082.8</ele>
        <time>2021-08-12T11:27:03Z</time>
      </trkpt>
      <trkpt lat="45.50567" lon="6.73836">
        <ele>2082.7</ele>
        <time>2021-08-12T11:27:04Z</time>
      </trkpt>
      <trkpt lat="45.50567" lon="6.73836">
        <ele>2082.5</ele>
        <time>2021-08-12T11:27:05Z</time>
      </trkpt>
      <trkpt lat="45.50568" lon="6.73837">
        <ele>2082.3</ele>
        <time>2021-08-12T11:27:06Z</time>
      </trkpt>
      <trkpt lat="45.50568" lon="6.73838">
        <ele>2082.1</ele>
        <time>2021-08-12T11:27:07Z</time>
      </trkpt>
      <trkpt lat="45.50569" lon="6.73838">
        <ele>2081.9</ele>
        <time>2021-08-12T11:27:08Z</time>
      </trkpt>
      <trkpt lat="45.5057" lon="6.73839">
        <ele>2081.6</ele>
        <time>2021-08-12T11:27:09Z</time>
      </trkpt>
      <trkpt lat="45.5057" lon="6.7384">
        <ele>2081.4</ele>
        <time>2021-08-12T11:27:10Z</time>
      </trkpt>
      <trkpt lat="45.50571" lon="6.73841">
        <ele>2081.2</ele>
        <time>2021-08-12T11:27:11Z</time>
      </trkpt>
      <trkpt lat="45.50571" lon="6.73841">
        <ele>2081</ele>
        <time>2021-08-12T11:27:12Z</time>
      </trkpt>
      <trkpt lat="45.50572" lon="6.73842">
        <ele>2080.8</ele>
        <time>2021-08-12T11:27:13Z</time>
      </trkpt>
      <trkpt lat="45.50573" lon="6.73843">
        <ele>2080.6</ele>
        <time>2021-08-12T11:27:14Z</time>
      </trkpt>
      <trkpt lat="45.50573" lon="6.73843">
        <ele>2080.4</ele>
        <time>2021-08-12T11:27:15Z</time>
      </trkpt>
      <trkpt lat="45.50574" lon="6.73844">
        <ele>2080.2</ele>
        <time>2021-08-12T11:27:16Z</time>
      </trkpt>
      <trkpt lat="45.50574" lon="6.73845">
        <ele>2080.1</ele>
        <time>2021-08-12T11:27:17Z</time>
      </trkpt>
      <trkpt lat="45.50574" lon="6.73845">
        <ele>2080</ele>
        <time>2021-08-12T11:27:18Z</time>
      </trkpt>
      <trkpt lat="45.50574" lon="6.73846">
        <ele>2079.8</ele>
        <time>2021-08-12T11:27:19Z</time>
      </trkpt>
      <trkpt lat="45.50574" lon="6.73846">
        <ele>2079.8</ele>
        <time>2021-08-12T11:27:20Z</time>
      </trkpt>
      <trkpt lat="45.50574" lon="6.73846">
        <ele>2079.7</ele>
        <time>2021-08-12T11:27:21Z</time>
      </trkpt>
      <trkpt lat="45.50574" lon="6.73847">
        <ele>2079.7</ele>
        <time>2021-08-12T11:27:22Z</time>
      </trkpt>
      <trkpt lat="45.50574" lon="6.73847">
        <ele>2079.6</ele>
        <time>2021-08-12T11:27:23Z</time>
      </trkpt>
      <trkpt lat="45.50574" lon="6.73847">
        <ele>2079.6</ele>
        <time>2021-08-12T11:27:24Z</time>
      </trkpt>
      <trkpt lat="45.50574" lon="6.73847">
        <ele>2079.5</ele>
        <time>2021-08-12T11:27:25Z</time>
      </trkpt>
      <trkpt lat="45.50574" lon="6.73847">
        <ele>2079.5</ele>
        <time>2021-08-12T11:27:26Z</time>
      </trkpt>
      <trkpt lat="45.50574" lon="6.73848">
        <ele>2079.4</ele>
        <time>2021-08-12T11:27:27Z</time>
      </trkpt>
      <trkpt lat="45.50574" lon="6.73848">
        <ele>2079.4</ele>
        <time>2021-08-12T11:27:28Z</time>
      </trkpt>
      <trkpt lat="45.50574" lon="6.73848">
        <ele>2079.4</ele>
        <time>2021-08-12T11:27:29Z</time>
      </trkpt>
      <trkpt lat="45.50574" lon="6.73848">
        <ele>2079.3</ele>
        <time>2021-08-12T11:27:30Z</time>
      </trkpt>
      <trkpt lat="45.50575" lon="6.73848">
        <ele>2079.2</ele>
        <time>2021-08-12T11:27:31Z</time>
      </trkpt>
      <trkpt lat="45.50575" lon="6.73848">
        <ele>2079.1</ele>
        <time>2021-08-12T11:27:32Z</time>
      </trkpt>
      <trkpt lat="45.50575" lon="6.73848">
        <ele>2079.1</ele>
        <time>2021-08-12T11:27:33Z</time>
      </trkpt>
      <trkpt lat="45.50576" lon="6.73848">
        <ele>2079</ele>
        <time>2021-08-12T11:27:34Z</time>
      </trkpt>
      <trkpt lat="45.50576" lon="6.73848">
        <ele>2078.8</ele>
        <time>2021-08-12T11:27:35Z</time>
      </trkpt>
      <trkpt lat="45.50577" lon="6.73848">
        <ele>2078.7</ele>
        <time>2021-08-12T11:27:36Z</time>
      </trkpt>
      <trkpt lat="45.50577" lon="6.73848">
        <ele>2078.6</ele>
        <time>2021-08-12T11:27:37Z</time>
      </trkpt>
      <trkpt lat="45.50578" lon="6.73848">
        <ele>2078.5</ele>
        <time>2021-08-12T11:27:38Z</time>
      </trkpt>
      <trkpt lat="45.50578" lon="6.73848">
        <ele>2078.3</ele>
        <time>2021-08-12T11:27:39Z</time>
      </trkpt>
      <trkpt lat="45.50578" lon="6.73848">
        <ele>2078.2</ele>
        <time>2021-08-12T11:27:40Z</time>
      </trkpt>
      <trkpt lat="45.50579" lon="6.73848">
        <ele>2078.1</ele>
        <time>2021-08-12T11:27:41Z</time>
      </trkpt>
      <trkpt lat="45.50579" lon="6.73848">
        <ele>2078</ele>
        <time>2021-08-12T11:27:42Z</time>
      </trkpt>
      <trkpt lat="45.5058" lon="6.73848">
        <ele>2077.9</ele>
        <time>2021-08-12T11:27:43Z</time>
      </trkpt>
      <trkpt lat="45.5058" lon="6.73848">
        <ele>2077.7</ele>
        <time>2021-08-12T11:27:44Z</time>
      </trkpt>
      <trkpt lat="45.50581" lon="6.73848">
        <ele>2077.6</ele>
        <time>2021-08-12T11:27:45Z</time>
      </trkpt>
      <trkpt lat="45.50581" lon="6.73848">
        <ele>2077.5</ele>
        <time>2021-08-12T11:27:46Z</time>
      </trkpt>
      <trkpt lat="45.50581" lon="6.73848">
        <ele>2077.4</ele>
        <time>2021-08-12T11:27:47Z</time>
      </trkpt>
      <trkpt lat="45.50582" lon="6.73847">
        <ele>2077.3</ele>
        <time>2021-08-12T11:27:48Z</time>
      </trkpt>
      <trkpt lat="45.50582" lon="6.73847">
        <ele>2077.1</ele>
        <time>2021-08-12T11:27:49Z</time>
      </trkpt>
      <trkpt lat="45.50583" lon="6.73846">
        <ele>2077</ele>
        <time>2021-08-12T11:27:50Z</time>
      </trkpt>
      <trkpt lat="45.50583" lon="6.73846">
        <ele>2076.8</ele>
        <time>2021-08-12T11:27:51Z</time>
      </trkpt>
      <trkpt lat="45.50584" lon="6.73845">
        <ele>2076.7</ele>
        <time>2021-08-12T11:27:52Z</time>
      </trkpt>
      <trkpt lat="45.50584" lon="6.73844">
        <ele>2076.5</ele>
        <time>2021-08-12T11:27:53Z</time>
      </trkpt>
      <trkpt lat="45.50584" lon="6.73844">
        <ele>2076.3</ele>
        <time>2021-08-12T11:27:54Z</time>
      </trkpt>
      <trkpt lat="45.50585" lon="6.73843">
        <ele>2076.2</ele>
        <time>2021-08-12T11:27:55Z</time>
      </trkpt>
      <trkpt lat="45.50585" lon="6.73842">
        <ele>2076</ele>
        <time>2021-08-12T11:27:56Z</time>
      </trkpt>
      <trkpt lat="45.50585" lon="6.73841">
        <ele>2075.9</ele>
        <time>2021-08-12T11:27:57Z</time>
      </trkpt>
      <trkpt lat="45.50586" lon="6.7384">
        <ele>2075.7</ele>
        <time>2021-08-12T11:27:58Z</time>
      </trkpt>
      <trkpt lat="45.50586" lon="6.7384">
        <ele>2075.5</ele>
        <time>2021-08-12T11:27:59Z</time>
      </trkpt>
      <trkpt lat="45.50586" lon="6.73839">
        <ele>2075.4</ele>
        <time>2021-08-12T11:28:00Z</time>
      </trkpt>
      <trkpt lat="45.50586" lon="6.73838">
        <ele>2075.2</ele>
        <time>2021-08-12T11:28:01Z</time>
      </trkpt>
      <trkpt lat="45.50586" lon="6.73837">
        <ele>2075.1</ele>
        <time>2021-08-12T11:28:02Z</time>
      </trkpt>
      <trkpt lat="45.50586" lon="6.73837">
        <ele>2075</ele>
        <time>2021-08-12T11:28:03Z</time>
      </trkpt>
      <trkpt lat="45.50586" lon="6.73836">
        <ele>2074.9</ele>
        <time>2021-08-12T11:28:04Z</time>
      </trkpt>
      <trkpt lat="45.50586" lon="6.73835">
        <ele>2074.7</ele>
        <time>2021-08-12T11:28:05Z</time>
      </trkpt>
      <trkpt lat="45.50586" lon="6.73834">
        <ele>2074.6</ele>
        <time>2021-08-12T11:28:06Z</time>
      </trkpt>
      <trkpt lat="45.50586" lon="6.73834">
        <ele>2074.5</ele>
        <time>2021-08-12T11:28:07Z</time>
      </trkpt>
      <trkpt lat="45.50586" lon="6.73833">
        <ele>2074.4</ele>
        <time>2021-08-12T11:28:08Z</time>
      </trkpt>
      <trkpt lat="45.50586" lon="6.73832">
        <ele>2074.3</ele>
        <time>2021-08-12T11:28:09Z</time>
      </trkpt>
      <trkpt lat="45.50586" lon="6.73832">
        <ele>2074.2</ele>
        <time>2021-08-12T11:28:10Z</time>
      </trkpt>
      <trkpt lat="45.50586" lon="6.73831">
        <ele>2074.1</ele>
        <time>2021-08-12T11:28:11Z</time>
      </trkpt>
      <trkpt lat="45.50586" lon="6.73831">
        <ele>2074</ele>
        <time>2021-08-12T11:28:12Z</time>
      </trkpt>
      <trkpt lat="45.50586" lon="6.7383">
        <ele>2073.9</ele>
        <time>2021-08-12T11:28:13Z</time>
      </trkpt>
      <trkpt lat="45.50586" lon="6.73829">
        <ele>2073.7</ele>
        <time>2021-08-12T11:28:14Z</time>
      </trkpt>
      <trkpt lat="45.50585" lon="6.73829">
        <ele>2073.6</ele>
        <time>2021-08-12T11:28:15Z</time>
      </trkpt>
      <trkpt lat="45.50585" lon="6.73828">
        <ele>2073.5</ele>
        <time>2021-08-12T11:28:16Z</time>
      </trkpt>
      <trkpt lat="45.50585" lon="6.73827">
        <ele>2073.4</ele>
        <time>2021-08-12T11:28:17Z</time>
      </trkpt>
      <trkpt lat="45.50585" lon="6.73827">
        <ele>2073.3</ele>
        <time>2021-08-12T11:28:18Z</time>
      </trkpt>
      <trkpt lat="45.50586" lon="6.73826">
        <ele>2073.1</ele>
        <time>2021-08-12T11:28:19Z</time>
      </trkpt>
      <trkpt lat="45.50586" lon="6.73825">
        <ele>2073</ele>
        <time>2021-08-12T11:28:20Z</time>
      </trkpt>
      <trkpt lat="45.50586" lon="6.73824">
        <ele>2072.8</ele>
        <time>2021-08-12T11:28:21Z</time>
      </trkpt>
      <trkpt lat="45.50586" lon="6.73823">
        <ele>2072.7</ele>
        <time>2021-08-12T11:28:22Z</time>
      </trkpt>
      <trkpt lat="45.50586" lon="6.73822">
        <ele>2072.5</ele>
        <time>2021-08-12T11:28:23Z</time>
      </trkpt>
      <trkpt lat="45.50587" lon="6.73822">
        <ele>2072.4</ele>
        <time>2021-08-12T11:28:24Z</time>
      </trkpt>
      <trkpt lat="45.50587" lon="6.73821">
        <ele>2072.2</ele>
        <time>2021-08-12T11:28:25Z</time>
      </trkpt>
      <trkpt lat="45.50587" lon="6.73821">
        <ele>2072.1</ele>
        <time>2021-08-12T11:28:26Z</time>
      </trkpt>
      <trkpt lat="45.50588" lon="6.7382">
        <ele>2072</ele>
        <time>2021-08-12T11:28:27Z</time>
      </trkpt>
      <trkpt lat="45.50588" lon="6.7382">
        <ele>2071.9</ele>
        <time>2021-08-12T11:28:28Z</time>
      </trkpt>
      <trkpt lat="45.50589" lon="6.73819">
        <ele>2071.8</ele>
        <time>2021-08-12T11:28:29Z</time>
      </trkpt>
      <trkpt lat="45.50589" lon="6.73819">
        <ele>2071.6</ele>
        <time>2021-08-12T11:28:30Z</time>
      </trkpt>
      <trkpt lat="45.5059" lon="6.73819">
        <ele>2071.5</ele>
        <time>2021-08-12T11:28:31Z</time>
      </trkpt>
      <trkpt lat="45.5059" lon="6.73819">
        <ele>2071.4</ele>
        <time>2021-08-12T11:28:32Z</time>
      </trkpt>
      <trkpt lat="45.50591" lon="6.73819">
        <ele>2071.3</ele>
        <time>2021-08-12T11:28:33Z</time>
      </trkpt>
      <trkpt lat="45.50591" lon="6.7382">
        <ele>2071.1</ele>
        <time>2021-08-12T11:28:34Z</time>
      </trkpt>
      <trkpt lat="45.50592" lon="6.7382">
        <ele>2071</ele>
        <time>2021-08-12T11:28:35Z</time>
      </trkpt>
      <trkpt lat="45.50592" lon="6.7382">
        <ele>2070.9</ele>
        <time>2021-08-12T11:28:36Z</time>
      </trkpt>
      <trkpt lat="45.50593" lon="6.7382">
        <ele>2070.8</ele>
        <time>2021-08-12T11:28:37Z</time>
      </trkpt>
      <trkpt lat="45.50593" lon="6.73821">
        <ele>2070.6</ele>
        <time>2021-08-12T11:28:38Z</time>
      </trkpt>
      <trkpt lat="45.50594" lon="6.73821">
        <ele>2070.5</ele>
        <time>2021-08-12T11:28:39Z</time>
      </trkpt>
      <trkpt lat="45.50594" lon="6.73822">
        <ele>2070.3</ele>
        <time>2021-08-12T11:28:40Z</time>
      </trkpt>
      <trkpt lat="45.50594" lon="6.73822">
        <ele>2070.2</ele>
        <time>2021-08-12T11:28:41Z</time>
      </trkpt>
      <trkpt lat="45.50595" lon="6.73823">
        <ele>2070</ele>
        <time>2021-08-12T11:28:42Z</time>
      </trkpt>
      <trkpt lat="45.50595" lon="6.73824">
        <ele>2069.9</ele>
        <time>2021-08-12T11:28:43Z</time>
      </trkpt>
      <trkpt lat="45.50595" lon="6.73824">
        <ele>2069.7</ele>
        <time>2021-08-12T11:28:44Z</time>
      </trkpt>
      <trkpt lat="45.50596" lon="6.73825">
        <ele>2069.6</ele>
        <time>2021-08-12T11:28:45Z</time>
      </trkpt>
      <trkpt lat="45.50596" lon="6.73826">
        <ele>2069.4</ele>
        <time>2021-08-12T11:28:46Z</time>
      </trkpt>
      <trkpt lat="45.50596" lon="6.73827">
        <ele>2069.3</ele>
        <time>2021-08-12T11:28:47Z</time>
      </trkpt>
      <trkpt lat="45.50596" lon="6.73827">
        <ele>2069.1</ele>
        <time>2021-08-12T11:28:48Z</time>
      </trkpt>
      <trkpt lat="45.50596" lon="6.73828">
        <ele>2069</ele>
        <time>2021-08-12T11:28:49Z</time>
      </trkpt>
      <trkpt lat="45.50597" lon="6.73829">
        <ele>2068.9</ele>
        <time>2021-08-12T11:28:50Z</time>
      </trkpt>
      <trkpt lat="45.50597" lon="6.7383">
        <ele>2068.7</ele>
        <time>2021-08-12T11:28:51Z</time>
      </trkpt>
      <trkpt lat="45.50597" lon="6.7383">
        <ele>2068.6</ele>
        <time>2021-08-12T11:28:52Z</time>
      </trkpt>
      <trkpt lat="45.50597" lon="6.73831">
        <ele>2068.5</ele>
        <time>2021-08-12T11:28:53Z</time>
      </trkpt>
      <trkpt lat="45.50597" lon="6.73832">
        <ele>2068.4</ele>
        <time>2021-08-12T11:28:54Z</time>
      </trkpt>
      <trkpt lat="45.50597" lon="6.73832">
        <ele>2068.3</ele>
        <time>2021-08-12T11:28:55Z</time>
      </trkpt>
      <trkpt lat="45.50597" lon="6.73832">
        <ele>2068.2</ele>
        <time>2021-08-12T11:28:56Z</time>
      </trkpt>
      <trkpt lat="45.50597" lon="6.73833">
        <ele>2068.2</ele>
        <time>2021-08-12T11:28:57Z</time>
      </trkpt>
      <trkpt lat="45.50597" lon="6.73833">
        <ele>2068.1</ele>
        <time>2021-08-12T11:28:58Z</time>
      </trkpt>
      <trkpt lat="45.50597" lon="6.73833">
        <ele>2068.1</ele>
        <time>2021-08-12T11:28:59Z</time>
      </trkpt>
      <trkpt lat="45.50597" lon="6.73833">
        <ele>2068.1</ele>
        <time>2021-08-12T11:29:00Z</time>
      </trkpt>
      <trkpt lat="45.50597" lon="6.73833">
        <ele>2068.1</ele>
        <time>2021-08-12T11:29:01Z</time>
      </trkpt>
      <trkpt lat="45.50597" lon="6.73833">
        <ele>2068.1</ele>
        <time>2021-08-12T11:29:02Z</time>
      </trkpt>
      <trkpt lat="45.50597" lon="6.73833">
        <ele>2068.1</ele>
        <time>2021-08-12T11:29:03Z</time>
      </trkpt>
      <trkpt lat="45.50597" lon="6.73833">
        <ele>2068.1</ele>
        <time>2021-08-12T11:29:04Z</time>
      </trkpt>
      <trkpt lat="45.50597" lon="6.73833">
        <ele>2068.1</ele>
        <time>2021-08-12T11:29:05Z</time>
      </trkpt>
      <trkpt lat="45.50597" lon="6.73833">
        <ele>2068.1</ele>
        <time>2021-08-12T11:29:06Z</time>
      </trkpt>
      <trkpt lat="45.50597" lon="6.73833">
        <ele>2068</ele>
        <time>2021-08-12T11:29:07Z</time>
      </trkpt>
      <trkpt lat="45.50597" lon="6.73833">
        <ele>2068</ele>
        <time>2021-08-12T11:29:08Z</time>
      </trkpt>
      <trkpt lat="45.50597" lon="6.73833">
        <ele>2068</ele>
        <time>2021-08-12T11:29:09Z</time>
      </trkpt>
      <trkpt lat="45.50597" lon="6.73833">
        <ele>2068</ele>
        <time>2021-08-12T11:29:10Z</time>
      </trkpt>
      <trkpt lat="45.50597" lon="6.73833">
        <ele>2068</ele>
        <time>2021-08-12T11:29:11Z</time>
      </trkpt>
      <trkpt lat="45.50597" lon="6.73833">
        <ele>2068</ele>
        <time>2021-08-12T11:29:12Z</time>
      </trkpt>
      <trkpt lat="45.50596" lon="6.73833">
        <ele>2068</ele>
        <time>2021-08-12T11:29:13Z</time>
      </trkpt>
      <trkpt lat="45.50596" lon="6.73833">
        <ele>2068</ele>
        <time>2021-08-12T11:29:14Z</time>
      </trkpt>
      <trkpt lat="45.50596" lon="6.73833">
        <ele>2068</ele>
        <time>2021-08-12T11:29:15Z</time>
      </trkpt>
      <trkpt lat="45.50596" lon="6.73833">
        <ele>2068</ele>
        <time>2021-08-12T11:29:16Z</time>
      </trkpt>
      <trkpt lat="45.50597" lon="6.73833">
        <ele>2068</ele>
        <time>2021-08-12T11:29:17Z</time>
      </trkpt>
      <trkpt lat="45.50597" lon="6.73833">
        <ele>2068</ele>
        <time>2021-08-12T11:29:18Z</time>
      </trkpt>
      <trkpt lat="45.50597" lon="6.73833">
        <ele>2068</ele>
        <time>2021-08-12T11:29:19Z</time>
      </trkpt>
      <trkpt lat="45.50597" lon="6.73833">
        <ele>2068</ele>
        <time>2021-08-12T11:29:20Z</time>
      </trkpt>
      <trkpt lat="45.50597" lon="6.73833">
        <ele>2068</ele>
        <time>2021-08-12T11:29:21Z</time>
      </trkpt>
      <trkpt lat="45.50597" lon="6.73833">
        <ele>2068</ele>
        <time>2021-08-12T11:29:22Z</time>
      </trkpt>
      <trkpt lat="45.50597" lon="6.73833">
        <ele>2068</ele>
        <time>2021-08-12T11:29:23Z</time>
      </trkpt>
      <trkpt lat="45.50597" lon="6.73833">
        <ele>2068</ele>
        <time>2021-08-12T11:29:24Z</time>
      </trkpt>
      <trkpt lat="45.50597" lon="6.73833">
        <ele>2068</ele>
        <time>2021-08-12T11:29:25Z</time>
      </trkpt>
      <trkpt lat="45.50597" lon="6.73833">
        <ele>2068</ele>
        <time>2021-08-12T11:29:26Z</time>
      </trkpt>
      <trkpt lat="45.50597" lon="6.73832">
        <ele>2067.9</ele>
        <time>2021-08-12T11:29:27Z</time>
      </trkpt>
      <trkpt lat="45.50597" lon="6.73832">
        <ele>2067.9</ele>
        <time>2021-08-12T11:29:28Z</time>
      </trkpt>
      <trkpt lat="45.50597" lon="6.73832">
        <ele>2067.9</ele>
        <time>2021-08-12T11:29:29Z</time>
      </trkpt>
      <trkpt lat="45.50597" lon="6.73832">
        <ele>2067.9</ele>
        <time>2021-08-12T11:29:30Z</time>
      </trkpt>
      <trkpt lat="45.50597" lon="6.73832">
        <ele>2067.9</ele>
        <time>2021-08-12T11:29:31Z</time>
      </trkpt>
      <trkpt lat="45.50597" lon="6.73832">
        <ele>2067.8</ele>
        <time>2021-08-12T11:29:32Z</time>
      </trkpt>
      <trkpt lat="45.50597" lon="6.73832">
        <ele>2067.8</ele>
        <time>2021-08-12T11:29:33Z</time>
      </trkpt>
      <trkpt lat="45.50597" lon="6.73832">
        <ele>2067.8</ele>
        <time>2021-08-12T11:29:34Z</time>
      </trkpt>
      <trkpt lat="45.50597" lon="6.73832">
        <ele>2067.8</ele>
        <time>2021-08-12T11:29:35Z</time>
      </trkpt>
      <trkpt lat="45.50597" lon="6.73832">
        <ele>2067.8</ele>
        <time>2021-08-12T11:29:36Z</time>
      </trkpt>
      <trkpt lat="45.50597" lon="6.73831">
        <ele>2067.7</ele>
        <time>2021-08-12T11:29:37Z</time>
      </trkpt>
      <trkpt lat="45.50597" lon="6.73831">
        <ele>2067.7</ele>
        <time>2021-08-12T11:29:38Z</time>
      </trkpt>
      <trkpt lat="45.50597" lon="6.73831">
        <ele>2067.7</ele>
        <time>2021-08-12T11:29:39Z</time>
      </trkpt>
      <trkpt lat="45.50597" lon="6.73831">
        <ele>2067.7</ele>
        <time>2021-08-12T11:29:40Z</time>
      </trkpt>
      <trkpt lat="45.50597" lon="6.73831">
        <ele>2067.7</ele>
        <time>2021-08-12T11:29:41Z</time>
      </trkpt>
      <trkpt lat="45.50597" lon="6.73831">
        <ele>2067.6</ele>
        <time>2021-08-12T11:29:42Z</time>
      </trkpt>
      <trkpt lat="45.50597" lon="6.73831">
        <ele>2067.6</ele>
        <time>2021-08-12T11:29:43Z</time>
      </trkpt>
      <trkpt lat="45.50597" lon="6.73831">
        <ele>2067.6</ele>
        <time>2021-08-12T11:29:44Z</time>
      </trkpt>
      <trkpt lat="45.50597" lon="6.73831">
        <ele>2067.6</ele>
        <time>2021-08-12T11:29:45Z</time>
      </trkpt>
      <trkpt lat="45.50597" lon="6.73831">
        <ele>2067.6</ele>
        <time>2021-08-12T11:29:46Z</time>
      </trkpt>
      <trkpt lat="45.50597" lon="6.73831">
        <ele>2067.6</ele>
        <time>2021-08-12T11:29:47Z</time>
      </trkpt>
      <trkpt lat="45.50597" lon="6.73831">
        <ele>2067.6</ele>
        <time>2021-08-12T11:29:48Z</time>
      </trkpt>
      <trkpt lat="45.50597" lon="6.73831">
        <ele>2067.6</ele>
        <time>2021-08-12T11:29:49Z</time>
      </trkpt>
      <trkpt lat="45.50597" lon="6.73831">
        <ele>2067.6</ele>
        <time>2021-08-12T11:29:50Z</time>
      </trkpt>
      <trkpt lat="45.50597" lon="6.73831">
        <ele>2067.6</ele>
        <time>2021-08-12T11:29:51Z</time>
      </trkpt>
      <trkpt lat="45.50597" lon="6.7383">
        <ele>2067.5</ele>
        <time>2021-08-12T11:29:52Z</time>
      </trkpt>
      <trkpt lat="45.50597" lon="6.7383">
        <ele>2067.5</ele>
        <time>2021-08-12T11:29:53Z</time>
      </trkpt>
      <trkpt lat="45.50597" lon="6.7383">
        <ele>2067.5</ele>
        <time>2021-08-12T11:29:54Z</time>
      </trkpt>
      <trkpt lat="45.50597" lon="6.7383">
        <ele>2067.5</ele>
        <time>2021-08-12T11:29:55Z</time>
      </trkpt>
      <trkpt lat="45.50597" lon="6.7383">
        <ele>2067.5</ele>
        <time>2021-08-12T11:29:56Z</time>
      </trkpt>
      <trkpt lat="45.50597" lon="6.7383">
        <ele>2067.5</ele>
        <time>2021-08-12T11:29:57Z</time>
      </trkpt>
      <trkpt lat="45.50597" lon="6.7383">
        <ele>2067.5</ele>
        <time>2021-08-12T11:29:58Z</time>
      </trkpt>
      <trkpt lat="45.50597" lon="6.7383">
        <ele>2067.5</ele>
        <time>2021-08-12T11:29:59Z</time>
      </trkpt>
      <trkpt lat="45.50597" lon="6.7383">
        <ele>2067.5</ele>
        <time>2021-08-12T11:30:00Z</time>
      </trkpt>
      <trkpt lat="45.50597" lon="6.7383">
        <ele>2067.5</ele>
        <time>2021-08-12T11:30:01Z</time>
      </trkpt>
      <trkpt lat="45.50597" lon="6.7383">
        <ele>2067.5</ele>
        <time>2021-08-12T11:30:02Z</time>
      </trkpt>
      <trkpt lat="45.50597" lon="6.7383">
        <ele>2067.5</ele>
        <time>2021-08-12T11:30:03Z</time>
      </trkpt>
      <trkpt lat="45.50597" lon="6.7383">
        <ele>2067.5</ele>
        <time>2021-08-12T11:30:04Z</time>
      </trkpt>
      <trkpt lat="45.50597" lon="6.7383">
        <ele>2067.5</ele>
        <time>2021-08-12T11:30:05Z</time>
      </trkpt>
      <trkpt lat="45.50597" lon="6.7383">
        <ele>2067.5</ele>
        <time>2021-08-12T11:30:06Z</time>
      </trkpt>
      <trkpt lat="45.50597" lon="6.7383">
        <ele>2067.5</ele>
        <time>2021-08-12T11:30:07Z</time>
      </trkpt>
      <trkpt lat="45.50597" lon="6.7383">
        <ele>2067.4</ele>
        <time>2021-08-12T11:30:08Z</time>
      </trkpt>
      <trkpt lat="45.50597" lon="6.7383">
        <ele>2067.4</ele>
        <time>2021-08-12T11:30:09Z</time>
      </trkpt>
      <trkpt lat="45.50597" lon="6.7383">
        <ele>2067.4</ele>
        <time>2021-08-12T11:30:10Z</time>
      </trkpt>
      <trkpt lat="45.50597" lon="6.7383">
        <ele>2067.4</ele>
        <time>2021-08-12T11:30:11Z</time>
      </trkpt>
      <trkpt lat="45.50597" lon="6.7383">
        <ele>2067.4</ele>
        <time>2021-08-12T11:30:12Z</time>
      </trkpt>
      <trkpt lat="45.50597" lon="6.7383">
        <ele>2067.4</ele>
        <time>2021-08-12T11:30:13Z</time>
      </trkpt>
      <trkpt lat="45.50597" lon="6.7383">
        <ele>2067.4</ele>
        <time>2021-08-12T11:30:14Z</time>
      </trkpt>
      <trkpt lat="45.50597" lon="6.7383">
        <ele>2067.4</ele>
        <time>2021-08-12T11:30:15Z</time>
      </trkpt>
      <trkpt lat="45.50597" lon="6.7383">
        <ele>2067.4</ele>
        <time>2021-08-12T11:30:16Z</time>
      </trkpt>
      <trkpt lat="45.50597" lon="6.7383">
        <ele>2067.4</ele>
        <time>2021-08-12T11:30:17Z</time>
      </trkpt>
      <trkpt lat="45.50597" lon="6.7383">
        <ele>2067.4</ele>
        <time>2021-08-12T11:30:18Z</time>
      </trkpt>
      <trkpt lat="45.50597" lon="6.7383">
        <ele>2067.4</ele>
        <time>2021-08-12T11:30:19Z</time>
      </trkpt>
      <trkpt lat="45.50597" lon="6.7383">
        <ele>2067.4</ele>
        <time>2021-08-12T11:30:20Z</time>
      </trkpt>
      <trkpt lat="45.50597" lon="6.7383">
        <ele>2067.4</ele>
        <time>2021-08-12T11:30:21Z</time>
      </trkpt>
      <trkpt lat="45.50597" lon="6.7383">
        <ele>2067.4</ele>
        <time>2021-08-12T11:30:22Z</time>
      </trkpt>
      <trkpt lat="45.50597" lon="6.7383">
        <ele>2067.4</ele>
        <time>2021-08-12T11:30:23Z</time>
      </trkpt>
      <trkpt lat="45.50597" lon="6.7383">
        <ele>2067.4</ele>
        <time>2021-08-12T11:30:24Z</time>
      </trkpt>
      <trkpt lat="45.50597" lon="6.7383">
        <ele>2067.4</ele>
        <time>2021-08-12T11:30:25Z</time>
      </trkpt>
      <trkpt lat="45.50597" lon="6.7383">
        <ele>2067.4</ele>
        <time>2021-08-12T11:30:26Z</time>
      </trkpt>
      <trkpt lat="45.50597" lon="6.7383">
        <ele>2067.4</ele>
        <time>2021-08-12T11:30:27Z</time>
      </trkpt>
      <trkpt lat="45.50597" lon="6.7383">
        <ele>2067.4</ele>
        <time>2021-08-12T11:30:28Z</time>
      </trkpt>
      <trkpt lat="45.50597" lon="6.7383">
        <ele>2067.4</ele>
        <time>2021-08-12T11:30:29Z</time>
      </trkpt>
      <trkpt lat="45.50597" lon="6.7383">
        <ele>2067.4</ele>
        <time>2021-08-12T11:30:30Z</time>
      </trkpt>
      <trkpt lat="45.50597" lon="6.7383">
        <ele>2067.4</ele>
        <time>2021-08-12T11:30:31Z</time>
      </trkpt>
      <trkpt lat="45.50597" lon="6.7383">
        <ele>2067.4</ele>
        <time>2021-08-12T11:30:32Z</time>
      </trkpt>
      <trkpt lat="45.50597" lon="6.7383">
        <ele>2067.4</ele>
        <time>2021-08-12T11:30:33Z</time>
      </trkpt>
      <trkpt lat="45.50597" lon="6.7383">
        <ele>2067.4</ele>
        <time>2021-08-12T11:30:34Z</time>
      </trkpt>
      <trkpt lat="45.50597" lon="6.7383">
        <ele>2067.4</ele>
        <time>2021-08-12T11:30:35Z</time>
      </trkpt>
      <trkpt lat="45.50597" lon="6.7383">
        <ele>2067.4</ele>
        <time>2021-08-12T11:30:36Z</time>
      </trkpt>
      <trkpt lat="45.50597" lon="6.7383">
        <ele>2067.4</ele>
        <time>2021-08-12T11:30:37Z</time>
      </trkpt>
      <trkpt lat="45.50597" lon="6.7383">
        <ele>2067.4</ele>
        <time>2021-08-12T11:30:38Z</time>
      </trkpt>
      <trkpt lat="45.50597" lon="6.7383">
        <ele>2067.4</ele>
        <time>2021-08-12T11:30:39Z</time>
      </trkpt>
      <trkpt lat="45.50597" lon="6.7383">
        <ele>2067.4</ele>
        <time>2021-08-12T11:30:40Z</time>
      </trkpt>
      <trkpt lat="45.50597" lon="6.7383">
        <ele>2067.4</ele>
        <time>2021-08-12T11:30:41Z</time>
      </trkpt>
      <trkpt lat="45.50597" lon="6.7383">
        <ele>2067.4</ele>
        <time>2021-08-12T11:30:42Z</time>
      </trkpt>
      <trkpt lat="45.50597" lon="6.7383">
        <ele>2067.4</ele>
        <time>2021-08-12T11:30:43Z</time>
      </trkpt>
      <trkpt lat="45.50597" lon="6.7383">
        <ele>2067.4</ele>
        <time>2021-08-12T11:30:44Z</time>
      </trkpt>
      <trkpt lat="45.50597" lon="6.7383">
        <ele>2067.4</ele>
        <time>2021-08-12T11:30:45Z</time>
      </trkpt>
      <trkpt lat="45.50597" lon="6.7383">
        <ele>2067.4</ele>
        <time>2021-08-12T11:30:46Z</time>
      </trkpt>
      <trkpt lat="45.50597" lon="6.7383">
        <ele>2067.4</ele>
        <time>2021-08-12T11:30:47Z</time>
      </trkpt>
      <trkpt lat="45.50597" lon="6.7383">
        <ele>2067.4</ele>
        <time>2021-08-12T11:30:48Z</time>
      </trkpt>
      <trkpt lat="45.50597" lon="6.7383">
        <ele>2067.4</ele>
        <time>2021-08-12T11:30:49Z</time>
      </trkpt>
      <trkpt lat="45.50597" lon="6.7383">
        <ele>2067.4</ele>
        <time>2021-08-12T11:30:50Z</time>
      </trkpt>
      <trkpt lat="45.50597" lon="6.7383">
        <ele>2067.4</ele>
        <time>2021-08-12T11:30:51Z</time>
      </trkpt>
      <trkpt lat="45.50597" lon="6.7383">
        <ele>2067.4</ele>
        <time>2021-08-12T11:30:52Z</time>
      </trkpt>
      <trkpt lat="45.50597" lon="6.7383">
        <ele>2067.4</ele>
        <time>2021-08-12T11:30:53Z</time>
      </trkpt>
      <trkpt lat="45.50597" lon="6.7383">
        <ele>2067.4</ele>
        <time>2021-08-12T11:30:54Z</time>
      </trkpt>
      <trkpt lat="45.50597" lon="6.7383">
        <ele>2067.4</ele>
        <time>2021-08-12T11:30:55Z</time>
      </trkpt>
      <trkpt lat="45.50597" lon="6.7383">
        <ele>2067.4</ele>
        <time>2021-08-12T11:30:56Z</time>
      </trkpt>
      <trkpt lat="45.50597" lon="6.7383">
        <ele>2067.4</ele>
        <time>2021-08-12T11:30:57Z</time>
      </trkpt>
      <trkpt lat="45.50597" lon="6.7383">
        <ele>2067.4</ele>
        <time>2021-08-12T11:30:58Z</time>
      </trkpt>
      <trkpt lat="45.50597" lon="6.7383">
        <ele>2067.4</ele>
        <time>2021-08-12T11:30:59Z</time>
      </trkpt>
      <trkpt lat="45.50597" lon="6.7383">
        <ele>2067.4</ele>
        <time>2021-08-12T11:31:00Z</time>
      </trkpt>
      <trkpt lat="45.50597" lon="6.7383">
        <ele>2067.4</ele>
        <time>2021-08-12T11:31:01Z</time>
      </trkpt>
      <trkpt lat="45.50597" lon="6.7383">
        <ele>2067.4</ele>
        <time>2021-08-12T11:31:02Z</time>
      </trkpt>
      <trkpt lat="45.50597" lon="6.7383">
        <ele>2067.4</ele>
        <time>2021-08-12T11:31:03Z</time>
      </trkpt>
      <trkpt lat="45.50597" lon="6.7383">
        <ele>2067.4</ele>
        <time>2021-08-12T11:31:04Z</time>
      </trkpt>
      <trkpt lat="45.50597" lon="6.7383">
        <ele>2067.4</ele>
        <time>2021-08-12T11:31:05Z</time>
      </trkpt>
      <trkpt lat="45.50597" lon="6.7383">
        <ele>2067.4</ele>
        <time>2021-08-12T11:31:06Z</time>
      </trkpt>
      <trkpt lat="45.50597" lon="6.7383">
        <ele>2067.4</ele>
        <time>2021-08-12T11:31:07Z</time>
      </trkpt>
      <trkpt lat="45.50597" lon="6.7383">
        <ele>2067.4</ele>
        <time>2021-08-12T11:31:08Z</time>
      </trkpt>
      <trkpt lat="45.50597" lon="6.7383">
        <ele>2067.4</ele>
        <time>2021-08-12T11:31:09Z</time>
      </trkpt>
      <trkpt lat="45.50597" lon="6.7383">
        <ele>2067.4</ele>
        <time>2021-08-12T11:31:10Z</time>
      </trkpt>
      <trkpt lat="45.50597" lon="6.7383">
        <ele>2067.4</ele>
        <time>2021-08-12T11:31:11Z</time>
      </trkpt>
      <trkpt lat="45.50597" lon="6.7383">
        <ele>2067.4</ele>
        <time>2021-08-12T11:31:12Z</time>
      </trkpt>
      <trkpt lat="45.50597" lon="6.7383">
        <ele>2067.4</ele>
        <time>2021-08-12T11:31:13Z</time>
      </trkpt>
      <trkpt lat="45.50597" lon="6.7383">
        <ele>2067.4</ele>
        <time>2021-08-12T11:31:14Z</time>
      </trkpt>
      <trkpt lat="45.50597" lon="6.7383">
        <ele>2067.4</ele>
        <time>2021-08-12T11:31:15Z</time>
      </trkpt>
      <trkpt lat="45.50597" lon="6.7383">
        <ele>2067.4</ele>
        <time>2021-08-12T11:31:16Z</time>
      </trkpt>
      <trkpt lat="45.50597" lon="6.7383">
        <ele>2067.4</ele>
        <time>2021-08-12T11:31:17Z</time>
      </trkpt>
      <trkpt lat="45.50597" lon="6.7383">
        <ele>2067.4</ele>
        <time>2021-08-12T11:31:18Z</time>
      </trkpt>
      <trkpt lat="45.50597" lon="6.7383">
        <ele>2067.4</ele>
        <time>2021-08-12T11:31:19Z</time>
      </trkpt>
      <trkpt lat="45.50597" lon="6.7383">
        <ele>2067.4</ele>
        <time>2021-08-12T11:31:20Z</time>
      </trkpt>
      <trkpt lat="45.50597" lon="6.7383">
        <ele>2067.4</ele>
        <time>2021-08-12T11:31:21Z</time>
      </trkpt>
      <trkpt lat="45.50597" lon="6.7383">
        <ele>2067.4</ele>
        <time>2021-08-12T11:31:22Z</time>
      </trkpt>
      <trkpt lat="45.50597" lon="6.7383">
        <ele>2067.4</ele>
        <time>2021-08-12T11:31:23Z</time>
      </trkpt>
      <trkpt lat="45.50597" lon="6.7383">
        <ele>2067.4</ele>
        <time>2021-08-12T11:31:24Z</time>
      </trkpt>
      <trkpt lat="45.50597" lon="6.7383">
        <ele>2067.4</ele>
        <time>2021-08-12T11:31:25Z</time>
      </trkpt>
      <trkpt lat="45.50597" lon="6.7383">
        <ele>2067.4</ele>
        <time>2021-08-12T11:31:26Z</time>
      </trkpt>
      <trkpt lat="45.50597" lon="6.7383">
        <ele>2067.4</ele>
        <time>2021-08-12T11:31:27Z</time>
      </trkpt>
      <trkpt lat="45.50597" lon="6.7383">
        <ele>2067.4</ele>
        <time>2021-08-12T11:31:28Z</time>
      </trkpt>
      <trkpt lat="45.50597" lon="6.7383">
        <ele>2067.4</ele>
        <time>2021-08-12T11:31:29Z</time>
      </trkpt>
      <trkpt lat="45.50597" lon="6.7383">
        <ele>2067.4</ele>
        <time>2021-08-12T11:31:30Z</time>
      </trkpt>
      <trkpt lat="45.50597" lon="6.7383">
        <ele>2067.4</ele>
        <time>2021-08-12T11:31:31Z</time>
      </trkpt>
      <trkpt lat="45.50597" lon="6.7383">
        <ele>2067.4</ele>
        <time>2021-08-12T11:31:32Z</time>
      </trkpt>
      <trkpt lat="45.50597" lon="6.7383">
        <ele>2067.4</ele>
        <time>2021-08-12T11:31:33Z</time>
      </trkpt>
      <trkpt lat="45.50597" lon="6.7383">
        <ele>2067.4</ele>
        <time>2021-08-12T11:31:34Z</time>
      </trkpt>
      <trkpt lat="45.50597" lon="6.7383">
        <ele>2067.4</ele>
        <time>2021-08-12T11:31:35Z</time>
      </trkpt>
      <trkpt lat="45.50597" lon="6.7383">
        <ele>2067.4</ele>
        <time>2021-08-12T11:31:36Z</time>
      </trkpt>
      <trkpt lat="45.50597" lon="6.7383">
        <ele>2067.4</ele>
        <time>2021-08-12T11:31:37Z</time>
      </trkpt>
      <trkpt lat="45.50597" lon="6.7383">
        <ele>2067.4</ele>
        <time>2021-08-12T11:31:38Z</time>
      </trkpt>
      <trkpt lat="45.50597" lon="6.7383">
        <ele>2067.4</ele>
        <time>2021-08-12T11:31:39Z</time>
      </trkpt>
      <trkpt lat="45.50597" lon="6.7383">
        <ele>2067.4</ele>
        <time>2021-08-12T11:31:40Z</time>
      </trkpt>
      <trkpt lat="45.50597" lon="6.7383">
        <ele>2067.4</ele>
        <time>2021-08-12T11:31:41Z</time>
      </trkpt>
      <trkpt lat="45.50597" lon="6.7383">
        <ele>2067.4</ele>
        <time>2021-08-12T11:31:42Z</time>
      </trkpt>
      <trkpt lat="45.50597" lon="6.7383">
        <ele>2067.4</ele>
        <time>2021-08-12T11:31:43Z</time>
      </trkpt>
      <trkpt lat="45.50597" lon="6.7383">
        <ele>2067.4</ele>
        <time>2021-08-12T11:31:44Z</time>
      </trkpt>
      <trkpt lat="45.50597" lon="6.7383">
        <ele>2067.4</ele>
        <time>2021-08-12T11:31:45Z</time>
      </trkpt>
      <trkpt lat="45.50597" lon="6.7383">
        <ele>2067.4</ele>
        <time>2021-08-12T11:31:46Z</time>
      </trkpt>
      <trkpt lat="45.50597" lon="6.7383">
        <ele>2067.4</ele>
        <time>2021-08-12T11:31:47Z</time>
      </trkpt>
      <trkpt lat="45.50597" lon="6.7383">
        <ele>2067.4</ele>
        <time>2021-08-12T11:31:48Z</time>
      </trkpt>
      <trkpt lat="45.50597" lon="6.7383">
        <ele>2067.4</ele>
        <time>2021-08-12T11:31:49Z</time>
      </trkpt>
      <trkpt lat="45.50597" lon="6.7383">
        <ele>2067.4</ele>
        <time>2021-08-12T11:31:50Z</time>
      </trkpt>
      <trkpt lat="45.50597" lon="6.7383">
        <ele>2067.4</ele>
        <time>2021-08-12T11:31:51Z</time>
      </trkpt>
      <trkpt lat="45.50597" lon="6.7383">
        <ele>2067.4</ele>
        <time>2021-08-12T11:31:52Z</time>
      </trkpt>
      <trkpt lat="45.50597" lon="6.7383">
        <ele>2067.4</ele>
        <time>2021-08-12T11:31:53Z</time>
      </trkpt>
      <trkpt lat="45.50597" lon="6.7383">
        <ele>2067.4</ele>
        <time>2021-08-12T11:31:54Z</time>
      </trkpt>
      <trkpt lat="45.50597" lon="6.7383">
        <ele>2067.4</ele>
        <time>2021-08-12T11:31:55Z</time>
      </trkpt>
      <trkpt lat="45.50597" lon="6.7383">
        <ele>2067.4</ele>
        <time>2021-08-12T11:31:56Z</time>
      </trkpt>
      <trkpt lat="45.50597" lon="6.7383">
        <ele>2067.4</ele>
        <time>2021-08-12T11:31:57Z</time>
      </trkpt>
      <trkpt lat="45.50597" lon="6.7383">
        <ele>2067.4</ele>
        <time>2021-08-12T11:31:58Z</time>
      </trkpt>
      <trkpt lat="45.50597" lon="6.7383">
        <ele>2067.4</ele>
        <time>2021-08-12T11:31:59Z</time>
      </trkpt>
      <trkpt lat="45.50597" lon="6.7383">
        <ele>2067.4</ele>
        <time>2021-08-12T11:32:00Z</time>
      </trkpt>
      <trkpt lat="45.50597" lon="6.7383">
        <ele>2067.4</ele>
        <time>2021-08-12T11:32:01Z</time>
      </trkpt>
      <trkpt lat="45.50597" lon="6.7383">
        <ele>2067.4</ele>
        <time>2021-08-12T11:32:02Z</time>
      </trkpt>
      <trkpt lat="45.50597" lon="6.7383">
        <ele>2067.4</ele>
        <time>2021-08-12T11:32:03Z</time>
      </trkpt>
      <trkpt lat="45.50597" lon="6.7383">
        <ele>2067.4</ele>
        <time>2021-08-12T11:32:04Z</time>
      </trkpt>
      <trkpt lat="45.50597" lon="6.7383">
        <ele>2067.4</ele>
        <time>2021-08-12T11:32:05Z</time>
      </trkpt>
      <trkpt lat="45.50597" lon="6.7383">
        <ele>2067.4</ele>
        <time>2021-08-12T11:32:06Z</time>
      </trkpt>
      <trkpt lat="45.50597" lon="6.7383">
        <ele>2067.4</ele>
        <time>2021-08-12T11:32:07Z</time>
      </trkpt>
      <trkpt lat="45.50597" lon="6.7383">
        <ele>2067.4</ele>
        <time>2021-08-12T11:32:08Z</time>
      </trkpt>
      <trkpt lat="45.50597" lon="6.7383">
        <ele>2067.4</ele>
        <time>2021-08-12T11:32:09Z</time>
      </trkpt>
      <trkpt lat="45.50597" lon="6.7383">
        <ele>2067.4</ele>
        <time>2021-08-12T11:32:10Z</time>
      </trkpt>
      <trkpt lat="45.50597" lon="6.7383">
        <ele>2067.4</ele>
        <time>2021-08-12T11:32:11Z</time>
      </trkpt>
      <trkpt lat="45.50597" lon="6.7383">
        <ele>2067.4</ele>
        <time>2021-08-12T11:32:12Z</time>
      </trkpt>
      <trkpt lat="45.50597" lon="6.7383">
        <ele>2067.4</ele>
        <time>2021-08-12T11:32:13Z</time>
      </trkpt>
      <trkpt lat="45.50597" lon="6.7383">
        <ele>2067.4</ele>
        <time>2021-08-12T11:32:14Z</time>
      </trkpt>
      <trkpt lat="45.50597" lon="6.7383">
        <ele>2067.4</ele>
        <time>2021-08-12T11:32:15Z</time>
      </trkpt>
      <trkpt lat="45.50597" lon="6.7383">
        <ele>2067.4</ele>
        <time>2021-08-12T11:32:16Z</time>
      </trkpt>
      <trkpt lat="45.50597" lon="6.7383">
        <ele>2067.4</ele>
        <time>2021-08-12T11:32:17Z</time>
      </trkpt>
      <trkpt lat="45.50597" lon="6.7383">
        <ele>2067.4</ele>
        <time>2021-08-12T11:32:18Z</time>
      </trkpt>
      <trkpt lat="45.50597" lon="6.7383">
        <ele>2067.4</ele>
        <time>2021-08-12T11:32:19Z</time>
      </trkpt>
      <trkpt lat="45.50597" lon="6.7383">
        <ele>2067.4</ele>
        <time>2021-08-12T11:32:20Z</time>
      </trkpt>
      <trkpt lat="45.50597" lon="6.7383">
        <ele>2067.4</ele>
        <time>2021-08-12T11:32:21Z</time>
      </trkpt>
      <trkpt lat="45.50597" lon="6.7383">
        <ele>2067.4</ele>
        <time>2021-08-12T11:32:22Z</time>
      </trkpt>
      <trkpt lat="45.50597" lon="6.7383">
        <ele>2067.4</ele>
        <time>2021-08-12T11:32:23Z</time>
      </trkpt>
      <trkpt lat="45.50597" lon="6.7383">
        <ele>2067.4</ele>
        <time>2021-08-12T11:32:24Z</time>
      </trkpt>
      <trkpt lat="45.50597" lon="6.7383">
        <ele>2067.4</ele>
        <time>2021-08-12T11:32:25Z</time>
      </trkpt>
      <trkpt lat="45.50597" lon="6.7383">
        <ele>2067.4</ele>
        <time>2021-08-12T11:32:26Z</time>
      </trkpt>
      <trkpt lat="45.50597" lon="6.7383">
        <ele>2067.4</ele>
        <time>2021-08-12T11:32:27Z</time>
      </trkpt>
      <trkpt lat="45.50597" lon="6.7383">
        <ele>2067.4</ele>
        <time>2021-08-12T11:32:28Z</time>
      </trkpt>
      <trkpt lat="45.50597" lon="6.7383">
        <ele>2067.4</ele>
        <time>2021-08-12T11:32:29Z</time>
      </trkpt>
      <trkpt lat="45.50597" lon="6.7383">
        <ele>2067.4</ele>
        <time>2021-08-12T11:32:30Z</time>
      </trkpt>
      <trkpt lat="45.50597" lon="6.7383">
        <ele>2067.4</ele>
        <time>2021-08-12T11:32:31Z</time>
      </trkpt>
      <trkpt lat="45.50597" lon="6.7383">
        <ele>2067.4</ele>
        <time>2021-08-12T11:32:32Z</time>
      </trkpt>
      <trkpt lat="45.50597" lon="6.7383">
        <ele>2067.4</ele>
        <time>2021-08-12T11:32:33Z</time>
      </trkpt>
      <trkpt lat="45.50597" lon="6.7383">
        <ele>2067.4</ele>
        <time>2021-08-12T11:32:34Z</time>
      </trkpt>
      <trkpt lat="45.50597" lon="6.7383">
        <ele>2067.4</ele>
        <time>2021-08-12T11:32:35Z</time>
      </trkpt>
      <trkpt lat="45.50597" lon="6.7383">
        <ele>2067.4</ele>
        <time>2021-08-12T11:32:36Z</time>
      </trkpt>
      <trkpt lat="45.50597" lon="6.7383">
        <ele>2067.3</ele>
        <time>2021-08-12T11:32:37Z</time>
      </trkpt>
      <trkpt lat="45.50597" lon="6.7383">
        <ele>2067.3</ele>
        <time>2021-08-12T11:32:38Z</time>
      </trkpt>
      <trkpt lat="45.50597" lon="6.7383">
        <ele>2067.3</ele>
        <time>2021-08-12T11:32:39Z</time>
      </trkpt>
      <trkpt lat="45.50597" lon="6.7383">
        <ele>2067.3</ele>
        <time>2021-08-12T11:32:40Z</time>
      </trkpt>
      <trkpt lat="45.50597" lon="6.7383">
        <ele>2067.3</ele>
        <time>2021-08-12T11:32:41Z</time>
      </trkpt>
      <trkpt lat="45.50597" lon="6.7383">
        <ele>2067.3</ele>
        <time>2021-08-12T11:32:42Z</time>
      </trkpt>
      <trkpt lat="45.50597" lon="6.7383">
        <ele>2067.3</ele>
        <time>2021-08-12T11:32:43Z</time>
      </trkpt>
      <trkpt lat="45.50597" lon="6.7383">
        <ele>2067.3</ele>
        <time>2021-08-12T11:32:44Z</time>
      </trkpt>
      <trkpt lat="45.50597" lon="6.7383">
        <ele>2067.3</ele>
        <time>2021-08-12T11:32:45Z</time>
      </trkpt>
      <trkpt lat="45.50597" lon="6.7383">
        <ele>2067.3</ele>
        <time>2021-08-12T11:32:46Z</time>
      </trkpt>
      <trkpt lat="45.50597" lon="6.7383">
        <ele>2067.3</ele>
        <time>2021-08-12T11:32:47Z</time>
      </trkpt>
      <trkpt lat="45.50597" lon="6.7383">
        <ele>2067.3</ele>
        <time>2021-08-12T11:32:48Z</time>
      </trkpt>
      <trkpt lat="45.50597" lon="6.7383">
        <ele>2067.3</ele>
        <time>2021-08-12T11:32:49Z</time>
      </trkpt>
      <trkpt lat="45.50597" lon="6.7383">
        <ele>2067.3</ele>
        <time>2021-08-12T11:32:50Z</time>
      </trkpt>
      <trkpt lat="45.50597" lon="6.7383">
        <ele>2067.3</ele>
        <time>2021-08-12T11:32:51Z</time>
      </trkpt>
      <trkpt lat="45.50597" lon="6.7383">
        <ele>2067.3</ele>
        <time>2021-08-12T11:32:52Z</time>
      </trkpt>
      <trkpt lat="45.50597" lon="6.7383">
        <ele>2067.3</ele>
        <time>2021-08-12T11:32:53Z</time>
      </trkpt>
      <trkpt lat="45.50597" lon="6.7383">
        <ele>2067.3</ele>
        <time>2021-08-12T11:32:54Z</time>
      </trkpt>
      <trkpt lat="45.50597" lon="6.7383">
        <ele>2067.3</ele>
        <time>2021-08-12T11:32:55Z</time>
      </trkpt>
      <trkpt lat="45.50597" lon="6.7383">
        <ele>2067.3</ele>
        <time>2021-08-12T11:32:56Z</time>
      </trkpt>
      <trkpt lat="45.50597" lon="6.7383">
        <ele>2067.3</ele>
        <time>2021-08-12T11:32:57Z</time>
      </trkpt>
      <trkpt lat="45.50597" lon="6.7383">
        <ele>2067.3</ele>
        <time>2021-08-12T11:32:58Z</time>
      </trkpt>
      <trkpt lat="45.50597" lon="6.7383">
        <ele>2067.3</ele>
        <time>2021-08-12T11:32:59Z</time>
      </trkpt>
      <trkpt lat="45.50597" lon="6.73831">
        <ele>2067.2</ele>
        <time>2021-08-12T11:33:00Z</time>
      </trkpt>
      <trkpt lat="45.50597" lon="6.73831">
        <ele>2067.2</ele>
        <time>2021-08-12T11:33:01Z</time>
      </trkpt>
      <trkpt lat="45.50597" lon="6.73831">
        <ele>2067.1</ele>
        <time>2021-08-12T11:33:02Z</time>
      </trkpt>
      <trkpt lat="45.50597" lon="6.73832">
        <ele>2067</ele>
        <time>2021-08-12T11:33:03Z</time>
      </trkpt>
      <trkpt lat="45.50597" lon="6.73833">
        <ele>2066.9</ele>
        <time>2021-08-12T11:33:04Z</time>
      </trkpt>
      <trkpt lat="45.50597" lon="6.73833">
        <ele>2066.7</ele>
        <time>2021-08-12T11:33:05Z</time>
      </trkpt>
      <trkpt lat="45.50597" lon="6.73834">
        <ele>2066.6</ele>
        <time>2021-08-12T11:33:06Z</time>
      </trkpt>
      <trkpt lat="45.50597" lon="6.73835">
        <ele>2066.4</ele>
        <time>2021-08-12T11:33:07Z</time>
      </trkpt>
      <trkpt lat="45.50597" lon="6.73836">
        <ele>2066.2</ele>
        <time>2021-08-12T11:33:08Z</time>
      </trkpt>
      <trkpt lat="45.50597" lon="6.73837">
        <ele>2066.1</ele>
        <time>2021-08-12T11:33:09Z</time>
      </trkpt>
      <trkpt lat="45.50598" lon="6.73838">
        <ele>2065.9</ele>
        <time>2021-08-12T11:33:10Z</time>
      </trkpt>
      <trkpt lat="45.50598" lon="6.73838">
        <ele>2065.8</ele>
        <time>2021-08-12T11:33:11Z</time>
      </trkpt>
      <trkpt lat="45.50598" lon="6.73838">
        <ele>2065.7</ele>
        <time>2021-08-12T11:33:12Z</time>
      </trkpt>
      <trkpt lat="45.50599" lon="6.73839">
        <ele>2065.6</ele>
        <time>2021-08-12T11:33:13Z</time>
      </trkpt>
      <trkpt lat="45.50599" lon="6.73839">
        <ele>2065.5</ele>
        <time>2021-08-12T11:33:14Z</time>
      </trkpt>
      <trkpt lat="45.506" lon="6.73839">
        <ele>2065.4</ele>
        <time>2021-08-12T11:33:15Z</time>
      </trkpt>
      <trkpt lat="45.506" lon="6.73839">
        <ele>2065.3</ele>
        <time>2021-08-12T11:33:16Z</time>
      </trkpt>
      <trkpt lat="45.506" lon="6.73839">
        <ele>2065.2</ele>
        <time>2021-08-12T11:33:17Z</time>
      </trkpt>
      <trkpt lat="45.50601" lon="6.73839">
        <ele>2065.1</ele>
        <time>2021-08-12T11:33:18Z</time>
      </trkpt>
      <trkpt lat="45.50601" lon="6.73839">
        <ele>2065.1</ele>
        <time>2021-08-12T11:33:19Z</time>
      </trkpt>
      <trkpt lat="45.50601" lon="6.73839">
        <ele>2065</ele>
        <time>2021-08-12T11:33:20Z</time>
      </trkpt>
      <trkpt lat="45.50601" lon="6.73839">
        <ele>2065</ele>
        <time>2021-08-12T11:33:21Z</time>
      </trkpt>
      <trkpt lat="45.50601" lon="6.73839">
        <ele>2065</ele>
        <time>2021-08-12T11:33:22Z</time>
      </trkpt>
      <trkpt lat="45.50601" lon="6.7384">
        <ele>2064.9</ele>
        <time>2021-08-12T11:33:23Z</time>
      </trkpt>
      <trkpt lat="45.50601" lon="6.7384">
        <ele>2064.9</ele>
        <time>2021-08-12T11:33:24Z</time>
      </trkpt>
      <trkpt lat="45.50601" lon="6.7384">
        <ele>2064.9</ele>
        <time>2021-08-12T11:33:25Z</time>
      </trkpt>
      <trkpt lat="45.50601" lon="6.7384">
        <ele>2064.9</ele>
        <time>2021-08-12T11:33:26Z</time>
      </trkpt>
      <trkpt lat="45.50601" lon="6.7384">
        <ele>2064.9</ele>
        <time>2021-08-12T11:33:27Z</time>
      </trkpt>
      <trkpt lat="45.50601" lon="6.7384">
        <ele>2064.9</ele>
        <time>2021-08-12T11:33:28Z</time>
      </trkpt>
      <trkpt lat="45.50601" lon="6.7384">
        <ele>2064.9</ele>
        <time>2021-08-12T11:33:29Z</time>
      </trkpt>
      <trkpt lat="45.50601" lon="6.7384">
        <ele>2064.9</ele>
        <time>2021-08-12T11:33:30Z</time>
      </trkpt>
      <trkpt lat="45.50601" lon="6.7384">
        <ele>2064.9</ele>
        <time>2021-08-12T11:33:31Z</time>
      </trkpt>
      <trkpt lat="45.50601" lon="6.7384">
        <ele>2064.9</ele>
        <time>2021-08-12T11:33:32Z</time>
      </trkpt>
      <trkpt lat="45.50601" lon="6.7384">
        <ele>2064.9</ele>
        <time>2021-08-12T11:33:33Z</time>
      </trkpt>
      <trkpt lat="45.50601" lon="6.7384">
        <ele>2064.9</ele>
        <time>2021-08-12T11:33:34Z</time>
      </trkpt>
      <trkpt lat="45.50601" lon="6.73839">
        <ele>2064.8</ele>
        <time>2021-08-12T11:33:35Z</time>
      </trkpt>
      <trkpt lat="45.50601" lon="6.73839">
        <ele>2064.8</ele>
        <time>2021-08-12T11:33:36Z</time>
      </trkpt>
      <trkpt lat="45.50602" lon="6.73839">
        <ele>2064.8</ele>
        <time>2021-08-12T11:33:37Z</time>
      </trkpt>
      <trkpt lat="45.50602" lon="6.73839">
        <ele>2064.7</ele>
        <time>2021-08-12T11:33:38Z</time>
      </trkpt>
      <trkpt lat="45.50602" lon="6.73839">
        <ele>2064.7</ele>
        <time>2021-08-12T11:33:39Z</time>
      </trkpt>
      <trkpt lat="45.50602" lon="6.73839">
        <ele>2064.6</ele>
        <time>2021-08-12T11:33:40Z</time>
      </trkpt>
      <trkpt lat="45.50602" lon="6.73839">
        <ele>2064.6</ele>
        <time>2021-08-12T11:33:41Z</time>
      </trkpt>
      <trkpt lat="45.50603" lon="6.73839">
        <ele>2064.5</ele>
        <time>2021-08-12T11:33:42Z</time>
      </trkpt>
      <trkpt lat="45.50603" lon="6.73839">
        <ele>2064.5</ele>
        <time>2021-08-12T11:33:43Z</time>
      </trkpt>
      <trkpt lat="45.50603" lon="6.73839">
        <ele>2064.4</ele>
        <time>2021-08-12T11:33:44Z</time>
      </trkpt>
      <trkpt lat="45.50603" lon="6.73839">
        <ele>2064.4</ele>
        <time>2021-08-12T11:33:45Z</time>
      </trkpt>
      <trkpt lat="45.50604" lon="6.73839">
        <ele>2064.3</ele>
        <time>2021-08-12T11:33:46Z</time>
      </trkpt>
      <trkpt lat="45.50604" lon="6.73839">
        <ele>2064.2</ele>
        <time>2021-08-12T11:33:47Z</time>
      </trkpt>
      <trkpt lat="45.50604" lon="6.73839">
        <ele>2064.2</ele>
        <time>2021-08-12T11:33:48Z</time>
      </trkpt>
      <trkpt lat="45.50604" lon="6.73839">
        <ele>2064.2</ele>
        <time>2021-08-12T11:33:49Z</time>
      </trkpt>
      <trkpt lat="45.50604" lon="6.73839">
        <ele>2064.1</ele>
        <time>2021-08-12T11:33:50Z</time>
      </trkpt>
      <trkpt lat="45.50604" lon="6.73839">
        <ele>2064.1</ele>
        <time>2021-08-12T11:33:51Z</time>
      </trkpt>
      <trkpt lat="45.50604" lon="6.73839">
        <ele>2064.1</ele>
        <time>2021-08-12T11:33:52Z</time>
      </trkpt>
      <trkpt lat="45.50605" lon="6.73839">
        <ele>2064</ele>
        <time>2021-08-12T11:33:53Z</time>
      </trkpt>
      <trkpt lat="45.50605" lon="6.73839">
        <ele>2064</ele>
        <time>2021-08-12T11:33:54Z</time>
      </trkpt>
      <trkpt lat="45.50605" lon="6.73839">
        <ele>2064</ele>
        <time>2021-08-12T11:33:55Z</time>
      </trkpt>
      <trkpt lat="45.50605" lon="6.73839">
        <ele>2064</ele>
        <time>2021-08-12T11:33:56Z</time>
      </trkpt>
      <trkpt lat="45.50605" lon="6.73839">
        <ele>2064</ele>
        <time>2021-08-12T11:33:57Z</time>
      </trkpt>
      <trkpt lat="45.50605" lon="6.7384">
        <ele>2064</ele>
        <time>2021-08-12T11:33:58Z</time>
      </trkpt>
      <trkpt lat="45.50605" lon="6.7384">
        <ele>2064</ele>
        <time>2021-08-12T11:33:59Z</time>
      </trkpt>
      <trkpt lat="45.50604" lon="6.7384">
        <ele>2063.9</ele>
        <time>2021-08-12T11:34:00Z</time>
      </trkpt>
      <trkpt lat="45.50604" lon="6.7384">
        <ele>2063.9</ele>
        <time>2021-08-12T11:34:01Z</time>
      </trkpt>
      <trkpt lat="45.50604" lon="6.7384">
        <ele>2063.9</ele>
        <time>2021-08-12T11:34:02Z</time>
      </trkpt>
      <trkpt lat="45.50604" lon="6.7384">
        <ele>2063.9</ele>
        <time>2021-08-12T11:34:03Z</time>
      </trkpt>
      <trkpt lat="45.50604" lon="6.7384">
        <ele>2063.9</ele>
        <time>2021-08-12T11:34:04Z</time>
      </trkpt>
      <trkpt lat="45.50604" lon="6.7384">
        <ele>2063.9</ele>
        <time>2021-08-12T11:34:05Z</time>
      </trkpt>
      <trkpt lat="45.50604" lon="6.73839">
        <ele>2063.9</ele>
        <time>2021-08-12T11:34:06Z</time>
      </trkpt>
      <trkpt lat="45.50604" lon="6.73839">
        <ele>2063.9</ele>
        <time>2021-08-12T11:34:07Z</time>
      </trkpt>
      <trkpt lat="45.50604" lon="6.73839">
        <ele>2063.8</ele>
        <time>2021-08-12T11:34:08Z</time>
      </trkpt>
      <trkpt lat="45.50604" lon="6.73839">
        <ele>2063.8</ele>
        <time>2021-08-12T11:34:09Z</time>
      </trkpt>
      <trkpt lat="45.50605" lon="6.73839">
        <ele>2063.8</ele>
        <time>2021-08-12T11:34:10Z</time>
      </trkpt>
      <trkpt lat="45.50605" lon="6.73839">
        <ele>2063.7</ele>
        <time>2021-08-12T11:34:11Z</time>
      </trkpt>
      <trkpt lat="45.50605" lon="6.73839">
        <ele>2063.7</ele>
        <time>2021-08-12T11:34:12Z</time>
      </trkpt>
      <trkpt lat="45.50605" lon="6.73839">
        <ele>2063.6</ele>
        <time>2021-08-12T11:34:13Z</time>
      </trkpt>
      <trkpt lat="45.50606" lon="6.73838">
        <ele>2063.5</ele>
        <time>2021-08-12T11:34:14Z</time>
      </trkpt>
      <trkpt lat="45.50606" lon="6.73838">
        <ele>2063.4</ele>
        <time>2021-08-12T11:34:15Z</time>
      </trkpt>
      <trkpt lat="45.50606" lon="6.73838">
        <ele>2063.3</ele>
        <time>2021-08-12T11:34:16Z</time>
      </trkpt>
      <trkpt lat="45.50607" lon="6.73838">
        <ele>2063.2</ele>
        <time>2021-08-12T11:34:17Z</time>
      </trkpt>
      <trkpt lat="45.50607" lon="6.73837">
        <ele>2063</ele>
        <time>2021-08-12T11:34:18Z</time>
      </trkpt>
      <trkpt lat="45.50608" lon="6.73837">
        <ele>2062.9</ele>
        <time>2021-08-12T11:34:19Z</time>
      </trkpt>
      <trkpt lat="45.50608" lon="6.73837">
        <ele>2062.7</ele>
        <time>2021-08-12T11:34:20Z</time>
      </trkpt>
      <trkpt lat="45.50609" lon="6.73836">
        <ele>2062.6</ele>
        <time>2021-08-12T11:34:21Z</time>
      </trkpt>
      <trkpt lat="45.50609" lon="6.73836">
        <ele>2062.5</ele>
        <time>2021-08-12T11:34:22Z</time>
      </trkpt>
      <trkpt lat="45.5061" lon="6.73835">
        <ele>2062.3</ele>
        <time>2021-08-12T11:34:23Z</time>
      </trkpt>
      <trkpt lat="45.5061" lon="6.73835">
        <ele>2062.2</ele>
        <time>2021-08-12T11:34:24Z</time>
      </trkpt>
      <trkpt lat="45.5061" lon="6.73834">
        <ele>2062.1</ele>
        <time>2021-08-12T11:34:25Z</time>
      </trkpt>
      <trkpt lat="45.5061" lon="6.73834">
        <ele>2062</ele>
        <time>2021-08-12T11:34:26Z</time>
      </trkpt>
      <trkpt lat="45.50611" lon="6.73833">
        <ele>2061.9</ele>
        <time>2021-08-12T11:34:27Z</time>
      </trkpt>
      <trkpt lat="45.50611" lon="6.73832">
        <ele>2061.8</ele>
        <time>2021-08-12T11:34:28Z</time>
      </trkpt>
      <trkpt lat="45.50611" lon="6.73832">
        <ele>2061.7</ele>
        <time>2021-08-12T11:34:29Z</time>
      </trkpt>
      <trkpt lat="45.50611" lon="6.73831">
        <ele>2061.6</ele>
        <time>2021-08-12T11:34:30Z</time>
      </trkpt>
      <trkpt lat="45.50611" lon="6.7383">
        <ele>2061.5</ele>
        <time>2021-08-12T11:34:31Z</time>
      </trkpt>
      <trkpt lat="45.50611" lon="6.73829">
        <ele>2061.4</ele>
        <time>2021-08-12T11:34:32Z</time>
      </trkpt>
      <trkpt lat="45.50611" lon="6.73829">
        <ele>2061.3</ele>
        <time>2021-08-12T11:34:33Z</time>
      </trkpt>
      <trkpt lat="45.50611" lon="6.73828">
        <ele>2061.1</ele>
        <time>2021-08-12T11:34:34Z</time>
      </trkpt>
      <trkpt lat="45.50611" lon="6.73827">
        <ele>2061</ele>
        <time>2021-08-12T11:34:35Z</time>
      </trkpt>
      <trkpt lat="45.50611" lon="6.73826">
        <ele>2060.9</ele>
        <time>2021-08-12T11:34:36Z</time>
      </trkpt>
      <trkpt lat="45.50612" lon="6.73826">
        <ele>2060.8</ele>
        <time>2021-08-12T11:34:37Z</time>
      </trkpt>
      <trkpt lat="45.50612" lon="6.73825">
        <ele>2060.7</ele>
        <time>2021-08-12T11:34:38Z</time>
      </trkpt>
      <trkpt lat="45.50612" lon="6.73824">
        <ele>2060.5</ele>
        <time>2021-08-12T11:34:39Z</time>
      </trkpt>
      <trkpt lat="45.50612" lon="6.73824">
        <ele>2060.4</ele>
        <time>2021-08-12T11:34:40Z</time>
      </trkpt>
      <trkpt lat="45.50612" lon="6.73823">
        <ele>2060.3</ele>
        <time>2021-08-12T11:34:41Z</time>
      </trkpt>
      <trkpt lat="45.50612" lon="6.73822">
        <ele>2060.2</ele>
        <time>2021-08-12T11:34:42Z</time>
      </trkpt>
      <trkpt lat="45.50612" lon="6.73822">
        <ele>2060.1</ele>
        <time>2021-08-12T11:34:43Z</time>
      </trkpt>
      <trkpt lat="45.50613" lon="6.73821">
        <ele>2060</ele>
        <time>2021-08-12T11:34:44Z</time>
      </trkpt>
      <trkpt lat="45.50613" lon="6.7382">
        <ele>2059.9</ele>
        <time>2021-08-12T11:34:45Z</time>
      </trkpt>
      <trkpt lat="45.50613" lon="6.7382">
        <ele>2059.8</ele>
        <time>2021-08-12T11:34:46Z</time>
      </trkpt>
      <trkpt lat="45.50613" lon="6.73819">
        <ele>2059.7</ele>
        <time>2021-08-12T11:34:47Z</time>
      </trkpt>
      <trkpt lat="45.50613" lon="6.73818">
        <ele>2059.5</ele>
        <time>2021-08-12T11:34:48Z</time>
      </trkpt>
      <trkpt lat="45.50613" lon="6.73817">
        <ele>2059.4</ele>
        <time>2021-08-12T11:34:49Z</time>
      </trkpt>
      <trkpt lat="45.50614" lon="6.73817">
        <ele>2059.3</ele>
        <time>2021-08-12T11:34:50Z</time>
      </trkpt>
      <trkpt lat="45.50614" lon="6.73816">
        <ele>2059.2</ele>
        <time>2021-08-12T11:34:51Z</time>
      </trkpt>
      <trkpt lat="45.50614" lon="6.73815">
        <ele>2059.1</ele>
        <time>2021-08-12T11:34:52Z</time>
      </trkpt>
      <trkpt lat="45.50614" lon="6.73814">
        <ele>2059</ele>
        <time>2021-08-12T11:34:53Z</time>
      </trkpt>
      <trkpt lat="45.50614" lon="6.73813">
        <ele>2058.9</ele>
        <time>2021-08-12T11:34:54Z</time>
      </trkpt>
      <trkpt lat="45.50614" lon="6.73813">
        <ele>2058.7</ele>
        <time>2021-08-12T11:34:55Z</time>
      </trkpt>
      <trkpt lat="45.50614" lon="6.73812">
        <ele>2058.6</ele>
        <time>2021-08-12T11:34:56Z</time>
      </trkpt>
      <trkpt lat="45.50615" lon="6.73811">
        <ele>2058.5</ele>
        <time>2021-08-12T11:34:57Z</time>
      </trkpt>
      <trkpt lat="45.50615" lon="6.7381">
        <ele>2058.4</ele>
        <time>2021-08-12T11:34:58Z</time>
      </trkpt>
      <trkpt lat="45.50615" lon="6.73809">
        <ele>2058.3</ele>
        <time>2021-08-12T11:34:59Z</time>
      </trkpt>
      <trkpt lat="45.50615" lon="6.73808">
        <ele>2058.1</ele>
        <time>2021-08-12T11:35:00Z</time>
      </trkpt>
      <trkpt lat="45.50615" lon="6.73808">
        <ele>2058</ele>
        <time>2021-08-12T11:35:01Z</time>
      </trkpt>
      <trkpt lat="45.50615" lon="6.73807">
        <ele>2058</ele>
        <time>2021-08-12T11:35:02Z</time>
      </trkpt>
      <trkpt lat="45.50616" lon="6.73807">
        <ele>2057.9</ele>
        <time>2021-08-12T11:35:03Z</time>
      </trkpt>
      <trkpt lat="45.50616" lon="6.73806">
        <ele>2057.8</ele>
        <time>2021-08-12T11:35:04Z</time>
      </trkpt>
      <trkpt lat="45.50616" lon="6.73806">
        <ele>2057.7</ele>
        <time>2021-08-12T11:35:05Z</time>
      </trkpt>
      <trkpt lat="45.50616" lon="6.73806">
        <ele>2057.7</ele>
        <time>2021-08-12T11:35:06Z</time>
      </trkpt>
      <trkpt lat="45.50617" lon="6.73806">
        <ele>2057.6</ele>
        <time>2021-08-12T11:35:07Z</time>
      </trkpt>
      <trkpt lat="45.50617" lon="6.73806">
        <ele>2057.5</ele>
        <time>2021-08-12T11:35:08Z</time>
      </trkpt>
      <trkpt lat="45.50618" lon="6.73807">
        <ele>2057.4</ele>
        <time>2021-08-12T11:35:09Z</time>
      </trkpt>
      <trkpt lat="45.50618" lon="6.73807">
        <ele>2057.3</ele>
        <time>2021-08-12T11:35:10Z</time>
      </trkpt>
      <trkpt lat="45.50619" lon="6.73808">
        <ele>2057.2</ele>
        <time>2021-08-12T11:35:11Z</time>
      </trkpt>
      <trkpt lat="45.50619" lon="6.73809">
        <ele>2057.1</ele>
        <time>2021-08-12T11:35:12Z</time>
      </trkpt>
      <trkpt lat="45.5062" lon="6.73809">
        <ele>2056.9</ele>
        <time>2021-08-12T11:35:13Z</time>
      </trkpt>
      <trkpt lat="45.5062" lon="6.7381">
        <ele>2056.8</ele>
        <time>2021-08-12T11:35:14Z</time>
      </trkpt>
      <trkpt lat="45.50621" lon="6.7381">
        <ele>2056.6</ele>
        <time>2021-08-12T11:35:15Z</time>
      </trkpt>
      <trkpt lat="45.50621" lon="6.73811">
        <ele>2056.5</ele>
        <time>2021-08-12T11:35:16Z</time>
      </trkpt>
      <trkpt lat="45.50622" lon="6.73812">
        <ele>2056.4</ele>
        <time>2021-08-12T11:35:17Z</time>
      </trkpt>
      <trkpt lat="45.50623" lon="6.73812">
        <ele>2056.2</ele>
        <time>2021-08-12T11:35:18Z</time>
      </trkpt>
      <trkpt lat="45.50623" lon="6.73813">
        <ele>2056.1</ele>
        <time>2021-08-12T11:35:19Z</time>
      </trkpt>
      <trkpt lat="45.50624" lon="6.73813">
        <ele>2055.9</ele>
        <time>2021-08-12T11:35:20Z</time>
      </trkpt>
      <trkpt lat="45.50624" lon="6.73814">
        <ele>2055.8</ele>
        <time>2021-08-12T11:35:21Z</time>
      </trkpt>
      <trkpt lat="45.50625" lon="6.73814">
        <ele>2055.7</ele>
        <time>2021-08-12T11:35:22Z</time>
      </trkpt>
      <trkpt lat="45.50626" lon="6.73815">
        <ele>2055.5</ele>
        <time>2021-08-12T11:35:23Z</time>
      </trkpt>
      <trkpt lat="45.50626" lon="6.73815">
        <ele>2055.4</ele>
        <time>2021-08-12T11:35:24Z</time>
      </trkpt>
      <trkpt lat="45.50627" lon="6.73816">
        <ele>2055.2</ele>
        <time>2021-08-12T11:35:25Z</time>
      </trkpt>
      <trkpt lat="45.50627" lon="6.73817">
        <ele>2055.1</ele>
        <time>2021-08-12T11:35:26Z</time>
      </trkpt>
      <trkpt lat="45.50627" lon="6.73818">
        <ele>2054.9</ele>
        <time>2021-08-12T11:35:27Z</time>
      </trkpt>
      <trkpt lat="45.50628" lon="6.73819">
        <ele>2054.8</ele>
        <time>2021-08-12T11:35:28Z</time>
      </trkpt>
      <trkpt lat="45.50628" lon="6.7382">
        <ele>2054.6</ele>
        <time>2021-08-12T11:35:29Z</time>
      </trkpt>
      <trkpt lat="45.50628" lon="6.73821">
        <ele>2054.4</ele>
        <time>2021-08-12T11:35:30Z</time>
      </trkpt>
      <trkpt lat="45.50629" lon="6.73822">
        <ele>2054.2</ele>
        <time>2021-08-12T11:35:31Z</time>
      </trkpt>
      <trkpt lat="45.50629" lon="6.73823">
        <ele>2054.1</ele>
        <time>2021-08-12T11:35:32Z</time>
      </trkpt>
      <trkpt lat="45.50629" lon="6.73824">
        <ele>2053.9</ele>
        <time>2021-08-12T11:35:33Z</time>
      </trkpt>
      <trkpt lat="45.50629" lon="6.73825">
        <ele>2053.7</ele>
        <time>2021-08-12T11:35:34Z</time>
      </trkpt>
      <trkpt lat="45.5063" lon="6.73826">
        <ele>2053.6</ele>
        <time>2021-08-12T11:35:35Z</time>
      </trkpt>
      <trkpt lat="45.5063" lon="6.73827">
        <ele>2053.4</ele>
        <time>2021-08-12T11:35:36Z</time>
      </trkpt>
      <trkpt lat="45.5063" lon="6.73828">
        <ele>2053.3</ele>
        <time>2021-08-12T11:35:37Z</time>
      </trkpt>
      <trkpt lat="45.5063" lon="6.73829">
        <ele>2053.2</ele>
        <time>2021-08-12T11:35:38Z</time>
      </trkpt>
      <trkpt lat="45.5063" lon="6.7383">
        <ele>2053</ele>
        <time>2021-08-12T11:35:39Z</time>
      </trkpt>
      <trkpt lat="45.5063" lon="6.7383">
        <ele>2052.9</ele>
        <time>2021-08-12T11:35:40Z</time>
      </trkpt>
      <trkpt lat="45.50631" lon="6.73831">
        <ele>2052.8</ele>
        <time>2021-08-12T11:35:41Z</time>
      </trkpt>
      <trkpt lat="45.50631" lon="6.73831">
        <ele>2052.7</ele>
        <time>2021-08-12T11:35:42Z</time>
      </trkpt>
      <trkpt lat="45.50631" lon="6.73832">
        <ele>2052.7</ele>
        <time>2021-08-12T11:35:43Z</time>
      </trkpt>
      <trkpt lat="45.50632" lon="6.73832">
        <ele>2052.5</ele>
        <time>2021-08-12T11:35:44Z</time>
      </trkpt>
      <trkpt lat="45.50632" lon="6.73832">
        <ele>2052.4</ele>
        <time>2021-08-12T11:35:45Z</time>
      </trkpt>
      <trkpt lat="45.50633" lon="6.73832">
        <ele>2052.3</ele>
        <time>2021-08-12T11:35:46Z</time>
      </trkpt>
      <trkpt lat="45.50633" lon="6.73832">
        <ele>2052.1</ele>
        <time>2021-08-12T11:35:47Z</time>
      </trkpt>
      <trkpt lat="45.50634" lon="6.73831">
        <ele>2052</ele>
        <time>2021-08-12T11:35:48Z</time>
      </trkpt>
      <trkpt lat="45.50635" lon="6.73831">
        <ele>2051.8</ele>
        <time>2021-08-12T11:35:49Z</time>
      </trkpt>
      <trkpt lat="45.50635" lon="6.7383">
        <ele>2051.7</ele>
        <time>2021-08-12T11:35:50Z</time>
      </trkpt>
      <trkpt lat="45.50636" lon="6.7383">
        <ele>2051.5</ele>
        <time>2021-08-12T11:35:51Z</time>
      </trkpt>
      <trkpt lat="45.50637" lon="6.73829">
        <ele>2051.3</ele>
        <time>2021-08-12T11:35:52Z</time>
      </trkpt>
      <trkpt lat="45.50637" lon="6.73829">
        <ele>2051.2</ele>
        <time>2021-08-12T11:35:53Z</time>
      </trkpt>
      <trkpt lat="45.50638" lon="6.73828">
        <ele>2051</ele>
        <time>2021-08-12T11:35:54Z</time>
      </trkpt>
      <trkpt lat="45.50638" lon="6.73827">
        <ele>2050.9</ele>
        <time>2021-08-12T11:35:55Z</time>
      </trkpt>
      <trkpt lat="45.50638" lon="6.73827">
        <ele>2050.7</ele>
        <time>2021-08-12T11:35:56Z</time>
      </trkpt>
      <trkpt lat="45.50639" lon="6.73826">
        <ele>2050.6</ele>
        <time>2021-08-12T11:35:57Z</time>
      </trkpt>
      <trkpt lat="45.50639" lon="6.73825">
        <ele>2050.5</ele>
        <time>2021-08-12T11:35:58Z</time>
      </trkpt>
      <trkpt lat="45.50639" lon="6.73825">
        <ele>2050.4</ele>
        <time>2021-08-12T11:35:59Z</time>
      </trkpt>
      <trkpt lat="45.50639" lon="6.73824">
        <ele>2050.3</ele>
        <time>2021-08-12T11:36:00Z</time>
      </trkpt>
      <trkpt lat="45.50639" lon="6.73823">
        <ele>2050.2</ele>
        <time>2021-08-12T11:36:01Z</time>
      </trkpt>
      <trkpt lat="45.50639" lon="6.73823">
        <ele>2050.1</ele>
        <time>2021-08-12T11:36:02Z</time>
      </trkpt>
      <trkpt lat="45.5064" lon="6.73822">
        <ele>2050</ele>
        <time>2021-08-12T11:36:03Z</time>
      </trkpt>
      <trkpt lat="45.5064" lon="6.73821">
        <ele>2049.9</ele>
        <time>2021-08-12T11:36:04Z</time>
      </trkpt>
      <trkpt lat="45.5064" lon="6.73821">
        <ele>2049.8</ele>
        <time>2021-08-12T11:36:05Z</time>
      </trkpt>
      <trkpt lat="45.50641" lon="6.7382">
        <ele>2049.7</ele>
        <time>2021-08-12T11:36:06Z</time>
      </trkpt>
      <trkpt lat="45.50641" lon="6.7382">
        <ele>2049.5</ele>
        <time>2021-08-12T11:36:07Z</time>
      </trkpt>
      <trkpt lat="45.50641" lon="6.73819">
        <ele>2049.4</ele>
        <time>2021-08-12T11:36:08Z</time>
      </trkpt>
      <trkpt lat="45.50642" lon="6.73819">
        <ele>2049.3</ele>
        <time>2021-08-12T11:36:09Z</time>
      </trkpt>
      <trkpt lat="45.50642" lon="6.73818">
        <ele>2049.2</ele>
        <time>2021-08-12T11:36:10Z</time>
      </trkpt>
      <trkpt lat="45.50642" lon="6.73818">
        <ele>2049.1</ele>
        <time>2021-08-12T11:36:11Z</time>
      </trkpt>
      <trkpt lat="45.50642" lon="6.73817">
        <ele>2049</ele>
        <time>2021-08-12T11:36:12Z</time>
      </trkpt>
      <trkpt lat="45.50642" lon="6.73816">
        <ele>2049</ele>
        <time>2021-08-12T11:36:13Z</time>
      </trkpt>
      <trkpt lat="45.50642" lon="6.73815">
        <ele>2048.8</ele>
        <time>2021-08-12T11:36:14Z</time>
      </trkpt>
      <trkpt lat="45.50642" lon="6.73815">
        <ele>2048.7</ele>
        <time>2021-08-12T11:36:15Z</time>
      </trkpt>
      <trkpt lat="45.50641" lon="6.73814">
        <ele>2048.6</ele>
        <time>2021-08-12T11:36:16Z</time>
      </trkpt>
      <trkpt lat="45.50641" lon="6.73813">
        <ele>2048.4</ele>
        <time>2021-08-12T11:36:17Z</time>
      </trkpt>
      <trkpt lat="45.50641" lon="6.73812">
        <ele>2048.3</ele>
        <time>2021-08-12T11:36:18Z</time>
      </trkpt>
      <trkpt lat="45.5064" lon="6.73811">
        <ele>2048.1</ele>
        <time>2021-08-12T11:36:19Z</time>
      </trkpt>
      <trkpt lat="45.5064" lon="6.7381">
        <ele>2048</ele>
        <time>2021-08-12T11:36:20Z</time>
      </trkpt>
      <trkpt lat="45.50639" lon="6.7381">
        <ele>2047.8</ele>
        <time>2021-08-12T11:36:21Z</time>
      </trkpt>
      <trkpt lat="45.50639" lon="6.73809">
        <ele>2047.7</ele>
        <time>2021-08-12T11:36:22Z</time>
      </trkpt>
      <trkpt lat="45.50638" lon="6.73808">
        <ele>2047.5</ele>
        <time>2021-08-12T11:36:23Z</time>
      </trkpt>
      <trkpt lat="45.50638" lon="6.73807">
        <ele>2047.4</ele>
        <time>2021-08-12T11:36:24Z</time>
      </trkpt>
      <trkpt lat="45.50638" lon="6.73806">
        <ele>2047.2</ele>
        <time>2021-08-12T11:36:25Z</time>
      </trkpt>
      <trkpt lat="45.50637" lon="6.73805">
        <ele>2047.1</ele>
        <time>2021-08-12T11:36:26Z</time>
      </trkpt>
      <trkpt lat="45.50637" lon="6.73804">
        <ele>2046.9</ele>
        <time>2021-08-12T11:36:27Z</time>
      </trkpt>
      <trkpt lat="45.50637" lon="6.73803">
        <ele>2046.8</ele>
        <time>2021-08-12T11:36:28Z</time>
      </trkpt>
      <trkpt lat="45.50637" lon="6.73802">
        <ele>2046.7</ele>
        <time>2021-08-12T11:36:29Z</time>
      </trkpt>
      <trkpt lat="45.50637" lon="6.73802">
        <ele>2046.6</ele>
        <time>2021-08-12T11:36:30Z</time>
      </trkpt>
      <trkpt lat="45.50637" lon="6.73801">
        <ele>2046.4</ele>
        <time>2021-08-12T11:36:31Z</time>
      </trkpt>
      <trkpt lat="45.50637" lon="6.738">
        <ele>2046.3</ele>
        <time>2021-08-12T11:36:32Z</time>
      </trkpt>
      <trkpt lat="45.50636" lon="6.73799">
        <ele>2046.2</ele>
        <time>2021-08-12T11:36:33Z</time>
      </trkpt>
      <trkpt lat="45.50636" lon="6.73798">
        <ele>2046.1</ele>
        <time>2021-08-12T11:36:34Z</time>
      </trkpt>
      <trkpt lat="45.50636" lon="6.73797">
        <ele>2045.9</ele>
        <time>2021-08-12T11:36:35Z</time>
      </trkpt>
      <trkpt lat="45.50636" lon="6.73796">
        <ele>2045.8</ele>
        <time>2021-08-12T11:36:36Z</time>
      </trkpt>
      <trkpt lat="45.50636" lon="6.73795">
        <ele>2045.7</ele>
        <time>2021-08-12T11:36:37Z</time>
      </trkpt>
      <trkpt lat="45.50636" lon="6.73794">
        <ele>2045.5</ele>
        <time>2021-08-12T11:36:38Z</time>
      </trkpt>
      <trkpt lat="45.50636" lon="6.73793">
        <ele>2045.4</ele>
        <time>2021-08-12T11:36:39Z</time>
      </trkpt>
      <trkpt lat="45.50636" lon="6.73792">
        <ele>2045.2</ele>
        <time>2021-08-12T11:36:40Z</time>
      </trkpt>
      <trkpt lat="45.50636" lon="6.73791">
        <ele>2045.1</ele>
        <time>2021-08-12T11:36:41Z</time>
      </trkpt>
      <trkpt lat="45.50636" lon="6.7379">
        <ele>2044.9</ele>
        <time>2021-08-12T11:36:42Z</time>
      </trkpt>
      <trkpt lat="45.50636" lon="6.73789">
        <ele>2044.8</ele>
        <time>2021-08-12T11:36:43Z</time>
      </trkpt>
      <trkpt lat="45.50637" lon="6.73787">
        <ele>2044.6</ele>
        <time>2021-08-12T11:36:44Z</time>
      </trkpt>
      <trkpt lat="45.50637" lon="6.73786">
        <ele>2044.4</ele>
        <time>2021-08-12T11:36:45Z</time>
      </trkpt>
      <trkpt lat="45.50637" lon="6.73785">
        <ele>2044.2</ele>
        <time>2021-08-12T11:36:46Z</time>
      </trkpt>
      <trkpt lat="45.50638" lon="6.73783">
        <ele>2044</ele>
        <time>2021-08-12T11:36:47Z</time>
      </trkpt>
      <trkpt lat="45.50638" lon="6.73782">
        <ele>2043.9</ele>
        <time>2021-08-12T11:36:48Z</time>
      </trkpt>
      <trkpt lat="45.50638" lon="6.73781">
        <ele>2043.7</ele>
        <time>2021-08-12T11:36:49Z</time>
      </trkpt>
      <trkpt lat="45.50639" lon="6.7378">
        <ele>2043.6</ele>
        <time>2021-08-12T11:36:50Z</time>
      </trkpt>
      <trkpt lat="45.50639" lon="6.73779">
        <ele>2043.5</ele>
        <time>2021-08-12T11:36:51Z</time>
      </trkpt>
      <trkpt lat="45.50639" lon="6.73778">
        <ele>2043.4</ele>
        <time>2021-08-12T11:36:52Z</time>
      </trkpt>
      <trkpt lat="45.5064" lon="6.73778">
        <ele>2043.3</ele>
        <time>2021-08-12T11:36:53Z</time>
      </trkpt>
      <trkpt lat="45.5064" lon="6.73777">
        <ele>2043.2</ele>
        <time>2021-08-12T11:36:54Z</time>
      </trkpt>
      <trkpt lat="45.5064" lon="6.73777">
        <ele>2043.2</ele>
        <time>2021-08-12T11:36:55Z</time>
      </trkpt>
      <trkpt lat="45.5064" lon="6.73777">
        <ele>2043.2</ele>
        <time>2021-08-12T11:36:56Z</time>
      </trkpt>
      <trkpt lat="45.5064" lon="6.73777">
        <ele>2043.1</ele>
        <time>2021-08-12T11:36:57Z</time>
      </trkpt>
      <trkpt lat="45.5064" lon="6.73776">
        <ele>2043.1</ele>
        <time>2021-08-12T11:36:58Z</time>
      </trkpt>
      <trkpt lat="45.5064" lon="6.73776">
        <ele>2043.1</ele>
        <time>2021-08-12T11:36:59Z</time>
      </trkpt>
      <trkpt lat="45.5064" lon="6.73776">
        <ele>2043.1</ele>
        <time>2021-08-12T11:37:00Z</time>
      </trkpt>
      <trkpt lat="45.5064" lon="6.73776">
        <ele>2043.1</ele>
        <time>2021-08-12T11:37:01Z</time>
      </trkpt>
      <trkpt lat="45.5064" lon="6.73776">
        <ele>2043</ele>
        <time>2021-08-12T11:37:02Z</time>
      </trkpt>
      <trkpt lat="45.5064" lon="6.73775">
        <ele>2043</ele>
        <time>2021-08-12T11:37:03Z</time>
      </trkpt>
      <trkpt lat="45.5064" lon="6.73774">
        <ele>2042.9</ele>
        <time>2021-08-12T11:37:04Z</time>
      </trkpt>
      <trkpt lat="45.5064" lon="6.73774">
        <ele>2042.8</ele>
        <time>2021-08-12T11:37:05Z</time>
      </trkpt>
      <trkpt lat="45.5064" lon="6.73773">
        <ele>2042.8</ele>
        <time>2021-08-12T11:37:06Z</time>
      </trkpt>
      <trkpt lat="45.5064" lon="6.73772">
        <ele>2042.7</ele>
        <time>2021-08-12T11:37:07Z</time>
      </trkpt>
      <trkpt lat="45.5064" lon="6.73772">
        <ele>2042.6</ele>
        <time>2021-08-12T11:37:08Z</time>
      </trkpt>
      <trkpt lat="45.5064" lon="6.73771">
        <ele>2042.5</ele>
        <time>2021-08-12T11:37:09Z</time>
      </trkpt>
      <trkpt lat="45.5064" lon="6.7377">
        <ele>2042.4</ele>
        <time>2021-08-12T11:37:10Z</time>
      </trkpt>
      <trkpt lat="45.5064" lon="6.73769">
        <ele>2042.3</ele>
        <time>2021-08-12T11:37:11Z</time>
      </trkpt>
      <trkpt lat="45.5064" lon="6.73768">
        <ele>2042.3</ele>
        <time>2021-08-12T11:37:12Z</time>
      </trkpt>
      <trkpt lat="45.50639" lon="6.73768">
        <ele>2042.2</ele>
        <time>2021-08-12T11:37:13Z</time>
      </trkpt>
      <trkpt lat="45.50639" lon="6.73767">
        <ele>2042.1</ele>
        <time>2021-08-12T11:37:14Z</time>
      </trkpt>
      <trkpt lat="45.50638" lon="6.73766">
        <ele>2042</ele>
        <time>2021-08-12T11:37:15Z</time>
      </trkpt>
      <trkpt lat="45.50637" lon="6.73766">
        <ele>2041.9</ele>
        <time>2021-08-12T11:37:16Z</time>
      </trkpt>
      <trkpt lat="45.50637" lon="6.73765">
        <ele>2041.8</ele>
        <time>2021-08-12T11:37:17Z</time>
      </trkpt>
      <trkpt lat="45.50636" lon="6.73765">
        <ele>2041.7</ele>
        <time>2021-08-12T11:37:18Z</time>
      </trkpt>
      <trkpt lat="45.50635" lon="6.73764">
        <ele>2041.6</ele>
        <time>2021-08-12T11:37:19Z</time>
      </trkpt>
      <trkpt lat="45.50634" lon="6.73764">
        <ele>2041.5</ele>
        <time>2021-08-12T11:37:20Z</time>
      </trkpt>
      <trkpt lat="45.50634" lon="6.73763">
        <ele>2041.4</ele>
        <time>2021-08-12T11:37:21Z</time>
      </trkpt>
      <trkpt lat="45.50633" lon="6.73762">
        <ele>2041.3</ele>
        <time>2021-08-12T11:37:22Z</time>
      </trkpt>
      <trkpt lat="45.50632" lon="6.73762">
        <ele>2041.2</ele>
        <time>2021-08-12T11:37:23Z</time>
      </trkpt>
      <trkpt lat="45.50631" lon="6.73761">
        <ele>2041.1</ele>
        <time>2021-08-12T11:37:24Z</time>
      </trkpt>
      <trkpt lat="45.5063" lon="6.7376">
        <ele>2041</ele>
        <time>2021-08-12T11:37:25Z</time>
      </trkpt>
      <trkpt lat="45.5063" lon="6.73759">
        <ele>2040.9</ele>
        <time>2021-08-12T11:37:26Z</time>
      </trkpt>
      <trkpt lat="45.50629" lon="6.73759">
        <ele>2040.8</ele>
        <time>2021-08-12T11:37:27Z</time>
      </trkpt>
      <trkpt lat="45.50628" lon="6.73758">
        <ele>2040.7</ele>
        <time>2021-08-12T11:37:28Z</time>
      </trkpt>
      <trkpt lat="45.50628" lon="6.73757">
        <ele>2040.6</ele>
        <time>2021-08-12T11:37:29Z</time>
      </trkpt>
      <trkpt lat="45.50627" lon="6.73756">
        <ele>2040.5</ele>
        <time>2021-08-12T11:37:30Z</time>
      </trkpt>
      <trkpt lat="45.50626" lon="6.73755">
        <ele>2040.5</ele>
        <time>2021-08-12T11:37:31Z</time>
      </trkpt>
      <trkpt lat="45.50626" lon="6.73755">
        <ele>2040.4</ele>
        <time>2021-08-12T11:37:32Z</time>
      </trkpt>
      <trkpt lat="45.50625" lon="6.73754">
        <ele>2040.4</ele>
        <time>2021-08-12T11:37:33Z</time>
      </trkpt>
      <trkpt lat="45.50625" lon="6.73753">
        <ele>2040.3</ele>
        <time>2021-08-12T11:37:34Z</time>
      </trkpt>
      <trkpt lat="45.50625" lon="6.73753">
        <ele>2040.3</ele>
        <time>2021-08-12T11:37:35Z</time>
      </trkpt>
      <trkpt lat="45.50624" lon="6.73752">
        <ele>2040.2</ele>
        <time>2021-08-12T11:37:36Z</time>
      </trkpt>
      <trkpt lat="45.50624" lon="6.73751">
        <ele>2040.2</ele>
        <time>2021-08-12T11:37:37Z</time>
      </trkpt>
      <trkpt lat="45.50624" lon="6.73751">
        <ele>2040.1</ele>
        <time>2021-08-12T11:37:38Z</time>
      </trkpt>
      <trkpt lat="45.50624" lon="6.7375">
        <ele>2040.1</ele>
        <time>2021-08-12T11:37:39Z</time>
      </trkpt>
      <trkpt lat="45.50623" lon="6.73749">
        <ele>2040</ele>
        <time>2021-08-12T11:37:40Z</time>
      </trkpt>
      <trkpt lat="45.50623" lon="6.73749">
        <ele>2040</ele>
        <time>2021-08-12T11:37:41Z</time>
      </trkpt>
      <trkpt lat="45.50623" lon="6.73748">
        <ele>2040</ele>
        <time>2021-08-12T11:37:42Z</time>
      </trkpt>
      <trkpt lat="45.50623" lon="6.73747">
        <ele>2039.9</ele>
        <time>2021-08-12T11:37:43Z</time>
      </trkpt>
      <trkpt lat="45.50623" lon="6.73746">
        <ele>2039.9</ele>
        <time>2021-08-12T11:37:44Z</time>
      </trkpt>
      <trkpt lat="45.50623" lon="6.73745">
        <ele>2039.8</ele>
        <time>2021-08-12T11:37:45Z</time>
      </trkpt>
      <trkpt lat="45.50623" lon="6.73745">
        <ele>2039.8</ele>
        <time>2021-08-12T11:37:46Z</time>
      </trkpt>
      <trkpt lat="45.50623" lon="6.73744">
        <ele>2039.7</ele>
        <time>2021-08-12T11:37:47Z</time>
      </trkpt>
      <trkpt lat="45.50622" lon="6.73743">
        <ele>2039.7</ele>
        <time>2021-08-12T11:37:48Z</time>
      </trkpt>
      <trkpt lat="45.50622" lon="6.73742">
        <ele>2039.6</ele>
        <time>2021-08-12T11:37:49Z</time>
      </trkpt>
      <trkpt lat="45.50622" lon="6.73741">
        <ele>2039.5</ele>
        <time>2021-08-12T11:37:50Z</time>
      </trkpt>
      <trkpt lat="45.50622" lon="6.7374">
        <ele>2039.4</ele>
        <time>2021-08-12T11:37:51Z</time>
      </trkpt>
      <trkpt lat="45.50622" lon="6.73739">
        <ele>2039.4</ele>
        <time>2021-08-12T11:37:52Z</time>
      </trkpt>
      <trkpt lat="45.50621" lon="6.73739">
        <ele>2039.3</ele>
        <time>2021-08-12T11:37:53Z</time>
      </trkpt>
      <trkpt lat="45.50621" lon="6.73738">
        <ele>2039.2</ele>
        <time>2021-08-12T11:37:54Z</time>
      </trkpt>
      <trkpt lat="45.50621" lon="6.73737">
        <ele>2039.1</ele>
        <time>2021-08-12T11:37:55Z</time>
      </trkpt>
      <trkpt lat="45.5062" lon="6.73736">
        <ele>2039.1</ele>
        <time>2021-08-12T11:37:56Z</time>
      </trkpt>
      <trkpt lat="45.5062" lon="6.73736">
        <ele>2039</ele>
        <time>2021-08-12T11:37:57Z</time>
      </trkpt>
      <trkpt lat="45.5062" lon="6.73735">
        <ele>2038.9</ele>
        <time>2021-08-12T11:37:58Z</time>
      </trkpt>
      <trkpt lat="45.50619" lon="6.73735">
        <ele>2038.8</ele>
        <time>2021-08-12T11:37:59Z</time>
      </trkpt>
      <trkpt lat="45.50619" lon="6.73734">
        <ele>2038.7</ele>
        <time>2021-08-12T11:38:00Z</time>
      </trkpt>
      <trkpt lat="45.50618" lon="6.73734">
        <ele>2038.6</ele>
        <time>2021-08-12T11:38:01Z</time>
      </trkpt>
      <trkpt lat="45.50618" lon="6.73734">
        <ele>2038.5</ele>
        <time>2021-08-12T11:38:02Z</time>
      </trkpt>
      <trkpt lat="45.50617" lon="6.73733">
        <ele>2038.4</ele>
        <time>2021-08-12T11:38:03Z</time>
      </trkpt>
      <trkpt lat="45.50617" lon="6.73733">
        <ele>2038.3</ele>
        <time>2021-08-12T11:38:04Z</time>
      </trkpt>
      <trkpt lat="45.50616" lon="6.73733">
        <ele>2038.2</ele>
        <time>2021-08-12T11:38:05Z</time>
      </trkpt>
      <trkpt lat="45.50616" lon="6.73733">
        <ele>2038.1</ele>
        <time>2021-08-12T11:38:06Z</time>
      </trkpt>
      <trkpt lat="45.50615" lon="6.73733">
        <ele>2038</ele>
        <time>2021-08-12T11:38:07Z</time>
      </trkpt>
      <trkpt lat="45.50614" lon="6.73732">
        <ele>2037.8</ele>
        <time>2021-08-12T11:38:08Z</time>
      </trkpt>
      <trkpt lat="45.50614" lon="6.73732">
        <ele>2037.7</ele>
        <time>2021-08-12T11:38:09Z</time>
      </trkpt>
      <trkpt lat="45.50614" lon="6.73732">
        <ele>2037.6</ele>
        <time>2021-08-12T11:38:10Z</time>
      </trkpt>
      <trkpt lat="45.50614" lon="6.73731">
        <ele>2037.6</ele>
        <time>2021-08-12T11:38:11Z</time>
      </trkpt>
      <trkpt lat="45.50614" lon="6.73731">
        <ele>2037.5</ele>
        <time>2021-08-12T11:38:12Z</time>
      </trkpt>
      <trkpt lat="45.50614" lon="6.7373">
        <ele>2037.4</ele>
        <time>2021-08-12T11:38:13Z</time>
      </trkpt>
      <trkpt lat="45.50613" lon="6.7373">
        <ele>2037.3</ele>
        <time>2021-08-12T11:38:14Z</time>
      </trkpt>
      <trkpt lat="45.50613" lon="6.73729">
        <ele>2037.2</ele>
        <time>2021-08-12T11:38:15Z</time>
      </trkpt>
      <trkpt lat="45.50613" lon="6.73729">
        <ele>2037.1</ele>
        <time>2021-08-12T11:38:16Z</time>
      </trkpt>
      <trkpt lat="45.50613" lon="6.73729">
        <ele>2037</ele>
        <time>2021-08-12T11:38:17Z</time>
      </trkpt>
      <trkpt lat="45.50613" lon="6.73728">
        <ele>2037</ele>
        <time>2021-08-12T11:38:18Z</time>
      </trkpt>
      <trkpt lat="45.50612" lon="6.73728">
        <ele>2036.9</ele>
        <time>2021-08-12T11:38:19Z</time>
      </trkpt>
      <trkpt lat="45.50612" lon="6.73727">
        <ele>2036.8</ele>
        <time>2021-08-12T11:38:20Z</time>
      </trkpt>
      <trkpt lat="45.50612" lon="6.73727">
        <ele>2036.7</ele>
        <time>2021-08-12T11:38:21Z</time>
      </trkpt>
      <trkpt lat="45.50612" lon="6.73726">
        <ele>2036.6</ele>
        <time>2021-08-12T11:38:22Z</time>
      </trkpt>
      <trkpt lat="45.50612" lon="6.73726">
        <ele>2036.5</ele>
        <time>2021-08-12T11:38:23Z</time>
      </trkpt>
      <trkpt lat="45.50611" lon="6.73726">
        <ele>2036.4</ele>
        <time>2021-08-12T11:38:24Z</time>
      </trkpt>
      <trkpt lat="45.50611" lon="6.73725">
        <ele>2036.3</ele>
        <time>2021-08-12T11:38:25Z</time>
      </trkpt>
      <trkpt lat="45.50611" lon="6.73725">
        <ele>2036.2</ele>
        <time>2021-08-12T11:38:26Z</time>
      </trkpt>
      <trkpt lat="45.50611" lon="6.73724">
        <ele>2036.1</ele>
        <time>2021-08-12T11:38:27Z</time>
      </trkpt>
      <trkpt lat="45.50611" lon="6.73724">
        <ele>2036.1</ele>
        <time>2021-08-12T11:38:28Z</time>
      </trkpt>
      <trkpt lat="45.50611" lon="6.73723">
        <ele>2035.9</ele>
        <time>2021-08-12T11:38:29Z</time>
      </trkpt>
      <trkpt lat="45.5061" lon="6.73723">
        <ele>2035.9</ele>
        <time>2021-08-12T11:38:30Z</time>
      </trkpt>
      <trkpt lat="45.5061" lon="6.73723">
        <ele>2035.8</ele>
        <time>2021-08-12T11:38:31Z</time>
      </trkpt>
      <trkpt lat="45.5061" lon="6.73722">
        <ele>2035.7</ele>
        <time>2021-08-12T11:38:32Z</time>
      </trkpt>
      <trkpt lat="45.5061" lon="6.73722">
        <ele>2035.6</ele>
        <time>2021-08-12T11:38:33Z</time>
      </trkpt>
      <trkpt lat="45.5061" lon="6.73721">
        <ele>2035.5</ele>
        <time>2021-08-12T11:38:34Z</time>
      </trkpt>
      <trkpt lat="45.50609" lon="6.73721">
        <ele>2035.4</ele>
        <time>2021-08-12T11:38:35Z</time>
      </trkpt>
      <trkpt lat="45.50609" lon="6.7372">
        <ele>2035.3</ele>
        <time>2021-08-12T11:38:36Z</time>
      </trkpt>
      <trkpt lat="45.50609" lon="6.7372">
        <ele>2035.2</ele>
        <time>2021-08-12T11:38:37Z</time>
      </trkpt>
      <trkpt lat="45.50609" lon="6.7372">
        <ele>2035.1</ele>
        <time>2021-08-12T11:38:38Z</time>
      </trkpt>
      <trkpt lat="45.50609" lon="6.73719">
        <ele>2035</ele>
        <time>2021-08-12T11:38:39Z</time>
      </trkpt>
      <trkpt lat="45.50609" lon="6.73719">
        <ele>2034.9</ele>
        <time>2021-08-12T11:38:40Z</time>
      </trkpt>
      <trkpt lat="45.50608" lon="6.73718">
        <ele>2034.8</ele>
        <time>2021-08-12T11:38:41Z</time>
      </trkpt>
      <trkpt lat="45.50608" lon="6.73718">
        <ele>2034.7</ele>
        <time>2021-08-12T11:38:42Z</time>
      </trkpt>
      <trkpt lat="45.50608" lon="6.73718">
        <ele>2034.6</ele>
        <time>2021-08-12T11:38:43Z</time>
      </trkpt>
      <trkpt lat="45.50608" lon="6.73717">
        <ele>2034.5</ele>
        <time>2021-08-12T11:38:44Z</time>
      </trkpt>
      <trkpt lat="45.50608" lon="6.73717">
        <ele>2034.4</ele>
        <time>2021-08-12T11:38:45Z</time>
      </trkpt>
      <trkpt lat="45.50607" lon="6.73716">
        <ele>2034.3</ele>
        <time>2021-08-12T11:38:46Z</time>
      </trkpt>
      <trkpt lat="45.50607" lon="6.73716">
        <ele>2034.2</ele>
        <time>2021-08-12T11:38:47Z</time>
      </trkpt>
      <trkpt lat="45.50607" lon="6.73715">
        <ele>2034.1</ele>
        <time>2021-08-12T11:38:48Z</time>
      </trkpt>
      <trkpt lat="45.50607" lon="6.73715">
        <ele>2034</ele>
        <time>2021-08-12T11:38:49Z</time>
      </trkpt>
      <trkpt lat="45.50607" lon="6.73715">
        <ele>2033.9</ele>
        <time>2021-08-12T11:38:50Z</time>
      </trkpt>
      <trkpt lat="45.50606" lon="6.73714">
        <ele>2033.8</ele>
        <time>2021-08-12T11:38:51Z</time>
      </trkpt>
      <trkpt lat="45.50606" lon="6.73714">
        <ele>2033.7</ele>
        <time>2021-08-12T11:38:52Z</time>
      </trkpt>
      <trkpt lat="45.50606" lon="6.73713">
        <ele>2033.6</ele>
        <time>2021-08-12T11:38:53Z</time>
      </trkpt>
      <trkpt lat="45.50606" lon="6.73713">
        <ele>2033.5</ele>
        <time>2021-08-12T11:38:54Z</time>
      </trkpt>
      <trkpt lat="45.50606" lon="6.73712">
        <ele>2033.4</ele>
        <time>2021-08-12T11:38:55Z</time>
      </trkpt>
      <trkpt lat="45.50606" lon="6.73712">
        <ele>2033.3</ele>
        <time>2021-08-12T11:38:56Z</time>
      </trkpt>
      <trkpt lat="45.50605" lon="6.73712">
        <ele>2033.2</ele>
        <time>2021-08-12T11:38:57Z</time>
      </trkpt>
      <trkpt lat="45.50606" lon="6.7371">
        <ele>2032.9</ele>
        <time>2021-08-12T11:38:58Z</time>
      </trkpt>
      <trkpt lat="45.50606" lon="6.73709">
        <ele>2032.8</ele>
        <time>2021-08-12T11:38:59Z</time>
      </trkpt>
      <trkpt lat="45.50606" lon="6.73708">
        <ele>2032.6</ele>
        <time>2021-08-12T11:39:00Z</time>
      </trkpt>
      <trkpt lat="45.50607" lon="6.73708">
        <ele>2032.4</ele>
        <time>2021-08-12T11:39:01Z</time>
      </trkpt>
      <trkpt lat="45.50607" lon="6.73707">
        <ele>2032.2</ele>
        <time>2021-08-12T11:39:02Z</time>
      </trkpt>
      <trkpt lat="45.50608" lon="6.73707">
        <ele>2032</ele>
        <time>2021-08-12T11:39:03Z</time>
      </trkpt>
      <trkpt lat="45.50608" lon="6.73707">
        <ele>2031.9</ele>
        <time>2021-08-12T11:39:04Z</time>
      </trkpt>
      <trkpt lat="45.50609" lon="6.73707">
        <ele>2031.7</ele>
        <time>2021-08-12T11:39:05Z</time>
      </trkpt>
      <trkpt lat="45.5061" lon="6.73707">
        <ele>2031.5</ele>
        <time>2021-08-12T11:39:06Z</time>
      </trkpt>
      <trkpt lat="45.5061" lon="6.73707">
        <ele>2031.4</ele>
        <time>2021-08-12T11:39:07Z</time>
      </trkpt>
      <trkpt lat="45.50611" lon="6.73707">
        <ele>2031.2</ele>
        <time>2021-08-12T11:39:08Z</time>
      </trkpt>
      <trkpt lat="45.50612" lon="6.73707">
        <ele>2031</ele>
        <time>2021-08-12T11:39:09Z</time>
      </trkpt>
      <trkpt lat="45.50612" lon="6.73706">
        <ele>2030.9</ele>
        <time>2021-08-12T11:39:10Z</time>
      </trkpt>
      <trkpt lat="45.50613" lon="6.73706">
        <ele>2030.7</ele>
        <time>2021-08-12T11:39:11Z</time>
      </trkpt>
      <trkpt lat="45.50613" lon="6.73706">
        <ele>2030.6</ele>
        <time>2021-08-12T11:39:12Z</time>
      </trkpt>
      <trkpt lat="45.50614" lon="6.73706">
        <ele>2028.7</ele>
        <time>2021-08-12T11:39:13Z</time>
      </trkpt>
      <trkpt lat="45.50614" lon="6.73705">
        <ele>2028.6</ele>
        <time>2021-08-12T11:39:14Z</time>
      </trkpt>
      <trkpt lat="45.50614" lon="6.73705">
        <ele>2028.4</ele>
        <time>2021-08-12T11:39:15Z</time>
      </trkpt>
      <trkpt lat="45.50615" lon="6.73704">
        <ele>2028.3</ele>
        <time>2021-08-12T11:39:16Z</time>
      </trkpt>
      <trkpt lat="45.50615" lon="6.73704">
        <ele>2028.2</ele>
        <time>2021-08-12T11:39:17Z</time>
      </trkpt>
      <trkpt lat="45.50615" lon="6.73704">
        <ele>2028.1</ele>
        <time>2021-08-12T11:39:18Z</time>
      </trkpt>
      <trkpt lat="45.50615" lon="6.73704">
        <ele>2028.1</ele>
        <time>2021-08-12T11:39:19Z</time>
      </trkpt>
      <trkpt lat="45.50615" lon="6.73704">
        <ele>2028.1</ele>
        <time>2021-08-12T11:39:20Z</time>
      </trkpt>
      <trkpt lat="45.50615" lon="6.73703">
        <ele>2028.1</ele>
        <time>2021-08-12T11:39:21Z</time>
      </trkpt>
      <trkpt lat="45.50615" lon="6.73703">
        <ele>2028</ele>
        <time>2021-08-12T11:39:22Z</time>
      </trkpt>
      <trkpt lat="45.50615" lon="6.73703">
        <ele>2028</ele>
        <time>2021-08-12T11:39:23Z</time>
      </trkpt>
      <trkpt lat="45.50615" lon="6.73703">
        <ele>2028</ele>
        <time>2021-08-12T11:39:24Z</time>
      </trkpt>
      <trkpt lat="45.50615" lon="6.73703">
        <ele>2028</ele>
        <time>2021-08-12T11:39:25Z</time>
      </trkpt>
      <trkpt lat="45.50615" lon="6.73703">
        <ele>2028</ele>
        <time>2021-08-12T11:39:26Z</time>
      </trkpt>
      <trkpt lat="45.50615" lon="6.73703">
        <ele>2027.9</ele>
        <time>2021-08-12T11:39:27Z</time>
      </trkpt>
      <trkpt lat="45.50615" lon="6.73704">
        <ele>2027.9</ele>
        <time>2021-08-12T11:39:28Z</time>
      </trkpt>
      <trkpt lat="45.50615" lon="6.73704">
        <ele>2027.9</ele>
        <time>2021-08-12T11:39:29Z</time>
      </trkpt>
      <trkpt lat="45.50615" lon="6.73704">
        <ele>2027.9</ele>
        <time>2021-08-12T11:39:30Z</time>
      </trkpt>
      <trkpt lat="45.50615" lon="6.73704">
        <ele>2027.9</ele>
        <time>2021-08-12T11:39:31Z</time>
      </trkpt>
      <trkpt lat="45.50615" lon="6.73703">
        <ele>2027.8</ele>
        <time>2021-08-12T11:39:32Z</time>
      </trkpt>
      <trkpt lat="45.50615" lon="6.73703">
        <ele>2027.7</ele>
        <time>2021-08-12T11:39:33Z</time>
      </trkpt>
      <trkpt lat="45.50615" lon="6.73702">
        <ele>2027.6</ele>
        <time>2021-08-12T11:39:34Z</time>
      </trkpt>
      <trkpt lat="45.50615" lon="6.73702">
        <ele>2027.5</ele>
        <time>2021-08-12T11:39:35Z</time>
      </trkpt>
      <trkpt lat="45.50614" lon="6.73701">
        <ele>2027.4</ele>
        <time>2021-08-12T11:39:36Z</time>
      </trkpt>
      <trkpt lat="45.50614" lon="6.73701">
        <ele>2027.2</ele>
        <time>2021-08-12T11:39:37Z</time>
      </trkpt>
      <trkpt lat="45.50614" lon="6.737">
        <ele>2027.1</ele>
        <time>2021-08-12T11:39:38Z</time>
      </trkpt>
      <trkpt lat="45.50613" lon="6.737">
        <ele>2026.9</ele>
        <time>2021-08-12T11:39:39Z</time>
      </trkpt>
      <trkpt lat="45.50612" lon="6.737">
        <ele>2026.8</ele>
        <time>2021-08-12T11:39:40Z</time>
      </trkpt>
      <trkpt lat="45.50612" lon="6.737">
        <ele>2026.6</ele>
        <time>2021-08-12T11:39:41Z</time>
      </trkpt>
      <trkpt lat="45.50611" lon="6.737">
        <ele>2026.5</ele>
        <time>2021-08-12T11:39:42Z</time>
      </trkpt>
      <trkpt lat="45.50611" lon="6.737">
        <ele>2026.4</ele>
        <time>2021-08-12T11:39:43Z</time>
      </trkpt>
      <trkpt lat="45.50611" lon="6.73699">
        <ele>2026.3</ele>
        <time>2021-08-12T11:39:44Z</time>
      </trkpt>
      <trkpt lat="45.50611" lon="6.73699">
        <ele>2026.2</ele>
        <time>2021-08-12T11:39:45Z</time>
      </trkpt>
      <trkpt lat="45.50611" lon="6.73698">
        <ele>2026.1</ele>
        <time>2021-08-12T11:39:46Z</time>
      </trkpt>
      <trkpt lat="45.50611" lon="6.73697">
        <ele>2025.9</ele>
        <time>2021-08-12T11:39:47Z</time>
      </trkpt>
      <trkpt lat="45.50611" lon="6.73696">
        <ele>2025.8</ele>
        <time>2021-08-12T11:39:48Z</time>
      </trkpt>
      <trkpt lat="45.50612" lon="6.73695">
        <ele>2025.6</ele>
        <time>2021-08-12T11:39:49Z</time>
      </trkpt>
      <trkpt lat="45.50612" lon="6.73695">
        <ele>2025.5</ele>
        <time>2021-08-12T11:39:50Z</time>
      </trkpt>
      <trkpt lat="45.50612" lon="6.73694">
        <ele>2025.4</ele>
        <time>2021-08-12T11:39:51Z</time>
      </trkpt>
      <trkpt lat="45.50613" lon="6.73693">
        <ele>2025.3</ele>
        <time>2021-08-12T11:39:52Z</time>
      </trkpt>
      <trkpt lat="45.50613" lon="6.73693">
        <ele>2025.2</ele>
        <time>2021-08-12T11:39:53Z</time>
      </trkpt>
      <trkpt lat="45.50613" lon="6.73692">
        <ele>2025.1</ele>
        <time>2021-08-12T11:39:54Z</time>
      </trkpt>
      <trkpt lat="45.50614" lon="6.73692">
        <ele>2025</ele>
        <time>2021-08-12T11:39:55Z</time>
      </trkpt>
      <trkpt lat="45.50614" lon="6.73691">
        <ele>2025</ele>
        <time>2021-08-12T11:39:56Z</time>
      </trkpt>
      <trkpt lat="45.50614" lon="6.73691">
        <ele>2024.9</ele>
        <time>2021-08-12T11:39:57Z</time>
      </trkpt>
      <trkpt lat="45.50614" lon="6.73691">
        <ele>2024.9</ele>
        <time>2021-08-12T11:39:58Z</time>
      </trkpt>
      <trkpt lat="45.50614" lon="6.73691">
        <ele>2024.9</ele>
        <time>2021-08-12T11:39:59Z</time>
      </trkpt>
      <trkpt lat="45.50614" lon="6.7369">
        <ele>2024.8</ele>
        <time>2021-08-12T11:40:00Z</time>
      </trkpt>
      <trkpt lat="45.50614" lon="6.73689">
        <ele>2024.7</ele>
        <time>2021-08-12T11:40:01Z</time>
      </trkpt>
      <trkpt lat="45.50615" lon="6.73688">
        <ele>2024.6</ele>
        <time>2021-08-12T11:40:02Z</time>
      </trkpt>
      <trkpt lat="45.50616" lon="6.73686">
        <ele>2024.4</ele>
        <time>2021-08-12T11:40:03Z</time>
      </trkpt>
      <trkpt lat="45.50616" lon="6.73685">
        <ele>2024.2</ele>
        <time>2021-08-12T11:40:04Z</time>
      </trkpt>
      <trkpt lat="45.50617" lon="6.73684">
        <ele>2024.2</ele>
        <time>2021-08-12T11:40:05Z</time>
      </trkpt>
      <trkpt lat="45.50617" lon="6.73684">
        <ele>2024.2</ele>
        <time>2021-08-12T11:40:06Z</time>
      </trkpt>
      <trkpt lat="45.50617" lon="6.73684">
        <ele>2024.1</ele>
        <time>2021-08-12T11:40:07Z</time>
      </trkpt>
      <trkpt lat="45.50617" lon="6.73683">
        <ele>2024.1</ele>
        <time>2021-08-12T11:40:08Z</time>
      </trkpt>
      <trkpt lat="45.50617" lon="6.73683">
        <ele>2024.1</ele>
        <time>2021-08-12T11:40:09Z</time>
      </trkpt>
      <trkpt lat="45.50617" lon="6.73683">
        <ele>2024.1</ele>
        <time>2021-08-12T11:40:10Z</time>
      </trkpt>
      <trkpt lat="45.50617" lon="6.73683">
        <ele>2024.1</ele>
        <time>2021-08-12T11:40:11Z</time>
      </trkpt>
      <trkpt lat="45.50617" lon="6.73683">
        <ele>2024.1</ele>
        <time>2021-08-12T11:40:12Z</time>
      </trkpt>
      <trkpt lat="45.50617" lon="6.73683">
        <ele>2024.1</ele>
        <time>2021-08-12T11:40:13Z</time>
      </trkpt>
      <trkpt lat="45.50617" lon="6.73683">
        <ele>2024.1</ele>
        <time>2021-08-12T11:40:14Z</time>
      </trkpt>
      <trkpt lat="45.50617" lon="6.73683">
        <ele>2024.1</ele>
        <time>2021-08-12T11:40:15Z</time>
      </trkpt>
      <trkpt lat="45.50617" lon="6.73683">
        <ele>2024.1</ele>
        <time>2021-08-12T11:40:16Z</time>
      </trkpt>
      <trkpt lat="45.50617" lon="6.73683">
        <ele>2024.1</ele>
        <time>2021-08-12T11:40:17Z</time>
      </trkpt>
      <trkpt lat="45.50617" lon="6.73683">
        <ele>2024.1</ele>
        <time>2021-08-12T11:40:18Z</time>
      </trkpt>
      <trkpt lat="45.50617" lon="6.73683">
        <ele>2024.1</ele>
        <time>2021-08-12T11:40:19Z</time>
      </trkpt>
      <trkpt lat="45.50617" lon="6.73683">
        <ele>2024.1</ele>
        <time>2021-08-12T11:40:20Z</time>
      </trkpt>
      <trkpt lat="45.50617" lon="6.73683">
        <ele>2024.1</ele>
        <time>2021-08-12T11:40:21Z</time>
      </trkpt>
      <trkpt lat="45.50617" lon="6.73683">
        <ele>2024.1</ele>
        <time>2021-08-12T11:40:22Z</time>
      </trkpt>
      <trkpt lat="45.50617" lon="6.73683">
        <ele>2024.1</ele>
        <time>2021-08-12T11:40:23Z</time>
      </trkpt>
      <trkpt lat="45.50617" lon="6.73683">
        <ele>2024.1</ele>
        <time>2021-08-12T11:40:24Z</time>
      </trkpt>
      <trkpt lat="45.50617" lon="6.73683">
        <ele>2024.1</ele>
        <time>2021-08-12T11:40:25Z</time>
      </trkpt>
      <trkpt lat="45.50617" lon="6.73683">
        <ele>2024.1</ele>
        <time>2021-08-12T11:40:26Z</time>
      </trkpt>
      <trkpt lat="45.50617" lon="6.73683">
        <ele>2024.1</ele>
        <time>2021-08-12T11:40:27Z</time>
      </trkpt>
      <trkpt lat="45.50617" lon="6.73683">
        <ele>2024.1</ele>
        <time>2021-08-12T11:40:28Z</time>
      </trkpt>
      <trkpt lat="45.50617" lon="6.73683">
        <ele>2024.1</ele>
        <time>2021-08-12T11:40:29Z</time>
      </trkpt>
      <trkpt lat="45.50617" lon="6.73683">
        <ele>2024.1</ele>
        <time>2021-08-12T11:40:30Z</time>
      </trkpt>
      <trkpt lat="45.50617" lon="6.73683">
        <ele>2024.1</ele>
        <time>2021-08-12T11:40:31Z</time>
      </trkpt>
      <trkpt lat="45.50617" lon="6.73683">
        <ele>2024.1</ele>
        <time>2021-08-12T11:40:32Z</time>
      </trkpt>
      <trkpt lat="45.50617" lon="6.73683">
        <ele>2024.1</ele>
        <time>2021-08-12T11:40:33Z</time>
      </trkpt>
      <trkpt lat="45.50617" lon="6.73683">
        <ele>2024.1</ele>
        <time>2021-08-12T11:40:34Z</time>
      </trkpt>
      <trkpt lat="45.50617" lon="6.73683">
        <ele>2024.1</ele>
        <time>2021-08-12T11:40:35Z</time>
      </trkpt>
      <trkpt lat="45.50617" lon="6.73683">
        <ele>2024.1</ele>
        <time>2021-08-12T11:40:36Z</time>
      </trkpt>
      <trkpt lat="45.50617" lon="6.73683">
        <ele>2024.1</ele>
        <time>2021-08-12T11:40:37Z</time>
      </trkpt>
      <trkpt lat="45.50617" lon="6.73683">
        <ele>2024.1</ele>
        <time>2021-08-12T11:40:38Z</time>
      </trkpt>
      <trkpt lat="45.50617" lon="6.73683">
        <ele>2024.1</ele>
        <time>2021-08-12T11:40:39Z</time>
      </trkpt>
      <trkpt lat="45.50617" lon="6.73683">
        <ele>2024.1</ele>
        <time>2021-08-12T11:40:40Z</time>
      </trkpt>
      <trkpt lat="45.50617" lon="6.73683">
        <ele>2024.1</ele>
        <time>2021-08-12T11:40:41Z</time>
      </trkpt>
      <trkpt lat="45.50617" lon="6.73683">
        <ele>2024.1</ele>
        <time>2021-08-12T11:40:42Z</time>
      </trkpt>
      <trkpt lat="45.50617" lon="6.73683">
        <ele>2024.1</ele>
        <time>2021-08-12T11:40:43Z</time>
      </trkpt>
      <trkpt lat="45.50617" lon="6.73683">
        <ele>2024.1</ele>
        <time>2021-08-12T11:40:44Z</time>
      </trkpt>
      <trkpt lat="45.50617" lon="6.73683">
        <ele>2024.1</ele>
        <time>2021-08-12T11:40:45Z</time>
      </trkpt>
      <trkpt lat="45.50617" lon="6.73683">
        <ele>2024.1</ele>
        <time>2021-08-12T11:40:46Z</time>
      </trkpt>
      <trkpt lat="45.50617" lon="6.73683">
        <ele>2024.1</ele>
        <time>2021-08-12T11:40:47Z</time>
      </trkpt>
      <trkpt lat="45.50617" lon="6.73683">
        <ele>2024.1</ele>
        <time>2021-08-12T11:40:48Z</time>
      </trkpt>
      <trkpt lat="45.50617" lon="6.73683">
        <ele>2024.1</ele>
        <time>2021-08-12T11:40:49Z</time>
      </trkpt>
      <trkpt lat="45.50617" lon="6.73683">
        <ele>2024.1</ele>
        <time>2021-08-12T11:40:50Z</time>
      </trkpt>
      <trkpt lat="45.50617" lon="6.73683">
        <ele>2024.1</ele>
        <time>2021-08-12T11:40:51Z</time>
      </trkpt>
      <trkpt lat="45.50617" lon="6.73683">
        <ele>2024</ele>
        <time>2021-08-12T11:40:52Z</time>
      </trkpt>
      <trkpt lat="45.50617" lon="6.73682">
        <ele>2024</ele>
        <time>2021-08-12T11:40:53Z</time>
      </trkpt>
      <trkpt lat="45.50617" lon="6.73682">
        <ele>2024</ele>
        <time>2021-08-12T11:40:54Z</time>
      </trkpt>
      <trkpt lat="45.50617" lon="6.73682">
        <ele>2024</ele>
        <time>2021-08-12T11:40:55Z</time>
      </trkpt>
      <trkpt lat="45.50618" lon="6.73681">
        <ele>2023.9</ele>
        <time>2021-08-12T11:40:56Z</time>
      </trkpt>
      <trkpt lat="45.50618" lon="6.7368">
        <ele>2023.9</ele>
        <time>2021-08-12T11:40:57Z</time>
      </trkpt>
      <trkpt lat="45.50618" lon="6.7368">
        <ele>2023.8</ele>
        <time>2021-08-12T11:40:58Z</time>
      </trkpt>
      <trkpt lat="45.50618" lon="6.73679">
        <ele>2023.8</ele>
        <time>2021-08-12T11:40:59Z</time>
      </trkpt>
      <trkpt lat="45.50618" lon="6.73678">
        <ele>2023.7</ele>
        <time>2021-08-12T11:41:00Z</time>
      </trkpt>
      <trkpt lat="45.50618" lon="6.73677">
        <ele>2023.7</ele>
        <time>2021-08-12T11:41:01Z</time>
      </trkpt>
      <trkpt lat="45.50619" lon="6.73676">
        <ele>2023.6</ele>
        <time>2021-08-12T11:41:02Z</time>
      </trkpt>
      <trkpt lat="45.50619" lon="6.73675">
        <ele>2023.6</ele>
        <time>2021-08-12T11:41:03Z</time>
      </trkpt>
      <trkpt lat="45.50619" lon="6.73674">
        <ele>2023.5</ele>
        <time>2021-08-12T11:41:04Z</time>
      </trkpt>
      <trkpt lat="45.50619" lon="6.73673">
        <ele>2023.5</ele>
        <time>2021-08-12T11:41:05Z</time>
      </trkpt>
      <trkpt lat="45.50619" lon="6.73672">
        <ele>2023.4</ele>
        <time>2021-08-12T11:41:06Z</time>
      </trkpt>
      <trkpt lat="45.50619" lon="6.73671">
        <ele>2023.4</ele>
        <time>2021-08-12T11:41:07Z</time>
      </trkpt>
      <trkpt lat="45.50619" lon="6.7367">
        <ele>2023.3</ele>
        <time>2021-08-12T11:41:08Z</time>
      </trkpt>
      <trkpt lat="45.50619" lon="6.73669">
        <ele>2023.3</ele>
        <time>2021-08-12T11:41:09Z</time>
      </trkpt>
      <trkpt lat="45.50618" lon="6.73668">
        <ele>2023.3</ele>
        <time>2021-08-12T11:41:10Z</time>
      </trkpt>
      <trkpt lat="45.50618" lon="6.73667">
        <ele>2023.2</ele>
        <time>2021-08-12T11:41:11Z</time>
      </trkpt>
      <trkpt lat="45.50618" lon="6.73666">
        <ele>2023.2</ele>
        <time>2021-08-12T11:41:12Z</time>
      </trkpt>
      <trkpt lat="45.50618" lon="6.73665">
        <ele>2023.2</ele>
        <time>2021-08-12T11:41:13Z</time>
      </trkpt>
      <trkpt lat="45.50618" lon="6.73665">
        <ele>2023.1</ele>
        <time>2021-08-12T11:41:14Z</time>
      </trkpt>
      <trkpt lat="45.50618" lon="6.73664">
        <ele>2023.1</ele>
        <time>2021-08-12T11:41:15Z</time>
      </trkpt>
      <trkpt lat="45.50618" lon="6.73663">
        <ele>2023.1</ele>
        <time>2021-08-12T11:41:16Z</time>
      </trkpt>
      <trkpt lat="45.50618" lon="6.73663">
        <ele>2023.1</ele>
        <time>2021-08-12T11:41:17Z</time>
      </trkpt>
      <trkpt lat="45.50618" lon="6.73662">
        <ele>2023.1</ele>
        <time>2021-08-12T11:41:18Z</time>
      </trkpt>
      <trkpt lat="45.50619" lon="6.73662">
        <ele>2023</ele>
        <time>2021-08-12T11:41:19Z</time>
      </trkpt>
      <trkpt lat="45.50619" lon="6.73661">
        <ele>2023</ele>
        <time>2021-08-12T11:41:20Z</time>
      </trkpt>
      <trkpt lat="45.50619" lon="6.73661">
        <ele>2023</ele>
        <time>2021-08-12T11:41:21Z</time>
      </trkpt>
      <trkpt lat="45.50619" lon="6.73661">
        <ele>2023</ele>
        <time>2021-08-12T11:41:22Z</time>
      </trkpt>
      <trkpt lat="45.50619" lon="6.73661">
        <ele>2023</ele>
        <time>2021-08-12T11:41:23Z</time>
      </trkpt>
      <trkpt lat="45.50619" lon="6.73661">
        <ele>2023</ele>
        <time>2021-08-12T11:41:24Z</time>
      </trkpt>
      <trkpt lat="45.50619" lon="6.73661">
        <ele>2023</ele>
        <time>2021-08-12T11:41:25Z</time>
      </trkpt>
      <trkpt lat="45.50619" lon="6.73661">
        <ele>2023</ele>
        <time>2021-08-12T11:41:26Z</time>
      </trkpt>
      <trkpt lat="45.50619" lon="6.73661">
        <ele>2023</ele>
        <time>2021-08-12T11:41:27Z</time>
      </trkpt>
      <trkpt lat="45.50619" lon="6.73661">
        <ele>2023</ele>
        <time>2021-08-12T11:41:28Z</time>
      </trkpt>
      <trkpt lat="45.50619" lon="6.73661">
        <ele>2023</ele>
        <time>2021-08-12T11:41:29Z</time>
      </trkpt>
      <trkpt lat="45.50619" lon="6.73661">
        <ele>2023</ele>
        <time>2021-08-12T11:41:30Z</time>
      </trkpt>
      <trkpt lat="45.50619" lon="6.73661">
        <ele>2023</ele>
        <time>2021-08-12T11:41:31Z</time>
      </trkpt>
      <trkpt lat="45.50619" lon="6.73661">
        <ele>2023</ele>
        <time>2021-08-12T11:41:32Z</time>
      </trkpt>
      <trkpt lat="45.50619" lon="6.73661">
        <ele>2023</ele>
        <time>2021-08-12T11:41:33Z</time>
      </trkpt>
      <trkpt lat="45.50619" lon="6.73661">
        <ele>2023</ele>
        <time>2021-08-12T11:41:34Z</time>
      </trkpt>
      <trkpt lat="45.50619" lon="6.73661">
        <ele>2023</ele>
        <time>2021-08-12T11:41:35Z</time>
      </trkpt>
      <trkpt lat="45.50619" lon="6.73661">
        <ele>2023</ele>
        <time>2021-08-12T11:41:36Z</time>
      </trkpt>
      <trkpt lat="45.50619" lon="6.73661">
        <ele>2023</ele>
        <time>2021-08-12T11:41:37Z</time>
      </trkpt>
      <trkpt lat="45.50619" lon="6.73661">
        <ele>2023</ele>
        <time>2021-08-12T11:41:38Z</time>
      </trkpt>
      <trkpt lat="45.50619" lon="6.73661">
        <ele>2023</ele>
        <time>2021-08-12T11:41:39Z</time>
      </trkpt>
      <trkpt lat="45.50619" lon="6.73661">
        <ele>2023</ele>
        <time>2021-08-12T11:41:40Z</time>
      </trkpt>
      <trkpt lat="45.50619" lon="6.73661">
        <ele>2023</ele>
        <time>2021-08-12T11:41:41Z</time>
      </trkpt>
      <trkpt lat="45.50619" lon="6.73661">
        <ele>2023</ele>
        <time>2021-08-12T11:41:42Z</time>
      </trkpt>
      <trkpt lat="45.50619" lon="6.73661">
        <ele>2023</ele>
        <time>2021-08-12T11:41:43Z</time>
      </trkpt>
      <trkpt lat="45.50619" lon="6.73661">
        <ele>2023</ele>
        <time>2021-08-12T11:41:44Z</time>
      </trkpt>
      <trkpt lat="45.50619" lon="6.73661">
        <ele>2023</ele>
        <time>2021-08-12T11:41:45Z</time>
      </trkpt>
      <trkpt lat="45.50619" lon="6.73661">
        <ele>2023</ele>
        <time>2021-08-12T11:41:46Z</time>
      </trkpt>
      <trkpt lat="45.50619" lon="6.73661">
        <ele>2023</ele>
        <time>2021-08-12T11:41:47Z</time>
      </trkpt>
      <trkpt lat="45.50619" lon="6.73661">
        <ele>2023</ele>
        <time>2021-08-12T11:41:48Z</time>
      </trkpt>
      <trkpt lat="45.50619" lon="6.73661">
        <ele>2023</ele>
        <time>2021-08-12T11:41:49Z</time>
      </trkpt>
      <trkpt lat="45.50619" lon="6.73661">
        <ele>2023</ele>
        <time>2021-08-12T11:41:50Z</time>
      </trkpt>
      <trkpt lat="45.50619" lon="6.73661">
        <ele>2023</ele>
        <time>2021-08-12T11:41:51Z</time>
      </trkpt>
      <trkpt lat="45.50619" lon="6.73661">
        <ele>2023</ele>
        <time>2021-08-12T11:41:52Z</time>
      </trkpt>
      <trkpt lat="45.50619" lon="6.73661">
        <ele>2023</ele>
        <time>2021-08-12T11:41:53Z</time>
      </trkpt>
      <trkpt lat="45.50619" lon="6.73661">
        <ele>2023</ele>
        <time>2021-08-12T11:41:54Z</time>
      </trkpt>
      <trkpt lat="45.50619" lon="6.73661">
        <ele>2023</ele>
        <time>2021-08-12T11:41:55Z</time>
      </trkpt>
      <trkpt lat="45.50619" lon="6.73661">
        <ele>2023</ele>
        <time>2021-08-12T11:41:56Z</time>
      </trkpt>
      <trkpt lat="45.50619" lon="6.73661">
        <ele>2023</ele>
        <time>2021-08-12T11:41:57Z</time>
      </trkpt>
      <trkpt lat="45.50619" lon="6.73661">
        <ele>2023</ele>
        <time>2021-08-12T11:41:58Z</time>
      </trkpt>
      <trkpt lat="45.50619" lon="6.73661">
        <ele>2023</ele>
        <time>2021-08-12T11:41:59Z</time>
      </trkpt>
      <trkpt lat="45.50619" lon="6.73661">
        <ele>2023</ele>
        <time>2021-08-12T11:42:00Z</time>
      </trkpt>
      <trkpt lat="45.50619" lon="6.73661">
        <ele>2023</ele>
        <time>2021-08-12T11:42:01Z</time>
      </trkpt>
      <trkpt lat="45.50619" lon="6.73661">
        <ele>2023</ele>
        <time>2021-08-12T11:42:02Z</time>
      </trkpt>
      <trkpt lat="45.50619" lon="6.73661">
        <ele>2023</ele>
        <time>2021-08-12T11:42:03Z</time>
      </trkpt>
      <trkpt lat="45.50619" lon="6.73661">
        <ele>2023</ele>
        <time>2021-08-12T11:42:04Z</time>
      </trkpt>
      <trkpt lat="45.50619" lon="6.73661">
        <ele>2023</ele>
        <time>2021-08-12T11:42:05Z</time>
      </trkpt>
      <trkpt lat="45.50619" lon="6.73661">
        <ele>2023</ele>
        <time>2021-08-12T11:42:06Z</time>
      </trkpt>
      <trkpt lat="45.50619" lon="6.73661">
        <ele>2023</ele>
        <time>2021-08-12T11:42:07Z</time>
      </trkpt>
      <trkpt lat="45.50619" lon="6.73661">
        <ele>2023</ele>
        <time>2021-08-12T11:42:08Z</time>
      </trkpt>
      <trkpt lat="45.50619" lon="6.73661">
        <ele>2022.9</ele>
        <time>2021-08-12T11:42:09Z</time>
      </trkpt>
      <trkpt lat="45.50619" lon="6.73661">
        <ele>2022.9</ele>
        <time>2021-08-12T11:42:10Z</time>
      </trkpt>
      <trkpt lat="45.50619" lon="6.73661">
        <ele>2022.9</ele>
        <time>2021-08-12T11:42:11Z</time>
      </trkpt>
      <trkpt lat="45.50619" lon="6.73661">
        <ele>2022.9</ele>
        <time>2021-08-12T11:42:12Z</time>
      </trkpt>
      <trkpt lat="45.50619" lon="6.73661">
        <ele>2022.9</ele>
        <time>2021-08-12T11:42:13Z</time>
      </trkpt>
      <trkpt lat="45.50619" lon="6.73661">
        <ele>2022.9</ele>
        <time>2021-08-12T11:42:14Z</time>
      </trkpt>
      <trkpt lat="45.50619" lon="6.73661">
        <ele>2022.9</ele>
        <time>2021-08-12T11:42:15Z</time>
      </trkpt>
      <trkpt lat="45.50619" lon="6.73661">
        <ele>2022.9</ele>
        <time>2021-08-12T11:42:16Z</time>
      </trkpt>
      <trkpt lat="45.50619" lon="6.73661">
        <ele>2022.9</ele>
        <time>2021-08-12T11:42:17Z</time>
      </trkpt>
      <trkpt lat="45.50619" lon="6.73661">
        <ele>2022.9</ele>
        <time>2021-08-12T11:42:18Z</time>
      </trkpt>
      <trkpt lat="45.50619" lon="6.73661">
        <ele>2022.9</ele>
        <time>2021-08-12T11:42:19Z</time>
      </trkpt>
      <trkpt lat="45.50619" lon="6.73661">
        <ele>2022.9</ele>
        <time>2021-08-12T11:42:20Z</time>
      </trkpt>
      <trkpt lat="45.50619" lon="6.73661">
        <ele>2022.9</ele>
        <time>2021-08-12T11:42:21Z</time>
      </trkpt>
      <trkpt lat="45.50619" lon="6.73661">
        <ele>2022.9</ele>
        <time>2021-08-12T11:42:22Z</time>
      </trkpt>
      <trkpt lat="45.50619" lon="6.73661">
        <ele>2022.9</ele>
        <time>2021-08-12T11:42:23Z</time>
      </trkpt>
      <trkpt lat="45.50619" lon="6.73661">
        <ele>2022.9</ele>
        <time>2021-08-12T11:42:24Z</time>
      </trkpt>
      <trkpt lat="45.50619" lon="6.73661">
        <ele>2022.9</ele>
        <time>2021-08-12T11:42:25Z</time>
      </trkpt>
      <trkpt lat="45.50619" lon="6.73661">
        <ele>2022.9</ele>
        <time>2021-08-12T11:42:26Z</time>
      </trkpt>
      <trkpt lat="45.50619" lon="6.73661">
        <ele>2022.9</ele>
        <time>2021-08-12T11:42:27Z</time>
      </trkpt>
      <trkpt lat="45.50619" lon="6.73661">
        <ele>2022.9</ele>
        <time>2021-08-12T11:42:28Z</time>
      </trkpt>
      <trkpt lat="45.50619" lon="6.73661">
        <ele>2022.9</ele>
        <time>2021-08-12T11:42:29Z</time>
      </trkpt>
      <trkpt lat="45.50619" lon="6.73661">
        <ele>2022.9</ele>
        <time>2021-08-12T11:42:30Z</time>
      </trkpt>
      <trkpt lat="45.50619" lon="6.7366">
        <ele>2022.9</ele>
        <time>2021-08-12T11:42:31Z</time>
      </trkpt>
      <trkpt lat="45.50619" lon="6.7366">
        <ele>2022.9</ele>
        <time>2021-08-12T11:42:32Z</time>
      </trkpt>
      <trkpt lat="45.50619" lon="6.7366">
        <ele>2022.9</ele>
        <time>2021-08-12T11:42:33Z</time>
      </trkpt>
      <trkpt lat="45.50619" lon="6.73659">
        <ele>2022.8</ele>
        <time>2021-08-12T11:42:34Z</time>
      </trkpt>
      <trkpt lat="45.50619" lon="6.73659">
        <ele>2022.8</ele>
        <time>2021-08-12T11:42:35Z</time>
      </trkpt>
      <trkpt lat="45.50619" lon="6.73658">
        <ele>2022.7</ele>
        <time>2021-08-12T11:42:36Z</time>
      </trkpt>
      <trkpt lat="45.50619" lon="6.73658">
        <ele>2022.7</ele>
        <time>2021-08-12T11:42:37Z</time>
      </trkpt>
      <trkpt lat="45.5062" lon="6.73657">
        <ele>2022.7</ele>
        <time>2021-08-12T11:42:38Z</time>
      </trkpt>
      <trkpt lat="45.5062" lon="6.73657">
        <ele>2022.7</ele>
        <time>2021-08-12T11:42:39Z</time>
      </trkpt>
      <trkpt lat="45.5062" lon="6.73657">
        <ele>2022.7</ele>
        <time>2021-08-12T11:42:40Z</time>
      </trkpt>
      <trkpt lat="45.5062" lon="6.73657">
        <ele>2022.7</ele>
        <time>2021-08-12T11:42:41Z</time>
      </trkpt>
      <trkpt lat="45.5062" lon="6.73657">
        <ele>2022.7</ele>
        <time>2021-08-12T11:42:42Z</time>
      </trkpt>
      <trkpt lat="45.5062" lon="6.73657">
        <ele>2022.7</ele>
        <time>2021-08-12T11:42:43Z</time>
      </trkpt>
      <trkpt lat="45.5062" lon="6.73657">
        <ele>2022.7</ele>
        <time>2021-08-12T11:42:44Z</time>
      </trkpt>
      <trkpt lat="45.5062" lon="6.73657">
        <ele>2022.7</ele>
        <time>2021-08-12T11:42:45Z</time>
      </trkpt>
      <trkpt lat="45.5062" lon="6.73657">
        <ele>2022.7</ele>
        <time>2021-08-12T11:42:46Z</time>
      </trkpt>
      <trkpt lat="45.5062" lon="6.73657">
        <ele>2022.7</ele>
        <time>2021-08-12T11:42:47Z</time>
      </trkpt>
      <trkpt lat="45.5062" lon="6.73657">
        <ele>2022.7</ele>
        <time>2021-08-12T11:42:48Z</time>
      </trkpt>
      <trkpt lat="45.5062" lon="6.73657">
        <ele>2022.7</ele>
        <time>2021-08-12T11:42:49Z</time>
      </trkpt>
      <trkpt lat="45.5062" lon="6.73657">
        <ele>2022.7</ele>
        <time>2021-08-12T11:42:50Z</time>
      </trkpt>
      <trkpt lat="45.5062" lon="6.73657">
        <ele>2022.7</ele>
        <time>2021-08-12T11:42:51Z</time>
      </trkpt>
      <trkpt lat="45.5062" lon="6.73657">
        <ele>2022.7</ele>
        <time>2021-08-12T11:42:52Z</time>
      </trkpt>
      <trkpt lat="45.5062" lon="6.73657">
        <ele>2022.7</ele>
        <time>2021-08-12T11:42:53Z</time>
      </trkpt>
      <trkpt lat="45.5062" lon="6.73657">
        <ele>2022.7</ele>
        <time>2021-08-12T11:42:54Z</time>
      </trkpt>
      <trkpt lat="45.5062" lon="6.73657">
        <ele>2022.7</ele>
        <time>2021-08-12T11:42:55Z</time>
      </trkpt>
      <trkpt lat="45.5062" lon="6.73657">
        <ele>2022.7</ele>
        <time>2021-08-12T11:42:56Z</time>
      </trkpt>
      <trkpt lat="45.5062" lon="6.73657">
        <ele>2022.7</ele>
        <time>2021-08-12T11:42:57Z</time>
      </trkpt>
      <trkpt lat="45.5062" lon="6.73657">
        <ele>2022.7</ele>
        <time>2021-08-12T11:42:58Z</time>
      </trkpt>
      <trkpt lat="45.5062" lon="6.73657">
        <ele>2022.7</ele>
        <time>2021-08-12T11:42:59Z</time>
      </trkpt>
      <trkpt lat="45.5062" lon="6.73657">
        <ele>2022.7</ele>
        <time>2021-08-12T11:43:00Z</time>
      </trkpt>
      <trkpt lat="45.5062" lon="6.73657">
        <ele>2022.7</ele>
        <time>2021-08-12T11:43:01Z</time>
      </trkpt>
      <trkpt lat="45.5062" lon="6.73657">
        <ele>2022.7</ele>
        <time>2021-08-12T11:43:02Z</time>
      </trkpt>
      <trkpt lat="45.5062" lon="6.73657">
        <ele>2022.7</ele>
        <time>2021-08-12T11:43:03Z</time>
      </trkpt>
      <trkpt lat="45.5062" lon="6.73657">
        <ele>2022.7</ele>
        <time>2021-08-12T11:43:04Z</time>
      </trkpt>
      <trkpt lat="45.5062" lon="6.73657">
        <ele>2022.7</ele>
        <time>2021-08-12T11:43:05Z</time>
      </trkpt>
      <trkpt lat="45.5062" lon="6.73657">
        <ele>2022.7</ele>
        <time>2021-08-12T11:43:06Z</time>
      </trkpt>
      <trkpt lat="45.5062" lon="6.73657">
        <ele>2022.7</ele>
        <time>2021-08-12T11:43:07Z</time>
      </trkpt>
      <trkpt lat="45.5062" lon="6.73657">
        <ele>2022.7</ele>
        <time>2021-08-12T11:43:08Z</time>
      </trkpt>
      <trkpt lat="45.5062" lon="6.73657">
        <ele>2022.7</ele>
        <time>2021-08-12T11:43:09Z</time>
      </trkpt>
      <trkpt lat="45.5062" lon="6.73657">
        <ele>2022.7</ele>
        <time>2021-08-12T11:43:10Z</time>
      </trkpt>
      <trkpt lat="45.5062" lon="6.73657">
        <ele>2022.7</ele>
        <time>2021-08-12T11:43:11Z</time>
      </trkpt>
      <trkpt lat="45.5062" lon="6.73657">
        <ele>2022.7</ele>
        <time>2021-08-12T11:43:12Z</time>
      </trkpt>
      <trkpt lat="45.5062" lon="6.73657">
        <ele>2022.7</ele>
        <time>2021-08-12T11:43:13Z</time>
      </trkpt>
      <trkpt lat="45.5062" lon="6.73657">
        <ele>2022.7</ele>
        <time>2021-08-12T11:43:14Z</time>
      </trkpt>
      <trkpt lat="45.5062" lon="6.73657">
        <ele>2022.7</ele>
        <time>2021-08-12T11:43:15Z</time>
      </trkpt>
      <trkpt lat="45.5062" lon="6.73657">
        <ele>2022.7</ele>
        <time>2021-08-12T11:43:16Z</time>
      </trkpt>
      <trkpt lat="45.5062" lon="6.73657">
        <ele>2022.7</ele>
        <time>2021-08-12T11:43:17Z</time>
      </trkpt>
      <trkpt lat="45.5062" lon="6.73657">
        <ele>2022.7</ele>
        <time>2021-08-12T11:43:18Z</time>
      </trkpt>
      <trkpt lat="45.5062" lon="6.73657">
        <ele>2022.7</ele>
        <time>2021-08-12T11:43:19Z</time>
      </trkpt>
      <trkpt lat="45.5062" lon="6.73657">
        <ele>2022.7</ele>
        <time>2021-08-12T11:43:20Z</time>
      </trkpt>
      <trkpt lat="45.5062" lon="6.73657">
        <ele>2022.7</ele>
        <time>2021-08-12T11:43:21Z</time>
      </trkpt>
      <trkpt lat="45.5062" lon="6.73657">
        <ele>2022.7</ele>
        <time>2021-08-12T11:43:22Z</time>
      </trkpt>
      <trkpt lat="45.5062" lon="6.73657">
        <ele>2022.7</ele>
        <time>2021-08-12T11:43:23Z</time>
      </trkpt>
      <trkpt lat="45.5062" lon="6.73657">
        <ele>2022.7</ele>
        <time>2021-08-12T11:43:24Z</time>
      </trkpt>
      <trkpt lat="45.5062" lon="6.73657">
        <ele>2022.7</ele>
        <time>2021-08-12T11:43:25Z</time>
      </trkpt>
      <trkpt lat="45.5062" lon="6.73657">
        <ele>2022.7</ele>
        <time>2021-08-12T11:43:26Z</time>
      </trkpt>
      <trkpt lat="45.5062" lon="6.73657">
        <ele>2022.7</ele>
        <time>2021-08-12T11:43:27Z</time>
      </trkpt>
      <trkpt lat="45.5062" lon="6.73657">
        <ele>2022.7</ele>
        <time>2021-08-12T11:43:28Z</time>
      </trkpt>
      <trkpt lat="45.5062" lon="6.73657">
        <ele>2022.7</ele>
        <time>2021-08-12T11:43:29Z</time>
      </trkpt>
      <trkpt lat="45.5062" lon="6.73657">
        <ele>2022.7</ele>
        <time>2021-08-12T11:43:30Z</time>
      </trkpt>
      <trkpt lat="45.5062" lon="6.73657">
        <ele>2022.7</ele>
        <time>2021-08-12T11:43:31Z</time>
      </trkpt>
      <trkpt lat="45.5062" lon="6.73657">
        <ele>2022.7</ele>
        <time>2021-08-12T11:43:32Z</time>
      </trkpt>
      <trkpt lat="45.5062" lon="6.73657">
        <ele>2022.7</ele>
        <time>2021-08-12T11:43:33Z</time>
      </trkpt>
      <trkpt lat="45.5062" lon="6.73657">
        <ele>2022.7</ele>
        <time>2021-08-12T11:43:34Z</time>
      </trkpt>
      <trkpt lat="45.5062" lon="6.73657">
        <ele>2022.6</ele>
        <time>2021-08-12T11:43:35Z</time>
      </trkpt>
      <trkpt lat="45.5062" lon="6.73656">
        <ele>2022.6</ele>
        <time>2021-08-12T11:43:36Z</time>
      </trkpt>
      <trkpt lat="45.50621" lon="6.73656">
        <ele>2022.6</ele>
        <time>2021-08-12T11:43:37Z</time>
      </trkpt>
      <trkpt lat="45.50621" lon="6.73655">
        <ele>2022.6</ele>
        <time>2021-08-12T11:43:38Z</time>
      </trkpt>
      <trkpt lat="45.50621" lon="6.73655">
        <ele>2022.5</ele>
        <time>2021-08-12T11:43:39Z</time>
      </trkpt>
      <trkpt lat="45.50622" lon="6.73654">
        <ele>2022.5</ele>
        <time>2021-08-12T11:43:40Z</time>
      </trkpt>
      <trkpt lat="45.50622" lon="6.73654">
        <ele>2022.5</ele>
        <time>2021-08-12T11:43:41Z</time>
      </trkpt>
      <trkpt lat="45.50622" lon="6.73653">
        <ele>2022.4</ele>
        <time>2021-08-12T11:43:42Z</time>
      </trkpt>
      <trkpt lat="45.50622" lon="6.73653">
        <ele>2022.4</ele>
        <time>2021-08-12T11:43:43Z</time>
      </trkpt>
      <trkpt lat="45.50622" lon="6.73653">
        <ele>2022.4</ele>
        <time>2021-08-12T11:43:44Z</time>
      </trkpt>
      <trkpt lat="45.50622" lon="6.73653">
        <ele>2022.4</ele>
        <time>2021-08-12T11:43:45Z</time>
      </trkpt>
      <trkpt lat="45.50622" lon="6.73653">
        <ele>2022.4</ele>
        <time>2021-08-12T11:43:46Z</time>
      </trkpt>
      <trkpt lat="45.50622" lon="6.73653">
        <ele>2022.4</ele>
        <time>2021-08-12T11:43:47Z</time>
      </trkpt>
      <trkpt lat="45.50622" lon="6.73653">
        <ele>2022.4</ele>
        <time>2021-08-12T11:43:48Z</time>
      </trkpt>
      <trkpt lat="45.50622" lon="6.73653">
        <ele>2022.4</ele>
        <time>2021-08-12T11:43:49Z</time>
      </trkpt>
      <trkpt lat="45.50622" lon="6.73653">
        <ele>2022.4</ele>
        <time>2021-08-12T11:43:50Z</time>
      </trkpt>
      <trkpt lat="45.50623" lon="6.73652">
        <ele>2022.4</ele>
        <time>2021-08-12T11:43:51Z</time>
      </trkpt>
      <trkpt lat="45.50623" lon="6.73652">
        <ele>2022.4</ele>
        <time>2021-08-12T11:43:52Z</time>
      </trkpt>
      <trkpt lat="45.50623" lon="6.73651">
        <ele>2022.3</ele>
        <time>2021-08-12T11:43:53Z</time>
      </trkpt>
      <trkpt lat="45.50624" lon="6.7365">
        <ele>2022.3</ele>
        <time>2021-08-12T11:43:54Z</time>
      </trkpt>
      <trkpt lat="45.50624" lon="6.73649">
        <ele>2022.2</ele>
        <time>2021-08-12T11:43:55Z</time>
      </trkpt>
      <trkpt lat="45.50624" lon="6.73648">
        <ele>2022.2</ele>
        <time>2021-08-12T11:43:56Z</time>
      </trkpt>
      <trkpt lat="45.50625" lon="6.73647">
        <ele>2022.1</ele>
        <time>2021-08-12T11:43:57Z</time>
      </trkpt>
      <trkpt lat="45.50625" lon="6.73646">
        <ele>2022.1</ele>
        <time>2021-08-12T11:43:58Z</time>
      </trkpt>
      <trkpt lat="45.50626" lon="6.73645">
        <ele>2022</ele>
        <time>2021-08-12T11:43:59Z</time>
      </trkpt>
      <trkpt lat="45.50626" lon="6.73644">
        <ele>2022</ele>
        <time>2021-08-12T11:44:00Z</time>
      </trkpt>
      <trkpt lat="45.50626" lon="6.73643">
        <ele>2021.9</ele>
        <time>2021-08-12T11:44:01Z</time>
      </trkpt>
      <trkpt lat="45.50627" lon="6.73642">
        <ele>2021.9</ele>
        <time>2021-08-12T11:44:02Z</time>
      </trkpt>
      <trkpt lat="45.50627" lon="6.73642">
        <ele>2021.9</ele>
        <time>2021-08-12T11:44:03Z</time>
      </trkpt>
      <trkpt lat="45.50627" lon="6.73641">
        <ele>2021.8</ele>
        <time>2021-08-12T11:44:04Z</time>
      </trkpt>
      <trkpt lat="45.50627" lon="6.7364">
        <ele>2021.8</ele>
        <time>2021-08-12T11:44:05Z</time>
      </trkpt>
      <trkpt lat="45.50627" lon="6.7364">
        <ele>2021.8</ele>
        <time>2021-08-12T11:44:06Z</time>
      </trkpt>
      <trkpt lat="45.50627" lon="6.73639">
        <ele>2021.8</ele>
        <time>2021-08-12T11:44:07Z</time>
      </trkpt>
      <trkpt lat="45.50628" lon="6.73639">
        <ele>2021.8</ele>
        <time>2021-08-12T11:44:08Z</time>
      </trkpt>
      <trkpt lat="45.50628" lon="6.73638">
        <ele>2021.7</ele>
        <time>2021-08-12T11:44:09Z</time>
      </trkpt>
      <trkpt lat="45.50628" lon="6.73638">
        <ele>2021.7</ele>
        <time>2021-08-12T11:44:10Z</time>
      </trkpt>
      <trkpt lat="45.50629" lon="6.73637">
        <ele>2021.7</ele>
        <time>2021-08-12T11:44:11Z</time>
      </trkpt>
      <trkpt lat="45.50629" lon="6.73636">
        <ele>2021.7</ele>
        <time>2021-08-12T11:44:12Z</time>
      </trkpt>
      <trkpt lat="45.5063" lon="6.73635">
        <ele>2021.6</ele>
        <time>2021-08-12T11:44:13Z</time>
      </trkpt>
      <trkpt lat="45.50631" lon="6.73634">
        <ele>2021.6</ele>
        <time>2021-08-12T11:44:14Z</time>
      </trkpt>
      <trkpt lat="45.50631" lon="6.73633">
        <ele>2021.6</ele>
        <time>2021-08-12T11:44:15Z</time>
      </trkpt>
      <trkpt lat="45.50632" lon="6.73632">
        <ele>2021.5</ele>
        <time>2021-08-12T11:44:16Z</time>
      </trkpt>
      <trkpt lat="45.50633" lon="6.73631">
        <ele>2021.5</ele>
        <time>2021-08-12T11:44:17Z</time>
      </trkpt>
      <trkpt lat="45.50634" lon="6.7363">
        <ele>2021.5</ele>
        <time>2021-08-12T11:44:18Z</time>
      </trkpt>
      <trkpt lat="45.50635" lon="6.73629">
        <ele>2021.5</ele>
        <time>2021-08-12T11:44:19Z</time>
      </trkpt>
      <trkpt lat="45.50636" lon="6.73628">
        <ele>2021.5</ele>
        <time>2021-08-12T11:44:20Z</time>
      </trkpt>
      <trkpt lat="45.50636" lon="6.73627">
        <ele>2021.5</ele>
        <time>2021-08-12T11:44:21Z</time>
      </trkpt>
      <trkpt lat="45.50637" lon="6.73626">
        <ele>2021.5</ele>
        <time>2021-08-12T11:44:22Z</time>
      </trkpt>
      <trkpt lat="45.50638" lon="6.73625">
        <ele>2021.4</ele>
        <time>2021-08-12T11:44:23Z</time>
      </trkpt>
      <trkpt lat="45.50638" lon="6.73624">
        <ele>2021.4</ele>
        <time>2021-08-12T11:44:24Z</time>
      </trkpt>
      <trkpt lat="45.50639" lon="6.73623">
        <ele>2021.4</ele>
        <time>2021-08-12T11:44:25Z</time>
      </trkpt>
      <trkpt lat="45.50639" lon="6.73622">
        <ele>2021.4</ele>
        <time>2021-08-12T11:44:26Z</time>
      </trkpt>
      <trkpt lat="45.5064" lon="6.73621">
        <ele>2021.4</ele>
        <time>2021-08-12T11:44:27Z</time>
      </trkpt>
      <trkpt lat="45.5064" lon="6.7362">
        <ele>2021.4</ele>
        <time>2021-08-12T11:44:28Z</time>
      </trkpt>
      <trkpt lat="45.5064" lon="6.73619">
        <ele>2021.4</ele>
        <time>2021-08-12T11:44:29Z</time>
      </trkpt>
      <trkpt lat="45.50641" lon="6.73618">
        <ele>2021.4</ele>
        <time>2021-08-12T11:44:30Z</time>
      </trkpt>
      <trkpt lat="45.50641" lon="6.73616">
        <ele>2021.4</ele>
        <time>2021-08-12T11:44:31Z</time>
      </trkpt>
      <trkpt lat="45.50641" lon="6.73615">
        <ele>2021.4</ele>
        <time>2021-08-12T11:44:32Z</time>
      </trkpt>
      <trkpt lat="45.50641" lon="6.73614">
        <ele>2021.3</ele>
        <time>2021-08-12T11:44:33Z</time>
      </trkpt>
      <trkpt lat="45.50641" lon="6.73612">
        <ele>2021.3</ele>
        <time>2021-08-12T11:44:34Z</time>
      </trkpt>
      <trkpt lat="45.50641" lon="6.73611">
        <ele>2021.3</ele>
        <time>2021-08-12T11:44:35Z</time>
      </trkpt>
      <trkpt lat="45.50641" lon="6.7361">
        <ele>2021.3</ele>
        <time>2021-08-12T11:44:36Z</time>
      </trkpt>
      <trkpt lat="45.50641" lon="6.73608">
        <ele>2021.3</ele>
        <time>2021-08-12T11:44:37Z</time>
      </trkpt>
      <trkpt lat="45.50641" lon="6.73607">
        <ele>2021.2</ele>
        <time>2021-08-12T11:44:38Z</time>
      </trkpt>
      <trkpt lat="45.50641" lon="6.73606">
        <ele>2021.2</ele>
        <time>2021-08-12T11:44:39Z</time>
      </trkpt>
      <trkpt lat="45.50641" lon="6.73604">
        <ele>2021.2</ele>
        <time>2021-08-12T11:44:40Z</time>
      </trkpt>
      <trkpt lat="45.50641" lon="6.73603">
        <ele>2021.2</ele>
        <time>2021-08-12T11:44:41Z</time>
      </trkpt>
      <trkpt lat="45.50641" lon="6.73602">
        <ele>2021.1</ele>
        <time>2021-08-12T11:44:42Z</time>
      </trkpt>
      <trkpt lat="45.50641" lon="6.73601">
        <ele>2021.1</ele>
        <time>2021-08-12T11:44:43Z</time>
      </trkpt>
      <trkpt lat="45.50642" lon="6.736">
        <ele>2021.1</ele>
        <time>2021-08-12T11:44:44Z</time>
      </trkpt>
      <trkpt lat="45.50642" lon="6.73598">
        <ele>2021</ele>
        <time>2021-08-12T11:44:45Z</time>
      </trkpt>
      <trkpt lat="45.50642" lon="6.73597">
        <ele>2021</ele>
        <time>2021-08-12T11:44:46Z</time>
      </trkpt>
      <trkpt lat="45.50642" lon="6.73596">
        <ele>2021</ele>
        <time>2021-08-12T11:44:47Z</time>
      </trkpt>
      <trkpt lat="45.50642" lon="6.73595">
        <ele>2020.9</ele>
        <time>2021-08-12T11:44:48Z</time>
      </trkpt>
      <trkpt lat="45.50642" lon="6.73593">
        <ele>2020.9</ele>
        <time>2021-08-12T11:44:49Z</time>
      </trkpt>
      <trkpt lat="45.50642" lon="6.73592">
        <ele>2020.9</ele>
        <time>2021-08-12T11:44:50Z</time>
      </trkpt>
      <trkpt lat="45.50642" lon="6.73591">
        <ele>2020.8</ele>
        <time>2021-08-12T11:44:51Z</time>
      </trkpt>
      <trkpt lat="45.50642" lon="6.73589">
        <ele>2020.8</ele>
        <time>2021-08-12T11:44:52Z</time>
      </trkpt>
      <trkpt lat="45.50642" lon="6.73588">
        <ele>2020.8</ele>
        <time>2021-08-12T11:44:53Z</time>
      </trkpt>
      <trkpt lat="45.50642" lon="6.73586">
        <ele>2020.8</ele>
        <time>2021-08-12T11:44:54Z</time>
      </trkpt>
      <trkpt lat="45.50642" lon="6.73584">
        <ele>2020.7</ele>
        <time>2021-08-12T11:44:55Z</time>
      </trkpt>
      <trkpt lat="45.50642" lon="6.73583">
        <ele>2020.7</ele>
        <time>2021-08-12T11:44:56Z</time>
      </trkpt>
      <trkpt lat="45.50642" lon="6.73581">
        <ele>2020.7</ele>
        <time>2021-08-12T11:44:57Z</time>
      </trkpt>
      <trkpt lat="45.50642" lon="6.7358">
        <ele>2020.7</ele>
        <time>2021-08-12T11:44:58Z</time>
      </trkpt>
      <trkpt lat="45.50642" lon="6.73578">
        <ele>2020.6</ele>
        <time>2021-08-12T11:44:59Z</time>
      </trkpt>
      <trkpt lat="45.50642" lon="6.73577">
        <ele>2020.6</ele>
        <time>2021-08-12T11:45:00Z</time>
      </trkpt>
      <trkpt lat="45.50642" lon="6.73575">
        <ele>2020.6</ele>
        <time>2021-08-12T11:45:01Z</time>
      </trkpt>
      <trkpt lat="45.50643" lon="6.73574">
        <ele>2020.6</ele>
        <time>2021-08-12T11:45:02Z</time>
      </trkpt>
      <trkpt lat="45.50643" lon="6.73573">
        <ele>2020.6</ele>
        <time>2021-08-12T11:45:03Z</time>
      </trkpt>
      <trkpt lat="45.50643" lon="6.73571">
        <ele>2020.6</ele>
        <time>2021-08-12T11:45:04Z</time>
      </trkpt>
      <trkpt lat="45.50643" lon="6.7357">
        <ele>2020.6</ele>
        <time>2021-08-12T11:45:05Z</time>
      </trkpt>
      <trkpt lat="45.50644" lon="6.73569">
        <ele>2020.6</ele>
        <time>2021-08-12T11:45:06Z</time>
      </trkpt>
      <trkpt lat="45.50644" lon="6.73568">
        <ele>2020.6</ele>
        <time>2021-08-12T11:45:07Z</time>
      </trkpt>
      <trkpt lat="45.50644" lon="6.73566">
        <ele>2020.6</ele>
        <time>2021-08-12T11:45:08Z</time>
      </trkpt>
      <trkpt lat="45.50645" lon="6.73565">
        <ele>2020.6</ele>
        <time>2021-08-12T11:45:09Z</time>
      </trkpt>
      <trkpt lat="45.50645" lon="6.73564">
        <ele>2020.7</ele>
        <time>2021-08-12T11:45:10Z</time>
      </trkpt>
      <trkpt lat="45.50645" lon="6.73563">
        <ele>2020.7</ele>
        <time>2021-08-12T11:45:11Z</time>
      </trkpt>
      <trkpt lat="45.50646" lon="6.73562">
        <ele>2020.7</ele>
        <time>2021-08-12T11:45:12Z</time>
      </trkpt>
      <trkpt lat="45.50646" lon="6.73561">
        <ele>2020.7</ele>
        <time>2021-08-12T11:45:13Z</time>
      </trkpt>
      <trkpt lat="45.50647" lon="6.7356">
        <ele>2020.7</ele>
        <time>2021-08-12T11:45:14Z</time>
      </trkpt>
      <trkpt lat="45.50647" lon="6.73559">
        <ele>2020.7</ele>
        <time>2021-08-12T11:45:15Z</time>
      </trkpt>
      <trkpt lat="45.50647" lon="6.73557">
        <ele>2020.8</ele>
        <time>2021-08-12T11:45:16Z</time>
      </trkpt>
      <trkpt lat="45.50648" lon="6.73556">
        <ele>2020.8</ele>
        <time>2021-08-12T11:45:17Z</time>
      </trkpt>
      <trkpt lat="45.50648" lon="6.73555">
        <ele>2020.8</ele>
        <time>2021-08-12T11:45:18Z</time>
      </trkpt>
      <trkpt lat="45.50649" lon="6.73554">
        <ele>2020.8</ele>
        <time>2021-08-12T11:45:19Z</time>
      </trkpt>
      <trkpt lat="45.50649" lon="6.73553">
        <ele>2020.8</ele>
        <time>2021-08-12T11:45:20Z</time>
      </trkpt>
      <trkpt lat="45.5065" lon="6.73552">
        <ele>2020.8</ele>
        <time>2021-08-12T11:45:21Z</time>
      </trkpt>
      <trkpt lat="45.5065" lon="6.73552">
        <ele>2020.8</ele>
        <time>2021-08-12T11:45:22Z</time>
      </trkpt>
      <trkpt lat="45.50651" lon="6.73551">
        <ele>2020.9</ele>
        <time>2021-08-12T11:45:23Z</time>
      </trkpt>
      <trkpt lat="45.50651" lon="6.7355">
        <ele>2020.9</ele>
        <time>2021-08-12T11:45:24Z</time>
      </trkpt>
      <trkpt lat="45.50652" lon="6.73549">
        <ele>2020.9</ele>
        <time>2021-08-12T11:45:25Z</time>
      </trkpt>
      <trkpt lat="45.50652" lon="6.73548">
        <ele>2020.9</ele>
        <time>2021-08-12T11:45:26Z</time>
      </trkpt>
      <trkpt lat="45.50653" lon="6.73547">
        <ele>2020.9</ele>
        <time>2021-08-12T11:45:27Z</time>
      </trkpt>
      <trkpt lat="45.50653" lon="6.73546">
        <ele>2020.9</ele>
        <time>2021-08-12T11:45:28Z</time>
      </trkpt>
      <trkpt lat="45.50654" lon="6.73545">
        <ele>2020.9</ele>
        <time>2021-08-12T11:45:29Z</time>
      </trkpt>
      <trkpt lat="45.50654" lon="6.73544">
        <ele>2020.9</ele>
        <time>2021-08-12T11:45:30Z</time>
      </trkpt>
      <trkpt lat="45.50655" lon="6.73543">
        <ele>2020.9</ele>
        <time>2021-08-12T11:45:31Z</time>
      </trkpt>
      <trkpt lat="45.50655" lon="6.73542">
        <ele>2020.9</ele>
        <time>2021-08-12T11:45:32Z</time>
      </trkpt>
      <trkpt lat="45.50656" lon="6.73541">
        <ele>2020.9</ele>
        <time>2021-08-12T11:45:33Z</time>
      </trkpt>
      <trkpt lat="45.50656" lon="6.73539">
        <ele>2020.9</ele>
        <time>2021-08-12T11:45:34Z</time>
      </trkpt>
      <trkpt lat="45.50656" lon="6.73538">
        <ele>2020.9</ele>
        <time>2021-08-12T11:45:35Z</time>
      </trkpt>
      <trkpt lat="45.50657" lon="6.73537">
        <ele>2020.9</ele>
        <time>2021-08-12T11:45:36Z</time>
      </trkpt>
      <trkpt lat="45.50657" lon="6.73536">
        <ele>2020.9</ele>
        <time>2021-08-12T11:45:37Z</time>
      </trkpt>
      <trkpt lat="45.50658" lon="6.73535">
        <ele>2020.9</ele>
        <time>2021-08-12T11:45:38Z</time>
      </trkpt>
      <trkpt lat="45.50658" lon="6.73534">
        <ele>2020.9</ele>
        <time>2021-08-12T11:45:39Z</time>
      </trkpt>
      <trkpt lat="45.50659" lon="6.73532">
        <ele>2020.8</ele>
        <time>2021-08-12T11:45:40Z</time>
      </trkpt>
      <trkpt lat="45.50659" lon="6.73531">
        <ele>2020.8</ele>
        <time>2021-08-12T11:45:41Z</time>
      </trkpt>
      <trkpt lat="45.5066" lon="6.7353">
        <ele>2020.8</ele>
        <time>2021-08-12T11:45:42Z</time>
      </trkpt>
      <trkpt lat="45.5066" lon="6.73529">
        <ele>2020.8</ele>
        <time>2021-08-12T11:45:43Z</time>
      </trkpt>
      <trkpt lat="45.50661" lon="6.73527">
        <ele>2020.8</ele>
        <time>2021-08-12T11:45:44Z</time>
      </trkpt>
      <trkpt lat="45.50661" lon="6.73526">
        <ele>2020.8</ele>
        <time>2021-08-12T11:45:45Z</time>
      </trkpt>
      <trkpt lat="45.50662" lon="6.73525">
        <ele>2020.7</ele>
        <time>2021-08-12T11:45:46Z</time>
      </trkpt>
      <trkpt lat="45.50662" lon="6.73523">
        <ele>2020.7</ele>
        <time>2021-08-12T11:45:47Z</time>
      </trkpt>
      <trkpt lat="45.50663" lon="6.73522">
        <ele>2020.7</ele>
        <time>2021-08-12T11:45:48Z</time>
      </trkpt>
      <trkpt lat="45.50663" lon="6.73521">
        <ele>2020.7</ele>
        <time>2021-08-12T11:45:49Z</time>
      </trkpt>
      <trkpt lat="45.50664" lon="6.73519">
        <ele>2020.7</ele>
        <time>2021-08-12T11:45:50Z</time>
      </trkpt>
      <trkpt lat="45.50665" lon="6.73517">
        <ele>2020.6</ele>
        <time>2021-08-12T11:45:51Z</time>
      </trkpt>
      <trkpt lat="45.50665" lon="6.73516">
        <ele>2020.6</ele>
        <time>2021-08-12T11:45:52Z</time>
      </trkpt>
      <trkpt lat="45.50666" lon="6.73515">
        <ele>2020.6</ele>
        <time>2021-08-12T11:45:53Z</time>
      </trkpt>
      <trkpt lat="45.50666" lon="6.73515">
        <ele>2020.6</ele>
        <time>2021-08-12T11:45:54Z</time>
      </trkpt>
      <trkpt lat="45.50666" lon="6.73514">
        <ele>2020.6</ele>
        <time>2021-08-12T11:45:55Z</time>
      </trkpt>
      <trkpt lat="45.50667" lon="6.73513">
        <ele>2020.5</ele>
        <time>2021-08-12T11:45:56Z</time>
      </trkpt>
      <trkpt lat="45.50667" lon="6.73512">
        <ele>2020.5</ele>
        <time>2021-08-12T11:45:57Z</time>
      </trkpt>
      <trkpt lat="45.50668" lon="6.73511">
        <ele>2020.5</ele>
        <time>2021-08-12T11:45:58Z</time>
      </trkpt>
      <trkpt lat="45.50668" lon="6.7351">
        <ele>2020.5</ele>
        <time>2021-08-12T11:45:59Z</time>
      </trkpt>
      <trkpt lat="45.50669" lon="6.73509">
        <ele>2020.5</ele>
        <time>2021-08-12T11:46:00Z</time>
      </trkpt>
      <trkpt lat="45.50669" lon="6.73509">
        <ele>2020.5</ele>
        <time>2021-08-12T11:46:01Z</time>
      </trkpt>
      <trkpt lat="45.5067" lon="6.73508">
        <ele>2020.5</ele>
        <time>2021-08-12T11:46:02Z</time>
      </trkpt>
      <trkpt lat="45.5067" lon="6.73507">
        <ele>2020.4</ele>
        <time>2021-08-12T11:46:03Z</time>
      </trkpt>
      <trkpt lat="45.50671" lon="6.73506">
        <ele>2020.4</ele>
        <time>2021-08-12T11:46:04Z</time>
      </trkpt>
      <trkpt lat="45.50671" lon="6.73505">
        <ele>2020.4</ele>
        <time>2021-08-12T11:46:05Z</time>
      </trkpt>
      <trkpt lat="45.50671" lon="6.73504">
        <ele>2020.4</ele>
        <time>2021-08-12T11:46:06Z</time>
      </trkpt>
      <trkpt lat="45.50672" lon="6.73503">
        <ele>2020.4</ele>
        <time>2021-08-12T11:46:07Z</time>
      </trkpt>
      <trkpt lat="45.50672" lon="6.73503">
        <ele>2020.4</ele>
        <time>2021-08-12T11:46:08Z</time>
      </trkpt>
      <trkpt lat="45.50673" lon="6.73502">
        <ele>2020.4</ele>
        <time>2021-08-12T11:46:09Z</time>
      </trkpt>
      <trkpt lat="45.50673" lon="6.73501">
        <ele>2020.4</ele>
        <time>2021-08-12T11:46:10Z</time>
      </trkpt>
      <trkpt lat="45.50674" lon="6.735">
        <ele>2020.4</ele>
        <time>2021-08-12T11:46:11Z</time>
      </trkpt>
      <trkpt lat="45.50674" lon="6.73499">
        <ele>2020.4</ele>
        <time>2021-08-12T11:46:12Z</time>
      </trkpt>
      <trkpt lat="45.50675" lon="6.73498">
        <ele>2020.3</ele>
        <time>2021-08-12T11:46:13Z</time>
      </trkpt>
      <trkpt lat="45.50675" lon="6.73497">
        <ele>2020.3</ele>
        <time>2021-08-12T11:46:14Z</time>
      </trkpt>
      <trkpt lat="45.50675" lon="6.73497">
        <ele>2020.3</ele>
        <time>2021-08-12T11:46:15Z</time>
      </trkpt>
      <trkpt lat="45.50676" lon="6.73496">
        <ele>2020.3</ele>
        <time>2021-08-12T11:46:16Z</time>
      </trkpt>
      <trkpt lat="45.50676" lon="6.73495">
        <ele>2020.3</ele>
        <time>2021-08-12T11:46:17Z</time>
      </trkpt>
      <trkpt lat="45.50677" lon="6.73494">
        <ele>2020.3</ele>
        <time>2021-08-12T11:46:18Z</time>
      </trkpt>
      <trkpt lat="45.50677" lon="6.73493">
        <ele>2020.3</ele>
        <time>2021-08-12T11:46:19Z</time>
      </trkpt>
      <trkpt lat="45.50678" lon="6.73492">
        <ele>2020.3</ele>
        <time>2021-08-12T11:46:20Z</time>
      </trkpt>
      <trkpt lat="45.50678" lon="6.73492">
        <ele>2020.3</ele>
        <time>2021-08-12T11:46:21Z</time>
      </trkpt>
      <trkpt lat="45.50679" lon="6.73491">
        <ele>2020.3</ele>
        <time>2021-08-12T11:46:22Z</time>
      </trkpt>
      <trkpt lat="45.50679" lon="6.7349">
        <ele>2020.3</ele>
        <time>2021-08-12T11:46:23Z</time>
      </trkpt>
      <trkpt lat="45.50679" lon="6.73489">
        <ele>2020.3</ele>
        <time>2021-08-12T11:46:24Z</time>
      </trkpt>
      <trkpt lat="45.5068" lon="6.73488">
        <ele>2020.2</ele>
        <time>2021-08-12T11:46:25Z</time>
      </trkpt>
      <trkpt lat="45.5068" lon="6.73487">
        <ele>2020.2</ele>
        <time>2021-08-12T11:46:26Z</time>
      </trkpt>
      <trkpt lat="45.50681" lon="6.73486">
        <ele>2020.2</ele>
        <time>2021-08-12T11:46:27Z</time>
      </trkpt>
      <trkpt lat="45.50681" lon="6.73486">
        <ele>2020.2</ele>
        <time>2021-08-12T11:46:28Z</time>
      </trkpt>
      <trkpt lat="45.50682" lon="6.73485">
        <ele>2020.2</ele>
        <time>2021-08-12T11:46:29Z</time>
      </trkpt>
      <trkpt lat="45.50682" lon="6.73484">
        <ele>2020.2</ele>
        <time>2021-08-12T11:46:30Z</time>
      </trkpt>
      <trkpt lat="45.50683" lon="6.73483">
        <ele>2020.2</ele>
        <time>2021-08-12T11:46:31Z</time>
      </trkpt>
      <trkpt lat="45.50683" lon="6.73482">
        <ele>2020.2</ele>
        <time>2021-08-12T11:46:32Z</time>
      </trkpt>
      <trkpt lat="45.50684" lon="6.73481">
        <ele>2020.2</ele>
        <time>2021-08-12T11:46:33Z</time>
      </trkpt>
      <trkpt lat="45.50684" lon="6.7348">
        <ele>2020.2</ele>
        <time>2021-08-12T11:46:34Z</time>
      </trkpt>
      <trkpt lat="45.50684" lon="6.7348">
        <ele>2020.1</ele>
        <time>2021-08-12T11:46:35Z</time>
      </trkpt>
      <trkpt lat="45.50685" lon="6.73479">
        <ele>2020.1</ele>
        <time>2021-08-12T11:46:36Z</time>
      </trkpt>
      <trkpt lat="45.50685" lon="6.73478">
        <ele>2020.1</ele>
        <time>2021-08-12T11:46:37Z</time>
      </trkpt>
      <trkpt lat="45.50686" lon="6.73477">
        <ele>2020.1</ele>
        <time>2021-08-12T11:46:38Z</time>
      </trkpt>
      <trkpt lat="45.50686" lon="6.73476">
        <ele>2020.1</ele>
        <time>2021-08-12T11:46:39Z</time>
      </trkpt>
      <trkpt lat="45.50687" lon="6.73475">
        <ele>2020.1</ele>
        <time>2021-08-12T11:46:40Z</time>
      </trkpt>
      <trkpt lat="45.50687" lon="6.73474">
        <ele>2020</ele>
        <time>2021-08-12T11:46:41Z</time>
      </trkpt>
      <trkpt lat="45.50688" lon="6.73474">
        <ele>2020</ele>
        <time>2021-08-12T11:46:42Z</time>
      </trkpt>
      <trkpt lat="45.50688" lon="6.73473">
        <ele>2020</ele>
        <time>2021-08-12T11:46:43Z</time>
      </trkpt>
      <trkpt lat="45.50688" lon="6.73472">
        <ele>2020</ele>
        <time>2021-08-12T11:46:44Z</time>
      </trkpt>
      <trkpt lat="45.50689" lon="6.73471">
        <ele>2019.9</ele>
        <time>2021-08-12T11:46:45Z</time>
      </trkpt>
      <trkpt lat="45.50689" lon="6.7347">
        <ele>2019.9</ele>
        <time>2021-08-12T11:46:46Z</time>
      </trkpt>
      <trkpt lat="45.5069" lon="6.73469">
        <ele>2019.9</ele>
        <time>2021-08-12T11:46:47Z</time>
      </trkpt>
      <trkpt lat="45.5069" lon="6.73469">
        <ele>2019.9</ele>
        <time>2021-08-12T11:46:48Z</time>
      </trkpt>
      <trkpt lat="45.50691" lon="6.73468">
        <ele>2019.8</ele>
        <time>2021-08-12T11:46:49Z</time>
      </trkpt>
      <trkpt lat="45.50691" lon="6.73467">
        <ele>2019.8</ele>
        <time>2021-08-12T11:46:50Z</time>
      </trkpt>
      <trkpt lat="45.50692" lon="6.73466">
        <ele>2019.7</ele>
        <time>2021-08-12T11:46:51Z</time>
      </trkpt>
      <trkpt lat="45.50692" lon="6.73465">
        <ele>2019.7</ele>
        <time>2021-08-12T11:46:52Z</time>
      </trkpt>
      <trkpt lat="45.50692" lon="6.73464">
        <ele>2019.7</ele>
        <time>2021-08-12T11:46:53Z</time>
      </trkpt>
      <trkpt lat="45.50693" lon="6.73463">
        <ele>2019.6</ele>
        <time>2021-08-12T11:46:54Z</time>
      </trkpt>
      <trkpt lat="45.50693" lon="6.73463">
        <ele>2019.6</ele>
        <time>2021-08-12T11:46:55Z</time>
      </trkpt>
      <trkpt lat="45.50694" lon="6.73462">
        <ele>2019.6</ele>
        <time>2021-08-12T11:46:56Z</time>
      </trkpt>
      <trkpt lat="45.50694" lon="6.73461">
        <ele>2019.5</ele>
        <time>2021-08-12T11:46:57Z</time>
      </trkpt>
      <trkpt lat="45.50695" lon="6.7346">
        <ele>2019.5</ele>
        <time>2021-08-12T11:46:58Z</time>
      </trkpt>
      <trkpt lat="45.50695" lon="6.73459">
        <ele>2019.4</ele>
        <time>2021-08-12T11:46:59Z</time>
      </trkpt>
      <trkpt lat="45.50696" lon="6.73458">
        <ele>2019.4</ele>
        <time>2021-08-12T11:47:00Z</time>
      </trkpt>
      <trkpt lat="45.50696" lon="6.73457">
        <ele>2019.3</ele>
        <time>2021-08-12T11:47:01Z</time>
      </trkpt>
      <trkpt lat="45.50696" lon="6.73457">
        <ele>2019.3</ele>
        <time>2021-08-12T11:47:02Z</time>
      </trkpt>
      <trkpt lat="45.50697" lon="6.73456">
        <ele>2019.2</ele>
        <time>2021-08-12T11:47:03Z</time>
      </trkpt>
      <trkpt lat="45.50697" lon="6.73455">
        <ele>2019.2</ele>
        <time>2021-08-12T11:47:04Z</time>
      </trkpt>
      <trkpt lat="45.50698" lon="6.73454">
        <ele>2019.2</ele>
        <time>2021-08-12T11:47:05Z</time>
      </trkpt>
      <trkpt lat="45.50698" lon="6.73453">
        <ele>2019.1</ele>
        <time>2021-08-12T11:47:06Z</time>
      </trkpt>
      <trkpt lat="45.50699" lon="6.73452">
        <ele>2019.1</ele>
        <time>2021-08-12T11:47:07Z</time>
      </trkpt>
      <trkpt lat="45.50699" lon="6.73451">
        <ele>2019</ele>
        <time>2021-08-12T11:47:08Z</time>
      </trkpt>
      <trkpt lat="45.507" lon="6.73451">
        <ele>2019</ele>
        <time>2021-08-12T11:47:09Z</time>
      </trkpt>
      <trkpt lat="45.507" lon="6.7345">
        <ele>2018.9</ele>
        <time>2021-08-12T11:47:10Z</time>
      </trkpt>
      <trkpt lat="45.50701" lon="6.73449">
        <ele>2018.9</ele>
        <time>2021-08-12T11:47:11Z</time>
      </trkpt>
      <trkpt lat="45.50701" lon="6.73448">
        <ele>2018.9</ele>
        <time>2021-08-12T11:47:12Z</time>
      </trkpt>
      <trkpt lat="45.50701" lon="6.73447">
        <ele>2018.8</ele>
        <time>2021-08-12T11:47:13Z</time>
      </trkpt>
      <trkpt lat="45.50702" lon="6.73446">
        <ele>2018.8</ele>
        <time>2021-08-12T11:47:14Z</time>
      </trkpt>
      <trkpt lat="45.50702" lon="6.73446">
        <ele>2018.7</ele>
        <time>2021-08-12T11:47:15Z</time>
      </trkpt>
      <trkpt lat="45.50703" lon="6.73445">
        <ele>2018.7</ele>
        <time>2021-08-12T11:47:16Z</time>
      </trkpt>
      <trkpt lat="45.50703" lon="6.73444">
        <ele>2018.6</ele>
        <time>2021-08-12T11:47:17Z</time>
      </trkpt>
      <trkpt lat="45.50704" lon="6.73443">
        <ele>2018.6</ele>
        <time>2021-08-12T11:47:18Z</time>
      </trkpt>
      <trkpt lat="45.50704" lon="6.73442">
        <ele>2018.6</ele>
        <time>2021-08-12T11:47:19Z</time>
      </trkpt>
      <trkpt lat="45.50705" lon="6.73441">
        <ele>2018.5</ele>
        <time>2021-08-12T11:47:20Z</time>
      </trkpt>
      <trkpt lat="45.50706" lon="6.73441">
        <ele>2018.5</ele>
        <time>2021-08-12T11:47:21Z</time>
      </trkpt>
      <trkpt lat="45.50706" lon="6.73442">
        <ele>2018.4</ele>
        <time>2021-08-12T11:47:22Z</time>
      </trkpt>
      <trkpt lat="45.50707" lon="6.73442">
        <ele>2018.4</ele>
        <time>2021-08-12T11:47:23Z</time>
      </trkpt>
      <trkpt lat="45.50708" lon="6.73442">
        <ele>2018.4</ele>
        <time>2021-08-12T11:47:24Z</time>
      </trkpt>
      <trkpt lat="45.50709" lon="6.73442">
        <ele>2018.3</ele>
        <time>2021-08-12T11:47:25Z</time>
      </trkpt>
      <trkpt lat="45.50709" lon="6.73442">
        <ele>2018.3</ele>
        <time>2021-08-12T11:47:26Z</time>
      </trkpt>
      <trkpt lat="45.5071" lon="6.73442">
        <ele>2018.3</ele>
        <time>2021-08-12T11:47:27Z</time>
      </trkpt>
      <trkpt lat="45.50711" lon="6.73442">
        <ele>2018.3</ele>
        <time>2021-08-12T11:47:28Z</time>
      </trkpt>
      <trkpt lat="45.50711" lon="6.73441">
        <ele>2018.3</ele>
        <time>2021-08-12T11:47:29Z</time>
      </trkpt>
      <trkpt lat="45.50712" lon="6.73441">
        <ele>2018.2</ele>
        <time>2021-08-12T11:47:30Z</time>
      </trkpt>
      <trkpt lat="45.50713" lon="6.7344">
        <ele>2018.2</ele>
        <time>2021-08-12T11:47:31Z</time>
      </trkpt>
      <trkpt lat="45.50714" lon="6.73439">
        <ele>2018.2</ele>
        <time>2021-08-12T11:47:32Z</time>
      </trkpt>
      <trkpt lat="45.50715" lon="6.73438">
        <ele>2018.2</ele>
        <time>2021-08-12T11:47:33Z</time>
      </trkpt>
      <trkpt lat="45.50716" lon="6.73438">
        <ele>2018.1</ele>
        <time>2021-08-12T11:47:34Z</time>
      </trkpt>
      <trkpt lat="45.50717" lon="6.73437">
        <ele>2018.1</ele>
        <time>2021-08-12T11:47:35Z</time>
      </trkpt>
      <trkpt lat="45.50717" lon="6.73436">
        <ele>2018.1</ele>
        <time>2021-08-12T11:47:36Z</time>
      </trkpt>
      <trkpt lat="45.50718" lon="6.73436">
        <ele>2018.1</ele>
        <time>2021-08-12T11:47:37Z</time>
      </trkpt>
      <trkpt lat="45.50718" lon="6.73435">
        <ele>2018.1</ele>
        <time>2021-08-12T11:47:38Z</time>
      </trkpt>
      <trkpt lat="45.50718" lon="6.73435">
        <ele>2018.1</ele>
        <time>2021-08-12T11:47:39Z</time>
      </trkpt>
      <trkpt lat="45.50719" lon="6.73435">
        <ele>2018.1</ele>
        <time>2021-08-12T11:47:40Z</time>
      </trkpt>
      <trkpt lat="45.50719" lon="6.73435">
        <ele>2018.1</ele>
        <time>2021-08-12T11:47:41Z</time>
      </trkpt>
      <trkpt lat="45.50719" lon="6.73435">
        <ele>2018.1</ele>
        <time>2021-08-12T11:47:42Z</time>
      </trkpt>
      <trkpt lat="45.50719" lon="6.73435">
        <ele>2018.1</ele>
        <time>2021-08-12T11:47:43Z</time>
      </trkpt>
      <trkpt lat="45.50719" lon="6.73435">
        <ele>2018.1</ele>
        <time>2021-08-12T11:47:44Z</time>
      </trkpt>
      <trkpt lat="45.50719" lon="6.73435">
        <ele>2018.1</ele>
        <time>2021-08-12T11:47:45Z</time>
      </trkpt>
      <trkpt lat="45.50719" lon="6.73435">
        <ele>2018.1</ele>
        <time>2021-08-12T11:47:46Z</time>
      </trkpt>
      <trkpt lat="45.50719" lon="6.73435">
        <ele>2018.1</ele>
        <time>2021-08-12T11:47:47Z</time>
      </trkpt>
      <trkpt lat="45.50719" lon="6.73435">
        <ele>2018.1</ele>
        <time>2021-08-12T11:47:48Z</time>
      </trkpt>
      <trkpt lat="45.50719" lon="6.73435">
        <ele>2018.1</ele>
        <time>2021-08-12T11:47:49Z</time>
      </trkpt>
      <trkpt lat="45.50719" lon="6.73435">
        <ele>2018.1</ele>
        <time>2021-08-12T11:47:50Z</time>
      </trkpt>
      <trkpt lat="45.50719" lon="6.73435">
        <ele>2018.1</ele>
        <time>2021-08-12T11:47:51Z</time>
      </trkpt>
      <trkpt lat="45.50719" lon="6.73435">
        <ele>2018.1</ele>
        <time>2021-08-12T11:47:52Z</time>
      </trkpt>
      <trkpt lat="45.50719" lon="6.73435">
        <ele>2018.1</ele>
        <time>2021-08-12T11:47:53Z</time>
      </trkpt>
      <trkpt lat="45.50719" lon="6.73435">
        <ele>2018.1</ele>
        <time>2021-08-12T11:47:54Z</time>
      </trkpt>
      <trkpt lat="45.50719" lon="6.73435">
        <ele>2018.1</ele>
        <time>2021-08-12T11:47:55Z</time>
      </trkpt>
      <trkpt lat="45.50719" lon="6.73435">
        <ele>2018.1</ele>
        <time>2021-08-12T11:47:56Z</time>
      </trkpt>
      <trkpt lat="45.50719" lon="6.73435">
        <ele>2018.1</ele>
        <time>2021-08-12T11:47:57Z</time>
      </trkpt>
      <trkpt lat="45.50719" lon="6.73435">
        <ele>2018.1</ele>
        <time>2021-08-12T11:47:58Z</time>
      </trkpt>
      <trkpt lat="45.50719" lon="6.73435">
        <ele>2018.1</ele>
        <time>2021-08-12T11:47:59Z</time>
      </trkpt>
      <trkpt lat="45.50719" lon="6.73435">
        <ele>2018.1</ele>
        <time>2021-08-12T11:48:00Z</time>
      </trkpt>
      <trkpt lat="45.50719" lon="6.73435">
        <ele>2018.1</ele>
        <time>2021-08-12T11:48:01Z</time>
      </trkpt>
      <trkpt lat="45.50719" lon="6.73435">
        <ele>2018.1</ele>
        <time>2021-08-12T11:48:02Z</time>
      </trkpt>
      <trkpt lat="45.50719" lon="6.73435">
        <ele>2018.1</ele>
        <time>2021-08-12T11:48:03Z</time>
      </trkpt>
      <trkpt lat="45.50719" lon="6.73435">
        <ele>2018.1</ele>
        <time>2021-08-12T11:48:04Z</time>
      </trkpt>
      <trkpt lat="45.50719" lon="6.73435">
        <ele>2018.1</ele>
        <time>2021-08-12T11:48:05Z</time>
      </trkpt>
      <trkpt lat="45.50719" lon="6.73435">
        <ele>2018.1</ele>
        <time>2021-08-12T11:48:06Z</time>
      </trkpt>
      <trkpt lat="45.50719" lon="6.73435">
        <ele>2018.1</ele>
        <time>2021-08-12T11:48:07Z</time>
      </trkpt>
      <trkpt lat="45.50719" lon="6.73435">
        <ele>2018.1</ele>
        <time>2021-08-12T11:48:08Z</time>
      </trkpt>
      <trkpt lat="45.50719" lon="6.73435">
        <ele>2018.1</ele>
        <time>2021-08-12T11:48:09Z</time>
      </trkpt>
      <trkpt lat="45.50719" lon="6.73435">
        <ele>2018.1</ele>
        <time>2021-08-12T11:48:10Z</time>
      </trkpt>
      <trkpt lat="45.50719" lon="6.73435">
        <ele>2018.1</ele>
        <time>2021-08-12T11:48:11Z</time>
      </trkpt>
      <trkpt lat="45.50719" lon="6.73435">
        <ele>2018.1</ele>
        <time>2021-08-12T11:48:12Z</time>
      </trkpt>
      <trkpt lat="45.50719" lon="6.73435">
        <ele>2018.1</ele>
        <time>2021-08-12T11:48:13Z</time>
      </trkpt>
      <trkpt lat="45.50719" lon="6.73435">
        <ele>2018.1</ele>
        <time>2021-08-12T11:48:14Z</time>
      </trkpt>
      <trkpt lat="45.50719" lon="6.73435">
        <ele>2018.1</ele>
        <time>2021-08-12T11:48:15Z</time>
      </trkpt>
      <trkpt lat="45.50719" lon="6.73435">
        <ele>2018.1</ele>
        <time>2021-08-12T11:48:16Z</time>
      </trkpt>
      <trkpt lat="45.50719" lon="6.73435">
        <ele>2018.1</ele>
        <time>2021-08-12T11:48:17Z</time>
      </trkpt>
      <trkpt lat="45.50719" lon="6.73435">
        <ele>2018.1</ele>
        <time>2021-08-12T11:48:18Z</time>
      </trkpt>
      <trkpt lat="45.50719" lon="6.73435">
        <ele>2018.1</ele>
        <time>2021-08-12T11:48:19Z</time>
      </trkpt>
      <trkpt lat="45.50719" lon="6.73435">
        <ele>2018.1</ele>
        <time>2021-08-12T11:48:20Z</time>
      </trkpt>
      <trkpt lat="45.50719" lon="6.73435">
        <ele>2018.1</ele>
        <time>2021-08-12T11:48:21Z</time>
      </trkpt>
      <trkpt lat="45.50719" lon="6.73435">
        <ele>2018.1</ele>
        <time>2021-08-12T11:48:22Z</time>
      </trkpt>
      <trkpt lat="45.50719" lon="6.73435">
        <ele>2018.1</ele>
        <time>2021-08-12T11:48:23Z</time>
      </trkpt>
      <trkpt lat="45.50719" lon="6.73435">
        <ele>2018.1</ele>
        <time>2021-08-12T11:48:24Z</time>
      </trkpt>
      <trkpt lat="45.50719" lon="6.73435">
        <ele>2018.1</ele>
        <time>2021-08-12T11:48:25Z</time>
      </trkpt>
      <trkpt lat="45.50719" lon="6.73435">
        <ele>2018.1</ele>
        <time>2021-08-12T11:48:26Z</time>
      </trkpt>
      <trkpt lat="45.50719" lon="6.73435">
        <ele>2018.1</ele>
        <time>2021-08-12T11:48:27Z</time>
      </trkpt>
      <trkpt lat="45.50719" lon="6.73435">
        <ele>2018.1</ele>
        <time>2021-08-12T11:48:28Z</time>
      </trkpt>
      <trkpt lat="45.50719" lon="6.73435">
        <ele>2018.1</ele>
        <time>2021-08-12T11:48:29Z</time>
      </trkpt>
      <trkpt lat="45.50719" lon="6.73435">
        <ele>2018.1</ele>
        <time>2021-08-12T11:48:30Z</time>
      </trkpt>
      <trkpt lat="45.50719" lon="6.73435">
        <ele>2018.1</ele>
        <time>2021-08-12T11:48:31Z</time>
      </trkpt>
      <trkpt lat="45.50719" lon="6.73435">
        <ele>2018.1</ele>
        <time>2021-08-12T11:48:32Z</time>
      </trkpt>
      <trkpt lat="45.50719" lon="6.73435">
        <ele>2018.1</ele>
        <time>2021-08-12T11:48:33Z</time>
      </trkpt>
      <trkpt lat="45.50719" lon="6.73435">
        <ele>2018.1</ele>
        <time>2021-08-12T11:48:34Z</time>
      </trkpt>
      <trkpt lat="45.50719" lon="6.73435">
        <ele>2018.1</ele>
        <time>2021-08-12T11:48:35Z</time>
      </trkpt>
      <trkpt lat="45.50719" lon="6.73435">
        <ele>2018.1</ele>
        <time>2021-08-12T11:48:36Z</time>
      </trkpt>
      <trkpt lat="45.50719" lon="6.73435">
        <ele>2018.1</ele>
        <time>2021-08-12T11:48:37Z</time>
      </trkpt>
      <trkpt lat="45.50719" lon="6.73435">
        <ele>2018.1</ele>
        <time>2021-08-12T11:48:38Z</time>
      </trkpt>
      <trkpt lat="45.50719" lon="6.73435">
        <ele>2018.1</ele>
        <time>2021-08-12T11:48:39Z</time>
      </trkpt>
      <trkpt lat="45.50719" lon="6.73435">
        <ele>2018.1</ele>
        <time>2021-08-12T11:48:40Z</time>
      </trkpt>
      <trkpt lat="45.50719" lon="6.73435">
        <ele>2018.1</ele>
        <time>2021-08-12T11:48:41Z</time>
      </trkpt>
      <trkpt lat="45.50719" lon="6.73435">
        <ele>2018.1</ele>
        <time>2021-08-12T11:48:42Z</time>
      </trkpt>
      <trkpt lat="45.50719" lon="6.73435">
        <ele>2018.1</ele>
        <time>2021-08-12T11:48:43Z</time>
      </trkpt>
      <trkpt lat="45.50719" lon="6.73435">
        <ele>2018.1</ele>
        <time>2021-08-12T11:48:44Z</time>
      </trkpt>
      <trkpt lat="45.50719" lon="6.73435">
        <ele>2018.1</ele>
        <time>2021-08-12T11:48:45Z</time>
      </trkpt>
      <trkpt lat="45.50719" lon="6.73435">
        <ele>2018.1</ele>
        <time>2021-08-12T11:48:46Z</time>
      </trkpt>
      <trkpt lat="45.50719" lon="6.73435">
        <ele>2018.1</ele>
        <time>2021-08-12T11:48:47Z</time>
      </trkpt>
      <trkpt lat="45.50719" lon="6.73435">
        <ele>2018.1</ele>
        <time>2021-08-12T11:48:48Z</time>
      </trkpt>
      <trkpt lat="45.50719" lon="6.73435">
        <ele>2018.1</ele>
        <time>2021-08-12T11:48:49Z</time>
      </trkpt>
      <trkpt lat="45.50719" lon="6.73435">
        <ele>2018.1</ele>
        <time>2021-08-12T11:48:50Z</time>
      </trkpt>
      <trkpt lat="45.50719" lon="6.73435">
        <ele>2018.1</ele>
        <time>2021-08-12T11:48:51Z</time>
      </trkpt>
      <trkpt lat="45.50719" lon="6.73435">
        <ele>2018.1</ele>
        <time>2021-08-12T11:48:52Z</time>
      </trkpt>
      <trkpt lat="45.50719" lon="6.73435">
        <ele>2018.1</ele>
        <time>2021-08-12T11:48:53Z</time>
      </trkpt>
      <trkpt lat="45.50719" lon="6.73435">
        <ele>2018.1</ele>
        <time>2021-08-12T11:48:54Z</time>
      </trkpt>
      <trkpt lat="45.50719" lon="6.73435">
        <ele>2018.1</ele>
        <time>2021-08-12T11:48:55Z</time>
      </trkpt>
      <trkpt lat="45.50719" lon="6.73435">
        <ele>2018.1</ele>
        <time>2021-08-12T11:48:56Z</time>
      </trkpt>
      <trkpt lat="45.50719" lon="6.73435">
        <ele>2018.1</ele>
        <time>2021-08-12T11:48:57Z</time>
      </trkpt>
      <trkpt lat="45.50719" lon="6.73435">
        <ele>2018.1</ele>
        <time>2021-08-12T11:48:58Z</time>
      </trkpt>
      <trkpt lat="45.50719" lon="6.73435">
        <ele>2018.1</ele>
        <time>2021-08-12T11:48:59Z</time>
      </trkpt>
      <trkpt lat="45.50719" lon="6.73435">
        <ele>2018.1</ele>
        <time>2021-08-12T11:49:00Z</time>
      </trkpt>
      <trkpt lat="45.50719" lon="6.73435">
        <ele>2018.1</ele>
        <time>2021-08-12T11:49:01Z</time>
      </trkpt>
      <trkpt lat="45.50719" lon="6.73435">
        <ele>2018.1</ele>
        <time>2021-08-12T11:49:02Z</time>
      </trkpt>
      <trkpt lat="45.50719" lon="6.73435">
        <ele>2018.1</ele>
        <time>2021-08-12T11:49:03Z</time>
      </trkpt>
      <trkpt lat="45.50719" lon="6.73435">
        <ele>2018.1</ele>
        <time>2021-08-12T11:49:04Z</time>
      </trkpt>
      <trkpt lat="45.50719" lon="6.73435">
        <ele>2018.1</ele>
        <time>2021-08-12T11:49:05Z</time>
      </trkpt>
      <trkpt lat="45.50719" lon="6.73435">
        <ele>2018.1</ele>
        <time>2021-08-12T11:49:06Z</time>
      </trkpt>
      <trkpt lat="45.50719" lon="6.73435">
        <ele>2018.1</ele>
        <time>2021-08-12T11:49:07Z</time>
      </trkpt>
      <trkpt lat="45.50719" lon="6.73435">
        <ele>2018.1</ele>
        <time>2021-08-12T11:49:08Z</time>
      </trkpt>
      <trkpt lat="45.50719" lon="6.73434">
        <ele>2018.1</ele>
        <time>2021-08-12T11:49:09Z</time>
      </trkpt>
      <trkpt lat="45.5072" lon="6.73434">
        <ele>2018.1</ele>
        <time>2021-08-12T11:49:10Z</time>
      </trkpt>
      <trkpt lat="45.5072" lon="6.73434">
        <ele>2018.1</ele>
        <time>2021-08-12T11:49:11Z</time>
      </trkpt>
      <trkpt lat="45.5072" lon="6.73433">
        <ele>2018.1</ele>
        <time>2021-08-12T11:49:12Z</time>
      </trkpt>
      <trkpt lat="45.50721" lon="6.73433">
        <ele>2018.1</ele>
        <time>2021-08-12T11:49:13Z</time>
      </trkpt>
      <trkpt lat="45.50722" lon="6.73432">
        <ele>2018.1</ele>
        <time>2021-08-12T11:49:14Z</time>
      </trkpt>
      <trkpt lat="45.50722" lon="6.73432">
        <ele>2018.1</ele>
        <time>2021-08-12T11:49:15Z</time>
      </trkpt>
      <trkpt lat="45.50723" lon="6.73431">
        <ele>2018</ele>
        <time>2021-08-12T11:49:16Z</time>
      </trkpt>
      <trkpt lat="45.50724" lon="6.7343">
        <ele>2018</ele>
        <time>2021-08-12T11:49:17Z</time>
      </trkpt>
      <trkpt lat="45.50725" lon="6.73429">
        <ele>2018</ele>
        <time>2021-08-12T11:49:18Z</time>
      </trkpt>
      <trkpt lat="45.50726" lon="6.73429">
        <ele>2018</ele>
        <time>2021-08-12T11:49:19Z</time>
      </trkpt>
      <trkpt lat="45.50727" lon="6.73428">
        <ele>2018</ele>
        <time>2021-08-12T11:49:20Z</time>
      </trkpt>
      <trkpt lat="45.50728" lon="6.73427">
        <ele>2018</ele>
        <time>2021-08-12T11:49:21Z</time>
      </trkpt>
      <trkpt lat="45.50729" lon="6.73426">
        <ele>2018</ele>
        <time>2021-08-12T11:49:22Z</time>
      </trkpt>
      <trkpt lat="45.5073" lon="6.73425">
        <ele>2018</ele>
        <time>2021-08-12T11:49:23Z</time>
      </trkpt>
      <trkpt lat="45.5073" lon="6.73425">
        <ele>2018</ele>
        <time>2021-08-12T11:49:24Z</time>
      </trkpt>
      <trkpt lat="45.50731" lon="6.73424">
        <ele>2018</ele>
        <time>2021-08-12T11:49:25Z</time>
      </trkpt>
      <trkpt lat="45.50732" lon="6.73423">
        <ele>2018</ele>
        <time>2021-08-12T11:49:26Z</time>
      </trkpt>
      <trkpt lat="45.50733" lon="6.73422">
        <ele>2017.9</ele>
        <time>2021-08-12T11:49:27Z</time>
      </trkpt>
      <trkpt lat="45.50733" lon="6.73422">
        <ele>2017.9</ele>
        <time>2021-08-12T11:49:28Z</time>
      </trkpt>
      <trkpt lat="45.50734" lon="6.73421">
        <ele>2017.9</ele>
        <time>2021-08-12T11:49:29Z</time>
      </trkpt>
      <trkpt lat="45.50734" lon="6.7342">
        <ele>2017.9</ele>
        <time>2021-08-12T11:49:30Z</time>
      </trkpt>
      <trkpt lat="45.50735" lon="6.73419">
        <ele>2017.9</ele>
        <time>2021-08-12T11:49:31Z</time>
      </trkpt>
      <trkpt lat="45.50736" lon="6.73419">
        <ele>2017.9</ele>
        <time>2021-08-12T11:49:32Z</time>
      </trkpt>
      <trkpt lat="45.50736" lon="6.73418">
        <ele>2017.9</ele>
        <time>2021-08-12T11:49:33Z</time>
      </trkpt>
      <trkpt lat="45.50737" lon="6.73417">
        <ele>2017.9</ele>
        <time>2021-08-12T11:49:34Z</time>
      </trkpt>
      <trkpt lat="45.50738" lon="6.73416">
        <ele>2017.9</ele>
        <time>2021-08-12T11:49:35Z</time>
      </trkpt>
      <trkpt lat="45.50738" lon="6.73416">
        <ele>2017.9</ele>
        <time>2021-08-12T11:49:36Z</time>
      </trkpt>
      <trkpt lat="45.50739" lon="6.73415">
        <ele>2017.9</ele>
        <time>2021-08-12T11:49:37Z</time>
      </trkpt>
      <trkpt lat="45.5074" lon="6.73414">
        <ele>2017.9</ele>
        <time>2021-08-12T11:49:38Z</time>
      </trkpt>
      <trkpt lat="45.5074" lon="6.73413">
        <ele>2017.9</ele>
        <time>2021-08-12T11:49:39Z</time>
      </trkpt>
      <trkpt lat="45.50741" lon="6.73413">
        <ele>2017.9</ele>
        <time>2021-08-12T11:49:40Z</time>
      </trkpt>
      <trkpt lat="45.50742" lon="6.73412">
        <ele>2017.9</ele>
        <time>2021-08-12T11:49:41Z</time>
      </trkpt>
      <trkpt lat="45.50742" lon="6.73411">
        <ele>2017.9</ele>
        <time>2021-08-12T11:49:42Z</time>
      </trkpt>
      <trkpt lat="45.50743" lon="6.7341">
        <ele>2017.9</ele>
        <time>2021-08-12T11:49:43Z</time>
      </trkpt>
      <trkpt lat="45.50744" lon="6.73409">
        <ele>2017.9</ele>
        <time>2021-08-12T11:49:44Z</time>
      </trkpt>
      <trkpt lat="45.50744" lon="6.73408">
        <ele>2017.9</ele>
        <time>2021-08-12T11:49:45Z</time>
      </trkpt>
      <trkpt lat="45.50745" lon="6.73408">
        <ele>2017.9</ele>
        <time>2021-08-12T11:49:46Z</time>
      </trkpt>
      <trkpt lat="45.50746" lon="6.73407">
        <ele>2017.9</ele>
        <time>2021-08-12T11:49:47Z</time>
      </trkpt>
      <trkpt lat="45.50746" lon="6.73406">
        <ele>2017.9</ele>
        <time>2021-08-12T11:49:48Z</time>
      </trkpt>
      <trkpt lat="45.50747" lon="6.73405">
        <ele>2017.9</ele>
        <time>2021-08-12T11:49:49Z</time>
      </trkpt>
      <trkpt lat="45.50748" lon="6.73404">
        <ele>2018</ele>
        <time>2021-08-12T11:49:50Z</time>
      </trkpt>
      <trkpt lat="45.50748" lon="6.73403">
        <ele>2018</ele>
        <time>2021-08-12T11:49:51Z</time>
      </trkpt>
      <trkpt lat="45.50749" lon="6.73402">
        <ele>2018</ele>
        <time>2021-08-12T11:49:52Z</time>
      </trkpt>
      <trkpt lat="45.50749" lon="6.73402">
        <ele>2018</ele>
        <time>2021-08-12T11:49:53Z</time>
      </trkpt>
      <trkpt lat="45.5075" lon="6.73401">
        <ele>2018</ele>
        <time>2021-08-12T11:49:54Z</time>
      </trkpt>
      <trkpt lat="45.50751" lon="6.734">
        <ele>2018.1</ele>
        <time>2021-08-12T11:49:55Z</time>
      </trkpt>
      <trkpt lat="45.50751" lon="6.73399">
        <ele>2018.1</ele>
        <time>2021-08-12T11:49:56Z</time>
      </trkpt>
      <trkpt lat="45.50752" lon="6.73398">
        <ele>2018.1</ele>
        <time>2021-08-12T11:49:57Z</time>
      </trkpt>
      <trkpt lat="45.50753" lon="6.73397">
        <ele>2018.1</ele>
        <time>2021-08-12T11:49:58Z</time>
      </trkpt>
      <trkpt lat="45.50753" lon="6.73396">
        <ele>2018.2</ele>
        <time>2021-08-12T11:49:59Z</time>
      </trkpt>
      <trkpt lat="45.50754" lon="6.73395">
        <ele>2018.2</ele>
        <time>2021-08-12T11:50:00Z</time>
      </trkpt>
      <trkpt lat="45.50754" lon="6.73395">
        <ele>2018.2</ele>
        <time>2021-08-12T11:50:01Z</time>
      </trkpt>
      <trkpt lat="45.50755" lon="6.73394">
        <ele>2018.3</ele>
        <time>2021-08-12T11:50:02Z</time>
      </trkpt>
      <trkpt lat="45.50756" lon="6.73393">
        <ele>2018.3</ele>
        <time>2021-08-12T11:50:03Z</time>
      </trkpt>
      <trkpt lat="45.50756" lon="6.73392">
        <ele>2018.3</ele>
        <time>2021-08-12T11:50:04Z</time>
      </trkpt>
      <trkpt lat="45.50757" lon="6.73391">
        <ele>2018.3</ele>
        <time>2021-08-12T11:50:05Z</time>
      </trkpt>
      <trkpt lat="45.50757" lon="6.7339">
        <ele>2018.4</ele>
        <time>2021-08-12T11:50:06Z</time>
      </trkpt>
      <trkpt lat="45.50758" lon="6.73389">
        <ele>2018.4</ele>
        <time>2021-08-12T11:50:07Z</time>
      </trkpt>
      <trkpt lat="45.50758" lon="6.73388">
        <ele>2018.4</ele>
        <time>2021-08-12T11:50:08Z</time>
      </trkpt>
      <trkpt lat="45.50759" lon="6.73388">
        <ele>2018.5</ele>
        <time>2021-08-12T11:50:09Z</time>
      </trkpt>
      <trkpt lat="45.50759" lon="6.73387">
        <ele>2018.5</ele>
        <time>2021-08-12T11:50:10Z</time>
      </trkpt>
      <trkpt lat="45.5076" lon="6.73386">
        <ele>2018.5</ele>
        <time>2021-08-12T11:50:11Z</time>
      </trkpt>
      <trkpt lat="45.50761" lon="6.73385">
        <ele>2018.5</ele>
        <time>2021-08-12T11:50:12Z</time>
      </trkpt>
      <trkpt lat="45.50761" lon="6.73384">
        <ele>2018.6</ele>
        <time>2021-08-12T11:50:13Z</time>
      </trkpt>
      <trkpt lat="45.50762" lon="6.73383">
        <ele>2018.6</ele>
        <time>2021-08-12T11:50:14Z</time>
      </trkpt>
      <trkpt lat="45.50762" lon="6.73383">
        <ele>2018.6</ele>
        <time>2021-08-12T11:50:15Z</time>
      </trkpt>
      <trkpt lat="45.50763" lon="6.73382">
        <ele>2018.6</ele>
        <time>2021-08-12T11:50:16Z</time>
      </trkpt>
      <trkpt lat="45.50763" lon="6.73381">
        <ele>2018.7</ele>
        <time>2021-08-12T11:50:17Z</time>
      </trkpt>
      <trkpt lat="45.50763" lon="6.7338">
        <ele>2018.7</ele>
        <time>2021-08-12T11:50:18Z</time>
      </trkpt>
      <trkpt lat="45.50764" lon="6.73379">
        <ele>2018.7</ele>
        <time>2021-08-12T11:50:19Z</time>
      </trkpt>
      <trkpt lat="45.50764" lon="6.73379">
        <ele>2018.7</ele>
        <time>2021-08-12T11:50:20Z</time>
      </trkpt>
      <trkpt lat="45.50765" lon="6.73378">
        <ele>2018.7</ele>
        <time>2021-08-12T11:50:21Z</time>
      </trkpt>
      <trkpt lat="45.50765" lon="6.73377">
        <ele>2018.7</ele>
        <time>2021-08-12T11:50:22Z</time>
      </trkpt>
      <trkpt lat="45.50766" lon="6.73376">
        <ele>2018.8</ele>
        <time>2021-08-12T11:50:23Z</time>
      </trkpt>
      <trkpt lat="45.50766" lon="6.73376">
        <ele>2018.8</ele>
        <time>2021-08-12T11:50:24Z</time>
      </trkpt>
      <trkpt lat="45.50767" lon="6.73375">
        <ele>2018.8</ele>
        <time>2021-08-12T11:50:25Z</time>
      </trkpt>
      <trkpt lat="45.50767" lon="6.73374">
        <ele>2018.8</ele>
        <time>2021-08-12T11:50:26Z</time>
      </trkpt>
      <trkpt lat="45.50768" lon="6.73373">
        <ele>2018.8</ele>
        <time>2021-08-12T11:50:27Z</time>
      </trkpt>
      <trkpt lat="45.50768" lon="6.73372">
        <ele>2018.8</ele>
        <time>2021-08-12T11:50:28Z</time>
      </trkpt>
      <trkpt lat="45.50769" lon="6.73372">
        <ele>2018.8</ele>
        <time>2021-08-12T11:50:29Z</time>
      </trkpt>
      <trkpt lat="45.50769" lon="6.73371">
        <ele>2018.8</ele>
        <time>2021-08-12T11:50:30Z</time>
      </trkpt>
      <trkpt lat="45.5077" lon="6.7337">
        <ele>2018.8</ele>
        <time>2021-08-12T11:50:31Z</time>
      </trkpt>
      <trkpt lat="45.5077" lon="6.7337">
        <ele>2018.9</ele>
        <time>2021-08-12T11:50:32Z</time>
      </trkpt>
      <trkpt lat="45.50771" lon="6.73369">
        <ele>2018.9</ele>
        <time>2021-08-12T11:50:33Z</time>
      </trkpt>
      <trkpt lat="45.50771" lon="6.73368">
        <ele>2018.9</ele>
        <time>2021-08-12T11:50:34Z</time>
      </trkpt>
      <trkpt lat="45.50772" lon="6.73367">
        <ele>2018.9</ele>
        <time>2021-08-12T11:50:35Z</time>
      </trkpt>
      <trkpt lat="45.50772" lon="6.73366">
        <ele>2018.9</ele>
        <time>2021-08-12T11:50:36Z</time>
      </trkpt>
      <trkpt lat="45.50773" lon="6.73366">
        <ele>2018.9</ele>
        <time>2021-08-12T11:50:37Z</time>
      </trkpt>
      <trkpt lat="45.50773" lon="6.73365">
        <ele>2018.9</ele>
        <time>2021-08-12T11:50:38Z</time>
      </trkpt>
      <trkpt lat="45.50774" lon="6.73364">
        <ele>2018.9</ele>
        <time>2021-08-12T11:50:39Z</time>
      </trkpt>
      <trkpt lat="45.50774" lon="6.73363">
        <ele>2018.9</ele>
        <time>2021-08-12T11:50:40Z</time>
      </trkpt>
      <trkpt lat="45.50775" lon="6.73362">
        <ele>2019</ele>
        <time>2021-08-12T11:50:41Z</time>
      </trkpt>
      <trkpt lat="45.50775" lon="6.73361">
        <ele>2019</ele>
        <time>2021-08-12T11:50:42Z</time>
      </trkpt>
      <trkpt lat="45.50776" lon="6.7336">
        <ele>2019</ele>
        <time>2021-08-12T11:50:43Z</time>
      </trkpt>
      <trkpt lat="45.50776" lon="6.73359">
        <ele>2019</ele>
        <time>2021-08-12T11:50:44Z</time>
      </trkpt>
      <trkpt lat="45.50777" lon="6.73358">
        <ele>2019.1</ele>
        <time>2021-08-12T11:50:45Z</time>
      </trkpt>
      <trkpt lat="45.50777" lon="6.73357">
        <ele>2019.1</ele>
        <time>2021-08-12T11:50:46Z</time>
      </trkpt>
      <trkpt lat="45.50778" lon="6.73356">
        <ele>2019.1</ele>
        <time>2021-08-12T11:50:47Z</time>
      </trkpt>
      <trkpt lat="45.50778" lon="6.73355">
        <ele>2019.2</ele>
        <time>2021-08-12T11:50:48Z</time>
      </trkpt>
      <trkpt lat="45.50778" lon="6.73354">
        <ele>2019.2</ele>
        <time>2021-08-12T11:50:49Z</time>
      </trkpt>
      <trkpt lat="45.50779" lon="6.73353">
        <ele>2019.2</ele>
        <time>2021-08-12T11:50:50Z</time>
      </trkpt>
      <trkpt lat="45.50779" lon="6.73352">
        <ele>2019.3</ele>
        <time>2021-08-12T11:50:51Z</time>
      </trkpt>
      <trkpt lat="45.50779" lon="6.73351">
        <ele>2019.3</ele>
        <time>2021-08-12T11:50:52Z</time>
      </trkpt>
      <trkpt lat="45.5078" lon="6.7335">
        <ele>2019.4</ele>
        <time>2021-08-12T11:50:53Z</time>
      </trkpt>
      <trkpt lat="45.5078" lon="6.73349">
        <ele>2019.4</ele>
        <time>2021-08-12T11:50:54Z</time>
      </trkpt>
      <trkpt lat="45.5078" lon="6.73349">
        <ele>2019.4</ele>
        <time>2021-08-12T11:50:55Z</time>
      </trkpt>
      <trkpt lat="45.5078" lon="6.73348">
        <ele>2019.5</ele>
        <time>2021-08-12T11:50:56Z</time>
      </trkpt>
      <trkpt lat="45.50781" lon="6.73347">
        <ele>2019.5</ele>
        <time>2021-08-12T11:50:57Z</time>
      </trkpt>
      <trkpt lat="45.50781" lon="6.73347">
        <ele>2019.5</ele>
        <time>2021-08-12T11:50:58Z</time>
      </trkpt>
      <trkpt lat="45.50781" lon="6.73346">
        <ele>2019.6</ele>
        <time>2021-08-12T11:50:59Z</time>
      </trkpt>
      <trkpt lat="45.50781" lon="6.73345">
        <ele>2019.7</ele>
        <time>2021-08-12T11:51:00Z</time>
      </trkpt>
      <trkpt lat="45.50782" lon="6.73344">
        <ele>2019.7</ele>
        <time>2021-08-12T11:51:01Z</time>
      </trkpt>
      <trkpt lat="45.50782" lon="6.73344">
        <ele>2019.8</ele>
        <time>2021-08-12T11:51:02Z</time>
      </trkpt>
      <trkpt lat="45.50782" lon="6.73343">
        <ele>2019.8</ele>
        <time>2021-08-12T11:51:03Z</time>
      </trkpt>
      <trkpt lat="45.50782" lon="6.73342">
        <ele>2019.9</ele>
        <time>2021-08-12T11:51:04Z</time>
      </trkpt>
      <trkpt lat="45.50783" lon="6.73342">
        <ele>2019.9</ele>
        <time>2021-08-12T11:51:05Z</time>
      </trkpt>
      <trkpt lat="45.50783" lon="6.73341">
        <ele>2020</ele>
        <time>2021-08-12T11:51:06Z</time>
      </trkpt>
      <trkpt lat="45.50783" lon="6.7334">
        <ele>2020</ele>
        <time>2021-08-12T11:51:07Z</time>
      </trkpt>
      <trkpt lat="45.50784" lon="6.7334">
        <ele>2020.1</ele>
        <time>2021-08-12T11:51:08Z</time>
      </trkpt>
      <trkpt lat="45.50784" lon="6.73339">
        <ele>2020.2</ele>
        <time>2021-08-12T11:51:09Z</time>
      </trkpt>
      <trkpt lat="45.50784" lon="6.73338">
        <ele>2020.2</ele>
        <time>2021-08-12T11:51:10Z</time>
      </trkpt>
      <trkpt lat="45.50785" lon="6.73338">
        <ele>2020.3</ele>
        <time>2021-08-12T11:51:11Z</time>
      </trkpt>
      <trkpt lat="45.50785" lon="6.73337">
        <ele>2020.4</ele>
        <time>2021-08-12T11:51:12Z</time>
      </trkpt>
      <trkpt lat="45.50786" lon="6.73337">
        <ele>2020.4</ele>
        <time>2021-08-12T11:51:13Z</time>
      </trkpt>
      <trkpt lat="45.50786" lon="6.73337">
        <ele>2020.5</ele>
        <time>2021-08-12T11:51:14Z</time>
      </trkpt>
      <trkpt lat="45.50786" lon="6.73336">
        <ele>2020.5</ele>
        <time>2021-08-12T11:51:15Z</time>
      </trkpt>
      <trkpt lat="45.50787" lon="6.73336">
        <ele>2020.6</ele>
        <time>2021-08-12T11:51:16Z</time>
      </trkpt>
      <trkpt lat="45.50787" lon="6.73335">
        <ele>2020.7</ele>
        <time>2021-08-12T11:51:17Z</time>
      </trkpt>
      <trkpt lat="45.50788" lon="6.73335">
        <ele>2020.8</ele>
        <time>2021-08-12T11:51:18Z</time>
      </trkpt>
      <trkpt lat="45.50788" lon="6.73335">
        <ele>2020.8</ele>
        <time>2021-08-12T11:51:19Z</time>
      </trkpt>
      <trkpt lat="45.50789" lon="6.73335">
        <ele>2020.9</ele>
        <time>2021-08-12T11:51:20Z</time>
      </trkpt>
      <trkpt lat="45.50789" lon="6.73334">
        <ele>2021</ele>
        <time>2021-08-12T11:51:21Z</time>
      </trkpt>
      <trkpt lat="45.5079" lon="6.73334">
        <ele>2021</ele>
        <time>2021-08-12T11:51:22Z</time>
      </trkpt>
      <trkpt lat="45.5079" lon="6.73334">
        <ele>2021.1</ele>
        <time>2021-08-12T11:51:23Z</time>
      </trkpt>
      <trkpt lat="45.50791" lon="6.73333">
        <ele>2021.2</ele>
        <time>2021-08-12T11:51:24Z</time>
      </trkpt>
      <trkpt lat="45.50791" lon="6.73333">
        <ele>2021.2</ele>
        <time>2021-08-12T11:51:25Z</time>
      </trkpt>
      <trkpt lat="45.50792" lon="6.73333">
        <ele>2021.3</ele>
        <time>2021-08-12T11:51:26Z</time>
      </trkpt>
      <trkpt lat="45.50792" lon="6.73332">
        <ele>2021.4</ele>
        <time>2021-08-12T11:51:27Z</time>
      </trkpt>
      <trkpt lat="45.50793" lon="6.73332">
        <ele>2021.5</ele>
        <time>2021-08-12T11:51:28Z</time>
      </trkpt>
      <trkpt lat="45.50793" lon="6.73332">
        <ele>2021.6</ele>
        <time>2021-08-12T11:51:29Z</time>
      </trkpt>
      <trkpt lat="45.50794" lon="6.73331">
        <ele>2021.6</ele>
        <time>2021-08-12T11:51:30Z</time>
      </trkpt>
      <trkpt lat="45.50794" lon="6.73331">
        <ele>2021.7</ele>
        <time>2021-08-12T11:51:31Z</time>
      </trkpt>
      <trkpt lat="45.50795" lon="6.7333">
        <ele>2021.8</ele>
        <time>2021-08-12T11:51:32Z</time>
      </trkpt>
      <trkpt lat="45.50795" lon="6.7333">
        <ele>2021.9</ele>
        <time>2021-08-12T11:51:33Z</time>
      </trkpt>
      <trkpt lat="45.50796" lon="6.73329">
        <ele>2022</ele>
        <time>2021-08-12T11:51:34Z</time>
      </trkpt>
      <trkpt lat="45.50796" lon="6.73329">
        <ele>2022</ele>
        <time>2021-08-12T11:51:35Z</time>
      </trkpt>
      <trkpt lat="45.50797" lon="6.73328">
        <ele>2022.1</ele>
        <time>2021-08-12T11:51:36Z</time>
      </trkpt>
      <trkpt lat="45.50797" lon="6.73328">
        <ele>2022.2</ele>
        <time>2021-08-12T11:51:37Z</time>
      </trkpt>
      <trkpt lat="45.50798" lon="6.73327">
        <ele>2022.3</ele>
        <time>2021-08-12T11:51:38Z</time>
      </trkpt>
      <trkpt lat="45.50798" lon="6.73326">
        <ele>2022.4</ele>
        <time>2021-08-12T11:51:39Z</time>
      </trkpt>
      <trkpt lat="45.50799" lon="6.73326">
        <ele>2022.5</ele>
        <time>2021-08-12T11:51:40Z</time>
      </trkpt>
      <trkpt lat="45.50799" lon="6.73325">
        <ele>2022.5</ele>
        <time>2021-08-12T11:51:41Z</time>
      </trkpt>
      <trkpt lat="45.508" lon="6.73325">
        <ele>2022.6</ele>
        <time>2021-08-12T11:51:42Z</time>
      </trkpt>
      <trkpt lat="45.508" lon="6.73324">
        <ele>2022.7</ele>
        <time>2021-08-12T11:51:43Z</time>
      </trkpt>
      <trkpt lat="45.50801" lon="6.73323">
        <ele>2022.8</ele>
        <time>2021-08-12T11:51:44Z</time>
      </trkpt>
      <trkpt lat="45.50801" lon="6.73323">
        <ele>2022.8</ele>
        <time>2021-08-12T11:51:45Z</time>
      </trkpt>
      <trkpt lat="45.50802" lon="6.73322">
        <ele>2022.9</ele>
        <time>2021-08-12T11:51:46Z</time>
      </trkpt>
      <trkpt lat="45.50802" lon="6.73322">
        <ele>2023</ele>
        <time>2021-08-12T11:51:47Z</time>
      </trkpt>
      <trkpt lat="45.50803" lon="6.73321">
        <ele>2023</ele>
        <time>2021-08-12T11:51:48Z</time>
      </trkpt>
      <trkpt lat="45.50803" lon="6.73321">
        <ele>2023.1</ele>
        <time>2021-08-12T11:51:49Z</time>
      </trkpt>
      <trkpt lat="45.50804" lon="6.7332">
        <ele>2023.2</ele>
        <time>2021-08-12T11:51:50Z</time>
      </trkpt>
      <trkpt lat="45.50804" lon="6.73319">
        <ele>2023.2</ele>
        <time>2021-08-12T11:51:51Z</time>
      </trkpt>
      <trkpt lat="45.50804" lon="6.73319">
        <ele>2023.3</ele>
        <time>2021-08-12T11:51:52Z</time>
      </trkpt>
      <trkpt lat="45.50805" lon="6.73318">
        <ele>2023.3</ele>
        <time>2021-08-12T11:51:53Z</time>
      </trkpt>
      <trkpt lat="45.50805" lon="6.73318">
        <ele>2023.4</ele>
        <time>2021-08-12T11:51:54Z</time>
      </trkpt>
      <trkpt lat="45.50806" lon="6.73317">
        <ele>2023.4</ele>
        <time>2021-08-12T11:51:55Z</time>
      </trkpt>
      <trkpt lat="45.50806" lon="6.73316">
        <ele>2023.5</ele>
        <time>2021-08-12T11:51:56Z</time>
      </trkpt>
      <trkpt lat="45.50807" lon="6.73316">
        <ele>2023.5</ele>
        <time>2021-08-12T11:51:57Z</time>
      </trkpt>
      <trkpt lat="45.50807" lon="6.73315">
        <ele>2023.6</ele>
        <time>2021-08-12T11:51:58Z</time>
      </trkpt>
      <trkpt lat="45.50808" lon="6.73315">
        <ele>2023.6</ele>
        <time>2021-08-12T11:51:59Z</time>
      </trkpt>
      <trkpt lat="45.50808" lon="6.73314">
        <ele>2023.7</ele>
        <time>2021-08-12T11:52:00Z</time>
      </trkpt>
      <trkpt lat="45.50808" lon="6.73313">
        <ele>2023.7</ele>
        <time>2021-08-12T11:52:01Z</time>
      </trkpt>
      <trkpt lat="45.50809" lon="6.73313">
        <ele>2023.7</ele>
        <time>2021-08-12T11:52:02Z</time>
      </trkpt>
      <trkpt lat="45.50809" lon="6.73312">
        <ele>2023.7</ele>
        <time>2021-08-12T11:52:03Z</time>
      </trkpt>
      <trkpt lat="45.5081" lon="6.73312">
        <ele>2023.8</ele>
        <time>2021-08-12T11:52:04Z</time>
      </trkpt>
      <trkpt lat="45.5081" lon="6.73311">
        <ele>2023.8</ele>
        <time>2021-08-12T11:52:05Z</time>
      </trkpt>
      <trkpt lat="45.50811" lon="6.7331">
        <ele>2023.8</ele>
        <time>2021-08-12T11:52:06Z</time>
      </trkpt>
      <trkpt lat="45.50811" lon="6.7331">
        <ele>2023.9</ele>
        <time>2021-08-12T11:52:07Z</time>
      </trkpt>
      <trkpt lat="45.50811" lon="6.73309">
        <ele>2023.9</ele>
        <time>2021-08-12T11:52:08Z</time>
      </trkpt>
      <trkpt lat="45.50812" lon="6.73308">
        <ele>2023.9</ele>
        <time>2021-08-12T11:52:09Z</time>
      </trkpt>
      <trkpt lat="45.50812" lon="6.73308">
        <ele>2023.9</ele>
        <time>2021-08-12T11:52:10Z</time>
      </trkpt>
      <trkpt lat="45.50812" lon="6.73307">
        <ele>2023.9</ele>
        <time>2021-08-12T11:52:11Z</time>
      </trkpt>
      <trkpt lat="45.50813" lon="6.73306">
        <ele>2024</ele>
        <time>2021-08-12T11:52:12Z</time>
      </trkpt>
      <trkpt lat="45.50813" lon="6.73306">
        <ele>2024</ele>
        <time>2021-08-12T11:52:13Z</time>
      </trkpt>
      <trkpt lat="45.50814" lon="6.73305">
        <ele>2024</ele>
        <time>2021-08-12T11:52:14Z</time>
      </trkpt>
      <trkpt lat="45.50814" lon="6.73304">
        <ele>2024</ele>
        <time>2021-08-12T11:52:15Z</time>
      </trkpt>
      <trkpt lat="45.50814" lon="6.73303">
        <ele>2024</ele>
        <time>2021-08-12T11:52:16Z</time>
      </trkpt>
      <trkpt lat="45.50815" lon="6.73303">
        <ele>2024</ele>
        <time>2021-08-12T11:52:17Z</time>
      </trkpt>
      <trkpt lat="45.50815" lon="6.73302">
        <ele>2024</ele>
        <time>2021-08-12T11:52:18Z</time>
      </trkpt>
      <trkpt lat="45.50816" lon="6.73301">
        <ele>2024.1</ele>
        <time>2021-08-12T11:52:19Z</time>
      </trkpt>
      <trkpt lat="45.50816" lon="6.733">
        <ele>2024.1</ele>
        <time>2021-08-12T11:52:20Z</time>
      </trkpt>
      <trkpt lat="45.50817" lon="6.733">
        <ele>2024.1</ele>
        <time>2021-08-12T11:52:21Z</time>
      </trkpt>
      <trkpt lat="45.50817" lon="6.73299">
        <ele>2024.1</ele>
        <time>2021-08-12T11:52:22Z</time>
      </trkpt>
      <trkpt lat="45.50817" lon="6.73298">
        <ele>2024.1</ele>
        <time>2021-08-12T11:52:23Z</time>
      </trkpt>
      <trkpt lat="45.50818" lon="6.73297">
        <ele>2024.1</ele>
        <time>2021-08-12T11:52:24Z</time>
      </trkpt>
      <trkpt lat="45.50818" lon="6.73296">
        <ele>2024.1</ele>
        <time>2021-08-12T11:52:25Z</time>
      </trkpt>
      <trkpt lat="45.50819" lon="6.73296">
        <ele>2024.1</ele>
        <time>2021-08-12T11:52:26Z</time>
      </trkpt>
      <trkpt lat="45.50819" lon="6.73295">
        <ele>2024.1</ele>
        <time>2021-08-12T11:52:27Z</time>
      </trkpt>
      <trkpt lat="45.5082" lon="6.73294">
        <ele>2024.1</ele>
        <time>2021-08-12T11:52:28Z</time>
      </trkpt>
      <trkpt lat="45.5082" lon="6.73293">
        <ele>2024.1</ele>
        <time>2021-08-12T11:52:29Z</time>
      </trkpt>
      <trkpt lat="45.50821" lon="6.73293">
        <ele>2024.1</ele>
        <time>2021-08-12T11:52:30Z</time>
      </trkpt>
      <trkpt lat="45.50821" lon="6.73292">
        <ele>2024.1</ele>
        <time>2021-08-12T11:52:31Z</time>
      </trkpt>
      <trkpt lat="45.50822" lon="6.73291">
        <ele>2024.1</ele>
        <time>2021-08-12T11:52:32Z</time>
      </trkpt>
      <trkpt lat="45.50822" lon="6.7329">
        <ele>2024.1</ele>
        <time>2021-08-12T11:52:33Z</time>
      </trkpt>
      <trkpt lat="45.50823" lon="6.7329">
        <ele>2024.1</ele>
        <time>2021-08-12T11:52:34Z</time>
      </trkpt>
      <trkpt lat="45.50823" lon="6.73289">
        <ele>2024.1</ele>
        <time>2021-08-12T11:52:35Z</time>
      </trkpt>
      <trkpt lat="45.50823" lon="6.73289">
        <ele>2024.1</ele>
        <time>2021-08-12T11:52:36Z</time>
      </trkpt>
      <trkpt lat="45.50824" lon="6.73289">
        <ele>2024.1</ele>
        <time>2021-08-12T11:52:37Z</time>
      </trkpt>
      <trkpt lat="45.50824" lon="6.73288">
        <ele>2024.1</ele>
        <time>2021-08-12T11:52:38Z</time>
      </trkpt>
      <trkpt lat="45.50824" lon="6.73288">
        <ele>2024.1</ele>
        <time>2021-08-12T11:52:39Z</time>
      </trkpt>
      <trkpt lat="45.50824" lon="6.73288">
        <ele>2024.1</ele>
        <time>2021-08-12T11:52:40Z</time>
      </trkpt>
      <trkpt lat="45.50824" lon="6.73288">
        <ele>2024.1</ele>
        <time>2021-08-12T11:52:41Z</time>
      </trkpt>
      <trkpt lat="45.50824" lon="6.73288">
        <ele>2024.1</ele>
        <time>2021-08-12T11:52:42Z</time>
      </trkpt>
      <trkpt lat="45.50824" lon="6.73288">
        <ele>2024.1</ele>
        <time>2021-08-12T11:52:43Z</time>
      </trkpt>
      <trkpt lat="45.50824" lon="6.73288">
        <ele>2024.1</ele>
        <time>2021-08-12T11:52:44Z</time>
      </trkpt>
      <trkpt lat="45.50824" lon="6.73288">
        <ele>2024.1</ele>
        <time>2021-08-12T11:52:45Z</time>
      </trkpt>
      <trkpt lat="45.50824" lon="6.73288">
        <ele>2024.1</ele>
        <time>2021-08-12T11:52:46Z</time>
      </trkpt>
      <trkpt lat="45.50824" lon="6.73288">
        <ele>2024.1</ele>
        <time>2021-08-12T11:52:47Z</time>
      </trkpt>
      <trkpt lat="45.50824" lon="6.73288">
        <ele>2024.1</ele>
        <time>2021-08-12T11:52:48Z</time>
      </trkpt>
      <trkpt lat="45.50824" lon="6.73288">
        <ele>2024.1</ele>
        <time>2021-08-12T11:52:49Z</time>
      </trkpt>
      <trkpt lat="45.50824" lon="6.73288">
        <ele>2024.1</ele>
        <time>2021-08-12T11:52:50Z</time>
      </trkpt>
      <trkpt lat="45.50824" lon="6.73288">
        <ele>2024.1</ele>
        <time>2021-08-12T11:52:51Z</time>
      </trkpt>
      <trkpt lat="45.50824" lon="6.73288">
        <ele>2024.1</ele>
        <time>2021-08-12T11:52:52Z</time>
      </trkpt>
      <trkpt lat="45.50824" lon="6.73288">
        <ele>2024.1</ele>
        <time>2021-08-12T11:52:53Z</time>
      </trkpt>
      <trkpt lat="45.50824" lon="6.73288">
        <ele>2024.1</ele>
        <time>2021-08-12T11:52:54Z</time>
      </trkpt>
      <trkpt lat="45.50824" lon="6.73288">
        <ele>2024.1</ele>
        <time>2021-08-12T11:52:55Z</time>
      </trkpt>
      <trkpt lat="45.50824" lon="6.73287">
        <ele>2024.1</ele>
        <time>2021-08-12T11:52:56Z</time>
      </trkpt>
      <trkpt lat="45.50824" lon="6.73287">
        <ele>2024.1</ele>
        <time>2021-08-12T11:52:57Z</time>
      </trkpt>
      <trkpt lat="45.50824" lon="6.73286">
        <ele>2024.1</ele>
        <time>2021-08-12T11:52:58Z</time>
      </trkpt>
      <trkpt lat="45.50824" lon="6.73286">
        <ele>2024.1</ele>
        <time>2021-08-12T11:52:59Z</time>
      </trkpt>
      <trkpt lat="45.50824" lon="6.73285">
        <ele>2024.1</ele>
        <time>2021-08-12T11:53:00Z</time>
      </trkpt>
      <trkpt lat="45.50824" lon="6.73284">
        <ele>2024.1</ele>
        <time>2021-08-12T11:53:01Z</time>
      </trkpt>
      <trkpt lat="45.50825" lon="6.73283">
        <ele>2024.1</ele>
        <time>2021-08-12T11:53:02Z</time>
      </trkpt>
      <trkpt lat="45.50825" lon="6.73282">
        <ele>2024.1</ele>
        <time>2021-08-12T11:53:03Z</time>
      </trkpt>
      <trkpt lat="45.50825" lon="6.73281">
        <ele>2024.1</ele>
        <time>2021-08-12T11:53:04Z</time>
      </trkpt>
      <trkpt lat="45.50825" lon="6.7328">
        <ele>2024.1</ele>
        <time>2021-08-12T11:53:05Z</time>
      </trkpt>
      <trkpt lat="45.50825" lon="6.73279">
        <ele>2024.1</ele>
        <time>2021-08-12T11:53:06Z</time>
      </trkpt>
      <trkpt lat="45.50826" lon="6.73278">
        <ele>2024.1</ele>
        <time>2021-08-12T11:53:07Z</time>
      </trkpt>
      <trkpt lat="45.50826" lon="6.73277">
        <ele>2024.1</ele>
        <time>2021-08-12T11:53:08Z</time>
      </trkpt>
      <trkpt lat="45.50826" lon="6.73275">
        <ele>2024.1</ele>
        <time>2021-08-12T11:53:09Z</time>
      </trkpt>
      <trkpt lat="45.50826" lon="6.73274">
        <ele>2024.1</ele>
        <time>2021-08-12T11:53:10Z</time>
      </trkpt>
      <trkpt lat="45.50827" lon="6.73273">
        <ele>2024.1</ele>
        <time>2021-08-12T11:53:11Z</time>
      </trkpt>
      <trkpt lat="45.50827" lon="6.73272">
        <ele>2024.1</ele>
        <time>2021-08-12T11:53:12Z</time>
      </trkpt>
      <trkpt lat="45.50827" lon="6.73271">
        <ele>2024.1</ele>
        <time>2021-08-12T11:53:13Z</time>
      </trkpt>
      <trkpt lat="45.50828" lon="6.7327">
        <ele>2024.1</ele>
        <time>2021-08-12T11:53:14Z</time>
      </trkpt>
      <trkpt lat="45.50828" lon="6.73269">
        <ele>2024.1</ele>
        <time>2021-08-12T11:53:15Z</time>
      </trkpt>
      <trkpt lat="45.50828" lon="6.73268">
        <ele>2024.1</ele>
        <time>2021-08-12T11:53:16Z</time>
      </trkpt>
      <trkpt lat="45.50829" lon="6.73267">
        <ele>2024.1</ele>
        <time>2021-08-12T11:53:17Z</time>
      </trkpt>
      <trkpt lat="45.50829" lon="6.73267">
        <ele>2024.1</ele>
        <time>2021-08-12T11:53:18Z</time>
      </trkpt>
      <trkpt lat="45.5083" lon="6.73266">
        <ele>2024.1</ele>
        <time>2021-08-12T11:53:19Z</time>
      </trkpt>
      <trkpt lat="45.5083" lon="6.73265">
        <ele>2024.1</ele>
        <time>2021-08-12T11:53:20Z</time>
      </trkpt>
      <trkpt lat="45.50831" lon="6.73265">
        <ele>2024.1</ele>
        <time>2021-08-12T11:53:21Z</time>
      </trkpt>
      <trkpt lat="45.50831" lon="6.73264">
        <ele>2024.1</ele>
        <time>2021-08-12T11:53:22Z</time>
      </trkpt>
      <trkpt lat="45.50832" lon="6.73264">
        <ele>2024.1</ele>
        <time>2021-08-12T11:53:23Z</time>
      </trkpt>
      <trkpt lat="45.50832" lon="6.73263">
        <ele>2024.1</ele>
        <time>2021-08-12T11:53:24Z</time>
      </trkpt>
      <trkpt lat="45.50833" lon="6.73262">
        <ele>2024.1</ele>
        <time>2021-08-12T11:53:25Z</time>
      </trkpt>
      <trkpt lat="45.50833" lon="6.73262">
        <ele>2024.1</ele>
        <time>2021-08-12T11:53:26Z</time>
      </trkpt>
      <trkpt lat="45.50834" lon="6.73261">
        <ele>2024.1</ele>
        <time>2021-08-12T11:53:27Z</time>
      </trkpt>
      <trkpt lat="45.50835" lon="6.7326">
        <ele>2024.1</ele>
        <time>2021-08-12T11:53:28Z</time>
      </trkpt>
      <trkpt lat="45.50835" lon="6.7326">
        <ele>2024.1</ele>
        <time>2021-08-12T11:53:29Z</time>
      </trkpt>
      <trkpt lat="45.50836" lon="6.73259">
        <ele>2024.1</ele>
        <time>2021-08-12T11:53:30Z</time>
      </trkpt>
      <trkpt lat="45.50836" lon="6.73258">
        <ele>2024.1</ele>
        <time>2021-08-12T11:53:31Z</time>
      </trkpt>
      <trkpt lat="45.50837" lon="6.73257">
        <ele>2024.1</ele>
        <time>2021-08-12T11:53:32Z</time>
      </trkpt>
      <trkpt lat="45.50838" lon="6.73256">
        <ele>2024.1</ele>
        <time>2021-08-12T11:53:33Z</time>
      </trkpt>
      <trkpt lat="45.50838" lon="6.73256">
        <ele>2024.1</ele>
        <time>2021-08-12T11:53:34Z</time>
      </trkpt>
      <trkpt lat="45.50839" lon="6.73255">
        <ele>2024.1</ele>
        <time>2021-08-12T11:53:35Z</time>
      </trkpt>
      <trkpt lat="45.50839" lon="6.73254">
        <ele>2024.1</ele>
        <time>2021-08-12T11:53:36Z</time>
      </trkpt>
      <trkpt lat="45.5084" lon="6.73253">
        <ele>2024.2</ele>
        <time>2021-08-12T11:53:37Z</time>
      </trkpt>
      <trkpt lat="45.50841" lon="6.73252">
        <ele>2024.2</ele>
        <time>2021-08-12T11:53:38Z</time>
      </trkpt>
      <trkpt lat="45.50841" lon="6.73252">
        <ele>2024.2</ele>
        <time>2021-08-12T11:53:39Z</time>
      </trkpt>
      <trkpt lat="45.50842" lon="6.73251">
        <ele>2024.3</ele>
        <time>2021-08-12T11:53:40Z</time>
      </trkpt>
      <trkpt lat="45.50843" lon="6.7325">
        <ele>2024.3</ele>
        <time>2021-08-12T11:53:41Z</time>
      </trkpt>
      <trkpt lat="45.50843" lon="6.73249">
        <ele>2024.3</ele>
        <time>2021-08-12T11:53:42Z</time>
      </trkpt>
      <trkpt lat="45.50844" lon="6.73249">
        <ele>2024.4</ele>
        <time>2021-08-12T11:53:43Z</time>
      </trkpt>
      <trkpt lat="45.50845" lon="6.73248">
        <ele>2024.4</ele>
        <time>2021-08-12T11:53:44Z</time>
      </trkpt>
      <trkpt lat="45.50845" lon="6.73248">
        <ele>2024.5</ele>
        <time>2021-08-12T11:53:45Z</time>
      </trkpt>
      <trkpt lat="45.50846" lon="6.73247">
        <ele>2024.5</ele>
        <time>2021-08-12T11:53:46Z</time>
      </trkpt>
      <trkpt lat="45.50847" lon="6.73247">
        <ele>2024.6</ele>
        <time>2021-08-12T11:53:47Z</time>
      </trkpt>
      <trkpt lat="45.50848" lon="6.73246">
        <ele>2024.7</ele>
        <time>2021-08-12T11:53:48Z</time>
      </trkpt>
      <trkpt lat="45.50848" lon="6.73246">
        <ele>2024.7</ele>
        <time>2021-08-12T11:53:49Z</time>
      </trkpt>
      <trkpt lat="45.50849" lon="6.73245">
        <ele>2024.8</ele>
        <time>2021-08-12T11:53:50Z</time>
      </trkpt>
      <trkpt lat="45.5085" lon="6.73245">
        <ele>2024.8</ele>
        <time>2021-08-12T11:53:51Z</time>
      </trkpt>
      <trkpt lat="45.5085" lon="6.73244">
        <ele>2024.9</ele>
        <time>2021-08-12T11:53:52Z</time>
      </trkpt>
      <trkpt lat="45.50851" lon="6.73244">
        <ele>2025</ele>
        <time>2021-08-12T11:53:53Z</time>
      </trkpt>
      <trkpt lat="45.50852" lon="6.73244">
        <ele>2025</ele>
        <time>2021-08-12T11:53:54Z</time>
      </trkpt>
      <trkpt lat="45.50853" lon="6.73243">
        <ele>2025.1</ele>
        <time>2021-08-12T11:53:55Z</time>
      </trkpt>
      <trkpt lat="45.50853" lon="6.73243">
        <ele>2025.2</ele>
        <time>2021-08-12T11:53:56Z</time>
      </trkpt>
      <trkpt lat="45.50854" lon="6.73242">
        <ele>2025.3</ele>
        <time>2021-08-12T11:53:57Z</time>
      </trkpt>
      <trkpt lat="45.50855" lon="6.73242">
        <ele>2025.4</ele>
        <time>2021-08-12T11:53:58Z</time>
      </trkpt>
      <trkpt lat="45.50856" lon="6.73242">
        <ele>2025.4</ele>
        <time>2021-08-12T11:53:59Z</time>
      </trkpt>
      <trkpt lat="45.50856" lon="6.73241">
        <ele>2025.5</ele>
        <time>2021-08-12T11:54:00Z</time>
      </trkpt>
      <trkpt lat="45.50857" lon="6.73241">
        <ele>2025.6</ele>
        <time>2021-08-12T11:54:01Z</time>
      </trkpt>
      <trkpt lat="45.50858" lon="6.73241">
        <ele>2025.7</ele>
        <time>2021-08-12T11:54:02Z</time>
      </trkpt>
      <trkpt lat="45.50859" lon="6.7324">
        <ele>2025.8</ele>
        <time>2021-08-12T11:54:03Z</time>
      </trkpt>
      <trkpt lat="45.50859" lon="6.7324">
        <ele>2025.9</ele>
        <time>2021-08-12T11:54:04Z</time>
      </trkpt>
      <trkpt lat="45.5086" lon="6.73239">
        <ele>2026</ele>
        <time>2021-08-12T11:54:05Z</time>
      </trkpt>
      <trkpt lat="45.50861" lon="6.73239">
        <ele>2026.1</ele>
        <time>2021-08-12T11:54:06Z</time>
      </trkpt>
      <trkpt lat="45.50862" lon="6.73238">
        <ele>2026.2</ele>
        <time>2021-08-12T11:54:07Z</time>
      </trkpt>
      <trkpt lat="45.50862" lon="6.73238">
        <ele>2026.3</ele>
        <time>2021-08-12T11:54:08Z</time>
      </trkpt>
      <trkpt lat="45.50863" lon="6.73237">
        <ele>2026.4</ele>
        <time>2021-08-12T11:54:09Z</time>
      </trkpt>
      <trkpt lat="45.50864" lon="6.73237">
        <ele>2026.5</ele>
        <time>2021-08-12T11:54:10Z</time>
      </trkpt>
      <trkpt lat="45.50864" lon="6.73236">
        <ele>2026.6</ele>
        <time>2021-08-12T11:54:11Z</time>
      </trkpt>
      <trkpt lat="45.50865" lon="6.73235">
        <ele>2026.7</ele>
        <time>2021-08-12T11:54:12Z</time>
      </trkpt>
      <trkpt lat="45.50866" lon="6.73235">
        <ele>2026.8</ele>
        <time>2021-08-12T11:54:13Z</time>
      </trkpt>
      <trkpt lat="45.50867" lon="6.73234">
        <ele>2026.9</ele>
        <time>2021-08-12T11:54:14Z</time>
      </trkpt>
      <trkpt lat="45.50867" lon="6.73234">
        <ele>2027</ele>
        <time>2021-08-12T11:54:15Z</time>
      </trkpt>
      <trkpt lat="45.50868" lon="6.73234">
        <ele>2027.1</ele>
        <time>2021-08-12T11:54:16Z</time>
      </trkpt>
      <trkpt lat="45.50869" lon="6.73233">
        <ele>2027.2</ele>
        <time>2021-08-12T11:54:17Z</time>
      </trkpt>
      <trkpt lat="45.50869" lon="6.73233">
        <ele>2027.3</ele>
        <time>2021-08-12T11:54:18Z</time>
      </trkpt>
      <trkpt lat="45.5087" lon="6.73232">
        <ele>2027.3</ele>
        <time>2021-08-12T11:54:19Z</time>
      </trkpt>
      <trkpt lat="45.50871" lon="6.73232">
        <ele>2027.4</ele>
        <time>2021-08-12T11:54:20Z</time>
      </trkpt>
      <trkpt lat="45.50871" lon="6.73232">
        <ele>2027.5</ele>
        <time>2021-08-12T11:54:21Z</time>
      </trkpt>
      <trkpt lat="45.50872" lon="6.73231">
        <ele>2027.6</ele>
        <time>2021-08-12T11:54:22Z</time>
      </trkpt>
      <trkpt lat="45.50873" lon="6.73231">
        <ele>2027.7</ele>
        <time>2021-08-12T11:54:23Z</time>
      </trkpt>
      <trkpt lat="45.50873" lon="6.73231">
        <ele>2027.8</ele>
        <time>2021-08-12T11:54:24Z</time>
      </trkpt>
      <trkpt lat="45.50874" lon="6.73231">
        <ele>2027.8</ele>
        <time>2021-08-12T11:54:25Z</time>
      </trkpt>
      <trkpt lat="45.50875" lon="6.73231">
        <ele>2027.9</ele>
        <time>2021-08-12T11:54:26Z</time>
      </trkpt>
      <trkpt lat="45.50875" lon="6.73231">
        <ele>2028</ele>
        <time>2021-08-12T11:54:27Z</time>
      </trkpt>
      <trkpt lat="45.50876" lon="6.73231">
        <ele>2028.1</ele>
        <time>2021-08-12T11:54:28Z</time>
      </trkpt>
      <trkpt lat="45.50877" lon="6.73231">
        <ele>2028.2</ele>
        <time>2021-08-12T11:54:29Z</time>
      </trkpt>
      <trkpt lat="45.50877" lon="6.73231">
        <ele>2028.2</ele>
        <time>2021-08-12T11:54:30Z</time>
      </trkpt>
      <trkpt lat="45.50878" lon="6.73231">
        <ele>2028.3</ele>
        <time>2021-08-12T11:54:31Z</time>
      </trkpt>
      <trkpt lat="45.50878" lon="6.73231">
        <ele>2028.4</ele>
        <time>2021-08-12T11:54:32Z</time>
      </trkpt>
      <trkpt lat="45.50879" lon="6.73231">
        <ele>2028.4</ele>
        <time>2021-08-12T11:54:33Z</time>
      </trkpt>
      <trkpt lat="45.5088" lon="6.73231">
        <ele>2028.5</ele>
        <time>2021-08-12T11:54:34Z</time>
      </trkpt>
      <trkpt lat="45.5088" lon="6.7323">
        <ele>2028.6</ele>
        <time>2021-08-12T11:54:35Z</time>
      </trkpt>
      <trkpt lat="45.50881" lon="6.7323">
        <ele>2028.7</ele>
        <time>2021-08-12T11:54:36Z</time>
      </trkpt>
      <trkpt lat="45.50882" lon="6.7323">
        <ele>2028.8</ele>
        <time>2021-08-12T11:54:37Z</time>
      </trkpt>
      <trkpt lat="45.50882" lon="6.73229">
        <ele>2028.8</ele>
        <time>2021-08-12T11:54:38Z</time>
      </trkpt>
      <trkpt lat="45.50883" lon="6.73229">
        <ele>2028.9</ele>
        <time>2021-08-12T11:54:39Z</time>
      </trkpt>
      <trkpt lat="45.50884" lon="6.73228">
        <ele>2029</ele>
        <time>2021-08-12T11:54:40Z</time>
      </trkpt>
      <trkpt lat="45.50884" lon="6.73228">
        <ele>2029.1</ele>
        <time>2021-08-12T11:54:41Z</time>
      </trkpt>
      <trkpt lat="45.50885" lon="6.73227">
        <ele>2029.2</ele>
        <time>2021-08-12T11:54:42Z</time>
      </trkpt>
      <trkpt lat="45.50886" lon="6.73227">
        <ele>2029.2</ele>
        <time>2021-08-12T11:54:43Z</time>
      </trkpt>
      <trkpt lat="45.50887" lon="6.73226">
        <ele>2029.3</ele>
        <time>2021-08-12T11:54:44Z</time>
      </trkpt>
      <trkpt lat="45.50887" lon="6.73226">
        <ele>2029.4</ele>
        <time>2021-08-12T11:54:45Z</time>
      </trkpt>
      <trkpt lat="45.50888" lon="6.73225">
        <ele>2029.5</ele>
        <time>2021-08-12T11:54:46Z</time>
      </trkpt>
      <trkpt lat="45.50889" lon="6.73225">
        <ele>2029.5</ele>
        <time>2021-08-12T11:54:47Z</time>
      </trkpt>
      <trkpt lat="45.5089" lon="6.73224">
        <ele>2029.6</ele>
        <time>2021-08-12T11:54:48Z</time>
      </trkpt>
      <trkpt lat="45.5089" lon="6.73224">
        <ele>2029.7</ele>
        <time>2021-08-12T11:54:49Z</time>
      </trkpt>
      <trkpt lat="45.50891" lon="6.73224">
        <ele>2029.7</ele>
        <time>2021-08-12T11:54:50Z</time>
      </trkpt>
      <trkpt lat="45.50892" lon="6.73223">
        <ele>2029.8</ele>
        <time>2021-08-12T11:54:51Z</time>
      </trkpt>
      <trkpt lat="45.50893" lon="6.73223">
        <ele>2029.8</ele>
        <time>2021-08-12T11:54:52Z</time>
      </trkpt>
      <trkpt lat="45.50893" lon="6.73223">
        <ele>2029.9</ele>
        <time>2021-08-12T11:54:53Z</time>
      </trkpt>
      <trkpt lat="45.50894" lon="6.73222">
        <ele>2029.9</ele>
        <time>2021-08-12T11:54:54Z</time>
      </trkpt>
      <trkpt lat="45.50895" lon="6.73222">
        <ele>2030</ele>
        <time>2021-08-12T11:54:55Z</time>
      </trkpt>
      <trkpt lat="45.50895" lon="6.73222">
        <ele>2030</ele>
        <time>2021-08-12T11:54:56Z</time>
      </trkpt>
      <trkpt lat="45.50896" lon="6.73222">
        <ele>2030.1</ele>
        <time>2021-08-12T11:54:57Z</time>
      </trkpt>
      <trkpt lat="45.50896" lon="6.73222">
        <ele>2030.1</ele>
        <time>2021-08-12T11:54:58Z</time>
      </trkpt>
      <trkpt lat="45.50897" lon="6.73222">
        <ele>2030.1</ele>
        <time>2021-08-12T11:54:59Z</time>
      </trkpt>
      <trkpt lat="45.50897" lon="6.73222">
        <ele>2030.2</ele>
        <time>2021-08-12T11:55:00Z</time>
      </trkpt>
      <trkpt lat="45.50898" lon="6.73221">
        <ele>2030.2</ele>
        <time>2021-08-12T11:55:01Z</time>
      </trkpt>
      <trkpt lat="45.50899" lon="6.73221">
        <ele>2030.2</ele>
        <time>2021-08-12T11:55:02Z</time>
      </trkpt>
      <trkpt lat="45.50899" lon="6.73221">
        <ele>2030.3</ele>
        <time>2021-08-12T11:55:03Z</time>
      </trkpt>
      <trkpt lat="45.509" lon="6.73221">
        <ele>2030.3</ele>
        <time>2021-08-12T11:55:04Z</time>
      </trkpt>
      <trkpt lat="45.509" lon="6.73221">
        <ele>2030.3</ele>
        <time>2021-08-12T11:55:05Z</time>
      </trkpt>
      <trkpt lat="45.50901" lon="6.7322">
        <ele>2030.3</ele>
        <time>2021-08-12T11:55:06Z</time>
      </trkpt>
      <trkpt lat="45.50902" lon="6.7322">
        <ele>2030.4</ele>
        <time>2021-08-12T11:55:07Z</time>
      </trkpt>
      <trkpt lat="45.50902" lon="6.7322">
        <ele>2030.4</ele>
        <time>2021-08-12T11:55:08Z</time>
      </trkpt>
      <trkpt lat="45.50903" lon="6.73219">
        <ele>2030.4</ele>
        <time>2021-08-12T11:55:09Z</time>
      </trkpt>
      <trkpt lat="45.50904" lon="6.73219">
        <ele>2030.5</ele>
        <time>2021-08-12T11:55:10Z</time>
      </trkpt>
      <trkpt lat="45.50905" lon="6.73218">
        <ele>2030.5</ele>
        <time>2021-08-12T11:55:11Z</time>
      </trkpt>
      <trkpt lat="45.50905" lon="6.73218">
        <ele>2030.5</ele>
        <time>2021-08-12T11:55:12Z</time>
      </trkpt>
      <trkpt lat="45.50906" lon="6.73218">
        <ele>2030.5</ele>
        <time>2021-08-12T11:55:13Z</time>
      </trkpt>
      <trkpt lat="45.50907" lon="6.73217">
        <ele>2030.6</ele>
        <time>2021-08-12T11:55:14Z</time>
      </trkpt>
      <trkpt lat="45.50907" lon="6.73217">
        <ele>2030.6</ele>
        <time>2021-08-12T11:55:15Z</time>
      </trkpt>
      <trkpt lat="45.50908" lon="6.73216">
        <ele>2030.6</ele>
        <time>2021-08-12T11:55:16Z</time>
      </trkpt>
      <trkpt lat="45.50909" lon="6.73216">
        <ele>2030.6</ele>
        <time>2021-08-12T11:55:17Z</time>
      </trkpt>
      <trkpt lat="45.50909" lon="6.73215">
        <ele>2030.7</ele>
        <time>2021-08-12T11:55:18Z</time>
      </trkpt>
      <trkpt lat="45.5091" lon="6.73215">
        <ele>2030.7</ele>
        <time>2021-08-12T11:55:19Z</time>
      </trkpt>
      <trkpt lat="45.50911" lon="6.73214">
        <ele>2030.7</ele>
        <time>2021-08-12T11:55:20Z</time>
      </trkpt>
      <trkpt lat="45.50911" lon="6.73214">
        <ele>2030.7</ele>
        <time>2021-08-12T11:55:21Z</time>
      </trkpt>
      <trkpt lat="45.50911" lon="6.73214">
        <ele>2030.7</ele>
        <time>2021-08-12T11:55:22Z</time>
      </trkpt>
      <trkpt lat="45.50912" lon="6.73214">
        <ele>2030.7</ele>
        <time>2021-08-12T11:55:23Z</time>
      </trkpt>
      <trkpt lat="45.50912" lon="6.73213">
        <ele>2030.7</ele>
        <time>2021-08-12T11:55:24Z</time>
      </trkpt>
      <trkpt lat="45.50913" lon="6.73213">
        <ele>2030.7</ele>
        <time>2021-08-12T11:55:25Z</time>
      </trkpt>
      <trkpt lat="45.50913" lon="6.73213">
        <ele>2030.8</ele>
        <time>2021-08-12T11:55:26Z</time>
      </trkpt>
      <trkpt lat="45.50914" lon="6.73212">
        <ele>2030.8</ele>
        <time>2021-08-12T11:55:27Z</time>
      </trkpt>
      <trkpt lat="45.50915" lon="6.73211">
        <ele>2030.8</ele>
        <time>2021-08-12T11:55:28Z</time>
      </trkpt>
      <trkpt lat="45.50915" lon="6.7321">
        <ele>2030.8</ele>
        <time>2021-08-12T11:55:29Z</time>
      </trkpt>
      <trkpt lat="45.50916" lon="6.73209">
        <ele>2030.8</ele>
        <time>2021-08-12T11:55:30Z</time>
      </trkpt>
      <trkpt lat="45.50918" lon="6.73208">
        <ele>2030.8</ele>
        <time>2021-08-12T11:55:31Z</time>
      </trkpt>
      <trkpt lat="45.50919" lon="6.73207">
        <ele>2030.9</ele>
        <time>2021-08-12T11:55:32Z</time>
      </trkpt>
      <trkpt lat="45.5092" lon="6.73207">
        <ele>2030.9</ele>
        <time>2021-08-12T11:55:33Z</time>
      </trkpt>
      <trkpt lat="45.5092" lon="6.73206">
        <ele>2030.9</ele>
        <time>2021-08-12T11:55:34Z</time>
      </trkpt>
      <trkpt lat="45.50921" lon="6.73205">
        <ele>2030.9</ele>
        <time>2021-08-12T11:55:35Z</time>
      </trkpt>
      <trkpt lat="45.50922" lon="6.73204">
        <ele>2030.9</ele>
        <time>2021-08-12T11:55:36Z</time>
      </trkpt>
      <trkpt lat="45.50923" lon="6.73204">
        <ele>2030.9</ele>
        <time>2021-08-12T11:55:37Z</time>
      </trkpt>
      <trkpt lat="45.50924" lon="6.73203">
        <ele>2030.9</ele>
        <time>2021-08-12T11:55:38Z</time>
      </trkpt>
      <trkpt lat="45.50925" lon="6.73203">
        <ele>2030.9</ele>
        <time>2021-08-12T11:55:39Z</time>
      </trkpt>
      <trkpt lat="45.50925" lon="6.73202">
        <ele>2030.9</ele>
        <time>2021-08-12T11:55:40Z</time>
      </trkpt>
      <trkpt lat="45.50926" lon="6.73202">
        <ele>2031</ele>
        <time>2021-08-12T11:55:41Z</time>
      </trkpt>
      <trkpt lat="45.50927" lon="6.73202">
        <ele>2031</ele>
        <time>2021-08-12T11:55:42Z</time>
      </trkpt>
      <trkpt lat="45.50928" lon="6.73201">
        <ele>2031</ele>
        <time>2021-08-12T11:55:43Z</time>
      </trkpt>
      <trkpt lat="45.50928" lon="6.73201">
        <ele>2031</ele>
        <time>2021-08-12T11:55:44Z</time>
      </trkpt>
      <trkpt lat="45.50929" lon="6.732">
        <ele>2031</ele>
        <time>2021-08-12T11:55:45Z</time>
      </trkpt>
      <trkpt lat="45.5093" lon="6.732">
        <ele>2031</ele>
        <time>2021-08-12T11:55:46Z</time>
      </trkpt>
      <trkpt lat="45.50931" lon="6.73199">
        <ele>2031</ele>
        <time>2021-08-12T11:55:47Z</time>
      </trkpt>
      <trkpt lat="45.50931" lon="6.73199">
        <ele>2031</ele>
        <time>2021-08-12T11:55:48Z</time>
      </trkpt>
      <trkpt lat="45.50932" lon="6.73198">
        <ele>2031</ele>
        <time>2021-08-12T11:55:49Z</time>
      </trkpt>
      <trkpt lat="45.50933" lon="6.73198">
        <ele>2031</ele>
        <time>2021-08-12T11:55:50Z</time>
      </trkpt>
      <trkpt lat="45.50934" lon="6.73197">
        <ele>2031</ele>
        <time>2021-08-12T11:55:51Z</time>
      </trkpt>
      <trkpt lat="45.50934" lon="6.73197">
        <ele>2031</ele>
        <time>2021-08-12T11:55:52Z</time>
      </trkpt>
      <trkpt lat="45.50935" lon="6.73196">
        <ele>2031.1</ele>
        <time>2021-08-12T11:55:53Z</time>
      </trkpt>
      <trkpt lat="45.50936" lon="6.73196">
        <ele>2031.1</ele>
        <time>2021-08-12T11:55:54Z</time>
      </trkpt>
      <trkpt lat="45.50937" lon="6.73195">
        <ele>2031.1</ele>
        <time>2021-08-12T11:55:55Z</time>
      </trkpt>
      <trkpt lat="45.50938" lon="6.73195">
        <ele>2031.1</ele>
        <time>2021-08-12T11:55:56Z</time>
      </trkpt>
      <trkpt lat="45.50938" lon="6.73195">
        <ele>2031.1</ele>
        <time>2021-08-12T11:55:57Z</time>
      </trkpt>
      <trkpt lat="45.50939" lon="6.73194">
        <ele>2031.1</ele>
        <time>2021-08-12T11:55:58Z</time>
      </trkpt>
      <trkpt lat="45.5094" lon="6.73194">
        <ele>2031.1</ele>
        <time>2021-08-12T11:55:59Z</time>
      </trkpt>
      <trkpt lat="45.50941" lon="6.73193">
        <ele>2031.1</ele>
        <time>2021-08-12T11:56:00Z</time>
      </trkpt>
      <trkpt lat="45.50942" lon="6.73193">
        <ele>2031.1</ele>
        <time>2021-08-12T11:56:01Z</time>
      </trkpt>
      <trkpt lat="45.50942" lon="6.73193">
        <ele>2031.1</ele>
        <time>2021-08-12T11:56:02Z</time>
      </trkpt>
      <trkpt lat="45.50943" lon="6.73192">
        <ele>2031.1</ele>
        <time>2021-08-12T11:56:03Z</time>
      </trkpt>
      <trkpt lat="45.50944" lon="6.73192">
        <ele>2031.1</ele>
        <time>2021-08-12T11:56:04Z</time>
      </trkpt>
      <trkpt lat="45.50945" lon="6.73191">
        <ele>2031.2</ele>
        <time>2021-08-12T11:56:05Z</time>
      </trkpt>
      <trkpt lat="45.50946" lon="6.73191">
        <ele>2031.2</ele>
        <time>2021-08-12T11:56:06Z</time>
      </trkpt>
      <trkpt lat="45.50946" lon="6.73191">
        <ele>2031.2</ele>
        <time>2021-08-12T11:56:07Z</time>
      </trkpt>
      <trkpt lat="45.50947" lon="6.7319">
        <ele>2031.2</ele>
        <time>2021-08-12T11:56:08Z</time>
      </trkpt>
      <trkpt lat="45.50948" lon="6.7319">
        <ele>2031.2</ele>
        <time>2021-08-12T11:56:09Z</time>
      </trkpt>
      <trkpt lat="45.50949" lon="6.7319">
        <ele>2031.2</ele>
        <time>2021-08-12T11:56:10Z</time>
      </trkpt>
      <trkpt lat="45.50949" lon="6.7319">
        <ele>2031.2</ele>
        <time>2021-08-12T11:56:11Z</time>
      </trkpt>
      <trkpt lat="45.5095" lon="6.73189">
        <ele>2031.2</ele>
        <time>2021-08-12T11:56:12Z</time>
      </trkpt>
      <trkpt lat="45.5095" lon="6.73189">
        <ele>2031.3</ele>
        <time>2021-08-12T11:56:13Z</time>
      </trkpt>
      <trkpt lat="45.50951" lon="6.73189">
        <ele>2031.3</ele>
        <time>2021-08-12T11:56:14Z</time>
      </trkpt>
      <trkpt lat="45.50951" lon="6.73189">
        <ele>2031.3</ele>
        <time>2021-08-12T11:56:15Z</time>
      </trkpt>
      <trkpt lat="45.50952" lon="6.73188">
        <ele>2031.3</ele>
        <time>2021-08-12T11:56:16Z</time>
      </trkpt>
      <trkpt lat="45.50953" lon="6.73188">
        <ele>2031.3</ele>
        <time>2021-08-12T11:56:17Z</time>
      </trkpt>
      <trkpt lat="45.50953" lon="6.73188">
        <ele>2031.3</ele>
        <time>2021-08-12T11:56:18Z</time>
      </trkpt>
      <trkpt lat="45.50954" lon="6.73188">
        <ele>2031.3</ele>
        <time>2021-08-12T11:56:19Z</time>
      </trkpt>
      <trkpt lat="45.50955" lon="6.73188">
        <ele>2031.4</ele>
        <time>2021-08-12T11:56:20Z</time>
      </trkpt>
      <trkpt lat="45.50955" lon="6.73187">
        <ele>2031.4</ele>
        <time>2021-08-12T11:56:21Z</time>
      </trkpt>
      <trkpt lat="45.50956" lon="6.73187">
        <ele>2031.4</ele>
        <time>2021-08-12T11:56:22Z</time>
      </trkpt>
      <trkpt lat="45.50957" lon="6.73187">
        <ele>2031.4</ele>
        <time>2021-08-12T11:56:23Z</time>
      </trkpt>
      <trkpt lat="45.50958" lon="6.73187">
        <ele>2031.5</ele>
        <time>2021-08-12T11:56:24Z</time>
      </trkpt>
      <trkpt lat="45.50959" lon="6.73187">
        <ele>2031.5</ele>
        <time>2021-08-12T11:56:25Z</time>
      </trkpt>
      <trkpt lat="45.5096" lon="6.73187">
        <ele>2031.5</ele>
        <time>2021-08-12T11:56:26Z</time>
      </trkpt>
      <trkpt lat="45.50961" lon="6.73187">
        <ele>2031.5</ele>
        <time>2021-08-12T11:56:27Z</time>
      </trkpt>
      <trkpt lat="45.50962" lon="6.73187">
        <ele>2031.6</ele>
        <time>2021-08-12T11:56:28Z</time>
      </trkpt>
      <trkpt lat="45.50962" lon="6.73187">
        <ele>2031.6</ele>
        <time>2021-08-12T11:56:29Z</time>
      </trkpt>
      <trkpt lat="45.50963" lon="6.73187">
        <ele>2031.6</ele>
        <time>2021-08-12T11:56:30Z</time>
      </trkpt>
      <trkpt lat="45.50964" lon="6.73187">
        <ele>2031.6</ele>
        <time>2021-08-12T11:56:31Z</time>
      </trkpt>
      <trkpt lat="45.50965" lon="6.73187">
        <ele>2031.7</ele>
        <time>2021-08-12T11:56:32Z</time>
      </trkpt>
      <trkpt lat="45.50965" lon="6.73187">
        <ele>2031.7</ele>
        <time>2021-08-12T11:56:33Z</time>
      </trkpt>
      <trkpt lat="45.50966" lon="6.73187">
        <ele>2031.7</ele>
        <time>2021-08-12T11:56:34Z</time>
      </trkpt>
      <trkpt lat="45.50966" lon="6.73187">
        <ele>2031.7</ele>
        <time>2021-08-12T11:56:35Z</time>
      </trkpt>
      <trkpt lat="45.50967" lon="6.73187">
        <ele>2031.7</ele>
        <time>2021-08-12T11:56:36Z</time>
      </trkpt>
      <trkpt lat="45.50967" lon="6.73187">
        <ele>2031.7</ele>
        <time>2021-08-12T11:56:37Z</time>
      </trkpt>
      <trkpt lat="45.50968" lon="6.73187">
        <ele>2031.8</ele>
        <time>2021-08-12T11:56:38Z</time>
      </trkpt>
      <trkpt lat="45.50969" lon="6.73187">
        <ele>2031.8</ele>
        <time>2021-08-12T11:56:39Z</time>
      </trkpt>
      <trkpt lat="45.50969" lon="6.73187">
        <ele>2031.8</ele>
        <time>2021-08-12T11:56:40Z</time>
      </trkpt>
      <trkpt lat="45.5097" lon="6.73187">
        <ele>2031.8</ele>
        <time>2021-08-12T11:56:41Z</time>
      </trkpt>
      <trkpt lat="45.50971" lon="6.73187">
        <ele>2031.8</ele>
        <time>2021-08-12T11:56:42Z</time>
      </trkpt>
      <trkpt lat="45.50972" lon="6.73186">
        <ele>2031.9</ele>
        <time>2021-08-12T11:56:43Z</time>
      </trkpt>
      <trkpt lat="45.50972" lon="6.73186">
        <ele>2031.9</ele>
        <time>2021-08-12T11:56:44Z</time>
      </trkpt>
      <trkpt lat="45.50973" lon="6.73186">
        <ele>2031.9</ele>
        <time>2021-08-12T11:56:45Z</time>
      </trkpt>
      <trkpt lat="45.50974" lon="6.73185">
        <ele>2032</ele>
        <time>2021-08-12T11:56:46Z</time>
      </trkpt>
      <trkpt lat="45.50975" lon="6.73185">
        <ele>2032</ele>
        <time>2021-08-12T11:56:47Z</time>
      </trkpt>
      <trkpt lat="45.50976" lon="6.73184">
        <ele>2032</ele>
        <time>2021-08-12T11:56:48Z</time>
      </trkpt>
      <trkpt lat="45.50977" lon="6.73184">
        <ele>2032</ele>
        <time>2021-08-12T11:56:49Z</time>
      </trkpt>
      <trkpt lat="45.50978" lon="6.73183">
        <ele>2032.1</ele>
        <time>2021-08-12T11:56:50Z</time>
      </trkpt>
      <trkpt lat="45.50979" lon="6.73183">
        <ele>2032.1</ele>
        <time>2021-08-12T11:56:51Z</time>
      </trkpt>
      <trkpt lat="45.5098" lon="6.73182">
        <ele>2032.1</ele>
        <time>2021-08-12T11:56:52Z</time>
      </trkpt>
      <trkpt lat="45.50981" lon="6.73182">
        <ele>2032.2</ele>
        <time>2021-08-12T11:56:53Z</time>
      </trkpt>
      <trkpt lat="45.50982" lon="6.73181">
        <ele>2032.2</ele>
        <time>2021-08-12T11:56:54Z</time>
      </trkpt>
      <trkpt lat="45.50983" lon="6.73181">
        <ele>2032.2</ele>
        <time>2021-08-12T11:56:55Z</time>
      </trkpt>
      <trkpt lat="45.50984" lon="6.7318">
        <ele>2032.3</ele>
        <time>2021-08-12T11:56:56Z</time>
      </trkpt>
      <trkpt lat="45.50985" lon="6.7318">
        <ele>2032.3</ele>
        <time>2021-08-12T11:56:57Z</time>
      </trkpt>
      <trkpt lat="45.50986" lon="6.73179">
        <ele>2032.3</ele>
        <time>2021-08-12T11:56:58Z</time>
      </trkpt>
      <trkpt lat="45.50987" lon="6.73179">
        <ele>2032.3</ele>
        <time>2021-08-12T11:56:59Z</time>
      </trkpt>
      <trkpt lat="45.50987" lon="6.73179">
        <ele>2032.4</ele>
        <time>2021-08-12T11:57:00Z</time>
      </trkpt>
      <trkpt lat="45.50988" lon="6.73179">
        <ele>2032.4</ele>
        <time>2021-08-12T11:57:01Z</time>
      </trkpt>
      <trkpt lat="45.50989" lon="6.73178">
        <ele>2032.4</ele>
        <time>2021-08-12T11:57:02Z</time>
      </trkpt>
      <trkpt lat="45.5099" lon="6.73178">
        <ele>2032.4</ele>
        <time>2021-08-12T11:57:03Z</time>
      </trkpt>
      <trkpt lat="45.50991" lon="6.73178">
        <ele>2032.5</ele>
        <time>2021-08-12T11:57:04Z</time>
      </trkpt>
      <trkpt lat="45.50991" lon="6.73178">
        <ele>2032.5</ele>
        <time>2021-08-12T11:57:05Z</time>
      </trkpt>
      <trkpt lat="45.50992" lon="6.73177">
        <ele>2032.5</ele>
        <time>2021-08-12T11:57:06Z</time>
      </trkpt>
      <trkpt lat="45.50993" lon="6.73177">
        <ele>2032.6</ele>
        <time>2021-08-12T11:57:07Z</time>
      </trkpt>
      <trkpt lat="45.50993" lon="6.73177">
        <ele>2032.6</ele>
        <time>2021-08-12T11:57:08Z</time>
      </trkpt>
      <trkpt lat="45.50994" lon="6.73177">
        <ele>2032.6</ele>
        <time>2021-08-12T11:57:09Z</time>
      </trkpt>
      <trkpt lat="45.50995" lon="6.73177">
        <ele>2032.6</ele>
        <time>2021-08-12T11:57:10Z</time>
      </trkpt>
      <trkpt lat="45.50995" lon="6.73177">
        <ele>2032.7</ele>
        <time>2021-08-12T11:57:11Z</time>
      </trkpt>
      <trkpt lat="45.50996" lon="6.73177">
        <ele>2032.7</ele>
        <time>2021-08-12T11:57:12Z</time>
      </trkpt>
      <trkpt lat="45.50997" lon="6.73176">
        <ele>2032.7</ele>
        <time>2021-08-12T11:57:13Z</time>
      </trkpt>
      <trkpt lat="45.50997" lon="6.73176">
        <ele>2032.7</ele>
        <time>2021-08-12T11:57:14Z</time>
      </trkpt>
      <trkpt lat="45.50998" lon="6.73176">
        <ele>2032.8</ele>
        <time>2021-08-12T11:57:15Z</time>
      </trkpt>
      <trkpt lat="45.50999" lon="6.73176">
        <ele>2032.8</ele>
        <time>2021-08-12T11:57:16Z</time>
      </trkpt>
      <trkpt lat="45.50999" lon="6.73176">
        <ele>2032.8</ele>
        <time>2021-08-12T11:57:17Z</time>
      </trkpt>
      <trkpt lat="45.51" lon="6.73175">
        <ele>2032.8</ele>
        <time>2021-08-12T11:57:18Z</time>
      </trkpt>
      <trkpt lat="45.51001" lon="6.73175">
        <ele>2032.9</ele>
        <time>2021-08-12T11:57:19Z</time>
      </trkpt>
      <trkpt lat="45.51001" lon="6.73175">
        <ele>2032.9</ele>
        <time>2021-08-12T11:57:20Z</time>
      </trkpt>
      <trkpt lat="45.51002" lon="6.73175">
        <ele>2032.9</ele>
        <time>2021-08-12T11:57:21Z</time>
      </trkpt>
      <trkpt lat="45.51003" lon="6.73174">
        <ele>2032.9</ele>
        <time>2021-08-12T11:57:22Z</time>
      </trkpt>
      <trkpt lat="45.51004" lon="6.73174">
        <ele>2033</ele>
        <time>2021-08-12T11:57:23Z</time>
      </trkpt>
      <trkpt lat="45.51004" lon="6.73173">
        <ele>2033</ele>
        <time>2021-08-12T11:57:24Z</time>
      </trkpt>
      <trkpt lat="45.51005" lon="6.73173">
        <ele>2033</ele>
        <time>2021-08-12T11:57:25Z</time>
      </trkpt>
      <trkpt lat="45.51006" lon="6.73173">
        <ele>2033</ele>
        <time>2021-08-12T11:57:26Z</time>
      </trkpt>
      <trkpt lat="45.51006" lon="6.73172">
        <ele>2033.1</ele>
        <time>2021-08-12T11:57:27Z</time>
      </trkpt>
      <trkpt lat="45.51007" lon="6.73172">
        <ele>2033.1</ele>
        <time>2021-08-12T11:57:28Z</time>
      </trkpt>
      <trkpt lat="45.51007" lon="6.73172">
        <ele>2033.1</ele>
        <time>2021-08-12T11:57:29Z</time>
      </trkpt>
      <trkpt lat="45.51008" lon="6.73171">
        <ele>2033.1</ele>
        <time>2021-08-12T11:57:30Z</time>
      </trkpt>
      <trkpt lat="45.51009" lon="6.73171">
        <ele>2033.1</ele>
        <time>2021-08-12T11:57:31Z</time>
      </trkpt>
      <trkpt lat="45.51009" lon="6.7317">
        <ele>2033.1</ele>
        <time>2021-08-12T11:57:32Z</time>
      </trkpt>
      <trkpt lat="45.5101" lon="6.7317">
        <ele>2033.2</ele>
        <time>2021-08-12T11:57:33Z</time>
      </trkpt>
      <trkpt lat="45.5101" lon="6.7317">
        <ele>2033.2</ele>
        <time>2021-08-12T11:57:34Z</time>
      </trkpt>
      <trkpt lat="45.5101" lon="6.73169">
        <ele>2033.2</ele>
        <time>2021-08-12T11:57:35Z</time>
      </trkpt>
      <trkpt lat="45.51011" lon="6.73169">
        <ele>2033.2</ele>
        <time>2021-08-12T11:57:36Z</time>
      </trkpt>
      <trkpt lat="45.51011" lon="6.73169">
        <ele>2033.2</ele>
        <time>2021-08-12T11:57:37Z</time>
      </trkpt>
      <trkpt lat="45.51011" lon="6.73168">
        <ele>2033.2</ele>
        <time>2021-08-12T11:57:38Z</time>
      </trkpt>
      <trkpt lat="45.51012" lon="6.73168">
        <ele>2033.2</ele>
        <time>2021-08-12T11:57:39Z</time>
      </trkpt>
      <trkpt lat="45.51012" lon="6.73168">
        <ele>2033.2</ele>
        <time>2021-08-12T11:57:40Z</time>
      </trkpt>
      <trkpt lat="45.51012" lon="6.73168">
        <ele>2033.2</ele>
        <time>2021-08-12T11:57:41Z</time>
      </trkpt>
      <trkpt lat="45.51013" lon="6.73167">
        <ele>2033.2</ele>
        <time>2021-08-12T11:57:42Z</time>
      </trkpt>
      <trkpt lat="45.51013" lon="6.73167">
        <ele>2033.2</ele>
        <time>2021-08-12T11:57:43Z</time>
      </trkpt>
      <trkpt lat="45.51014" lon="6.73167">
        <ele>2033.2</ele>
        <time>2021-08-12T11:57:44Z</time>
      </trkpt>
      <trkpt lat="45.51014" lon="6.73167">
        <ele>2033.2</ele>
        <time>2021-08-12T11:57:45Z</time>
      </trkpt>
      <trkpt lat="45.51015" lon="6.73167">
        <ele>2033.2</ele>
        <time>2021-08-12T11:57:46Z</time>
      </trkpt>
      <trkpt lat="45.51015" lon="6.73167">
        <ele>2033.2</ele>
        <time>2021-08-12T11:57:47Z</time>
      </trkpt>
      <trkpt lat="45.51016" lon="6.73167">
        <ele>2033.3</ele>
        <time>2021-08-12T11:57:48Z</time>
      </trkpt>
      <trkpt lat="45.51016" lon="6.73167">
        <ele>2033.3</ele>
        <time>2021-08-12T11:57:49Z</time>
      </trkpt>
      <trkpt lat="45.51017" lon="6.73167">
        <ele>2033.3</ele>
        <time>2021-08-12T11:57:50Z</time>
      </trkpt>
      <trkpt lat="45.51017" lon="6.73167">
        <ele>2033.3</ele>
        <time>2021-08-12T11:57:51Z</time>
      </trkpt>
      <trkpt lat="45.51018" lon="6.73167">
        <ele>2033.3</ele>
        <time>2021-08-12T11:57:52Z</time>
      </trkpt>
      <trkpt lat="45.51019" lon="6.73167">
        <ele>2033.3</ele>
        <time>2021-08-12T11:57:53Z</time>
      </trkpt>
      <trkpt lat="45.51019" lon="6.73167">
        <ele>2033.3</ele>
        <time>2021-08-12T11:57:54Z</time>
      </trkpt>
      <trkpt lat="45.5102" lon="6.73166">
        <ele>2033.3</ele>
        <time>2021-08-12T11:57:55Z</time>
      </trkpt>
      <trkpt lat="45.5102" lon="6.73166">
        <ele>2033.3</ele>
        <time>2021-08-12T11:57:56Z</time>
      </trkpt>
      <trkpt lat="45.51021" lon="6.73166">
        <ele>2033.3</ele>
        <time>2021-08-12T11:57:57Z</time>
      </trkpt>
      <trkpt lat="45.51021" lon="6.73165">
        <ele>2033.3</ele>
        <time>2021-08-12T11:57:58Z</time>
      </trkpt>
      <trkpt lat="45.51022" lon="6.73165">
        <ele>2033.3</ele>
        <time>2021-08-12T11:57:59Z</time>
      </trkpt>
      <trkpt lat="45.51022" lon="6.73164">
        <ele>2033.3</ele>
        <time>2021-08-12T11:58:00Z</time>
      </trkpt>
      <trkpt lat="45.51023" lon="6.73164">
        <ele>2033.3</ele>
        <time>2021-08-12T11:58:01Z</time>
      </trkpt>
      <trkpt lat="45.51024" lon="6.73163">
        <ele>2033.3</ele>
        <time>2021-08-12T11:58:02Z</time>
      </trkpt>
      <trkpt lat="45.51024" lon="6.73163">
        <ele>2033.4</ele>
        <time>2021-08-12T11:58:03Z</time>
      </trkpt>
      <trkpt lat="45.51025" lon="6.73162">
        <ele>2033.4</ele>
        <time>2021-08-12T11:58:04Z</time>
      </trkpt>
      <trkpt lat="45.51026" lon="6.73162">
        <ele>2033.4</ele>
        <time>2021-08-12T11:58:05Z</time>
      </trkpt>
      <trkpt lat="45.51026" lon="6.73162">
        <ele>2033.4</ele>
        <time>2021-08-12T11:58:06Z</time>
      </trkpt>
      <trkpt lat="45.51027" lon="6.73162">
        <ele>2033.4</ele>
        <time>2021-08-12T11:58:07Z</time>
      </trkpt>
      <trkpt lat="45.51028" lon="6.73162">
        <ele>2033.4</ele>
        <time>2021-08-12T11:58:08Z</time>
      </trkpt>
      <trkpt lat="45.51029" lon="6.73162">
        <ele>2033.4</ele>
        <time>2021-08-12T11:58:09Z</time>
      </trkpt>
      <trkpt lat="45.51029" lon="6.73162">
        <ele>2033.5</ele>
        <time>2021-08-12T11:58:10Z</time>
      </trkpt>
      <trkpt lat="45.5103" lon="6.73162">
        <ele>2033.5</ele>
        <time>2021-08-12T11:58:11Z</time>
      </trkpt>
      <trkpt lat="45.51031" lon="6.73163">
        <ele>2033.5</ele>
        <time>2021-08-12T11:58:12Z</time>
      </trkpt>
      <trkpt lat="45.51031" lon="6.73163">
        <ele>2033.5</ele>
        <time>2021-08-12T11:58:13Z</time>
      </trkpt>
      <trkpt lat="45.51032" lon="6.73163">
        <ele>2033.6</ele>
        <time>2021-08-12T11:58:14Z</time>
      </trkpt>
      <trkpt lat="45.51033" lon="6.73164">
        <ele>2033.6</ele>
        <time>2021-08-12T11:58:15Z</time>
      </trkpt>
      <trkpt lat="45.51034" lon="6.73165">
        <ele>2033.6</ele>
        <time>2021-08-12T11:58:16Z</time>
      </trkpt>
      <trkpt lat="45.51034" lon="6.73165">
        <ele>2033.6</ele>
        <time>2021-08-12T11:58:17Z</time>
      </trkpt>
      <trkpt lat="45.51035" lon="6.73166">
        <ele>2033.7</ele>
        <time>2021-08-12T11:58:18Z</time>
      </trkpt>
      <trkpt lat="45.51036" lon="6.73166">
        <ele>2033.7</ele>
        <time>2021-08-12T11:58:19Z</time>
      </trkpt>
      <trkpt lat="45.51037" lon="6.73167">
        <ele>2033.7</ele>
        <time>2021-08-12T11:58:20Z</time>
      </trkpt>
      <trkpt lat="45.51037" lon="6.73168">
        <ele>2033.7</ele>
        <time>2021-08-12T11:58:21Z</time>
      </trkpt>
      <trkpt lat="45.51038" lon="6.73168">
        <ele>2033.8</ele>
        <time>2021-08-12T11:58:22Z</time>
      </trkpt>
      <trkpt lat="45.51039" lon="6.73169">
        <ele>2033.8</ele>
        <time>2021-08-12T11:58:23Z</time>
      </trkpt>
      <trkpt lat="45.51039" lon="6.73169">
        <ele>2033.8</ele>
        <time>2021-08-12T11:58:24Z</time>
      </trkpt>
      <trkpt lat="45.5104" lon="6.7317">
        <ele>2033.8</ele>
        <time>2021-08-12T11:58:25Z</time>
      </trkpt>
      <trkpt lat="45.51041" lon="6.7317">
        <ele>2033.9</ele>
        <time>2021-08-12T11:58:26Z</time>
      </trkpt>
      <trkpt lat="45.51042" lon="6.7317">
        <ele>2033.9</ele>
        <time>2021-08-12T11:58:27Z</time>
      </trkpt>
      <trkpt lat="45.51042" lon="6.73171">
        <ele>2033.9</ele>
        <time>2021-08-12T11:58:28Z</time>
      </trkpt>
      <trkpt lat="45.51043" lon="6.73171">
        <ele>2033.9</ele>
        <time>2021-08-12T11:58:29Z</time>
      </trkpt>
      <trkpt lat="45.51044" lon="6.73171">
        <ele>2034</ele>
        <time>2021-08-12T11:58:30Z</time>
      </trkpt>
      <trkpt lat="45.51045" lon="6.73171">
        <ele>2034</ele>
        <time>2021-08-12T11:58:31Z</time>
      </trkpt>
      <trkpt lat="45.51046" lon="6.73171">
        <ele>2034</ele>
        <time>2021-08-12T11:58:32Z</time>
      </trkpt>
      <trkpt lat="45.51046" lon="6.7317">
        <ele>2034.1</ele>
        <time>2021-08-12T11:58:33Z</time>
      </trkpt>
      <trkpt lat="45.51047" lon="6.7317">
        <ele>2034.1</ele>
        <time>2021-08-12T11:58:34Z</time>
      </trkpt>
      <trkpt lat="45.51048" lon="6.7317">
        <ele>2034.1</ele>
        <time>2021-08-12T11:58:35Z</time>
      </trkpt>
      <trkpt lat="45.51049" lon="6.7317">
        <ele>2034.2</ele>
        <time>2021-08-12T11:58:36Z</time>
      </trkpt>
      <trkpt lat="45.5105" lon="6.7317">
        <ele>2034.2</ele>
        <time>2021-08-12T11:58:37Z</time>
      </trkpt>
      <trkpt lat="45.5105" lon="6.73169">
        <ele>2034.2</ele>
        <time>2021-08-12T11:58:38Z</time>
      </trkpt>
      <trkpt lat="45.51051" lon="6.73169">
        <ele>2034.3</ele>
        <time>2021-08-12T11:58:39Z</time>
      </trkpt>
      <trkpt lat="45.51052" lon="6.73169">
        <ele>2034.3</ele>
        <time>2021-08-12T11:58:40Z</time>
      </trkpt>
      <trkpt lat="45.51053" lon="6.73168">
        <ele>2034.4</ele>
        <time>2021-08-12T11:58:41Z</time>
      </trkpt>
      <trkpt lat="45.51054" lon="6.73168">
        <ele>2034.4</ele>
        <time>2021-08-12T11:58:42Z</time>
      </trkpt>
      <trkpt lat="45.51054" lon="6.73167">
        <ele>2034.5</ele>
        <time>2021-08-12T11:58:43Z</time>
      </trkpt>
      <trkpt lat="45.51055" lon="6.73167">
        <ele>2034.5</ele>
        <time>2021-08-12T11:58:44Z</time>
      </trkpt>
      <trkpt lat="45.51056" lon="6.73167">
        <ele>2034.6</ele>
        <time>2021-08-12T11:58:45Z</time>
      </trkpt>
      <trkpt lat="45.51056" lon="6.73166">
        <ele>2034.6</ele>
        <time>2021-08-12T11:58:46Z</time>
      </trkpt>
      <trkpt lat="45.51057" lon="6.73166">
        <ele>2034.7</ele>
        <time>2021-08-12T11:58:47Z</time>
      </trkpt>
      <trkpt lat="45.51058" lon="6.73165">
        <ele>2034.7</ele>
        <time>2021-08-12T11:58:48Z</time>
      </trkpt>
      <trkpt lat="45.51058" lon="6.73165">
        <ele>2034.8</ele>
        <time>2021-08-12T11:58:49Z</time>
      </trkpt>
      <trkpt lat="45.51059" lon="6.73165">
        <ele>2034.8</ele>
        <time>2021-08-12T11:58:50Z</time>
      </trkpt>
      <trkpt lat="45.5106" lon="6.73164">
        <ele>2034.9</ele>
        <time>2021-08-12T11:58:51Z</time>
      </trkpt>
      <trkpt lat="45.5106" lon="6.73164">
        <ele>2034.9</ele>
        <time>2021-08-12T11:58:52Z</time>
      </trkpt>
      <trkpt lat="45.51061" lon="6.73164">
        <ele>2035</ele>
        <time>2021-08-12T11:58:53Z</time>
      </trkpt>
      <trkpt lat="45.51061" lon="6.73164">
        <ele>2035</ele>
        <time>2021-08-12T11:58:54Z</time>
      </trkpt>
      <trkpt lat="45.51062" lon="6.73163">
        <ele>2035</ele>
        <time>2021-08-12T11:58:55Z</time>
      </trkpt>
      <trkpt lat="45.51062" lon="6.73163">
        <ele>2035.1</ele>
        <time>2021-08-12T11:58:56Z</time>
      </trkpt>
      <trkpt lat="45.51062" lon="6.73163">
        <ele>2035.1</ele>
        <time>2021-08-12T11:58:57Z</time>
      </trkpt>
      <trkpt lat="45.51063" lon="6.73163">
        <ele>2035.1</ele>
        <time>2021-08-12T11:58:58Z</time>
      </trkpt>
      <trkpt lat="45.51063" lon="6.73163">
        <ele>2035.2</ele>
        <time>2021-08-12T11:58:59Z</time>
      </trkpt>
      <trkpt lat="45.51063" lon="6.73163">
        <ele>2035.2</ele>
        <time>2021-08-12T11:59:00Z</time>
      </trkpt>
      <trkpt lat="45.51064" lon="6.73163">
        <ele>2035.2</ele>
        <time>2021-08-12T11:59:01Z</time>
      </trkpt>
      <trkpt lat="45.51064" lon="6.73162">
        <ele>2035.2</ele>
        <time>2021-08-12T11:59:02Z</time>
      </trkpt>
      <trkpt lat="45.51064" lon="6.73162">
        <ele>2035.2</ele>
        <time>2021-08-12T11:59:03Z</time>
      </trkpt>
      <trkpt lat="45.51064" lon="6.73162">
        <ele>2035.3</ele>
        <time>2021-08-12T11:59:04Z</time>
      </trkpt>
      <trkpt lat="45.51065" lon="6.73162">
        <ele>2035.3</ele>
        <time>2021-08-12T11:59:05Z</time>
      </trkpt>
      <trkpt lat="45.51065" lon="6.73162">
        <ele>2035.3</ele>
        <time>2021-08-12T11:59:06Z</time>
      </trkpt>
      <trkpt lat="45.51065" lon="6.73162">
        <ele>2035.3</ele>
        <time>2021-08-12T11:59:07Z</time>
      </trkpt>
      <trkpt lat="45.51065" lon="6.73162">
        <ele>2035.3</ele>
        <time>2021-08-12T11:59:08Z</time>
      </trkpt>
      <trkpt lat="45.51065" lon="6.73162">
        <ele>2035.3</ele>
        <time>2021-08-12T11:59:09Z</time>
      </trkpt>
      <trkpt lat="45.51065" lon="6.73162">
        <ele>2035.3</ele>
        <time>2021-08-12T11:59:10Z</time>
      </trkpt>
      <trkpt lat="45.51065" lon="6.73162">
        <ele>2035.3</ele>
        <time>2021-08-12T11:59:11Z</time>
      </trkpt>
      <trkpt lat="45.51065" lon="6.73162">
        <ele>2035.3</ele>
        <time>2021-08-12T11:59:12Z</time>
      </trkpt>
      <trkpt lat="45.51065" lon="6.73162">
        <ele>2035.3</ele>
        <time>2021-08-12T11:59:13Z</time>
      </trkpt>
      <trkpt lat="45.51065" lon="6.73162">
        <ele>2035.3</ele>
        <time>2021-08-12T11:59:14Z</time>
      </trkpt>
      <trkpt lat="45.51065" lon="6.73162">
        <ele>2035.3</ele>
        <time>2021-08-12T11:59:15Z</time>
      </trkpt>
      <trkpt lat="45.51065" lon="6.73162">
        <ele>2035.3</ele>
        <time>2021-08-12T11:59:16Z</time>
      </trkpt>
      <trkpt lat="45.51065" lon="6.73162">
        <ele>2035.3</ele>
        <time>2021-08-12T11:59:17Z</time>
      </trkpt>
      <trkpt lat="45.51065" lon="6.73162">
        <ele>2035.3</ele>
        <time>2021-08-12T11:59:18Z</time>
      </trkpt>
      <trkpt lat="45.51065" lon="6.73162">
        <ele>2035.3</ele>
        <time>2021-08-12T11:59:19Z</time>
      </trkpt>
      <trkpt lat="45.51066" lon="6.73162">
        <ele>2035.3</ele>
        <time>2021-08-12T11:59:20Z</time>
      </trkpt>
      <trkpt lat="45.51066" lon="6.73162">
        <ele>2035.4</ele>
        <time>2021-08-12T11:59:21Z</time>
      </trkpt>
      <trkpt lat="45.51066" lon="6.73163">
        <ele>2035.4</ele>
        <time>2021-08-12T11:59:22Z</time>
      </trkpt>
      <trkpt lat="45.51066" lon="6.73163">
        <ele>2035.4</ele>
        <time>2021-08-12T11:59:23Z</time>
      </trkpt>
      <trkpt lat="45.51066" lon="6.73163">
        <ele>2035.4</ele>
        <time>2021-08-12T11:59:24Z</time>
      </trkpt>
      <trkpt lat="45.51067" lon="6.73163">
        <ele>2035.5</ele>
        <time>2021-08-12T11:59:25Z</time>
      </trkpt>
      <trkpt lat="45.51067" lon="6.73164">
        <ele>2035.5</ele>
        <time>2021-08-12T11:59:26Z</time>
      </trkpt>
      <trkpt lat="45.51068" lon="6.73164">
        <ele>2035.5</ele>
        <time>2021-08-12T11:59:27Z</time>
      </trkpt>
      <trkpt lat="45.51069" lon="6.73164">
        <ele>2035.6</ele>
        <time>2021-08-12T11:59:28Z</time>
      </trkpt>
      <trkpt lat="45.51069" lon="6.73165">
        <ele>2035.7</ele>
        <time>2021-08-12T11:59:29Z</time>
      </trkpt>
      <trkpt lat="45.5107" lon="6.73165">
        <ele>2035.7</ele>
        <time>2021-08-12T11:59:30Z</time>
      </trkpt>
      <trkpt lat="45.51071" lon="6.73166">
        <ele>2035.8</ele>
        <time>2021-08-12T11:59:31Z</time>
      </trkpt>
      <trkpt lat="45.51072" lon="6.73166">
        <ele>2035.9</ele>
        <time>2021-08-12T11:59:32Z</time>
      </trkpt>
      <trkpt lat="45.51073" lon="6.73167">
        <ele>2035.9</ele>
        <time>2021-08-12T11:59:33Z</time>
      </trkpt>
      <trkpt lat="45.51074" lon="6.73167">
        <ele>2036</ele>
        <time>2021-08-12T11:59:34Z</time>
      </trkpt>
      <trkpt lat="45.51075" lon="6.73167">
        <ele>2036.1</ele>
        <time>2021-08-12T11:59:35Z</time>
      </trkpt>
      <trkpt lat="45.51076" lon="6.73168">
        <ele>2036.1</ele>
        <time>2021-08-12T11:59:36Z</time>
      </trkpt>
      <trkpt lat="45.51077" lon="6.73168">
        <ele>2036.2</ele>
        <time>2021-08-12T11:59:37Z</time>
      </trkpt>
      <trkpt lat="45.51078" lon="6.73168">
        <ele>2036.3</ele>
        <time>2021-08-12T11:59:38Z</time>
      </trkpt>
      <trkpt lat="45.51079" lon="6.73168">
        <ele>2036.3</ele>
        <time>2021-08-12T11:59:39Z</time>
      </trkpt>
      <trkpt lat="45.5108" lon="6.73168">
        <ele>2036.4</ele>
        <time>2021-08-12T11:59:40Z</time>
      </trkpt>
      <trkpt lat="45.5108" lon="6.73168">
        <ele>2036.4</ele>
        <time>2021-08-12T11:59:41Z</time>
      </trkpt>
      <trkpt lat="45.51081" lon="6.73169">
        <ele>2036.5</ele>
        <time>2021-08-12T11:59:42Z</time>
      </trkpt>
      <trkpt lat="45.51082" lon="6.73169">
        <ele>2036.6</ele>
        <time>2021-08-12T11:59:43Z</time>
      </trkpt>
      <trkpt lat="45.51083" lon="6.73169">
        <ele>2036.6</ele>
        <time>2021-08-12T11:59:44Z</time>
      </trkpt>
      <trkpt lat="45.51084" lon="6.73169">
        <ele>2036.7</ele>
        <time>2021-08-12T11:59:45Z</time>
      </trkpt>
      <trkpt lat="45.51084" lon="6.73169">
        <ele>2036.7</ele>
        <time>2021-08-12T11:59:46Z</time>
      </trkpt>
      <trkpt lat="45.51085" lon="6.73169">
        <ele>2036.8</ele>
        <time>2021-08-12T11:59:47Z</time>
      </trkpt>
      <trkpt lat="45.51086" lon="6.73169">
        <ele>2036.8</ele>
        <time>2021-08-12T11:59:48Z</time>
      </trkpt>
      <trkpt lat="45.51087" lon="6.73169">
        <ele>2036.9</ele>
        <time>2021-08-12T11:59:49Z</time>
      </trkpt>
      <trkpt lat="45.51087" lon="6.7317">
        <ele>2036.9</ele>
        <time>2021-08-12T11:59:50Z</time>
      </trkpt>
      <trkpt lat="45.51088" lon="6.7317">
        <ele>2037</ele>
        <time>2021-08-12T11:59:51Z</time>
      </trkpt>
      <trkpt lat="45.51088" lon="6.7317">
        <ele>2037</ele>
        <time>2021-08-12T11:59:52Z</time>
      </trkpt>
      <trkpt lat="45.51089" lon="6.7317">
        <ele>2037.1</ele>
        <time>2021-08-12T11:59:53Z</time>
      </trkpt>
      <trkpt lat="45.51089" lon="6.7317">
        <ele>2037.1</ele>
        <time>2021-08-12T11:59:54Z</time>
      </trkpt>
      <trkpt lat="45.5109" lon="6.7317">
        <ele>2037.2</ele>
        <time>2021-08-12T11:59:55Z</time>
      </trkpt>
      <trkpt lat="45.5109" lon="6.7317">
        <ele>2037.2</ele>
        <time>2021-08-12T11:59:56Z</time>
      </trkpt>
      <trkpt lat="45.51091" lon="6.73171">
        <ele>2037.2</ele>
        <time>2021-08-12T11:59:57Z</time>
      </trkpt>
      <trkpt lat="45.51091" lon="6.73171">
        <ele>2037.3</ele>
        <time>2021-08-12T11:59:58Z</time>
      </trkpt>
      <trkpt lat="45.51092" lon="6.73171">
        <ele>2037.3</ele>
        <time>2021-08-12T11:59:59Z</time>
      </trkpt>
      <trkpt lat="45.51092" lon="6.73171">
        <ele>2037.4</ele>
        <time>2021-08-12T12:00:00Z</time>
      </trkpt>
      <trkpt lat="45.51093" lon="6.7317">
        <ele>2037.4</ele>
        <time>2021-08-12T12:00:01Z</time>
      </trkpt>
      <trkpt lat="45.51093" lon="6.7317">
        <ele>2037.4</ele>
        <time>2021-08-12T12:00:02Z</time>
      </trkpt>
      <trkpt lat="45.51094" lon="6.7317">
        <ele>2037.5</ele>
        <time>2021-08-12T12:00:03Z</time>
      </trkpt>
      <trkpt lat="45.51094" lon="6.7317">
        <ele>2037.5</ele>
        <time>2021-08-12T12:00:04Z</time>
      </trkpt>
      <trkpt lat="45.51095" lon="6.7317">
        <ele>2037.6</ele>
        <time>2021-08-12T12:00:05Z</time>
      </trkpt>
      <trkpt lat="45.51095" lon="6.73169">
        <ele>2037.7</ele>
        <time>2021-08-12T12:00:06Z</time>
      </trkpt>
      <trkpt lat="45.51096" lon="6.73169">
        <ele>2037.8</ele>
        <time>2021-08-12T12:00:07Z</time>
      </trkpt>
      <trkpt lat="45.51097" lon="6.73168">
        <ele>2037.8</ele>
        <time>2021-08-12T12:00:08Z</time>
      </trkpt>
      <trkpt lat="45.51098" lon="6.73168">
        <ele>2037.9</ele>
        <time>2021-08-12T12:00:09Z</time>
      </trkpt>
      <trkpt lat="45.51098" lon="6.73167">
        <ele>2038</ele>
        <time>2021-08-12T12:00:10Z</time>
      </trkpt>
      <trkpt lat="45.51099" lon="6.73167">
        <ele>2038.1</ele>
        <time>2021-08-12T12:00:11Z</time>
      </trkpt>
      <trkpt lat="45.511" lon="6.73166">
        <ele>2038.1</ele>
        <time>2021-08-12T12:00:12Z</time>
      </trkpt>
      <trkpt lat="45.511" lon="6.73166">
        <ele>2038.2</ele>
        <time>2021-08-12T12:00:13Z</time>
      </trkpt>
      <trkpt lat="45.51101" lon="6.73165">
        <ele>2038.3</ele>
        <time>2021-08-12T12:00:14Z</time>
      </trkpt>
      <trkpt lat="45.51102" lon="6.73164">
        <ele>2038.4</ele>
        <time>2021-08-12T12:00:15Z</time>
      </trkpt>
      <trkpt lat="45.51102" lon="6.73164">
        <ele>2038.4</ele>
        <time>2021-08-12T12:00:16Z</time>
      </trkpt>
      <trkpt lat="45.51103" lon="6.73163">
        <ele>2038.5</ele>
        <time>2021-08-12T12:00:17Z</time>
      </trkpt>
      <trkpt lat="45.51104" lon="6.73163">
        <ele>2038.6</ele>
        <time>2021-08-12T12:00:18Z</time>
      </trkpt>
      <trkpt lat="45.51104" lon="6.73162">
        <ele>2038.7</ele>
        <time>2021-08-12T12:00:19Z</time>
      </trkpt>
      <trkpt lat="45.51105" lon="6.73162">
        <ele>2038.7</ele>
        <time>2021-08-12T12:00:20Z</time>
      </trkpt>
      <trkpt lat="45.51105" lon="6.73161">
        <ele>2038.8</ele>
        <time>2021-08-12T12:00:21Z</time>
      </trkpt>
      <trkpt lat="45.51106" lon="6.73161">
        <ele>2038.8</ele>
        <time>2021-08-12T12:00:22Z</time>
      </trkpt>
      <trkpt lat="45.51106" lon="6.7316">
        <ele>2038.9</ele>
        <time>2021-08-12T12:00:23Z</time>
      </trkpt>
      <trkpt lat="45.51107" lon="6.73159">
        <ele>2039</ele>
        <time>2021-08-12T12:00:24Z</time>
      </trkpt>
      <trkpt lat="45.51107" lon="6.73159">
        <ele>2039</ele>
        <time>2021-08-12T12:00:25Z</time>
      </trkpt>
      <trkpt lat="45.51107" lon="6.73159">
        <ele>2039.1</ele>
        <time>2021-08-12T12:00:26Z</time>
      </trkpt>
      <trkpt lat="45.51108" lon="6.73158">
        <ele>2039.1</ele>
        <time>2021-08-12T12:00:27Z</time>
      </trkpt>
      <trkpt lat="45.51108" lon="6.73158">
        <ele>2039.2</ele>
        <time>2021-08-12T12:00:28Z</time>
      </trkpt>
      <trkpt lat="45.51109" lon="6.73157">
        <ele>2039.3</ele>
        <time>2021-08-12T12:00:29Z</time>
      </trkpt>
      <trkpt lat="45.51109" lon="6.73157">
        <ele>2039.3</ele>
        <time>2021-08-12T12:00:30Z</time>
      </trkpt>
      <trkpt lat="45.5111" lon="6.73157">
        <ele>2039.4</ele>
        <time>2021-08-12T12:00:31Z</time>
      </trkpt>
      <trkpt lat="45.5111" lon="6.73156">
        <ele>2039.4</ele>
        <time>2021-08-12T12:00:32Z</time>
      </trkpt>
      <trkpt lat="45.5111" lon="6.73156">
        <ele>2039.4</ele>
        <time>2021-08-12T12:00:33Z</time>
      </trkpt>
      <trkpt lat="45.51111" lon="6.73156">
        <ele>2039.5</ele>
        <time>2021-08-12T12:00:34Z</time>
      </trkpt>
      <trkpt lat="45.51111" lon="6.73156">
        <ele>2039.6</ele>
        <time>2021-08-12T12:00:35Z</time>
      </trkpt>
      <trkpt lat="45.51112" lon="6.73155">
        <ele>2039.6</ele>
        <time>2021-08-12T12:00:36Z</time>
      </trkpt>
      <trkpt lat="45.51112" lon="6.73155">
        <ele>2039.7</ele>
        <time>2021-08-12T12:00:37Z</time>
      </trkpt>
      <trkpt lat="45.51113" lon="6.73155">
        <ele>2039.7</ele>
        <time>2021-08-12T12:00:38Z</time>
      </trkpt>
      <trkpt lat="45.51113" lon="6.73155">
        <ele>2039.7</ele>
        <time>2021-08-12T12:00:39Z</time>
      </trkpt>
      <trkpt lat="45.51114" lon="6.73155">
        <ele>2039.8</ele>
        <time>2021-08-12T12:00:40Z</time>
      </trkpt>
      <trkpt lat="45.51115" lon="6.73155">
        <ele>2039.8</ele>
        <time>2021-08-12T12:00:41Z</time>
      </trkpt>
      <trkpt lat="45.51115" lon="6.73155">
        <ele>2039.9</ele>
        <time>2021-08-12T12:00:42Z</time>
      </trkpt>
      <trkpt lat="45.51116" lon="6.73154">
        <ele>2040</ele>
        <time>2021-08-12T12:00:43Z</time>
      </trkpt>
      <trkpt lat="45.51116" lon="6.73154">
        <ele>2040</ele>
        <time>2021-08-12T12:00:44Z</time>
      </trkpt>
      <trkpt lat="45.51117" lon="6.73154">
        <ele>2040.1</ele>
        <time>2021-08-12T12:00:45Z</time>
      </trkpt>
      <trkpt lat="45.51118" lon="6.73153">
        <ele>2040.1</ele>
        <time>2021-08-12T12:00:46Z</time>
      </trkpt>
      <trkpt lat="45.51118" lon="6.73153">
        <ele>2040.2</ele>
        <time>2021-08-12T12:00:47Z</time>
      </trkpt>
      <trkpt lat="45.51119" lon="6.73153">
        <ele>2040.2</ele>
        <time>2021-08-12T12:00:48Z</time>
      </trkpt>
      <trkpt lat="45.5112" lon="6.73153">
        <ele>2040.3</ele>
        <time>2021-08-12T12:00:49Z</time>
      </trkpt>
      <trkpt lat="45.5112" lon="6.73152">
        <ele>2040.3</ele>
        <time>2021-08-12T12:00:50Z</time>
      </trkpt>
      <trkpt lat="45.51121" lon="6.73152">
        <ele>2040.4</ele>
        <time>2021-08-12T12:00:51Z</time>
      </trkpt>
      <trkpt lat="45.51122" lon="6.73152">
        <ele>2040.4</ele>
        <time>2021-08-12T12:00:52Z</time>
      </trkpt>
      <trkpt lat="45.51122" lon="6.73152">
        <ele>2040.4</ele>
        <time>2021-08-12T12:00:53Z</time>
      </trkpt>
      <trkpt lat="45.51123" lon="6.73152">
        <ele>2040.5</ele>
        <time>2021-08-12T12:00:54Z</time>
      </trkpt>
      <trkpt lat="45.51123" lon="6.73152">
        <ele>2040.5</ele>
        <time>2021-08-12T12:00:55Z</time>
      </trkpt>
      <trkpt lat="45.51124" lon="6.73152">
        <ele>2040.5</ele>
        <time>2021-08-12T12:00:56Z</time>
      </trkpt>
      <trkpt lat="45.51124" lon="6.73152">
        <ele>2040.5</ele>
        <time>2021-08-12T12:00:57Z</time>
      </trkpt>
      <trkpt lat="45.51124" lon="6.73152">
        <ele>2040.5</ele>
        <time>2021-08-12T12:00:58Z</time>
      </trkpt>
      <trkpt lat="45.51125" lon="6.73152">
        <ele>2040.5</ele>
        <time>2021-08-12T12:00:59Z</time>
      </trkpt>
      <trkpt lat="45.51124" lon="6.73152">
        <ele>2040.5</ele>
        <time>2021-08-12T12:01:00Z</time>
      </trkpt>
      <trkpt lat="45.51124" lon="6.73152">
        <ele>2040.6</ele>
        <time>2021-08-12T12:01:01Z</time>
      </trkpt>
      <trkpt lat="45.51124" lon="6.73152">
        <ele>2040.6</ele>
        <time>2021-08-12T12:01:02Z</time>
      </trkpt>
      <trkpt lat="45.51124" lon="6.73152">
        <ele>2040.6</ele>
        <time>2021-08-12T12:01:03Z</time>
      </trkpt>
      <trkpt lat="45.51124" lon="6.73152">
        <ele>2040.6</ele>
        <time>2021-08-12T12:01:04Z</time>
      </trkpt>
      <trkpt lat="45.51124" lon="6.73152">
        <ele>2040.6</ele>
        <time>2021-08-12T12:01:05Z</time>
      </trkpt>
      <trkpt lat="45.51124" lon="6.73152">
        <ele>2040.6</ele>
        <time>2021-08-12T12:01:06Z</time>
      </trkpt>
      <trkpt lat="45.51125" lon="6.73152">
        <ele>2040.6</ele>
        <time>2021-08-12T12:01:07Z</time>
      </trkpt>
      <trkpt lat="45.51125" lon="6.73152">
        <ele>2040.6</ele>
        <time>2021-08-12T12:01:08Z</time>
      </trkpt>
      <trkpt lat="45.51125" lon="6.73152">
        <ele>2040.6</ele>
        <time>2021-08-12T12:01:09Z</time>
      </trkpt>
      <trkpt lat="45.51126" lon="6.73152">
        <ele>2040.6</ele>
        <time>2021-08-12T12:01:10Z</time>
      </trkpt>
      <trkpt lat="45.51126" lon="6.73151">
        <ele>2040.6</ele>
        <time>2021-08-12T12:01:11Z</time>
      </trkpt>
      <trkpt lat="45.51127" lon="6.73151">
        <ele>2040.7</ele>
        <time>2021-08-12T12:01:12Z</time>
      </trkpt>
      <trkpt lat="45.51127" lon="6.7315">
        <ele>2040.7</ele>
        <time>2021-08-12T12:01:13Z</time>
      </trkpt>
      <trkpt lat="45.51128" lon="6.7315">
        <ele>2040.7</ele>
        <time>2021-08-12T12:01:14Z</time>
      </trkpt>
      <trkpt lat="45.51129" lon="6.73149">
        <ele>2040.7</ele>
        <time>2021-08-12T12:01:15Z</time>
      </trkpt>
      <trkpt lat="45.5113" lon="6.73149">
        <ele>2040.7</ele>
        <time>2021-08-12T12:01:16Z</time>
      </trkpt>
      <trkpt lat="45.51131" lon="6.73148">
        <ele>2040.7</ele>
        <time>2021-08-12T12:01:17Z</time>
      </trkpt>
      <trkpt lat="45.51132" lon="6.73147">
        <ele>2040.8</ele>
        <time>2021-08-12T12:01:18Z</time>
      </trkpt>
      <trkpt lat="45.51133" lon="6.73147">
        <ele>2040.8</ele>
        <time>2021-08-12T12:01:19Z</time>
      </trkpt>
      <trkpt lat="45.51134" lon="6.73146">
        <ele>2040.8</ele>
        <time>2021-08-12T12:01:20Z</time>
      </trkpt>
      <trkpt lat="45.51134" lon="6.73146">
        <ele>2040.8</ele>
        <time>2021-08-12T12:01:21Z</time>
      </trkpt>
      <trkpt lat="45.51135" lon="6.73145">
        <ele>2040.7</ele>
        <time>2021-08-12T12:01:22Z</time>
      </trkpt>
      <trkpt lat="45.51136" lon="6.73145">
        <ele>2040.7</ele>
        <time>2021-08-12T12:01:23Z</time>
      </trkpt>
      <trkpt lat="45.51137" lon="6.73145">
        <ele>2040.7</ele>
        <time>2021-08-12T12:01:24Z</time>
      </trkpt>
      <trkpt lat="45.51138" lon="6.73145">
        <ele>2040.7</ele>
        <time>2021-08-12T12:01:25Z</time>
      </trkpt>
      <trkpt lat="45.51138" lon="6.73145">
        <ele>2040.7</ele>
        <time>2021-08-12T12:01:26Z</time>
      </trkpt>
      <trkpt lat="45.51139" lon="6.73145">
        <ele>2040.7</ele>
        <time>2021-08-12T12:01:27Z</time>
      </trkpt>
      <trkpt lat="45.5114" lon="6.73145">
        <ele>2040.7</ele>
        <time>2021-08-12T12:01:28Z</time>
      </trkpt>
      <trkpt lat="45.51141" lon="6.73145">
        <ele>2040.6</ele>
        <time>2021-08-12T12:01:29Z</time>
      </trkpt>
      <trkpt lat="45.51141" lon="6.73144">
        <ele>2040.6</ele>
        <time>2021-08-12T12:01:30Z</time>
      </trkpt>
      <trkpt lat="45.51142" lon="6.73144">
        <ele>2040.6</ele>
        <time>2021-08-12T12:01:31Z</time>
      </trkpt>
      <trkpt lat="45.51143" lon="6.73144">
        <ele>2040.6</ele>
        <time>2021-08-12T12:01:32Z</time>
      </trkpt>
      <trkpt lat="45.51143" lon="6.73143">
        <ele>2040.5</ele>
        <time>2021-08-12T12:01:33Z</time>
      </trkpt>
      <trkpt lat="45.51144" lon="6.73143">
        <ele>2040.5</ele>
        <time>2021-08-12T12:01:34Z</time>
      </trkpt>
      <trkpt lat="45.51145" lon="6.73142">
        <ele>2040.4</ele>
        <time>2021-08-12T12:01:35Z</time>
      </trkpt>
      <trkpt lat="45.51146" lon="6.73142">
        <ele>2040.4</ele>
        <time>2021-08-12T12:01:36Z</time>
      </trkpt>
      <trkpt lat="45.51146" lon="6.73141">
        <ele>2040.3</ele>
        <time>2021-08-12T12:01:37Z</time>
      </trkpt>
      <trkpt lat="45.51147" lon="6.73141">
        <ele>2040.3</ele>
        <time>2021-08-12T12:01:38Z</time>
      </trkpt>
      <trkpt lat="45.51148" lon="6.7314">
        <ele>2040.2</ele>
        <time>2021-08-12T12:01:39Z</time>
      </trkpt>
      <trkpt lat="45.51149" lon="6.7314">
        <ele>2040.2</ele>
        <time>2021-08-12T12:01:40Z</time>
      </trkpt>
      <trkpt lat="45.51149" lon="6.73139">
        <ele>2040.1</ele>
        <time>2021-08-12T12:01:41Z</time>
      </trkpt>
      <trkpt lat="45.5115" lon="6.73139">
        <ele>2040</ele>
        <time>2021-08-12T12:01:42Z</time>
      </trkpt>
      <trkpt lat="45.51151" lon="6.73138">
        <ele>2040</ele>
        <time>2021-08-12T12:01:43Z</time>
      </trkpt>
      <trkpt lat="45.51152" lon="6.73138">
        <ele>2039.9</ele>
        <time>2021-08-12T12:01:44Z</time>
      </trkpt>
      <trkpt lat="45.51153" lon="6.73137">
        <ele>2039.9</ele>
        <time>2021-08-12T12:01:45Z</time>
      </trkpt>
      <trkpt lat="45.51154" lon="6.73137">
        <ele>2039.8</ele>
        <time>2021-08-12T12:01:46Z</time>
      </trkpt>
      <trkpt lat="45.51154" lon="6.73137">
        <ele>2039.7</ele>
        <time>2021-08-12T12:01:47Z</time>
      </trkpt>
      <trkpt lat="45.51155" lon="6.73137">
        <ele>2039.7</ele>
        <time>2021-08-12T12:01:48Z</time>
      </trkpt>
      <trkpt lat="45.51156" lon="6.73136">
        <ele>2039.6</ele>
        <time>2021-08-12T12:01:49Z</time>
      </trkpt>
      <trkpt lat="45.51157" lon="6.73136">
        <ele>2039.6</ele>
        <time>2021-08-12T12:01:50Z</time>
      </trkpt>
      <trkpt lat="45.51158" lon="6.73136">
        <ele>2039.5</ele>
        <time>2021-08-12T12:01:51Z</time>
      </trkpt>
      <trkpt lat="45.51159" lon="6.73136">
        <ele>2039.4</ele>
        <time>2021-08-12T12:01:52Z</time>
      </trkpt>
      <trkpt lat="45.5116" lon="6.73136">
        <ele>2039.4</ele>
        <time>2021-08-12T12:01:53Z</time>
      </trkpt>
      <trkpt lat="45.5116" lon="6.73135">
        <ele>2039.3</ele>
        <time>2021-08-12T12:01:54Z</time>
      </trkpt>
      <trkpt lat="45.51161" lon="6.73135">
        <ele>2039.3</ele>
        <time>2021-08-12T12:01:55Z</time>
      </trkpt>
      <trkpt lat="45.51162" lon="6.73135">
        <ele>2039.2</ele>
        <time>2021-08-12T12:01:56Z</time>
      </trkpt>
      <trkpt lat="45.51163" lon="6.73135">
        <ele>2039.2</ele>
        <time>2021-08-12T12:01:57Z</time>
      </trkpt>
      <trkpt lat="45.51164" lon="6.73134">
        <ele>2039.2</ele>
        <time>2021-08-12T12:01:58Z</time>
      </trkpt>
      <trkpt lat="45.51164" lon="6.73134">
        <ele>2039.1</ele>
        <time>2021-08-12T12:01:59Z</time>
      </trkpt>
      <trkpt lat="45.51165" lon="6.73134">
        <ele>2039.1</ele>
        <time>2021-08-12T12:02:00Z</time>
      </trkpt>
      <trkpt lat="45.51165" lon="6.73134">
        <ele>2039.1</ele>
        <time>2021-08-12T12:02:01Z</time>
      </trkpt>
      <trkpt lat="45.51166" lon="6.73133">
        <ele>2039.1</ele>
        <time>2021-08-12T12:02:02Z</time>
      </trkpt>
      <trkpt lat="45.51167" lon="6.73133">
        <ele>2039</ele>
        <time>2021-08-12T12:02:03Z</time>
      </trkpt>
      <trkpt lat="45.51167" lon="6.73133">
        <ele>2039</ele>
        <time>2021-08-12T12:02:04Z</time>
      </trkpt>
      <trkpt lat="45.51167" lon="6.73132">
        <ele>2039</ele>
        <time>2021-08-12T12:02:05Z</time>
      </trkpt>
      <trkpt lat="45.51168" lon="6.73132">
        <ele>2039</ele>
        <time>2021-08-12T12:02:06Z</time>
      </trkpt>
      <trkpt lat="45.51168" lon="6.73132">
        <ele>2039</ele>
        <time>2021-08-12T12:02:07Z</time>
      </trkpt>
      <trkpt lat="45.51168" lon="6.73131">
        <ele>2039</ele>
        <time>2021-08-12T12:02:08Z</time>
      </trkpt>
      <trkpt lat="45.51169" lon="6.73131">
        <ele>2039</ele>
        <time>2021-08-12T12:02:09Z</time>
      </trkpt>
      <trkpt lat="45.51169" lon="6.73131">
        <ele>2039</ele>
        <time>2021-08-12T12:02:10Z</time>
      </trkpt>
      <trkpt lat="45.51169" lon="6.73131">
        <ele>2039</ele>
        <time>2021-08-12T12:02:11Z</time>
      </trkpt>
      <trkpt lat="45.51169" lon="6.7313">
        <ele>2038.9</ele>
        <time>2021-08-12T12:02:12Z</time>
      </trkpt>
      <trkpt lat="45.51169" lon="6.7313">
        <ele>2038.9</ele>
        <time>2021-08-12T12:02:13Z</time>
      </trkpt>
      <trkpt lat="45.51169" lon="6.7313">
        <ele>2038.9</ele>
        <time>2021-08-12T12:02:14Z</time>
      </trkpt>
      <trkpt lat="45.51169" lon="6.7313">
        <ele>2038.9</ele>
        <time>2021-08-12T12:02:15Z</time>
      </trkpt>
      <trkpt lat="45.51169" lon="6.7313">
        <ele>2038.9</ele>
        <time>2021-08-12T12:02:16Z</time>
      </trkpt>
      <trkpt lat="45.51169" lon="6.7313">
        <ele>2038.9</ele>
        <time>2021-08-12T12:02:17Z</time>
      </trkpt>
      <trkpt lat="45.51169" lon="6.7313">
        <ele>2038.9</ele>
        <time>2021-08-12T12:02:18Z</time>
      </trkpt>
      <trkpt lat="45.51169" lon="6.7313">
        <ele>2038.9</ele>
        <time>2021-08-12T12:02:19Z</time>
      </trkpt>
      <trkpt lat="45.51169" lon="6.7313">
        <ele>2038.9</ele>
        <time>2021-08-12T12:02:20Z</time>
      </trkpt>
      <trkpt lat="45.51169" lon="6.7313">
        <ele>2038.9</ele>
        <time>2021-08-12T12:02:21Z</time>
      </trkpt>
      <trkpt lat="45.51169" lon="6.7313">
        <ele>2038.9</ele>
        <time>2021-08-12T12:02:22Z</time>
      </trkpt>
      <trkpt lat="45.51169" lon="6.7313">
        <ele>2038.9</ele>
        <time>2021-08-12T12:02:23Z</time>
      </trkpt>
      <trkpt lat="45.51169" lon="6.7313">
        <ele>2038.9</ele>
        <time>2021-08-12T12:02:24Z</time>
      </trkpt>
      <trkpt lat="45.51169" lon="6.7313">
        <ele>2038.9</ele>
        <time>2021-08-12T12:02:25Z</time>
      </trkpt>
      <trkpt lat="45.5117" lon="6.7313">
        <ele>2038.9</ele>
        <time>2021-08-12T12:02:26Z</time>
      </trkpt>
      <trkpt lat="45.5117" lon="6.7313">
        <ele>2038.9</ele>
        <time>2021-08-12T12:02:27Z</time>
      </trkpt>
      <trkpt lat="45.5117" lon="6.7313">
        <ele>2038.9</ele>
        <time>2021-08-12T12:02:28Z</time>
      </trkpt>
      <trkpt lat="45.5117" lon="6.7313">
        <ele>2038.9</ele>
        <time>2021-08-12T12:02:29Z</time>
      </trkpt>
      <trkpt lat="45.51171" lon="6.7313">
        <ele>2038.9</ele>
        <time>2021-08-12T12:02:30Z</time>
      </trkpt>
      <trkpt lat="45.51171" lon="6.7313">
        <ele>2038.9</ele>
        <time>2021-08-12T12:02:31Z</time>
      </trkpt>
      <trkpt lat="45.51172" lon="6.7313">
        <ele>2038.9</ele>
        <time>2021-08-12T12:02:32Z</time>
      </trkpt>
      <trkpt lat="45.51173" lon="6.7313">
        <ele>2038.8</ele>
        <time>2021-08-12T12:02:33Z</time>
      </trkpt>
      <trkpt lat="45.51173" lon="6.7313">
        <ele>2038.8</ele>
        <time>2021-08-12T12:02:34Z</time>
      </trkpt>
      <trkpt lat="45.51174" lon="6.73131">
        <ele>2038.8</ele>
        <time>2021-08-12T12:02:35Z</time>
      </trkpt>
      <trkpt lat="45.51174" lon="6.73131">
        <ele>2038.8</ele>
        <time>2021-08-12T12:02:36Z</time>
      </trkpt>
      <trkpt lat="45.51175" lon="6.73131">
        <ele>2038.8</ele>
        <time>2021-08-12T12:02:37Z</time>
      </trkpt>
      <trkpt lat="45.51176" lon="6.73131">
        <ele>2038.8</ele>
        <time>2021-08-12T12:02:38Z</time>
      </trkpt>
      <trkpt lat="45.51177" lon="6.73131">
        <ele>2038.8</ele>
        <time>2021-08-12T12:02:39Z</time>
      </trkpt>
      <trkpt lat="45.51177" lon="6.73132">
        <ele>2038.8</ele>
        <time>2021-08-12T12:02:40Z</time>
      </trkpt>
      <trkpt lat="45.51178" lon="6.73132">
        <ele>2038.7</ele>
        <time>2021-08-12T12:02:41Z</time>
      </trkpt>
      <trkpt lat="45.51178" lon="6.73132">
        <ele>2038.7</ele>
        <time>2021-08-12T12:02:42Z</time>
      </trkpt>
      <trkpt lat="45.51179" lon="6.73133">
        <ele>2038.7</ele>
        <time>2021-08-12T12:02:43Z</time>
      </trkpt>
      <trkpt lat="45.5118" lon="6.73133">
        <ele>2038.7</ele>
        <time>2021-08-12T12:02:44Z</time>
      </trkpt>
      <trkpt lat="45.5118" lon="6.73133">
        <ele>2038.7</ele>
        <time>2021-08-12T12:02:45Z</time>
      </trkpt>
      <trkpt lat="45.51181" lon="6.73133">
        <ele>2038.7</ele>
        <time>2021-08-12T12:02:46Z</time>
      </trkpt>
      <trkpt lat="45.51182" lon="6.73134">
        <ele>2038.6</ele>
        <time>2021-08-12T12:02:47Z</time>
      </trkpt>
      <trkpt lat="45.51183" lon="6.73134">
        <ele>2038.6</ele>
        <time>2021-08-12T12:02:48Z</time>
      </trkpt>
      <trkpt lat="45.51183" lon="6.73134">
        <ele>2038.6</ele>
        <time>2021-08-12T12:02:49Z</time>
      </trkpt>
      <trkpt lat="45.51184" lon="6.73133">
        <ele>2038.6</ele>
        <time>2021-08-12T12:02:50Z</time>
      </trkpt>
      <trkpt lat="45.51185" lon="6.73133">
        <ele>2038.6</ele>
        <time>2021-08-12T12:02:51Z</time>
      </trkpt>
      <trkpt lat="45.51186" lon="6.73133">
        <ele>2038.5</ele>
        <time>2021-08-12T12:02:52Z</time>
      </trkpt>
      <trkpt lat="45.51187" lon="6.73133">
        <ele>2038.5</ele>
        <time>2021-08-12T12:02:53Z</time>
      </trkpt>
      <trkpt lat="45.51187" lon="6.73132">
        <ele>2038.4</ele>
        <time>2021-08-12T12:02:54Z</time>
      </trkpt>
      <trkpt lat="45.51188" lon="6.73132">
        <ele>2038.4</ele>
        <time>2021-08-12T12:02:55Z</time>
      </trkpt>
      <trkpt lat="45.51189" lon="6.73132">
        <ele>2038.4</ele>
        <time>2021-08-12T12:02:56Z</time>
      </trkpt>
      <trkpt lat="45.5119" lon="6.73131">
        <ele>2038.3</ele>
        <time>2021-08-12T12:02:57Z</time>
      </trkpt>
      <trkpt lat="45.5119" lon="6.73131">
        <ele>2038.3</ele>
        <time>2021-08-12T12:02:58Z</time>
      </trkpt>
      <trkpt lat="45.51191" lon="6.73131">
        <ele>2038.3</ele>
        <time>2021-08-12T12:02:59Z</time>
      </trkpt>
      <trkpt lat="45.51192" lon="6.73131">
        <ele>2038.2</ele>
        <time>2021-08-12T12:03:00Z</time>
      </trkpt>
      <trkpt lat="45.51192" lon="6.73131">
        <ele>2038.2</ele>
        <time>2021-08-12T12:03:01Z</time>
      </trkpt>
      <trkpt lat="45.51193" lon="6.73131">
        <ele>2038.2</ele>
        <time>2021-08-12T12:03:02Z</time>
      </trkpt>
      <trkpt lat="45.51193" lon="6.73131">
        <ele>2038.1</ele>
        <time>2021-08-12T12:03:03Z</time>
      </trkpt>
      <trkpt lat="45.51194" lon="6.73131">
        <ele>2038.1</ele>
        <time>2021-08-12T12:03:04Z</time>
      </trkpt>
      <trkpt lat="45.51195" lon="6.73131">
        <ele>2038</ele>
        <time>2021-08-12T12:03:05Z</time>
      </trkpt>
      <trkpt lat="45.51195" lon="6.73131">
        <ele>2038</ele>
        <time>2021-08-12T12:03:06Z</time>
      </trkpt>
      <trkpt lat="45.51196" lon="6.73131">
        <ele>2038</ele>
        <time>2021-08-12T12:03:07Z</time>
      </trkpt>
      <trkpt lat="45.51196" lon="6.73131">
        <ele>2037.9</ele>
        <time>2021-08-12T12:03:08Z</time>
      </trkpt>
      <trkpt lat="45.51197" lon="6.73131">
        <ele>2037.9</ele>
        <time>2021-08-12T12:03:09Z</time>
      </trkpt>
      <trkpt lat="45.51197" lon="6.73131">
        <ele>2037.9</ele>
        <time>2021-08-12T12:03:10Z</time>
      </trkpt>
      <trkpt lat="45.51198" lon="6.7313">
        <ele>2037.8</ele>
        <time>2021-08-12T12:03:11Z</time>
      </trkpt>
      <trkpt lat="45.51199" lon="6.7313">
        <ele>2037.8</ele>
        <time>2021-08-12T12:03:12Z</time>
      </trkpt>
      <trkpt lat="45.51199" lon="6.7313">
        <ele>2037.7</ele>
        <time>2021-08-12T12:03:13Z</time>
      </trkpt>
      <trkpt lat="45.512" lon="6.7313">
        <ele>2037.7</ele>
        <time>2021-08-12T12:03:14Z</time>
      </trkpt>
      <trkpt lat="45.51201" lon="6.7313">
        <ele>2037.6</ele>
        <time>2021-08-12T12:03:15Z</time>
      </trkpt>
      <trkpt lat="45.51201" lon="6.73129">
        <ele>2037.6</ele>
        <time>2021-08-12T12:03:16Z</time>
      </trkpt>
      <trkpt lat="45.51202" lon="6.73129">
        <ele>2037.5</ele>
        <time>2021-08-12T12:03:17Z</time>
      </trkpt>
      <trkpt lat="45.51202" lon="6.73128">
        <ele>2037.5</ele>
        <time>2021-08-12T12:03:18Z</time>
      </trkpt>
      <trkpt lat="45.51203" lon="6.73128">
        <ele>2037.5</ele>
        <time>2021-08-12T12:03:19Z</time>
      </trkpt>
      <trkpt lat="45.51204" lon="6.73127">
        <ele>2037.4</ele>
        <time>2021-08-12T12:03:20Z</time>
      </trkpt>
      <trkpt lat="45.51204" lon="6.73127">
        <ele>2037.4</ele>
        <time>2021-08-12T12:03:21Z</time>
      </trkpt>
      <trkpt lat="45.51205" lon="6.73126">
        <ele>2037.3</ele>
        <time>2021-08-12T12:03:22Z</time>
      </trkpt>
      <trkpt lat="45.51205" lon="6.73126">
        <ele>2037.3</ele>
        <time>2021-08-12T12:03:23Z</time>
      </trkpt>
      <trkpt lat="45.51206" lon="6.73125">
        <ele>2037.2</ele>
        <time>2021-08-12T12:03:24Z</time>
      </trkpt>
      <trkpt lat="45.51206" lon="6.73124">
        <ele>2037.2</ele>
        <time>2021-08-12T12:03:25Z</time>
      </trkpt>
      <trkpt lat="45.51207" lon="6.73123">
        <ele>2037.1</ele>
        <time>2021-08-12T12:03:26Z</time>
      </trkpt>
      <trkpt lat="45.51207" lon="6.73122">
        <ele>2037.1</ele>
        <time>2021-08-12T12:03:27Z</time>
      </trkpt>
      <trkpt lat="45.51208" lon="6.73121">
        <ele>2037.1</ele>
        <time>2021-08-12T12:03:28Z</time>
      </trkpt>
      <trkpt lat="45.51209" lon="6.7312">
        <ele>2037</ele>
        <time>2021-08-12T12:03:29Z</time>
      </trkpt>
      <trkpt lat="45.51209" lon="6.73119">
        <ele>2037</ele>
        <time>2021-08-12T12:03:30Z</time>
      </trkpt>
      <trkpt lat="45.5121" lon="6.73119">
        <ele>2036.9</ele>
        <time>2021-08-12T12:03:31Z</time>
      </trkpt>
      <trkpt lat="45.5121" lon="6.73118">
        <ele>2036.9</ele>
        <time>2021-08-12T12:03:32Z</time>
      </trkpt>
      <trkpt lat="45.51211" lon="6.73117">
        <ele>2036.8</ele>
        <time>2021-08-12T12:03:33Z</time>
      </trkpt>
      <trkpt lat="45.51212" lon="6.73116">
        <ele>2036.8</ele>
        <time>2021-08-12T12:03:34Z</time>
      </trkpt>
      <trkpt lat="45.51212" lon="6.73115">
        <ele>2036.7</ele>
        <time>2021-08-12T12:03:35Z</time>
      </trkpt>
      <trkpt lat="45.51213" lon="6.73114">
        <ele>2036.7</ele>
        <time>2021-08-12T12:03:36Z</time>
      </trkpt>
      <trkpt lat="45.51214" lon="6.73114">
        <ele>2036.7</ele>
        <time>2021-08-12T12:03:37Z</time>
      </trkpt>
      <trkpt lat="45.51214" lon="6.73113">
        <ele>2036.6</ele>
        <time>2021-08-12T12:03:38Z</time>
      </trkpt>
      <trkpt lat="45.51215" lon="6.73113">
        <ele>2036.6</ele>
        <time>2021-08-12T12:03:39Z</time>
      </trkpt>
      <trkpt lat="45.51216" lon="6.73112">
        <ele>2036.5</ele>
        <time>2021-08-12T12:03:40Z</time>
      </trkpt>
      <trkpt lat="45.51216" lon="6.73112">
        <ele>2036.5</ele>
        <time>2021-08-12T12:03:41Z</time>
      </trkpt>
      <trkpt lat="45.51217" lon="6.73112">
        <ele>2036.4</ele>
        <time>2021-08-12T12:03:42Z</time>
      </trkpt>
      <trkpt lat="45.51218" lon="6.73112">
        <ele>2036.4</ele>
        <time>2021-08-12T12:03:43Z</time>
      </trkpt>
      <trkpt lat="45.51219" lon="6.73112">
        <ele>2036.3</ele>
        <time>2021-08-12T12:03:44Z</time>
      </trkpt>
      <trkpt lat="45.5122" lon="6.73112">
        <ele>2036.3</ele>
        <time>2021-08-12T12:03:45Z</time>
      </trkpt>
      <trkpt lat="45.5122" lon="6.73111">
        <ele>2036.2</ele>
        <time>2021-08-12T12:03:46Z</time>
      </trkpt>
      <trkpt lat="45.51221" lon="6.73111">
        <ele>2036.2</ele>
        <time>2021-08-12T12:03:47Z</time>
      </trkpt>
      <trkpt lat="45.51222" lon="6.73111">
        <ele>2036.1</ele>
        <time>2021-08-12T12:03:48Z</time>
      </trkpt>
      <trkpt lat="45.51222" lon="6.73111">
        <ele>2036</ele>
        <time>2021-08-12T12:03:49Z</time>
      </trkpt>
      <trkpt lat="45.51223" lon="6.73111">
        <ele>2036</ele>
        <time>2021-08-12T12:03:50Z</time>
      </trkpt>
      <trkpt lat="45.51224" lon="6.73111">
        <ele>2035.9</ele>
        <time>2021-08-12T12:03:51Z</time>
      </trkpt>
      <trkpt lat="45.51224" lon="6.7311">
        <ele>2035.9</ele>
        <time>2021-08-12T12:03:52Z</time>
      </trkpt>
      <trkpt lat="45.51225" lon="6.7311">
        <ele>2035.8</ele>
        <time>2021-08-12T12:03:53Z</time>
      </trkpt>
      <trkpt lat="45.51226" lon="6.7311">
        <ele>2035.8</ele>
        <time>2021-08-12T12:03:54Z</time>
      </trkpt>
      <trkpt lat="45.51226" lon="6.7311">
        <ele>2035.7</ele>
        <time>2021-08-12T12:03:55Z</time>
      </trkpt>
      <trkpt lat="45.51227" lon="6.73109">
        <ele>2035.6</ele>
        <time>2021-08-12T12:03:56Z</time>
      </trkpt>
      <trkpt lat="45.51227" lon="6.73109">
        <ele>2035.6</ele>
        <time>2021-08-12T12:03:57Z</time>
      </trkpt>
      <trkpt lat="45.51228" lon="6.73109">
        <ele>2035.5</ele>
        <time>2021-08-12T12:03:58Z</time>
      </trkpt>
      <trkpt lat="45.51229" lon="6.73109">
        <ele>2035.4</ele>
        <time>2021-08-12T12:03:59Z</time>
      </trkpt>
      <trkpt lat="45.51229" lon="6.73109">
        <ele>2035.4</ele>
        <time>2021-08-12T12:04:00Z</time>
      </trkpt>
      <trkpt lat="45.5123" lon="6.73108">
        <ele>2035.3</ele>
        <time>2021-08-12T12:04:01Z</time>
      </trkpt>
      <trkpt lat="45.51231" lon="6.73108">
        <ele>2035.2</ele>
        <time>2021-08-12T12:04:02Z</time>
      </trkpt>
      <trkpt lat="45.51231" lon="6.73108">
        <ele>2035.2</ele>
        <time>2021-08-12T12:04:03Z</time>
      </trkpt>
      <trkpt lat="45.51232" lon="6.73108">
        <ele>2035.1</ele>
        <time>2021-08-12T12:04:04Z</time>
      </trkpt>
      <trkpt lat="45.51233" lon="6.73107">
        <ele>2035</ele>
        <time>2021-08-12T12:04:05Z</time>
      </trkpt>
      <trkpt lat="45.51234" lon="6.73107">
        <ele>2034.9</ele>
        <time>2021-08-12T12:04:06Z</time>
      </trkpt>
      <trkpt lat="45.51235" lon="6.73107">
        <ele>2034.8</ele>
        <time>2021-08-12T12:04:07Z</time>
      </trkpt>
      <trkpt lat="45.51236" lon="6.73107">
        <ele>2034.7</ele>
        <time>2021-08-12T12:04:08Z</time>
      </trkpt>
      <trkpt lat="45.51236" lon="6.73107">
        <ele>2034.6</ele>
        <time>2021-08-12T12:04:09Z</time>
      </trkpt>
      <trkpt lat="45.51237" lon="6.73107">
        <ele>2034.5</ele>
        <time>2021-08-12T12:04:10Z</time>
      </trkpt>
      <trkpt lat="45.51238" lon="6.73107">
        <ele>2034.4</ele>
        <time>2021-08-12T12:04:11Z</time>
      </trkpt>
      <trkpt lat="45.51239" lon="6.73107">
        <ele>2034.3</ele>
        <time>2021-08-12T12:04:12Z</time>
      </trkpt>
      <trkpt lat="45.5124" lon="6.73107">
        <ele>2034.2</ele>
        <time>2021-08-12T12:04:13Z</time>
      </trkpt>
      <trkpt lat="45.51241" lon="6.73106">
        <ele>2034.2</ele>
        <time>2021-08-12T12:04:14Z</time>
      </trkpt>
      <trkpt lat="45.51242" lon="6.73106">
        <ele>2034.1</ele>
        <time>2021-08-12T12:04:15Z</time>
      </trkpt>
      <trkpt lat="45.51243" lon="6.73106">
        <ele>2034</ele>
        <time>2021-08-12T12:04:16Z</time>
      </trkpt>
      <trkpt lat="45.51244" lon="6.73106">
        <ele>2033.9</ele>
        <time>2021-08-12T12:04:17Z</time>
      </trkpt>
      <trkpt lat="45.51245" lon="6.73106">
        <ele>2033.8</ele>
        <time>2021-08-12T12:04:18Z</time>
      </trkpt>
      <trkpt lat="45.51246" lon="6.73105">
        <ele>2033.8</ele>
        <time>2021-08-12T12:04:19Z</time>
      </trkpt>
      <trkpt lat="45.51247" lon="6.73105">
        <ele>2033.7</ele>
        <time>2021-08-12T12:04:20Z</time>
      </trkpt>
      <trkpt lat="45.51248" lon="6.73105">
        <ele>2033.6</ele>
        <time>2021-08-12T12:04:21Z</time>
      </trkpt>
      <trkpt lat="45.51248" lon="6.73104">
        <ele>2033.6</ele>
        <time>2021-08-12T12:04:22Z</time>
      </trkpt>
      <trkpt lat="45.51249" lon="6.73104">
        <ele>2033.5</ele>
        <time>2021-08-12T12:04:23Z</time>
      </trkpt>
      <trkpt lat="45.5125" lon="6.73104">
        <ele>2033.5</ele>
        <time>2021-08-12T12:04:24Z</time>
      </trkpt>
      <trkpt lat="45.51251" lon="6.73104">
        <ele>2033.4</ele>
        <time>2021-08-12T12:04:25Z</time>
      </trkpt>
      <trkpt lat="45.51252" lon="6.73104">
        <ele>2033.3</ele>
        <time>2021-08-12T12:04:26Z</time>
      </trkpt>
      <trkpt lat="45.51253" lon="6.73103">
        <ele>2033.3</ele>
        <time>2021-08-12T12:04:27Z</time>
      </trkpt>
      <trkpt lat="45.51254" lon="6.73103">
        <ele>2033.2</ele>
        <time>2021-08-12T12:04:28Z</time>
      </trkpt>
      <trkpt lat="45.51255" lon="6.73103">
        <ele>2033.2</ele>
        <time>2021-08-12T12:04:29Z</time>
      </trkpt>
      <trkpt lat="45.51256" lon="6.73103">
        <ele>2033.1</ele>
        <time>2021-08-12T12:04:30Z</time>
      </trkpt>
      <trkpt lat="45.51257" lon="6.73103">
        <ele>2033.1</ele>
        <time>2021-08-12T12:04:31Z</time>
      </trkpt>
      <trkpt lat="45.51258" lon="6.73103">
        <ele>2033</ele>
        <time>2021-08-12T12:04:32Z</time>
      </trkpt>
      <trkpt lat="45.51259" lon="6.73103">
        <ele>2033</ele>
        <time>2021-08-12T12:04:33Z</time>
      </trkpt>
      <trkpt lat="45.5126" lon="6.73103">
        <ele>2032.9</ele>
        <time>2021-08-12T12:04:34Z</time>
      </trkpt>
      <trkpt lat="45.51261" lon="6.73103">
        <ele>2032.9</ele>
        <time>2021-08-12T12:04:35Z</time>
      </trkpt>
      <trkpt lat="45.51262" lon="6.73103">
        <ele>2032.9</ele>
        <time>2021-08-12T12:04:36Z</time>
      </trkpt>
      <trkpt lat="45.51262" lon="6.73102">
        <ele>2032.8</ele>
        <time>2021-08-12T12:04:37Z</time>
      </trkpt>
      <trkpt lat="45.51263" lon="6.73102">
        <ele>2032.8</ele>
        <time>2021-08-12T12:04:38Z</time>
      </trkpt>
      <trkpt lat="45.51264" lon="6.73101">
        <ele>2032.8</ele>
        <time>2021-08-12T12:04:39Z</time>
      </trkpt>
      <trkpt lat="45.51265" lon="6.73101">
        <ele>2032.7</ele>
        <time>2021-08-12T12:04:40Z</time>
      </trkpt>
      <trkpt lat="45.51265" lon="6.731">
        <ele>2032.7</ele>
        <time>2021-08-12T12:04:41Z</time>
      </trkpt>
      <trkpt lat="45.51266" lon="6.73099">
        <ele>2032.6</ele>
        <time>2021-08-12T12:04:42Z</time>
      </trkpt>
      <trkpt lat="45.51267" lon="6.73099">
        <ele>2032.6</ele>
        <time>2021-08-12T12:04:43Z</time>
      </trkpt>
      <trkpt lat="45.51268" lon="6.73098">
        <ele>2032.6</ele>
        <time>2021-08-12T12:04:44Z</time>
      </trkpt>
      <trkpt lat="45.51268" lon="6.73097">
        <ele>2032.5</ele>
        <time>2021-08-12T12:04:45Z</time>
      </trkpt>
      <trkpt lat="45.51269" lon="6.73096">
        <ele>2032.5</ele>
        <time>2021-08-12T12:04:46Z</time>
      </trkpt>
      <trkpt lat="45.5127" lon="6.73096">
        <ele>2032.4</ele>
        <time>2021-08-12T12:04:47Z</time>
      </trkpt>
      <trkpt lat="45.51271" lon="6.73095">
        <ele>2032.3</ele>
        <time>2021-08-12T12:04:48Z</time>
      </trkpt>
      <trkpt lat="45.51272" lon="6.73095">
        <ele>2032.3</ele>
        <time>2021-08-12T12:04:49Z</time>
      </trkpt>
      <trkpt lat="45.51272" lon="6.73094">
        <ele>2032.2</ele>
        <time>2021-08-12T12:04:50Z</time>
      </trkpt>
      <trkpt lat="45.51273" lon="6.73093">
        <ele>2032.2</ele>
        <time>2021-08-12T12:04:51Z</time>
      </trkpt>
      <trkpt lat="45.51274" lon="6.73093">
        <ele>2032.1</ele>
        <time>2021-08-12T12:04:52Z</time>
      </trkpt>
      <trkpt lat="45.51275" lon="6.73092">
        <ele>2032.1</ele>
        <time>2021-08-12T12:04:53Z</time>
      </trkpt>
      <trkpt lat="45.51275" lon="6.73092">
        <ele>2032</ele>
        <time>2021-08-12T12:04:54Z</time>
      </trkpt>
      <trkpt lat="45.51276" lon="6.73092">
        <ele>2032</ele>
        <time>2021-08-12T12:04:55Z</time>
      </trkpt>
      <trkpt lat="45.51277" lon="6.73091">
        <ele>2031.9</ele>
        <time>2021-08-12T12:04:56Z</time>
      </trkpt>
      <trkpt lat="45.51278" lon="6.73091">
        <ele>2031.9</ele>
        <time>2021-08-12T12:04:57Z</time>
      </trkpt>
      <trkpt lat="45.51278" lon="6.73091">
        <ele>2031.8</ele>
        <time>2021-08-12T12:04:58Z</time>
      </trkpt>
      <trkpt lat="45.51279" lon="6.73091">
        <ele>2031.8</ele>
        <time>2021-08-12T12:04:59Z</time>
      </trkpt>
      <trkpt lat="45.51279" lon="6.7309">
        <ele>2031.7</ele>
        <time>2021-08-12T12:05:00Z</time>
      </trkpt>
      <trkpt lat="45.5128" lon="6.7309">
        <ele>2031.7</ele>
        <time>2021-08-12T12:05:01Z</time>
      </trkpt>
      <trkpt lat="45.5128" lon="6.7309">
        <ele>2031.6</ele>
        <time>2021-08-12T12:05:02Z</time>
      </trkpt>
      <trkpt lat="45.51281" lon="6.73089">
        <ele>2031.6</ele>
        <time>2021-08-12T12:05:03Z</time>
      </trkpt>
      <trkpt lat="45.51282" lon="6.73089">
        <ele>2031.5</ele>
        <time>2021-08-12T12:05:04Z</time>
      </trkpt>
      <trkpt lat="45.51282" lon="6.73088">
        <ele>2031.5</ele>
        <time>2021-08-12T12:05:05Z</time>
      </trkpt>
      <trkpt lat="45.51283" lon="6.73087">
        <ele>2031.4</ele>
        <time>2021-08-12T12:05:06Z</time>
      </trkpt>
      <trkpt lat="45.51283" lon="6.73086">
        <ele>2031.4</ele>
        <time>2021-08-12T12:05:07Z</time>
      </trkpt>
      <trkpt lat="45.51284" lon="6.73085">
        <ele>2031.3</ele>
        <time>2021-08-12T12:05:08Z</time>
      </trkpt>
      <trkpt lat="45.51285" lon="6.73084">
        <ele>2031.3</ele>
        <time>2021-08-12T12:05:09Z</time>
      </trkpt>
      <trkpt lat="45.51285" lon="6.73084">
        <ele>2031.2</ele>
        <time>2021-08-12T12:05:10Z</time>
      </trkpt>
      <trkpt lat="45.51286" lon="6.73083">
        <ele>2031.2</ele>
        <time>2021-08-12T12:05:11Z</time>
      </trkpt>
      <trkpt lat="45.51287" lon="6.73082">
        <ele>2031.1</ele>
        <time>2021-08-12T12:05:12Z</time>
      </trkpt>
      <trkpt lat="45.51287" lon="6.73082">
        <ele>2031.1</ele>
        <time>2021-08-12T12:05:13Z</time>
      </trkpt>
      <trkpt lat="45.51288" lon="6.73081">
        <ele>2031.1</ele>
        <time>2021-08-12T12:05:14Z</time>
      </trkpt>
      <trkpt lat="45.51289" lon="6.73081">
        <ele>2031</ele>
        <time>2021-08-12T12:05:15Z</time>
      </trkpt>
      <trkpt lat="45.5129" lon="6.73081">
        <ele>2031</ele>
        <time>2021-08-12T12:05:16Z</time>
      </trkpt>
      <trkpt lat="45.51291" lon="6.73081">
        <ele>2031</ele>
        <time>2021-08-12T12:05:17Z</time>
      </trkpt>
      <trkpt lat="45.51292" lon="6.73082">
        <ele>2031</ele>
        <time>2021-08-12T12:05:18Z</time>
      </trkpt>
      <trkpt lat="45.51293" lon="6.73082">
        <ele>2031</ele>
        <time>2021-08-12T12:05:19Z</time>
      </trkpt>
      <trkpt lat="45.51294" lon="6.73082">
        <ele>2031</ele>
        <time>2021-08-12T12:05:20Z</time>
      </trkpt>
      <trkpt lat="45.51295" lon="6.73082">
        <ele>2031</ele>
        <time>2021-08-12T12:05:21Z</time>
      </trkpt>
      <trkpt lat="45.51296" lon="6.73082">
        <ele>2031</ele>
        <time>2021-08-12T12:05:22Z</time>
      </trkpt>
      <trkpt lat="45.51297" lon="6.73082">
        <ele>2031</ele>
        <time>2021-08-12T12:05:23Z</time>
      </trkpt>
      <trkpt lat="45.51298" lon="6.73082">
        <ele>2031</ele>
        <time>2021-08-12T12:05:24Z</time>
      </trkpt>
      <trkpt lat="45.51298" lon="6.73082">
        <ele>2031</ele>
        <time>2021-08-12T12:05:25Z</time>
      </trkpt>
      <trkpt lat="45.51299" lon="6.73082">
        <ele>2031</ele>
        <time>2021-08-12T12:05:26Z</time>
      </trkpt>
      <trkpt lat="45.513" lon="6.73081">
        <ele>2031</ele>
        <time>2021-08-12T12:05:27Z</time>
      </trkpt>
      <trkpt lat="45.51301" lon="6.73081">
        <ele>2031.1</ele>
        <time>2021-08-12T12:05:28Z</time>
      </trkpt>
      <trkpt lat="45.51301" lon="6.73081">
        <ele>2031.1</ele>
        <time>2021-08-12T12:05:29Z</time>
      </trkpt>
      <trkpt lat="45.51302" lon="6.7308">
        <ele>2031.1</ele>
        <time>2021-08-12T12:05:30Z</time>
      </trkpt>
      <trkpt lat="45.51303" lon="6.7308">
        <ele>2031.1</ele>
        <time>2021-08-12T12:05:31Z</time>
      </trkpt>
      <trkpt lat="45.51304" lon="6.7308">
        <ele>2031.2</ele>
        <time>2021-08-12T12:05:32Z</time>
      </trkpt>
      <trkpt lat="45.51304" lon="6.73079">
        <ele>2031.2</ele>
        <time>2021-08-12T12:05:33Z</time>
      </trkpt>
      <trkpt lat="45.51305" lon="6.73079">
        <ele>2031.2</ele>
        <time>2021-08-12T12:05:34Z</time>
      </trkpt>
      <trkpt lat="45.51306" lon="6.73079">
        <ele>2031.2</ele>
        <time>2021-08-12T12:05:35Z</time>
      </trkpt>
      <trkpt lat="45.51307" lon="6.7308">
        <ele>2031.3</ele>
        <time>2021-08-12T12:05:36Z</time>
      </trkpt>
      <trkpt lat="45.51308" lon="6.7308">
        <ele>2031.3</ele>
        <time>2021-08-12T12:05:37Z</time>
      </trkpt>
      <trkpt lat="45.51308" lon="6.7308">
        <ele>2031.3</ele>
        <time>2021-08-12T12:05:38Z</time>
      </trkpt>
      <trkpt lat="45.51309" lon="6.7308">
        <ele>2031.4</ele>
        <time>2021-08-12T12:05:39Z</time>
      </trkpt>
      <trkpt lat="45.5131" lon="6.73081">
        <ele>2031.4</ele>
        <time>2021-08-12T12:05:40Z</time>
      </trkpt>
      <trkpt lat="45.51311" lon="6.73081">
        <ele>2031.5</ele>
        <time>2021-08-12T12:05:41Z</time>
      </trkpt>
      <trkpt lat="45.51312" lon="6.73081">
        <ele>2031.5</ele>
        <time>2021-08-12T12:05:42Z</time>
      </trkpt>
      <trkpt lat="45.51313" lon="6.73082">
        <ele>2031.5</ele>
        <time>2021-08-12T12:05:43Z</time>
      </trkpt>
      <trkpt lat="45.51314" lon="6.73082">
        <ele>2031.6</ele>
        <time>2021-08-12T12:05:44Z</time>
      </trkpt>
      <trkpt lat="45.51315" lon="6.73082">
        <ele>2031.6</ele>
        <time>2021-08-12T12:05:45Z</time>
      </trkpt>
      <trkpt lat="45.51315" lon="6.73082">
        <ele>2031.6</ele>
        <time>2021-08-12T12:05:46Z</time>
      </trkpt>
      <trkpt lat="45.51315" lon="6.73082">
        <ele>2031.6</ele>
        <time>2021-08-12T12:05:47Z</time>
      </trkpt>
      <trkpt lat="45.51315" lon="6.73082">
        <ele>2031.7</ele>
        <time>2021-08-12T12:05:48Z</time>
      </trkpt>
      <trkpt lat="45.51316" lon="6.73082">
        <ele>2031.7</ele>
        <time>2021-08-12T12:05:49Z</time>
      </trkpt>
      <trkpt lat="45.51316" lon="6.73082">
        <ele>2031.7</ele>
        <time>2021-08-12T12:05:50Z</time>
      </trkpt>
      <trkpt lat="45.51316" lon="6.73082">
        <ele>2031.7</ele>
        <time>2021-08-12T12:05:51Z</time>
      </trkpt>
      <trkpt lat="45.51316" lon="6.73082">
        <ele>2031.7</ele>
        <time>2021-08-12T12:05:52Z</time>
      </trkpt>
      <trkpt lat="45.51316" lon="6.73082">
        <ele>2031.7</ele>
        <time>2021-08-12T12:05:53Z</time>
      </trkpt>
      <trkpt lat="45.51317" lon="6.73081">
        <ele>2031.7</ele>
        <time>2021-08-12T12:05:54Z</time>
      </trkpt>
      <trkpt lat="45.51317" lon="6.73081">
        <ele>2031.7</ele>
        <time>2021-08-12T12:05:55Z</time>
      </trkpt>
      <trkpt lat="45.51317" lon="6.73081">
        <ele>2031.7</ele>
        <time>2021-08-12T12:05:56Z</time>
      </trkpt>
      <trkpt lat="45.51317" lon="6.73081">
        <ele>2031.7</ele>
        <time>2021-08-12T12:05:57Z</time>
      </trkpt>
      <trkpt lat="45.51318" lon="6.73081">
        <ele>2031.7</ele>
        <time>2021-08-12T12:05:58Z</time>
      </trkpt>
      <trkpt lat="45.51318" lon="6.73081">
        <ele>2031.8</ele>
        <time>2021-08-12T12:05:59Z</time>
      </trkpt>
      <trkpt lat="45.51318" lon="6.73081">
        <ele>2031.8</ele>
        <time>2021-08-12T12:06:00Z</time>
      </trkpt>
      <trkpt lat="45.51318" lon="6.73081">
        <ele>2031.8</ele>
        <time>2021-08-12T12:06:01Z</time>
      </trkpt>
      <trkpt lat="45.51318" lon="6.73081">
        <ele>2031.8</ele>
        <time>2021-08-12T12:06:02Z</time>
      </trkpt>
      <trkpt lat="45.51319" lon="6.73081">
        <ele>2031.8</ele>
        <time>2021-08-12T12:06:03Z</time>
      </trkpt>
      <trkpt lat="45.51319" lon="6.73081">
        <ele>2031.8</ele>
        <time>2021-08-12T12:06:04Z</time>
      </trkpt>
      <trkpt lat="45.51319" lon="6.73081">
        <ele>2031.8</ele>
        <time>2021-08-12T12:06:05Z</time>
      </trkpt>
      <trkpt lat="45.51319" lon="6.73081">
        <ele>2031.8</ele>
        <time>2021-08-12T12:06:06Z</time>
      </trkpt>
      <trkpt lat="45.51319" lon="6.7308">
        <ele>2031.8</ele>
        <time>2021-08-12T12:06:07Z</time>
      </trkpt>
      <trkpt lat="45.5132" lon="6.7308">
        <ele>2031.8</ele>
        <time>2021-08-12T12:06:08Z</time>
      </trkpt>
      <trkpt lat="45.5132" lon="6.7308">
        <ele>2031.8</ele>
        <time>2021-08-12T12:06:09Z</time>
      </trkpt>
      <trkpt lat="45.5132" lon="6.7308">
        <ele>2031.9</ele>
        <time>2021-08-12T12:06:10Z</time>
      </trkpt>
      <trkpt lat="45.5132" lon="6.7308">
        <ele>2031.9</ele>
        <time>2021-08-12T12:06:11Z</time>
      </trkpt>
      <trkpt lat="45.51321" lon="6.7308">
        <ele>2031.9</ele>
        <time>2021-08-12T12:06:12Z</time>
      </trkpt>
      <trkpt lat="45.51321" lon="6.7308">
        <ele>2031.9</ele>
        <time>2021-08-12T12:06:13Z</time>
      </trkpt>
      <trkpt lat="45.51321" lon="6.7308">
        <ele>2031.9</ele>
        <time>2021-08-12T12:06:14Z</time>
      </trkpt>
      <trkpt lat="45.51321" lon="6.7308">
        <ele>2031.9</ele>
        <time>2021-08-12T12:06:15Z</time>
      </trkpt>
      <trkpt lat="45.51321" lon="6.7308">
        <ele>2031.9</ele>
        <time>2021-08-12T12:06:16Z</time>
      </trkpt>
      <trkpt lat="45.51322" lon="6.7308">
        <ele>2031.9</ele>
        <time>2021-08-12T12:06:17Z</time>
      </trkpt>
      <trkpt lat="45.51322" lon="6.7308">
        <ele>2031.9</ele>
        <time>2021-08-12T12:06:18Z</time>
      </trkpt>
      <trkpt lat="45.51322" lon="6.7308">
        <ele>2031.9</ele>
        <time>2021-08-12T12:06:19Z</time>
      </trkpt>
      <trkpt lat="45.51322" lon="6.7308">
        <ele>2031.9</ele>
        <time>2021-08-12T12:06:20Z</time>
      </trkpt>
      <trkpt lat="45.51322" lon="6.73079">
        <ele>2032</ele>
        <time>2021-08-12T12:06:21Z</time>
      </trkpt>
      <trkpt lat="45.51323" lon="6.73079">
        <ele>2032</ele>
        <time>2021-08-12T12:06:22Z</time>
      </trkpt>
      <trkpt lat="45.51323" lon="6.73079">
        <ele>2032</ele>
        <time>2021-08-12T12:06:23Z</time>
      </trkpt>
      <trkpt lat="45.51323" lon="6.73079">
        <ele>2032</ele>
        <time>2021-08-12T12:06:24Z</time>
      </trkpt>
      <trkpt lat="45.51323" lon="6.73079">
        <ele>2032</ele>
        <time>2021-08-12T12:06:25Z</time>
      </trkpt>
      <trkpt lat="45.51324" lon="6.73079">
        <ele>2032</ele>
        <time>2021-08-12T12:06:26Z</time>
      </trkpt>
      <trkpt lat="45.51324" lon="6.73079">
        <ele>2032</ele>
        <time>2021-08-12T12:06:27Z</time>
      </trkpt>
      <trkpt lat="45.51324" lon="6.73079">
        <ele>2032</ele>
        <time>2021-08-12T12:06:28Z</time>
      </trkpt>
      <trkpt lat="45.51324" lon="6.73079">
        <ele>2032</ele>
        <time>2021-08-12T12:06:29Z</time>
      </trkpt>
      <trkpt lat="45.51324" lon="6.73079">
        <ele>2032</ele>
        <time>2021-08-12T12:06:30Z</time>
      </trkpt>
      <trkpt lat="45.51325" lon="6.73079">
        <ele>2032</ele>
        <time>2021-08-12T12:06:31Z</time>
      </trkpt>
      <trkpt lat="45.51325" lon="6.73079">
        <ele>2032</ele>
        <time>2021-08-12T12:06:32Z</time>
      </trkpt>
      <trkpt lat="45.51325" lon="6.73079">
        <ele>2032.1</ele>
        <time>2021-08-12T12:06:33Z</time>
      </trkpt>
      <trkpt lat="45.51325" lon="6.73078">
        <ele>2032.1</ele>
        <time>2021-08-12T12:06:34Z</time>
      </trkpt>
      <trkpt lat="45.51325" lon="6.73078">
        <ele>2032.1</ele>
        <time>2021-08-12T12:06:35Z</time>
      </trkpt>
      <trkpt lat="45.51326" lon="6.73078">
        <ele>2032.1</ele>
        <time>2021-08-12T12:06:36Z</time>
      </trkpt>
      <trkpt lat="45.51326" lon="6.73078">
        <ele>2032.1</ele>
        <time>2021-08-12T12:06:37Z</time>
      </trkpt>
      <trkpt lat="45.51326" lon="6.73078">
        <ele>2032.1</ele>
        <time>2021-08-12T12:06:38Z</time>
      </trkpt>
      <trkpt lat="45.51326" lon="6.73078">
        <ele>2032.1</ele>
        <time>2021-08-12T12:06:39Z</time>
      </trkpt>
      <trkpt lat="45.51327" lon="6.73078">
        <ele>2032.1</ele>
        <time>2021-08-12T12:06:40Z</time>
      </trkpt>
      <trkpt lat="45.51327" lon="6.73078">
        <ele>2032.1</ele>
        <time>2021-08-12T12:06:41Z</time>
      </trkpt>
      <trkpt lat="45.51327" lon="6.73078">
        <ele>2032.1</ele>
        <time>2021-08-12T12:06:42Z</time>
      </trkpt>
      <trkpt lat="45.51327" lon="6.73078">
        <ele>2032.1</ele>
        <time>2021-08-12T12:06:43Z</time>
      </trkpt>
      <trkpt lat="45.51327" lon="6.73078">
        <ele>2032.2</ele>
        <time>2021-08-12T12:06:44Z</time>
      </trkpt>
      <trkpt lat="45.51328" lon="6.73078">
        <ele>2032.2</ele>
        <time>2021-08-12T12:06:45Z</time>
      </trkpt>
      <trkpt lat="45.51328" lon="6.73078">
        <ele>2032.2</ele>
        <time>2021-08-12T12:06:46Z</time>
      </trkpt>
      <trkpt lat="45.51328" lon="6.73077">
        <ele>2032.2</ele>
        <time>2021-08-12T12:06:47Z</time>
      </trkpt>
      <trkpt lat="45.51328" lon="6.73077">
        <ele>2032.2</ele>
        <time>2021-08-12T12:06:48Z</time>
      </trkpt>
      <trkpt lat="45.51328" lon="6.73077">
        <ele>2032.2</ele>
        <time>2021-08-12T12:06:49Z</time>
      </trkpt>
      <trkpt lat="45.51329" lon="6.73077">
        <ele>2032.2</ele>
        <time>2021-08-12T12:06:50Z</time>
      </trkpt>
      <trkpt lat="45.51329" lon="6.73077">
        <ele>2032.2</ele>
        <time>2021-08-12T12:06:51Z</time>
      </trkpt>
      <trkpt lat="45.51329" lon="6.73077">
        <ele>2032.2</ele>
        <time>2021-08-12T12:06:52Z</time>
      </trkpt>
      <trkpt lat="45.51329" lon="6.73077">
        <ele>2032.2</ele>
        <time>2021-08-12T12:06:53Z</time>
      </trkpt>
      <trkpt lat="45.5133" lon="6.73077">
        <ele>2032.3</ele>
        <time>2021-08-12T12:06:54Z</time>
      </trkpt>
      <trkpt lat="45.5133" lon="6.73077">
        <ele>2032.3</ele>
        <time>2021-08-12T12:06:55Z</time>
      </trkpt>
      <trkpt lat="45.5133" lon="6.73077">
        <ele>2032.3</ele>
        <time>2021-08-12T12:06:56Z</time>
      </trkpt>
      <trkpt lat="45.5133" lon="6.73077">
        <ele>2032.3</ele>
        <time>2021-08-12T12:06:57Z</time>
      </trkpt>
      <trkpt lat="45.5133" lon="6.73077">
        <ele>2032.3</ele>
        <time>2021-08-12T12:06:58Z</time>
      </trkpt>
      <trkpt lat="45.51331" lon="6.73077">
        <ele>2032.3</ele>
        <time>2021-08-12T12:06:59Z</time>
      </trkpt>
      <trkpt lat="45.51331" lon="6.73076">
        <ele>2032.3</ele>
        <time>2021-08-12T12:07:00Z</time>
      </trkpt>
      <trkpt lat="45.51331" lon="6.73076">
        <ele>2032.3</ele>
        <time>2021-08-12T12:07:01Z</time>
      </trkpt>
      <trkpt lat="45.51331" lon="6.73076">
        <ele>2032.3</ele>
        <time>2021-08-12T12:07:02Z</time>
      </trkpt>
      <trkpt lat="45.51331" lon="6.73076">
        <ele>2032.4</ele>
        <time>2021-08-12T12:07:03Z</time>
      </trkpt>
      <trkpt lat="45.51332" lon="6.73076">
        <ele>2032.4</ele>
        <time>2021-08-12T12:07:04Z</time>
      </trkpt>
      <trkpt lat="45.51332" lon="6.73076">
        <ele>2032.4</ele>
        <time>2021-08-12T12:07:05Z</time>
      </trkpt>
      <trkpt lat="45.51332" lon="6.73076">
        <ele>2032.4</ele>
        <time>2021-08-12T12:07:06Z</time>
      </trkpt>
      <trkpt lat="45.51332" lon="6.73076">
        <ele>2032.4</ele>
        <time>2021-08-12T12:07:07Z</time>
      </trkpt>
      <trkpt lat="45.51333" lon="6.73076">
        <ele>2032.4</ele>
        <time>2021-08-12T12:07:08Z</time>
      </trkpt>
      <trkpt lat="45.51333" lon="6.73076">
        <ele>2032.4</ele>
        <time>2021-08-12T12:07:09Z</time>
      </trkpt>
      <trkpt lat="45.51333" lon="6.73076">
        <ele>2032.4</ele>
        <time>2021-08-12T12:07:10Z</time>
      </trkpt>
      <trkpt lat="45.51333" lon="6.73076">
        <ele>2032.5</ele>
        <time>2021-08-12T12:07:11Z</time>
      </trkpt>
      <trkpt lat="45.51333" lon="6.73076">
        <ele>2032.5</ele>
        <time>2021-08-12T12:07:12Z</time>
      </trkpt>
      <trkpt lat="45.51334" lon="6.73075">
        <ele>2032.5</ele>
        <time>2021-08-12T12:07:13Z</time>
      </trkpt>
      <trkpt lat="45.51334" lon="6.73075">
        <ele>2032.5</ele>
        <time>2021-08-12T12:07:14Z</time>
      </trkpt>
      <trkpt lat="45.51334" lon="6.73075">
        <ele>2032.5</ele>
        <time>2021-08-12T12:07:15Z</time>
      </trkpt>
      <trkpt lat="45.51334" lon="6.73075">
        <ele>2032.5</ele>
        <time>2021-08-12T12:07:16Z</time>
      </trkpt>
      <trkpt lat="45.51334" lon="6.73075">
        <ele>2032.5</ele>
        <time>2021-08-12T12:07:17Z</time>
      </trkpt>
      <trkpt lat="45.51335" lon="6.73075">
        <ele>2032.6</ele>
        <time>2021-08-12T12:07:18Z</time>
      </trkpt>
      <trkpt lat="45.51335" lon="6.73075">
        <ele>2032.6</ele>
        <time>2021-08-12T12:07:19Z</time>
      </trkpt>
      <trkpt lat="45.51335" lon="6.73075">
        <ele>2032.6</ele>
        <time>2021-08-12T12:07:20Z</time>
      </trkpt>
      <trkpt lat="45.51335" lon="6.73075">
        <ele>2032.6</ele>
        <time>2021-08-12T12:07:21Z</time>
      </trkpt>
      <trkpt lat="45.51336" lon="6.73075">
        <ele>2032.6</ele>
        <time>2021-08-12T12:07:22Z</time>
      </trkpt>
      <trkpt lat="45.51336" lon="6.73075">
        <ele>2032.6</ele>
        <time>2021-08-12T12:07:23Z</time>
      </trkpt>
      <trkpt lat="45.51336" lon="6.73075">
        <ele>2032.6</ele>
        <time>2021-08-12T12:07:24Z</time>
      </trkpt>
      <trkpt lat="45.51336" lon="6.73075">
        <ele>2032.7</ele>
        <time>2021-08-12T12:07:25Z</time>
      </trkpt>
      <trkpt lat="45.51336" lon="6.73074">
        <ele>2032.7</ele>
        <time>2021-08-12T12:07:26Z</time>
      </trkpt>
      <trkpt lat="45.51337" lon="6.73074">
        <ele>2032.7</ele>
        <time>2021-08-12T12:07:27Z</time>
      </trkpt>
      <trkpt lat="45.51337" lon="6.73074">
        <ele>2032.7</ele>
        <time>2021-08-12T12:07:28Z</time>
      </trkpt>
      <trkpt lat="45.51337" lon="6.73074">
        <ele>2032.7</ele>
        <time>2021-08-12T12:07:29Z</time>
      </trkpt>
      <trkpt lat="45.51337" lon="6.73074">
        <ele>2032.7</ele>
        <time>2021-08-12T12:07:30Z</time>
      </trkpt>
      <trkpt lat="45.51337" lon="6.73074">
        <ele>2032.7</ele>
        <time>2021-08-12T12:07:31Z</time>
      </trkpt>
      <trkpt lat="45.51338" lon="6.73074">
        <ele>2032.8</ele>
        <time>2021-08-12T12:07:32Z</time>
      </trkpt>
      <trkpt lat="45.51338" lon="6.73074">
        <ele>2032.8</ele>
        <time>2021-08-12T12:07:33Z</time>
      </trkpt>
      <trkpt lat="45.51338" lon="6.73074">
        <ele>2032.8</ele>
        <time>2021-08-12T12:07:34Z</time>
      </trkpt>
      <trkpt lat="45.51338" lon="6.73074">
        <ele>2032.8</ele>
        <time>2021-08-12T12:07:35Z</time>
      </trkpt>
      <trkpt lat="45.51339" lon="6.73074">
        <ele>2032.8</ele>
        <time>2021-08-12T12:07:36Z</time>
      </trkpt>
      <trkpt lat="45.51339" lon="6.73074">
        <ele>2032.9</ele>
        <time>2021-08-12T12:07:37Z</time>
      </trkpt>
      <trkpt lat="45.51339" lon="6.73074">
        <ele>2032.9</ele>
        <time>2021-08-12T12:07:38Z</time>
      </trkpt>
      <trkpt lat="45.51339" lon="6.73073">
        <ele>2032.9</ele>
        <time>2021-08-12T12:07:39Z</time>
      </trkpt>
      <trkpt lat="45.51339" lon="6.73073">
        <ele>2032.9</ele>
        <time>2021-08-12T12:07:40Z</time>
      </trkpt>
      <trkpt lat="45.5134" lon="6.73073">
        <ele>2032.9</ele>
        <time>2021-08-12T12:07:41Z</time>
      </trkpt>
      <trkpt lat="45.5134" lon="6.73073">
        <ele>2032.9</ele>
        <time>2021-08-12T12:07:42Z</time>
      </trkpt>
      <trkpt lat="45.5134" lon="6.73073">
        <ele>2033</ele>
        <time>2021-08-12T12:07:43Z</time>
      </trkpt>
      <trkpt lat="45.5134" lon="6.73073">
        <ele>2033</ele>
        <time>2021-08-12T12:07:44Z</time>
      </trkpt>
      <trkpt lat="45.5134" lon="6.73073">
        <ele>2033</ele>
        <time>2021-08-12T12:07:45Z</time>
      </trkpt>
      <trkpt lat="45.51341" lon="6.73073">
        <ele>2033</ele>
        <time>2021-08-12T12:07:46Z</time>
      </trkpt>
      <trkpt lat="45.51341" lon="6.73073">
        <ele>2033</ele>
        <time>2021-08-12T12:07:47Z</time>
      </trkpt>
      <trkpt lat="45.51341" lon="6.73073">
        <ele>2033</ele>
        <time>2021-08-12T12:07:48Z</time>
      </trkpt>
      <trkpt lat="45.51341" lon="6.73073">
        <ele>2033.1</ele>
        <time>2021-08-12T12:07:49Z</time>
      </trkpt>
      <trkpt lat="45.51342" lon="6.73073">
        <ele>2033.1</ele>
        <time>2021-08-12T12:07:50Z</time>
      </trkpt>
      <trkpt lat="45.51342" lon="6.73073">
        <ele>2033.1</ele>
        <time>2021-08-12T12:07:51Z</time>
      </trkpt>
      <trkpt lat="45.51342" lon="6.73073">
        <ele>2033.1</ele>
        <time>2021-08-12T12:07:52Z</time>
      </trkpt>
      <trkpt lat="45.51343" lon="6.73074">
        <ele>2033.2</ele>
        <time>2021-08-12T12:07:53Z</time>
      </trkpt>
      <trkpt lat="45.51343" lon="6.73075">
        <ele>2033.2</ele>
        <time>2021-08-12T12:07:54Z</time>
      </trkpt>
      <trkpt lat="45.51343" lon="6.73075">
        <ele>2033.3</ele>
        <time>2021-08-12T12:07:55Z</time>
      </trkpt>
      <trkpt lat="45.51344" lon="6.73076">
        <ele>2033.3</ele>
        <time>2021-08-12T12:07:56Z</time>
      </trkpt>
      <trkpt lat="45.51344" lon="6.73076">
        <ele>2033.3</ele>
        <time>2021-08-12T12:07:57Z</time>
      </trkpt>
      <trkpt lat="45.51344" lon="6.73077">
        <ele>2033.4</ele>
        <time>2021-08-12T12:07:58Z</time>
      </trkpt>
      <trkpt lat="45.51344" lon="6.73077">
        <ele>2033.4</ele>
        <time>2021-08-12T12:07:59Z</time>
      </trkpt>
      <trkpt lat="45.51344" lon="6.73078">
        <ele>2033.5</ele>
        <time>2021-08-12T12:08:00Z</time>
      </trkpt>
      <trkpt lat="45.51345" lon="6.73079">
        <ele>2033.5</ele>
        <time>2021-08-12T12:08:01Z</time>
      </trkpt>
      <trkpt lat="45.51345" lon="6.7308">
        <ele>2033.5</ele>
        <time>2021-08-12T12:08:02Z</time>
      </trkpt>
      <trkpt lat="45.51346" lon="6.7308">
        <ele>2033.6</ele>
        <time>2021-08-12T12:08:03Z</time>
      </trkpt>
      <trkpt lat="45.51346" lon="6.73081">
        <ele>2033.6</ele>
        <time>2021-08-12T12:08:04Z</time>
      </trkpt>
      <trkpt lat="45.51347" lon="6.73082">
        <ele>2033.7</ele>
        <time>2021-08-12T12:08:05Z</time>
      </trkpt>
      <trkpt lat="45.51347" lon="6.73083">
        <ele>2033.7</ele>
        <time>2021-08-12T12:08:06Z</time>
      </trkpt>
      <trkpt lat="45.51348" lon="6.73083">
        <ele>2033.7</ele>
        <time>2021-08-12T12:08:07Z</time>
      </trkpt>
      <trkpt lat="45.51349" lon="6.73084">
        <ele>2033.8</ele>
        <time>2021-08-12T12:08:08Z</time>
      </trkpt>
      <trkpt lat="45.51349" lon="6.73084">
        <ele>2033.8</ele>
        <time>2021-08-12T12:08:09Z</time>
      </trkpt>
      <trkpt lat="45.51349" lon="6.73085">
        <ele>2033.8</ele>
        <time>2021-08-12T12:08:10Z</time>
      </trkpt>
      <trkpt lat="45.5135" lon="6.73085">
        <ele>2033.8</ele>
        <time>2021-08-12T12:08:11Z</time>
      </trkpt>
      <trkpt lat="45.5135" lon="6.73085">
        <ele>2033.8</ele>
        <time>2021-08-12T12:08:12Z</time>
      </trkpt>
      <trkpt lat="45.5135" lon="6.73085">
        <ele>2033.8</ele>
        <time>2021-08-12T12:08:13Z</time>
      </trkpt>
      <trkpt lat="45.5135" lon="6.73085">
        <ele>2033.8</ele>
        <time>2021-08-12T12:08:14Z</time>
      </trkpt>
      <trkpt lat="45.51351" lon="6.73085">
        <ele>2033.8</ele>
        <time>2021-08-12T12:08:15Z</time>
      </trkpt>
      <trkpt lat="45.51351" lon="6.73085">
        <ele>2033.8</ele>
        <time>2021-08-12T12:08:16Z</time>
      </trkpt>
      <trkpt lat="45.51351" lon="6.73085">
        <ele>2033.9</ele>
        <time>2021-08-12T12:08:17Z</time>
      </trkpt>
      <trkpt lat="45.51351" lon="6.73085">
        <ele>2033.9</ele>
        <time>2021-08-12T12:08:18Z</time>
      </trkpt>
      <trkpt lat="45.51352" lon="6.73084">
        <ele>2033.9</ele>
        <time>2021-08-12T12:08:19Z</time>
      </trkpt>
      <trkpt lat="45.51352" lon="6.73084">
        <ele>2033.9</ele>
        <time>2021-08-12T12:08:20Z</time>
      </trkpt>
      <trkpt lat="45.51353" lon="6.73084">
        <ele>2033.9</ele>
        <time>2021-08-12T12:08:21Z</time>
      </trkpt>
      <trkpt lat="45.51354" lon="6.73084">
        <ele>2033.9</ele>
        <time>2021-08-12T12:08:22Z</time>
      </trkpt>
      <trkpt lat="45.51354" lon="6.73084">
        <ele>2033.9</ele>
        <time>2021-08-12T12:08:23Z</time>
      </trkpt>
      <trkpt lat="45.51355" lon="6.73084">
        <ele>2033.9</ele>
        <time>2021-08-12T12:08:24Z</time>
      </trkpt>
      <trkpt lat="45.51356" lon="6.73084">
        <ele>2033.9</ele>
        <time>2021-08-12T12:08:25Z</time>
      </trkpt>
      <trkpt lat="45.51357" lon="6.73084">
        <ele>2033.9</ele>
        <time>2021-08-12T12:08:26Z</time>
      </trkpt>
      <trkpt lat="45.51358" lon="6.73084">
        <ele>2034</ele>
        <time>2021-08-12T12:08:27Z</time>
      </trkpt>
      <trkpt lat="45.51359" lon="6.73084">
        <ele>2034</ele>
        <time>2021-08-12T12:08:28Z</time>
      </trkpt>
      <trkpt lat="45.51359" lon="6.73085">
        <ele>2034</ele>
        <time>2021-08-12T12:08:29Z</time>
      </trkpt>
      <trkpt lat="45.5136" lon="6.73085">
        <ele>2034</ele>
        <time>2021-08-12T12:08:30Z</time>
      </trkpt>
      <trkpt lat="45.5136" lon="6.73085">
        <ele>2034</ele>
        <time>2021-08-12T12:08:31Z</time>
      </trkpt>
      <trkpt lat="45.51361" lon="6.73085">
        <ele>2034</ele>
        <time>2021-08-12T12:08:32Z</time>
      </trkpt>
      <trkpt lat="45.51361" lon="6.73085">
        <ele>2034</ele>
        <time>2021-08-12T12:08:33Z</time>
      </trkpt>
      <trkpt lat="45.51361" lon="6.73085">
        <ele>2034</ele>
        <time>2021-08-12T12:08:34Z</time>
      </trkpt>
      <trkpt lat="45.51361" lon="6.73085">
        <ele>2034</ele>
        <time>2021-08-12T12:08:35Z</time>
      </trkpt>
      <trkpt lat="45.51361" lon="6.73085">
        <ele>2034</ele>
        <time>2021-08-12T12:08:36Z</time>
      </trkpt>
      <trkpt lat="45.51361" lon="6.73085">
        <ele>2034</ele>
        <time>2021-08-12T12:08:37Z</time>
      </trkpt>
      <trkpt lat="45.51361" lon="6.73085">
        <ele>2034</ele>
        <time>2021-08-12T12:08:38Z</time>
      </trkpt>
      <trkpt lat="45.51361" lon="6.73085">
        <ele>2034</ele>
        <time>2021-08-12T12:08:39Z</time>
      </trkpt>
      <trkpt lat="45.51361" lon="6.73085">
        <ele>2034</ele>
        <time>2021-08-12T12:08:40Z</time>
      </trkpt>
      <trkpt lat="45.51361" lon="6.73085">
        <ele>2034</ele>
        <time>2021-08-12T12:08:41Z</time>
      </trkpt>
      <trkpt lat="45.51361" lon="6.73085">
        <ele>2034</ele>
        <time>2021-08-12T12:08:42Z</time>
      </trkpt>
      <trkpt lat="45.51361" lon="6.73085">
        <ele>2034</ele>
        <time>2021-08-12T12:08:43Z</time>
      </trkpt>
      <trkpt lat="45.51361" lon="6.73085">
        <ele>2034</ele>
        <time>2021-08-12T12:08:44Z</time>
      </trkpt>
      <trkpt lat="45.51361" lon="6.73085">
        <ele>2034</ele>
        <time>2021-08-12T12:08:45Z</time>
      </trkpt>
      <trkpt lat="45.51361" lon="6.73085">
        <ele>2034</ele>
        <time>2021-08-12T12:08:46Z</time>
      </trkpt>
      <trkpt lat="45.51361" lon="6.73085">
        <ele>2034</ele>
        <time>2021-08-12T12:08:47Z</time>
      </trkpt>
      <trkpt lat="45.51361" lon="6.73085">
        <ele>2034</ele>
        <time>2021-08-12T12:08:48Z</time>
      </trkpt>
      <trkpt lat="45.51361" lon="6.73085">
        <ele>2034</ele>
        <time>2021-08-12T12:08:49Z</time>
      </trkpt>
      <trkpt lat="45.51361" lon="6.73085">
        <ele>2034</ele>
        <time>2021-08-12T12:08:50Z</time>
      </trkpt>
      <trkpt lat="45.51361" lon="6.73085">
        <ele>2034</ele>
        <time>2021-08-12T12:08:51Z</time>
      </trkpt>
      <trkpt lat="45.51361" lon="6.73085">
        <ele>2034</ele>
        <time>2021-08-12T12:08:52Z</time>
      </trkpt>
      <trkpt lat="45.51361" lon="6.73085">
        <ele>2034</ele>
        <time>2021-08-12T12:08:53Z</time>
      </trkpt>
      <trkpt lat="45.51361" lon="6.73085">
        <ele>2034</ele>
        <time>2021-08-12T12:08:54Z</time>
      </trkpt>
      <trkpt lat="45.51361" lon="6.73085">
        <ele>2034</ele>
        <time>2021-08-12T12:08:55Z</time>
      </trkpt>
      <trkpt lat="45.51362" lon="6.73085">
        <ele>2034</ele>
        <time>2021-08-12T12:08:56Z</time>
      </trkpt>
      <trkpt lat="45.51362" lon="6.73085">
        <ele>2034</ele>
        <time>2021-08-12T12:08:57Z</time>
      </trkpt>
      <trkpt lat="45.51362" lon="6.73086">
        <ele>2034</ele>
        <time>2021-08-12T12:08:58Z</time>
      </trkpt>
      <trkpt lat="45.51363" lon="6.73087">
        <ele>2034</ele>
        <time>2021-08-12T12:08:59Z</time>
      </trkpt>
      <trkpt lat="45.51363" lon="6.73088">
        <ele>2034</ele>
        <time>2021-08-12T12:09:00Z</time>
      </trkpt>
      <trkpt lat="45.51364" lon="6.73089">
        <ele>2034</ele>
        <time>2021-08-12T12:09:01Z</time>
      </trkpt>
      <trkpt lat="45.51365" lon="6.7309">
        <ele>2034</ele>
        <time>2021-08-12T12:09:02Z</time>
      </trkpt>
      <trkpt lat="45.51366" lon="6.7309">
        <ele>2034.1</ele>
        <time>2021-08-12T12:09:03Z</time>
      </trkpt>
      <trkpt lat="45.51366" lon="6.73091">
        <ele>2034.1</ele>
        <time>2021-08-12T12:09:04Z</time>
      </trkpt>
      <trkpt lat="45.51367" lon="6.73092">
        <ele>2034.1</ele>
        <time>2021-08-12T12:09:05Z</time>
      </trkpt>
      <trkpt lat="45.51367" lon="6.73092">
        <ele>2034.1</ele>
        <time>2021-08-12T12:09:06Z</time>
      </trkpt>
      <trkpt lat="45.51368" lon="6.73092">
        <ele>2034.1</ele>
        <time>2021-08-12T12:09:07Z</time>
      </trkpt>
      <trkpt lat="45.51368" lon="6.73092">
        <ele>2034.1</ele>
        <time>2021-08-12T12:09:08Z</time>
      </trkpt>
      <trkpt lat="45.51369" lon="6.73093">
        <ele>2034.1</ele>
        <time>2021-08-12T12:09:09Z</time>
      </trkpt>
      <trkpt lat="45.51369" lon="6.73093">
        <ele>2034.1</ele>
        <time>2021-08-12T12:09:10Z</time>
      </trkpt>
      <trkpt lat="45.5137" lon="6.73093">
        <ele>2034.2</ele>
        <time>2021-08-12T12:09:11Z</time>
      </trkpt>
      <trkpt lat="45.5137" lon="6.73094">
        <ele>2034.2</ele>
        <time>2021-08-12T12:09:12Z</time>
      </trkpt>
      <trkpt lat="45.51371" lon="6.73094">
        <ele>2034.2</ele>
        <time>2021-08-12T12:09:13Z</time>
      </trkpt>
      <trkpt lat="45.51371" lon="6.73094">
        <ele>2034.2</ele>
        <time>2021-08-12T12:09:14Z</time>
      </trkpt>
      <trkpt lat="45.51371" lon="6.73094">
        <ele>2034.2</ele>
        <time>2021-08-12T12:09:15Z</time>
      </trkpt>
      <trkpt lat="45.51371" lon="6.73094">
        <ele>2034.2</ele>
        <time>2021-08-12T12:09:16Z</time>
      </trkpt>
      <trkpt lat="45.51371" lon="6.73094">
        <ele>2034.2</ele>
        <time>2021-08-12T12:09:17Z</time>
      </trkpt>
      <trkpt lat="45.51371" lon="6.73094">
        <ele>2034.2</ele>
        <time>2021-08-12T12:09:18Z</time>
      </trkpt>
      <trkpt lat="45.51371" lon="6.73094">
        <ele>2034.2</ele>
        <time>2021-08-12T12:09:19Z</time>
      </trkpt>
      <trkpt lat="45.51372" lon="6.73094">
        <ele>2034.2</ele>
        <time>2021-08-12T12:09:20Z</time>
      </trkpt>
      <trkpt lat="45.51372" lon="6.73094">
        <ele>2034.2</ele>
        <time>2021-08-12T12:09:21Z</time>
      </trkpt>
      <trkpt lat="45.51372" lon="6.73094">
        <ele>2034.2</ele>
        <time>2021-08-12T12:09:22Z</time>
      </trkpt>
      <trkpt lat="45.51372" lon="6.73094">
        <ele>2034.2</ele>
        <time>2021-08-12T12:09:23Z</time>
      </trkpt>
      <trkpt lat="45.51372" lon="6.73094">
        <ele>2034.2</ele>
        <time>2021-08-12T12:09:24Z</time>
      </trkpt>
      <trkpt lat="45.51372" lon="6.73094">
        <ele>2034.2</ele>
        <time>2021-08-12T12:09:25Z</time>
      </trkpt>
      <trkpt lat="45.51372" lon="6.73094">
        <ele>2034.2</ele>
        <time>2021-08-12T12:09:26Z</time>
      </trkpt>
      <trkpt lat="45.51372" lon="6.73094">
        <ele>2034.2</ele>
        <time>2021-08-12T12:09:27Z</time>
      </trkpt>
      <trkpt lat="45.51372" lon="6.73094">
        <ele>2034.2</ele>
        <time>2021-08-12T12:09:28Z</time>
      </trkpt>
      <trkpt lat="45.51372" lon="6.73094">
        <ele>2034.2</ele>
        <time>2021-08-12T12:09:29Z</time>
      </trkpt>
      <trkpt lat="45.51372" lon="6.73094">
        <ele>2034.2</ele>
        <time>2021-08-12T12:09:30Z</time>
      </trkpt>
      <trkpt lat="45.51372" lon="6.73094">
        <ele>2034.2</ele>
        <time>2021-08-12T12:09:31Z</time>
      </trkpt>
      <trkpt lat="45.51372" lon="6.73094">
        <ele>2034.2</ele>
        <time>2021-08-12T12:09:32Z</time>
      </trkpt>
      <trkpt lat="45.51372" lon="6.73094">
        <ele>2034.2</ele>
        <time>2021-08-12T12:09:33Z</time>
      </trkpt>
      <trkpt lat="45.51372" lon="6.73094">
        <ele>2034.2</ele>
        <time>2021-08-12T12:09:34Z</time>
      </trkpt>
      <trkpt lat="45.51372" lon="6.73094">
        <ele>2034.2</ele>
        <time>2021-08-12T12:09:35Z</time>
      </trkpt>
      <trkpt lat="45.51372" lon="6.73094">
        <ele>2034.2</ele>
        <time>2021-08-12T12:09:36Z</time>
      </trkpt>
      <trkpt lat="45.51372" lon="6.73094">
        <ele>2034.2</ele>
        <time>2021-08-12T12:09:37Z</time>
      </trkpt>
      <trkpt lat="45.51372" lon="6.73094">
        <ele>2034.2</ele>
        <time>2021-08-12T12:09:38Z</time>
      </trkpt>
      <trkpt lat="45.51372" lon="6.73094">
        <ele>2034.2</ele>
        <time>2021-08-12T12:09:39Z</time>
      </trkpt>
      <trkpt lat="45.51372" lon="6.73094">
        <ele>2034.2</ele>
        <time>2021-08-12T12:09:40Z</time>
      </trkpt>
      <trkpt lat="45.51372" lon="6.73094">
        <ele>2034.2</ele>
        <time>2021-08-12T12:09:41Z</time>
      </trkpt>
      <trkpt lat="45.51372" lon="6.73094">
        <ele>2034.2</ele>
        <time>2021-08-12T12:09:42Z</time>
      </trkpt>
      <trkpt lat="45.51372" lon="6.73094">
        <ele>2034.2</ele>
        <time>2021-08-12T12:09:43Z</time>
      </trkpt>
      <trkpt lat="45.51372" lon="6.73094">
        <ele>2034.2</ele>
        <time>2021-08-12T12:09:44Z</time>
      </trkpt>
      <trkpt lat="45.51372" lon="6.73094">
        <ele>2034.2</ele>
        <time>2021-08-12T12:09:45Z</time>
      </trkpt>
      <trkpt lat="45.51372" lon="6.73094">
        <ele>2034.2</ele>
        <time>2021-08-12T12:09:46Z</time>
      </trkpt>
      <trkpt lat="45.51372" lon="6.73094">
        <ele>2034.2</ele>
        <time>2021-08-12T12:09:47Z</time>
      </trkpt>
      <trkpt lat="45.51372" lon="6.73094">
        <ele>2034.2</ele>
        <time>2021-08-12T12:09:48Z</time>
      </trkpt>
      <trkpt lat="45.51372" lon="6.73094">
        <ele>2034.2</ele>
        <time>2021-08-12T12:09:49Z</time>
      </trkpt>
      <trkpt lat="45.51372" lon="6.73094">
        <ele>2034.2</ele>
        <time>2021-08-12T12:09:50Z</time>
      </trkpt>
      <trkpt lat="45.51372" lon="6.73094">
        <ele>2034.2</ele>
        <time>2021-08-12T12:09:51Z</time>
      </trkpt>
      <trkpt lat="45.51372" lon="6.73094">
        <ele>2034.2</ele>
        <time>2021-08-12T12:09:52Z</time>
      </trkpt>
      <trkpt lat="45.51372" lon="6.73094">
        <ele>2034.2</ele>
        <time>2021-08-12T12:09:53Z</time>
      </trkpt>
      <trkpt lat="45.51372" lon="6.73094">
        <ele>2034.2</ele>
        <time>2021-08-12T12:09:54Z</time>
      </trkpt>
      <trkpt lat="45.51372" lon="6.73094">
        <ele>2034.2</ele>
        <time>2021-08-12T12:09:55Z</time>
      </trkpt>
      <trkpt lat="45.51372" lon="6.73094">
        <ele>2034.2</ele>
        <time>2021-08-12T12:09:56Z</time>
      </trkpt>
      <trkpt lat="45.51372" lon="6.73094">
        <ele>2034.2</ele>
        <time>2021-08-12T12:09:57Z</time>
      </trkpt>
      <trkpt lat="45.51372" lon="6.73094">
        <ele>2034.2</ele>
        <time>2021-08-12T12:09:58Z</time>
      </trkpt>
      <trkpt lat="45.51372" lon="6.73094">
        <ele>2034.2</ele>
        <time>2021-08-12T12:09:59Z</time>
      </trkpt>
      <trkpt lat="45.51372" lon="6.73094">
        <ele>2034.2</ele>
        <time>2021-08-12T12:10:00Z</time>
      </trkpt>
      <trkpt lat="45.51372" lon="6.73094">
        <ele>2034.2</ele>
        <time>2021-08-12T12:10:01Z</time>
      </trkpt>
      <trkpt lat="45.51372" lon="6.73094">
        <ele>2034.2</ele>
        <time>2021-08-12T12:10:02Z</time>
      </trkpt>
      <trkpt lat="45.51372" lon="6.73094">
        <ele>2034.2</ele>
        <time>2021-08-12T12:10:03Z</time>
      </trkpt>
      <trkpt lat="45.51372" lon="6.73094">
        <ele>2034.2</ele>
        <time>2021-08-12T12:10:04Z</time>
      </trkpt>
      <trkpt lat="45.51372" lon="6.73094">
        <ele>2034.2</ele>
        <time>2021-08-12T12:10:05Z</time>
      </trkpt>
      <trkpt lat="45.51372" lon="6.73094">
        <ele>2034.2</ele>
        <time>2021-08-12T12:10:06Z</time>
      </trkpt>
      <trkpt lat="45.51372" lon="6.73094">
        <ele>2034.2</ele>
        <time>2021-08-12T12:10:07Z</time>
      </trkpt>
      <trkpt lat="45.51372" lon="6.73094">
        <ele>2034.2</ele>
        <time>2021-08-12T12:10:08Z</time>
      </trkpt>
      <trkpt lat="45.51372" lon="6.73094">
        <ele>2034.2</ele>
        <time>2021-08-12T12:10:09Z</time>
      </trkpt>
      <trkpt lat="45.51372" lon="6.73094">
        <ele>2034.2</ele>
        <time>2021-08-12T12:10:10Z</time>
      </trkpt>
      <trkpt lat="45.51372" lon="6.73094">
        <ele>2034.2</ele>
        <time>2021-08-12T12:10:11Z</time>
      </trkpt>
      <trkpt lat="45.51372" lon="6.73094">
        <ele>2034.2</ele>
        <time>2021-08-12T12:10:12Z</time>
      </trkpt>
      <trkpt lat="45.51372" lon="6.73094">
        <ele>2034.2</ele>
        <time>2021-08-12T12:10:13Z</time>
      </trkpt>
      <trkpt lat="45.51372" lon="6.73094">
        <ele>2034.2</ele>
        <time>2021-08-12T12:10:14Z</time>
      </trkpt>
      <trkpt lat="45.51372" lon="6.73094">
        <ele>2034.2</ele>
        <time>2021-08-12T12:10:15Z</time>
      </trkpt>
      <trkpt lat="45.51372" lon="6.73094">
        <ele>2034.2</ele>
        <time>2021-08-12T12:10:16Z</time>
      </trkpt>
      <trkpt lat="45.51372" lon="6.73094">
        <ele>2034.2</ele>
        <time>2021-08-12T12:10:17Z</time>
      </trkpt>
      <trkpt lat="45.51372" lon="6.73094">
        <ele>2034.2</ele>
        <time>2021-08-12T12:10:18Z</time>
      </trkpt>
      <trkpt lat="45.51372" lon="6.73094">
        <ele>2034.2</ele>
        <time>2021-08-12T12:10:19Z</time>
      </trkpt>
      <trkpt lat="45.51372" lon="6.73094">
        <ele>2034.2</ele>
        <time>2021-08-12T12:10:20Z</time>
      </trkpt>
      <trkpt lat="45.51372" lon="6.73094">
        <ele>2034.2</ele>
        <time>2021-08-12T12:10:21Z</time>
      </trkpt>
      <trkpt lat="45.51372" lon="6.73094">
        <ele>2034.2</ele>
        <time>2021-08-12T12:10:22Z</time>
      </trkpt>
      <trkpt lat="45.51372" lon="6.73094">
        <ele>2034.2</ele>
        <time>2021-08-12T12:10:23Z</time>
      </trkpt>
      <trkpt lat="45.51372" lon="6.73094">
        <ele>2034.2</ele>
        <time>2021-08-12T12:10:24Z</time>
      </trkpt>
      <trkpt lat="45.51372" lon="6.73094">
        <ele>2034.2</ele>
        <time>2021-08-12T12:10:25Z</time>
      </trkpt>
      <trkpt lat="45.51372" lon="6.73094">
        <ele>2034.2</ele>
        <time>2021-08-12T12:10:26Z</time>
      </trkpt>
      <trkpt lat="45.51372" lon="6.73094">
        <ele>2034.2</ele>
        <time>2021-08-12T12:10:27Z</time>
      </trkpt>
      <trkpt lat="45.51372" lon="6.73094">
        <ele>2034.2</ele>
        <time>2021-08-12T12:10:28Z</time>
      </trkpt>
      <trkpt lat="45.51372" lon="6.73094">
        <ele>2034.2</ele>
        <time>2021-08-12T12:10:29Z</time>
      </trkpt>
      <trkpt lat="45.51372" lon="6.73094">
        <ele>2034.2</ele>
        <time>2021-08-12T12:10:30Z</time>
      </trkpt>
      <trkpt lat="45.51373" lon="6.73095">
        <ele>2034.3</ele>
        <time>2021-08-12T12:10:31Z</time>
      </trkpt>
      <trkpt lat="45.51374" lon="6.73095">
        <ele>2034.3</ele>
        <time>2021-08-12T12:10:32Z</time>
      </trkpt>
      <trkpt lat="45.51375" lon="6.73095">
        <ele>2034.3</ele>
        <time>2021-08-12T12:10:33Z</time>
      </trkpt>
      <trkpt lat="45.51375" lon="6.73095">
        <ele>2034.4</ele>
        <time>2021-08-12T12:10:34Z</time>
      </trkpt>
      <trkpt lat="45.51376" lon="6.73095">
        <ele>2034.4</ele>
        <time>2021-08-12T12:10:35Z</time>
      </trkpt>
      <trkpt lat="45.51376" lon="6.73096">
        <ele>2034.4</ele>
        <time>2021-08-12T12:10:36Z</time>
      </trkpt>
      <trkpt lat="45.51376" lon="6.73096">
        <ele>2034.4</ele>
        <time>2021-08-12T12:10:37Z</time>
      </trkpt>
      <trkpt lat="45.51376" lon="6.73096">
        <ele>2034.4</ele>
        <time>2021-08-12T12:10:38Z</time>
      </trkpt>
      <trkpt lat="45.51376" lon="6.73096">
        <ele>2034.5</ele>
        <time>2021-08-12T12:10:39Z</time>
      </trkpt>
      <trkpt lat="45.51377" lon="6.73096">
        <ele>2034.5</ele>
        <time>2021-08-12T12:10:40Z</time>
      </trkpt>
      <trkpt lat="45.51377" lon="6.73096">
        <ele>2034.5</ele>
        <time>2021-08-12T12:10:41Z</time>
      </trkpt>
      <trkpt lat="45.51377" lon="6.73096">
        <ele>2034.5</ele>
        <time>2021-08-12T12:10:42Z</time>
      </trkpt>
      <trkpt lat="45.51377" lon="6.73096">
        <ele>2034.5</ele>
        <time>2021-08-12T12:10:43Z</time>
      </trkpt>
      <trkpt lat="45.51377" lon="6.73096">
        <ele>2034.5</ele>
        <time>2021-08-12T12:10:44Z</time>
      </trkpt>
      <trkpt lat="45.51377" lon="6.73096">
        <ele>2034.5</ele>
        <time>2021-08-12T12:10:45Z</time>
      </trkpt>
      <trkpt lat="45.51377" lon="6.73096">
        <ele>2034.5</ele>
        <time>2021-08-12T12:10:46Z</time>
      </trkpt>
      <trkpt lat="45.51377" lon="6.73096">
        <ele>2034.5</ele>
        <time>2021-08-12T12:10:47Z</time>
      </trkpt>
      <trkpt lat="45.51377" lon="6.73096">
        <ele>2034.5</ele>
        <time>2021-08-12T12:10:48Z</time>
      </trkpt>
      <trkpt lat="45.51378" lon="6.73096">
        <ele>2034.5</ele>
        <time>2021-08-12T12:10:49Z</time>
      </trkpt>
      <trkpt lat="45.51378" lon="6.73097">
        <ele>2034.6</ele>
        <time>2021-08-12T12:10:50Z</time>
      </trkpt>
      <trkpt lat="45.51378" lon="6.73097">
        <ele>2034.6</ele>
        <time>2021-08-12T12:10:51Z</time>
      </trkpt>
      <trkpt lat="45.51378" lon="6.73097">
        <ele>2034.6</ele>
        <time>2021-08-12T12:10:52Z</time>
      </trkpt>
      <trkpt lat="45.51379" lon="6.73097">
        <ele>2034.6</ele>
        <time>2021-08-12T12:10:53Z</time>
      </trkpt>
      <trkpt lat="45.51379" lon="6.73097">
        <ele>2034.7</ele>
        <time>2021-08-12T12:10:54Z</time>
      </trkpt>
      <trkpt lat="45.51379" lon="6.73098">
        <ele>2034.7</ele>
        <time>2021-08-12T12:10:55Z</time>
      </trkpt>
      <trkpt lat="45.51379" lon="6.73098">
        <ele>2034.7</ele>
        <time>2021-08-12T12:10:56Z</time>
      </trkpt>
      <trkpt lat="45.5138" lon="6.73098">
        <ele>2034.7</ele>
        <time>2021-08-12T12:10:57Z</time>
      </trkpt>
      <trkpt lat="45.5138" lon="6.73098">
        <ele>2034.8</ele>
        <time>2021-08-12T12:10:58Z</time>
      </trkpt>
      <trkpt lat="45.5138" lon="6.73098">
        <ele>2034.8</ele>
        <time>2021-08-12T12:10:59Z</time>
      </trkpt>
      <trkpt lat="45.5138" lon="6.73098">
        <ele>2034.8</ele>
        <time>2021-08-12T12:11:00Z</time>
      </trkpt>
      <trkpt lat="45.51381" lon="6.73099">
        <ele>2034.9</ele>
        <time>2021-08-12T12:11:01Z</time>
      </trkpt>
      <trkpt lat="45.51381" lon="6.73099">
        <ele>2034.9</ele>
        <time>2021-08-12T12:11:02Z</time>
      </trkpt>
      <trkpt lat="45.51381" lon="6.73099">
        <ele>2034.9</ele>
        <time>2021-08-12T12:11:03Z</time>
      </trkpt>
      <trkpt lat="45.51381" lon="6.73099">
        <ele>2034.9</ele>
        <time>2021-08-12T12:11:04Z</time>
      </trkpt>
      <trkpt lat="45.51382" lon="6.73099">
        <ele>2035</ele>
        <time>2021-08-12T12:11:05Z</time>
      </trkpt>
      <trkpt lat="45.51382" lon="6.73099">
        <ele>2035</ele>
        <time>2021-08-12T12:11:06Z</time>
      </trkpt>
      <trkpt lat="45.51382" lon="6.73099">
        <ele>2035</ele>
        <time>2021-08-12T12:11:07Z</time>
      </trkpt>
      <trkpt lat="45.51382" lon="6.731">
        <ele>2035.1</ele>
        <time>2021-08-12T12:11:08Z</time>
      </trkpt>
      <trkpt lat="45.51383" lon="6.731">
        <ele>2035.1</ele>
        <time>2021-08-12T12:11:09Z</time>
      </trkpt>
      <trkpt lat="45.51383" lon="6.731">
        <ele>2035.1</ele>
        <time>2021-08-12T12:11:10Z</time>
      </trkpt>
      <trkpt lat="45.51383" lon="6.731">
        <ele>2035.2</ele>
        <time>2021-08-12T12:11:11Z</time>
      </trkpt>
      <trkpt lat="45.51383" lon="6.731">
        <ele>2035.2</ele>
        <time>2021-08-12T12:11:12Z</time>
      </trkpt>
      <trkpt lat="45.51384" lon="6.731">
        <ele>2035.2</ele>
        <time>2021-08-12T12:11:13Z</time>
      </trkpt>
      <trkpt lat="45.51384" lon="6.73101">
        <ele>2035.3</ele>
        <time>2021-08-12T12:11:14Z</time>
      </trkpt>
      <trkpt lat="45.51384" lon="6.73101">
        <ele>2035.3</ele>
        <time>2021-08-12T12:11:15Z</time>
      </trkpt>
      <trkpt lat="45.51384" lon="6.73101">
        <ele>2035.4</ele>
        <time>2021-08-12T12:11:16Z</time>
      </trkpt>
      <trkpt lat="45.51385" lon="6.73101">
        <ele>2035.4</ele>
        <time>2021-08-12T12:11:17Z</time>
      </trkpt>
      <trkpt lat="45.51385" lon="6.73101">
        <ele>2035.5</ele>
        <time>2021-08-12T12:11:18Z</time>
      </trkpt>
      <trkpt lat="45.51385" lon="6.73101">
        <ele>2035.5</ele>
        <time>2021-08-12T12:11:19Z</time>
      </trkpt>
      <trkpt lat="45.51385" lon="6.73101">
        <ele>2035.6</ele>
        <time>2021-08-12T12:11:20Z</time>
      </trkpt>
      <trkpt lat="45.51386" lon="6.73102">
        <ele>2035.6</ele>
        <time>2021-08-12T12:11:21Z</time>
      </trkpt>
      <trkpt lat="45.51386" lon="6.73102">
        <ele>2035.7</ele>
        <time>2021-08-12T12:11:22Z</time>
      </trkpt>
      <trkpt lat="45.51386" lon="6.73102">
        <ele>2035.7</ele>
        <time>2021-08-12T12:11:23Z</time>
      </trkpt>
      <trkpt lat="45.51386" lon="6.73102">
        <ele>2035.8</ele>
        <time>2021-08-12T12:11:24Z</time>
      </trkpt>
      <trkpt lat="45.51387" lon="6.73102">
        <ele>2035.8</ele>
        <time>2021-08-12T12:11:25Z</time>
      </trkpt>
      <trkpt lat="45.51387" lon="6.73102">
        <ele>2035.9</ele>
        <time>2021-08-12T12:11:26Z</time>
      </trkpt>
      <trkpt lat="45.51387" lon="6.73103">
        <ele>2035.9</ele>
        <time>2021-08-12T12:11:27Z</time>
      </trkpt>
      <trkpt lat="45.51387" lon="6.73103">
        <ele>2035.9</ele>
        <time>2021-08-12T12:11:28Z</time>
      </trkpt>
      <trkpt lat="45.51387" lon="6.73103">
        <ele>2036</ele>
        <time>2021-08-12T12:11:29Z</time>
      </trkpt>
      <trkpt lat="45.51388" lon="6.73103">
        <ele>2036.1</ele>
        <time>2021-08-12T12:11:30Z</time>
      </trkpt>
      <trkpt lat="45.51388" lon="6.73103">
        <ele>2036.1</ele>
        <time>2021-08-12T12:11:31Z</time>
      </trkpt>
      <trkpt lat="45.51388" lon="6.73103">
        <ele>2036.2</ele>
        <time>2021-08-12T12:11:32Z</time>
      </trkpt>
      <trkpt lat="45.51388" lon="6.73103">
        <ele>2036.2</ele>
        <time>2021-08-12T12:11:33Z</time>
      </trkpt>
      <trkpt lat="45.51389" lon="6.73104">
        <ele>2036.3</ele>
        <time>2021-08-12T12:11:34Z</time>
      </trkpt>
      <trkpt lat="45.51389" lon="6.73104">
        <ele>2036.4</ele>
        <time>2021-08-12T12:11:35Z</time>
      </trkpt>
      <trkpt lat="45.51389" lon="6.73104">
        <ele>2036.4</ele>
        <time>2021-08-12T12:11:36Z</time>
      </trkpt>
      <trkpt lat="45.51389" lon="6.73104">
        <ele>2036.5</ele>
        <time>2021-08-12T12:11:37Z</time>
      </trkpt>
      <trkpt lat="45.5139" lon="6.73104">
        <ele>2036.6</ele>
        <time>2021-08-12T12:11:38Z</time>
      </trkpt>
      <trkpt lat="45.5139" lon="6.73104">
        <ele>2036.6</ele>
        <time>2021-08-12T12:11:39Z</time>
      </trkpt>
      <trkpt lat="45.5139" lon="6.73105">
        <ele>2036.7</ele>
        <time>2021-08-12T12:11:40Z</time>
      </trkpt>
      <trkpt lat="45.5139" lon="6.73105">
        <ele>2036.8</ele>
        <time>2021-08-12T12:11:41Z</time>
      </trkpt>
      <trkpt lat="45.51391" lon="6.73105">
        <ele>2036.8</ele>
        <time>2021-08-12T12:11:42Z</time>
      </trkpt>
      <trkpt lat="45.51391" lon="6.73105">
        <ele>2036.9</ele>
        <time>2021-08-12T12:11:43Z</time>
      </trkpt>
      <trkpt lat="45.51391" lon="6.73105">
        <ele>2036.9</ele>
        <time>2021-08-12T12:11:44Z</time>
      </trkpt>
      <trkpt lat="45.51391" lon="6.73105">
        <ele>2037</ele>
        <time>2021-08-12T12:11:45Z</time>
      </trkpt>
      <trkpt lat="45.51392" lon="6.73106">
        <ele>2037.1</ele>
        <time>2021-08-12T12:11:46Z</time>
      </trkpt>
      <trkpt lat="45.51392" lon="6.73106">
        <ele>2037.2</ele>
        <time>2021-08-12T12:11:47Z</time>
      </trkpt>
      <trkpt lat="45.51392" lon="6.73106">
        <ele>2037.2</ele>
        <time>2021-08-12T12:11:48Z</time>
      </trkpt>
      <trkpt lat="45.51392" lon="6.73106">
        <ele>2037.3</ele>
        <time>2021-08-12T12:11:49Z</time>
      </trkpt>
      <trkpt lat="45.51393" lon="6.73106">
        <ele>2037.4</ele>
        <time>2021-08-12T12:11:50Z</time>
      </trkpt>
      <trkpt lat="45.51393" lon="6.73106">
        <ele>2037.5</ele>
        <time>2021-08-12T12:11:51Z</time>
      </trkpt>
      <trkpt lat="45.51393" lon="6.73106">
        <ele>2037.6</ele>
        <time>2021-08-12T12:11:52Z</time>
      </trkpt>
      <trkpt lat="45.51393" lon="6.73107">
        <ele>2037.6</ele>
        <time>2021-08-12T12:11:53Z</time>
      </trkpt>
      <trkpt lat="45.51394" lon="6.73107">
        <ele>2037.7</ele>
        <time>2021-08-12T12:11:54Z</time>
      </trkpt>
      <trkpt lat="45.51394" lon="6.73107">
        <ele>2037.8</ele>
        <time>2021-08-12T12:11:55Z</time>
      </trkpt>
      <trkpt lat="45.51394" lon="6.73107">
        <ele>2037.9</ele>
        <time>2021-08-12T12:11:56Z</time>
      </trkpt>
      <trkpt lat="45.51394" lon="6.73107">
        <ele>2038</ele>
        <time>2021-08-12T12:11:57Z</time>
      </trkpt>
      <trkpt lat="45.51395" lon="6.73107">
        <ele>2038.1</ele>
        <time>2021-08-12T12:11:58Z</time>
      </trkpt>
      <trkpt lat="45.51395" lon="6.73108">
        <ele>2038.1</ele>
        <time>2021-08-12T12:11:59Z</time>
      </trkpt>
      <trkpt lat="45.51395" lon="6.73108">
        <ele>2038.3</ele>
        <time>2021-08-12T12:12:00Z</time>
      </trkpt>
      <trkpt lat="45.51396" lon="6.73108">
        <ele>2038.4</ele>
        <time>2021-08-12T12:12:01Z</time>
      </trkpt>
      <trkpt lat="45.51396" lon="6.73107">
        <ele>2038.5</ele>
        <time>2021-08-12T12:12:02Z</time>
      </trkpt>
      <trkpt lat="45.51396" lon="6.73107">
        <ele>2038.6</ele>
        <time>2021-08-12T12:12:03Z</time>
      </trkpt>
      <trkpt lat="45.51396" lon="6.73107">
        <ele>2038.6</ele>
        <time>2021-08-12T12:12:04Z</time>
      </trkpt>
      <trkpt lat="45.51396" lon="6.73107">
        <ele>2038.7</ele>
        <time>2021-08-12T12:12:05Z</time>
      </trkpt>
      <trkpt lat="45.51397" lon="6.73107">
        <ele>2038.7</ele>
        <time>2021-08-12T12:12:06Z</time>
      </trkpt>
      <trkpt lat="45.51397" lon="6.73107">
        <ele>2038.8</ele>
        <time>2021-08-12T12:12:07Z</time>
      </trkpt>
      <trkpt lat="45.51397" lon="6.73107">
        <ele>2038.8</ele>
        <time>2021-08-12T12:12:08Z</time>
      </trkpt>
      <trkpt lat="45.51397" lon="6.73107">
        <ele>2038.8</ele>
        <time>2021-08-12T12:12:09Z</time>
      </trkpt>
      <trkpt lat="45.51397" lon="6.73107">
        <ele>2038.9</ele>
        <time>2021-08-12T12:12:10Z</time>
      </trkpt>
      <trkpt lat="45.51397" lon="6.73107">
        <ele>2038.9</ele>
        <time>2021-08-12T12:12:11Z</time>
      </trkpt>
      <trkpt lat="45.51397" lon="6.73107">
        <ele>2038.9</ele>
        <time>2021-08-12T12:12:12Z</time>
      </trkpt>
      <trkpt lat="45.51397" lon="6.73107">
        <ele>2039</ele>
        <time>2021-08-12T12:12:13Z</time>
      </trkpt>
      <trkpt lat="45.51398" lon="6.73107">
        <ele>2039.1</ele>
        <time>2021-08-12T12:12:14Z</time>
      </trkpt>
      <trkpt lat="45.51398" lon="6.73106">
        <ele>2039.2</ele>
        <time>2021-08-12T12:12:15Z</time>
      </trkpt>
      <trkpt lat="45.51398" lon="6.73106">
        <ele>2039.3</ele>
        <time>2021-08-12T12:12:16Z</time>
      </trkpt>
      <trkpt lat="45.51398" lon="6.73106">
        <ele>2039.4</ele>
        <time>2021-08-12T12:12:17Z</time>
      </trkpt>
      <trkpt lat="45.51399" lon="6.73105">
        <ele>2039.6</ele>
        <time>2021-08-12T12:12:18Z</time>
      </trkpt>
      <trkpt lat="45.51399" lon="6.73105">
        <ele>2039.7</ele>
        <time>2021-08-12T12:12:19Z</time>
      </trkpt>
      <trkpt lat="45.51399" lon="6.73104">
        <ele>2039.9</ele>
        <time>2021-08-12T12:12:20Z</time>
      </trkpt>
      <trkpt lat="45.51399" lon="6.73103">
        <ele>2040.1</ele>
        <time>2021-08-12T12:12:21Z</time>
      </trkpt>
      <trkpt lat="45.514" lon="6.73103">
        <ele>2040.2</ele>
        <time>2021-08-12T12:12:22Z</time>
      </trkpt>
      <trkpt lat="45.514" lon="6.73103">
        <ele>2040.3</ele>
        <time>2021-08-12T12:12:23Z</time>
      </trkpt>
      <trkpt lat="45.514" lon="6.73103">
        <ele>2040.3</ele>
        <time>2021-08-12T12:12:24Z</time>
      </trkpt>
      <trkpt lat="45.514" lon="6.73103">
        <ele>2040.4</ele>
        <time>2021-08-12T12:12:25Z</time>
      </trkpt>
      <trkpt lat="45.514" lon="6.73103">
        <ele>2040.4</ele>
        <time>2021-08-12T12:12:26Z</time>
      </trkpt>
      <trkpt lat="45.514" lon="6.73103">
        <ele>2040.5</ele>
        <time>2021-08-12T12:12:27Z</time>
      </trkpt>
      <trkpt lat="45.514" lon="6.73102">
        <ele>2040.6</ele>
        <time>2021-08-12T12:12:28Z</time>
      </trkpt>
      <trkpt lat="45.51401" lon="6.73102">
        <ele>2040.6</ele>
        <time>2021-08-12T12:12:29Z</time>
      </trkpt>
      <trkpt lat="45.51401" lon="6.73102">
        <ele>2040.7</ele>
        <time>2021-08-12T12:12:30Z</time>
      </trkpt>
      <trkpt lat="45.51401" lon="6.73102">
        <ele>2040.7</ele>
        <time>2021-08-12T12:12:31Z</time>
      </trkpt>
      <trkpt lat="45.51401" lon="6.73102">
        <ele>2040.8</ele>
        <time>2021-08-12T12:12:32Z</time>
      </trkpt>
      <trkpt lat="45.51401" lon="6.73102">
        <ele>2040.9</ele>
        <time>2021-08-12T12:12:33Z</time>
      </trkpt>
      <trkpt lat="45.51401" lon="6.73102">
        <ele>2040.9</ele>
        <time>2021-08-12T12:12:34Z</time>
      </trkpt>
      <trkpt lat="45.51401" lon="6.73102">
        <ele>2041</ele>
        <time>2021-08-12T12:12:35Z</time>
      </trkpt>
      <trkpt lat="45.51402" lon="6.73101">
        <ele>2041</ele>
        <time>2021-08-12T12:12:36Z</time>
      </trkpt>
      <trkpt lat="45.51402" lon="6.73101">
        <ele>2041.1</ele>
        <time>2021-08-12T12:12:37Z</time>
      </trkpt>
      <trkpt lat="45.51402" lon="6.73101">
        <ele>2041.2</ele>
        <time>2021-08-12T12:12:38Z</time>
      </trkpt>
      <trkpt lat="45.51402" lon="6.73101">
        <ele>2041.2</ele>
        <time>2021-08-12T12:12:39Z</time>
      </trkpt>
      <trkpt lat="45.51402" lon="6.73101">
        <ele>2041.3</ele>
        <time>2021-08-12T12:12:40Z</time>
      </trkpt>
      <trkpt lat="45.51402" lon="6.73101">
        <ele>2041.3</ele>
        <time>2021-08-12T12:12:41Z</time>
      </trkpt>
      <trkpt lat="45.51402" lon="6.73101">
        <ele>2041.4</ele>
        <time>2021-08-12T12:12:42Z</time>
      </trkpt>
      <trkpt lat="45.51402" lon="6.73101">
        <ele>2041.4</ele>
        <time>2021-08-12T12:12:43Z</time>
      </trkpt>
      <trkpt lat="45.51403" lon="6.731">
        <ele>2041.5</ele>
        <time>2021-08-12T12:12:44Z</time>
      </trkpt>
      <trkpt lat="45.51403" lon="6.731">
        <ele>2041.6</ele>
        <time>2021-08-12T12:12:45Z</time>
      </trkpt>
      <trkpt lat="45.51403" lon="6.731">
        <ele>2041.6</ele>
        <time>2021-08-12T12:12:46Z</time>
      </trkpt>
      <trkpt lat="45.51403" lon="6.731">
        <ele>2041.7</ele>
        <time>2021-08-12T12:12:47Z</time>
      </trkpt>
      <trkpt lat="45.51403" lon="6.731">
        <ele>2041.7</ele>
        <time>2021-08-12T12:12:48Z</time>
      </trkpt>
      <trkpt lat="45.51403" lon="6.731">
        <ele>2041.8</ele>
        <time>2021-08-12T12:12:49Z</time>
      </trkpt>
      <trkpt lat="45.51403" lon="6.731">
        <ele>2041.9</ele>
        <time>2021-08-12T12:12:50Z</time>
      </trkpt>
      <trkpt lat="45.51404" lon="6.731">
        <ele>2041.9</ele>
        <time>2021-08-12T12:12:51Z</time>
      </trkpt>
      <trkpt lat="45.51404" lon="6.73099">
        <ele>2042</ele>
        <time>2021-08-12T12:12:52Z</time>
      </trkpt>
      <trkpt lat="45.51404" lon="6.73099">
        <ele>2042</ele>
        <time>2021-08-12T12:12:53Z</time>
      </trkpt>
      <trkpt lat="45.51404" lon="6.73099">
        <ele>2042.1</ele>
        <time>2021-08-12T12:12:54Z</time>
      </trkpt>
      <trkpt lat="45.51404" lon="6.73099">
        <ele>2042.2</ele>
        <time>2021-08-12T12:12:55Z</time>
      </trkpt>
      <trkpt lat="45.51404" lon="6.73099">
        <ele>2042.2</ele>
        <time>2021-08-12T12:12:56Z</time>
      </trkpt>
      <trkpt lat="45.51404" lon="6.73099">
        <ele>2042.3</ele>
        <time>2021-08-12T12:12:57Z</time>
      </trkpt>
      <trkpt lat="45.51405" lon="6.73099">
        <ele>2042.3</ele>
        <time>2021-08-12T12:12:58Z</time>
      </trkpt>
      <trkpt lat="45.51405" lon="6.73099">
        <ele>2042.4</ele>
        <time>2021-08-12T12:12:59Z</time>
      </trkpt>
      <trkpt lat="45.51405" lon="6.73098">
        <ele>2042.5</ele>
        <time>2021-08-12T12:13:00Z</time>
      </trkpt>
      <trkpt lat="45.51405" lon="6.73098">
        <ele>2042.5</ele>
        <time>2021-08-12T12:13:01Z</time>
      </trkpt>
      <trkpt lat="45.51405" lon="6.73098">
        <ele>2042.6</ele>
        <time>2021-08-12T12:13:02Z</time>
      </trkpt>
      <trkpt lat="45.51405" lon="6.73098">
        <ele>2042.6</ele>
        <time>2021-08-12T12:13:03Z</time>
      </trkpt>
      <trkpt lat="45.51405" lon="6.73098">
        <ele>2042.7</ele>
        <time>2021-08-12T12:13:04Z</time>
      </trkpt>
      <trkpt lat="45.51405" lon="6.73098">
        <ele>2042.7</ele>
        <time>2021-08-12T12:13:05Z</time>
      </trkpt>
      <trkpt lat="45.51406" lon="6.73098">
        <ele>2042.8</ele>
        <time>2021-08-12T12:13:06Z</time>
      </trkpt>
      <trkpt lat="45.51406" lon="6.73098">
        <ele>2042.9</ele>
        <time>2021-08-12T12:13:07Z</time>
      </trkpt>
      <trkpt lat="45.51406" lon="6.73097">
        <ele>2042.9</ele>
        <time>2021-08-12T12:13:08Z</time>
      </trkpt>
      <trkpt lat="45.51406" lon="6.73097">
        <ele>2043</ele>
        <time>2021-08-12T12:13:09Z</time>
      </trkpt>
      <trkpt lat="45.51406" lon="6.73097">
        <ele>2043</ele>
        <time>2021-08-12T12:13:10Z</time>
      </trkpt>
      <trkpt lat="45.51406" lon="6.73097">
        <ele>2043.1</ele>
        <time>2021-08-12T12:13:11Z</time>
      </trkpt>
      <trkpt lat="45.51406" lon="6.73097">
        <ele>2043.2</ele>
        <time>2021-08-12T12:13:12Z</time>
      </trkpt>
      <trkpt lat="45.51407" lon="6.73097">
        <ele>2043.2</ele>
        <time>2021-08-12T12:13:13Z</time>
      </trkpt>
      <trkpt lat="45.51407" lon="6.73097">
        <ele>2043.3</ele>
        <time>2021-08-12T12:13:14Z</time>
      </trkpt>
      <trkpt lat="45.51407" lon="6.73097">
        <ele>2043.3</ele>
        <time>2021-08-12T12:13:15Z</time>
      </trkpt>
      <trkpt lat="45.51407" lon="6.73096">
        <ele>2043.4</ele>
        <time>2021-08-12T12:13:16Z</time>
      </trkpt>
      <trkpt lat="45.51407" lon="6.73096">
        <ele>2043.4</ele>
        <time>2021-08-12T12:13:17Z</time>
      </trkpt>
      <trkpt lat="45.51407" lon="6.73096">
        <ele>2043.5</ele>
        <time>2021-08-12T12:13:18Z</time>
      </trkpt>
      <trkpt lat="45.51407" lon="6.73096">
        <ele>2043.6</ele>
        <time>2021-08-12T12:13:19Z</time>
      </trkpt>
      <trkpt lat="45.51408" lon="6.73096">
        <ele>2043.6</ele>
        <time>2021-08-12T12:13:20Z</time>
      </trkpt>
      <trkpt lat="45.51408" lon="6.73096">
        <ele>2043.6</ele>
        <time>2021-08-12T12:13:21Z</time>
      </trkpt>
      <trkpt lat="45.51408" lon="6.73096">
        <ele>2043.7</ele>
        <time>2021-08-12T12:13:22Z</time>
      </trkpt>
      <trkpt lat="45.51408" lon="6.73096">
        <ele>2043.8</ele>
        <time>2021-08-12T12:13:23Z</time>
      </trkpt>
      <trkpt lat="45.51408" lon="6.73095">
        <ele>2043.8</ele>
        <time>2021-08-12T12:13:24Z</time>
      </trkpt>
      <trkpt lat="45.51408" lon="6.73095">
        <ele>2043.9</ele>
        <time>2021-08-12T12:13:25Z</time>
      </trkpt>
      <trkpt lat="45.51408" lon="6.73095">
        <ele>2043.9</ele>
        <time>2021-08-12T12:13:26Z</time>
      </trkpt>
      <trkpt lat="45.51409" lon="6.73095">
        <ele>2044</ele>
        <time>2021-08-12T12:13:27Z</time>
      </trkpt>
      <trkpt lat="45.51409" lon="6.73095">
        <ele>2044</ele>
        <time>2021-08-12T12:13:28Z</time>
      </trkpt>
      <trkpt lat="45.51409" lon="6.73095">
        <ele>2044.1</ele>
        <time>2021-08-12T12:13:29Z</time>
      </trkpt>
      <trkpt lat="45.51409" lon="6.73095">
        <ele>2044.1</ele>
        <time>2021-08-12T12:13:30Z</time>
      </trkpt>
      <trkpt lat="45.51409" lon="6.73095">
        <ele>2044.2</ele>
        <time>2021-08-12T12:13:31Z</time>
      </trkpt>
      <trkpt lat="45.51409" lon="6.73094">
        <ele>2044.2</ele>
        <time>2021-08-12T12:13:32Z</time>
      </trkpt>
      <trkpt lat="45.51409" lon="6.73094">
        <ele>2044.3</ele>
        <time>2021-08-12T12:13:33Z</time>
      </trkpt>
      <trkpt lat="45.51409" lon="6.73094">
        <ele>2044.4</ele>
        <time>2021-08-12T12:13:34Z</time>
      </trkpt>
      <trkpt lat="45.5141" lon="6.73094">
        <ele>2044.4</ele>
        <time>2021-08-12T12:13:35Z</time>
      </trkpt>
      <trkpt lat="45.5141" lon="6.73094">
        <ele>2044.5</ele>
        <time>2021-08-12T12:13:36Z</time>
      </trkpt>
      <trkpt lat="45.5141" lon="6.73094">
        <ele>2044.5</ele>
        <time>2021-08-12T12:13:37Z</time>
      </trkpt>
      <trkpt lat="45.5141" lon="6.73094">
        <ele>2044.6</ele>
        <time>2021-08-12T12:13:38Z</time>
      </trkpt>
      <trkpt lat="45.5141" lon="6.73094">
        <ele>2044.7</ele>
        <time>2021-08-12T12:13:39Z</time>
      </trkpt>
      <trkpt lat="45.5141" lon="6.73093">
        <ele>2044.7</ele>
        <time>2021-08-12T12:13:40Z</time>
      </trkpt>
      <trkpt lat="45.5141" lon="6.73093">
        <ele>2044.8</ele>
        <time>2021-08-12T12:13:41Z</time>
      </trkpt>
      <trkpt lat="45.51411" lon="6.73093">
        <ele>2044.8</ele>
        <time>2021-08-12T12:13:42Z</time>
      </trkpt>
      <trkpt lat="45.51411" lon="6.73093">
        <ele>2044.9</ele>
        <time>2021-08-12T12:13:43Z</time>
      </trkpt>
      <trkpt lat="45.51411" lon="6.73093">
        <ele>2044.9</ele>
        <time>2021-08-12T12:13:44Z</time>
      </trkpt>
      <trkpt lat="45.51411" lon="6.73093">
        <ele>2045</ele>
        <time>2021-08-12T12:13:45Z</time>
      </trkpt>
      <trkpt lat="45.51411" lon="6.73093">
        <ele>2045</ele>
        <time>2021-08-12T12:13:46Z</time>
      </trkpt>
      <trkpt lat="45.51411" lon="6.73093">
        <ele>2045.1</ele>
        <time>2021-08-12T12:13:47Z</time>
      </trkpt>
      <trkpt lat="45.51411" lon="6.73092">
        <ele>2045.1</ele>
        <time>2021-08-12T12:13:48Z</time>
      </trkpt>
      <trkpt lat="45.51412" lon="6.73092">
        <ele>2045.2</ele>
        <time>2021-08-12T12:13:49Z</time>
      </trkpt>
      <trkpt lat="45.51412" lon="6.73092">
        <ele>2045.2</ele>
        <time>2021-08-12T12:13:50Z</time>
      </trkpt>
      <trkpt lat="45.51412" lon="6.73092">
        <ele>2045.3</ele>
        <time>2021-08-12T12:13:51Z</time>
      </trkpt>
      <trkpt lat="45.51412" lon="6.73092">
        <ele>2045.3</ele>
        <time>2021-08-12T12:13:52Z</time>
      </trkpt>
      <trkpt lat="45.51412" lon="6.73092">
        <ele>2045.4</ele>
        <time>2021-08-12T12:13:53Z</time>
      </trkpt>
      <trkpt lat="45.51412" lon="6.73092">
        <ele>2045.4</ele>
        <time>2021-08-12T12:13:54Z</time>
      </trkpt>
      <trkpt lat="45.51412" lon="6.73092">
        <ele>2045.5</ele>
        <time>2021-08-12T12:13:55Z</time>
      </trkpt>
      <trkpt lat="45.51412" lon="6.73091">
        <ele>2045.5</ele>
        <time>2021-08-12T12:13:56Z</time>
      </trkpt>
      <trkpt lat="45.51413" lon="6.73091">
        <ele>2045.6</ele>
        <time>2021-08-12T12:13:57Z</time>
      </trkpt>
      <trkpt lat="45.51413" lon="6.73091">
        <ele>2045.6</ele>
        <time>2021-08-12T12:13:58Z</time>
      </trkpt>
      <trkpt lat="45.51413" lon="6.73091">
        <ele>2045.7</ele>
        <time>2021-08-12T12:13:59Z</time>
      </trkpt>
      <trkpt lat="45.51413" lon="6.73091">
        <ele>2045.8</ele>
        <time>2021-08-12T12:14:00Z</time>
      </trkpt>
      <trkpt lat="45.51413" lon="6.73091">
        <ele>2045.8</ele>
        <time>2021-08-12T12:14:01Z</time>
      </trkpt>
      <trkpt lat="45.51413" lon="6.73091">
        <ele>2045.9</ele>
        <time>2021-08-12T12:14:02Z</time>
      </trkpt>
      <trkpt lat="45.51413" lon="6.73091">
        <ele>2045.9</ele>
        <time>2021-08-12T12:14:03Z</time>
      </trkpt>
      <trkpt lat="45.51414" lon="6.73091">
        <ele>2045.9</ele>
        <time>2021-08-12T12:14:04Z</time>
      </trkpt>
      <trkpt lat="45.51414" lon="6.73091">
        <ele>2046</ele>
        <time>2021-08-12T12:14:05Z</time>
      </trkpt>
      <trkpt lat="45.51414" lon="6.73091">
        <ele>2046</ele>
        <time>2021-08-12T12:14:06Z</time>
      </trkpt>
      <trkpt lat="45.51414" lon="6.73091">
        <ele>2046</ele>
        <time>2021-08-12T12:14:07Z</time>
      </trkpt>
      <trkpt lat="45.51414" lon="6.73091">
        <ele>2046</ele>
        <time>2021-08-12T12:14:08Z</time>
      </trkpt>
      <trkpt lat="45.51414" lon="6.73091">
        <ele>2046</ele>
        <time>2021-08-12T12:14:09Z</time>
      </trkpt>
      <trkpt lat="45.51414" lon="6.73091">
        <ele>2046</ele>
        <time>2021-08-12T12:14:10Z</time>
      </trkpt>
      <trkpt lat="45.51414" lon="6.73091">
        <ele>2046</ele>
        <time>2021-08-12T12:14:11Z</time>
      </trkpt>
      <trkpt lat="45.51414" lon="6.73091">
        <ele>2046</ele>
        <time>2021-08-12T12:14:12Z</time>
      </trkpt>
      <trkpt lat="45.51414" lon="6.73091">
        <ele>2046</ele>
        <time>2021-08-12T12:14:13Z</time>
      </trkpt>
      <trkpt lat="45.51414" lon="6.73091">
        <ele>2046</ele>
        <time>2021-08-12T12:14:14Z</time>
      </trkpt>
      <trkpt lat="45.51414" lon="6.73091">
        <ele>2046</ele>
        <time>2021-08-12T12:14:15Z</time>
      </trkpt>
      <trkpt lat="45.51414" lon="6.73091">
        <ele>2046</ele>
        <time>2021-08-12T12:14:16Z</time>
      </trkpt>
      <trkpt lat="45.51414" lon="6.73091">
        <ele>2046</ele>
        <time>2021-08-12T12:14:17Z</time>
      </trkpt>
      <trkpt lat="45.51414" lon="6.73091">
        <ele>2046</ele>
        <time>2021-08-12T12:14:18Z</time>
      </trkpt>
      <trkpt lat="45.51414" lon="6.73091">
        <ele>2046</ele>
        <time>2021-08-12T12:14:19Z</time>
      </trkpt>
      <trkpt lat="45.51414" lon="6.73091">
        <ele>2046</ele>
        <time>2021-08-12T12:14:20Z</time>
      </trkpt>
      <trkpt lat="45.51414" lon="6.73091">
        <ele>2046</ele>
        <time>2021-08-12T12:14:21Z</time>
      </trkpt>
      <trkpt lat="45.51414" lon="6.73091">
        <ele>2046</ele>
        <time>2021-08-12T12:14:22Z</time>
      </trkpt>
      <trkpt lat="45.51414" lon="6.73091">
        <ele>2046</ele>
        <time>2021-08-12T12:14:23Z</time>
      </trkpt>
      <trkpt lat="45.51414" lon="6.73091">
        <ele>2046.1</ele>
        <time>2021-08-12T12:14:24Z</time>
      </trkpt>
      <trkpt lat="45.51414" lon="6.73091">
        <ele>2046.1</ele>
        <time>2021-08-12T12:14:25Z</time>
      </trkpt>
      <trkpt lat="45.51415" lon="6.73091">
        <ele>2046.3</ele>
        <time>2021-08-12T12:14:26Z</time>
      </trkpt>
      <trkpt lat="45.51415" lon="6.73091">
        <ele>2046.4</ele>
        <time>2021-08-12T12:14:27Z</time>
      </trkpt>
      <trkpt lat="45.51416" lon="6.73091">
        <ele>2046.6</ele>
        <time>2021-08-12T12:14:28Z</time>
      </trkpt>
      <trkpt lat="45.51416" lon="6.73091">
        <ele>2046.7</ele>
        <time>2021-08-12T12:14:29Z</time>
      </trkpt>
      <trkpt lat="45.51417" lon="6.73091">
        <ele>2046.9</ele>
        <time>2021-08-12T12:14:30Z</time>
      </trkpt>
      <trkpt lat="45.51417" lon="6.73091">
        <ele>2047</ele>
        <time>2021-08-12T12:14:31Z</time>
      </trkpt>
      <trkpt lat="45.51417" lon="6.7309">
        <ele>2047.1</ele>
        <time>2021-08-12T12:14:32Z</time>
      </trkpt>
      <trkpt lat="45.51418" lon="6.7309">
        <ele>2047.2</ele>
        <time>2021-08-12T12:14:33Z</time>
      </trkpt>
      <trkpt lat="45.51418" lon="6.7309">
        <ele>2047.3</ele>
        <time>2021-08-12T12:14:34Z</time>
      </trkpt>
      <trkpt lat="45.51418" lon="6.7309">
        <ele>2047.4</ele>
        <time>2021-08-12T12:14:35Z</time>
      </trkpt>
      <trkpt lat="45.51419" lon="6.7309">
        <ele>2047.5</ele>
        <time>2021-08-12T12:14:36Z</time>
      </trkpt>
      <trkpt lat="45.51419" lon="6.7309">
        <ele>2047.6</ele>
        <time>2021-08-12T12:14:37Z</time>
      </trkpt>
      <trkpt lat="45.51419" lon="6.7309">
        <ele>2047.7</ele>
        <time>2021-08-12T12:14:38Z</time>
      </trkpt>
      <trkpt lat="45.51419" lon="6.7309">
        <ele>2047.8</ele>
        <time>2021-08-12T12:14:39Z</time>
      </trkpt>
      <trkpt lat="45.5142" lon="6.73089">
        <ele>2047.9</ele>
        <time>2021-08-12T12:14:40Z</time>
      </trkpt>
      <trkpt lat="45.5142" lon="6.73089">
        <ele>2048</ele>
        <time>2021-08-12T12:14:41Z</time>
      </trkpt>
      <trkpt lat="45.5142" lon="6.73089">
        <ele>2048</ele>
        <time>2021-08-12T12:14:42Z</time>
      </trkpt>
      <trkpt lat="45.51421" lon="6.73089">
        <ele>2048.1</ele>
        <time>2021-08-12T12:14:43Z</time>
      </trkpt>
      <trkpt lat="45.51421" lon="6.73089">
        <ele>2048.2</ele>
        <time>2021-08-12T12:14:44Z</time>
      </trkpt>
      <trkpt lat="45.51421" lon="6.73089">
        <ele>2048.3</ele>
        <time>2021-08-12T12:14:45Z</time>
      </trkpt>
      <trkpt lat="45.51422" lon="6.73089">
        <ele>2048.4</ele>
        <time>2021-08-12T12:14:46Z</time>
      </trkpt>
      <trkpt lat="45.51422" lon="6.73088">
        <ele>2048.5</ele>
        <time>2021-08-12T12:14:47Z</time>
      </trkpt>
      <trkpt lat="45.51422" lon="6.73088">
        <ele>2048.7</ele>
        <time>2021-08-12T12:14:48Z</time>
      </trkpt>
      <trkpt lat="45.51423" lon="6.73088">
        <ele>2048.8</ele>
        <time>2021-08-12T12:14:49Z</time>
      </trkpt>
      <trkpt lat="45.51423" lon="6.73088">
        <ele>2048.9</ele>
        <time>2021-08-12T12:14:50Z</time>
      </trkpt>
      <trkpt lat="45.51424" lon="6.73088">
        <ele>2049.1</ele>
        <time>2021-08-12T12:14:51Z</time>
      </trkpt>
      <trkpt lat="45.51424" lon="6.73088">
        <ele>2049.2</ele>
        <time>2021-08-12T12:14:52Z</time>
      </trkpt>
      <trkpt lat="45.51425" lon="6.73088">
        <ele>2049.3</ele>
        <time>2021-08-12T12:14:53Z</time>
      </trkpt>
      <trkpt lat="45.51425" lon="6.73088">
        <ele>2049.4</ele>
        <time>2021-08-12T12:14:54Z</time>
      </trkpt>
      <trkpt lat="45.51425" lon="6.73088">
        <ele>2049.5</ele>
        <time>2021-08-12T12:14:55Z</time>
      </trkpt>
      <trkpt lat="45.51426" lon="6.73088">
        <ele>2049.6</ele>
        <time>2021-08-12T12:14:56Z</time>
      </trkpt>
      <trkpt lat="45.51426" lon="6.73087">
        <ele>2049.7</ele>
        <time>2021-08-12T12:14:57Z</time>
      </trkpt>
      <trkpt lat="45.51426" lon="6.73087">
        <ele>2049.7</ele>
        <time>2021-08-12T12:14:58Z</time>
      </trkpt>
      <trkpt lat="45.51426" lon="6.73087">
        <ele>2049.8</ele>
        <time>2021-08-12T12:14:59Z</time>
      </trkpt>
      <trkpt lat="45.51426" lon="6.73087">
        <ele>2049.8</ele>
        <time>2021-08-12T12:15:00Z</time>
      </trkpt>
      <trkpt lat="45.51426" lon="6.73087">
        <ele>2049.8</ele>
        <time>2021-08-12T12:15:01Z</time>
      </trkpt>
      <trkpt lat="45.51426" lon="6.73087">
        <ele>2049.9</ele>
        <time>2021-08-12T12:15:02Z</time>
      </trkpt>
      <trkpt lat="45.51427" lon="6.73087">
        <ele>2050.2</ele>
        <time>2021-08-12T12:15:03Z</time>
      </trkpt>
      <trkpt lat="45.51428" lon="6.73087">
        <ele>2050.4</ele>
        <time>2021-08-12T12:15:04Z</time>
      </trkpt>
      <trkpt lat="45.51429" lon="6.73087">
        <ele>2050.6</ele>
        <time>2021-08-12T12:15:05Z</time>
      </trkpt>
      <trkpt lat="45.51429" lon="6.73087">
        <ele>2050.7</ele>
        <time>2021-08-12T12:15:06Z</time>
      </trkpt>
      <trkpt lat="45.51429" lon="6.73087">
        <ele>2050.8</ele>
        <time>2021-08-12T12:15:07Z</time>
      </trkpt>
      <trkpt lat="45.5143" lon="6.73087">
        <ele>2050.8</ele>
        <time>2021-08-12T12:15:08Z</time>
      </trkpt>
      <trkpt lat="45.5143" lon="6.73087">
        <ele>2050.9</ele>
        <time>2021-08-12T12:15:09Z</time>
      </trkpt>
      <trkpt lat="45.5143" lon="6.73087">
        <ele>2051</ele>
        <time>2021-08-12T12:15:10Z</time>
      </trkpt>
      <trkpt lat="45.5143" lon="6.73087">
        <ele>2051.1</ele>
        <time>2021-08-12T12:15:11Z</time>
      </trkpt>
      <trkpt lat="45.51431" lon="6.73087">
        <ele>2051.2</ele>
        <time>2021-08-12T12:15:12Z</time>
      </trkpt>
      <trkpt lat="45.51431" lon="6.73087">
        <ele>2051.3</ele>
        <time>2021-08-12T12:15:13Z</time>
      </trkpt>
      <trkpt lat="45.51432" lon="6.73087">
        <ele>2051.5</ele>
        <time>2021-08-12T12:15:14Z</time>
      </trkpt>
      <trkpt lat="45.51432" lon="6.73087">
        <ele>2051.6</ele>
        <time>2021-08-12T12:15:15Z</time>
      </trkpt>
      <trkpt lat="45.51433" lon="6.73086">
        <ele>2051.8</ele>
        <time>2021-08-12T12:15:16Z</time>
      </trkpt>
      <trkpt lat="45.51433" lon="6.73086">
        <ele>2051.9</ele>
        <time>2021-08-12T12:15:17Z</time>
      </trkpt>
      <trkpt lat="45.51434" lon="6.73086">
        <ele>2052.1</ele>
        <time>2021-08-12T12:15:18Z</time>
      </trkpt>
      <trkpt lat="45.51434" lon="6.73086">
        <ele>2052.2</ele>
        <time>2021-08-12T12:15:19Z</time>
      </trkpt>
      <trkpt lat="45.51435" lon="6.73085">
        <ele>2052.4</ele>
        <time>2021-08-12T12:15:20Z</time>
      </trkpt>
      <trkpt lat="45.51435" lon="6.73085">
        <ele>2052.5</ele>
        <time>2021-08-12T12:15:21Z</time>
      </trkpt>
      <trkpt lat="45.51436" lon="6.73084">
        <ele>2052.7</ele>
        <time>2021-08-12T12:15:22Z</time>
      </trkpt>
      <trkpt lat="45.51436" lon="6.73084">
        <ele>2052.9</ele>
        <time>2021-08-12T12:15:23Z</time>
      </trkpt>
      <trkpt lat="45.51437" lon="6.73083">
        <ele>2053</ele>
        <time>2021-08-12T12:15:24Z</time>
      </trkpt>
      <trkpt lat="45.51437" lon="6.73083">
        <ele>2053.2</ele>
        <time>2021-08-12T12:15:25Z</time>
      </trkpt>
      <trkpt lat="45.51438" lon="6.73083">
        <ele>2053.3</ele>
        <time>2021-08-12T12:15:26Z</time>
      </trkpt>
      <trkpt lat="45.51438" lon="6.73082">
        <ele>2053.5</ele>
        <time>2021-08-12T12:15:27Z</time>
      </trkpt>
      <trkpt lat="45.51439" lon="6.73082">
        <ele>2053.6</ele>
        <time>2021-08-12T12:15:28Z</time>
      </trkpt>
      <trkpt lat="45.51439" lon="6.73082">
        <ele>2053.7</ele>
        <time>2021-08-12T12:15:29Z</time>
      </trkpt>
      <trkpt lat="45.5144" lon="6.73082">
        <ele>2053.9</ele>
        <time>2021-08-12T12:15:30Z</time>
      </trkpt>
      <trkpt lat="45.5144" lon="6.73082">
        <ele>2054</ele>
        <time>2021-08-12T12:15:31Z</time>
      </trkpt>
      <trkpt lat="45.51441" lon="6.73082">
        <ele>2054.1</ele>
        <time>2021-08-12T12:15:32Z</time>
      </trkpt>
      <trkpt lat="45.51441" lon="6.73082">
        <ele>2054.2</ele>
        <time>2021-08-12T12:15:33Z</time>
      </trkpt>
      <trkpt lat="45.51442" lon="6.73083">
        <ele>2054.4</ele>
        <time>2021-08-12T12:15:34Z</time>
      </trkpt>
      <trkpt lat="45.51442" lon="6.73083">
        <ele>2054.5</ele>
        <time>2021-08-12T12:15:35Z</time>
      </trkpt>
      <trkpt lat="45.51443" lon="6.73083">
        <ele>2054.7</ele>
        <time>2021-08-12T12:15:36Z</time>
      </trkpt>
      <trkpt lat="45.51443" lon="6.73084">
        <ele>2054.8</ele>
        <time>2021-08-12T12:15:37Z</time>
      </trkpt>
      <trkpt lat="45.51444" lon="6.73084">
        <ele>2055</ele>
        <time>2021-08-12T12:15:38Z</time>
      </trkpt>
      <trkpt lat="45.51444" lon="6.73085">
        <ele>2055.2</ele>
        <time>2021-08-12T12:15:39Z</time>
      </trkpt>
      <trkpt lat="45.51445" lon="6.73085">
        <ele>2055.4</ele>
        <time>2021-08-12T12:15:40Z</time>
      </trkpt>
      <trkpt lat="45.51445" lon="6.73085">
        <ele>2055.5</ele>
        <time>2021-08-12T12:15:41Z</time>
      </trkpt>
      <trkpt lat="45.51446" lon="6.73086">
        <ele>2055.7</ele>
        <time>2021-08-12T12:15:42Z</time>
      </trkpt>
      <trkpt lat="45.51447" lon="6.73086">
        <ele>2055.9</ele>
        <time>2021-08-12T12:15:43Z</time>
      </trkpt>
      <trkpt lat="45.51447" lon="6.73087">
        <ele>2056.1</ele>
        <time>2021-08-12T12:15:44Z</time>
      </trkpt>
      <trkpt lat="45.51448" lon="6.73087">
        <ele>2056.3</ele>
        <time>2021-08-12T12:15:45Z</time>
      </trkpt>
      <trkpt lat="45.51449" lon="6.73087">
        <ele>2056.5</ele>
        <time>2021-08-12T12:15:46Z</time>
      </trkpt>
      <trkpt lat="45.51449" lon="6.73087">
        <ele>2056.6</ele>
        <time>2021-08-12T12:15:47Z</time>
      </trkpt>
      <trkpt lat="45.5145" lon="6.73087">
        <ele>2056.9</ele>
        <time>2021-08-12T12:15:48Z</time>
      </trkpt>
      <trkpt lat="45.51451" lon="6.73087">
        <ele>2057.1</ele>
        <time>2021-08-12T12:15:49Z</time>
      </trkpt>
      <trkpt lat="45.51452" lon="6.73087">
        <ele>2057.3</ele>
        <time>2021-08-12T12:15:50Z</time>
      </trkpt>
      <trkpt lat="45.51452" lon="6.73087">
        <ele>2057.5</ele>
        <time>2021-08-12T12:15:51Z</time>
      </trkpt>
      <trkpt lat="45.51453" lon="6.73087">
        <ele>2057.7</ele>
        <time>2021-08-12T12:15:52Z</time>
      </trkpt>
      <trkpt lat="45.51454" lon="6.73087">
        <ele>2057.9</ele>
        <time>2021-08-12T12:15:53Z</time>
      </trkpt>
      <trkpt lat="45.51455" lon="6.73087">
        <ele>2058.1</ele>
        <time>2021-08-12T12:15:54Z</time>
      </trkpt>
      <trkpt lat="45.51456" lon="6.73088">
        <ele>2058.3</ele>
        <time>2021-08-12T12:15:55Z</time>
      </trkpt>
      <trkpt lat="45.51456" lon="6.73088">
        <ele>2058.4</ele>
        <time>2021-08-12T12:15:56Z</time>
      </trkpt>
      <trkpt lat="45.51457" lon="6.73088">
        <ele>2058.6</ele>
        <time>2021-08-12T12:15:57Z</time>
      </trkpt>
      <trkpt lat="45.51458" lon="6.73088">
        <ele>2058.7</ele>
        <time>2021-08-12T12:15:58Z</time>
      </trkpt>
      <trkpt lat="45.51458" lon="6.73089">
        <ele>2058.9</ele>
        <time>2021-08-12T12:15:59Z</time>
      </trkpt>
      <trkpt lat="45.51459" lon="6.7309">
        <ele>2059</ele>
        <time>2021-08-12T12:16:00Z</time>
      </trkpt>
      <trkpt lat="45.51459" lon="6.7309">
        <ele>2059.2</ele>
        <time>2021-08-12T12:16:01Z</time>
      </trkpt>
      <trkpt lat="45.51459" lon="6.73091">
        <ele>2059.3</ele>
        <time>2021-08-12T12:16:02Z</time>
      </trkpt>
      <trkpt lat="45.5146" lon="6.73092">
        <ele>2059.5</ele>
        <time>2021-08-12T12:16:03Z</time>
      </trkpt>
      <trkpt lat="45.51461" lon="6.73092">
        <ele>2059.6</ele>
        <time>2021-08-12T12:16:04Z</time>
      </trkpt>
      <trkpt lat="45.51461" lon="6.73093">
        <ele>2059.8</ele>
        <time>2021-08-12T12:16:05Z</time>
      </trkpt>
      <trkpt lat="45.51462" lon="6.73094">
        <ele>2060</ele>
        <time>2021-08-12T12:16:06Z</time>
      </trkpt>
      <trkpt lat="45.51463" lon="6.73094">
        <ele>2060.2</ele>
        <time>2021-08-12T12:16:07Z</time>
      </trkpt>
      <trkpt lat="45.51464" lon="6.73095">
        <ele>2060.4</ele>
        <time>2021-08-12T12:16:08Z</time>
      </trkpt>
      <trkpt lat="45.51465" lon="6.73095">
        <ele>2060.6</ele>
        <time>2021-08-12T12:16:09Z</time>
      </trkpt>
      <trkpt lat="45.51467" lon="6.73095">
        <ele>2060.8</ele>
        <time>2021-08-12T12:16:10Z</time>
      </trkpt>
      <trkpt lat="45.51468" lon="6.73095">
        <ele>2060.9</ele>
        <time>2021-08-12T12:16:11Z</time>
      </trkpt>
      <trkpt lat="45.51468" lon="6.73095">
        <ele>2061</ele>
        <time>2021-08-12T12:16:12Z</time>
      </trkpt>
      <trkpt lat="45.51468" lon="6.73095">
        <ele>2061.1</ele>
        <time>2021-08-12T12:16:13Z</time>
      </trkpt>
      <trkpt lat="45.51468" lon="6.73095">
        <ele>2061.1</ele>
        <time>2021-08-12T12:16:14Z</time>
      </trkpt>
      <trkpt lat="45.51469" lon="6.73095">
        <ele>2061.1</ele>
        <time>2021-08-12T12:16:15Z</time>
      </trkpt>
      <trkpt lat="45.51469" lon="6.73095">
        <ele>2061.2</ele>
        <time>2021-08-12T12:16:16Z</time>
      </trkpt>
      <trkpt lat="45.5147" lon="6.73096">
        <ele>2061.3</ele>
        <time>2021-08-12T12:16:17Z</time>
      </trkpt>
      <trkpt lat="45.51471" lon="6.73096">
        <ele>2061.4</ele>
        <time>2021-08-12T12:16:18Z</time>
      </trkpt>
      <trkpt lat="45.51472" lon="6.73097">
        <ele>2061.5</ele>
        <time>2021-08-12T12:16:19Z</time>
      </trkpt>
      <trkpt lat="45.51473" lon="6.73097">
        <ele>2061.6</ele>
        <time>2021-08-12T12:16:20Z</time>
      </trkpt>
      <trkpt lat="45.51474" lon="6.73098">
        <ele>2061.7</ele>
        <time>2021-08-12T12:16:21Z</time>
      </trkpt>
      <trkpt lat="45.51475" lon="6.73099">
        <ele>2061.8</ele>
        <time>2021-08-12T12:16:22Z</time>
      </trkpt>
      <trkpt lat="45.51476" lon="6.731">
        <ele>2061.9</ele>
        <time>2021-08-12T12:16:23Z</time>
      </trkpt>
      <trkpt lat="45.51477" lon="6.73101">
        <ele>2061.9</ele>
        <time>2021-08-12T12:16:24Z</time>
      </trkpt>
      <trkpt lat="45.51478" lon="6.73101">
        <ele>2062</ele>
        <time>2021-08-12T12:16:25Z</time>
      </trkpt>
      <trkpt lat="45.51479" lon="6.73102">
        <ele>2062</ele>
        <time>2021-08-12T12:16:26Z</time>
      </trkpt>
      <trkpt lat="45.5148" lon="6.73103">
        <ele>2062</ele>
        <time>2021-08-12T12:16:27Z</time>
      </trkpt>
      <trkpt lat="45.51481" lon="6.73103">
        <ele>2062.1</ele>
        <time>2021-08-12T12:16:28Z</time>
      </trkpt>
      <trkpt lat="45.51482" lon="6.73103">
        <ele>2062.1</ele>
        <time>2021-08-12T12:16:29Z</time>
      </trkpt>
      <trkpt lat="45.51483" lon="6.73103">
        <ele>2062.1</ele>
        <time>2021-08-12T12:16:30Z</time>
      </trkpt>
      <trkpt lat="45.51484" lon="6.73103">
        <ele>2062.1</ele>
        <time>2021-08-12T12:16:31Z</time>
      </trkpt>
      <trkpt lat="45.51485" lon="6.73103">
        <ele>2062.2</ele>
        <time>2021-08-12T12:16:32Z</time>
      </trkpt>
      <trkpt lat="45.51486" lon="6.73103">
        <ele>2062.2</ele>
        <time>2021-08-12T12:16:33Z</time>
      </trkpt>
      <trkpt lat="45.51487" lon="6.73103">
        <ele>2062.2</ele>
        <time>2021-08-12T12:16:34Z</time>
      </trkpt>
      <trkpt lat="45.51488" lon="6.73102">
        <ele>2062.2</ele>
        <time>2021-08-12T12:16:35Z</time>
      </trkpt>
      <trkpt lat="45.51489" lon="6.73102">
        <ele>2062.3</ele>
        <time>2021-08-12T12:16:36Z</time>
      </trkpt>
      <trkpt lat="45.51491" lon="6.73103">
        <ele>2062.3</ele>
        <time>2021-08-12T12:16:37Z</time>
      </trkpt>
      <trkpt lat="45.51492" lon="6.73103">
        <ele>2062.3</ele>
        <time>2021-08-12T12:16:38Z</time>
      </trkpt>
      <trkpt lat="45.51493" lon="6.73103">
        <ele>2062.3</ele>
        <time>2021-08-12T12:16:39Z</time>
      </trkpt>
      <trkpt lat="45.51494" lon="6.73104">
        <ele>2062.3</ele>
        <time>2021-08-12T12:16:40Z</time>
      </trkpt>
      <trkpt lat="45.51495" lon="6.73105">
        <ele>2062.4</ele>
        <time>2021-08-12T12:16:41Z</time>
      </trkpt>
      <trkpt lat="45.51496" lon="6.73106">
        <ele>2062.4</ele>
        <time>2021-08-12T12:16:42Z</time>
      </trkpt>
      <trkpt lat="45.51497" lon="6.73106">
        <ele>2062.4</ele>
        <time>2021-08-12T12:16:43Z</time>
      </trkpt>
      <trkpt lat="45.51498" lon="6.73107">
        <ele>2062.4</ele>
        <time>2021-08-12T12:16:44Z</time>
      </trkpt>
      <trkpt lat="45.51499" lon="6.73108">
        <ele>2062.4</ele>
        <time>2021-08-12T12:16:45Z</time>
      </trkpt>
      <trkpt lat="45.515" lon="6.73109">
        <ele>2062.4</ele>
        <time>2021-08-12T12:16:46Z</time>
      </trkpt>
      <trkpt lat="45.51501" lon="6.7311">
        <ele>2062.4</ele>
        <time>2021-08-12T12:16:47Z</time>
      </trkpt>
      <trkpt lat="45.51502" lon="6.73111">
        <ele>2062.4</ele>
        <time>2021-08-12T12:16:48Z</time>
      </trkpt>
      <trkpt lat="45.51503" lon="6.73111">
        <ele>2062.4</ele>
        <time>2021-08-12T12:16:49Z</time>
      </trkpt>
      <trkpt lat="45.51504" lon="6.73112">
        <ele>2062.4</ele>
        <time>2021-08-12T12:16:50Z</time>
      </trkpt>
      <trkpt lat="45.51505" lon="6.73113">
        <ele>2062.4</ele>
        <time>2021-08-12T12:16:51Z</time>
      </trkpt>
      <trkpt lat="45.51506" lon="6.73113">
        <ele>2062.4</ele>
        <time>2021-08-12T12:16:52Z</time>
      </trkpt>
      <trkpt lat="45.51507" lon="6.73114">
        <ele>2062.4</ele>
        <time>2021-08-12T12:16:53Z</time>
      </trkpt>
      <trkpt lat="45.51508" lon="6.73114">
        <ele>2062.4</ele>
        <time>2021-08-12T12:16:54Z</time>
      </trkpt>
      <trkpt lat="45.51509" lon="6.73114">
        <ele>2062.4</ele>
        <time>2021-08-12T12:16:55Z</time>
      </trkpt>
      <trkpt lat="45.5151" lon="6.73115">
        <ele>2062.4</ele>
        <time>2021-08-12T12:16:56Z</time>
      </trkpt>
      <trkpt lat="45.51511" lon="6.73115">
        <ele>2062.4</ele>
        <time>2021-08-12T12:16:57Z</time>
      </trkpt>
      <trkpt lat="45.51512" lon="6.73115">
        <ele>2062.4</ele>
        <time>2021-08-12T12:16:58Z</time>
      </trkpt>
      <trkpt lat="45.51513" lon="6.73116">
        <ele>2062.4</ele>
        <time>2021-08-12T12:16:59Z</time>
      </trkpt>
      <trkpt lat="45.51514" lon="6.73116">
        <ele>2062.4</ele>
        <time>2021-08-12T12:17:00Z</time>
      </trkpt>
      <trkpt lat="45.51515" lon="6.73116">
        <ele>2062.3</ele>
        <time>2021-08-12T12:17:01Z</time>
      </trkpt>
      <trkpt lat="45.51516" lon="6.73116">
        <ele>2062.3</ele>
        <time>2021-08-12T12:17:02Z</time>
      </trkpt>
      <trkpt lat="45.51518" lon="6.73116">
        <ele>2062.3</ele>
        <time>2021-08-12T12:17:03Z</time>
      </trkpt>
      <trkpt lat="45.51519" lon="6.73116">
        <ele>2062.3</ele>
        <time>2021-08-12T12:17:04Z</time>
      </trkpt>
      <trkpt lat="45.5152" lon="6.73116">
        <ele>2062.3</ele>
        <time>2021-08-12T12:17:05Z</time>
      </trkpt>
      <trkpt lat="45.51521" lon="6.73116">
        <ele>2062.3</ele>
        <time>2021-08-12T12:17:06Z</time>
      </trkpt>
      <trkpt lat="45.51522" lon="6.73116">
        <ele>2062.3</ele>
        <time>2021-08-12T12:17:07Z</time>
      </trkpt>
      <trkpt lat="45.51523" lon="6.73116">
        <ele>2062.3</ele>
        <time>2021-08-12T12:17:08Z</time>
      </trkpt>
      <trkpt lat="45.51524" lon="6.73116">
        <ele>2062.3</ele>
        <time>2021-08-12T12:17:09Z</time>
      </trkpt>
      <trkpt lat="45.51525" lon="6.73115">
        <ele>2062.3</ele>
        <time>2021-08-12T12:17:10Z</time>
      </trkpt>
      <trkpt lat="45.51526" lon="6.73115">
        <ele>2062.3</ele>
        <time>2021-08-12T12:17:11Z</time>
      </trkpt>
      <trkpt lat="45.51527" lon="6.73115">
        <ele>2062.3</ele>
        <time>2021-08-12T12:17:12Z</time>
      </trkpt>
      <trkpt lat="45.51528" lon="6.73115">
        <ele>2062.3</ele>
        <time>2021-08-12T12:17:13Z</time>
      </trkpt>
      <trkpt lat="45.51529" lon="6.73115">
        <ele>2062.3</ele>
        <time>2021-08-12T12:17:14Z</time>
      </trkpt>
      <trkpt lat="45.5153" lon="6.73114">
        <ele>2062.3</ele>
        <time>2021-08-12T12:17:15Z</time>
      </trkpt>
      <trkpt lat="45.51531" lon="6.73114">
        <ele>2062.3</ele>
        <time>2021-08-12T12:17:16Z</time>
      </trkpt>
      <trkpt lat="45.51532" lon="6.73114">
        <ele>2062.3</ele>
        <time>2021-08-12T12:17:17Z</time>
      </trkpt>
      <trkpt lat="45.51533" lon="6.73113">
        <ele>2062.2</ele>
        <time>2021-08-12T12:17:18Z</time>
      </trkpt>
      <trkpt lat="45.51534" lon="6.73113">
        <ele>2062.2</ele>
        <time>2021-08-12T12:17:19Z</time>
      </trkpt>
      <trkpt lat="45.51535" lon="6.73112">
        <ele>2062.2</ele>
        <time>2021-08-12T12:17:20Z</time>
      </trkpt>
      <trkpt lat="45.51536" lon="6.73112">
        <ele>2062.2</ele>
        <time>2021-08-12T12:17:21Z</time>
      </trkpt>
      <trkpt lat="45.51537" lon="6.73112">
        <ele>2062.1</ele>
        <time>2021-08-12T12:17:22Z</time>
      </trkpt>
      <trkpt lat="45.51538" lon="6.73111">
        <ele>2062.1</ele>
        <time>2021-08-12T12:17:23Z</time>
      </trkpt>
      <trkpt lat="45.51539" lon="6.73111">
        <ele>2062.1</ele>
        <time>2021-08-12T12:17:24Z</time>
      </trkpt>
      <trkpt lat="45.5154" lon="6.7311">
        <ele>2062</ele>
        <time>2021-08-12T12:17:25Z</time>
      </trkpt>
      <trkpt lat="45.51541" lon="6.7311">
        <ele>2062</ele>
        <time>2021-08-12T12:17:26Z</time>
      </trkpt>
      <trkpt lat="45.51542" lon="6.73109">
        <ele>2062</ele>
        <time>2021-08-12T12:17:27Z</time>
      </trkpt>
      <trkpt lat="45.51543" lon="6.73109">
        <ele>2061.9</ele>
        <time>2021-08-12T12:17:28Z</time>
      </trkpt>
      <trkpt lat="45.51544" lon="6.73108">
        <ele>2061.8</ele>
        <time>2021-08-12T12:17:29Z</time>
      </trkpt>
      <trkpt lat="45.51544" lon="6.73108">
        <ele>2061.8</ele>
        <time>2021-08-12T12:17:30Z</time>
      </trkpt>
      <trkpt lat="45.51545" lon="6.73107">
        <ele>2061.7</ele>
        <time>2021-08-12T12:17:31Z</time>
      </trkpt>
      <trkpt lat="45.51546" lon="6.73107">
        <ele>2061.7</ele>
        <time>2021-08-12T12:17:32Z</time>
      </trkpt>
      <trkpt lat="45.51547" lon="6.73106">
        <ele>2061.6</ele>
        <time>2021-08-12T12:17:33Z</time>
      </trkpt>
      <trkpt lat="45.51548" lon="6.73106">
        <ele>2061.6</ele>
        <time>2021-08-12T12:17:34Z</time>
      </trkpt>
      <trkpt lat="45.51548" lon="6.73106">
        <ele>2061.5</ele>
        <time>2021-08-12T12:17:35Z</time>
      </trkpt>
      <trkpt lat="45.51549" lon="6.73105">
        <ele>2061.5</ele>
        <time>2021-08-12T12:17:36Z</time>
      </trkpt>
      <trkpt lat="45.5155" lon="6.73105">
        <ele>2061.4</ele>
        <time>2021-08-12T12:17:37Z</time>
      </trkpt>
      <trkpt lat="45.5155" lon="6.73105">
        <ele>2061.4</ele>
        <time>2021-08-12T12:17:38Z</time>
      </trkpt>
      <trkpt lat="45.51551" lon="6.73105">
        <ele>2061.3</ele>
        <time>2021-08-12T12:17:39Z</time>
      </trkpt>
      <trkpt lat="45.51552" lon="6.73105">
        <ele>2061.3</ele>
        <time>2021-08-12T12:17:40Z</time>
      </trkpt>
      <trkpt lat="45.51553" lon="6.73106">
        <ele>2061.2</ele>
        <time>2021-08-12T12:17:41Z</time>
      </trkpt>
      <trkpt lat="45.51553" lon="6.73106">
        <ele>2061.1</ele>
        <time>2021-08-12T12:17:42Z</time>
      </trkpt>
      <trkpt lat="45.51554" lon="6.73106">
        <ele>2061</ele>
        <time>2021-08-12T12:17:43Z</time>
      </trkpt>
      <trkpt lat="45.51555" lon="6.73106">
        <ele>2061</ele>
        <time>2021-08-12T12:17:44Z</time>
      </trkpt>
      <trkpt lat="45.51556" lon="6.73106">
        <ele>2060.9</ele>
        <time>2021-08-12T12:17:45Z</time>
      </trkpt>
      <trkpt lat="45.51557" lon="6.73106">
        <ele>2060.8</ele>
        <time>2021-08-12T12:17:46Z</time>
      </trkpt>
      <trkpt lat="45.51558" lon="6.73106">
        <ele>2060.8</ele>
        <time>2021-08-12T12:17:47Z</time>
      </trkpt>
      <trkpt lat="45.51558" lon="6.73105">
        <ele>2060.7</ele>
        <time>2021-08-12T12:17:48Z</time>
      </trkpt>
      <trkpt lat="45.51559" lon="6.73104">
        <ele>2060.7</ele>
        <time>2021-08-12T12:17:49Z</time>
      </trkpt>
      <trkpt lat="45.5156" lon="6.73104">
        <ele>2060.6</ele>
        <time>2021-08-12T12:17:50Z</time>
      </trkpt>
      <trkpt lat="45.5156" lon="6.73103">
        <ele>2060.6</ele>
        <time>2021-08-12T12:17:51Z</time>
      </trkpt>
      <trkpt lat="45.51561" lon="6.73102">
        <ele>2060.5</ele>
        <time>2021-08-12T12:17:52Z</time>
      </trkpt>
      <trkpt lat="45.51561" lon="6.73102">
        <ele>2060.5</ele>
        <time>2021-08-12T12:17:53Z</time>
      </trkpt>
      <trkpt lat="45.51562" lon="6.73101">
        <ele>2060.4</ele>
        <time>2021-08-12T12:17:54Z</time>
      </trkpt>
      <trkpt lat="45.51562" lon="6.73101">
        <ele>2060.4</ele>
        <time>2021-08-12T12:17:55Z</time>
      </trkpt>
      <trkpt lat="45.51563" lon="6.731">
        <ele>2060.3</ele>
        <time>2021-08-12T12:17:56Z</time>
      </trkpt>
      <trkpt lat="45.51564" lon="6.731">
        <ele>2060.3</ele>
        <time>2021-08-12T12:17:57Z</time>
      </trkpt>
      <trkpt lat="45.51565" lon="6.731">
        <ele>2060.3</ele>
        <time>2021-08-12T12:17:58Z</time>
      </trkpt>
      <trkpt lat="45.51565" lon="6.731">
        <ele>2060.3</ele>
        <time>2021-08-12T12:17:59Z</time>
      </trkpt>
      <trkpt lat="45.51566" lon="6.731">
        <ele>2060.2</ele>
        <time>2021-08-12T12:18:00Z</time>
      </trkpt>
      <trkpt lat="45.51567" lon="6.731">
        <ele>2060.2</ele>
        <time>2021-08-12T12:18:01Z</time>
      </trkpt>
      <trkpt lat="45.51567" lon="6.731">
        <ele>2060.2</ele>
        <time>2021-08-12T12:18:02Z</time>
      </trkpt>
      <trkpt lat="45.51568" lon="6.73101">
        <ele>2060.2</ele>
        <time>2021-08-12T12:18:03Z</time>
      </trkpt>
      <trkpt lat="45.51569" lon="6.73101">
        <ele>2060.2</ele>
        <time>2021-08-12T12:18:04Z</time>
      </trkpt>
      <trkpt lat="45.5157" lon="6.73101">
        <ele>2060.2</ele>
        <time>2021-08-12T12:18:05Z</time>
      </trkpt>
      <trkpt lat="45.5157" lon="6.73101">
        <ele>2060.2</ele>
        <time>2021-08-12T12:18:06Z</time>
      </trkpt>
      <trkpt lat="45.51571" lon="6.73101">
        <ele>2060.2</ele>
        <time>2021-08-12T12:18:07Z</time>
      </trkpt>
      <trkpt lat="45.51572" lon="6.731">
        <ele>2060.2</ele>
        <time>2021-08-12T12:18:08Z</time>
      </trkpt>
      <trkpt lat="45.51573" lon="6.731">
        <ele>2060.2</ele>
        <time>2021-08-12T12:18:09Z</time>
      </trkpt>
      <trkpt lat="45.51573" lon="6.731">
        <ele>2060.3</ele>
        <time>2021-08-12T12:18:10Z</time>
      </trkpt>
      <trkpt lat="45.51574" lon="6.731">
        <ele>2060.3</ele>
        <time>2021-08-12T12:18:11Z</time>
      </trkpt>
      <trkpt lat="45.51575" lon="6.731">
        <ele>2060.3</ele>
        <time>2021-08-12T12:18:12Z</time>
      </trkpt>
      <trkpt lat="45.51576" lon="6.731">
        <ele>2060.4</ele>
        <time>2021-08-12T12:18:13Z</time>
      </trkpt>
      <trkpt lat="45.51576" lon="6.731">
        <ele>2060.4</ele>
        <time>2021-08-12T12:18:14Z</time>
      </trkpt>
      <trkpt lat="45.51577" lon="6.73099">
        <ele>2060.4</ele>
        <time>2021-08-12T12:18:15Z</time>
      </trkpt>
      <trkpt lat="45.51578" lon="6.73099">
        <ele>2060.5</ele>
        <time>2021-08-12T12:18:16Z</time>
      </trkpt>
      <trkpt lat="45.51579" lon="6.73099">
        <ele>2060.5</ele>
        <time>2021-08-12T12:18:17Z</time>
      </trkpt>
      <trkpt lat="45.51579" lon="6.73099">
        <ele>2060.6</ele>
        <time>2021-08-12T12:18:18Z</time>
      </trkpt>
      <trkpt lat="45.5158" lon="6.73099">
        <ele>2060.6</ele>
        <time>2021-08-12T12:18:19Z</time>
      </trkpt>
      <trkpt lat="45.51581" lon="6.73099">
        <ele>2060.6</ele>
        <time>2021-08-12T12:18:20Z</time>
      </trkpt>
      <trkpt lat="45.51581" lon="6.73099">
        <ele>2060.7</ele>
        <time>2021-08-12T12:18:21Z</time>
      </trkpt>
      <trkpt lat="45.51582" lon="6.731">
        <ele>2060.7</ele>
        <time>2021-08-12T12:18:22Z</time>
      </trkpt>
      <trkpt lat="45.51583" lon="6.731">
        <ele>2060.7</ele>
        <time>2021-08-12T12:18:23Z</time>
      </trkpt>
      <trkpt lat="45.51584" lon="6.73101">
        <ele>2060.8</ele>
        <time>2021-08-12T12:18:24Z</time>
      </trkpt>
      <trkpt lat="45.51584" lon="6.73101">
        <ele>2060.8</ele>
        <time>2021-08-12T12:18:25Z</time>
      </trkpt>
      <trkpt lat="45.51585" lon="6.73102">
        <ele>2060.9</ele>
        <time>2021-08-12T12:18:26Z</time>
      </trkpt>
      <trkpt lat="45.51586" lon="6.73103">
        <ele>2060.9</ele>
        <time>2021-08-12T12:18:27Z</time>
      </trkpt>
      <trkpt lat="45.51586" lon="6.73104">
        <ele>2060.9</ele>
        <time>2021-08-12T12:18:28Z</time>
      </trkpt>
      <trkpt lat="45.51587" lon="6.73105">
        <ele>2060.9</ele>
        <time>2021-08-12T12:18:29Z</time>
      </trkpt>
      <trkpt lat="45.51587" lon="6.73106">
        <ele>2060.9</ele>
        <time>2021-08-12T12:18:30Z</time>
      </trkpt>
      <trkpt lat="45.51588" lon="6.73107">
        <ele>2061</ele>
        <time>2021-08-12T12:18:31Z</time>
      </trkpt>
      <trkpt lat="45.51588" lon="6.73108">
        <ele>2061</ele>
        <time>2021-08-12T12:18:32Z</time>
      </trkpt>
      <trkpt lat="45.51589" lon="6.73108">
        <ele>2060.9</ele>
        <time>2021-08-12T12:18:33Z</time>
      </trkpt>
      <trkpt lat="45.51589" lon="6.73109">
        <ele>2060.9</ele>
        <time>2021-08-12T12:18:34Z</time>
      </trkpt>
      <trkpt lat="45.51589" lon="6.73109">
        <ele>2060.9</ele>
        <time>2021-08-12T12:18:35Z</time>
      </trkpt>
      <trkpt lat="45.51589" lon="6.7311">
        <ele>2060.9</ele>
        <time>2021-08-12T12:18:36Z</time>
      </trkpt>
      <trkpt lat="45.5159" lon="6.7311">
        <ele>2060.9</ele>
        <time>2021-08-12T12:18:37Z</time>
      </trkpt>
      <trkpt lat="45.5159" lon="6.7311">
        <ele>2060.9</ele>
        <time>2021-08-12T12:18:38Z</time>
      </trkpt>
      <trkpt lat="45.5159" lon="6.7311">
        <ele>2060.9</ele>
        <time>2021-08-12T12:18:39Z</time>
      </trkpt>
      <trkpt lat="45.5159" lon="6.7311">
        <ele>2060.9</ele>
        <time>2021-08-12T12:18:40Z</time>
      </trkpt>
      <trkpt lat="45.5159" lon="6.7311">
        <ele>2060.9</ele>
        <time>2021-08-12T12:18:41Z</time>
      </trkpt>
      <trkpt lat="45.5159" lon="6.7311">
        <ele>2060.9</ele>
        <time>2021-08-12T12:18:42Z</time>
      </trkpt>
      <trkpt lat="45.5159" lon="6.7311">
        <ele>2060.9</ele>
        <time>2021-08-12T12:18:43Z</time>
      </trkpt>
      <trkpt lat="45.5159" lon="6.7311">
        <ele>2060.9</ele>
        <time>2021-08-12T12:18:44Z</time>
      </trkpt>
      <trkpt lat="45.5159" lon="6.7311">
        <ele>2060.9</ele>
        <time>2021-08-12T12:18:45Z</time>
      </trkpt>
      <trkpt lat="45.5159" lon="6.7311">
        <ele>2060.9</ele>
        <time>2021-08-12T12:18:46Z</time>
      </trkpt>
      <trkpt lat="45.5159" lon="6.7311">
        <ele>2060.9</ele>
        <time>2021-08-12T12:18:47Z</time>
      </trkpt>
      <trkpt lat="45.5159" lon="6.7311">
        <ele>2060.9</ele>
        <time>2021-08-12T12:18:48Z</time>
      </trkpt>
      <trkpt lat="45.5159" lon="6.7311">
        <ele>2060.9</ele>
        <time>2021-08-12T12:18:49Z</time>
      </trkpt>
      <trkpt lat="45.5159" lon="6.7311">
        <ele>2060.9</ele>
        <time>2021-08-12T12:18:50Z</time>
      </trkpt>
      <trkpt lat="45.5159" lon="6.7311">
        <ele>2060.9</ele>
        <time>2021-08-12T12:18:51Z</time>
      </trkpt>
      <trkpt lat="45.5159" lon="6.7311">
        <ele>2060.9</ele>
        <time>2021-08-12T12:18:52Z</time>
      </trkpt>
      <trkpt lat="45.5159" lon="6.7311">
        <ele>2060.9</ele>
        <time>2021-08-12T12:18:53Z</time>
      </trkpt>
      <trkpt lat="45.5159" lon="6.7311">
        <ele>2060.9</ele>
        <time>2021-08-12T12:18:54Z</time>
      </trkpt>
      <trkpt lat="45.5159" lon="6.7311">
        <ele>2060.9</ele>
        <time>2021-08-12T12:18:55Z</time>
      </trkpt>
      <trkpt lat="45.5159" lon="6.7311">
        <ele>2060.9</ele>
        <time>2021-08-12T12:18:56Z</time>
      </trkpt>
      <trkpt lat="45.5159" lon="6.7311">
        <ele>2060.9</ele>
        <time>2021-08-12T12:18:57Z</time>
      </trkpt>
      <trkpt lat="45.5159" lon="6.7311">
        <ele>2060.9</ele>
        <time>2021-08-12T12:18:58Z</time>
      </trkpt>
      <trkpt lat="45.5159" lon="6.7311">
        <ele>2060.9</ele>
        <time>2021-08-12T12:18:59Z</time>
      </trkpt>
      <trkpt lat="45.5159" lon="6.7311">
        <ele>2060.9</ele>
        <time>2021-08-12T12:19:00Z</time>
      </trkpt>
      <trkpt lat="45.5159" lon="6.7311">
        <ele>2060.9</ele>
        <time>2021-08-12T12:19:01Z</time>
      </trkpt>
      <trkpt lat="45.5159" lon="6.7311">
        <ele>2060.9</ele>
        <time>2021-08-12T12:19:02Z</time>
      </trkpt>
      <trkpt lat="45.5159" lon="6.7311">
        <ele>2060.9</ele>
        <time>2021-08-12T12:19:03Z</time>
      </trkpt>
      <trkpt lat="45.5159" lon="6.7311">
        <ele>2060.9</ele>
        <time>2021-08-12T12:19:04Z</time>
      </trkpt>
      <trkpt lat="45.5159" lon="6.7311">
        <ele>2060.9</ele>
        <time>2021-08-12T12:19:05Z</time>
      </trkpt>
      <trkpt lat="45.5159" lon="6.7311">
        <ele>2060.9</ele>
        <time>2021-08-12T12:19:06Z</time>
      </trkpt>
      <trkpt lat="45.5159" lon="6.7311">
        <ele>2060.9</ele>
        <time>2021-08-12T12:19:07Z</time>
      </trkpt>
      <trkpt lat="45.5159" lon="6.7311">
        <ele>2060.9</ele>
        <time>2021-08-12T12:19:08Z</time>
      </trkpt>
      <trkpt lat="45.5159" lon="6.7311">
        <ele>2060.9</ele>
        <time>2021-08-12T12:19:09Z</time>
      </trkpt>
      <trkpt lat="45.5159" lon="6.7311">
        <ele>2060.9</ele>
        <time>2021-08-12T12:19:10Z</time>
      </trkpt>
      <trkpt lat="45.5159" lon="6.7311">
        <ele>2060.9</ele>
        <time>2021-08-12T12:19:11Z</time>
      </trkpt>
      <trkpt lat="45.5159" lon="6.7311">
        <ele>2060.9</ele>
        <time>2021-08-12T12:19:12Z</time>
      </trkpt>
      <trkpt lat="45.5159" lon="6.7311">
        <ele>2060.9</ele>
        <time>2021-08-12T12:19:13Z</time>
      </trkpt>
      <trkpt lat="45.5159" lon="6.7311">
        <ele>2060.9</ele>
        <time>2021-08-12T12:19:14Z</time>
      </trkpt>
      <trkpt lat="45.5159" lon="6.7311">
        <ele>2060.9</ele>
        <time>2021-08-12T12:19:15Z</time>
      </trkpt>
      <trkpt lat="45.5159" lon="6.7311">
        <ele>2060.9</ele>
        <time>2021-08-12T12:19:16Z</time>
      </trkpt>
      <trkpt lat="45.5159" lon="6.7311">
        <ele>2060.9</ele>
        <time>2021-08-12T12:19:17Z</time>
      </trkpt>
      <trkpt lat="45.5159" lon="6.7311">
        <ele>2060.9</ele>
        <time>2021-08-12T12:19:18Z</time>
      </trkpt>
      <trkpt lat="45.5159" lon="6.7311">
        <ele>2060.9</ele>
        <time>2021-08-12T12:19:19Z</time>
      </trkpt>
      <trkpt lat="45.5159" lon="6.7311">
        <ele>2060.9</ele>
        <time>2021-08-12T12:19:20Z</time>
      </trkpt>
      <trkpt lat="45.5159" lon="6.7311">
        <ele>2060.9</ele>
        <time>2021-08-12T12:19:21Z</time>
      </trkpt>
      <trkpt lat="45.5159" lon="6.7311">
        <ele>2060.9</ele>
        <time>2021-08-12T12:19:22Z</time>
      </trkpt>
      <trkpt lat="45.5159" lon="6.7311">
        <ele>2060.9</ele>
        <time>2021-08-12T12:19:23Z</time>
      </trkpt>
      <trkpt lat="45.5159" lon="6.7311">
        <ele>2060.9</ele>
        <time>2021-08-12T12:19:24Z</time>
      </trkpt>
      <trkpt lat="45.5159" lon="6.7311">
        <ele>2060.9</ele>
        <time>2021-08-12T12:19:25Z</time>
      </trkpt>
      <trkpt lat="45.5159" lon="6.7311">
        <ele>2060.9</ele>
        <time>2021-08-12T12:19:26Z</time>
      </trkpt>
      <trkpt lat="45.5159" lon="6.7311">
        <ele>2060.9</ele>
        <time>2021-08-12T12:19:27Z</time>
      </trkpt>
      <trkpt lat="45.5159" lon="6.7311">
        <ele>2060.9</ele>
        <time>2021-08-12T12:19:28Z</time>
      </trkpt>
      <trkpt lat="45.5159" lon="6.7311">
        <ele>2060.9</ele>
        <time>2021-08-12T12:19:29Z</time>
      </trkpt>
      <trkpt lat="45.5159" lon="6.7311">
        <ele>2060.9</ele>
        <time>2021-08-12T12:19:30Z</time>
      </trkpt>
      <trkpt lat="45.5159" lon="6.7311">
        <ele>2060.9</ele>
        <time>2021-08-12T12:19:31Z</time>
      </trkpt>
      <trkpt lat="45.5159" lon="6.7311">
        <ele>2060.9</ele>
        <time>2021-08-12T12:19:32Z</time>
      </trkpt>
      <trkpt lat="45.5159" lon="6.7311">
        <ele>2060.9</ele>
        <time>2021-08-12T12:19:33Z</time>
      </trkpt>
      <trkpt lat="45.5159" lon="6.7311">
        <ele>2060.9</ele>
        <time>2021-08-12T12:19:34Z</time>
      </trkpt>
      <trkpt lat="45.5159" lon="6.7311">
        <ele>2060.9</ele>
        <time>2021-08-12T12:19:35Z</time>
      </trkpt>
      <trkpt lat="45.5159" lon="6.7311">
        <ele>2060.9</ele>
        <time>2021-08-12T12:19:36Z</time>
      </trkpt>
      <trkpt lat="45.5159" lon="6.7311">
        <ele>2060.9</ele>
        <time>2021-08-12T12:19:37Z</time>
      </trkpt>
      <trkpt lat="45.5159" lon="6.7311">
        <ele>2060.9</ele>
        <time>2021-08-12T12:19:38Z</time>
      </trkpt>
      <trkpt lat="45.5159" lon="6.7311">
        <ele>2060.9</ele>
        <time>2021-08-12T12:19:39Z</time>
      </trkpt>
      <trkpt lat="45.5159" lon="6.7311">
        <ele>2060.9</ele>
        <time>2021-08-12T12:19:40Z</time>
      </trkpt>
      <trkpt lat="45.5159" lon="6.7311">
        <ele>2060.9</ele>
        <time>2021-08-12T12:19:41Z</time>
      </trkpt>
      <trkpt lat="45.5159" lon="6.7311">
        <ele>2060.9</ele>
        <time>2021-08-12T12:19:42Z</time>
      </trkpt>
      <trkpt lat="45.5159" lon="6.7311">
        <ele>2060.9</ele>
        <time>2021-08-12T12:19:43Z</time>
      </trkpt>
      <trkpt lat="45.5159" lon="6.7311">
        <ele>2060.9</ele>
        <time>2021-08-12T12:19:44Z</time>
      </trkpt>
      <trkpt lat="45.5159" lon="6.7311">
        <ele>2060.9</ele>
        <time>2021-08-12T12:19:45Z</time>
      </trkpt>
      <trkpt lat="45.5159" lon="6.7311">
        <ele>2060.9</ele>
        <time>2021-08-12T12:19:46Z</time>
      </trkpt>
      <trkpt lat="45.5159" lon="6.7311">
        <ele>2060.9</ele>
        <time>2021-08-12T12:19:47Z</time>
      </trkpt>
      <trkpt lat="45.5159" lon="6.7311">
        <ele>2060.9</ele>
        <time>2021-08-12T12:19:48Z</time>
      </trkpt>
      <trkpt lat="45.5159" lon="6.7311">
        <ele>2060.9</ele>
        <time>2021-08-12T12:19:49Z</time>
      </trkpt>
      <trkpt lat="45.5159" lon="6.7311">
        <ele>2060.9</ele>
        <time>2021-08-12T12:19:50Z</time>
      </trkpt>
      <trkpt lat="45.5159" lon="6.7311">
        <ele>2060.9</ele>
        <time>2021-08-12T12:19:51Z</time>
      </trkpt>
      <trkpt lat="45.5159" lon="6.7311">
        <ele>2060.9</ele>
        <time>2021-08-12T12:19:52Z</time>
      </trkpt>
      <trkpt lat="45.5159" lon="6.7311">
        <ele>2060.9</ele>
        <time>2021-08-12T12:19:53Z</time>
      </trkpt>
      <trkpt lat="45.5159" lon="6.7311">
        <ele>2060.9</ele>
        <time>2021-08-12T12:19:54Z</time>
      </trkpt>
      <trkpt lat="45.5159" lon="6.7311">
        <ele>2060.9</ele>
        <time>2021-08-12T12:19:55Z</time>
      </trkpt>
      <trkpt lat="45.5159" lon="6.7311">
        <ele>2060.9</ele>
        <time>2021-08-12T12:19:56Z</time>
      </trkpt>
      <trkpt lat="45.5159" lon="6.7311">
        <ele>2060.9</ele>
        <time>2021-08-12T12:19:57Z</time>
      </trkpt>
      <trkpt lat="45.5159" lon="6.7311">
        <ele>2060.9</ele>
        <time>2021-08-12T12:19:58Z</time>
      </trkpt>
      <trkpt lat="45.5159" lon="6.7311">
        <ele>2060.9</ele>
        <time>2021-08-12T12:19:59Z</time>
      </trkpt>
      <trkpt lat="45.5159" lon="6.7311">
        <ele>2060.9</ele>
        <time>2021-08-12T12:20:00Z</time>
      </trkpt>
      <trkpt lat="45.5159" lon="6.7311">
        <ele>2060.9</ele>
        <time>2021-08-12T12:20:01Z</time>
      </trkpt>
      <trkpt lat="45.5159" lon="6.7311">
        <ele>2060.9</ele>
        <time>2021-08-12T12:20:02Z</time>
      </trkpt>
      <trkpt lat="45.5159" lon="6.7311">
        <ele>2060.9</ele>
        <time>2021-08-12T12:20:03Z</time>
      </trkpt>
      <trkpt lat="45.5159" lon="6.7311">
        <ele>2060.9</ele>
        <time>2021-08-12T12:20:04Z</time>
      </trkpt>
      <trkpt lat="45.5159" lon="6.7311">
        <ele>2060.9</ele>
        <time>2021-08-12T12:20:05Z</time>
      </trkpt>
      <trkpt lat="45.5159" lon="6.7311">
        <ele>2060.9</ele>
        <time>2021-08-12T12:20:06Z</time>
      </trkpt>
      <trkpt lat="45.5159" lon="6.7311">
        <ele>2060.9</ele>
        <time>2021-08-12T12:20:07Z</time>
      </trkpt>
      <trkpt lat="45.5159" lon="6.7311">
        <ele>2060.9</ele>
        <time>2021-08-12T12:20:08Z</time>
      </trkpt>
      <trkpt lat="45.5159" lon="6.7311">
        <ele>2060.9</ele>
        <time>2021-08-12T12:20:09Z</time>
      </trkpt>
      <trkpt lat="45.5159" lon="6.7311">
        <ele>2060.9</ele>
        <time>2021-08-12T12:20:10Z</time>
      </trkpt>
      <trkpt lat="45.5159" lon="6.7311">
        <ele>2060.9</ele>
        <time>2021-08-12T12:20:11Z</time>
      </trkpt>
      <trkpt lat="45.5159" lon="6.7311">
        <ele>2060.9</ele>
        <time>2021-08-12T12:20:12Z</time>
      </trkpt>
      <trkpt lat="45.5159" lon="6.7311">
        <ele>2060.9</ele>
        <time>2021-08-12T12:20:13Z</time>
      </trkpt>
      <trkpt lat="45.5159" lon="6.7311">
        <ele>2060.9</ele>
        <time>2021-08-12T12:20:14Z</time>
      </trkpt>
      <trkpt lat="45.5159" lon="6.7311">
        <ele>2060.9</ele>
        <time>2021-08-12T12:20:15Z</time>
      </trkpt>
      <trkpt lat="45.5159" lon="6.7311">
        <ele>2060.9</ele>
        <time>2021-08-12T12:20:16Z</time>
      </trkpt>
      <trkpt lat="45.5159" lon="6.7311">
        <ele>2060.9</ele>
        <time>2021-08-12T12:20:17Z</time>
      </trkpt>
      <trkpt lat="45.5159" lon="6.7311">
        <ele>2060.9</ele>
        <time>2021-08-12T12:20:18Z</time>
      </trkpt>
      <trkpt lat="45.5159" lon="6.7311">
        <ele>2060.9</ele>
        <time>2021-08-12T12:20:19Z</time>
      </trkpt>
      <trkpt lat="45.5159" lon="6.7311">
        <ele>2060.9</ele>
        <time>2021-08-12T12:20:20Z</time>
      </trkpt>
      <trkpt lat="45.5159" lon="6.7311">
        <ele>2060.9</ele>
        <time>2021-08-12T12:20:21Z</time>
      </trkpt>
      <trkpt lat="45.5159" lon="6.7311">
        <ele>2060.9</ele>
        <time>2021-08-12T12:20:22Z</time>
      </trkpt>
      <trkpt lat="45.5159" lon="6.7311">
        <ele>2060.9</ele>
        <time>2021-08-12T12:20:23Z</time>
      </trkpt>
      <trkpt lat="45.5159" lon="6.7311">
        <ele>2060.9</ele>
        <time>2021-08-12T12:20:24Z</time>
      </trkpt>
      <trkpt lat="45.5159" lon="6.7311">
        <ele>2060.9</ele>
        <time>2021-08-12T12:20:25Z</time>
      </trkpt>
      <trkpt lat="45.5159" lon="6.7311">
        <ele>2060.9</ele>
        <time>2021-08-12T12:20:26Z</time>
      </trkpt>
      <trkpt lat="45.5159" lon="6.7311">
        <ele>2060.9</ele>
        <time>2021-08-12T12:20:27Z</time>
      </trkpt>
      <trkpt lat="45.5159" lon="6.7311">
        <ele>2060.9</ele>
        <time>2021-08-12T12:20:28Z</time>
      </trkpt>
      <trkpt lat="45.5159" lon="6.7311">
        <ele>2060.9</ele>
        <time>2021-08-12T12:20:29Z</time>
      </trkpt>
      <trkpt lat="45.5159" lon="6.7311">
        <ele>2060.9</ele>
        <time>2021-08-12T12:20:30Z</time>
      </trkpt>
      <trkpt lat="45.5159" lon="6.7311">
        <ele>2060.9</ele>
        <time>2021-08-12T12:20:31Z</time>
      </trkpt>
      <trkpt lat="45.5159" lon="6.7311">
        <ele>2060.9</ele>
        <time>2021-08-12T12:20:32Z</time>
      </trkpt>
      <trkpt lat="45.5159" lon="6.7311">
        <ele>2060.9</ele>
        <time>2021-08-12T12:20:33Z</time>
      </trkpt>
      <trkpt lat="45.5159" lon="6.7311">
        <ele>2060.9</ele>
        <time>2021-08-12T12:20:34Z</time>
      </trkpt>
      <trkpt lat="45.5159" lon="6.7311">
        <ele>2060.9</ele>
        <time>2021-08-12T12:20:35Z</time>
      </trkpt>
      <trkpt lat="45.5159" lon="6.7311">
        <ele>2060.9</ele>
        <time>2021-08-12T12:20:36Z</time>
      </trkpt>
      <trkpt lat="45.5159" lon="6.7311">
        <ele>2060.9</ele>
        <time>2021-08-12T12:20:37Z</time>
      </trkpt>
      <trkpt lat="45.5159" lon="6.7311">
        <ele>2060.9</ele>
        <time>2021-08-12T12:20:38Z</time>
      </trkpt>
      <trkpt lat="45.5159" lon="6.7311">
        <ele>2060.9</ele>
        <time>2021-08-12T12:20:39Z</time>
      </trkpt>
      <trkpt lat="45.5159" lon="6.7311">
        <ele>2060.9</ele>
        <time>2021-08-12T12:20:40Z</time>
      </trkpt>
      <trkpt lat="45.5159" lon="6.7311">
        <ele>2060.9</ele>
        <time>2021-08-12T12:20:41Z</time>
      </trkpt>
      <trkpt lat="45.5159" lon="6.7311">
        <ele>2060.9</ele>
        <time>2021-08-12T12:20:42Z</time>
      </trkpt>
      <trkpt lat="45.5159" lon="6.7311">
        <ele>2060.9</ele>
        <time>2021-08-12T12:20:43Z</time>
      </trkpt>
      <trkpt lat="45.5159" lon="6.7311">
        <ele>2060.9</ele>
        <time>2021-08-12T12:20:44Z</time>
      </trkpt>
      <trkpt lat="45.5159" lon="6.7311">
        <ele>2060.9</ele>
        <time>2021-08-12T12:20:45Z</time>
      </trkpt>
      <trkpt lat="45.5159" lon="6.7311">
        <ele>2060.9</ele>
        <time>2021-08-12T12:20:46Z</time>
      </trkpt>
      <trkpt lat="45.5159" lon="6.7311">
        <ele>2060.9</ele>
        <time>2021-08-12T12:20:47Z</time>
      </trkpt>
      <trkpt lat="45.5159" lon="6.7311">
        <ele>2060.9</ele>
        <time>2021-08-12T12:20:48Z</time>
      </trkpt>
      <trkpt lat="45.5159" lon="6.7311">
        <ele>2060.9</ele>
        <time>2021-08-12T12:20:49Z</time>
      </trkpt>
      <trkpt lat="45.5159" lon="6.7311">
        <ele>2060.9</ele>
        <time>2021-08-12T12:20:50Z</time>
      </trkpt>
      <trkpt lat="45.5159" lon="6.7311">
        <ele>2060.9</ele>
        <time>2021-08-12T12:20:51Z</time>
      </trkpt>
      <trkpt lat="45.5159" lon="6.7311">
        <ele>2060.9</ele>
        <time>2021-08-12T12:20:52Z</time>
      </trkpt>
      <trkpt lat="45.5159" lon="6.7311">
        <ele>2060.9</ele>
        <time>2021-08-12T12:20:53Z</time>
      </trkpt>
      <trkpt lat="45.5159" lon="6.7311">
        <ele>2060.9</ele>
        <time>2021-08-12T12:20:54Z</time>
      </trkpt>
      <trkpt lat="45.5159" lon="6.7311">
        <ele>2060.9</ele>
        <time>2021-08-12T12:20:55Z</time>
      </trkpt>
      <trkpt lat="45.5159" lon="6.7311">
        <ele>2060.9</ele>
        <time>2021-08-12T12:20:56Z</time>
      </trkpt>
      <trkpt lat="45.5159" lon="6.7311">
        <ele>2060.9</ele>
        <time>2021-08-12T12:20:57Z</time>
      </trkpt>
      <trkpt lat="45.5159" lon="6.7311">
        <ele>2060.9</ele>
        <time>2021-08-12T12:20:58Z</time>
      </trkpt>
      <trkpt lat="45.5159" lon="6.7311">
        <ele>2060.9</ele>
        <time>2021-08-12T12:20:59Z</time>
      </trkpt>
      <trkpt lat="45.5159" lon="6.7311">
        <ele>2060.9</ele>
        <time>2021-08-12T12:21:00Z</time>
      </trkpt>
      <trkpt lat="45.5159" lon="6.7311">
        <ele>2060.9</ele>
        <time>2021-08-12T12:21:01Z</time>
      </trkpt>
      <trkpt lat="45.5159" lon="6.7311">
        <ele>2060.9</ele>
        <time>2021-08-12T12:21:02Z</time>
      </trkpt>
      <trkpt lat="45.5159" lon="6.7311">
        <ele>2060.9</ele>
        <time>2021-08-12T12:21:03Z</time>
      </trkpt>
      <trkpt lat="45.5159" lon="6.7311">
        <ele>2060.9</ele>
        <time>2021-08-12T12:21:04Z</time>
      </trkpt>
      <trkpt lat="45.5159" lon="6.7311">
        <ele>2060.9</ele>
        <time>2021-08-12T12:21:05Z</time>
      </trkpt>
      <trkpt lat="45.5159" lon="6.7311">
        <ele>2060.9</ele>
        <time>2021-08-12T12:21:06Z</time>
      </trkpt>
      <trkpt lat="45.5159" lon="6.7311">
        <ele>2060.9</ele>
        <time>2021-08-12T12:21:07Z</time>
      </trkpt>
      <trkpt lat="45.5159" lon="6.7311">
        <ele>2060.9</ele>
        <time>2021-08-12T12:21:08Z</time>
      </trkpt>
      <trkpt lat="45.5159" lon="6.7311">
        <ele>2060.9</ele>
        <time>2021-08-12T12:21:09Z</time>
      </trkpt>
      <trkpt lat="45.5159" lon="6.7311">
        <ele>2060.9</ele>
        <time>2021-08-12T12:21:10Z</time>
      </trkpt>
      <trkpt lat="45.5159" lon="6.7311">
        <ele>2060.9</ele>
        <time>2021-08-12T12:21:11Z</time>
      </trkpt>
      <trkpt lat="45.5159" lon="6.7311">
        <ele>2060.9</ele>
        <time>2021-08-12T12:21:12Z</time>
      </trkpt>
      <trkpt lat="45.5159" lon="6.7311">
        <ele>2060.9</ele>
        <time>2021-08-12T12:21:13Z</time>
      </trkpt>
      <trkpt lat="45.5159" lon="6.7311">
        <ele>2060.9</ele>
        <time>2021-08-12T12:21:14Z</time>
      </trkpt>
      <trkpt lat="45.5159" lon="6.7311">
        <ele>2060.9</ele>
        <time>2021-08-12T12:21:15Z</time>
      </trkpt>
      <trkpt lat="45.5159" lon="6.7311">
        <ele>2060.9</ele>
        <time>2021-08-12T12:21:16Z</time>
      </trkpt>
      <trkpt lat="45.5159" lon="6.7311">
        <ele>2060.9</ele>
        <time>2021-08-12T12:21:17Z</time>
      </trkpt>
      <trkpt lat="45.5159" lon="6.7311">
        <ele>2060.9</ele>
        <time>2021-08-12T12:21:18Z</time>
      </trkpt>
      <trkpt lat="45.5159" lon="6.73111">
        <ele>2060.9</ele>
        <time>2021-08-12T12:21:19Z</time>
      </trkpt>
      <trkpt lat="45.5159" lon="6.73111">
        <ele>2060.9</ele>
        <time>2021-08-12T12:21:20Z</time>
      </trkpt>
      <trkpt lat="45.5159" lon="6.73111">
        <ele>2060.9</ele>
        <time>2021-08-12T12:21:21Z</time>
      </trkpt>
      <trkpt lat="45.5159" lon="6.73111">
        <ele>2060.9</ele>
        <time>2021-08-12T12:21:22Z</time>
      </trkpt>
      <trkpt lat="45.5159" lon="6.73111">
        <ele>2060.9</ele>
        <time>2021-08-12T12:21:23Z</time>
      </trkpt>
      <trkpt lat="45.5159" lon="6.73111">
        <ele>2060.9</ele>
        <time>2021-08-12T12:21:24Z</time>
      </trkpt>
      <trkpt lat="45.51589" lon="6.73111">
        <ele>2060.9</ele>
        <time>2021-08-12T12:21:25Z</time>
      </trkpt>
      <trkpt lat="45.51589" lon="6.73111">
        <ele>2060.9</ele>
        <time>2021-08-12T12:21:26Z</time>
      </trkpt>
      <trkpt lat="45.51589" lon="6.73111">
        <ele>2060.9</ele>
        <time>2021-08-12T12:21:27Z</time>
      </trkpt>
      <trkpt lat="45.51589" lon="6.73111">
        <ele>2060.9</ele>
        <time>2021-08-12T12:21:28Z</time>
      </trkpt>
      <trkpt lat="45.51589" lon="6.73111">
        <ele>2060.9</ele>
        <time>2021-08-12T12:21:29Z</time>
      </trkpt>
      <trkpt lat="45.51589" lon="6.73111">
        <ele>2060.9</ele>
        <time>2021-08-12T12:21:30Z</time>
      </trkpt>
      <trkpt lat="45.51589" lon="6.73111">
        <ele>2060.9</ele>
        <time>2021-08-12T12:21:31Z</time>
      </trkpt>
      <trkpt lat="45.51589" lon="6.73111">
        <ele>2060.9</ele>
        <time>2021-08-12T12:21:32Z</time>
      </trkpt>
      <trkpt lat="45.51589" lon="6.73111">
        <ele>2060.9</ele>
        <time>2021-08-12T12:21:33Z</time>
      </trkpt>
      <trkpt lat="45.51589" lon="6.73111">
        <ele>2060.9</ele>
        <time>2021-08-12T12:21:34Z</time>
      </trkpt>
      <trkpt lat="45.51589" lon="6.73111">
        <ele>2060.9</ele>
        <time>2021-08-12T12:21:35Z</time>
      </trkpt>
      <trkpt lat="45.51589" lon="6.73111">
        <ele>2060.9</ele>
        <time>2021-08-12T12:21:36Z</time>
      </trkpt>
      <trkpt lat="45.51589" lon="6.73111">
        <ele>2060.9</ele>
        <time>2021-08-12T12:21:37Z</time>
      </trkpt>
      <trkpt lat="45.51589" lon="6.73111">
        <ele>2060.9</ele>
        <time>2021-08-12T12:21:38Z</time>
      </trkpt>
      <trkpt lat="45.51589" lon="6.73111">
        <ele>2060.9</ele>
        <time>2021-08-12T12:21:39Z</time>
      </trkpt>
      <trkpt lat="45.51589" lon="6.73111">
        <ele>2060.9</ele>
        <time>2021-08-12T12:21:40Z</time>
      </trkpt>
      <trkpt lat="45.51589" lon="6.73111">
        <ele>2060.9</ele>
        <time>2021-08-12T12:21:41Z</time>
      </trkpt>
      <trkpt lat="45.51589" lon="6.73111">
        <ele>2060.9</ele>
        <time>2021-08-12T12:21:42Z</time>
      </trkpt>
      <trkpt lat="45.51589" lon="6.73111">
        <ele>2060.9</ele>
        <time>2021-08-12T12:21:43Z</time>
      </trkpt>
      <trkpt lat="45.51589" lon="6.73111">
        <ele>2060.9</ele>
        <time>2021-08-12T12:21:44Z</time>
      </trkpt>
      <trkpt lat="45.51589" lon="6.73111">
        <ele>2060.9</ele>
        <time>2021-08-12T12:21:45Z</time>
      </trkpt>
      <trkpt lat="45.51589" lon="6.73111">
        <ele>2060.9</ele>
        <time>2021-08-12T12:21:46Z</time>
      </trkpt>
      <trkpt lat="45.51589" lon="6.73111">
        <ele>2060.9</ele>
        <time>2021-08-12T12:21:47Z</time>
      </trkpt>
      <trkpt lat="45.51589" lon="6.73111">
        <ele>2060.9</ele>
        <time>2021-08-12T12:21:48Z</time>
      </trkpt>
      <trkpt lat="45.51589" lon="6.73111">
        <ele>2060.9</ele>
        <time>2021-08-12T12:21:49Z</time>
      </trkpt>
      <trkpt lat="45.51589" lon="6.73111">
        <ele>2060.9</ele>
        <time>2021-08-12T12:21:50Z</time>
      </trkpt>
      <trkpt lat="45.51589" lon="6.73111">
        <ele>2060.9</ele>
        <time>2021-08-12T12:21:51Z</time>
      </trkpt>
      <trkpt lat="45.51589" lon="6.73111">
        <ele>2060.9</ele>
        <time>2021-08-12T12:21:52Z</time>
      </trkpt>
      <trkpt lat="45.51589" lon="6.73111">
        <ele>2060.9</ele>
        <time>2021-08-12T12:21:53Z</time>
      </trkpt>
      <trkpt lat="45.51589" lon="6.73111">
        <ele>2060.9</ele>
        <time>2021-08-12T12:21:54Z</time>
      </trkpt>
      <trkpt lat="45.51589" lon="6.73111">
        <ele>2060.9</ele>
        <time>2021-08-12T12:21:55Z</time>
      </trkpt>
      <trkpt lat="45.51589" lon="6.73111">
        <ele>2060.9</ele>
        <time>2021-08-12T12:21:56Z</time>
      </trkpt>
      <trkpt lat="45.51589" lon="6.73111">
        <ele>2060.9</ele>
        <time>2021-08-12T12:21:57Z</time>
      </trkpt>
      <trkpt lat="45.51589" lon="6.73111">
        <ele>2060.9</ele>
        <time>2021-08-12T12:21:58Z</time>
      </trkpt>
      <trkpt lat="45.51589" lon="6.73111">
        <ele>2060.9</ele>
        <time>2021-08-12T12:21:59Z</time>
      </trkpt>
      <trkpt lat="45.51589" lon="6.73111">
        <ele>2060.9</ele>
        <time>2021-08-12T12:22:00Z</time>
      </trkpt>
      <trkpt lat="45.51589" lon="6.73111">
        <ele>2060.9</ele>
        <time>2021-08-12T12:22:01Z</time>
      </trkpt>
      <trkpt lat="45.51589" lon="6.73111">
        <ele>2060.9</ele>
        <time>2021-08-12T12:22:02Z</time>
      </trkpt>
      <trkpt lat="45.51589" lon="6.73111">
        <ele>2060.9</ele>
        <time>2021-08-12T12:22:03Z</time>
      </trkpt>
      <trkpt lat="45.51589" lon="6.73111">
        <ele>2060.9</ele>
        <time>2021-08-12T12:22:04Z</time>
      </trkpt>
      <trkpt lat="45.51589" lon="6.73111">
        <ele>2060.9</ele>
        <time>2021-08-12T12:22:05Z</time>
      </trkpt>
      <trkpt lat="45.51589" lon="6.73111">
        <ele>2060.9</ele>
        <time>2021-08-12T12:22:06Z</time>
      </trkpt>
      <trkpt lat="45.51589" lon="6.73111">
        <ele>2060.9</ele>
        <time>2021-08-12T12:22:07Z</time>
      </trkpt>
      <trkpt lat="45.51589" lon="6.73111">
        <ele>2060.9</ele>
        <time>2021-08-12T12:22:08Z</time>
      </trkpt>
      <trkpt lat="45.51589" lon="6.73111">
        <ele>2060.9</ele>
        <time>2021-08-12T12:22:09Z</time>
      </trkpt>
      <trkpt lat="45.51589" lon="6.73111">
        <ele>2060.9</ele>
        <time>2021-08-12T12:22:10Z</time>
      </trkpt>
      <trkpt lat="45.51589" lon="6.73111">
        <ele>2060.9</ele>
        <time>2021-08-12T12:22:11Z</time>
      </trkpt>
      <trkpt lat="45.51589" lon="6.73111">
        <ele>2060.9</ele>
        <time>2021-08-12T12:22:12Z</time>
      </trkpt>
      <trkpt lat="45.51589" lon="6.73111">
        <ele>2060.9</ele>
        <time>2021-08-12T12:22:13Z</time>
      </trkpt>
      <trkpt lat="45.51589" lon="6.73111">
        <ele>2060.9</ele>
        <time>2021-08-12T12:22:14Z</time>
      </trkpt>
      <trkpt lat="45.51589" lon="6.73111">
        <ele>2060.9</ele>
        <time>2021-08-12T12:22:15Z</time>
      </trkpt>
      <trkpt lat="45.51589" lon="6.73111">
        <ele>2060.9</ele>
        <time>2021-08-12T12:22:16Z</time>
      </trkpt>
      <trkpt lat="45.51589" lon="6.73111">
        <ele>2060.9</ele>
        <time>2021-08-12T12:22:17Z</time>
      </trkpt>
      <trkpt lat="45.51589" lon="6.73111">
        <ele>2060.9</ele>
        <time>2021-08-12T12:22:18Z</time>
      </trkpt>
      <trkpt lat="45.51589" lon="6.73111">
        <ele>2060.9</ele>
        <time>2021-08-12T12:22:19Z</time>
      </trkpt>
      <trkpt lat="45.51589" lon="6.73111">
        <ele>2060.9</ele>
        <time>2021-08-12T12:22:20Z</time>
      </trkpt>
      <trkpt lat="45.51589" lon="6.73111">
        <ele>2060.9</ele>
        <time>2021-08-12T12:22:21Z</time>
      </trkpt>
      <trkpt lat="45.51589" lon="6.73111">
        <ele>2060.9</ele>
        <time>2021-08-12T12:22:22Z</time>
      </trkpt>
      <trkpt lat="45.51589" lon="6.73111">
        <ele>2060.9</ele>
        <time>2021-08-12T12:22:23Z</time>
      </trkpt>
      <trkpt lat="45.51589" lon="6.73111">
        <ele>2060.9</ele>
        <time>2021-08-12T12:22:24Z</time>
      </trkpt>
      <trkpt lat="45.51589" lon="6.73111">
        <ele>2060.9</ele>
        <time>2021-08-12T12:22:25Z</time>
      </trkpt>
      <trkpt lat="45.51589" lon="6.73111">
        <ele>2060.9</ele>
        <time>2021-08-12T12:22:26Z</time>
      </trkpt>
      <trkpt lat="45.51589" lon="6.73111">
        <ele>2060.9</ele>
        <time>2021-08-12T12:22:27Z</time>
      </trkpt>
      <trkpt lat="45.51589" lon="6.73111">
        <ele>2060.9</ele>
        <time>2021-08-12T12:22:28Z</time>
      </trkpt>
      <trkpt lat="45.51589" lon="6.73111">
        <ele>2060.9</ele>
        <time>2021-08-12T12:22:29Z</time>
      </trkpt>
      <trkpt lat="45.51589" lon="6.73111">
        <ele>2060.9</ele>
        <time>2021-08-12T12:22:30Z</time>
      </trkpt>
      <trkpt lat="45.51589" lon="6.73111">
        <ele>2060.9</ele>
        <time>2021-08-12T12:22:31Z</time>
      </trkpt>
      <trkpt lat="45.51589" lon="6.73111">
        <ele>2060.9</ele>
        <time>2021-08-12T12:22:32Z</time>
      </trkpt>
      <trkpt lat="45.51589" lon="6.73111">
        <ele>2060.9</ele>
        <time>2021-08-12T12:22:33Z</time>
      </trkpt>
      <trkpt lat="45.51589" lon="6.73111">
        <ele>2060.9</ele>
        <time>2021-08-12T12:22:34Z</time>
      </trkpt>
      <trkpt lat="45.51589" lon="6.73111">
        <ele>2060.9</ele>
        <time>2021-08-12T12:22:35Z</time>
      </trkpt>
      <trkpt lat="45.51589" lon="6.73111">
        <ele>2060.9</ele>
        <time>2021-08-12T12:22:36Z</time>
      </trkpt>
      <trkpt lat="45.51589" lon="6.73111">
        <ele>2060.9</ele>
        <time>2021-08-12T12:22:37Z</time>
      </trkpt>
      <trkpt lat="45.51589" lon="6.73111">
        <ele>2060.9</ele>
        <time>2021-08-12T12:22:38Z</time>
      </trkpt>
      <trkpt lat="45.51589" lon="6.73111">
        <ele>2060.9</ele>
        <time>2021-08-12T12:22:39Z</time>
      </trkpt>
      <trkpt lat="45.51589" lon="6.73111">
        <ele>2060.9</ele>
        <time>2021-08-12T12:22:40Z</time>
      </trkpt>
      <trkpt lat="45.51589" lon="6.73111">
        <ele>2060.9</ele>
        <time>2021-08-12T12:22:41Z</time>
      </trkpt>
      <trkpt lat="45.51589" lon="6.73111">
        <ele>2060.9</ele>
        <time>2021-08-12T12:22:42Z</time>
      </trkpt>
      <trkpt lat="45.51589" lon="6.73111">
        <ele>2060.9</ele>
        <time>2021-08-12T12:22:43Z</time>
      </trkpt>
      <trkpt lat="45.51589" lon="6.73111">
        <ele>2060.9</ele>
        <time>2021-08-12T12:22:44Z</time>
      </trkpt>
      <trkpt lat="45.51589" lon="6.73111">
        <ele>2060.9</ele>
        <time>2021-08-12T12:22:45Z</time>
      </trkpt>
      <trkpt lat="45.51589" lon="6.73111">
        <ele>2060.9</ele>
        <time>2021-08-12T12:22:46Z</time>
      </trkpt>
      <trkpt lat="45.51589" lon="6.73111">
        <ele>2060.9</ele>
        <time>2021-08-12T12:22:47Z</time>
      </trkpt>
      <trkpt lat="45.51589" lon="6.73111">
        <ele>2060.9</ele>
        <time>2021-08-12T12:22:48Z</time>
      </trkpt>
      <trkpt lat="45.51589" lon="6.73111">
        <ele>2060.9</ele>
        <time>2021-08-12T12:22:49Z</time>
      </trkpt>
      <trkpt lat="45.51589" lon="6.73111">
        <ele>2060.9</ele>
        <time>2021-08-12T12:22:50Z</time>
      </trkpt>
      <trkpt lat="45.51589" lon="6.73111">
        <ele>2060.9</ele>
        <time>2021-08-12T12:22:51Z</time>
      </trkpt>
      <trkpt lat="45.51589" lon="6.73111">
        <ele>2060.9</ele>
        <time>2021-08-12T12:22:52Z</time>
      </trkpt>
      <trkpt lat="45.51589" lon="6.73111">
        <ele>2060.9</ele>
        <time>2021-08-12T12:22:53Z</time>
      </trkpt>
      <trkpt lat="45.51589" lon="6.73111">
        <ele>2060.9</ele>
        <time>2021-08-12T12:22:54Z</time>
      </trkpt>
      <trkpt lat="45.51589" lon="6.73111">
        <ele>2060.9</ele>
        <time>2021-08-12T12:22:55Z</time>
      </trkpt>
      <trkpt lat="45.51589" lon="6.73111">
        <ele>2060.9</ele>
        <time>2021-08-12T12:22:56Z</time>
      </trkpt>
      <trkpt lat="45.51589" lon="6.73111">
        <ele>2060.9</ele>
        <time>2021-08-12T12:22:57Z</time>
      </trkpt>
      <trkpt lat="45.51589" lon="6.73111">
        <ele>2060.9</ele>
        <time>2021-08-12T12:22:58Z</time>
      </trkpt>
      <trkpt lat="45.51589" lon="6.73111">
        <ele>2060.9</ele>
        <time>2021-08-12T12:22:59Z</time>
      </trkpt>
      <trkpt lat="45.51589" lon="6.73111">
        <ele>2060.9</ele>
        <time>2021-08-12T12:23:00Z</time>
      </trkpt>
      <trkpt lat="45.51589" lon="6.73111">
        <ele>2060.9</ele>
        <time>2021-08-12T12:23:01Z</time>
      </trkpt>
      <trkpt lat="45.51589" lon="6.73111">
        <ele>2060.9</ele>
        <time>2021-08-12T12:23:02Z</time>
      </trkpt>
      <trkpt lat="45.51589" lon="6.73111">
        <ele>2060.9</ele>
        <time>2021-08-12T12:23:03Z</time>
      </trkpt>
      <trkpt lat="45.51589" lon="6.73111">
        <ele>2060.9</ele>
        <time>2021-08-12T12:23:04Z</time>
      </trkpt>
      <trkpt lat="45.51589" lon="6.73111">
        <ele>2060.9</ele>
        <time>2021-08-12T12:23:05Z</time>
      </trkpt>
      <trkpt lat="45.51589" lon="6.73111">
        <ele>2060.9</ele>
        <time>2021-08-12T12:23:06Z</time>
      </trkpt>
      <trkpt lat="45.51589" lon="6.73111">
        <ele>2060.9</ele>
        <time>2021-08-12T12:23:07Z</time>
      </trkpt>
      <trkpt lat="45.51589" lon="6.73111">
        <ele>2060.9</ele>
        <time>2021-08-12T12:23:08Z</time>
      </trkpt>
      <trkpt lat="45.51589" lon="6.73111">
        <ele>2060.9</ele>
        <time>2021-08-12T12:23:09Z</time>
      </trkpt>
      <trkpt lat="45.51589" lon="6.73111">
        <ele>2060.9</ele>
        <time>2021-08-12T12:23:10Z</time>
      </trkpt>
      <trkpt lat="45.51589" lon="6.73111">
        <ele>2060.9</ele>
        <time>2021-08-12T12:23:11Z</time>
      </trkpt>
      <trkpt lat="45.51589" lon="6.73111">
        <ele>2060.9</ele>
        <time>2021-08-12T12:23:12Z</time>
      </trkpt>
      <trkpt lat="45.51589" lon="6.73111">
        <ele>2060.9</ele>
        <time>2021-08-12T12:23:13Z</time>
      </trkpt>
      <trkpt lat="45.51589" lon="6.73111">
        <ele>2060.9</ele>
        <time>2021-08-12T12:23:14Z</time>
      </trkpt>
      <trkpt lat="45.51589" lon="6.73111">
        <ele>2060.9</ele>
        <time>2021-08-12T12:23:15Z</time>
      </trkpt>
      <trkpt lat="45.51589" lon="6.73111">
        <ele>2060.9</ele>
        <time>2021-08-12T12:23:16Z</time>
      </trkpt>
      <trkpt lat="45.51589" lon="6.73111">
        <ele>2060.9</ele>
        <time>2021-08-12T12:23:17Z</time>
      </trkpt>
      <trkpt lat="45.51589" lon="6.73111">
        <ele>2060.9</ele>
        <time>2021-08-12T12:23:18Z</time>
      </trkpt>
      <trkpt lat="45.51589" lon="6.73111">
        <ele>2060.9</ele>
        <time>2021-08-12T12:23:19Z</time>
      </trkpt>
      <trkpt lat="45.51589" lon="6.73111">
        <ele>2060.9</ele>
        <time>2021-08-12T12:23:20Z</time>
      </trkpt>
      <trkpt lat="45.51589" lon="6.73111">
        <ele>2060.9</ele>
        <time>2021-08-12T12:23:21Z</time>
      </trkpt>
      <trkpt lat="45.51589" lon="6.73111">
        <ele>2060.9</ele>
        <time>2021-08-12T12:23:22Z</time>
      </trkpt>
      <trkpt lat="45.51589" lon="6.73111">
        <ele>2060.9</ele>
        <time>2021-08-12T12:23:23Z</time>
      </trkpt>
      <trkpt lat="45.51589" lon="6.73111">
        <ele>2060.9</ele>
        <time>2021-08-12T12:23:24Z</time>
      </trkpt>
      <trkpt lat="45.51589" lon="6.73111">
        <ele>2060.9</ele>
        <time>2021-08-12T12:23:25Z</time>
      </trkpt>
      <trkpt lat="45.51589" lon="6.73111">
        <ele>2060.9</ele>
        <time>2021-08-12T12:23:26Z</time>
      </trkpt>
      <trkpt lat="45.51589" lon="6.73111">
        <ele>2060.9</ele>
        <time>2021-08-12T12:23:27Z</time>
      </trkpt>
      <trkpt lat="45.51589" lon="6.73111">
        <ele>2060.9</ele>
        <time>2021-08-12T12:23:28Z</time>
      </trkpt>
      <trkpt lat="45.51589" lon="6.73111">
        <ele>2060.9</ele>
        <time>2021-08-12T12:23:29Z</time>
      </trkpt>
      <trkpt lat="45.51589" lon="6.73111">
        <ele>2060.9</ele>
        <time>2021-08-12T12:23:30Z</time>
      </trkpt>
      <trkpt lat="45.51589" lon="6.73111">
        <ele>2060.9</ele>
        <time>2021-08-12T12:23:31Z</time>
      </trkpt>
      <trkpt lat="45.51589" lon="6.73111">
        <ele>2060.9</ele>
        <time>2021-08-12T12:23:32Z</time>
      </trkpt>
      <trkpt lat="45.51589" lon="6.73111">
        <ele>2060.9</ele>
        <time>2021-08-12T12:23:33Z</time>
      </trkpt>
      <trkpt lat="45.51589" lon="6.73111">
        <ele>2060.9</ele>
        <time>2021-08-12T12:23:34Z</time>
      </trkpt>
      <trkpt lat="45.51589" lon="6.73111">
        <ele>2060.9</ele>
        <time>2021-08-12T12:23:35Z</time>
      </trkpt>
      <trkpt lat="45.51589" lon="6.73111">
        <ele>2060.9</ele>
        <time>2021-08-12T12:23:36Z</time>
      </trkpt>
      <trkpt lat="45.51589" lon="6.73111">
        <ele>2060.9</ele>
        <time>2021-08-12T12:23:37Z</time>
      </trkpt>
      <trkpt lat="45.51589" lon="6.73111">
        <ele>2060.9</ele>
        <time>2021-08-12T12:23:38Z</time>
      </trkpt>
      <trkpt lat="45.51589" lon="6.73111">
        <ele>2060.8</ele>
        <time>2021-08-12T12:23:39Z</time>
      </trkpt>
      <trkpt lat="45.51589" lon="6.73111">
        <ele>2060.8</ele>
        <time>2021-08-12T12:23:40Z</time>
      </trkpt>
      <trkpt lat="45.51589" lon="6.73111">
        <ele>2060.8</ele>
        <time>2021-08-12T12:23:41Z</time>
      </trkpt>
      <trkpt lat="45.51589" lon="6.73111">
        <ele>2060.8</ele>
        <time>2021-08-12T12:23:42Z</time>
      </trkpt>
      <trkpt lat="45.51589" lon="6.73111">
        <ele>2060.8</ele>
        <time>2021-08-12T12:23:43Z</time>
      </trkpt>
      <trkpt lat="45.51589" lon="6.73111">
        <ele>2060.8</ele>
        <time>2021-08-12T12:23:44Z</time>
      </trkpt>
      <trkpt lat="45.51589" lon="6.73111">
        <ele>2060.8</ele>
        <time>2021-08-12T12:23:45Z</time>
      </trkpt>
      <trkpt lat="45.51589" lon="6.73111">
        <ele>2060.8</ele>
        <time>2021-08-12T12:23:46Z</time>
      </trkpt>
      <trkpt lat="45.51589" lon="6.73111">
        <ele>2060.8</ele>
        <time>2021-08-12T12:23:47Z</time>
      </trkpt>
      <trkpt lat="45.51589" lon="6.73111">
        <ele>2060.8</ele>
        <time>2021-08-12T12:23:48Z</time>
      </trkpt>
      <trkpt lat="45.51589" lon="6.73111">
        <ele>2060.8</ele>
        <time>2021-08-12T12:23:49Z</time>
      </trkpt>
      <trkpt lat="45.51589" lon="6.73111">
        <ele>2060.8</ele>
        <time>2021-08-12T12:23:50Z</time>
      </trkpt>
      <trkpt lat="45.51589" lon="6.73111">
        <ele>2060.8</ele>
        <time>2021-08-12T12:23:51Z</time>
      </trkpt>
      <trkpt lat="45.51589" lon="6.73111">
        <ele>2060.8</ele>
        <time>2021-08-12T12:23:52Z</time>
      </trkpt>
      <trkpt lat="45.51589" lon="6.73111">
        <ele>2060.8</ele>
        <time>2021-08-12T12:23:53Z</time>
      </trkpt>
      <trkpt lat="45.51589" lon="6.73111">
        <ele>2060.8</ele>
        <time>2021-08-12T12:23:54Z</time>
      </trkpt>
      <trkpt lat="45.51589" lon="6.73111">
        <ele>2060.8</ele>
        <time>2021-08-12T12:23:55Z</time>
      </trkpt>
      <trkpt lat="45.51589" lon="6.73111">
        <ele>2060.8</ele>
        <time>2021-08-12T12:23:56Z</time>
      </trkpt>
      <trkpt lat="45.51589" lon="6.73111">
        <ele>2060.8</ele>
        <time>2021-08-12T12:23:57Z</time>
      </trkpt>
      <trkpt lat="45.51589" lon="6.73111">
        <ele>2060.8</ele>
        <time>2021-08-12T12:23:58Z</time>
      </trkpt>
      <trkpt lat="45.51589" lon="6.73111">
        <ele>2060.8</ele>
        <time>2021-08-12T12:23:59Z</time>
      </trkpt>
      <trkpt lat="45.51589" lon="6.73111">
        <ele>2060.8</ele>
        <time>2021-08-12T12:24:00Z</time>
      </trkpt>
      <trkpt lat="45.51589" lon="6.73111">
        <ele>2060.8</ele>
        <time>2021-08-12T12:24:01Z</time>
      </trkpt>
      <trkpt lat="45.51589" lon="6.73111">
        <ele>2060.8</ele>
        <time>2021-08-12T12:24:02Z</time>
      </trkpt>
      <trkpt lat="45.51589" lon="6.73111">
        <ele>2060.8</ele>
        <time>2021-08-12T12:24:03Z</time>
      </trkpt>
      <trkpt lat="45.51589" lon="6.73111">
        <ele>2060.8</ele>
        <time>2021-08-12T12:24:04Z</time>
      </trkpt>
      <trkpt lat="45.51589" lon="6.73111">
        <ele>2060.8</ele>
        <time>2021-08-12T12:24:05Z</time>
      </trkpt>
      <trkpt lat="45.51589" lon="6.73111">
        <ele>2060.8</ele>
        <time>2021-08-12T12:24:06Z</time>
      </trkpt>
      <trkpt lat="45.51589" lon="6.73111">
        <ele>2060.8</ele>
        <time>2021-08-12T12:24:07Z</time>
      </trkpt>
      <trkpt lat="45.51589" lon="6.73111">
        <ele>2060.8</ele>
        <time>2021-08-12T12:24:08Z</time>
      </trkpt>
      <trkpt lat="45.51589" lon="6.73111">
        <ele>2060.8</ele>
        <time>2021-08-12T12:24:09Z</time>
      </trkpt>
      <trkpt lat="45.51589" lon="6.73111">
        <ele>2060.8</ele>
        <time>2021-08-12T12:24:10Z</time>
      </trkpt>
      <trkpt lat="45.51589" lon="6.73111">
        <ele>2060.8</ele>
        <time>2021-08-12T12:24:11Z</time>
      </trkpt>
      <trkpt lat="45.51589" lon="6.73111">
        <ele>2060.8</ele>
        <time>2021-08-12T12:24:12Z</time>
      </trkpt>
      <trkpt lat="45.51589" lon="6.73111">
        <ele>2060.8</ele>
        <time>2021-08-12T12:24:13Z</time>
      </trkpt>
      <trkpt lat="45.51589" lon="6.73111">
        <ele>2060.8</ele>
        <time>2021-08-12T12:24:14Z</time>
      </trkpt>
      <trkpt lat="45.51589" lon="6.73111">
        <ele>2060.8</ele>
        <time>2021-08-12T12:24:15Z</time>
      </trkpt>
      <trkpt lat="45.51589" lon="6.73111">
        <ele>2060.8</ele>
        <time>2021-08-12T12:24:16Z</time>
      </trkpt>
      <trkpt lat="45.51589" lon="6.73111">
        <ele>2060.8</ele>
        <time>2021-08-12T12:24:17Z</time>
      </trkpt>
      <trkpt lat="45.51589" lon="6.73111">
        <ele>2060.8</ele>
        <time>2021-08-12T12:24:18Z</time>
      </trkpt>
      <trkpt lat="45.51589" lon="6.73111">
        <ele>2060.8</ele>
        <time>2021-08-12T12:24:19Z</time>
      </trkpt>
      <trkpt lat="45.51589" lon="6.73111">
        <ele>2060.7</ele>
        <time>2021-08-12T12:24:20Z</time>
      </trkpt>
      <trkpt lat="45.5159" lon="6.73112">
        <ele>2060.7</ele>
        <time>2021-08-12T12:24:21Z</time>
      </trkpt>
      <trkpt lat="45.5159" lon="6.73112">
        <ele>2060.7</ele>
        <time>2021-08-12T12:24:22Z</time>
      </trkpt>
      <trkpt lat="45.5159" lon="6.73112">
        <ele>2060.7</ele>
        <time>2021-08-12T12:24:23Z</time>
      </trkpt>
      <trkpt lat="45.51591" lon="6.73113">
        <ele>2060.7</ele>
        <time>2021-08-12T12:24:24Z</time>
      </trkpt>
      <trkpt lat="45.51591" lon="6.73113">
        <ele>2060.6</ele>
        <time>2021-08-12T12:24:25Z</time>
      </trkpt>
      <trkpt lat="45.51592" lon="6.73114">
        <ele>2060.6</ele>
        <time>2021-08-12T12:24:26Z</time>
      </trkpt>
      <trkpt lat="45.51592" lon="6.73115">
        <ele>2060.5</ele>
        <time>2021-08-12T12:24:27Z</time>
      </trkpt>
      <trkpt lat="45.51593" lon="6.73115">
        <ele>2060.5</ele>
        <time>2021-08-12T12:24:28Z</time>
      </trkpt>
      <trkpt lat="45.51594" lon="6.73116">
        <ele>2060.4</ele>
        <time>2021-08-12T12:24:29Z</time>
      </trkpt>
      <trkpt lat="45.51594" lon="6.73117">
        <ele>2060.3</ele>
        <time>2021-08-12T12:24:30Z</time>
      </trkpt>
      <trkpt lat="45.51595" lon="6.73117">
        <ele>2060.2</ele>
        <time>2021-08-12T12:24:31Z</time>
      </trkpt>
      <trkpt lat="45.51596" lon="6.73118">
        <ele>2060.2</ele>
        <time>2021-08-12T12:24:32Z</time>
      </trkpt>
      <trkpt lat="45.51596" lon="6.73119">
        <ele>2060.1</ele>
        <time>2021-08-12T12:24:33Z</time>
      </trkpt>
      <trkpt lat="45.51597" lon="6.73119">
        <ele>2060</ele>
        <time>2021-08-12T12:24:34Z</time>
      </trkpt>
      <trkpt lat="45.51597" lon="6.7312">
        <ele>2060</ele>
        <time>2021-08-12T12:24:35Z</time>
      </trkpt>
      <trkpt lat="45.51598" lon="6.73121">
        <ele>2059.9</ele>
        <time>2021-08-12T12:24:36Z</time>
      </trkpt>
      <trkpt lat="45.51598" lon="6.73121">
        <ele>2059.8</ele>
        <time>2021-08-12T12:24:37Z</time>
      </trkpt>
      <trkpt lat="45.51599" lon="6.73122">
        <ele>2059.8</ele>
        <time>2021-08-12T12:24:38Z</time>
      </trkpt>
      <trkpt lat="45.51599" lon="6.73122">
        <ele>2059.7</ele>
        <time>2021-08-12T12:24:39Z</time>
      </trkpt>
      <trkpt lat="45.516" lon="6.73123">
        <ele>2059.7</ele>
        <time>2021-08-12T12:24:40Z</time>
      </trkpt>
      <trkpt lat="45.516" lon="6.73123">
        <ele>2059.6</ele>
        <time>2021-08-12T12:24:41Z</time>
      </trkpt>
      <trkpt lat="45.51601" lon="6.73123">
        <ele>2059.6</ele>
        <time>2021-08-12T12:24:42Z</time>
      </trkpt>
      <trkpt lat="45.51601" lon="6.73124">
        <ele>2059.5</ele>
        <time>2021-08-12T12:24:43Z</time>
      </trkpt>
      <trkpt lat="45.51601" lon="6.73124">
        <ele>2059.4</ele>
        <time>2021-08-12T12:24:44Z</time>
      </trkpt>
      <trkpt lat="45.51602" lon="6.73125">
        <ele>2059.4</ele>
        <time>2021-08-12T12:24:45Z</time>
      </trkpt>
      <trkpt lat="45.51602" lon="6.73125">
        <ele>2059.3</ele>
        <time>2021-08-12T12:24:46Z</time>
      </trkpt>
      <trkpt lat="45.51603" lon="6.73126">
        <ele>2059.3</ele>
        <time>2021-08-12T12:24:47Z</time>
      </trkpt>
      <trkpt lat="45.51603" lon="6.73126">
        <ele>2059.2</ele>
        <time>2021-08-12T12:24:48Z</time>
      </trkpt>
      <trkpt lat="45.51603" lon="6.73127">
        <ele>2059.2</ele>
        <time>2021-08-12T12:24:49Z</time>
      </trkpt>
      <trkpt lat="45.51604" lon="6.73128">
        <ele>2059.1</ele>
        <time>2021-08-12T12:24:50Z</time>
      </trkpt>
      <trkpt lat="45.51604" lon="6.73128">
        <ele>2059</ele>
        <time>2021-08-12T12:24:51Z</time>
      </trkpt>
      <trkpt lat="45.51605" lon="6.73129">
        <ele>2059</ele>
        <time>2021-08-12T12:24:52Z</time>
      </trkpt>
      <trkpt lat="45.51606" lon="6.73129">
        <ele>2058.9</ele>
        <time>2021-08-12T12:24:53Z</time>
      </trkpt>
      <trkpt lat="45.51606" lon="6.7313">
        <ele>2058.8</ele>
        <time>2021-08-12T12:24:54Z</time>
      </trkpt>
      <trkpt lat="45.51607" lon="6.73131">
        <ele>2058.7</ele>
        <time>2021-08-12T12:24:55Z</time>
      </trkpt>
      <trkpt lat="45.51607" lon="6.73131">
        <ele>2058.7</ele>
        <time>2021-08-12T12:24:56Z</time>
      </trkpt>
      <trkpt lat="45.51608" lon="6.73131">
        <ele>2058.6</ele>
        <time>2021-08-12T12:24:57Z</time>
      </trkpt>
      <trkpt lat="45.51608" lon="6.73131">
        <ele>2058.6</ele>
        <time>2021-08-12T12:24:58Z</time>
      </trkpt>
      <trkpt lat="45.51608" lon="6.73132">
        <ele>2058.6</ele>
        <time>2021-08-12T12:24:59Z</time>
      </trkpt>
      <trkpt lat="45.51608" lon="6.73131">
        <ele>2058.6</ele>
        <time>2021-08-12T12:25:00Z</time>
      </trkpt>
      <trkpt lat="45.51608" lon="6.73131">
        <ele>2058.6</ele>
        <time>2021-08-12T12:25:01Z</time>
      </trkpt>
      <trkpt lat="45.51608" lon="6.73131">
        <ele>2058.6</ele>
        <time>2021-08-12T12:25:02Z</time>
      </trkpt>
      <trkpt lat="45.51608" lon="6.73131">
        <ele>2058.6</ele>
        <time>2021-08-12T12:25:03Z</time>
      </trkpt>
      <trkpt lat="45.51608" lon="6.73132">
        <ele>2058.6</ele>
        <time>2021-08-12T12:25:04Z</time>
      </trkpt>
      <trkpt lat="45.51608" lon="6.73132">
        <ele>2058.6</ele>
        <time>2021-08-12T12:25:05Z</time>
      </trkpt>
      <trkpt lat="45.51609" lon="6.73132">
        <ele>2058.5</ele>
        <time>2021-08-12T12:25:06Z</time>
      </trkpt>
      <trkpt lat="45.51609" lon="6.73132">
        <ele>2058.5</ele>
        <time>2021-08-12T12:25:07Z</time>
      </trkpt>
      <trkpt lat="45.51609" lon="6.73132">
        <ele>2058.5</ele>
        <time>2021-08-12T12:25:08Z</time>
      </trkpt>
      <trkpt lat="45.5161" lon="6.73133">
        <ele>2058.4</ele>
        <time>2021-08-12T12:25:09Z</time>
      </trkpt>
      <trkpt lat="45.5161" lon="6.73133">
        <ele>2058.4</ele>
        <time>2021-08-12T12:25:10Z</time>
      </trkpt>
      <trkpt lat="45.51611" lon="6.73133">
        <ele>2058.3</ele>
        <time>2021-08-12T12:25:11Z</time>
      </trkpt>
      <trkpt lat="45.51611" lon="6.73134">
        <ele>2058.3</ele>
        <time>2021-08-12T12:25:12Z</time>
      </trkpt>
      <trkpt lat="45.51612" lon="6.73134">
        <ele>2058.2</ele>
        <time>2021-08-12T12:25:13Z</time>
      </trkpt>
      <trkpt lat="45.51613" lon="6.73134">
        <ele>2058.1</ele>
        <time>2021-08-12T12:25:14Z</time>
      </trkpt>
      <trkpt lat="45.51613" lon="6.73134">
        <ele>2058.1</ele>
        <time>2021-08-12T12:25:15Z</time>
      </trkpt>
      <trkpt lat="45.51614" lon="6.73135">
        <ele>2058</ele>
        <time>2021-08-12T12:25:16Z</time>
      </trkpt>
      <trkpt lat="45.51615" lon="6.73135">
        <ele>2058</ele>
        <time>2021-08-12T12:25:17Z</time>
      </trkpt>
      <trkpt lat="45.51615" lon="6.73135">
        <ele>2057.9</ele>
        <time>2021-08-12T12:25:18Z</time>
      </trkpt>
      <trkpt lat="45.51616" lon="6.73136">
        <ele>2057.8</ele>
        <time>2021-08-12T12:25:19Z</time>
      </trkpt>
      <trkpt lat="45.51617" lon="6.73136">
        <ele>2057.8</ele>
        <time>2021-08-12T12:25:20Z</time>
      </trkpt>
      <trkpt lat="45.51618" lon="6.73136">
        <ele>2057.7</ele>
        <time>2021-08-12T12:25:21Z</time>
      </trkpt>
      <trkpt lat="45.51618" lon="6.73136">
        <ele>2057.6</ele>
        <time>2021-08-12T12:25:22Z</time>
      </trkpt>
      <trkpt lat="45.51619" lon="6.73137">
        <ele>2057.5</ele>
        <time>2021-08-12T12:25:23Z</time>
      </trkpt>
      <trkpt lat="45.5162" lon="6.73137">
        <ele>2057.5</ele>
        <time>2021-08-12T12:25:24Z</time>
      </trkpt>
      <trkpt lat="45.51621" lon="6.73137">
        <ele>2057.4</ele>
        <time>2021-08-12T12:25:25Z</time>
      </trkpt>
      <trkpt lat="45.51621" lon="6.73138">
        <ele>2057.3</ele>
        <time>2021-08-12T12:25:26Z</time>
      </trkpt>
      <trkpt lat="45.51622" lon="6.73138">
        <ele>2057.2</ele>
        <time>2021-08-12T12:25:27Z</time>
      </trkpt>
      <trkpt lat="45.51623" lon="6.73138">
        <ele>2057.2</ele>
        <time>2021-08-12T12:25:28Z</time>
      </trkpt>
      <trkpt lat="45.51624" lon="6.73138">
        <ele>2057.1</ele>
        <time>2021-08-12T12:25:29Z</time>
      </trkpt>
      <trkpt lat="45.51624" lon="6.73139">
        <ele>2057</ele>
        <time>2021-08-12T12:25:30Z</time>
      </trkpt>
      <trkpt lat="45.51625" lon="6.73139">
        <ele>2056.9</ele>
        <time>2021-08-12T12:25:31Z</time>
      </trkpt>
      <trkpt lat="45.51626" lon="6.73139">
        <ele>2056.8</ele>
        <time>2021-08-12T12:25:32Z</time>
      </trkpt>
      <trkpt lat="45.51626" lon="6.7314">
        <ele>2056.7</ele>
        <time>2021-08-12T12:25:33Z</time>
      </trkpt>
      <trkpt lat="45.51627" lon="6.7314">
        <ele>2056.6</ele>
        <time>2021-08-12T12:25:34Z</time>
      </trkpt>
      <trkpt lat="45.51628" lon="6.7314">
        <ele>2056.6</ele>
        <time>2021-08-12T12:25:35Z</time>
      </trkpt>
      <trkpt lat="45.51629" lon="6.73141">
        <ele>2056.5</ele>
        <time>2021-08-12T12:25:36Z</time>
      </trkpt>
      <trkpt lat="45.51629" lon="6.73141">
        <ele>2056.4</ele>
        <time>2021-08-12T12:25:37Z</time>
      </trkpt>
      <trkpt lat="45.5163" lon="6.73141">
        <ele>2056.2</ele>
        <time>2021-08-12T12:25:38Z</time>
      </trkpt>
      <trkpt lat="45.51631" lon="6.73142">
        <ele>2056.1</ele>
        <time>2021-08-12T12:25:39Z</time>
      </trkpt>
      <trkpt lat="45.51631" lon="6.73142">
        <ele>2056</ele>
        <time>2021-08-12T12:25:40Z</time>
      </trkpt>
      <trkpt lat="45.51632" lon="6.73142">
        <ele>2055.9</ele>
        <time>2021-08-12T12:25:41Z</time>
      </trkpt>
      <trkpt lat="45.51633" lon="6.73143">
        <ele>2055.8</ele>
        <time>2021-08-12T12:25:42Z</time>
      </trkpt>
      <trkpt lat="45.51633" lon="6.73143">
        <ele>2055.8</ele>
        <time>2021-08-12T12:25:43Z</time>
      </trkpt>
      <trkpt lat="45.51634" lon="6.73144">
        <ele>2055.7</ele>
        <time>2021-08-12T12:25:44Z</time>
      </trkpt>
      <trkpt lat="45.51635" lon="6.73144">
        <ele>2055.5</ele>
        <time>2021-08-12T12:25:45Z</time>
      </trkpt>
      <trkpt lat="45.51636" lon="6.73144">
        <ele>2055.4</ele>
        <time>2021-08-12T12:25:46Z</time>
      </trkpt>
      <trkpt lat="45.51636" lon="6.73145">
        <ele>2055.4</ele>
        <time>2021-08-12T12:25:47Z</time>
      </trkpt>
      <trkpt lat="45.51637" lon="6.73145">
        <ele>2055.3</ele>
        <time>2021-08-12T12:25:48Z</time>
      </trkpt>
      <trkpt lat="45.51637" lon="6.73146">
        <ele>2055.2</ele>
        <time>2021-08-12T12:25:49Z</time>
      </trkpt>
      <trkpt lat="45.51638" lon="6.73146">
        <ele>2055.1</ele>
        <time>2021-08-12T12:25:50Z</time>
      </trkpt>
      <trkpt lat="45.51639" lon="6.73146">
        <ele>2055</ele>
        <time>2021-08-12T12:25:51Z</time>
      </trkpt>
      <trkpt lat="45.51639" lon="6.73147">
        <ele>2054.9</ele>
        <time>2021-08-12T12:25:52Z</time>
      </trkpt>
      <trkpt lat="45.5164" lon="6.73147">
        <ele>2054.8</ele>
        <time>2021-08-12T12:25:53Z</time>
      </trkpt>
      <trkpt lat="45.51641" lon="6.73148">
        <ele>2054.7</ele>
        <time>2021-08-12T12:25:54Z</time>
      </trkpt>
      <trkpt lat="45.51641" lon="6.73148">
        <ele>2054.6</ele>
        <time>2021-08-12T12:25:55Z</time>
      </trkpt>
      <trkpt lat="45.51642" lon="6.73149">
        <ele>2054.5</ele>
        <time>2021-08-12T12:25:56Z</time>
      </trkpt>
      <trkpt lat="45.51643" lon="6.73149">
        <ele>2054.4</ele>
        <time>2021-08-12T12:25:57Z</time>
      </trkpt>
      <trkpt lat="45.51643" lon="6.7315">
        <ele>2054.3</ele>
        <time>2021-08-12T12:25:58Z</time>
      </trkpt>
      <trkpt lat="45.51644" lon="6.7315">
        <ele>2054.2</ele>
        <time>2021-08-12T12:25:59Z</time>
      </trkpt>
      <trkpt lat="45.51645" lon="6.73151">
        <ele>2054.1</ele>
        <time>2021-08-12T12:26:00Z</time>
      </trkpt>
      <trkpt lat="45.51645" lon="6.73151">
        <ele>2054</ele>
        <time>2021-08-12T12:26:01Z</time>
      </trkpt>
      <trkpt lat="45.51646" lon="6.73152">
        <ele>2054</ele>
        <time>2021-08-12T12:26:02Z</time>
      </trkpt>
      <trkpt lat="45.51647" lon="6.73153">
        <ele>2053.9</ele>
        <time>2021-08-12T12:26:03Z</time>
      </trkpt>
      <trkpt lat="45.51647" lon="6.73153">
        <ele>2053.8</ele>
        <time>2021-08-12T12:26:04Z</time>
      </trkpt>
      <trkpt lat="45.51648" lon="6.73154">
        <ele>2053.7</ele>
        <time>2021-08-12T12:26:05Z</time>
      </trkpt>
      <trkpt lat="45.51648" lon="6.73155">
        <ele>2053.6</ele>
        <time>2021-08-12T12:26:06Z</time>
      </trkpt>
      <trkpt lat="45.51649" lon="6.73155">
        <ele>2053.6</ele>
        <time>2021-08-12T12:26:07Z</time>
      </trkpt>
      <trkpt lat="45.5165" lon="6.73156">
        <ele>2053.5</ele>
        <time>2021-08-12T12:26:08Z</time>
      </trkpt>
      <trkpt lat="45.5165" lon="6.73157">
        <ele>2053.4</ele>
        <time>2021-08-12T12:26:09Z</time>
      </trkpt>
      <trkpt lat="45.51651" lon="6.73158">
        <ele>2053.3</ele>
        <time>2021-08-12T12:26:10Z</time>
      </trkpt>
      <trkpt lat="45.51652" lon="6.73159">
        <ele>2053.2</ele>
        <time>2021-08-12T12:26:11Z</time>
      </trkpt>
      <trkpt lat="45.51652" lon="6.73159">
        <ele>2053.2</ele>
        <time>2021-08-12T12:26:12Z</time>
      </trkpt>
      <trkpt lat="45.51653" lon="6.7316">
        <ele>2053.1</ele>
        <time>2021-08-12T12:26:13Z</time>
      </trkpt>
      <trkpt lat="45.51653" lon="6.73161">
        <ele>2053</ele>
        <time>2021-08-12T12:26:14Z</time>
      </trkpt>
      <trkpt lat="45.51654" lon="6.73162">
        <ele>2052.9</ele>
        <time>2021-08-12T12:26:15Z</time>
      </trkpt>
      <trkpt lat="45.51655" lon="6.73163">
        <ele>2052.9</ele>
        <time>2021-08-12T12:26:16Z</time>
      </trkpt>
      <trkpt lat="45.51655" lon="6.73164">
        <ele>2052.8</ele>
        <time>2021-08-12T12:26:17Z</time>
      </trkpt>
      <trkpt lat="45.51656" lon="6.73164">
        <ele>2052.7</ele>
        <time>2021-08-12T12:26:18Z</time>
      </trkpt>
      <trkpt lat="45.51657" lon="6.73165">
        <ele>2052.7</ele>
        <time>2021-08-12T12:26:19Z</time>
      </trkpt>
      <trkpt lat="45.51657" lon="6.73166">
        <ele>2052.6</ele>
        <time>2021-08-12T12:26:20Z</time>
      </trkpt>
      <trkpt lat="45.51658" lon="6.73166">
        <ele>2052.5</ele>
        <time>2021-08-12T12:26:21Z</time>
      </trkpt>
      <trkpt lat="45.51659" lon="6.73167">
        <ele>2052.5</ele>
        <time>2021-08-12T12:26:22Z</time>
      </trkpt>
      <trkpt lat="45.5166" lon="6.73167">
        <ele>2052.4</ele>
        <time>2021-08-12T12:26:23Z</time>
      </trkpt>
      <trkpt lat="45.5166" lon="6.73168">
        <ele>2052.4</ele>
        <time>2021-08-12T12:26:24Z</time>
      </trkpt>
      <trkpt lat="45.51661" lon="6.73168">
        <ele>2052.3</ele>
        <time>2021-08-12T12:26:25Z</time>
      </trkpt>
      <trkpt lat="45.51662" lon="6.73169">
        <ele>2052.2</ele>
        <time>2021-08-12T12:26:26Z</time>
      </trkpt>
      <trkpt lat="45.51662" lon="6.73169">
        <ele>2052.2</ele>
        <time>2021-08-12T12:26:27Z</time>
      </trkpt>
      <trkpt lat="45.51663" lon="6.7317">
        <ele>2052.1</ele>
        <time>2021-08-12T12:26:28Z</time>
      </trkpt>
      <trkpt lat="45.51664" lon="6.7317">
        <ele>2052.1</ele>
        <time>2021-08-12T12:26:29Z</time>
      </trkpt>
      <trkpt lat="45.51665" lon="6.73171">
        <ele>2052</ele>
        <time>2021-08-12T12:26:30Z</time>
      </trkpt>
      <trkpt lat="45.51666" lon="6.73171">
        <ele>2052</ele>
        <time>2021-08-12T12:26:31Z</time>
      </trkpt>
      <trkpt lat="45.51666" lon="6.73172">
        <ele>2051.9</ele>
        <time>2021-08-12T12:26:32Z</time>
      </trkpt>
      <trkpt lat="45.51667" lon="6.73172">
        <ele>2051.9</ele>
        <time>2021-08-12T12:26:33Z</time>
      </trkpt>
      <trkpt lat="45.51668" lon="6.73173">
        <ele>2051.9</ele>
        <time>2021-08-12T12:26:34Z</time>
      </trkpt>
      <trkpt lat="45.51669" lon="6.73173">
        <ele>2051.8</ele>
        <time>2021-08-12T12:26:35Z</time>
      </trkpt>
      <trkpt lat="45.51669" lon="6.73174">
        <ele>2051.8</ele>
        <time>2021-08-12T12:26:36Z</time>
      </trkpt>
      <trkpt lat="45.5167" lon="6.73175">
        <ele>2051.8</ele>
        <time>2021-08-12T12:26:37Z</time>
      </trkpt>
      <trkpt lat="45.51671" lon="6.73175">
        <ele>2051.7</ele>
        <time>2021-08-12T12:26:38Z</time>
      </trkpt>
      <trkpt lat="45.51671" lon="6.73176">
        <ele>2051.7</ele>
        <time>2021-08-12T12:26:39Z</time>
      </trkpt>
      <trkpt lat="45.51672" lon="6.73176">
        <ele>2051.7</ele>
        <time>2021-08-12T12:26:40Z</time>
      </trkpt>
      <trkpt lat="45.51672" lon="6.73177">
        <ele>2051.7</ele>
        <time>2021-08-12T12:26:41Z</time>
      </trkpt>
      <trkpt lat="45.51672" lon="6.73177">
        <ele>2051.7</ele>
        <time>2021-08-12T12:26:42Z</time>
      </trkpt>
      <trkpt lat="45.51673" lon="6.73177">
        <ele>2051.6</ele>
        <time>2021-08-12T12:26:43Z</time>
      </trkpt>
      <trkpt lat="45.51673" lon="6.73178">
        <ele>2051.6</ele>
        <time>2021-08-12T12:26:44Z</time>
      </trkpt>
      <trkpt lat="45.51673" lon="6.73178">
        <ele>2051.6</ele>
        <time>2021-08-12T12:26:45Z</time>
      </trkpt>
      <trkpt lat="45.51674" lon="6.73178">
        <ele>2051.6</ele>
        <time>2021-08-12T12:26:46Z</time>
      </trkpt>
      <trkpt lat="45.51674" lon="6.73179">
        <ele>2051.6</ele>
        <time>2021-08-12T12:26:47Z</time>
      </trkpt>
      <trkpt lat="45.51674" lon="6.73179">
        <ele>2051.6</ele>
        <time>2021-08-12T12:26:48Z</time>
      </trkpt>
      <trkpt lat="45.51674" lon="6.73179">
        <ele>2051.6</ele>
        <time>2021-08-12T12:26:49Z</time>
      </trkpt>
      <trkpt lat="45.51675" lon="6.73179">
        <ele>2051.6</ele>
        <time>2021-08-12T12:26:50Z</time>
      </trkpt>
      <trkpt lat="45.51675" lon="6.7318">
        <ele>2051.5</ele>
        <time>2021-08-12T12:26:51Z</time>
      </trkpt>
      <trkpt lat="45.51676" lon="6.7318">
        <ele>2051.5</ele>
        <time>2021-08-12T12:26:52Z</time>
      </trkpt>
      <trkpt lat="45.51676" lon="6.7318">
        <ele>2051.5</ele>
        <time>2021-08-12T12:26:53Z</time>
      </trkpt>
      <trkpt lat="45.51677" lon="6.73181">
        <ele>2051.5</ele>
        <time>2021-08-12T12:26:54Z</time>
      </trkpt>
      <trkpt lat="45.51678" lon="6.73181">
        <ele>2051.4</ele>
        <time>2021-08-12T12:26:55Z</time>
      </trkpt>
      <trkpt lat="45.51678" lon="6.73181">
        <ele>2051.4</ele>
        <time>2021-08-12T12:26:56Z</time>
      </trkpt>
      <trkpt lat="45.51679" lon="6.73181">
        <ele>2051.4</ele>
        <time>2021-08-12T12:26:57Z</time>
      </trkpt>
      <trkpt lat="45.5168" lon="6.73182">
        <ele>2051.4</ele>
        <time>2021-08-12T12:26:58Z</time>
      </trkpt>
      <trkpt lat="45.51681" lon="6.73182">
        <ele>2051.3</ele>
        <time>2021-08-12T12:26:59Z</time>
      </trkpt>
      <trkpt lat="45.51681" lon="6.73182">
        <ele>2051.3</ele>
        <time>2021-08-12T12:27:00Z</time>
      </trkpt>
      <trkpt lat="45.51682" lon="6.73182">
        <ele>2051.2</ele>
        <time>2021-08-12T12:27:01Z</time>
      </trkpt>
      <trkpt lat="45.51683" lon="6.73182">
        <ele>2051.2</ele>
        <time>2021-08-12T12:27:02Z</time>
      </trkpt>
      <trkpt lat="45.51684" lon="6.73183">
        <ele>2051.2</ele>
        <time>2021-08-12T12:27:03Z</time>
      </trkpt>
      <trkpt lat="45.51685" lon="6.73183">
        <ele>2051.1</ele>
        <time>2021-08-12T12:27:04Z</time>
      </trkpt>
      <trkpt lat="45.51686" lon="6.73183">
        <ele>2051.1</ele>
        <time>2021-08-12T12:27:05Z</time>
      </trkpt>
      <trkpt lat="45.51687" lon="6.73183">
        <ele>2051</ele>
        <time>2021-08-12T12:27:06Z</time>
      </trkpt>
      <trkpt lat="45.51687" lon="6.73183">
        <ele>2050.9</ele>
        <time>2021-08-12T12:27:07Z</time>
      </trkpt>
      <trkpt lat="45.51688" lon="6.73183">
        <ele>2050.9</ele>
        <time>2021-08-12T12:27:08Z</time>
      </trkpt>
      <trkpt lat="45.51689" lon="6.73183">
        <ele>2050.8</ele>
        <time>2021-08-12T12:27:09Z</time>
      </trkpt>
      <trkpt lat="45.5169" lon="6.73183">
        <ele>2050.7</ele>
        <time>2021-08-12T12:27:10Z</time>
      </trkpt>
      <trkpt lat="45.51691" lon="6.73183">
        <ele>2050.7</ele>
        <time>2021-08-12T12:27:11Z</time>
      </trkpt>
      <trkpt lat="45.51692" lon="6.73183">
        <ele>2050.6</ele>
        <time>2021-08-12T12:27:12Z</time>
      </trkpt>
      <trkpt lat="45.51693" lon="6.73183">
        <ele>2050.5</ele>
        <time>2021-08-12T12:27:13Z</time>
      </trkpt>
      <trkpt lat="45.51693" lon="6.73182">
        <ele>2050.5</ele>
        <time>2021-08-12T12:27:14Z</time>
      </trkpt>
      <trkpt lat="45.51694" lon="6.73182">
        <ele>2050.4</ele>
        <time>2021-08-12T12:27:15Z</time>
      </trkpt>
      <trkpt lat="45.51695" lon="6.73182">
        <ele>2050.3</ele>
        <time>2021-08-12T12:27:16Z</time>
      </trkpt>
      <trkpt lat="45.51696" lon="6.73182">
        <ele>2050.2</ele>
        <time>2021-08-12T12:27:17Z</time>
      </trkpt>
      <trkpt lat="45.51696" lon="6.73181">
        <ele>2050.2</ele>
        <time>2021-08-12T12:27:18Z</time>
      </trkpt>
      <trkpt lat="45.51697" lon="6.73181">
        <ele>2050.1</ele>
        <time>2021-08-12T12:27:19Z</time>
      </trkpt>
      <trkpt lat="45.51698" lon="6.73181">
        <ele>2050</ele>
        <time>2021-08-12T12:27:20Z</time>
      </trkpt>
      <trkpt lat="45.51699" lon="6.7318">
        <ele>2049.9</ele>
        <time>2021-08-12T12:27:21Z</time>
      </trkpt>
      <trkpt lat="45.517" lon="6.7318">
        <ele>2049.8</ele>
        <time>2021-08-12T12:27:22Z</time>
      </trkpt>
      <trkpt lat="45.517" lon="6.73179">
        <ele>2049.7</ele>
        <time>2021-08-12T12:27:23Z</time>
      </trkpt>
      <trkpt lat="45.51701" lon="6.73179">
        <ele>2049.7</ele>
        <time>2021-08-12T12:27:24Z</time>
      </trkpt>
      <trkpt lat="45.51702" lon="6.73178">
        <ele>2049.6</ele>
        <time>2021-08-12T12:27:25Z</time>
      </trkpt>
      <trkpt lat="45.51703" lon="6.73178">
        <ele>2049.5</ele>
        <time>2021-08-12T12:27:26Z</time>
      </trkpt>
      <trkpt lat="45.51703" lon="6.73177">
        <ele>2049.4</ele>
        <time>2021-08-12T12:27:27Z</time>
      </trkpt>
      <trkpt lat="45.51704" lon="6.73177">
        <ele>2049.3</ele>
        <time>2021-08-12T12:27:28Z</time>
      </trkpt>
      <trkpt lat="45.51705" lon="6.73176">
        <ele>2049.2</ele>
        <time>2021-08-12T12:27:29Z</time>
      </trkpt>
      <trkpt lat="45.51705" lon="6.73176">
        <ele>2049.1</ele>
        <time>2021-08-12T12:27:30Z</time>
      </trkpt>
      <trkpt lat="45.51706" lon="6.73175">
        <ele>2049</ele>
        <time>2021-08-12T12:27:31Z</time>
      </trkpt>
      <trkpt lat="45.51707" lon="6.73175">
        <ele>2048.9</ele>
        <time>2021-08-12T12:27:32Z</time>
      </trkpt>
      <trkpt lat="45.51708" lon="6.73174">
        <ele>2048.8</ele>
        <time>2021-08-12T12:27:33Z</time>
      </trkpt>
      <trkpt lat="45.51708" lon="6.73174">
        <ele>2048.7</ele>
        <time>2021-08-12T12:27:34Z</time>
      </trkpt>
      <trkpt lat="45.51709" lon="6.73173">
        <ele>2048.6</ele>
        <time>2021-08-12T12:27:35Z</time>
      </trkpt>
      <trkpt lat="45.5171" lon="6.73173">
        <ele>2048.5</ele>
        <time>2021-08-12T12:27:36Z</time>
      </trkpt>
      <trkpt lat="45.5171" lon="6.73172">
        <ele>2048.4</ele>
        <time>2021-08-12T12:27:37Z</time>
      </trkpt>
      <trkpt lat="45.51711" lon="6.73171">
        <ele>2048.3</ele>
        <time>2021-08-12T12:27:38Z</time>
      </trkpt>
      <trkpt lat="45.51712" lon="6.73171">
        <ele>2048.1</ele>
        <time>2021-08-12T12:27:39Z</time>
      </trkpt>
      <trkpt lat="45.51712" lon="6.7317">
        <ele>2048</ele>
        <time>2021-08-12T12:27:40Z</time>
      </trkpt>
      <trkpt lat="45.51713" lon="6.7317">
        <ele>2047.9</ele>
        <time>2021-08-12T12:27:41Z</time>
      </trkpt>
      <trkpt lat="45.51714" lon="6.73169">
        <ele>2047.8</ele>
        <time>2021-08-12T12:27:42Z</time>
      </trkpt>
      <trkpt lat="45.51714" lon="6.73169">
        <ele>2047.7</ele>
        <time>2021-08-12T12:27:43Z</time>
      </trkpt>
      <trkpt lat="45.51715" lon="6.73168">
        <ele>2047.6</ele>
        <time>2021-08-12T12:27:44Z</time>
      </trkpt>
      <trkpt lat="45.51716" lon="6.73167">
        <ele>2047.4</ele>
        <time>2021-08-12T12:27:45Z</time>
      </trkpt>
      <trkpt lat="45.51716" lon="6.73167">
        <ele>2047.3</ele>
        <time>2021-08-12T12:27:46Z</time>
      </trkpt>
      <trkpt lat="45.51717" lon="6.73166">
        <ele>2047.2</ele>
        <time>2021-08-12T12:27:47Z</time>
      </trkpt>
      <trkpt lat="45.51717" lon="6.73166">
        <ele>2047.1</ele>
        <time>2021-08-12T12:27:48Z</time>
      </trkpt>
      <trkpt lat="45.51718" lon="6.73165">
        <ele>2047</ele>
        <time>2021-08-12T12:27:49Z</time>
      </trkpt>
      <trkpt lat="45.51719" lon="6.73165">
        <ele>2046.9</ele>
        <time>2021-08-12T12:27:50Z</time>
      </trkpt>
      <trkpt lat="45.51719" lon="6.73164">
        <ele>2046.7</ele>
        <time>2021-08-12T12:27:51Z</time>
      </trkpt>
      <trkpt lat="45.5172" lon="6.73164">
        <ele>2046.6</ele>
        <time>2021-08-12T12:27:52Z</time>
      </trkpt>
      <trkpt lat="45.5172" lon="6.73163">
        <ele>2046.5</ele>
        <time>2021-08-12T12:27:53Z</time>
      </trkpt>
      <trkpt lat="45.51721" lon="6.73163">
        <ele>2046.4</ele>
        <time>2021-08-12T12:27:54Z</time>
      </trkpt>
      <trkpt lat="45.51721" lon="6.73162">
        <ele>2046.3</ele>
        <time>2021-08-12T12:27:55Z</time>
      </trkpt>
      <trkpt lat="45.51722" lon="6.73162">
        <ele>2046.2</ele>
        <time>2021-08-12T12:27:56Z</time>
      </trkpt>
      <trkpt lat="45.51723" lon="6.73161">
        <ele>2046.1</ele>
        <time>2021-08-12T12:27:57Z</time>
      </trkpt>
      <trkpt lat="45.51723" lon="6.73161">
        <ele>2045.9</ele>
        <time>2021-08-12T12:27:58Z</time>
      </trkpt>
      <trkpt lat="45.51724" lon="6.73161">
        <ele>2045.8</ele>
        <time>2021-08-12T12:27:59Z</time>
      </trkpt>
      <trkpt lat="45.51724" lon="6.7316">
        <ele>2045.7</ele>
        <time>2021-08-12T12:28:00Z</time>
      </trkpt>
      <trkpt lat="45.51725" lon="6.7316">
        <ele>2045.6</ele>
        <time>2021-08-12T12:28:01Z</time>
      </trkpt>
      <trkpt lat="45.51725" lon="6.7316">
        <ele>2045.5</ele>
        <time>2021-08-12T12:28:02Z</time>
      </trkpt>
      <trkpt lat="45.51726" lon="6.7316">
        <ele>2045.4</ele>
        <time>2021-08-12T12:28:03Z</time>
      </trkpt>
      <trkpt lat="45.51727" lon="6.7316">
        <ele>2045.2</ele>
        <time>2021-08-12T12:28:04Z</time>
      </trkpt>
      <trkpt lat="45.51727" lon="6.73159">
        <ele>2045.1</ele>
        <time>2021-08-12T12:28:05Z</time>
      </trkpt>
      <trkpt lat="45.51728" lon="6.73159">
        <ele>2045</ele>
        <time>2021-08-12T12:28:06Z</time>
      </trkpt>
      <trkpt lat="45.51728" lon="6.73159">
        <ele>2044.9</ele>
        <time>2021-08-12T12:28:07Z</time>
      </trkpt>
      <trkpt lat="45.51729" lon="6.73159">
        <ele>2044.8</ele>
        <time>2021-08-12T12:28:08Z</time>
      </trkpt>
      <trkpt lat="45.5173" lon="6.73159">
        <ele>2044.6</ele>
        <time>2021-08-12T12:28:09Z</time>
      </trkpt>
      <trkpt lat="45.5173" lon="6.73159">
        <ele>2044.5</ele>
        <time>2021-08-12T12:28:10Z</time>
      </trkpt>
      <trkpt lat="45.51731" lon="6.73159">
        <ele>2044.4</ele>
        <time>2021-08-12T12:28:11Z</time>
      </trkpt>
      <trkpt lat="45.51732" lon="6.73159">
        <ele>2044.2</ele>
        <time>2021-08-12T12:28:12Z</time>
      </trkpt>
      <trkpt lat="45.51733" lon="6.73159">
        <ele>2044.1</ele>
        <time>2021-08-12T12:28:13Z</time>
      </trkpt>
      <trkpt lat="45.51733" lon="6.73159">
        <ele>2043.9</ele>
        <time>2021-08-12T12:28:14Z</time>
      </trkpt>
      <trkpt lat="45.51734" lon="6.73159">
        <ele>2043.7</ele>
        <time>2021-08-12T12:28:15Z</time>
      </trkpt>
      <trkpt lat="45.51735" lon="6.73159">
        <ele>2043.6</ele>
        <time>2021-08-12T12:28:16Z</time>
      </trkpt>
      <trkpt lat="45.51736" lon="6.73159">
        <ele>2043.4</ele>
        <time>2021-08-12T12:28:17Z</time>
      </trkpt>
      <trkpt lat="45.51737" lon="6.73159">
        <ele>2043.3</ele>
        <time>2021-08-12T12:28:18Z</time>
      </trkpt>
      <trkpt lat="45.51738" lon="6.73159">
        <ele>2043.1</ele>
        <time>2021-08-12T12:28:19Z</time>
      </trkpt>
      <trkpt lat="45.51738" lon="6.73159">
        <ele>2043</ele>
        <time>2021-08-12T12:28:20Z</time>
      </trkpt>
      <trkpt lat="45.51739" lon="6.73159">
        <ele>2042.9</ele>
        <time>2021-08-12T12:28:21Z</time>
      </trkpt>
      <trkpt lat="45.51739" lon="6.73159">
        <ele>2042.9</ele>
        <time>2021-08-12T12:28:22Z</time>
      </trkpt>
      <trkpt lat="45.5174" lon="6.73159">
        <ele>2042.8</ele>
        <time>2021-08-12T12:28:23Z</time>
      </trkpt>
      <trkpt lat="45.5174" lon="6.73159">
        <ele>2042.8</ele>
        <time>2021-08-12T12:28:24Z</time>
      </trkpt>
      <trkpt lat="45.5174" lon="6.73159">
        <ele>2042.7</ele>
        <time>2021-08-12T12:28:25Z</time>
      </trkpt>
      <trkpt lat="45.5174" lon="6.73159">
        <ele>2042.7</ele>
        <time>2021-08-12T12:28:26Z</time>
      </trkpt>
      <trkpt lat="45.51741" lon="6.73159">
        <ele>2042.7</ele>
        <time>2021-08-12T12:28:27Z</time>
      </trkpt>
      <trkpt lat="45.51741" lon="6.73159">
        <ele>2042.7</ele>
        <time>2021-08-12T12:28:28Z</time>
      </trkpt>
      <trkpt lat="45.51741" lon="6.73159">
        <ele>2042.7</ele>
        <time>2021-08-12T12:28:29Z</time>
      </trkpt>
      <trkpt lat="45.51741" lon="6.73159">
        <ele>2042.6</ele>
        <time>2021-08-12T12:28:30Z</time>
      </trkpt>
      <trkpt lat="45.51741" lon="6.73159">
        <ele>2042.6</ele>
        <time>2021-08-12T12:28:31Z</time>
      </trkpt>
      <trkpt lat="45.51742" lon="6.73159">
        <ele>2042.5</ele>
        <time>2021-08-12T12:28:32Z</time>
      </trkpt>
      <trkpt lat="45.51742" lon="6.73159">
        <ele>2042.5</ele>
        <time>2021-08-12T12:28:33Z</time>
      </trkpt>
      <trkpt lat="45.51742" lon="6.73158">
        <ele>2042.5</ele>
        <time>2021-08-12T12:28:34Z</time>
      </trkpt>
      <trkpt lat="45.51743" lon="6.73158">
        <ele>2042.4</ele>
        <time>2021-08-12T12:28:35Z</time>
      </trkpt>
      <trkpt lat="45.51743" lon="6.73158">
        <ele>2042.4</ele>
        <time>2021-08-12T12:28:36Z</time>
      </trkpt>
      <trkpt lat="45.51743" lon="6.73158">
        <ele>2042.3</ele>
        <time>2021-08-12T12:28:37Z</time>
      </trkpt>
      <trkpt lat="45.51744" lon="6.73158">
        <ele>2042.3</ele>
        <time>2021-08-12T12:28:38Z</time>
      </trkpt>
      <trkpt lat="45.51744" lon="6.73158">
        <ele>2042.2</ele>
        <time>2021-08-12T12:28:39Z</time>
      </trkpt>
      <trkpt lat="45.51745" lon="6.73158">
        <ele>2042.2</ele>
        <time>2021-08-12T12:28:40Z</time>
      </trkpt>
      <trkpt lat="45.51745" lon="6.73157">
        <ele>2042.1</ele>
        <time>2021-08-12T12:28:41Z</time>
      </trkpt>
      <trkpt lat="45.51746" lon="6.73157">
        <ele>2042.1</ele>
        <time>2021-08-12T12:28:42Z</time>
      </trkpt>
      <trkpt lat="45.51746" lon="6.73157">
        <ele>2042</ele>
        <time>2021-08-12T12:28:43Z</time>
      </trkpt>
      <trkpt lat="45.51747" lon="6.73157">
        <ele>2042</ele>
        <time>2021-08-12T12:28:44Z</time>
      </trkpt>
      <trkpt lat="45.51747" lon="6.73157">
        <ele>2041.9</ele>
        <time>2021-08-12T12:28:45Z</time>
      </trkpt>
      <trkpt lat="45.51748" lon="6.73157">
        <ele>2041.9</ele>
        <time>2021-08-12T12:28:46Z</time>
      </trkpt>
      <trkpt lat="45.51748" lon="6.73156">
        <ele>2041.8</ele>
        <time>2021-08-12T12:28:47Z</time>
      </trkpt>
      <trkpt lat="45.51749" lon="6.73156">
        <ele>2041.8</ele>
        <time>2021-08-12T12:28:48Z</time>
      </trkpt>
      <trkpt lat="45.5175" lon="6.73156">
        <ele>2041.7</ele>
        <time>2021-08-12T12:28:49Z</time>
      </trkpt>
      <trkpt lat="45.5175" lon="6.73156">
        <ele>2041.7</ele>
        <time>2021-08-12T12:28:50Z</time>
      </trkpt>
      <trkpt lat="45.51751" lon="6.73156">
        <ele>2041.6</ele>
        <time>2021-08-12T12:28:51Z</time>
      </trkpt>
      <trkpt lat="45.51752" lon="6.73156">
        <ele>2041.6</ele>
        <time>2021-08-12T12:28:52Z</time>
      </trkpt>
      <trkpt lat="45.51753" lon="6.73156">
        <ele>2041.6</ele>
        <time>2021-08-12T12:28:53Z</time>
      </trkpt>
      <trkpt lat="45.51753" lon="6.73155">
        <ele>2041.5</ele>
        <time>2021-08-12T12:28:54Z</time>
      </trkpt>
      <trkpt lat="45.51754" lon="6.73155">
        <ele>2041.5</ele>
        <time>2021-08-12T12:28:55Z</time>
      </trkpt>
      <trkpt lat="45.51755" lon="6.73155">
        <ele>2041.4</ele>
        <time>2021-08-12T12:28:56Z</time>
      </trkpt>
      <trkpt lat="45.51756" lon="6.73155">
        <ele>2041.4</ele>
        <time>2021-08-12T12:28:57Z</time>
      </trkpt>
      <trkpt lat="45.51757" lon="6.73155">
        <ele>2041.4</ele>
        <time>2021-08-12T12:28:58Z</time>
      </trkpt>
      <trkpt lat="45.51757" lon="6.73155">
        <ele>2041.4</ele>
        <time>2021-08-12T12:28:59Z</time>
      </trkpt>
      <trkpt lat="45.51758" lon="6.73155">
        <ele>2041.3</ele>
        <time>2021-08-12T12:29:00Z</time>
      </trkpt>
      <trkpt lat="45.51759" lon="6.73155">
        <ele>2041.3</ele>
        <time>2021-08-12T12:29:01Z</time>
      </trkpt>
      <trkpt lat="45.5176" lon="6.73155">
        <ele>2041.3</ele>
        <time>2021-08-12T12:29:02Z</time>
      </trkpt>
      <trkpt lat="45.51761" lon="6.73155">
        <ele>2041.3</ele>
        <time>2021-08-12T12:29:03Z</time>
      </trkpt>
      <trkpt lat="45.51761" lon="6.73155">
        <ele>2041.2</ele>
        <time>2021-08-12T12:29:04Z</time>
      </trkpt>
      <trkpt lat="45.51762" lon="6.73155">
        <ele>2041.2</ele>
        <time>2021-08-12T12:29:05Z</time>
      </trkpt>
      <trkpt lat="45.51763" lon="6.73154">
        <ele>2041.2</ele>
        <time>2021-08-12T12:29:06Z</time>
      </trkpt>
      <trkpt lat="45.51764" lon="6.73154">
        <ele>2041.2</ele>
        <time>2021-08-12T12:29:07Z</time>
      </trkpt>
      <trkpt lat="45.51765" lon="6.73154">
        <ele>2041.2</ele>
        <time>2021-08-12T12:29:08Z</time>
      </trkpt>
      <trkpt lat="45.51766" lon="6.73154">
        <ele>2041.2</ele>
        <time>2021-08-12T12:29:09Z</time>
      </trkpt>
      <trkpt lat="45.51766" lon="6.73155">
        <ele>2041.2</ele>
        <time>2021-08-12T12:29:10Z</time>
      </trkpt>
      <trkpt lat="45.51767" lon="6.73155">
        <ele>2041.2</ele>
        <time>2021-08-12T12:29:11Z</time>
      </trkpt>
      <trkpt lat="45.51768" lon="6.73155">
        <ele>2041.2</ele>
        <time>2021-08-12T12:29:12Z</time>
      </trkpt>
      <trkpt lat="45.51769" lon="6.73155">
        <ele>2041.2</ele>
        <time>2021-08-12T12:29:13Z</time>
      </trkpt>
      <trkpt lat="45.51769" lon="6.73155">
        <ele>2041.2</ele>
        <time>2021-08-12T12:29:14Z</time>
      </trkpt>
      <trkpt lat="45.5177" lon="6.73155">
        <ele>2041.2</ele>
        <time>2021-08-12T12:29:15Z</time>
      </trkpt>
      <trkpt lat="45.51771" lon="6.73155">
        <ele>2041.2</ele>
        <time>2021-08-12T12:29:16Z</time>
      </trkpt>
      <trkpt lat="45.51772" lon="6.73155">
        <ele>2041.2</ele>
        <time>2021-08-12T12:29:17Z</time>
      </trkpt>
      <trkpt lat="45.51773" lon="6.73155">
        <ele>2041.2</ele>
        <time>2021-08-12T12:29:18Z</time>
      </trkpt>
      <trkpt lat="45.51773" lon="6.73155">
        <ele>2041.2</ele>
        <time>2021-08-12T12:29:19Z</time>
      </trkpt>
      <trkpt lat="45.51774" lon="6.73155">
        <ele>2041.3</ele>
        <time>2021-08-12T12:29:20Z</time>
      </trkpt>
      <trkpt lat="45.51775" lon="6.73155">
        <ele>2041.3</ele>
        <time>2021-08-12T12:29:21Z</time>
      </trkpt>
      <trkpt lat="45.51776" lon="6.73155">
        <ele>2041.3</ele>
        <time>2021-08-12T12:29:22Z</time>
      </trkpt>
      <trkpt lat="45.51777" lon="6.73155">
        <ele>2041.4</ele>
        <time>2021-08-12T12:29:23Z</time>
      </trkpt>
      <trkpt lat="45.51777" lon="6.73155">
        <ele>2041.4</ele>
        <time>2021-08-12T12:29:24Z</time>
      </trkpt>
      <trkpt lat="45.51778" lon="6.73155">
        <ele>2041.4</ele>
        <time>2021-08-12T12:29:25Z</time>
      </trkpt>
      <trkpt lat="45.51779" lon="6.73155">
        <ele>2041.5</ele>
        <time>2021-08-12T12:29:26Z</time>
      </trkpt>
      <trkpt lat="45.5178" lon="6.73155">
        <ele>2041.5</ele>
        <time>2021-08-12T12:29:27Z</time>
      </trkpt>
      <trkpt lat="45.51781" lon="6.73156">
        <ele>2041.5</ele>
        <time>2021-08-12T12:29:28Z</time>
      </trkpt>
      <trkpt lat="45.51781" lon="6.73156">
        <ele>2041.6</ele>
        <time>2021-08-12T12:29:29Z</time>
      </trkpt>
      <trkpt lat="45.51782" lon="6.73156">
        <ele>2041.6</ele>
        <time>2021-08-12T12:29:30Z</time>
      </trkpt>
      <trkpt lat="45.51783" lon="6.73156">
        <ele>2041.7</ele>
        <time>2021-08-12T12:29:31Z</time>
      </trkpt>
      <trkpt lat="45.51784" lon="6.73156">
        <ele>2041.7</ele>
        <time>2021-08-12T12:29:32Z</time>
      </trkpt>
      <trkpt lat="45.51785" lon="6.73156">
        <ele>2041.8</ele>
        <time>2021-08-12T12:29:33Z</time>
      </trkpt>
      <trkpt lat="45.51786" lon="6.73156">
        <ele>2041.8</ele>
        <time>2021-08-12T12:29:34Z</time>
      </trkpt>
      <trkpt lat="45.51786" lon="6.73156">
        <ele>2041.8</ele>
        <time>2021-08-12T12:29:35Z</time>
      </trkpt>
      <trkpt lat="45.51787" lon="6.73156">
        <ele>2041.9</ele>
        <time>2021-08-12T12:29:36Z</time>
      </trkpt>
      <trkpt lat="45.51788" lon="6.73156">
        <ele>2041.9</ele>
        <time>2021-08-12T12:29:37Z</time>
      </trkpt>
      <trkpt lat="45.51789" lon="6.73156">
        <ele>2042</ele>
        <time>2021-08-12T12:29:38Z</time>
      </trkpt>
      <trkpt lat="45.51789" lon="6.73156">
        <ele>2042</ele>
        <time>2021-08-12T12:29:39Z</time>
      </trkpt>
      <trkpt lat="45.5179" lon="6.73156">
        <ele>2042</ele>
        <time>2021-08-12T12:29:40Z</time>
      </trkpt>
      <trkpt lat="45.51791" lon="6.73156">
        <ele>2042.1</ele>
        <time>2021-08-12T12:29:41Z</time>
      </trkpt>
      <trkpt lat="45.51791" lon="6.73156">
        <ele>2042.1</ele>
        <time>2021-08-12T12:29:42Z</time>
      </trkpt>
      <trkpt lat="45.51792" lon="6.73156">
        <ele>2042.1</ele>
        <time>2021-08-12T12:29:43Z</time>
      </trkpt>
      <trkpt lat="45.51793" lon="6.73156">
        <ele>2042.2</ele>
        <time>2021-08-12T12:29:44Z</time>
      </trkpt>
      <trkpt lat="45.51793" lon="6.73156">
        <ele>2042.2</ele>
        <time>2021-08-12T12:29:45Z</time>
      </trkpt>
      <trkpt lat="45.51794" lon="6.73156">
        <ele>2042.2</ele>
        <time>2021-08-12T12:29:46Z</time>
      </trkpt>
      <trkpt lat="45.51794" lon="6.73156">
        <ele>2042.2</ele>
        <time>2021-08-12T12:29:47Z</time>
      </trkpt>
      <trkpt lat="45.51794" lon="6.73156">
        <ele>2042.3</ele>
        <time>2021-08-12T12:29:48Z</time>
      </trkpt>
      <trkpt lat="45.51795" lon="6.73156">
        <ele>2042.3</ele>
        <time>2021-08-12T12:29:49Z</time>
      </trkpt>
      <trkpt lat="45.51795" lon="6.73156">
        <ele>2042.3</ele>
        <time>2021-08-12T12:29:50Z</time>
      </trkpt>
      <trkpt lat="45.51796" lon="6.73156">
        <ele>2042.3</ele>
        <time>2021-08-12T12:29:51Z</time>
      </trkpt>
      <trkpt lat="45.51796" lon="6.73155">
        <ele>2042.3</ele>
        <time>2021-08-12T12:29:52Z</time>
      </trkpt>
      <trkpt lat="45.51796" lon="6.73155">
        <ele>2042.3</ele>
        <time>2021-08-12T12:29:53Z</time>
      </trkpt>
      <trkpt lat="45.51797" lon="6.73155">
        <ele>2042.4</ele>
        <time>2021-08-12T12:29:54Z</time>
      </trkpt>
      <trkpt lat="45.51797" lon="6.73155">
        <ele>2042.4</ele>
        <time>2021-08-12T12:29:55Z</time>
      </trkpt>
      <trkpt lat="45.51797" lon="6.73155">
        <ele>2042.4</ele>
        <time>2021-08-12T12:29:56Z</time>
      </trkpt>
      <trkpt lat="45.51798" lon="6.73155">
        <ele>2042.4</ele>
        <time>2021-08-12T12:29:57Z</time>
      </trkpt>
      <trkpt lat="45.51798" lon="6.73155">
        <ele>2042.4</ele>
        <time>2021-08-12T12:29:58Z</time>
      </trkpt>
      <trkpt lat="45.51798" lon="6.73155">
        <ele>2042.4</ele>
        <time>2021-08-12T12:29:59Z</time>
      </trkpt>
      <trkpt lat="45.51799" lon="6.73155">
        <ele>2042.4</ele>
        <time>2021-08-12T12:30:00Z</time>
      </trkpt>
      <trkpt lat="45.51799" lon="6.73155">
        <ele>2042.4</ele>
        <time>2021-08-12T12:30:01Z</time>
      </trkpt>
      <trkpt lat="45.518" lon="6.73155">
        <ele>2042.5</ele>
        <time>2021-08-12T12:30:02Z</time>
      </trkpt>
      <trkpt lat="45.518" lon="6.73155">
        <ele>2042.5</ele>
        <time>2021-08-12T12:30:03Z</time>
      </trkpt>
      <trkpt lat="45.518" lon="6.73155">
        <ele>2042.5</ele>
        <time>2021-08-12T12:30:04Z</time>
      </trkpt>
      <trkpt lat="45.51801" lon="6.73155">
        <ele>2042.5</ele>
        <time>2021-08-12T12:30:05Z</time>
      </trkpt>
      <trkpt lat="45.51802" lon="6.73155">
        <ele>2042.5</ele>
        <time>2021-08-12T12:30:06Z</time>
      </trkpt>
      <trkpt lat="45.51802" lon="6.73155">
        <ele>2042.5</ele>
        <time>2021-08-12T12:30:07Z</time>
      </trkpt>
      <trkpt lat="45.51803" lon="6.73156">
        <ele>2042.5</ele>
        <time>2021-08-12T12:30:08Z</time>
      </trkpt>
      <trkpt lat="45.51803" lon="6.73156">
        <ele>2042.5</ele>
        <time>2021-08-12T12:30:09Z</time>
      </trkpt>
      <trkpt lat="45.51804" lon="6.73156">
        <ele>2042.5</ele>
        <time>2021-08-12T12:30:10Z</time>
      </trkpt>
      <trkpt lat="45.51804" lon="6.73156">
        <ele>2042.5</ele>
        <time>2021-08-12T12:30:11Z</time>
      </trkpt>
      <trkpt lat="45.51805" lon="6.73156">
        <ele>2042.5</ele>
        <time>2021-08-12T12:30:12Z</time>
      </trkpt>
      <trkpt lat="45.51805" lon="6.73156">
        <ele>2042.5</ele>
        <time>2021-08-12T12:30:13Z</time>
      </trkpt>
      <trkpt lat="45.51806" lon="6.73156">
        <ele>2042.5</ele>
        <time>2021-08-12T12:30:14Z</time>
      </trkpt>
      <trkpt lat="45.51806" lon="6.73156">
        <ele>2042.5</ele>
        <time>2021-08-12T12:30:15Z</time>
      </trkpt>
      <trkpt lat="45.51807" lon="6.73156">
        <ele>2042.5</ele>
        <time>2021-08-12T12:30:16Z</time>
      </trkpt>
      <trkpt lat="45.51807" lon="6.73155">
        <ele>2042.4</ele>
        <time>2021-08-12T12:30:17Z</time>
      </trkpt>
      <trkpt lat="45.51807" lon="6.73155">
        <ele>2042.4</ele>
        <time>2021-08-12T12:30:18Z</time>
      </trkpt>
      <trkpt lat="45.51808" lon="6.73155">
        <ele>2042.4</ele>
        <time>2021-08-12T12:30:19Z</time>
      </trkpt>
      <trkpt lat="45.51808" lon="6.73155">
        <ele>2042.4</ele>
        <time>2021-08-12T12:30:20Z</time>
      </trkpt>
      <trkpt lat="45.51809" lon="6.73155">
        <ele>2042.4</ele>
        <time>2021-08-12T12:30:21Z</time>
      </trkpt>
      <trkpt lat="45.51809" lon="6.73154">
        <ele>2042.4</ele>
        <time>2021-08-12T12:30:22Z</time>
      </trkpt>
      <trkpt lat="45.5181" lon="6.73154">
        <ele>2042.3</ele>
        <time>2021-08-12T12:30:23Z</time>
      </trkpt>
      <trkpt lat="45.5181" lon="6.73153">
        <ele>2042.3</ele>
        <time>2021-08-12T12:30:24Z</time>
      </trkpt>
      <trkpt lat="45.51811" lon="6.73153">
        <ele>2042.3</ele>
        <time>2021-08-12T12:30:25Z</time>
      </trkpt>
      <trkpt lat="45.51811" lon="6.73152">
        <ele>2042.2</ele>
        <time>2021-08-12T12:30:26Z</time>
      </trkpt>
      <trkpt lat="45.51812" lon="6.73152">
        <ele>2042.2</ele>
        <time>2021-08-12T12:30:27Z</time>
      </trkpt>
      <trkpt lat="45.51813" lon="6.73151">
        <ele>2042.1</ele>
        <time>2021-08-12T12:30:28Z</time>
      </trkpt>
      <trkpt lat="45.51814" lon="6.7315">
        <ele>2042.1</ele>
        <time>2021-08-12T12:30:29Z</time>
      </trkpt>
      <trkpt lat="45.51815" lon="6.7315">
        <ele>2042</ele>
        <time>2021-08-12T12:30:30Z</time>
      </trkpt>
      <trkpt lat="45.51816" lon="6.73149">
        <ele>2041.9</ele>
        <time>2021-08-12T12:30:31Z</time>
      </trkpt>
      <trkpt lat="45.51816" lon="6.73148">
        <ele>2041.9</ele>
        <time>2021-08-12T12:30:32Z</time>
      </trkpt>
      <trkpt lat="45.51817" lon="6.73148">
        <ele>2041.8</ele>
        <time>2021-08-12T12:30:33Z</time>
      </trkpt>
      <trkpt lat="45.51818" lon="6.73147">
        <ele>2041.7</ele>
        <time>2021-08-12T12:30:34Z</time>
      </trkpt>
      <trkpt lat="45.51819" lon="6.73147">
        <ele>2041.7</ele>
        <time>2021-08-12T12:30:35Z</time>
      </trkpt>
      <trkpt lat="45.51819" lon="6.73146">
        <ele>2041.6</ele>
        <time>2021-08-12T12:30:36Z</time>
      </trkpt>
      <trkpt lat="45.5182" lon="6.73145">
        <ele>2041.6</ele>
        <time>2021-08-12T12:30:37Z</time>
      </trkpt>
      <trkpt lat="45.5182" lon="6.73145">
        <ele>2041.5</ele>
        <time>2021-08-12T12:30:38Z</time>
      </trkpt>
      <trkpt lat="45.51821" lon="6.73145">
        <ele>2041.5</ele>
        <time>2021-08-12T12:30:39Z</time>
      </trkpt>
      <trkpt lat="45.51821" lon="6.73144">
        <ele>2041.4</ele>
        <time>2021-08-12T12:30:40Z</time>
      </trkpt>
      <trkpt lat="45.51822" lon="6.73144">
        <ele>2041.4</ele>
        <time>2021-08-12T12:30:41Z</time>
      </trkpt>
      <trkpt lat="45.51822" lon="6.73143">
        <ele>2041.3</ele>
        <time>2021-08-12T12:30:42Z</time>
      </trkpt>
      <trkpt lat="45.51823" lon="6.73143">
        <ele>2041.3</ele>
        <time>2021-08-12T12:30:43Z</time>
      </trkpt>
      <trkpt lat="45.51823" lon="6.73143">
        <ele>2041.3</ele>
        <time>2021-08-12T12:30:44Z</time>
      </trkpt>
      <trkpt lat="45.51823" lon="6.73143">
        <ele>2041.2</ele>
        <time>2021-08-12T12:30:45Z</time>
      </trkpt>
      <trkpt lat="45.51824" lon="6.73142">
        <ele>2041.2</ele>
        <time>2021-08-12T12:30:46Z</time>
      </trkpt>
      <trkpt lat="45.51825" lon="6.73142">
        <ele>2041.2</ele>
        <time>2021-08-12T12:30:47Z</time>
      </trkpt>
      <trkpt lat="45.51825" lon="6.73142">
        <ele>2041.1</ele>
        <time>2021-08-12T12:30:48Z</time>
      </trkpt>
      <trkpt lat="45.51826" lon="6.73142">
        <ele>2041.1</ele>
        <time>2021-08-12T12:30:49Z</time>
      </trkpt>
      <trkpt lat="45.51827" lon="6.73142">
        <ele>2041</ele>
        <time>2021-08-12T12:30:50Z</time>
      </trkpt>
      <trkpt lat="45.51827" lon="6.73142">
        <ele>2041</ele>
        <time>2021-08-12T12:30:51Z</time>
      </trkpt>
      <trkpt lat="45.51828" lon="6.73142">
        <ele>2040.9</ele>
        <time>2021-08-12T12:30:52Z</time>
      </trkpt>
      <trkpt lat="45.51829" lon="6.73142">
        <ele>2040.9</ele>
        <time>2021-08-12T12:30:53Z</time>
      </trkpt>
      <trkpt lat="45.5183" lon="6.73142">
        <ele>2040.9</ele>
        <time>2021-08-12T12:30:54Z</time>
      </trkpt>
      <trkpt lat="45.51831" lon="6.73142">
        <ele>2040.9</ele>
        <time>2021-08-12T12:30:55Z</time>
      </trkpt>
      <trkpt lat="45.51831" lon="6.73142">
        <ele>2040.8</ele>
        <time>2021-08-12T12:30:56Z</time>
      </trkpt>
      <trkpt lat="45.51832" lon="6.73142">
        <ele>2040.8</ele>
        <time>2021-08-12T12:30:57Z</time>
      </trkpt>
      <trkpt lat="45.51833" lon="6.73143">
        <ele>2040.8</ele>
        <time>2021-08-12T12:30:58Z</time>
      </trkpt>
      <trkpt lat="45.51833" lon="6.73143">
        <ele>2040.8</ele>
        <time>2021-08-12T12:30:59Z</time>
      </trkpt>
      <trkpt lat="45.51834" lon="6.73143">
        <ele>2040.8</ele>
        <time>2021-08-12T12:31:00Z</time>
      </trkpt>
      <trkpt lat="45.51835" lon="6.73144">
        <ele>2040.7</ele>
        <time>2021-08-12T12:31:01Z</time>
      </trkpt>
      <trkpt lat="45.51836" lon="6.73144">
        <ele>2040.7</ele>
        <time>2021-08-12T12:31:02Z</time>
      </trkpt>
      <trkpt lat="45.51837" lon="6.73145">
        <ele>2040.7</ele>
        <time>2021-08-12T12:31:03Z</time>
      </trkpt>
      <trkpt lat="45.51837" lon="6.73145">
        <ele>2040.7</ele>
        <time>2021-08-12T12:31:04Z</time>
      </trkpt>
      <trkpt lat="45.51838" lon="6.73145">
        <ele>2040.7</ele>
        <time>2021-08-12T12:31:05Z</time>
      </trkpt>
      <trkpt lat="45.51839" lon="6.73145">
        <ele>2040.7</ele>
        <time>2021-08-12T12:31:06Z</time>
      </trkpt>
      <trkpt lat="45.5184" lon="6.73146">
        <ele>2040.7</ele>
        <time>2021-08-12T12:31:07Z</time>
      </trkpt>
      <trkpt lat="45.51841" lon="6.73146">
        <ele>2040.7</ele>
        <time>2021-08-12T12:31:08Z</time>
      </trkpt>
      <trkpt lat="45.51842" lon="6.73146">
        <ele>2040.7</ele>
        <time>2021-08-12T12:31:09Z</time>
      </trkpt>
      <trkpt lat="45.51843" lon="6.73146">
        <ele>2040.7</ele>
        <time>2021-08-12T12:31:10Z</time>
      </trkpt>
      <trkpt lat="45.51844" lon="6.73146">
        <ele>2040.7</ele>
        <time>2021-08-12T12:31:11Z</time>
      </trkpt>
      <trkpt lat="45.51845" lon="6.73146">
        <ele>2040.7</ele>
        <time>2021-08-12T12:31:12Z</time>
      </trkpt>
      <trkpt lat="45.51846" lon="6.73146">
        <ele>2040.7</ele>
        <time>2021-08-12T12:31:13Z</time>
      </trkpt>
      <trkpt lat="45.51847" lon="6.73145">
        <ele>2040.7</ele>
        <time>2021-08-12T12:31:14Z</time>
      </trkpt>
      <trkpt lat="45.51848" lon="6.73145">
        <ele>2040.7</ele>
        <time>2021-08-12T12:31:15Z</time>
      </trkpt>
      <trkpt lat="45.51849" lon="6.73145">
        <ele>2040.7</ele>
        <time>2021-08-12T12:31:16Z</time>
      </trkpt>
      <trkpt lat="45.5185" lon="6.73144">
        <ele>2040.7</ele>
        <time>2021-08-12T12:31:17Z</time>
      </trkpt>
      <trkpt lat="45.51851" lon="6.73144">
        <ele>2040.7</ele>
        <time>2021-08-12T12:31:18Z</time>
      </trkpt>
      <trkpt lat="45.51852" lon="6.73143">
        <ele>2040.6</ele>
        <time>2021-08-12T12:31:19Z</time>
      </trkpt>
      <trkpt lat="45.51853" lon="6.73143">
        <ele>2040.6</ele>
        <time>2021-08-12T12:31:20Z</time>
      </trkpt>
      <trkpt lat="45.51854" lon="6.73142">
        <ele>2040.6</ele>
        <time>2021-08-12T12:31:21Z</time>
      </trkpt>
      <trkpt lat="45.51855" lon="6.73142">
        <ele>2040.6</ele>
        <time>2021-08-12T12:31:22Z</time>
      </trkpt>
      <trkpt lat="45.51856" lon="6.73142">
        <ele>2040.6</ele>
        <time>2021-08-12T12:31:23Z</time>
      </trkpt>
      <trkpt lat="45.51857" lon="6.73142">
        <ele>2040.5</ele>
        <time>2021-08-12T12:31:24Z</time>
      </trkpt>
      <trkpt lat="45.51858" lon="6.73142">
        <ele>2040.5</ele>
        <time>2021-08-12T12:31:25Z</time>
      </trkpt>
      <trkpt lat="45.51859" lon="6.73141">
        <ele>2040.5</ele>
        <time>2021-08-12T12:31:26Z</time>
      </trkpt>
      <trkpt lat="45.5186" lon="6.73141">
        <ele>2040.5</ele>
        <time>2021-08-12T12:31:27Z</time>
      </trkpt>
      <trkpt lat="45.5186" lon="6.73142">
        <ele>2040.4</ele>
        <time>2021-08-12T12:31:28Z</time>
      </trkpt>
      <trkpt lat="45.51861" lon="6.73142">
        <ele>2040.4</ele>
        <time>2021-08-12T12:31:29Z</time>
      </trkpt>
      <trkpt lat="45.51862" lon="6.73142">
        <ele>2040.4</ele>
        <time>2021-08-12T12:31:30Z</time>
      </trkpt>
      <trkpt lat="45.51863" lon="6.73142">
        <ele>2040.4</ele>
        <time>2021-08-12T12:31:31Z</time>
      </trkpt>
      <trkpt lat="45.51864" lon="6.73142">
        <ele>2040.4</ele>
        <time>2021-08-12T12:31:32Z</time>
      </trkpt>
      <trkpt lat="45.51865" lon="6.73142">
        <ele>2040.3</ele>
        <time>2021-08-12T12:31:33Z</time>
      </trkpt>
      <trkpt lat="45.51866" lon="6.73143">
        <ele>2040.3</ele>
        <time>2021-08-12T12:31:34Z</time>
      </trkpt>
      <trkpt lat="45.51867" lon="6.73143">
        <ele>2040.3</ele>
        <time>2021-08-12T12:31:35Z</time>
      </trkpt>
      <trkpt lat="45.51867" lon="6.73143">
        <ele>2040.3</ele>
        <time>2021-08-12T12:31:36Z</time>
      </trkpt>
      <trkpt lat="45.51868" lon="6.73143">
        <ele>2040.2</ele>
        <time>2021-08-12T12:31:37Z</time>
      </trkpt>
      <trkpt lat="45.51869" lon="6.73144">
        <ele>2040.2</ele>
        <time>2021-08-12T12:31:38Z</time>
      </trkpt>
      <trkpt lat="45.5187" lon="6.73144">
        <ele>2040.2</ele>
        <time>2021-08-12T12:31:39Z</time>
      </trkpt>
      <trkpt lat="45.51871" lon="6.73144">
        <ele>2040.2</ele>
        <time>2021-08-12T12:31:40Z</time>
      </trkpt>
      <trkpt lat="45.51872" lon="6.73144">
        <ele>2040.1</ele>
        <time>2021-08-12T12:31:41Z</time>
      </trkpt>
      <trkpt lat="45.51873" lon="6.73144">
        <ele>2040.1</ele>
        <time>2021-08-12T12:31:42Z</time>
      </trkpt>
      <trkpt lat="45.51873" lon="6.73145">
        <ele>2040.1</ele>
        <time>2021-08-12T12:31:43Z</time>
      </trkpt>
      <trkpt lat="45.51874" lon="6.73145">
        <ele>2040.1</ele>
        <time>2021-08-12T12:31:44Z</time>
      </trkpt>
      <trkpt lat="45.51875" lon="6.73145">
        <ele>2040.1</ele>
        <time>2021-08-12T12:31:45Z</time>
      </trkpt>
      <trkpt lat="45.51876" lon="6.73145">
        <ele>2040.1</ele>
        <time>2021-08-12T12:31:46Z</time>
      </trkpt>
      <trkpt lat="45.51877" lon="6.73145">
        <ele>2040.1</ele>
        <time>2021-08-12T12:31:47Z</time>
      </trkpt>
      <trkpt lat="45.51878" lon="6.73145">
        <ele>2040.1</ele>
        <time>2021-08-12T12:31:48Z</time>
      </trkpt>
      <trkpt lat="45.51879" lon="6.73145">
        <ele>2040.1</ele>
        <time>2021-08-12T12:31:49Z</time>
      </trkpt>
      <trkpt lat="45.5188" lon="6.73145">
        <ele>2040.1</ele>
        <time>2021-08-12T12:31:50Z</time>
      </trkpt>
      <trkpt lat="45.5188" lon="6.73145">
        <ele>2040.1</ele>
        <time>2021-08-12T12:31:51Z</time>
      </trkpt>
      <trkpt lat="45.51881" lon="6.73145">
        <ele>2040.1</ele>
        <time>2021-08-12T12:31:52Z</time>
      </trkpt>
      <trkpt lat="45.51882" lon="6.73144">
        <ele>2040.1</ele>
        <time>2021-08-12T12:31:53Z</time>
      </trkpt>
      <trkpt lat="45.51883" lon="6.73144">
        <ele>2040.1</ele>
        <time>2021-08-12T12:31:54Z</time>
      </trkpt>
      <trkpt lat="45.51884" lon="6.73144">
        <ele>2040.1</ele>
        <time>2021-08-12T12:31:55Z</time>
      </trkpt>
      <trkpt lat="45.51884" lon="6.73144">
        <ele>2040.2</ele>
        <time>2021-08-12T12:31:56Z</time>
      </trkpt>
      <trkpt lat="45.51885" lon="6.73144">
        <ele>2040.2</ele>
        <time>2021-08-12T12:31:57Z</time>
      </trkpt>
      <trkpt lat="45.51886" lon="6.73144">
        <ele>2040.2</ele>
        <time>2021-08-12T12:31:58Z</time>
      </trkpt>
      <trkpt lat="45.51886" lon="6.73144">
        <ele>2040.2</ele>
        <time>2021-08-12T12:31:59Z</time>
      </trkpt>
      <trkpt lat="45.51887" lon="6.73143">
        <ele>2040.3</ele>
        <time>2021-08-12T12:32:00Z</time>
      </trkpt>
      <trkpt lat="45.51888" lon="6.73143">
        <ele>2040.3</ele>
        <time>2021-08-12T12:32:01Z</time>
      </trkpt>
      <trkpt lat="45.51888" lon="6.73143">
        <ele>2040.3</ele>
        <time>2021-08-12T12:32:02Z</time>
      </trkpt>
      <trkpt lat="45.51889" lon="6.73143">
        <ele>2040.3</ele>
        <time>2021-08-12T12:32:03Z</time>
      </trkpt>
      <trkpt lat="45.51889" lon="6.73143">
        <ele>2040.4</ele>
        <time>2021-08-12T12:32:04Z</time>
      </trkpt>
      <trkpt lat="45.51889" lon="6.73143">
        <ele>2040.4</ele>
        <time>2021-08-12T12:32:05Z</time>
      </trkpt>
      <trkpt lat="45.5189" lon="6.73142">
        <ele>2040.4</ele>
        <time>2021-08-12T12:32:06Z</time>
      </trkpt>
      <trkpt lat="45.5189" lon="6.73142">
        <ele>2040.5</ele>
        <time>2021-08-12T12:32:07Z</time>
      </trkpt>
      <trkpt lat="45.51891" lon="6.73142">
        <ele>2040.5</ele>
        <time>2021-08-12T12:32:08Z</time>
      </trkpt>
      <trkpt lat="45.51891" lon="6.73142">
        <ele>2040.5</ele>
        <time>2021-08-12T12:32:09Z</time>
      </trkpt>
      <trkpt lat="45.51891" lon="6.73142">
        <ele>2040.6</ele>
        <time>2021-08-12T12:32:10Z</time>
      </trkpt>
      <trkpt lat="45.51892" lon="6.73142">
        <ele>2040.6</ele>
        <time>2021-08-12T12:32:11Z</time>
      </trkpt>
      <trkpt lat="45.51892" lon="6.73141">
        <ele>2040.6</ele>
        <time>2021-08-12T12:32:12Z</time>
      </trkpt>
      <trkpt lat="45.51892" lon="6.73141">
        <ele>2040.7</ele>
        <time>2021-08-12T12:32:13Z</time>
      </trkpt>
      <trkpt lat="45.51893" lon="6.73141">
        <ele>2040.7</ele>
        <time>2021-08-12T12:32:14Z</time>
      </trkpt>
      <trkpt lat="45.51893" lon="6.73141">
        <ele>2040.7</ele>
        <time>2021-08-12T12:32:15Z</time>
      </trkpt>
      <trkpt lat="45.51893" lon="6.7314">
        <ele>2040.8</ele>
        <time>2021-08-12T12:32:16Z</time>
      </trkpt>
      <trkpt lat="45.51894" lon="6.7314">
        <ele>2040.8</ele>
        <time>2021-08-12T12:32:17Z</time>
      </trkpt>
      <trkpt lat="45.51894" lon="6.7314">
        <ele>2040.9</ele>
        <time>2021-08-12T12:32:18Z</time>
      </trkpt>
      <trkpt lat="45.51895" lon="6.7314">
        <ele>2040.9</ele>
        <time>2021-08-12T12:32:19Z</time>
      </trkpt>
      <trkpt lat="45.51895" lon="6.73139">
        <ele>2041</ele>
        <time>2021-08-12T12:32:20Z</time>
      </trkpt>
      <trkpt lat="45.51895" lon="6.73139">
        <ele>2041</ele>
        <time>2021-08-12T12:32:21Z</time>
      </trkpt>
      <trkpt lat="45.51896" lon="6.73139">
        <ele>2041.1</ele>
        <time>2021-08-12T12:32:22Z</time>
      </trkpt>
      <trkpt lat="45.51896" lon="6.73139">
        <ele>2041.1</ele>
        <time>2021-08-12T12:32:23Z</time>
      </trkpt>
      <trkpt lat="45.51897" lon="6.73139">
        <ele>2041.2</ele>
        <time>2021-08-12T12:32:24Z</time>
      </trkpt>
      <trkpt lat="45.51897" lon="6.73139">
        <ele>2041.2</ele>
        <time>2021-08-12T12:32:25Z</time>
      </trkpt>
      <trkpt lat="45.51898" lon="6.73139">
        <ele>2041.3</ele>
        <time>2021-08-12T12:32:26Z</time>
      </trkpt>
      <trkpt lat="45.51898" lon="6.73139">
        <ele>2041.4</ele>
        <time>2021-08-12T12:32:27Z</time>
      </trkpt>
      <trkpt lat="45.51899" lon="6.73138">
        <ele>2041.4</ele>
        <time>2021-08-12T12:32:28Z</time>
      </trkpt>
      <trkpt lat="45.51899" lon="6.73138">
        <ele>2041.5</ele>
        <time>2021-08-12T12:32:29Z</time>
      </trkpt>
      <trkpt lat="45.519" lon="6.73138">
        <ele>2041.6</ele>
        <time>2021-08-12T12:32:30Z</time>
      </trkpt>
      <trkpt lat="45.519" lon="6.73138">
        <ele>2041.6</ele>
        <time>2021-08-12T12:32:31Z</time>
      </trkpt>
      <trkpt lat="45.51901" lon="6.73138">
        <ele>2041.7</ele>
        <time>2021-08-12T12:32:32Z</time>
      </trkpt>
      <trkpt lat="45.51901" lon="6.73138">
        <ele>2041.8</ele>
        <time>2021-08-12T12:32:33Z</time>
      </trkpt>
      <trkpt lat="45.51902" lon="6.73138">
        <ele>2041.8</ele>
        <time>2021-08-12T12:32:34Z</time>
      </trkpt>
      <trkpt lat="45.51903" lon="6.73138">
        <ele>2041.9</ele>
        <time>2021-08-12T12:32:35Z</time>
      </trkpt>
      <trkpt lat="45.51903" lon="6.73138">
        <ele>2042</ele>
        <time>2021-08-12T12:32:36Z</time>
      </trkpt>
      <trkpt lat="45.51904" lon="6.73138">
        <ele>2042.1</ele>
        <time>2021-08-12T12:32:37Z</time>
      </trkpt>
      <trkpt lat="45.51904" lon="6.73138">
        <ele>2042.1</ele>
        <time>2021-08-12T12:32:38Z</time>
      </trkpt>
      <trkpt lat="45.51905" lon="6.73139">
        <ele>2042.2</ele>
        <time>2021-08-12T12:32:39Z</time>
      </trkpt>
      <trkpt lat="45.51905" lon="6.73139">
        <ele>2042.2</ele>
        <time>2021-08-12T12:32:40Z</time>
      </trkpt>
      <trkpt lat="45.51905" lon="6.73139">
        <ele>2042.3</ele>
        <time>2021-08-12T12:32:41Z</time>
      </trkpt>
      <trkpt lat="45.51906" lon="6.73139">
        <ele>2042.3</ele>
        <time>2021-08-12T12:32:42Z</time>
      </trkpt>
      <trkpt lat="45.51906" lon="6.73139">
        <ele>2042.3</ele>
        <time>2021-08-12T12:32:43Z</time>
      </trkpt>
      <trkpt lat="45.51906" lon="6.73139">
        <ele>2042.3</ele>
        <time>2021-08-12T12:32:44Z</time>
      </trkpt>
      <trkpt lat="45.51906" lon="6.73139">
        <ele>2042.4</ele>
        <time>2021-08-12T12:32:45Z</time>
      </trkpt>
      <trkpt lat="45.51907" lon="6.73139">
        <ele>2042.4</ele>
        <time>2021-08-12T12:32:46Z</time>
      </trkpt>
      <trkpt lat="45.51907" lon="6.73139">
        <ele>2042.4</ele>
        <time>2021-08-12T12:32:47Z</time>
      </trkpt>
      <trkpt lat="45.51907" lon="6.73139">
        <ele>2042.4</ele>
        <time>2021-08-12T12:32:48Z</time>
      </trkpt>
      <trkpt lat="45.51907" lon="6.73139">
        <ele>2042.4</ele>
        <time>2021-08-12T12:32:49Z</time>
      </trkpt>
      <trkpt lat="45.51907" lon="6.73139">
        <ele>2042.4</ele>
        <time>2021-08-12T12:32:50Z</time>
      </trkpt>
      <trkpt lat="45.51907" lon="6.73139">
        <ele>2042.4</ele>
        <time>2021-08-12T12:32:51Z</time>
      </trkpt>
      <trkpt lat="45.51907" lon="6.73139">
        <ele>2042.4</ele>
        <time>2021-08-12T12:32:52Z</time>
      </trkpt>
      <trkpt lat="45.51907" lon="6.73139">
        <ele>2042.5</ele>
        <time>2021-08-12T12:32:53Z</time>
      </trkpt>
      <trkpt lat="45.51908" lon="6.73139">
        <ele>2042.5</ele>
        <time>2021-08-12T12:32:54Z</time>
      </trkpt>
      <trkpt lat="45.51908" lon="6.73139">
        <ele>2042.5</ele>
        <time>2021-08-12T12:32:55Z</time>
      </trkpt>
      <trkpt lat="45.51908" lon="6.73139">
        <ele>2042.5</ele>
        <time>2021-08-12T12:32:56Z</time>
      </trkpt>
      <trkpt lat="45.51908" lon="6.73139">
        <ele>2042.5</ele>
        <time>2021-08-12T12:32:57Z</time>
      </trkpt>
      <trkpt lat="45.51909" lon="6.73139">
        <ele>2042.6</ele>
        <time>2021-08-12T12:32:58Z</time>
      </trkpt>
      <trkpt lat="45.51909" lon="6.73139">
        <ele>2042.6</ele>
        <time>2021-08-12T12:32:59Z</time>
      </trkpt>
      <trkpt lat="45.51909" lon="6.73139">
        <ele>2042.6</ele>
        <time>2021-08-12T12:33:00Z</time>
      </trkpt>
      <trkpt lat="45.5191" lon="6.73139">
        <ele>2042.7</ele>
        <time>2021-08-12T12:33:01Z</time>
      </trkpt>
      <trkpt lat="45.5191" lon="6.73139">
        <ele>2042.7</ele>
        <time>2021-08-12T12:33:02Z</time>
      </trkpt>
      <trkpt lat="45.51911" lon="6.73139">
        <ele>2042.7</ele>
        <time>2021-08-12T12:33:03Z</time>
      </trkpt>
      <trkpt lat="45.51911" lon="6.73139">
        <ele>2042.7</ele>
        <time>2021-08-12T12:33:04Z</time>
      </trkpt>
      <trkpt lat="45.51912" lon="6.73139">
        <ele>2042.7</ele>
        <time>2021-08-12T12:33:05Z</time>
      </trkpt>
      <trkpt lat="45.51912" lon="6.73139">
        <ele>2042.7</ele>
        <time>2021-08-12T12:33:06Z</time>
      </trkpt>
      <trkpt lat="45.51913" lon="6.73139">
        <ele>2042.7</ele>
        <time>2021-08-12T12:33:07Z</time>
      </trkpt>
      <trkpt lat="45.51913" lon="6.73139">
        <ele>2042.7</ele>
        <time>2021-08-12T12:33:08Z</time>
      </trkpt>
      <trkpt lat="45.51913" lon="6.73139">
        <ele>2042.7</ele>
        <time>2021-08-12T12:33:09Z</time>
      </trkpt>
      <trkpt lat="45.51913" lon="6.73139">
        <ele>2042.7</ele>
        <time>2021-08-12T12:33:10Z</time>
      </trkpt>
      <trkpt lat="45.51913" lon="6.73138">
        <ele>2042.8</ele>
        <time>2021-08-12T12:33:11Z</time>
      </trkpt>
      <trkpt lat="45.51913" lon="6.73138">
        <ele>2042.8</ele>
        <time>2021-08-12T12:33:12Z</time>
      </trkpt>
      <trkpt lat="45.51914" lon="6.73137">
        <ele>2042.7</ele>
        <time>2021-08-12T12:33:13Z</time>
      </trkpt>
      <trkpt lat="45.51915" lon="6.73137">
        <ele>2042.7</ele>
        <time>2021-08-12T12:33:14Z</time>
      </trkpt>
      <trkpt lat="45.51916" lon="6.73136">
        <ele>2042.7</ele>
        <time>2021-08-12T12:33:15Z</time>
      </trkpt>
      <trkpt lat="45.51917" lon="6.73136">
        <ele>2042.7</ele>
        <time>2021-08-12T12:33:16Z</time>
      </trkpt>
      <trkpt lat="45.51917" lon="6.73136">
        <ele>2042.6</ele>
        <time>2021-08-12T12:33:17Z</time>
      </trkpt>
      <trkpt lat="45.51918" lon="6.73136">
        <ele>2042.6</ele>
        <time>2021-08-12T12:33:18Z</time>
      </trkpt>
      <trkpt lat="45.51919" lon="6.73136">
        <ele>2042.5</ele>
        <time>2021-08-12T12:33:19Z</time>
      </trkpt>
      <trkpt lat="45.51919" lon="6.73136">
        <ele>2042.5</ele>
        <time>2021-08-12T12:33:20Z</time>
      </trkpt>
      <trkpt lat="45.5192" lon="6.73136">
        <ele>2042.4</ele>
        <time>2021-08-12T12:33:21Z</time>
      </trkpt>
      <trkpt lat="45.51921" lon="6.73136">
        <ele>2042.3</ele>
        <time>2021-08-12T12:33:22Z</time>
      </trkpt>
      <trkpt lat="45.51922" lon="6.73136">
        <ele>2042.2</ele>
        <time>2021-08-12T12:33:23Z</time>
      </trkpt>
      <trkpt lat="45.51923" lon="6.73135">
        <ele>2042.1</ele>
        <time>2021-08-12T12:33:24Z</time>
      </trkpt>
      <trkpt lat="45.51924" lon="6.73135">
        <ele>2041.9</ele>
        <time>2021-08-12T12:33:25Z</time>
      </trkpt>
      <trkpt lat="45.51925" lon="6.73135">
        <ele>2041.8</ele>
        <time>2021-08-12T12:33:26Z</time>
      </trkpt>
      <trkpt lat="45.51925" lon="6.73134">
        <ele>2041.7</ele>
        <time>2021-08-12T12:33:27Z</time>
      </trkpt>
      <trkpt lat="45.51926" lon="6.73134">
        <ele>2041.6</ele>
        <time>2021-08-12T12:33:28Z</time>
      </trkpt>
      <trkpt lat="45.51927" lon="6.73134">
        <ele>2041.5</ele>
        <time>2021-08-12T12:33:29Z</time>
      </trkpt>
      <trkpt lat="45.51927" lon="6.73133">
        <ele>2041.4</ele>
        <time>2021-08-12T12:33:30Z</time>
      </trkpt>
      <trkpt lat="45.51928" lon="6.73133">
        <ele>2041.4</ele>
        <time>2021-08-12T12:33:31Z</time>
      </trkpt>
      <trkpt lat="45.51928" lon="6.73133">
        <ele>2041.3</ele>
        <time>2021-08-12T12:33:32Z</time>
      </trkpt>
      <trkpt lat="45.51928" lon="6.73132">
        <ele>2041.2</ele>
        <time>2021-08-12T12:33:33Z</time>
      </trkpt>
      <trkpt lat="45.51929" lon="6.73132">
        <ele>2041.1</ele>
        <time>2021-08-12T12:33:34Z</time>
      </trkpt>
      <trkpt lat="45.51929" lon="6.73132">
        <ele>2041.1</ele>
        <time>2021-08-12T12:33:35Z</time>
      </trkpt>
      <trkpt lat="45.51929" lon="6.73131">
        <ele>2041</ele>
        <time>2021-08-12T12:33:36Z</time>
      </trkpt>
      <trkpt lat="45.5193" lon="6.7313">
        <ele>2040.9</ele>
        <time>2021-08-12T12:33:37Z</time>
      </trkpt>
      <trkpt lat="45.5193" lon="6.7313">
        <ele>2040.8</ele>
        <time>2021-08-12T12:33:38Z</time>
      </trkpt>
      <trkpt lat="45.51931" lon="6.73129">
        <ele>2040.7</ele>
        <time>2021-08-12T12:33:39Z</time>
      </trkpt>
      <trkpt lat="45.51932" lon="6.73129">
        <ele>2040.5</ele>
        <time>2021-08-12T12:33:40Z</time>
      </trkpt>
      <trkpt lat="45.51933" lon="6.73128">
        <ele>2040.4</ele>
        <time>2021-08-12T12:33:41Z</time>
      </trkpt>
      <trkpt lat="45.51934" lon="6.73127">
        <ele>2040.2</ele>
        <time>2021-08-12T12:33:42Z</time>
      </trkpt>
      <trkpt lat="45.51935" lon="6.73126">
        <ele>2040.1</ele>
        <time>2021-08-12T12:33:43Z</time>
      </trkpt>
      <trkpt lat="45.51936" lon="6.73126">
        <ele>2040</ele>
        <time>2021-08-12T12:33:44Z</time>
      </trkpt>
      <trkpt lat="45.51937" lon="6.73125">
        <ele>2039.8</ele>
        <time>2021-08-12T12:33:45Z</time>
      </trkpt>
      <trkpt lat="45.51938" lon="6.73124">
        <ele>2039.7</ele>
        <time>2021-08-12T12:33:46Z</time>
      </trkpt>
      <trkpt lat="45.51939" lon="6.73124">
        <ele>2039.6</ele>
        <time>2021-08-12T12:33:47Z</time>
      </trkpt>
      <trkpt lat="45.5194" lon="6.73123">
        <ele>2039.5</ele>
        <time>2021-08-12T12:33:48Z</time>
      </trkpt>
      <trkpt lat="45.51941" lon="6.73122">
        <ele>2039.4</ele>
        <time>2021-08-12T12:33:49Z</time>
      </trkpt>
      <trkpt lat="45.51942" lon="6.73122">
        <ele>2039.3</ele>
        <time>2021-08-12T12:33:50Z</time>
      </trkpt>
      <trkpt lat="45.51944" lon="6.73122">
        <ele>2039.2</ele>
        <time>2021-08-12T12:33:51Z</time>
      </trkpt>
      <trkpt lat="45.51945" lon="6.73121">
        <ele>2039.2</ele>
        <time>2021-08-12T12:33:52Z</time>
      </trkpt>
      <trkpt lat="45.51946" lon="6.73121">
        <ele>2039.1</ele>
        <time>2021-08-12T12:33:53Z</time>
      </trkpt>
      <trkpt lat="45.51947" lon="6.73121">
        <ele>2039.1</ele>
        <time>2021-08-12T12:33:54Z</time>
      </trkpt>
      <trkpt lat="45.51948" lon="6.73121">
        <ele>2039.1</ele>
        <time>2021-08-12T12:33:55Z</time>
      </trkpt>
      <trkpt lat="45.51949" lon="6.73121">
        <ele>2039.1</ele>
        <time>2021-08-12T12:33:56Z</time>
      </trkpt>
      <trkpt lat="45.5195" lon="6.73121">
        <ele>2039</ele>
        <time>2021-08-12T12:33:57Z</time>
      </trkpt>
      <trkpt lat="45.51951" lon="6.73121">
        <ele>2039.1</ele>
        <time>2021-08-12T12:33:58Z</time>
      </trkpt>
      <trkpt lat="45.51952" lon="6.73121">
        <ele>2039.1</ele>
        <time>2021-08-12T12:33:59Z</time>
      </trkpt>
      <trkpt lat="45.51953" lon="6.73121">
        <ele>2039.1</ele>
        <time>2021-08-12T12:34:00Z</time>
      </trkpt>
      <trkpt lat="45.51954" lon="6.73121">
        <ele>2039.1</ele>
        <time>2021-08-12T12:34:01Z</time>
      </trkpt>
      <trkpt lat="45.51955" lon="6.73122">
        <ele>2039.1</ele>
        <time>2021-08-12T12:34:02Z</time>
      </trkpt>
      <trkpt lat="45.51956" lon="6.73122">
        <ele>2039.2</ele>
        <time>2021-08-12T12:34:03Z</time>
      </trkpt>
      <trkpt lat="45.51957" lon="6.73122">
        <ele>2039.2</ele>
        <time>2021-08-12T12:34:04Z</time>
      </trkpt>
      <trkpt lat="45.51958" lon="6.73122">
        <ele>2039.3</ele>
        <time>2021-08-12T12:34:05Z</time>
      </trkpt>
      <trkpt lat="45.51959" lon="6.73122">
        <ele>2039.3</ele>
        <time>2021-08-12T12:34:06Z</time>
      </trkpt>
      <trkpt lat="45.5196" lon="6.73123">
        <ele>2039.4</ele>
        <time>2021-08-12T12:34:07Z</time>
      </trkpt>
      <trkpt lat="45.51961" lon="6.73123">
        <ele>2039.4</ele>
        <time>2021-08-12T12:34:08Z</time>
      </trkpt>
      <trkpt lat="45.51962" lon="6.73123">
        <ele>2039.5</ele>
        <time>2021-08-12T12:34:09Z</time>
      </trkpt>
      <trkpt lat="45.51963" lon="6.73123">
        <ele>2039.5</ele>
        <time>2021-08-12T12:34:10Z</time>
      </trkpt>
      <trkpt lat="45.51964" lon="6.73124">
        <ele>2039.6</ele>
        <time>2021-08-12T12:34:11Z</time>
      </trkpt>
      <trkpt lat="45.51964" lon="6.73124">
        <ele>2039.6</ele>
        <time>2021-08-12T12:34:12Z</time>
      </trkpt>
      <trkpt lat="45.51965" lon="6.73124">
        <ele>2039.7</ele>
        <time>2021-08-12T12:34:13Z</time>
      </trkpt>
      <trkpt lat="45.51966" lon="6.73124">
        <ele>2039.7</ele>
        <time>2021-08-12T12:34:14Z</time>
      </trkpt>
      <trkpt lat="45.51967" lon="6.73124">
        <ele>2039.8</ele>
        <time>2021-08-12T12:34:15Z</time>
      </trkpt>
      <trkpt lat="45.51968" lon="6.73123">
        <ele>2039.8</ele>
        <time>2021-08-12T12:34:16Z</time>
      </trkpt>
      <trkpt lat="45.51969" lon="6.73123">
        <ele>2039.8</ele>
        <time>2021-08-12T12:34:17Z</time>
      </trkpt>
      <trkpt lat="45.5197" lon="6.73123">
        <ele>2039.9</ele>
        <time>2021-08-12T12:34:18Z</time>
      </trkpt>
      <trkpt lat="45.51971" lon="6.73123">
        <ele>2039.9</ele>
        <time>2021-08-12T12:34:19Z</time>
      </trkpt>
      <trkpt lat="45.51971" lon="6.73122">
        <ele>2039.9</ele>
        <time>2021-08-12T12:34:20Z</time>
      </trkpt>
      <trkpt lat="45.51972" lon="6.73122">
        <ele>2040</ele>
        <time>2021-08-12T12:34:21Z</time>
      </trkpt>
      <trkpt lat="45.51973" lon="6.73121">
        <ele>2040</ele>
        <time>2021-08-12T12:34:22Z</time>
      </trkpt>
      <trkpt lat="45.51974" lon="6.73121">
        <ele>2040</ele>
        <time>2021-08-12T12:34:23Z</time>
      </trkpt>
      <trkpt lat="45.51975" lon="6.7312">
        <ele>2040</ele>
        <time>2021-08-12T12:34:24Z</time>
      </trkpt>
      <trkpt lat="45.51976" lon="6.7312">
        <ele>2040</ele>
        <time>2021-08-12T12:34:25Z</time>
      </trkpt>
      <trkpt lat="45.51977" lon="6.73119">
        <ele>2040</ele>
        <time>2021-08-12T12:34:26Z</time>
      </trkpt>
      <trkpt lat="45.51978" lon="6.73119">
        <ele>2040</ele>
        <time>2021-08-12T12:34:27Z</time>
      </trkpt>
      <trkpt lat="45.51978" lon="6.73119">
        <ele>2040</ele>
        <time>2021-08-12T12:34:28Z</time>
      </trkpt>
      <trkpt lat="45.51979" lon="6.73119">
        <ele>2040</ele>
        <time>2021-08-12T12:34:29Z</time>
      </trkpt>
      <trkpt lat="45.5198" lon="6.73118">
        <ele>2040</ele>
        <time>2021-08-12T12:34:30Z</time>
      </trkpt>
      <trkpt lat="45.51981" lon="6.73118">
        <ele>2040</ele>
        <time>2021-08-12T12:34:31Z</time>
      </trkpt>
      <trkpt lat="45.51982" lon="6.73118">
        <ele>2040</ele>
        <time>2021-08-12T12:34:32Z</time>
      </trkpt>
      <trkpt lat="45.51983" lon="6.73118">
        <ele>2039.9</ele>
        <time>2021-08-12T12:34:33Z</time>
      </trkpt>
      <trkpt lat="45.51983" lon="6.73117">
        <ele>2039.9</ele>
        <time>2021-08-12T12:34:34Z</time>
      </trkpt>
      <trkpt lat="45.51984" lon="6.73117">
        <ele>2039.9</ele>
        <time>2021-08-12T12:34:35Z</time>
      </trkpt>
      <trkpt lat="45.51985" lon="6.73117">
        <ele>2039.9</ele>
        <time>2021-08-12T12:34:36Z</time>
      </trkpt>
      <trkpt lat="45.51986" lon="6.73116">
        <ele>2039.9</ele>
        <time>2021-08-12T12:34:37Z</time>
      </trkpt>
      <trkpt lat="45.51986" lon="6.73116">
        <ele>2039.8</ele>
        <time>2021-08-12T12:34:38Z</time>
      </trkpt>
      <trkpt lat="45.51987" lon="6.73115">
        <ele>2039.8</ele>
        <time>2021-08-12T12:34:39Z</time>
      </trkpt>
      <trkpt lat="45.51988" lon="6.73114">
        <ele>2039.8</ele>
        <time>2021-08-12T12:34:40Z</time>
      </trkpt>
      <trkpt lat="45.51988" lon="6.73114">
        <ele>2039.8</ele>
        <time>2021-08-12T12:34:41Z</time>
      </trkpt>
      <trkpt lat="45.51989" lon="6.73113">
        <ele>2039.7</ele>
        <time>2021-08-12T12:34:42Z</time>
      </trkpt>
      <trkpt lat="45.5199" lon="6.73112">
        <ele>2039.7</ele>
        <time>2021-08-12T12:34:43Z</time>
      </trkpt>
      <trkpt lat="45.5199" lon="6.73111">
        <ele>2039.7</ele>
        <time>2021-08-12T12:34:44Z</time>
      </trkpt>
      <trkpt lat="45.51991" lon="6.7311">
        <ele>2039.6</ele>
        <time>2021-08-12T12:34:45Z</time>
      </trkpt>
      <trkpt lat="45.51992" lon="6.73109">
        <ele>2039.6</ele>
        <time>2021-08-12T12:34:46Z</time>
      </trkpt>
      <trkpt lat="45.51992" lon="6.73108">
        <ele>2039.5</ele>
        <time>2021-08-12T12:34:47Z</time>
      </trkpt>
      <trkpt lat="45.51993" lon="6.73107">
        <ele>2039.5</ele>
        <time>2021-08-12T12:34:48Z</time>
      </trkpt>
      <trkpt lat="45.51994" lon="6.73106">
        <ele>2039.5</ele>
        <time>2021-08-12T12:34:49Z</time>
      </trkpt>
      <trkpt lat="45.51994" lon="6.73105">
        <ele>2039.4</ele>
        <time>2021-08-12T12:34:50Z</time>
      </trkpt>
      <trkpt lat="45.51995" lon="6.73104">
        <ele>2039.4</ele>
        <time>2021-08-12T12:34:51Z</time>
      </trkpt>
      <trkpt lat="45.51996" lon="6.73103">
        <ele>2039.3</ele>
        <time>2021-08-12T12:34:52Z</time>
      </trkpt>
      <trkpt lat="45.51997" lon="6.73102">
        <ele>2039.3</ele>
        <time>2021-08-12T12:34:53Z</time>
      </trkpt>
      <trkpt lat="45.51998" lon="6.73101">
        <ele>2039.3</ele>
        <time>2021-08-12T12:34:54Z</time>
      </trkpt>
      <trkpt lat="45.51998" lon="6.731">
        <ele>2039.2</ele>
        <time>2021-08-12T12:34:55Z</time>
      </trkpt>
      <trkpt lat="45.51999" lon="6.73099">
        <ele>2039.2</ele>
        <time>2021-08-12T12:34:56Z</time>
      </trkpt>
      <trkpt lat="45.52" lon="6.73098">
        <ele>2039.2</ele>
        <time>2021-08-12T12:34:57Z</time>
      </trkpt>
      <trkpt lat="45.52001" lon="6.73097">
        <ele>2039.1</ele>
        <time>2021-08-12T12:34:58Z</time>
      </trkpt>
      <trkpt lat="45.52002" lon="6.73096">
        <ele>2039.1</ele>
        <time>2021-08-12T12:34:59Z</time>
      </trkpt>
      <trkpt lat="45.52003" lon="6.73096">
        <ele>2039.1</ele>
        <time>2021-08-12T12:35:00Z</time>
      </trkpt>
      <trkpt lat="45.52004" lon="6.73095">
        <ele>2039.1</ele>
        <time>2021-08-12T12:35:01Z</time>
      </trkpt>
      <trkpt lat="45.52005" lon="6.73094">
        <ele>2039.1</ele>
        <time>2021-08-12T12:35:02Z</time>
      </trkpt>
      <trkpt lat="45.52006" lon="6.73094">
        <ele>2039.1</ele>
        <time>2021-08-12T12:35:03Z</time>
      </trkpt>
      <trkpt lat="45.52007" lon="6.73093">
        <ele>2039.2</ele>
        <time>2021-08-12T12:35:04Z</time>
      </trkpt>
      <trkpt lat="45.52008" lon="6.73093">
        <ele>2039.2</ele>
        <time>2021-08-12T12:35:05Z</time>
      </trkpt>
      <trkpt lat="45.52008" lon="6.73092">
        <ele>2039.2</ele>
        <time>2021-08-12T12:35:06Z</time>
      </trkpt>
      <trkpt lat="45.52009" lon="6.73091">
        <ele>2039.2</ele>
        <time>2021-08-12T12:35:07Z</time>
      </trkpt>
      <trkpt lat="45.52009" lon="6.73091">
        <ele>2039.2</ele>
        <time>2021-08-12T12:35:08Z</time>
      </trkpt>
      <trkpt lat="45.5201" lon="6.73091">
        <ele>2039.3</ele>
        <time>2021-08-12T12:35:09Z</time>
      </trkpt>
      <trkpt lat="45.5201" lon="6.7309">
        <ele>2039.3</ele>
        <time>2021-08-12T12:35:10Z</time>
      </trkpt>
      <trkpt lat="45.5201" lon="6.7309">
        <ele>2039.3</ele>
        <time>2021-08-12T12:35:11Z</time>
      </trkpt>
      <trkpt lat="45.5201" lon="6.7309">
        <ele>2039.3</ele>
        <time>2021-08-12T12:35:12Z</time>
      </trkpt>
      <trkpt lat="45.52011" lon="6.73089">
        <ele>2039.3</ele>
        <time>2021-08-12T12:35:13Z</time>
      </trkpt>
      <trkpt lat="45.52011" lon="6.73089">
        <ele>2039.4</ele>
        <time>2021-08-12T12:35:14Z</time>
      </trkpt>
      <trkpt lat="45.52011" lon="6.73089">
        <ele>2039.4</ele>
        <time>2021-08-12T12:35:15Z</time>
      </trkpt>
      <trkpt lat="45.52012" lon="6.73089">
        <ele>2039.4</ele>
        <time>2021-08-12T12:35:16Z</time>
      </trkpt>
      <trkpt lat="45.52012" lon="6.73088">
        <ele>2039.4</ele>
        <time>2021-08-12T12:35:17Z</time>
      </trkpt>
      <trkpt lat="45.52013" lon="6.73088">
        <ele>2039.5</ele>
        <time>2021-08-12T12:35:18Z</time>
      </trkpt>
      <trkpt lat="45.52013" lon="6.73088">
        <ele>2039.5</ele>
        <time>2021-08-12T12:35:19Z</time>
      </trkpt>
      <trkpt lat="45.52014" lon="6.73088">
        <ele>2039.6</ele>
        <time>2021-08-12T12:35:20Z</time>
      </trkpt>
      <trkpt lat="45.52014" lon="6.73088">
        <ele>2039.6</ele>
        <time>2021-08-12T12:35:21Z</time>
      </trkpt>
      <trkpt lat="45.52015" lon="6.73088">
        <ele>2039.7</ele>
        <time>2021-08-12T12:35:22Z</time>
      </trkpt>
      <trkpt lat="45.52016" lon="6.73087">
        <ele>2039.7</ele>
        <time>2021-08-12T12:35:23Z</time>
      </trkpt>
      <trkpt lat="45.52017" lon="6.73087">
        <ele>2039.8</ele>
        <time>2021-08-12T12:35:24Z</time>
      </trkpt>
      <trkpt lat="45.52017" lon="6.73087">
        <ele>2039.8</ele>
        <time>2021-08-12T12:35:25Z</time>
      </trkpt>
      <trkpt lat="45.52018" lon="6.73087">
        <ele>2039.9</ele>
        <time>2021-08-12T12:35:26Z</time>
      </trkpt>
      <trkpt lat="45.52019" lon="6.73087">
        <ele>2040</ele>
        <time>2021-08-12T12:35:27Z</time>
      </trkpt>
      <trkpt lat="45.5202" lon="6.73087">
        <ele>2040</ele>
        <time>2021-08-12T12:35:28Z</time>
      </trkpt>
      <trkpt lat="45.52021" lon="6.73086">
        <ele>2040.1</ele>
        <time>2021-08-12T12:35:29Z</time>
      </trkpt>
      <trkpt lat="45.52022" lon="6.73086">
        <ele>2040.2</ele>
        <time>2021-08-12T12:35:30Z</time>
      </trkpt>
      <trkpt lat="45.52023" lon="6.73086">
        <ele>2040.2</ele>
        <time>2021-08-12T12:35:31Z</time>
      </trkpt>
      <trkpt lat="45.52023" lon="6.73085">
        <ele>2040.2</ele>
        <time>2021-08-12T12:35:32Z</time>
      </trkpt>
      <trkpt lat="45.52024" lon="6.73085">
        <ele>2040.3</ele>
        <time>2021-08-12T12:35:33Z</time>
      </trkpt>
      <trkpt lat="45.52025" lon="6.73084">
        <ele>2040.3</ele>
        <time>2021-08-12T12:35:34Z</time>
      </trkpt>
      <trkpt lat="45.52026" lon="6.73084">
        <ele>2040.4</ele>
        <time>2021-08-12T12:35:35Z</time>
      </trkpt>
      <trkpt lat="45.52027" lon="6.73083">
        <ele>2040.4</ele>
        <time>2021-08-12T12:35:36Z</time>
      </trkpt>
      <trkpt lat="45.52028" lon="6.73083">
        <ele>2040.4</ele>
        <time>2021-08-12T12:35:37Z</time>
      </trkpt>
      <trkpt lat="45.52028" lon="6.73082">
        <ele>2040.4</ele>
        <time>2021-08-12T12:35:38Z</time>
      </trkpt>
      <trkpt lat="45.52029" lon="6.73081">
        <ele>2040.4</ele>
        <time>2021-08-12T12:35:39Z</time>
      </trkpt>
      <trkpt lat="45.5203" lon="6.73081">
        <ele>2040.4</ele>
        <time>2021-08-12T12:35:40Z</time>
      </trkpt>
      <trkpt lat="45.52031" lon="6.7308">
        <ele>2040.4</ele>
        <time>2021-08-12T12:35:41Z</time>
      </trkpt>
      <trkpt lat="45.52031" lon="6.73079">
        <ele>2040.4</ele>
        <time>2021-08-12T12:35:42Z</time>
      </trkpt>
      <trkpt lat="45.52032" lon="6.73079">
        <ele>2040.4</ele>
        <time>2021-08-12T12:35:43Z</time>
      </trkpt>
      <trkpt lat="45.52032" lon="6.73078">
        <ele>2040.4</ele>
        <time>2021-08-12T12:35:44Z</time>
      </trkpt>
      <trkpt lat="45.52033" lon="6.73078">
        <ele>2040.4</ele>
        <time>2021-08-12T12:35:45Z</time>
      </trkpt>
      <trkpt lat="45.52033" lon="6.73078">
        <ele>2040.4</ele>
        <time>2021-08-12T12:35:46Z</time>
      </trkpt>
      <trkpt lat="45.52033" lon="6.73077">
        <ele>2044</ele>
        <time>2021-08-12T12:35:47Z</time>
      </trkpt>
      <trkpt lat="45.52033" lon="6.73077">
        <ele>2044.1</ele>
        <time>2021-08-12T12:35:48Z</time>
      </trkpt>
      <trkpt lat="45.52033" lon="6.73077">
        <ele>2044.1</ele>
        <time>2021-08-12T12:35:49Z</time>
      </trkpt>
      <trkpt lat="45.52033" lon="6.73077">
        <ele>2044.1</ele>
        <time>2021-08-12T12:35:50Z</time>
      </trkpt>
      <trkpt lat="45.52033" lon="6.73077">
        <ele>2044.1</ele>
        <time>2021-08-12T12:35:51Z</time>
      </trkpt>
      <trkpt lat="45.52033" lon="6.73077">
        <ele>2044.1</ele>
        <time>2021-08-12T12:35:52Z</time>
      </trkpt>
      <trkpt lat="45.52033" lon="6.73077">
        <ele>2044.1</ele>
        <time>2021-08-12T12:35:53Z</time>
      </trkpt>
      <trkpt lat="45.52033" lon="6.73077">
        <ele>2044.1</ele>
        <time>2021-08-12T12:35:54Z</time>
      </trkpt>
      <trkpt lat="45.52033" lon="6.73077">
        <ele>2044.1</ele>
        <time>2021-08-12T12:35:55Z</time>
      </trkpt>
      <trkpt lat="45.52033" lon="6.73077">
        <ele>2044.1</ele>
        <time>2021-08-12T12:35:56Z</time>
      </trkpt>
      <trkpt lat="45.52033" lon="6.73077">
        <ele>2044.1</ele>
        <time>2021-08-12T12:35:57Z</time>
      </trkpt>
      <trkpt lat="45.52033" lon="6.73077">
        <ele>2044.1</ele>
        <time>2021-08-12T12:35:58Z</time>
      </trkpt>
      <trkpt lat="45.52033" lon="6.73077">
        <ele>2044.2</ele>
        <time>2021-08-12T12:35:59Z</time>
      </trkpt>
      <trkpt lat="45.52033" lon="6.73077">
        <ele>2044.2</ele>
        <time>2021-08-12T12:36:00Z</time>
      </trkpt>
      <trkpt lat="45.52033" lon="6.73077">
        <ele>2044.2</ele>
        <time>2021-08-12T12:36:01Z</time>
      </trkpt>
      <trkpt lat="45.52033" lon="6.73077">
        <ele>2044.2</ele>
        <time>2021-08-12T12:36:02Z</time>
      </trkpt>
      <trkpt lat="45.52033" lon="6.73077">
        <ele>2044.2</ele>
        <time>2021-08-12T12:36:03Z</time>
      </trkpt>
      <trkpt lat="45.52033" lon="6.73077">
        <ele>2044.2</ele>
        <time>2021-08-12T12:36:04Z</time>
      </trkpt>
      <trkpt lat="45.52033" lon="6.73077">
        <ele>2044.2</ele>
        <time>2021-08-12T12:36:05Z</time>
      </trkpt>
      <trkpt lat="45.52033" lon="6.73077">
        <ele>2044.2</ele>
        <time>2021-08-12T12:36:06Z</time>
      </trkpt>
      <trkpt lat="45.52033" lon="6.73077">
        <ele>2044.2</ele>
        <time>2021-08-12T12:36:07Z</time>
      </trkpt>
      <trkpt lat="45.52033" lon="6.73077">
        <ele>2044.2</ele>
        <time>2021-08-12T12:36:08Z</time>
      </trkpt>
      <trkpt lat="45.52033" lon="6.73077">
        <ele>2044.2</ele>
        <time>2021-08-12T12:36:09Z</time>
      </trkpt>
      <trkpt lat="45.52033" lon="6.73077">
        <ele>2044.2</ele>
        <time>2021-08-12T12:36:10Z</time>
      </trkpt>
      <trkpt lat="45.52033" lon="6.73077">
        <ele>2044.2</ele>
        <time>2021-08-12T12:36:11Z</time>
      </trkpt>
      <trkpt lat="45.52033" lon="6.73077">
        <ele>2044.2</ele>
        <time>2021-08-12T12:36:12Z</time>
      </trkpt>
      <trkpt lat="45.52033" lon="6.73077">
        <ele>2044.2</ele>
        <time>2021-08-12T12:36:13Z</time>
      </trkpt>
      <trkpt lat="45.52033" lon="6.73077">
        <ele>2044.2</ele>
        <time>2021-08-12T12:36:14Z</time>
      </trkpt>
      <trkpt lat="45.52033" lon="6.73077">
        <ele>2044.2</ele>
        <time>2021-08-12T12:36:15Z</time>
      </trkpt>
      <trkpt lat="45.52033" lon="6.73077">
        <ele>2044.2</ele>
        <time>2021-08-12T12:36:16Z</time>
      </trkpt>
      <trkpt lat="45.52033" lon="6.73077">
        <ele>2044.2</ele>
        <time>2021-08-12T12:36:17Z</time>
      </trkpt>
      <trkpt lat="45.52033" lon="6.73077">
        <ele>2044.2</ele>
        <time>2021-08-12T12:36:18Z</time>
      </trkpt>
      <trkpt lat="45.52033" lon="6.73077">
        <ele>2044.2</ele>
        <time>2021-08-12T12:36:19Z</time>
      </trkpt>
      <trkpt lat="45.52033" lon="6.73077">
        <ele>2044.2</ele>
        <time>2021-08-12T12:36:20Z</time>
      </trkpt>
      <trkpt lat="45.52033" lon="6.73077">
        <ele>2044.2</ele>
        <time>2021-08-12T12:36:21Z</time>
      </trkpt>
      <trkpt lat="45.52033" lon="6.73077">
        <ele>2044.2</ele>
        <time>2021-08-12T12:36:22Z</time>
      </trkpt>
      <trkpt lat="45.52033" lon="6.73077">
        <ele>2044.2</ele>
        <time>2021-08-12T12:36:23Z</time>
      </trkpt>
      <trkpt lat="45.52033" lon="6.73077">
        <ele>2044.2</ele>
        <time>2021-08-12T12:36:24Z</time>
      </trkpt>
      <trkpt lat="45.52033" lon="6.73077">
        <ele>2044.2</ele>
        <time>2021-08-12T12:36:25Z</time>
      </trkpt>
      <trkpt lat="45.52033" lon="6.73077">
        <ele>2044.3</ele>
        <time>2021-08-12T12:36:26Z</time>
      </trkpt>
      <trkpt lat="45.52033" lon="6.73077">
        <ele>2044.3</ele>
        <time>2021-08-12T12:36:27Z</time>
      </trkpt>
      <trkpt lat="45.52033" lon="6.73077">
        <ele>2044.3</ele>
        <time>2021-08-12T12:36:28Z</time>
      </trkpt>
      <trkpt lat="45.52033" lon="6.73076">
        <ele>2044.3</ele>
        <time>2021-08-12T12:36:29Z</time>
      </trkpt>
      <trkpt lat="45.52033" lon="6.73076">
        <ele>2044.3</ele>
        <time>2021-08-12T12:36:30Z</time>
      </trkpt>
      <trkpt lat="45.52034" lon="6.73076">
        <ele>2044.4</ele>
        <time>2021-08-12T12:36:31Z</time>
      </trkpt>
      <trkpt lat="45.52034" lon="6.73076">
        <ele>2044.4</ele>
        <time>2021-08-12T12:36:32Z</time>
      </trkpt>
      <trkpt lat="45.52034" lon="6.73076">
        <ele>2044.4</ele>
        <time>2021-08-12T12:36:33Z</time>
      </trkpt>
      <trkpt lat="45.52034" lon="6.73075">
        <ele>2044.5</ele>
        <time>2021-08-12T12:36:34Z</time>
      </trkpt>
      <trkpt lat="45.52034" lon="6.73075">
        <ele>2044.5</ele>
        <time>2021-08-12T12:36:35Z</time>
      </trkpt>
      <trkpt lat="45.52034" lon="6.73075">
        <ele>2044.6</ele>
        <time>2021-08-12T12:36:36Z</time>
      </trkpt>
      <trkpt lat="45.52035" lon="6.73074">
        <ele>2044.7</ele>
        <time>2021-08-12T12:36:37Z</time>
      </trkpt>
      <trkpt lat="45.52035" lon="6.73074">
        <ele>2044.7</ele>
        <time>2021-08-12T12:36:38Z</time>
      </trkpt>
      <trkpt lat="45.52035" lon="6.73074">
        <ele>2044.8</ele>
        <time>2021-08-12T12:36:39Z</time>
      </trkpt>
      <trkpt lat="45.52036" lon="6.73073">
        <ele>2044.9</ele>
        <time>2021-08-12T12:36:40Z</time>
      </trkpt>
      <trkpt lat="45.52036" lon="6.73072">
        <ele>2045</ele>
        <time>2021-08-12T12:36:41Z</time>
      </trkpt>
      <trkpt lat="45.52036" lon="6.73072">
        <ele>2045.1</ele>
        <time>2021-08-12T12:36:42Z</time>
      </trkpt>
      <trkpt lat="45.52037" lon="6.73071">
        <ele>2045.2</ele>
        <time>2021-08-12T12:36:43Z</time>
      </trkpt>
      <trkpt lat="45.52037" lon="6.7307">
        <ele>2045.3</ele>
        <time>2021-08-12T12:36:44Z</time>
      </trkpt>
      <trkpt lat="45.52038" lon="6.73069">
        <ele>2045.5</ele>
        <time>2021-08-12T12:36:45Z</time>
      </trkpt>
      <trkpt lat="45.52038" lon="6.73068">
        <ele>2045.6</ele>
        <time>2021-08-12T12:36:46Z</time>
      </trkpt>
      <trkpt lat="45.52039" lon="6.73067">
        <ele>2045.7</ele>
        <time>2021-08-12T12:36:47Z</time>
      </trkpt>
      <trkpt lat="45.52039" lon="6.73066">
        <ele>2045.9</ele>
        <time>2021-08-12T12:36:48Z</time>
      </trkpt>
      <trkpt lat="45.5204" lon="6.73065">
        <ele>2046</ele>
        <time>2021-08-12T12:36:49Z</time>
      </trkpt>
      <trkpt lat="45.5204" lon="6.73064">
        <ele>2046.2</ele>
        <time>2021-08-12T12:36:50Z</time>
      </trkpt>
      <trkpt lat="45.52041" lon="6.73063">
        <ele>2046.3</ele>
        <time>2021-08-12T12:36:51Z</time>
      </trkpt>
      <trkpt lat="45.52041" lon="6.73062">
        <ele>2046.5</ele>
        <time>2021-08-12T12:36:52Z</time>
      </trkpt>
      <trkpt lat="45.52042" lon="6.73062">
        <ele>2046.6</ele>
        <time>2021-08-12T12:36:53Z</time>
      </trkpt>
      <trkpt lat="45.52042" lon="6.73061">
        <ele>2046.7</ele>
        <time>2021-08-12T12:36:54Z</time>
      </trkpt>
      <trkpt lat="45.52043" lon="6.7306">
        <ele>2046.8</ele>
        <time>2021-08-12T12:36:55Z</time>
      </trkpt>
      <trkpt lat="45.52043" lon="6.73059">
        <ele>2046.9</ele>
        <time>2021-08-12T12:36:56Z</time>
      </trkpt>
      <trkpt lat="45.52044" lon="6.73059">
        <ele>2047</ele>
        <time>2021-08-12T12:36:57Z</time>
      </trkpt>
      <trkpt lat="45.52044" lon="6.73058">
        <ele>2047.2</ele>
        <time>2021-08-12T12:36:58Z</time>
      </trkpt>
      <trkpt lat="45.52044" lon="6.73058">
        <ele>2047.2</ele>
        <time>2021-08-12T12:36:59Z</time>
      </trkpt>
      <trkpt lat="45.52045" lon="6.73057">
        <ele>2048.6</ele>
        <time>2021-08-12T12:37:00Z</time>
      </trkpt>
      <trkpt lat="45.52045" lon="6.73057">
        <ele>2048.5</ele>
        <time>2021-08-12T12:37:01Z</time>
      </trkpt>
      <trkpt lat="45.52046" lon="6.73057">
        <ele>2048.5</ele>
        <time>2021-08-12T12:37:02Z</time>
      </trkpt>
      <trkpt lat="45.52046" lon="6.73056">
        <ele>2048.5</ele>
        <time>2021-08-12T12:37:03Z</time>
      </trkpt>
      <trkpt lat="45.52047" lon="6.73056">
        <ele>2048.4</ele>
        <time>2021-08-12T12:37:04Z</time>
      </trkpt>
      <trkpt lat="45.52048" lon="6.73056">
        <ele>2048.4</ele>
        <time>2021-08-12T12:37:05Z</time>
      </trkpt>
      <trkpt lat="45.52048" lon="6.73055">
        <ele>2048.4</ele>
        <time>2021-08-12T12:37:06Z</time>
      </trkpt>
      <trkpt lat="45.52049" lon="6.73055">
        <ele>2048.3</ele>
        <time>2021-08-12T12:37:07Z</time>
      </trkpt>
      <trkpt lat="45.52049" lon="6.73055">
        <ele>2048.3</ele>
        <time>2021-08-12T12:37:08Z</time>
      </trkpt>
      <trkpt lat="45.52049" lon="6.73055">
        <ele>2048.3</ele>
        <time>2021-08-12T12:37:09Z</time>
      </trkpt>
      <trkpt lat="45.5205" lon="6.73055">
        <ele>2048.3</ele>
        <time>2021-08-12T12:37:10Z</time>
      </trkpt>
      <trkpt lat="45.5205" lon="6.73055">
        <ele>2048.2</ele>
        <time>2021-08-12T12:37:11Z</time>
      </trkpt>
      <trkpt lat="45.5205" lon="6.73054">
        <ele>2048.2</ele>
        <time>2021-08-12T12:37:12Z</time>
      </trkpt>
      <trkpt lat="45.5205" lon="6.73054">
        <ele>2048.2</ele>
        <time>2021-08-12T12:37:13Z</time>
      </trkpt>
      <trkpt lat="45.5205" lon="6.73054">
        <ele>2048.2</ele>
        <time>2021-08-12T12:37:14Z</time>
      </trkpt>
      <trkpt lat="45.5205" lon="6.73054">
        <ele>2048.2</ele>
        <time>2021-08-12T12:37:15Z</time>
      </trkpt>
      <trkpt lat="45.5205" lon="6.73055">
        <ele>2048.2</ele>
        <time>2021-08-12T12:37:16Z</time>
      </trkpt>
      <trkpt lat="45.5205" lon="6.73055">
        <ele>2048.2</ele>
        <time>2021-08-12T12:37:17Z</time>
      </trkpt>
      <trkpt lat="45.5205" lon="6.73055">
        <ele>2048.2</ele>
        <time>2021-08-12T12:37:18Z</time>
      </trkpt>
      <trkpt lat="45.5205" lon="6.73055">
        <ele>2048.2</ele>
        <time>2021-08-12T12:37:19Z</time>
      </trkpt>
      <trkpt lat="45.5205" lon="6.73055">
        <ele>2048.2</ele>
        <time>2021-08-12T12:37:20Z</time>
      </trkpt>
      <trkpt lat="45.5205" lon="6.73055">
        <ele>2048.2</ele>
        <time>2021-08-12T12:37:21Z</time>
      </trkpt>
      <trkpt lat="45.5205" lon="6.73055">
        <ele>2048.2</ele>
        <time>2021-08-12T12:37:22Z</time>
      </trkpt>
      <trkpt lat="45.52051" lon="6.73055">
        <ele>2048.1</ele>
        <time>2021-08-12T12:37:23Z</time>
      </trkpt>
      <trkpt lat="45.52051" lon="6.73055">
        <ele>2048.1</ele>
        <time>2021-08-12T12:37:24Z</time>
      </trkpt>
      <trkpt lat="45.52052" lon="6.73055">
        <ele>2048.1</ele>
        <time>2021-08-12T12:37:25Z</time>
      </trkpt>
      <trkpt lat="45.52052" lon="6.73054">
        <ele>2048.1</ele>
        <time>2021-08-12T12:37:26Z</time>
      </trkpt>
      <trkpt lat="45.52053" lon="6.73054">
        <ele>2048</ele>
        <time>2021-08-12T12:37:27Z</time>
      </trkpt>
      <trkpt lat="45.52053" lon="6.73054">
        <ele>2048</ele>
        <time>2021-08-12T12:37:28Z</time>
      </trkpt>
      <trkpt lat="45.52054" lon="6.73054">
        <ele>2047.9</ele>
        <time>2021-08-12T12:37:29Z</time>
      </trkpt>
      <trkpt lat="45.52054" lon="6.73054">
        <ele>2047.9</ele>
        <time>2021-08-12T12:37:30Z</time>
      </trkpt>
      <trkpt lat="45.52055" lon="6.73053">
        <ele>2047.9</ele>
        <time>2021-08-12T12:37:31Z</time>
      </trkpt>
      <trkpt lat="45.52055" lon="6.73053">
        <ele>2047.8</ele>
        <time>2021-08-12T12:37:32Z</time>
      </trkpt>
      <trkpt lat="45.52056" lon="6.73053">
        <ele>2047.8</ele>
        <time>2021-08-12T12:37:33Z</time>
      </trkpt>
      <trkpt lat="45.52056" lon="6.73053">
        <ele>2047.8</ele>
        <time>2021-08-12T12:37:34Z</time>
      </trkpt>
      <trkpt lat="45.52056" lon="6.73053">
        <ele>2047.8</ele>
        <time>2021-08-12T12:37:35Z</time>
      </trkpt>
      <trkpt lat="45.52056" lon="6.73053">
        <ele>2047.8</ele>
        <time>2021-08-12T12:37:36Z</time>
      </trkpt>
      <trkpt lat="45.52057" lon="6.73053">
        <ele>2047.7</ele>
        <time>2021-08-12T12:37:37Z</time>
      </trkpt>
      <trkpt lat="45.52057" lon="6.73053">
        <ele>2047.7</ele>
        <time>2021-08-12T12:37:38Z</time>
      </trkpt>
      <trkpt lat="45.52057" lon="6.73053">
        <ele>2047.7</ele>
        <time>2021-08-12T12:37:39Z</time>
      </trkpt>
      <trkpt lat="45.52057" lon="6.73053">
        <ele>2047.7</ele>
        <time>2021-08-12T12:37:40Z</time>
      </trkpt>
      <trkpt lat="45.52057" lon="6.73052">
        <ele>2047.7</ele>
        <time>2021-08-12T12:37:41Z</time>
      </trkpt>
      <trkpt lat="45.52057" lon="6.73052">
        <ele>2047.7</ele>
        <time>2021-08-12T12:37:42Z</time>
      </trkpt>
      <trkpt lat="45.52057" lon="6.73052">
        <ele>2047.7</ele>
        <time>2021-08-12T12:37:43Z</time>
      </trkpt>
      <trkpt lat="45.52057" lon="6.73052">
        <ele>2047.7</ele>
        <time>2021-08-12T12:37:44Z</time>
      </trkpt>
      <trkpt lat="45.52057" lon="6.73052">
        <ele>2047.7</ele>
        <time>2021-08-12T12:37:45Z</time>
      </trkpt>
      <trkpt lat="45.52057" lon="6.73053">
        <ele>2047.7</ele>
        <time>2021-08-12T12:37:46Z</time>
      </trkpt>
      <trkpt lat="45.52057" lon="6.73053">
        <ele>2047.7</ele>
        <time>2021-08-12T12:37:47Z</time>
      </trkpt>
      <trkpt lat="45.52057" lon="6.73053">
        <ele>2047.7</ele>
        <time>2021-08-12T12:37:48Z</time>
      </trkpt>
      <trkpt lat="45.52057" lon="6.73053">
        <ele>2047.7</ele>
        <time>2021-08-12T12:37:49Z</time>
      </trkpt>
      <trkpt lat="45.52057" lon="6.73053">
        <ele>2047.7</ele>
        <time>2021-08-12T12:37:50Z</time>
      </trkpt>
      <trkpt lat="45.52057" lon="6.73053">
        <ele>2047.7</ele>
        <time>2021-08-12T12:37:51Z</time>
      </trkpt>
      <trkpt lat="45.52057" lon="6.73053">
        <ele>2047.7</ele>
        <time>2021-08-12T12:37:52Z</time>
      </trkpt>
      <trkpt lat="45.52057" lon="6.73053">
        <ele>2047.7</ele>
        <time>2021-08-12T12:37:53Z</time>
      </trkpt>
      <trkpt lat="45.52057" lon="6.73053">
        <ele>2047.7</ele>
        <time>2021-08-12T12:37:54Z</time>
      </trkpt>
      <trkpt lat="45.52057" lon="6.73053">
        <ele>2047.7</ele>
        <time>2021-08-12T12:37:55Z</time>
      </trkpt>
      <trkpt lat="45.52057" lon="6.73053">
        <ele>2047.7</ele>
        <time>2021-08-12T12:37:56Z</time>
      </trkpt>
      <trkpt lat="45.52057" lon="6.73053">
        <ele>2047.7</ele>
        <time>2021-08-12T12:37:57Z</time>
      </trkpt>
      <trkpt lat="45.52057" lon="6.73053">
        <ele>2047.7</ele>
        <time>2021-08-12T12:37:58Z</time>
      </trkpt>
      <trkpt lat="45.52057" lon="6.73053">
        <ele>2047.7</ele>
        <time>2021-08-12T12:37:59Z</time>
      </trkpt>
      <trkpt lat="45.52057" lon="6.73053">
        <ele>2047.7</ele>
        <time>2021-08-12T12:38:00Z</time>
      </trkpt>
      <trkpt lat="45.52057" lon="6.73053">
        <ele>2047.7</ele>
        <time>2021-08-12T12:38:01Z</time>
      </trkpt>
      <trkpt lat="45.52057" lon="6.73053">
        <ele>2047.7</ele>
        <time>2021-08-12T12:38:02Z</time>
      </trkpt>
      <trkpt lat="45.52057" lon="6.73053">
        <ele>2047.7</ele>
        <time>2021-08-12T12:38:03Z</time>
      </trkpt>
      <trkpt lat="45.52057" lon="6.73053">
        <ele>2047.7</ele>
        <time>2021-08-12T12:38:04Z</time>
      </trkpt>
      <trkpt lat="45.52057" lon="6.73053">
        <ele>2047.7</ele>
        <time>2021-08-12T12:38:05Z</time>
      </trkpt>
      <trkpt lat="45.52057" lon="6.73053">
        <ele>2047.7</ele>
        <time>2021-08-12T12:38:06Z</time>
      </trkpt>
      <trkpt lat="45.52057" lon="6.73053">
        <ele>2047.7</ele>
        <time>2021-08-12T12:38:07Z</time>
      </trkpt>
      <trkpt lat="45.52057" lon="6.73053">
        <ele>2047.7</ele>
        <time>2021-08-12T12:38:08Z</time>
      </trkpt>
      <trkpt lat="45.52057" lon="6.73053">
        <ele>2047.7</ele>
        <time>2021-08-12T12:38:09Z</time>
      </trkpt>
      <trkpt lat="45.52057" lon="6.73053">
        <ele>2047.7</ele>
        <time>2021-08-12T12:38:10Z</time>
      </trkpt>
      <trkpt lat="45.52057" lon="6.73053">
        <ele>2047.7</ele>
        <time>2021-08-12T12:38:11Z</time>
      </trkpt>
      <trkpt lat="45.52057" lon="6.73053">
        <ele>2047.6</ele>
        <time>2021-08-12T12:38:12Z</time>
      </trkpt>
      <trkpt lat="45.52057" lon="6.73053">
        <ele>2047.6</ele>
        <time>2021-08-12T12:38:13Z</time>
      </trkpt>
      <trkpt lat="45.52057" lon="6.73053">
        <ele>2047.6</ele>
        <time>2021-08-12T12:38:14Z</time>
      </trkpt>
      <trkpt lat="45.52057" lon="6.73053">
        <ele>2047.6</ele>
        <time>2021-08-12T12:38:15Z</time>
      </trkpt>
      <trkpt lat="45.52057" lon="6.73052">
        <ele>2047.6</ele>
        <time>2021-08-12T12:38:16Z</time>
      </trkpt>
      <trkpt lat="45.52057" lon="6.73052">
        <ele>2047.6</ele>
        <time>2021-08-12T12:38:17Z</time>
      </trkpt>
      <trkpt lat="45.52057" lon="6.73052">
        <ele>2047.6</ele>
        <time>2021-08-12T12:38:18Z</time>
      </trkpt>
      <trkpt lat="45.52057" lon="6.73052">
        <ele>2047.6</ele>
        <time>2021-08-12T12:38:19Z</time>
      </trkpt>
      <trkpt lat="45.52057" lon="6.73052">
        <ele>2047.6</ele>
        <time>2021-08-12T12:38:20Z</time>
      </trkpt>
      <trkpt lat="45.52057" lon="6.73052">
        <ele>2047.6</ele>
        <time>2021-08-12T12:38:21Z</time>
      </trkpt>
      <trkpt lat="45.52057" lon="6.73052">
        <ele>2047.6</ele>
        <time>2021-08-12T12:38:22Z</time>
      </trkpt>
      <trkpt lat="45.52057" lon="6.73052">
        <ele>2047.6</ele>
        <time>2021-08-12T12:38:23Z</time>
      </trkpt>
      <trkpt lat="45.52058" lon="6.73051">
        <ele>2047.6</ele>
        <time>2021-08-12T12:38:24Z</time>
      </trkpt>
      <trkpt lat="45.52058" lon="6.73051">
        <ele>2047.5</ele>
        <time>2021-08-12T12:38:25Z</time>
      </trkpt>
      <trkpt lat="45.52058" lon="6.73051">
        <ele>2047.5</ele>
        <time>2021-08-12T12:38:26Z</time>
      </trkpt>
      <trkpt lat="45.52059" lon="6.73051">
        <ele>2047.5</ele>
        <time>2021-08-12T12:38:27Z</time>
      </trkpt>
      <trkpt lat="45.52059" lon="6.7305">
        <ele>2047.4</ele>
        <time>2021-08-12T12:38:28Z</time>
      </trkpt>
      <trkpt lat="45.5206" lon="6.7305">
        <ele>2047.4</ele>
        <time>2021-08-12T12:38:29Z</time>
      </trkpt>
      <trkpt lat="45.5206" lon="6.73049">
        <ele>2047.4</ele>
        <time>2021-08-12T12:38:30Z</time>
      </trkpt>
      <trkpt lat="45.52061" lon="6.73049">
        <ele>2047.3</ele>
        <time>2021-08-12T12:38:31Z</time>
      </trkpt>
      <trkpt lat="45.52062" lon="6.73048">
        <ele>2047.2</ele>
        <time>2021-08-12T12:38:32Z</time>
      </trkpt>
      <trkpt lat="45.52062" lon="6.73048">
        <ele>2047.2</ele>
        <time>2021-08-12T12:38:33Z</time>
      </trkpt>
      <trkpt lat="45.52063" lon="6.73047">
        <ele>2047.1</ele>
        <time>2021-08-12T12:38:34Z</time>
      </trkpt>
      <trkpt lat="45.52064" lon="6.73047">
        <ele>2047.1</ele>
        <time>2021-08-12T12:38:35Z</time>
      </trkpt>
      <trkpt lat="45.52065" lon="6.73046">
        <ele>2047</ele>
        <time>2021-08-12T12:38:36Z</time>
      </trkpt>
      <trkpt lat="45.52066" lon="6.73046">
        <ele>2046.9</ele>
        <time>2021-08-12T12:38:37Z</time>
      </trkpt>
      <trkpt lat="45.52067" lon="6.73045">
        <ele>2046.9</ele>
        <time>2021-08-12T12:38:38Z</time>
      </trkpt>
      <trkpt lat="45.52068" lon="6.73045">
        <ele>2046.8</ele>
        <time>2021-08-12T12:38:39Z</time>
      </trkpt>
      <trkpt lat="45.52068" lon="6.73045">
        <ele>2046.7</ele>
        <time>2021-08-12T12:38:40Z</time>
      </trkpt>
      <trkpt lat="45.52069" lon="6.73045">
        <ele>2046.7</ele>
        <time>2021-08-12T12:38:41Z</time>
      </trkpt>
      <trkpt lat="45.5207" lon="6.73044">
        <ele>2046.6</ele>
        <time>2021-08-12T12:38:42Z</time>
      </trkpt>
      <trkpt lat="45.52071" lon="6.73044">
        <ele>2046.5</ele>
        <time>2021-08-12T12:38:43Z</time>
      </trkpt>
      <trkpt lat="45.52072" lon="6.73044">
        <ele>2046.5</ele>
        <time>2021-08-12T12:38:44Z</time>
      </trkpt>
      <trkpt lat="45.52073" lon="6.73044">
        <ele>2046.4</ele>
        <time>2021-08-12T12:38:45Z</time>
      </trkpt>
      <trkpt lat="45.52074" lon="6.73044">
        <ele>2046.3</ele>
        <time>2021-08-12T12:38:46Z</time>
      </trkpt>
      <trkpt lat="45.52075" lon="6.73044">
        <ele>2046.3</ele>
        <time>2021-08-12T12:38:47Z</time>
      </trkpt>
      <trkpt lat="45.52076" lon="6.73044">
        <ele>2046.2</ele>
        <time>2021-08-12T12:38:48Z</time>
      </trkpt>
      <trkpt lat="45.52077" lon="6.73044">
        <ele>2046.2</ele>
        <time>2021-08-12T12:38:49Z</time>
      </trkpt>
      <trkpt lat="45.52078" lon="6.73045">
        <ele>2046.1</ele>
        <time>2021-08-12T12:38:50Z</time>
      </trkpt>
      <trkpt lat="45.52079" lon="6.73045">
        <ele>2046</ele>
        <time>2021-08-12T12:38:51Z</time>
      </trkpt>
      <trkpt lat="45.5208" lon="6.73045">
        <ele>2046</ele>
        <time>2021-08-12T12:38:52Z</time>
      </trkpt>
      <trkpt lat="45.52081" lon="6.73045">
        <ele>2045.9</ele>
        <time>2021-08-12T12:38:53Z</time>
      </trkpt>
      <trkpt lat="45.52082" lon="6.73045">
        <ele>2045.8</ele>
        <time>2021-08-12T12:38:54Z</time>
      </trkpt>
      <trkpt lat="45.52083" lon="6.73045">
        <ele>2045.8</ele>
        <time>2021-08-12T12:38:55Z</time>
      </trkpt>
      <trkpt lat="45.52084" lon="6.73045">
        <ele>2045.7</ele>
        <time>2021-08-12T12:38:56Z</time>
      </trkpt>
      <trkpt lat="45.52084" lon="6.73045">
        <ele>2045.6</ele>
        <time>2021-08-12T12:38:57Z</time>
      </trkpt>
      <trkpt lat="45.52085" lon="6.73045">
        <ele>2045.5</ele>
        <time>2021-08-12T12:38:58Z</time>
      </trkpt>
      <trkpt lat="45.52086" lon="6.73046">
        <ele>2045.5</ele>
        <time>2021-08-12T12:38:59Z</time>
      </trkpt>
      <trkpt lat="45.52087" lon="6.73046">
        <ele>2045.4</ele>
        <time>2021-08-12T12:39:00Z</time>
      </trkpt>
      <trkpt lat="45.52088" lon="6.73046">
        <ele>2045.3</ele>
        <time>2021-08-12T12:39:01Z</time>
      </trkpt>
      <trkpt lat="45.52089" lon="6.73046">
        <ele>2045.2</ele>
        <time>2021-08-12T12:39:02Z</time>
      </trkpt>
      <trkpt lat="45.5209" lon="6.73046">
        <ele>2045.1</ele>
        <time>2021-08-12T12:39:03Z</time>
      </trkpt>
      <trkpt lat="45.52091" lon="6.73047">
        <ele>2045</ele>
        <time>2021-08-12T12:39:04Z</time>
      </trkpt>
      <trkpt lat="45.52092" lon="6.73047">
        <ele>2044.9</ele>
        <time>2021-08-12T12:39:05Z</time>
      </trkpt>
      <trkpt lat="45.52093" lon="6.73047">
        <ele>2044.9</ele>
        <time>2021-08-12T12:39:06Z</time>
      </trkpt>
      <trkpt lat="45.52094" lon="6.73047">
        <ele>2044.8</ele>
        <time>2021-08-12T12:39:07Z</time>
      </trkpt>
      <trkpt lat="45.52094" lon="6.73048">
        <ele>2044.7</ele>
        <time>2021-08-12T12:39:08Z</time>
      </trkpt>
      <trkpt lat="45.52095" lon="6.73048">
        <ele>2044.6</ele>
        <time>2021-08-12T12:39:09Z</time>
      </trkpt>
      <trkpt lat="45.52096" lon="6.73048">
        <ele>2044.5</ele>
        <time>2021-08-12T12:39:10Z</time>
      </trkpt>
      <trkpt lat="45.52097" lon="6.73048">
        <ele>2044.4</ele>
        <time>2021-08-12T12:39:11Z</time>
      </trkpt>
      <trkpt lat="45.52098" lon="6.73049">
        <ele>2044.4</ele>
        <time>2021-08-12T12:39:12Z</time>
      </trkpt>
      <trkpt lat="45.52098" lon="6.73049">
        <ele>2044.3</ele>
        <time>2021-08-12T12:39:13Z</time>
      </trkpt>
      <trkpt lat="45.52098" lon="6.73049">
        <ele>2044.3</ele>
        <time>2021-08-12T12:39:14Z</time>
      </trkpt>
      <trkpt lat="45.52098" lon="6.73049">
        <ele>2044.3</ele>
        <time>2021-08-12T12:39:15Z</time>
      </trkpt>
      <trkpt lat="45.52098" lon="6.73049">
        <ele>2044.3</ele>
        <time>2021-08-12T12:39:16Z</time>
      </trkpt>
      <trkpt lat="45.52098" lon="6.73049">
        <ele>2044.3</ele>
        <time>2021-08-12T12:39:17Z</time>
      </trkpt>
      <trkpt lat="45.52098" lon="6.73049">
        <ele>2044.3</ele>
        <time>2021-08-12T12:39:18Z</time>
      </trkpt>
      <trkpt lat="45.52098" lon="6.73049">
        <ele>2044.3</ele>
        <time>2021-08-12T12:39:19Z</time>
      </trkpt>
      <trkpt lat="45.52098" lon="6.73049">
        <ele>2044.3</ele>
        <time>2021-08-12T12:39:20Z</time>
      </trkpt>
      <trkpt lat="45.52098" lon="6.73049">
        <ele>2044.2</ele>
        <time>2021-08-12T12:39:21Z</time>
      </trkpt>
      <trkpt lat="45.52098" lon="6.73049">
        <ele>2044.2</ele>
        <time>2021-08-12T12:39:22Z</time>
      </trkpt>
      <trkpt lat="45.52098" lon="6.73049">
        <ele>2044.2</ele>
        <time>2021-08-12T12:39:23Z</time>
      </trkpt>
      <trkpt lat="45.52098" lon="6.73049">
        <ele>2044.2</ele>
        <time>2021-08-12T12:39:24Z</time>
      </trkpt>
      <trkpt lat="45.52098" lon="6.73049">
        <ele>2044.2</ele>
        <time>2021-08-12T12:39:25Z</time>
      </trkpt>
      <trkpt lat="45.52098" lon="6.73049">
        <ele>2044.2</ele>
        <time>2021-08-12T12:39:26Z</time>
      </trkpt>
      <trkpt lat="45.52098" lon="6.73049">
        <ele>2044.2</ele>
        <time>2021-08-12T12:39:27Z</time>
      </trkpt>
      <trkpt lat="45.52098" lon="6.73049">
        <ele>2044.2</ele>
        <time>2021-08-12T12:39:28Z</time>
      </trkpt>
      <trkpt lat="45.52098" lon="6.73049">
        <ele>2044.2</ele>
        <time>2021-08-12T12:39:29Z</time>
      </trkpt>
      <trkpt lat="45.52098" lon="6.73049">
        <ele>2044.2</ele>
        <time>2021-08-12T12:39:30Z</time>
      </trkpt>
      <trkpt lat="45.52098" lon="6.73049">
        <ele>2044.2</ele>
        <time>2021-08-12T12:39:31Z</time>
      </trkpt>
      <trkpt lat="45.52098" lon="6.73049">
        <ele>2044.2</ele>
        <time>2021-08-12T12:39:32Z</time>
      </trkpt>
      <trkpt lat="45.52098" lon="6.73049">
        <ele>2044.2</ele>
        <time>2021-08-12T12:39:33Z</time>
      </trkpt>
      <trkpt lat="45.52098" lon="6.73049">
        <ele>2044.2</ele>
        <time>2021-08-12T12:39:34Z</time>
      </trkpt>
      <trkpt lat="45.52098" lon="6.73049">
        <ele>2044.2</ele>
        <time>2021-08-12T12:39:35Z</time>
      </trkpt>
      <trkpt lat="45.52098" lon="6.73049">
        <ele>2044.2</ele>
        <time>2021-08-12T12:39:36Z</time>
      </trkpt>
      <trkpt lat="45.52098" lon="6.73049">
        <ele>2044.2</ele>
        <time>2021-08-12T12:39:37Z</time>
      </trkpt>
      <trkpt lat="45.52098" lon="6.73049">
        <ele>2044.2</ele>
        <time>2021-08-12T12:39:38Z</time>
      </trkpt>
      <trkpt lat="45.52098" lon="6.73049">
        <ele>2044.2</ele>
        <time>2021-08-12T12:39:39Z</time>
      </trkpt>
      <trkpt lat="45.52098" lon="6.73049">
        <ele>2044.2</ele>
        <time>2021-08-12T12:39:40Z</time>
      </trkpt>
      <trkpt lat="45.52098" lon="6.73049">
        <ele>2044.2</ele>
        <time>2021-08-12T12:39:41Z</time>
      </trkpt>
      <trkpt lat="45.52098" lon="6.73049">
        <ele>2044.2</ele>
        <time>2021-08-12T12:39:42Z</time>
      </trkpt>
      <trkpt lat="45.52098" lon="6.73049">
        <ele>2044.2</ele>
        <time>2021-08-12T12:39:43Z</time>
      </trkpt>
      <trkpt lat="45.52098" lon="6.73049">
        <ele>2044.2</ele>
        <time>2021-08-12T12:39:44Z</time>
      </trkpt>
      <trkpt lat="45.52098" lon="6.73049">
        <ele>2044.2</ele>
        <time>2021-08-12T12:39:45Z</time>
      </trkpt>
      <trkpt lat="45.52098" lon="6.73049">
        <ele>2044.2</ele>
        <time>2021-08-12T12:39:46Z</time>
      </trkpt>
      <trkpt lat="45.52098" lon="6.73049">
        <ele>2044.2</ele>
        <time>2021-08-12T12:39:47Z</time>
      </trkpt>
      <trkpt lat="45.52098" lon="6.73049">
        <ele>2044.2</ele>
        <time>2021-08-12T12:39:48Z</time>
      </trkpt>
      <trkpt lat="45.52098" lon="6.73049">
        <ele>2044.2</ele>
        <time>2021-08-12T12:39:49Z</time>
      </trkpt>
      <trkpt lat="45.52098" lon="6.73049">
        <ele>2044.2</ele>
        <time>2021-08-12T12:39:50Z</time>
      </trkpt>
      <trkpt lat="45.52098" lon="6.73049">
        <ele>2044.2</ele>
        <time>2021-08-12T12:39:51Z</time>
      </trkpt>
      <trkpt lat="45.52098" lon="6.73049">
        <ele>2044.2</ele>
        <time>2021-08-12T12:39:52Z</time>
      </trkpt>
      <trkpt lat="45.52098" lon="6.73048">
        <ele>2044.2</ele>
        <time>2021-08-12T12:39:53Z</time>
      </trkpt>
      <trkpt lat="45.52098" lon="6.73048">
        <ele>2044.1</ele>
        <time>2021-08-12T12:39:54Z</time>
      </trkpt>
      <trkpt lat="45.52098" lon="6.73048">
        <ele>2044.1</ele>
        <time>2021-08-12T12:39:55Z</time>
      </trkpt>
      <trkpt lat="45.52099" lon="6.73048">
        <ele>2044.1</ele>
        <time>2021-08-12T12:39:56Z</time>
      </trkpt>
      <trkpt lat="45.52099" lon="6.73048">
        <ele>2044.1</ele>
        <time>2021-08-12T12:39:57Z</time>
      </trkpt>
      <trkpt lat="45.52099" lon="6.73048">
        <ele>2044</ele>
        <time>2021-08-12T12:39:58Z</time>
      </trkpt>
      <trkpt lat="45.521" lon="6.73048">
        <ele>2044</ele>
        <time>2021-08-12T12:39:59Z</time>
      </trkpt>
      <trkpt lat="45.52101" lon="6.73048">
        <ele>2043.9</ele>
        <time>2021-08-12T12:40:00Z</time>
      </trkpt>
      <trkpt lat="45.52101" lon="6.73048">
        <ele>2043.9</ele>
        <time>2021-08-12T12:40:01Z</time>
      </trkpt>
      <trkpt lat="45.52102" lon="6.73048">
        <ele>2043.8</ele>
        <time>2021-08-12T12:40:02Z</time>
      </trkpt>
      <trkpt lat="45.52103" lon="6.73048">
        <ele>2043.7</ele>
        <time>2021-08-12T12:40:03Z</time>
      </trkpt>
      <trkpt lat="45.52104" lon="6.73048">
        <ele>2043.7</ele>
        <time>2021-08-12T12:40:04Z</time>
      </trkpt>
      <trkpt lat="45.52104" lon="6.73048">
        <ele>2043.6</ele>
        <time>2021-08-12T12:40:05Z</time>
      </trkpt>
      <trkpt lat="45.52105" lon="6.73048">
        <ele>2043.5</ele>
        <time>2021-08-12T12:40:06Z</time>
      </trkpt>
      <trkpt lat="45.52106" lon="6.73048">
        <ele>2043.4</ele>
        <time>2021-08-12T12:40:07Z</time>
      </trkpt>
      <trkpt lat="45.52107" lon="6.73048">
        <ele>2043.4</ele>
        <time>2021-08-12T12:40:08Z</time>
      </trkpt>
      <trkpt lat="45.52108" lon="6.73049">
        <ele>2043.3</ele>
        <time>2021-08-12T12:40:09Z</time>
      </trkpt>
      <trkpt lat="45.52108" lon="6.73049">
        <ele>2043.2</ele>
        <time>2021-08-12T12:40:10Z</time>
      </trkpt>
      <trkpt lat="45.52109" lon="6.73049">
        <ele>2043.2</ele>
        <time>2021-08-12T12:40:11Z</time>
      </trkpt>
      <trkpt lat="45.5211" lon="6.73049">
        <ele>2043.1</ele>
        <time>2021-08-12T12:40:12Z</time>
      </trkpt>
      <trkpt lat="45.52111" lon="6.73049">
        <ele>2043</ele>
        <time>2021-08-12T12:40:13Z</time>
      </trkpt>
      <trkpt lat="45.52112" lon="6.73049">
        <ele>2043</ele>
        <time>2021-08-12T12:40:14Z</time>
      </trkpt>
      <trkpt lat="45.52112" lon="6.73049">
        <ele>2042.9</ele>
        <time>2021-08-12T12:40:15Z</time>
      </trkpt>
      <trkpt lat="45.52113" lon="6.73049">
        <ele>2042.8</ele>
        <time>2021-08-12T12:40:16Z</time>
      </trkpt>
      <trkpt lat="45.52114" lon="6.73049">
        <ele>2042.7</ele>
        <time>2021-08-12T12:40:17Z</time>
      </trkpt>
      <trkpt lat="45.52115" lon="6.73049">
        <ele>2042.7</ele>
        <time>2021-08-12T12:40:18Z</time>
      </trkpt>
      <trkpt lat="45.52115" lon="6.73049">
        <ele>2042.6</ele>
        <time>2021-08-12T12:40:19Z</time>
      </trkpt>
      <trkpt lat="45.52116" lon="6.73049">
        <ele>2042.5</ele>
        <time>2021-08-12T12:40:20Z</time>
      </trkpt>
      <trkpt lat="45.52117" lon="6.73049">
        <ele>2042.5</ele>
        <time>2021-08-12T12:40:21Z</time>
      </trkpt>
      <trkpt lat="45.52117" lon="6.73049">
        <ele>2042.4</ele>
        <time>2021-08-12T12:40:22Z</time>
      </trkpt>
      <trkpt lat="45.52118" lon="6.73049">
        <ele>2042.3</ele>
        <time>2021-08-12T12:40:23Z</time>
      </trkpt>
      <trkpt lat="45.52119" lon="6.73049">
        <ele>2042.2</ele>
        <time>2021-08-12T12:40:24Z</time>
      </trkpt>
      <trkpt lat="45.52119" lon="6.73049">
        <ele>2042.2</ele>
        <time>2021-08-12T12:40:25Z</time>
      </trkpt>
      <trkpt lat="45.5212" lon="6.73049">
        <ele>2042.1</ele>
        <time>2021-08-12T12:40:26Z</time>
      </trkpt>
      <trkpt lat="45.52121" lon="6.73049">
        <ele>2042.1</ele>
        <time>2021-08-12T12:40:27Z</time>
      </trkpt>
      <trkpt lat="45.52121" lon="6.73049">
        <ele>2042</ele>
        <time>2021-08-12T12:40:28Z</time>
      </trkpt>
      <trkpt lat="45.52122" lon="6.73049">
        <ele>2041.9</ele>
        <time>2021-08-12T12:40:29Z</time>
      </trkpt>
      <trkpt lat="45.52123" lon="6.73049">
        <ele>2041.9</ele>
        <time>2021-08-12T12:40:30Z</time>
      </trkpt>
      <trkpt lat="45.52123" lon="6.73049">
        <ele>2041.8</ele>
        <time>2021-08-12T12:40:31Z</time>
      </trkpt>
      <trkpt lat="45.52124" lon="6.73049">
        <ele>2041.7</ele>
        <time>2021-08-12T12:40:32Z</time>
      </trkpt>
      <trkpt lat="45.52125" lon="6.73049">
        <ele>2041.7</ele>
        <time>2021-08-12T12:40:33Z</time>
      </trkpt>
      <trkpt lat="45.52125" lon="6.73049">
        <ele>2041.6</ele>
        <time>2021-08-12T12:40:34Z</time>
      </trkpt>
      <trkpt lat="45.52126" lon="6.73049">
        <ele>2041.5</ele>
        <time>2021-08-12T12:40:35Z</time>
      </trkpt>
      <trkpt lat="45.52127" lon="6.73049">
        <ele>2041.4</ele>
        <time>2021-08-12T12:40:36Z</time>
      </trkpt>
      <trkpt lat="45.52128" lon="6.73049">
        <ele>2041.3</ele>
        <time>2021-08-12T12:40:37Z</time>
      </trkpt>
      <trkpt lat="45.52129" lon="6.73048">
        <ele>2041.3</ele>
        <time>2021-08-12T12:40:38Z</time>
      </trkpt>
      <trkpt lat="45.52129" lon="6.73048">
        <ele>2041.2</ele>
        <time>2021-08-12T12:40:39Z</time>
      </trkpt>
      <trkpt lat="45.5213" lon="6.73048">
        <ele>2041.1</ele>
        <time>2021-08-12T12:40:40Z</time>
      </trkpt>
      <trkpt lat="45.52131" lon="6.73048">
        <ele>2041</ele>
        <time>2021-08-12T12:40:41Z</time>
      </trkpt>
      <trkpt lat="45.52132" lon="6.73047">
        <ele>2040.9</ele>
        <time>2021-08-12T12:40:42Z</time>
      </trkpt>
      <trkpt lat="45.52132" lon="6.73047">
        <ele>2040.8</ele>
        <time>2021-08-12T12:40:43Z</time>
      </trkpt>
      <trkpt lat="45.52133" lon="6.73047">
        <ele>2040.7</ele>
        <time>2021-08-12T12:40:44Z</time>
      </trkpt>
      <trkpt lat="45.52134" lon="6.73047">
        <ele>2040.7</ele>
        <time>2021-08-12T12:40:45Z</time>
      </trkpt>
      <trkpt lat="45.52134" lon="6.73046">
        <ele>2040.6</ele>
        <time>2021-08-12T12:40:46Z</time>
      </trkpt>
      <trkpt lat="45.52135" lon="6.73046">
        <ele>2040.6</ele>
        <time>2021-08-12T12:40:47Z</time>
      </trkpt>
      <trkpt lat="45.52135" lon="6.73046">
        <ele>2040.5</ele>
        <time>2021-08-12T12:40:48Z</time>
      </trkpt>
      <trkpt lat="45.52135" lon="6.73046">
        <ele>2040.5</ele>
        <time>2021-08-12T12:40:49Z</time>
      </trkpt>
      <trkpt lat="45.52135" lon="6.73046">
        <ele>2040.5</ele>
        <time>2021-08-12T12:40:50Z</time>
      </trkpt>
      <trkpt lat="45.52136" lon="6.73045">
        <ele>2040.4</ele>
        <time>2021-08-12T12:40:51Z</time>
      </trkpt>
      <trkpt lat="45.52136" lon="6.73045">
        <ele>2040.3</ele>
        <time>2021-08-12T12:40:52Z</time>
      </trkpt>
      <trkpt lat="45.52137" lon="6.73045">
        <ele>2040.3</ele>
        <time>2021-08-12T12:40:53Z</time>
      </trkpt>
      <trkpt lat="45.52138" lon="6.73044">
        <ele>2040.2</ele>
        <time>2021-08-12T12:40:54Z</time>
      </trkpt>
      <trkpt lat="45.52138" lon="6.73044">
        <ele>2040.1</ele>
        <time>2021-08-12T12:40:55Z</time>
      </trkpt>
      <trkpt lat="45.52139" lon="6.73044">
        <ele>2040.1</ele>
        <time>2021-08-12T12:40:56Z</time>
      </trkpt>
      <trkpt lat="45.52139" lon="6.73044">
        <ele>2040</ele>
        <time>2021-08-12T12:40:57Z</time>
      </trkpt>
      <trkpt lat="45.52139" lon="6.73044">
        <ele>2040</ele>
        <time>2021-08-12T12:40:58Z</time>
      </trkpt>
      <trkpt lat="45.52139" lon="6.73044">
        <ele>2040</ele>
        <time>2021-08-12T12:40:59Z</time>
      </trkpt>
      <trkpt lat="45.52139" lon="6.73044">
        <ele>2040</ele>
        <time>2021-08-12T12:41:00Z</time>
      </trkpt>
      <trkpt lat="45.52139" lon="6.73044">
        <ele>2040</ele>
        <time>2021-08-12T12:41:01Z</time>
      </trkpt>
      <trkpt lat="45.52139" lon="6.73044">
        <ele>2040</ele>
        <time>2021-08-12T12:41:02Z</time>
      </trkpt>
      <trkpt lat="45.52139" lon="6.73044">
        <ele>2040</ele>
        <time>2021-08-12T12:41:03Z</time>
      </trkpt>
      <trkpt lat="45.52139" lon="6.73044">
        <ele>2040</ele>
        <time>2021-08-12T12:41:04Z</time>
      </trkpt>
      <trkpt lat="45.5214" lon="6.73044">
        <ele>2039.9</ele>
        <time>2021-08-12T12:41:05Z</time>
      </trkpt>
      <trkpt lat="45.5214" lon="6.73043">
        <ele>2039.9</ele>
        <time>2021-08-12T12:41:06Z</time>
      </trkpt>
      <trkpt lat="45.5214" lon="6.73043">
        <ele>2039.9</ele>
        <time>2021-08-12T12:41:07Z</time>
      </trkpt>
      <trkpt lat="45.52141" lon="6.73043">
        <ele>2039.8</ele>
        <time>2021-08-12T12:41:08Z</time>
      </trkpt>
      <trkpt lat="45.52141" lon="6.73043">
        <ele>2039.7</ele>
        <time>2021-08-12T12:41:09Z</time>
      </trkpt>
      <trkpt lat="45.52142" lon="6.73042">
        <ele>2039.7</ele>
        <time>2021-08-12T12:41:10Z</time>
      </trkpt>
      <trkpt lat="45.52143" lon="6.73042">
        <ele>2039.6</ele>
        <time>2021-08-12T12:41:11Z</time>
      </trkpt>
      <trkpt lat="45.52143" lon="6.73042">
        <ele>2039.5</ele>
        <time>2021-08-12T12:41:12Z</time>
      </trkpt>
      <trkpt lat="45.52144" lon="6.73041">
        <ele>2039.4</ele>
        <time>2021-08-12T12:41:13Z</time>
      </trkpt>
      <trkpt lat="45.52145" lon="6.73041">
        <ele>2039.3</ele>
        <time>2021-08-12T12:41:14Z</time>
      </trkpt>
      <trkpt lat="45.52146" lon="6.73041">
        <ele>2039.2</ele>
        <time>2021-08-12T12:41:15Z</time>
      </trkpt>
      <trkpt lat="45.52147" lon="6.73041">
        <ele>2039.1</ele>
        <time>2021-08-12T12:41:16Z</time>
      </trkpt>
      <trkpt lat="45.52148" lon="6.73041">
        <ele>2039</ele>
        <time>2021-08-12T12:41:17Z</time>
      </trkpt>
      <trkpt lat="45.52148" lon="6.7304">
        <ele>2038.9</ele>
        <time>2021-08-12T12:41:18Z</time>
      </trkpt>
      <trkpt lat="45.52149" lon="6.7304">
        <ele>2038.9</ele>
        <time>2021-08-12T12:41:19Z</time>
      </trkpt>
      <trkpt lat="45.5215" lon="6.73041">
        <ele>2038.8</ele>
        <time>2021-08-12T12:41:20Z</time>
      </trkpt>
      <trkpt lat="45.52151" lon="6.73041">
        <ele>2038.7</ele>
        <time>2021-08-12T12:41:21Z</time>
      </trkpt>
      <trkpt lat="45.52152" lon="6.73041">
        <ele>2038.6</ele>
        <time>2021-08-12T12:41:22Z</time>
      </trkpt>
      <trkpt lat="45.52153" lon="6.73041">
        <ele>2038.5</ele>
        <time>2021-08-12T12:41:23Z</time>
      </trkpt>
      <trkpt lat="45.52154" lon="6.73041">
        <ele>2038.4</ele>
        <time>2021-08-12T12:41:24Z</time>
      </trkpt>
      <trkpt lat="45.52155" lon="6.73041">
        <ele>2038.3</ele>
        <time>2021-08-12T12:41:25Z</time>
      </trkpt>
      <trkpt lat="45.52156" lon="6.73041">
        <ele>2038.3</ele>
        <time>2021-08-12T12:41:26Z</time>
      </trkpt>
      <trkpt lat="45.52157" lon="6.73042">
        <ele>2038.2</ele>
        <time>2021-08-12T12:41:27Z</time>
      </trkpt>
      <trkpt lat="45.52158" lon="6.73042">
        <ele>2038.1</ele>
        <time>2021-08-12T12:41:28Z</time>
      </trkpt>
      <trkpt lat="45.52158" lon="6.73042">
        <ele>2038</ele>
        <time>2021-08-12T12:41:29Z</time>
      </trkpt>
      <trkpt lat="45.52159" lon="6.73042">
        <ele>2037.9</ele>
        <time>2021-08-12T12:41:30Z</time>
      </trkpt>
      <trkpt lat="45.5216" lon="6.73043">
        <ele>2037.9</ele>
        <time>2021-08-12T12:41:31Z</time>
      </trkpt>
      <trkpt lat="45.52161" lon="6.73043">
        <ele>2037.8</ele>
        <time>2021-08-12T12:41:32Z</time>
      </trkpt>
      <trkpt lat="45.52162" lon="6.73043">
        <ele>2037.7</ele>
        <time>2021-08-12T12:41:33Z</time>
      </trkpt>
      <trkpt lat="45.52163" lon="6.73044">
        <ele>2037.7</ele>
        <time>2021-08-12T12:41:34Z</time>
      </trkpt>
      <trkpt lat="45.52164" lon="6.73044">
        <ele>2037.6</ele>
        <time>2021-08-12T12:41:35Z</time>
      </trkpt>
      <trkpt lat="45.52164" lon="6.73044">
        <ele>2037.5</ele>
        <time>2021-08-12T12:41:36Z</time>
      </trkpt>
      <trkpt lat="45.52165" lon="6.73045">
        <ele>2037.5</ele>
        <time>2021-08-12T12:41:37Z</time>
      </trkpt>
      <trkpt lat="45.52166" lon="6.73045">
        <ele>2037.4</ele>
        <time>2021-08-12T12:41:38Z</time>
      </trkpt>
      <trkpt lat="45.52167" lon="6.73045">
        <ele>2037.3</ele>
        <time>2021-08-12T12:41:39Z</time>
      </trkpt>
      <trkpt lat="45.52168" lon="6.73046">
        <ele>2037.2</ele>
        <time>2021-08-12T12:41:40Z</time>
      </trkpt>
      <trkpt lat="45.52168" lon="6.73046">
        <ele>2037.2</ele>
        <time>2021-08-12T12:41:41Z</time>
      </trkpt>
      <trkpt lat="45.52169" lon="6.73046">
        <ele>2037.1</ele>
        <time>2021-08-12T12:41:42Z</time>
      </trkpt>
      <trkpt lat="45.5217" lon="6.73047">
        <ele>2037</ele>
        <time>2021-08-12T12:41:43Z</time>
      </trkpt>
      <trkpt lat="45.52171" lon="6.73047">
        <ele>2037</ele>
        <time>2021-08-12T12:41:44Z</time>
      </trkpt>
      <trkpt lat="45.52172" lon="6.73047">
        <ele>2036.9</ele>
        <time>2021-08-12T12:41:45Z</time>
      </trkpt>
      <trkpt lat="45.52173" lon="6.73048">
        <ele>2036.8</ele>
        <time>2021-08-12T12:41:46Z</time>
      </trkpt>
      <trkpt lat="45.52173" lon="6.73048">
        <ele>2036.8</ele>
        <time>2021-08-12T12:41:47Z</time>
      </trkpt>
      <trkpt lat="45.52174" lon="6.73049">
        <ele>2036.7</ele>
        <time>2021-08-12T12:41:48Z</time>
      </trkpt>
      <trkpt lat="45.52175" lon="6.73049">
        <ele>2036.6</ele>
        <time>2021-08-12T12:41:49Z</time>
      </trkpt>
      <trkpt lat="45.52176" lon="6.7305">
        <ele>2036.5</ele>
        <time>2021-08-12T12:41:50Z</time>
      </trkpt>
      <trkpt lat="45.52177" lon="6.73051">
        <ele>2036.5</ele>
        <time>2021-08-12T12:41:51Z</time>
      </trkpt>
      <trkpt lat="45.52177" lon="6.73051">
        <ele>2036.4</ele>
        <time>2021-08-12T12:41:52Z</time>
      </trkpt>
      <trkpt lat="45.52178" lon="6.73052">
        <ele>2036.3</ele>
        <time>2021-08-12T12:41:53Z</time>
      </trkpt>
      <trkpt lat="45.52179" lon="6.73053">
        <ele>2036.2</ele>
        <time>2021-08-12T12:41:54Z</time>
      </trkpt>
      <trkpt lat="45.5218" lon="6.73054">
        <ele>2036.1</ele>
        <time>2021-08-12T12:41:55Z</time>
      </trkpt>
      <trkpt lat="45.52181" lon="6.73056">
        <ele>2036</ele>
        <time>2021-08-12T12:41:56Z</time>
      </trkpt>
      <trkpt lat="45.52181" lon="6.73057">
        <ele>2035.9</ele>
        <time>2021-08-12T12:41:57Z</time>
      </trkpt>
      <trkpt lat="45.52182" lon="6.73058">
        <ele>2035.8</ele>
        <time>2021-08-12T12:41:58Z</time>
      </trkpt>
      <trkpt lat="45.52182" lon="6.73059">
        <ele>2035.8</ele>
        <time>2021-08-12T12:41:59Z</time>
      </trkpt>
      <trkpt lat="45.52183" lon="6.73059">
        <ele>2035.7</ele>
        <time>2021-08-12T12:42:00Z</time>
      </trkpt>
      <trkpt lat="45.52183" lon="6.7306">
        <ele>2035.7</ele>
        <time>2021-08-12T12:42:01Z</time>
      </trkpt>
      <trkpt lat="45.52183" lon="6.7306">
        <ele>2035.6</ele>
        <time>2021-08-12T12:42:02Z</time>
      </trkpt>
      <trkpt lat="45.52183" lon="6.7306">
        <ele>2035.6</ele>
        <time>2021-08-12T12:42:03Z</time>
      </trkpt>
      <trkpt lat="45.52184" lon="6.73061">
        <ele>2035.6</ele>
        <time>2021-08-12T12:42:04Z</time>
      </trkpt>
      <trkpt lat="45.52184" lon="6.73061">
        <ele>2035.6</ele>
        <time>2021-08-12T12:42:05Z</time>
      </trkpt>
      <trkpt lat="45.52184" lon="6.73061">
        <ele>2035.6</ele>
        <time>2021-08-12T12:42:06Z</time>
      </trkpt>
      <trkpt lat="45.52184" lon="6.73061">
        <ele>2035.6</ele>
        <time>2021-08-12T12:42:07Z</time>
      </trkpt>
      <trkpt lat="45.52184" lon="6.73061">
        <ele>2035.6</ele>
        <time>2021-08-12T12:42:08Z</time>
      </trkpt>
      <trkpt lat="45.52184" lon="6.73061">
        <ele>2035.6</ele>
        <time>2021-08-12T12:42:09Z</time>
      </trkpt>
      <trkpt lat="45.52184" lon="6.73061">
        <ele>2035.6</ele>
        <time>2021-08-12T12:42:10Z</time>
      </trkpt>
      <trkpt lat="45.52184" lon="6.73061">
        <ele>2035.6</ele>
        <time>2021-08-12T12:42:11Z</time>
      </trkpt>
      <trkpt lat="45.52184" lon="6.73061">
        <ele>2035.6</ele>
        <time>2021-08-12T12:42:12Z</time>
      </trkpt>
      <trkpt lat="45.52184" lon="6.73061">
        <ele>2035.6</ele>
        <time>2021-08-12T12:42:13Z</time>
      </trkpt>
      <trkpt lat="45.52184" lon="6.73061">
        <ele>2035.6</ele>
        <time>2021-08-12T12:42:14Z</time>
      </trkpt>
      <trkpt lat="45.52184" lon="6.73061">
        <ele>2035.6</ele>
        <time>2021-08-12T12:42:15Z</time>
      </trkpt>
      <trkpt lat="45.52184" lon="6.73061">
        <ele>2035.6</ele>
        <time>2021-08-12T12:42:16Z</time>
      </trkpt>
      <trkpt lat="45.52184" lon="6.73061">
        <ele>2035.6</ele>
        <time>2021-08-12T12:42:17Z</time>
      </trkpt>
      <trkpt lat="45.52184" lon="6.73061">
        <ele>2035.5</ele>
        <time>2021-08-12T12:42:18Z</time>
      </trkpt>
      <trkpt lat="45.52184" lon="6.73061">
        <ele>2035.5</ele>
        <time>2021-08-12T12:42:19Z</time>
      </trkpt>
      <trkpt lat="45.52184" lon="6.73061">
        <ele>2035.5</ele>
        <time>2021-08-12T12:42:20Z</time>
      </trkpt>
      <trkpt lat="45.52184" lon="6.73061">
        <ele>2035.5</ele>
        <time>2021-08-12T12:42:21Z</time>
      </trkpt>
      <trkpt lat="45.52184" lon="6.73061">
        <ele>2035.5</ele>
        <time>2021-08-12T12:42:22Z</time>
      </trkpt>
      <trkpt lat="45.52185" lon="6.73062">
        <ele>2035.4</ele>
        <time>2021-08-12T12:42:23Z</time>
      </trkpt>
      <trkpt lat="45.52185" lon="6.73062">
        <ele>2035.4</ele>
        <time>2021-08-12T12:42:24Z</time>
      </trkpt>
      <trkpt lat="45.52185" lon="6.73062">
        <ele>2035.4</ele>
        <time>2021-08-12T12:42:25Z</time>
      </trkpt>
      <trkpt lat="45.52186" lon="6.73063">
        <ele>2035.3</ele>
        <time>2021-08-12T12:42:26Z</time>
      </trkpt>
      <trkpt lat="45.52186" lon="6.73063">
        <ele>2035.3</ele>
        <time>2021-08-12T12:42:27Z</time>
      </trkpt>
      <trkpt lat="45.52186" lon="6.73064">
        <ele>2035.2</ele>
        <time>2021-08-12T12:42:28Z</time>
      </trkpt>
      <trkpt lat="45.52187" lon="6.73064">
        <ele>2035.2</ele>
        <time>2021-08-12T12:42:29Z</time>
      </trkpt>
      <trkpt lat="45.52187" lon="6.73065">
        <ele>2035.1</ele>
        <time>2021-08-12T12:42:30Z</time>
      </trkpt>
      <trkpt lat="45.52188" lon="6.73065">
        <ele>2035</ele>
        <time>2021-08-12T12:42:31Z</time>
      </trkpt>
      <trkpt lat="45.52188" lon="6.73066">
        <ele>2035</ele>
        <time>2021-08-12T12:42:32Z</time>
      </trkpt>
      <trkpt lat="45.52189" lon="6.73067">
        <ele>2034.9</ele>
        <time>2021-08-12T12:42:33Z</time>
      </trkpt>
      <trkpt lat="45.5219" lon="6.73067">
        <ele>2034.8</ele>
        <time>2021-08-12T12:42:34Z</time>
      </trkpt>
      <trkpt lat="45.5219" lon="6.73068">
        <ele>2034.7</ele>
        <time>2021-08-12T12:42:35Z</time>
      </trkpt>
      <trkpt lat="45.52191" lon="6.73068">
        <ele>2034.6</ele>
        <time>2021-08-12T12:42:36Z</time>
      </trkpt>
      <trkpt lat="45.52192" lon="6.73069">
        <ele>2034.5</ele>
        <time>2021-08-12T12:42:37Z</time>
      </trkpt>
      <trkpt lat="45.52192" lon="6.7307">
        <ele>2034.4</ele>
        <time>2021-08-12T12:42:38Z</time>
      </trkpt>
      <trkpt lat="45.52193" lon="6.7307">
        <ele>2034.4</ele>
        <time>2021-08-12T12:42:39Z</time>
      </trkpt>
      <trkpt lat="45.52194" lon="6.73071">
        <ele>2034.3</ele>
        <time>2021-08-12T12:42:40Z</time>
      </trkpt>
      <trkpt lat="45.52195" lon="6.73071">
        <ele>2034.2</ele>
        <time>2021-08-12T12:42:41Z</time>
      </trkpt>
      <trkpt lat="45.52195" lon="6.73072">
        <ele>2034.1</ele>
        <time>2021-08-12T12:42:42Z</time>
      </trkpt>
      <trkpt lat="45.52196" lon="6.73072">
        <ele>2034</ele>
        <time>2021-08-12T12:42:43Z</time>
      </trkpt>
      <trkpt lat="45.52197" lon="6.73072">
        <ele>2033.9</ele>
        <time>2021-08-12T12:42:44Z</time>
      </trkpt>
      <trkpt lat="45.52198" lon="6.73073">
        <ele>2033.8</ele>
        <time>2021-08-12T12:42:45Z</time>
      </trkpt>
      <trkpt lat="45.52199" lon="6.73073">
        <ele>2033.7</ele>
        <time>2021-08-12T12:42:46Z</time>
      </trkpt>
      <trkpt lat="45.52199" lon="6.73073">
        <ele>2033.7</ele>
        <time>2021-08-12T12:42:47Z</time>
      </trkpt>
      <trkpt lat="45.522" lon="6.73074">
        <ele>2033.6</ele>
        <time>2021-08-12T12:42:48Z</time>
      </trkpt>
      <trkpt lat="45.52201" lon="6.73074">
        <ele>2033.5</ele>
        <time>2021-08-12T12:42:49Z</time>
      </trkpt>
      <trkpt lat="45.52202" lon="6.73074">
        <ele>2033.4</ele>
        <time>2021-08-12T12:42:50Z</time>
      </trkpt>
      <trkpt lat="45.52203" lon="6.73074">
        <ele>2033.3</ele>
        <time>2021-08-12T12:42:51Z</time>
      </trkpt>
      <trkpt lat="45.52204" lon="6.73075">
        <ele>2033.3</ele>
        <time>2021-08-12T12:42:52Z</time>
      </trkpt>
      <trkpt lat="45.52205" lon="6.73075">
        <ele>2033.2</ele>
        <time>2021-08-12T12:42:53Z</time>
      </trkpt>
      <trkpt lat="45.52206" lon="6.73075">
        <ele>2033.1</ele>
        <time>2021-08-12T12:42:54Z</time>
      </trkpt>
      <trkpt lat="45.52207" lon="6.73075">
        <ele>2033</ele>
        <time>2021-08-12T12:42:55Z</time>
      </trkpt>
      <trkpt lat="45.52208" lon="6.73076">
        <ele>2032.9</ele>
        <time>2021-08-12T12:42:56Z</time>
      </trkpt>
      <trkpt lat="45.52208" lon="6.73076">
        <ele>2032.8</ele>
        <time>2021-08-12T12:42:57Z</time>
      </trkpt>
      <trkpt lat="45.52209" lon="6.73076">
        <ele>2032.7</ele>
        <time>2021-08-12T12:42:58Z</time>
      </trkpt>
      <trkpt lat="45.5221" lon="6.73077">
        <ele>2032.6</ele>
        <time>2021-08-12T12:42:59Z</time>
      </trkpt>
      <trkpt lat="45.52211" lon="6.73077">
        <ele>2032.5</ele>
        <time>2021-08-12T12:43:00Z</time>
      </trkpt>
      <trkpt lat="45.52212" lon="6.73077">
        <ele>2032.4</ele>
        <time>2021-08-12T12:43:01Z</time>
      </trkpt>
      <trkpt lat="45.52213" lon="6.73078">
        <ele>2032.4</ele>
        <time>2021-08-12T12:43:02Z</time>
      </trkpt>
      <trkpt lat="45.52214" lon="6.73078">
        <ele>2032.3</ele>
        <time>2021-08-12T12:43:03Z</time>
      </trkpt>
      <trkpt lat="45.52215" lon="6.73079">
        <ele>2032.2</ele>
        <time>2021-08-12T12:43:04Z</time>
      </trkpt>
      <trkpt lat="45.52216" lon="6.73079">
        <ele>2032.1</ele>
        <time>2021-08-12T12:43:05Z</time>
      </trkpt>
      <trkpt lat="45.52216" lon="6.7308">
        <ele>2032.1</ele>
        <time>2021-08-12T12:43:06Z</time>
      </trkpt>
      <trkpt lat="45.52216" lon="6.7308">
        <ele>2032</ele>
        <time>2021-08-12T12:43:07Z</time>
      </trkpt>
      <trkpt lat="45.52216" lon="6.7308">
        <ele>2032</ele>
        <time>2021-08-12T12:43:08Z</time>
      </trkpt>
      <trkpt lat="45.52216" lon="6.7308">
        <ele>2032</ele>
        <time>2021-08-12T12:43:09Z</time>
      </trkpt>
      <trkpt lat="45.52217" lon="6.7308">
        <ele>2032</ele>
        <time>2021-08-12T12:43:10Z</time>
      </trkpt>
      <trkpt lat="45.52217" lon="6.73081">
        <ele>2031.9</ele>
        <time>2021-08-12T12:43:11Z</time>
      </trkpt>
      <trkpt lat="45.52218" lon="6.73082">
        <ele>2031.8</ele>
        <time>2021-08-12T12:43:12Z</time>
      </trkpt>
      <trkpt lat="45.52219" lon="6.73083">
        <ele>2031.7</ele>
        <time>2021-08-12T12:43:13Z</time>
      </trkpt>
      <trkpt lat="45.52219" lon="6.73084">
        <ele>2031.6</ele>
        <time>2021-08-12T12:43:14Z</time>
      </trkpt>
      <trkpt lat="45.5222" lon="6.73085">
        <ele>2031.5</ele>
        <time>2021-08-12T12:43:15Z</time>
      </trkpt>
      <trkpt lat="45.5222" lon="6.73087">
        <ele>2031.5</ele>
        <time>2021-08-12T12:43:16Z</time>
      </trkpt>
      <trkpt lat="45.52221" lon="6.73088">
        <ele>2031.4</ele>
        <time>2021-08-12T12:43:17Z</time>
      </trkpt>
      <trkpt lat="45.52222" lon="6.73089">
        <ele>2031.3</ele>
        <time>2021-08-12T12:43:18Z</time>
      </trkpt>
      <trkpt lat="45.52222" lon="6.73091">
        <ele>2031.2</ele>
        <time>2021-08-12T12:43:19Z</time>
      </trkpt>
      <trkpt lat="45.52223" lon="6.73092">
        <ele>2031.1</ele>
        <time>2021-08-12T12:43:20Z</time>
      </trkpt>
      <trkpt lat="45.52223" lon="6.73093">
        <ele>2031</ele>
        <time>2021-08-12T12:43:21Z</time>
      </trkpt>
      <trkpt lat="45.52224" lon="6.73095">
        <ele>2030.9</ele>
        <time>2021-08-12T12:43:22Z</time>
      </trkpt>
      <trkpt lat="45.52224" lon="6.73096">
        <ele>2030.8</ele>
        <time>2021-08-12T12:43:23Z</time>
      </trkpt>
      <trkpt lat="45.52225" lon="6.73097">
        <ele>2030.7</ele>
        <time>2021-08-12T12:43:24Z</time>
      </trkpt>
      <trkpt lat="45.52225" lon="6.73099">
        <ele>2030.6</ele>
        <time>2021-08-12T12:43:25Z</time>
      </trkpt>
      <trkpt lat="45.52226" lon="6.731">
        <ele>2030.5</ele>
        <time>2021-08-12T12:43:26Z</time>
      </trkpt>
      <trkpt lat="45.52226" lon="6.73101">
        <ele>2030.4</ele>
        <time>2021-08-12T12:43:27Z</time>
      </trkpt>
      <trkpt lat="45.52227" lon="6.73103">
        <ele>2030.3</ele>
        <time>2021-08-12T12:43:28Z</time>
      </trkpt>
      <trkpt lat="45.52227" lon="6.73104">
        <ele>2030.2</ele>
        <time>2021-08-12T12:43:29Z</time>
      </trkpt>
      <trkpt lat="45.52228" lon="6.73105">
        <ele>2030.1</ele>
        <time>2021-08-12T12:43:30Z</time>
      </trkpt>
      <trkpt lat="45.52228" lon="6.73106">
        <ele>2030</ele>
        <time>2021-08-12T12:43:31Z</time>
      </trkpt>
      <trkpt lat="45.52229" lon="6.73108">
        <ele>2029.9</ele>
        <time>2021-08-12T12:43:32Z</time>
      </trkpt>
      <trkpt lat="45.52229" lon="6.73109">
        <ele>2029.8</ele>
        <time>2021-08-12T12:43:33Z</time>
      </trkpt>
      <trkpt lat="45.5223" lon="6.7311">
        <ele>2029.7</ele>
        <time>2021-08-12T12:43:34Z</time>
      </trkpt>
      <trkpt lat="45.5223" lon="6.73112">
        <ele>2029.6</ele>
        <time>2021-08-12T12:43:35Z</time>
      </trkpt>
      <trkpt lat="45.52231" lon="6.73113">
        <ele>2029.5</ele>
        <time>2021-08-12T12:43:36Z</time>
      </trkpt>
      <trkpt lat="45.52231" lon="6.73114">
        <ele>2029.4</ele>
        <time>2021-08-12T12:43:37Z</time>
      </trkpt>
      <trkpt lat="45.52232" lon="6.73115">
        <ele>2029.3</ele>
        <time>2021-08-12T12:43:38Z</time>
      </trkpt>
      <trkpt lat="45.52232" lon="6.73117">
        <ele>2029.2</ele>
        <time>2021-08-12T12:43:39Z</time>
      </trkpt>
      <trkpt lat="45.52233" lon="6.73118">
        <ele>2029</ele>
        <time>2021-08-12T12:43:40Z</time>
      </trkpt>
      <trkpt lat="45.52233" lon="6.73119">
        <ele>2028.9</ele>
        <time>2021-08-12T12:43:41Z</time>
      </trkpt>
      <trkpt lat="45.52234" lon="6.7312">
        <ele>2028.9</ele>
        <time>2021-08-12T12:43:42Z</time>
      </trkpt>
      <trkpt lat="45.52235" lon="6.73122">
        <ele>2028.8</ele>
        <time>2021-08-12T12:43:43Z</time>
      </trkpt>
      <trkpt lat="45.52235" lon="6.73123">
        <ele>2028.7</ele>
        <time>2021-08-12T12:43:44Z</time>
      </trkpt>
      <trkpt lat="45.52236" lon="6.73124">
        <ele>2028.6</ele>
        <time>2021-08-12T12:43:45Z</time>
      </trkpt>
      <trkpt lat="45.52236" lon="6.73125">
        <ele>2028.5</ele>
        <time>2021-08-12T12:43:46Z</time>
      </trkpt>
      <trkpt lat="45.52237" lon="6.73126">
        <ele>2028.4</ele>
        <time>2021-08-12T12:43:47Z</time>
      </trkpt>
      <trkpt lat="45.52237" lon="6.73127">
        <ele>2028.3</ele>
        <time>2021-08-12T12:43:48Z</time>
      </trkpt>
      <trkpt lat="45.52238" lon="6.73129">
        <ele>2028.2</ele>
        <time>2021-08-12T12:43:49Z</time>
      </trkpt>
      <trkpt lat="45.52239" lon="6.7313">
        <ele>2028.1</ele>
        <time>2021-08-12T12:43:50Z</time>
      </trkpt>
      <trkpt lat="45.52239" lon="6.73131">
        <ele>2028</ele>
        <time>2021-08-12T12:43:51Z</time>
      </trkpt>
      <trkpt lat="45.5224" lon="6.73132">
        <ele>2027.9</ele>
        <time>2021-08-12T12:43:52Z</time>
      </trkpt>
      <trkpt lat="45.5224" lon="6.73133">
        <ele>2027.8</ele>
        <time>2021-08-12T12:43:53Z</time>
      </trkpt>
      <trkpt lat="45.52241" lon="6.73134">
        <ele>2027.7</ele>
        <time>2021-08-12T12:43:54Z</time>
      </trkpt>
      <trkpt lat="45.52241" lon="6.73135">
        <ele>2027.6</ele>
        <time>2021-08-12T12:43:55Z</time>
      </trkpt>
      <trkpt lat="45.52242" lon="6.73136">
        <ele>2027.5</ele>
        <time>2021-08-12T12:43:56Z</time>
      </trkpt>
      <trkpt lat="45.52242" lon="6.73137">
        <ele>2027.4</ele>
        <time>2021-08-12T12:43:57Z</time>
      </trkpt>
      <trkpt lat="45.52243" lon="6.73138">
        <ele>2027.4</ele>
        <time>2021-08-12T12:43:58Z</time>
      </trkpt>
      <trkpt lat="45.52244" lon="6.73139">
        <ele>2027.3</ele>
        <time>2021-08-12T12:43:59Z</time>
      </trkpt>
      <trkpt lat="45.52244" lon="6.7314">
        <ele>2027.2</ele>
        <time>2021-08-12T12:44:00Z</time>
      </trkpt>
      <trkpt lat="45.52245" lon="6.73141">
        <ele>2027.1</ele>
        <time>2021-08-12T12:44:01Z</time>
      </trkpt>
      <trkpt lat="45.52245" lon="6.73142">
        <ele>2027</ele>
        <time>2021-08-12T12:44:02Z</time>
      </trkpt>
      <trkpt lat="45.52246" lon="6.73143">
        <ele>2027</ele>
        <time>2021-08-12T12:44:03Z</time>
      </trkpt>
      <trkpt lat="45.52246" lon="6.73144">
        <ele>2026.9</ele>
        <time>2021-08-12T12:44:04Z</time>
      </trkpt>
      <trkpt lat="45.52247" lon="6.73145">
        <ele>2026.8</ele>
        <time>2021-08-12T12:44:05Z</time>
      </trkpt>
      <trkpt lat="45.52248" lon="6.73146">
        <ele>2026.7</ele>
        <time>2021-08-12T12:44:06Z</time>
      </trkpt>
      <trkpt lat="45.52248" lon="6.73147">
        <ele>2026.6</ele>
        <time>2021-08-12T12:44:07Z</time>
      </trkpt>
      <trkpt lat="45.52249" lon="6.73148">
        <ele>2026.5</ele>
        <time>2021-08-12T12:44:08Z</time>
      </trkpt>
      <trkpt lat="45.52249" lon="6.73149">
        <ele>2026.4</ele>
        <time>2021-08-12T12:44:09Z</time>
      </trkpt>
      <trkpt lat="45.5225" lon="6.7315">
        <ele>2026.3</ele>
        <time>2021-08-12T12:44:10Z</time>
      </trkpt>
      <trkpt lat="45.5225" lon="6.73151">
        <ele>2026.2</ele>
        <time>2021-08-12T12:44:11Z</time>
      </trkpt>
      <trkpt lat="45.52251" lon="6.73152">
        <ele>2026.1</ele>
        <time>2021-08-12T12:44:12Z</time>
      </trkpt>
      <trkpt lat="45.52251" lon="6.73153">
        <ele>2026.1</ele>
        <time>2021-08-12T12:44:13Z</time>
      </trkpt>
      <trkpt lat="45.52252" lon="6.73154">
        <ele>2025.9</ele>
        <time>2021-08-12T12:44:14Z</time>
      </trkpt>
      <trkpt lat="45.52253" lon="6.73155">
        <ele>2025.9</ele>
        <time>2021-08-12T12:44:15Z</time>
      </trkpt>
      <trkpt lat="45.52253" lon="6.73156">
        <ele>2025.8</ele>
        <time>2021-08-12T12:44:16Z</time>
      </trkpt>
      <trkpt lat="45.52254" lon="6.73157">
        <ele>2025.7</ele>
        <time>2021-08-12T12:44:17Z</time>
      </trkpt>
      <trkpt lat="45.52254" lon="6.73158">
        <ele>2025.6</ele>
        <time>2021-08-12T12:44:18Z</time>
      </trkpt>
      <trkpt lat="45.52255" lon="6.73159">
        <ele>2025.5</ele>
        <time>2021-08-12T12:44:19Z</time>
      </trkpt>
      <trkpt lat="45.52255" lon="6.7316">
        <ele>2025.4</ele>
        <time>2021-08-12T12:44:20Z</time>
      </trkpt>
      <trkpt lat="45.52256" lon="6.73161">
        <ele>2025.3</ele>
        <time>2021-08-12T12:44:21Z</time>
      </trkpt>
      <trkpt lat="45.52256" lon="6.73162">
        <ele>2025.2</ele>
        <time>2021-08-12T12:44:22Z</time>
      </trkpt>
      <trkpt lat="45.52257" lon="6.73163">
        <ele>2025.1</ele>
        <time>2021-08-12T12:44:23Z</time>
      </trkpt>
      <trkpt lat="45.52257" lon="6.73164">
        <ele>2025</ele>
        <time>2021-08-12T12:44:24Z</time>
      </trkpt>
      <trkpt lat="45.52258" lon="6.73165">
        <ele>2024.9</ele>
        <time>2021-08-12T12:44:25Z</time>
      </trkpt>
      <trkpt lat="45.52258" lon="6.73166">
        <ele>2024.8</ele>
        <time>2021-08-12T12:44:26Z</time>
      </trkpt>
      <trkpt lat="45.52259" lon="6.73167">
        <ele>2024.7</ele>
        <time>2021-08-12T12:44:27Z</time>
      </trkpt>
      <trkpt lat="45.52259" lon="6.73168">
        <ele>2024.6</ele>
        <time>2021-08-12T12:44:28Z</time>
      </trkpt>
      <trkpt lat="45.5226" lon="6.73169">
        <ele>2024.5</ele>
        <time>2021-08-12T12:44:29Z</time>
      </trkpt>
      <trkpt lat="45.52261" lon="6.7317">
        <ele>2024.4</ele>
        <time>2021-08-12T12:44:30Z</time>
      </trkpt>
      <trkpt lat="45.52261" lon="6.73171">
        <ele>2024.3</ele>
        <time>2021-08-12T12:44:31Z</time>
      </trkpt>
      <trkpt lat="45.52262" lon="6.73172">
        <ele>2024.3</ele>
        <time>2021-08-12T12:44:32Z</time>
      </trkpt>
      <trkpt lat="45.52262" lon="6.73172">
        <ele>2024.2</ele>
        <time>2021-08-12T12:44:33Z</time>
      </trkpt>
      <trkpt lat="45.52263" lon="6.73173">
        <ele>2024.1</ele>
        <time>2021-08-12T12:44:34Z</time>
      </trkpt>
      <trkpt lat="45.52264" lon="6.73174">
        <ele>2024</ele>
        <time>2021-08-12T12:44:35Z</time>
      </trkpt>
      <trkpt lat="45.52264" lon="6.73175">
        <ele>2023.9</ele>
        <time>2021-08-12T12:44:36Z</time>
      </trkpt>
      <trkpt lat="45.52265" lon="6.73176">
        <ele>2023.8</ele>
        <time>2021-08-12T12:44:37Z</time>
      </trkpt>
      <trkpt lat="45.52266" lon="6.73176">
        <ele>2023.7</ele>
        <time>2021-08-12T12:44:38Z</time>
      </trkpt>
      <trkpt lat="45.52266" lon="6.73177">
        <ele>2023.7</ele>
        <time>2021-08-12T12:44:39Z</time>
      </trkpt>
      <trkpt lat="45.52267" lon="6.73178">
        <ele>2023.6</ele>
        <time>2021-08-12T12:44:40Z</time>
      </trkpt>
      <trkpt lat="45.52268" lon="6.73179">
        <ele>2023.5</ele>
        <time>2021-08-12T12:44:41Z</time>
      </trkpt>
      <trkpt lat="45.52269" lon="6.73179">
        <ele>2023.4</ele>
        <time>2021-08-12T12:44:42Z</time>
      </trkpt>
      <trkpt lat="45.52269" lon="6.7318">
        <ele>2023.3</ele>
        <time>2021-08-12T12:44:43Z</time>
      </trkpt>
      <trkpt lat="45.5227" lon="6.73181">
        <ele>2023.2</ele>
        <time>2021-08-12T12:44:44Z</time>
      </trkpt>
      <trkpt lat="45.52271" lon="6.73181">
        <ele>2023.2</ele>
        <time>2021-08-12T12:44:45Z</time>
      </trkpt>
      <trkpt lat="45.52272" lon="6.73182">
        <ele>2023.1</ele>
        <time>2021-08-12T12:44:46Z</time>
      </trkpt>
      <trkpt lat="45.52273" lon="6.73182">
        <ele>2023</ele>
        <time>2021-08-12T12:44:47Z</time>
      </trkpt>
      <trkpt lat="45.52273" lon="6.73183">
        <ele>2022.9</ele>
        <time>2021-08-12T12:44:48Z</time>
      </trkpt>
      <trkpt lat="45.52274" lon="6.73184">
        <ele>2022.8</ele>
        <time>2021-08-12T12:44:49Z</time>
      </trkpt>
      <trkpt lat="45.52275" lon="6.73184">
        <ele>2022.7</ele>
        <time>2021-08-12T12:44:50Z</time>
      </trkpt>
      <trkpt lat="45.52276" lon="6.73185">
        <ele>2022.6</ele>
        <time>2021-08-12T12:44:51Z</time>
      </trkpt>
      <trkpt lat="45.52277" lon="6.73186">
        <ele>2022.5</ele>
        <time>2021-08-12T12:44:52Z</time>
      </trkpt>
      <trkpt lat="45.52277" lon="6.73186">
        <ele>2022.4</ele>
        <time>2021-08-12T12:44:53Z</time>
      </trkpt>
      <trkpt lat="45.52278" lon="6.73187">
        <ele>2022.3</ele>
        <time>2021-08-12T12:44:54Z</time>
      </trkpt>
      <trkpt lat="45.52279" lon="6.73188">
        <ele>2022.2</ele>
        <time>2021-08-12T12:44:55Z</time>
      </trkpt>
      <trkpt lat="45.5228" lon="6.73189">
        <ele>2022.1</ele>
        <time>2021-08-12T12:44:56Z</time>
      </trkpt>
      <trkpt lat="45.52281" lon="6.73189">
        <ele>2022.1</ele>
        <time>2021-08-12T12:44:57Z</time>
      </trkpt>
      <trkpt lat="45.52281" lon="6.7319">
        <ele>2022</ele>
        <time>2021-08-12T12:44:58Z</time>
      </trkpt>
      <trkpt lat="45.52282" lon="6.73191">
        <ele>2021.9</ele>
        <time>2021-08-12T12:44:59Z</time>
      </trkpt>
      <trkpt lat="45.52283" lon="6.73192">
        <ele>2021.8</ele>
        <time>2021-08-12T12:45:00Z</time>
      </trkpt>
      <trkpt lat="45.52283" lon="6.73193">
        <ele>2021.8</ele>
        <time>2021-08-12T12:45:01Z</time>
      </trkpt>
      <trkpt lat="45.52284" lon="6.73194">
        <ele>2021.7</ele>
        <time>2021-08-12T12:45:02Z</time>
      </trkpt>
      <trkpt lat="45.52285" lon="6.73194">
        <ele>2021.6</ele>
        <time>2021-08-12T12:45:03Z</time>
      </trkpt>
      <trkpt lat="45.52285" lon="6.73195">
        <ele>2021.5</ele>
        <time>2021-08-12T12:45:04Z</time>
      </trkpt>
      <trkpt lat="45.52286" lon="6.73196">
        <ele>2021.4</ele>
        <time>2021-08-12T12:45:05Z</time>
      </trkpt>
      <trkpt lat="45.52286" lon="6.73197">
        <ele>2021.4</ele>
        <time>2021-08-12T12:45:06Z</time>
      </trkpt>
      <trkpt lat="45.52287" lon="6.73198">
        <ele>2021.3</ele>
        <time>2021-08-12T12:45:07Z</time>
      </trkpt>
      <trkpt lat="45.52287" lon="6.73199">
        <ele>2021.2</ele>
        <time>2021-08-12T12:45:08Z</time>
      </trkpt>
      <trkpt lat="45.52288" lon="6.732">
        <ele>2021.1</ele>
        <time>2021-08-12T12:45:09Z</time>
      </trkpt>
      <trkpt lat="45.52289" lon="6.73201">
        <ele>2021</ele>
        <time>2021-08-12T12:45:10Z</time>
      </trkpt>
      <trkpt lat="45.52289" lon="6.73202">
        <ele>2020.9</ele>
        <time>2021-08-12T12:45:11Z</time>
      </trkpt>
      <trkpt lat="45.5229" lon="6.73203">
        <ele>2020.9</ele>
        <time>2021-08-12T12:45:12Z</time>
      </trkpt>
      <trkpt lat="45.5229" lon="6.73204">
        <ele>2020.8</ele>
        <time>2021-08-12T12:45:13Z</time>
      </trkpt>
      <trkpt lat="45.52291" lon="6.73205">
        <ele>2020.7</ele>
        <time>2021-08-12T12:45:14Z</time>
      </trkpt>
      <trkpt lat="45.52291" lon="6.73205">
        <ele>2020.6</ele>
        <time>2021-08-12T12:45:15Z</time>
      </trkpt>
      <trkpt lat="45.52292" lon="6.73206">
        <ele>2020.5</ele>
        <time>2021-08-12T12:45:16Z</time>
      </trkpt>
      <trkpt lat="45.52293" lon="6.73207">
        <ele>2020.4</ele>
        <time>2021-08-12T12:45:17Z</time>
      </trkpt>
      <trkpt lat="45.52293" lon="6.73208">
        <ele>2020.4</ele>
        <time>2021-08-12T12:45:18Z</time>
      </trkpt>
      <trkpt lat="45.52294" lon="6.73208">
        <ele>2020.3</ele>
        <time>2021-08-12T12:45:19Z</time>
      </trkpt>
      <trkpt lat="45.52295" lon="6.73209">
        <ele>2020.2</ele>
        <time>2021-08-12T12:45:20Z</time>
      </trkpt>
      <trkpt lat="45.52295" lon="6.7321">
        <ele>2020.1</ele>
        <time>2021-08-12T12:45:21Z</time>
      </trkpt>
      <trkpt lat="45.52296" lon="6.7321">
        <ele>2020</ele>
        <time>2021-08-12T12:45:22Z</time>
      </trkpt>
      <trkpt lat="45.52297" lon="6.73211">
        <ele>2019.9</ele>
        <time>2021-08-12T12:45:23Z</time>
      </trkpt>
      <trkpt lat="45.52298" lon="6.73211">
        <ele>2019.8</ele>
        <time>2021-08-12T12:45:24Z</time>
      </trkpt>
      <trkpt lat="45.52298" lon="6.73212">
        <ele>2019.7</ele>
        <time>2021-08-12T12:45:25Z</time>
      </trkpt>
      <trkpt lat="45.52299" lon="6.73212">
        <ele>2019.6</ele>
        <time>2021-08-12T12:45:26Z</time>
      </trkpt>
      <trkpt lat="45.523" lon="6.73213">
        <ele>2019.6</ele>
        <time>2021-08-12T12:45:27Z</time>
      </trkpt>
      <trkpt lat="45.52301" lon="6.73213">
        <ele>2019.5</ele>
        <time>2021-08-12T12:45:28Z</time>
      </trkpt>
      <trkpt lat="45.52302" lon="6.73213">
        <ele>2019.4</ele>
        <time>2021-08-12T12:45:29Z</time>
      </trkpt>
      <trkpt lat="45.52302" lon="6.73214">
        <ele>2019.3</ele>
        <time>2021-08-12T12:45:30Z</time>
      </trkpt>
      <trkpt lat="45.52303" lon="6.73214">
        <ele>2019.2</ele>
        <time>2021-08-12T12:45:31Z</time>
      </trkpt>
      <trkpt lat="45.52304" lon="6.73214">
        <ele>2019.1</ele>
        <time>2021-08-12T12:45:32Z</time>
      </trkpt>
      <trkpt lat="45.52305" lon="6.73214">
        <ele>2019</ele>
        <time>2021-08-12T12:45:33Z</time>
      </trkpt>
      <trkpt lat="45.52306" lon="6.73215">
        <ele>2018.9</ele>
        <time>2021-08-12T12:45:34Z</time>
      </trkpt>
      <trkpt lat="45.52307" lon="6.73215">
        <ele>2018.8</ele>
        <time>2021-08-12T12:45:35Z</time>
      </trkpt>
      <trkpt lat="45.52308" lon="6.73215">
        <ele>2018.7</ele>
        <time>2021-08-12T12:45:36Z</time>
      </trkpt>
      <trkpt lat="45.52308" lon="6.73215">
        <ele>2018.5</ele>
        <time>2021-08-12T12:45:37Z</time>
      </trkpt>
      <trkpt lat="45.52309" lon="6.73215">
        <ele>2018.4</ele>
        <time>2021-08-12T12:45:38Z</time>
      </trkpt>
      <trkpt lat="45.5231" lon="6.73216">
        <ele>2018.3</ele>
        <time>2021-08-12T12:45:39Z</time>
      </trkpt>
      <trkpt lat="45.52311" lon="6.73216">
        <ele>2018.2</ele>
        <time>2021-08-12T12:45:40Z</time>
      </trkpt>
      <trkpt lat="45.52312" lon="6.73216">
        <ele>2018.1</ele>
        <time>2021-08-12T12:45:41Z</time>
      </trkpt>
      <trkpt lat="45.52313" lon="6.73216">
        <ele>2018</ele>
        <time>2021-08-12T12:45:42Z</time>
      </trkpt>
      <trkpt lat="45.52314" lon="6.73216">
        <ele>2017.9</ele>
        <time>2021-08-12T12:45:43Z</time>
      </trkpt>
      <trkpt lat="45.52314" lon="6.73216">
        <ele>2017.7</ele>
        <time>2021-08-12T12:45:44Z</time>
      </trkpt>
      <trkpt lat="45.52315" lon="6.73216">
        <ele>2017.6</ele>
        <time>2021-08-12T12:45:45Z</time>
      </trkpt>
      <trkpt lat="45.52316" lon="6.73216">
        <ele>2017.5</ele>
        <time>2021-08-12T12:45:46Z</time>
      </trkpt>
      <trkpt lat="45.52317" lon="6.73217">
        <ele>2017.4</ele>
        <time>2021-08-12T12:45:47Z</time>
      </trkpt>
      <trkpt lat="45.52318" lon="6.73217">
        <ele>2017.2</ele>
        <time>2021-08-12T12:45:48Z</time>
      </trkpt>
      <trkpt lat="45.52319" lon="6.73217">
        <ele>2017.1</ele>
        <time>2021-08-12T12:45:49Z</time>
      </trkpt>
      <trkpt lat="45.5232" lon="6.73217">
        <ele>2017</ele>
        <time>2021-08-12T12:45:50Z</time>
      </trkpt>
      <trkpt lat="45.5232" lon="6.73217">
        <ele>2016.9</ele>
        <time>2021-08-12T12:45:51Z</time>
      </trkpt>
      <trkpt lat="45.52321" lon="6.73216">
        <ele>2016.7</ele>
        <time>2021-08-12T12:45:52Z</time>
      </trkpt>
      <trkpt lat="45.52322" lon="6.73216">
        <ele>2016.6</ele>
        <time>2021-08-12T12:45:53Z</time>
      </trkpt>
      <trkpt lat="45.52323" lon="6.73216">
        <ele>2016.5</ele>
        <time>2021-08-12T12:45:54Z</time>
      </trkpt>
      <trkpt lat="45.52324" lon="6.73216">
        <ele>2016.4</ele>
        <time>2021-08-12T12:45:55Z</time>
      </trkpt>
      <trkpt lat="45.52325" lon="6.73216">
        <ele>2016.2</ele>
        <time>2021-08-12T12:45:56Z</time>
      </trkpt>
      <trkpt lat="45.52326" lon="6.73216">
        <ele>2016.1</ele>
        <time>2021-08-12T12:45:57Z</time>
      </trkpt>
      <trkpt lat="45.52326" lon="6.73215">
        <ele>2016</ele>
        <time>2021-08-12T12:45:58Z</time>
      </trkpt>
      <trkpt lat="45.52327" lon="6.73215">
        <ele>2015.9</ele>
        <time>2021-08-12T12:45:59Z</time>
      </trkpt>
      <trkpt lat="45.52328" lon="6.73215">
        <ele>2015.8</ele>
        <time>2021-08-12T12:46:00Z</time>
      </trkpt>
      <trkpt lat="45.52329" lon="6.73215">
        <ele>2015.6</ele>
        <time>2021-08-12T12:46:01Z</time>
      </trkpt>
      <trkpt lat="45.5233" lon="6.73214">
        <ele>2015.5</ele>
        <time>2021-08-12T12:46:02Z</time>
      </trkpt>
      <trkpt lat="45.52331" lon="6.73214">
        <ele>2015.4</ele>
        <time>2021-08-12T12:46:03Z</time>
      </trkpt>
      <trkpt lat="45.52331" lon="6.73213">
        <ele>2015.3</ele>
        <time>2021-08-12T12:46:04Z</time>
      </trkpt>
      <trkpt lat="45.52332" lon="6.73213">
        <ele>2015.2</ele>
        <time>2021-08-12T12:46:05Z</time>
      </trkpt>
      <trkpt lat="45.52333" lon="6.73213">
        <ele>2015</ele>
        <time>2021-08-12T12:46:06Z</time>
      </trkpt>
      <trkpt lat="45.52334" lon="6.73212">
        <ele>2014.9</ele>
        <time>2021-08-12T12:46:07Z</time>
      </trkpt>
      <trkpt lat="45.52335" lon="6.73212">
        <ele>2014.8</ele>
        <time>2021-08-12T12:46:08Z</time>
      </trkpt>
      <trkpt lat="45.52336" lon="6.73211">
        <ele>2014.7</ele>
        <time>2021-08-12T12:46:09Z</time>
      </trkpt>
      <trkpt lat="45.52336" lon="6.73211">
        <ele>2014.6</ele>
        <time>2021-08-12T12:46:10Z</time>
      </trkpt>
      <trkpt lat="45.52337" lon="6.7321">
        <ele>2014.5</ele>
        <time>2021-08-12T12:46:11Z</time>
      </trkpt>
      <trkpt lat="45.52338" lon="6.7321">
        <ele>2014.4</ele>
        <time>2021-08-12T12:46:12Z</time>
      </trkpt>
      <trkpt lat="45.52339" lon="6.7321">
        <ele>2014.3</ele>
        <time>2021-08-12T12:46:13Z</time>
      </trkpt>
      <trkpt lat="45.5234" lon="6.73209">
        <ele>2014.2</ele>
        <time>2021-08-12T12:46:14Z</time>
      </trkpt>
      <trkpt lat="45.5234" lon="6.73209">
        <ele>2014.1</ele>
        <time>2021-08-12T12:46:15Z</time>
      </trkpt>
      <trkpt lat="45.52341" lon="6.73208">
        <ele>2014</ele>
        <time>2021-08-12T12:46:16Z</time>
      </trkpt>
      <trkpt lat="45.52342" lon="6.73208">
        <ele>2013.9</ele>
        <time>2021-08-12T12:46:17Z</time>
      </trkpt>
      <trkpt lat="45.52343" lon="6.73208">
        <ele>2013.8</ele>
        <time>2021-08-12T12:46:18Z</time>
      </trkpt>
      <trkpt lat="45.52343" lon="6.73207">
        <ele>2013.7</ele>
        <time>2021-08-12T12:46:19Z</time>
      </trkpt>
      <trkpt lat="45.52344" lon="6.73207">
        <ele>2013.6</ele>
        <time>2021-08-12T12:46:20Z</time>
      </trkpt>
      <trkpt lat="45.52345" lon="6.73207">
        <ele>2013.5</ele>
        <time>2021-08-12T12:46:21Z</time>
      </trkpt>
      <trkpt lat="45.52346" lon="6.73206">
        <ele>2013.4</ele>
        <time>2021-08-12T12:46:22Z</time>
      </trkpt>
      <trkpt lat="45.52347" lon="6.73206">
        <ele>2013.3</ele>
        <time>2021-08-12T12:46:23Z</time>
      </trkpt>
      <trkpt lat="45.52347" lon="6.73206">
        <ele>2013.2</ele>
        <time>2021-08-12T12:46:24Z</time>
      </trkpt>
      <trkpt lat="45.52348" lon="6.73205">
        <ele>2013.1</ele>
        <time>2021-08-12T12:46:25Z</time>
      </trkpt>
      <trkpt lat="45.52349" lon="6.73205">
        <ele>2013</ele>
        <time>2021-08-12T12:46:26Z</time>
      </trkpt>
      <trkpt lat="45.5235" lon="6.73205">
        <ele>2012.9</ele>
        <time>2021-08-12T12:46:27Z</time>
      </trkpt>
      <trkpt lat="45.52351" lon="6.73204">
        <ele>2012.8</ele>
        <time>2021-08-12T12:46:28Z</time>
      </trkpt>
      <trkpt lat="45.52351" lon="6.73204">
        <ele>2012.7</ele>
        <time>2021-08-12T12:46:29Z</time>
      </trkpt>
      <trkpt lat="45.52352" lon="6.73204">
        <ele>2012.6</ele>
        <time>2021-08-12T12:46:30Z</time>
      </trkpt>
      <trkpt lat="45.52353" lon="6.73204">
        <ele>2012.5</ele>
        <time>2021-08-12T12:46:31Z</time>
      </trkpt>
      <trkpt lat="45.52354" lon="6.73204">
        <ele>2012.4</ele>
        <time>2021-08-12T12:46:32Z</time>
      </trkpt>
      <trkpt lat="45.52355" lon="6.73203">
        <ele>2012.3</ele>
        <time>2021-08-12T12:46:33Z</time>
      </trkpt>
      <trkpt lat="45.52355" lon="6.73203">
        <ele>2012.2</ele>
        <time>2021-08-12T12:46:34Z</time>
      </trkpt>
      <trkpt lat="45.52356" lon="6.73203">
        <ele>2012</ele>
        <time>2021-08-12T12:46:35Z</time>
      </trkpt>
      <trkpt lat="45.52357" lon="6.73203">
        <ele>2011.9</ele>
        <time>2021-08-12T12:46:36Z</time>
      </trkpt>
      <trkpt lat="45.52358" lon="6.73203">
        <ele>2011.8</ele>
        <time>2021-08-12T12:46:37Z</time>
      </trkpt>
      <trkpt lat="45.52359" lon="6.73203">
        <ele>2011.7</ele>
        <time>2021-08-12T12:46:38Z</time>
      </trkpt>
      <trkpt lat="45.5236" lon="6.73202">
        <ele>2011.5</ele>
        <time>2021-08-12T12:46:39Z</time>
      </trkpt>
      <trkpt lat="45.52361" lon="6.73202">
        <ele>2011.4</ele>
        <time>2021-08-12T12:46:40Z</time>
      </trkpt>
      <trkpt lat="45.52361" lon="6.73202">
        <ele>2011.3</ele>
        <time>2021-08-12T12:46:41Z</time>
      </trkpt>
      <trkpt lat="45.52362" lon="6.73202">
        <ele>2011.2</ele>
        <time>2021-08-12T12:46:42Z</time>
      </trkpt>
      <trkpt lat="45.52363" lon="6.73202">
        <ele>2011</ele>
        <time>2021-08-12T12:46:43Z</time>
      </trkpt>
      <trkpt lat="45.52364" lon="6.73202">
        <ele>2010.9</ele>
        <time>2021-08-12T12:46:44Z</time>
      </trkpt>
      <trkpt lat="45.52365" lon="6.73202">
        <ele>2010.8</ele>
        <time>2021-08-12T12:46:45Z</time>
      </trkpt>
      <trkpt lat="45.52366" lon="6.73202">
        <ele>2010.6</ele>
        <time>2021-08-12T12:46:46Z</time>
      </trkpt>
      <trkpt lat="45.52367" lon="6.73201">
        <ele>2010.5</ele>
        <time>2021-08-12T12:46:47Z</time>
      </trkpt>
      <trkpt lat="45.52368" lon="6.73201">
        <ele>2010.4</ele>
        <time>2021-08-12T12:46:48Z</time>
      </trkpt>
      <trkpt lat="45.52368" lon="6.73201">
        <ele>2010.3</ele>
        <time>2021-08-12T12:46:49Z</time>
      </trkpt>
      <trkpt lat="45.52369" lon="6.73201">
        <ele>2010.2</ele>
        <time>2021-08-12T12:46:50Z</time>
      </trkpt>
      <trkpt lat="45.5237" lon="6.73201">
        <ele>2010</ele>
        <time>2021-08-12T12:46:51Z</time>
      </trkpt>
      <trkpt lat="45.52371" lon="6.732">
        <ele>2009.9</ele>
        <time>2021-08-12T12:46:52Z</time>
      </trkpt>
      <trkpt lat="45.52372" lon="6.732">
        <ele>2009.8</ele>
        <time>2021-08-12T12:46:53Z</time>
      </trkpt>
      <trkpt lat="45.52372" lon="6.732">
        <ele>2009.7</ele>
        <time>2021-08-12T12:46:54Z</time>
      </trkpt>
      <trkpt lat="45.52373" lon="6.73199">
        <ele>2009.6</ele>
        <time>2021-08-12T12:46:55Z</time>
      </trkpt>
      <trkpt lat="45.52374" lon="6.73199">
        <ele>2009.4</ele>
        <time>2021-08-12T12:46:56Z</time>
      </trkpt>
      <trkpt lat="45.52375" lon="6.73199">
        <ele>2009.3</ele>
        <time>2021-08-12T12:46:57Z</time>
      </trkpt>
      <trkpt lat="45.52375" lon="6.73198">
        <ele>2009.2</ele>
        <time>2021-08-12T12:46:58Z</time>
      </trkpt>
      <trkpt lat="45.52376" lon="6.73198">
        <ele>2009.1</ele>
        <time>2021-08-12T12:46:59Z</time>
      </trkpt>
      <trkpt lat="45.52377" lon="6.73197">
        <ele>2009</ele>
        <time>2021-08-12T12:47:00Z</time>
      </trkpt>
      <trkpt lat="45.52377" lon="6.73197">
        <ele>2008.9</ele>
        <time>2021-08-12T12:47:01Z</time>
      </trkpt>
      <trkpt lat="45.52378" lon="6.73196">
        <ele>2008.8</ele>
        <time>2021-08-12T12:47:02Z</time>
      </trkpt>
      <trkpt lat="45.52379" lon="6.73196">
        <ele>2008.7</ele>
        <time>2021-08-12T12:47:03Z</time>
      </trkpt>
      <trkpt lat="45.52379" lon="6.73195">
        <ele>2008.5</ele>
        <time>2021-08-12T12:47:04Z</time>
      </trkpt>
      <trkpt lat="45.5238" lon="6.73195">
        <ele>2008.4</ele>
        <time>2021-08-12T12:47:05Z</time>
      </trkpt>
      <trkpt lat="45.52381" lon="6.73194">
        <ele>2008.3</ele>
        <time>2021-08-12T12:47:06Z</time>
      </trkpt>
      <trkpt lat="45.52381" lon="6.73194">
        <ele>2008.2</ele>
        <time>2021-08-12T12:47:07Z</time>
      </trkpt>
      <trkpt lat="45.52382" lon="6.73193">
        <ele>2008.1</ele>
        <time>2021-08-12T12:47:08Z</time>
      </trkpt>
      <trkpt lat="45.52383" lon="6.73192">
        <ele>2007.9</ele>
        <time>2021-08-12T12:47:09Z</time>
      </trkpt>
      <trkpt lat="45.52383" lon="6.73192">
        <ele>2007.8</ele>
        <time>2021-08-12T12:47:10Z</time>
      </trkpt>
      <trkpt lat="45.52384" lon="6.73191">
        <ele>2007.7</ele>
        <time>2021-08-12T12:47:11Z</time>
      </trkpt>
      <trkpt lat="45.52384" lon="6.7319">
        <ele>2007.6</ele>
        <time>2021-08-12T12:47:12Z</time>
      </trkpt>
      <trkpt lat="45.52385" lon="6.7319">
        <ele>2007.4</ele>
        <time>2021-08-12T12:47:13Z</time>
      </trkpt>
      <trkpt lat="45.52386" lon="6.73189">
        <ele>2007.3</ele>
        <time>2021-08-12T12:47:14Z</time>
      </trkpt>
      <trkpt lat="45.52386" lon="6.73188">
        <ele>2007.2</ele>
        <time>2021-08-12T12:47:15Z</time>
      </trkpt>
      <trkpt lat="45.52387" lon="6.73187">
        <ele>2007</ele>
        <time>2021-08-12T12:47:16Z</time>
      </trkpt>
      <trkpt lat="45.52388" lon="6.73187">
        <ele>2006.9</ele>
        <time>2021-08-12T12:47:17Z</time>
      </trkpt>
      <trkpt lat="45.52389" lon="6.73186">
        <ele>2006.8</ele>
        <time>2021-08-12T12:47:18Z</time>
      </trkpt>
      <trkpt lat="45.52389" lon="6.73185">
        <ele>2006.7</ele>
        <time>2021-08-12T12:47:19Z</time>
      </trkpt>
      <trkpt lat="45.5239" lon="6.73184">
        <ele>2006.5</ele>
        <time>2021-08-12T12:47:20Z</time>
      </trkpt>
      <trkpt lat="45.52391" lon="6.73184">
        <ele>2006.4</ele>
        <time>2021-08-12T12:47:21Z</time>
      </trkpt>
      <trkpt lat="45.52391" lon="6.73183">
        <ele>2006.3</ele>
        <time>2021-08-12T12:47:22Z</time>
      </trkpt>
      <trkpt lat="45.52392" lon="6.73182">
        <ele>2006.2</ele>
        <time>2021-08-12T12:47:23Z</time>
      </trkpt>
      <trkpt lat="45.52393" lon="6.73182">
        <ele>2006</ele>
        <time>2021-08-12T12:47:24Z</time>
      </trkpt>
      <trkpt lat="45.52393" lon="6.73181">
        <ele>2005.9</ele>
        <time>2021-08-12T12:47:25Z</time>
      </trkpt>
      <trkpt lat="45.52394" lon="6.73181">
        <ele>2005.8</ele>
        <time>2021-08-12T12:47:26Z</time>
      </trkpt>
      <trkpt lat="45.52394" lon="6.7318">
        <ele>2005.7</ele>
        <time>2021-08-12T12:47:27Z</time>
      </trkpt>
      <trkpt lat="45.52395" lon="6.7318">
        <ele>2005.6</ele>
        <time>2021-08-12T12:47:28Z</time>
      </trkpt>
      <trkpt lat="45.52395" lon="6.73179">
        <ele>2005.6</ele>
        <time>2021-08-12T12:47:29Z</time>
      </trkpt>
      <trkpt lat="45.52396" lon="6.73179">
        <ele>2005.5</ele>
        <time>2021-08-12T12:47:30Z</time>
      </trkpt>
      <trkpt lat="45.52396" lon="6.73178">
        <ele>2005.4</ele>
        <time>2021-08-12T12:47:31Z</time>
      </trkpt>
      <trkpt lat="45.52397" lon="6.73178">
        <ele>2005.4</ele>
        <time>2021-08-12T12:47:32Z</time>
      </trkpt>
      <trkpt lat="45.52397" lon="6.73178">
        <ele>2005.4</ele>
        <time>2021-08-12T12:47:33Z</time>
      </trkpt>
      <trkpt lat="45.52397" lon="6.73178">
        <ele>2005.3</ele>
        <time>2021-08-12T12:47:34Z</time>
      </trkpt>
      <trkpt lat="45.52397" lon="6.73178">
        <ele>2005.3</ele>
        <time>2021-08-12T12:47:35Z</time>
      </trkpt>
      <trkpt lat="45.52397" lon="6.73178">
        <ele>2005.3</ele>
        <time>2021-08-12T12:47:36Z</time>
      </trkpt>
      <trkpt lat="45.52397" lon="6.73178">
        <ele>2005.3</ele>
        <time>2021-08-12T12:47:37Z</time>
      </trkpt>
      <trkpt lat="45.52397" lon="6.73178">
        <ele>2005.3</ele>
        <time>2021-08-12T12:47:38Z</time>
      </trkpt>
      <trkpt lat="45.52397" lon="6.73178">
        <ele>2005.3</ele>
        <time>2021-08-12T12:47:39Z</time>
      </trkpt>
      <trkpt lat="45.52397" lon="6.73178">
        <ele>2005.2</ele>
        <time>2021-08-12T12:47:40Z</time>
      </trkpt>
      <trkpt lat="45.52397" lon="6.73178">
        <ele>2005.2</ele>
        <time>2021-08-12T12:47:41Z</time>
      </trkpt>
      <trkpt lat="45.52397" lon="6.73178">
        <ele>2005.2</ele>
        <time>2021-08-12T12:47:42Z</time>
      </trkpt>
      <trkpt lat="45.52397" lon="6.73178">
        <ele>2005.2</ele>
        <time>2021-08-12T12:47:43Z</time>
      </trkpt>
      <trkpt lat="45.52397" lon="6.73178">
        <ele>2005.2</ele>
        <time>2021-08-12T12:47:44Z</time>
      </trkpt>
      <trkpt lat="45.52397" lon="6.73178">
        <ele>2005.2</ele>
        <time>2021-08-12T12:47:45Z</time>
      </trkpt>
      <trkpt lat="45.52397" lon="6.73178">
        <ele>2005.2</ele>
        <time>2021-08-12T12:47:46Z</time>
      </trkpt>
      <trkpt lat="45.52397" lon="6.73179">
        <ele>2005.2</ele>
        <time>2021-08-12T12:47:47Z</time>
      </trkpt>
      <trkpt lat="45.52398" lon="6.73179">
        <ele>2005.1</ele>
        <time>2021-08-12T12:47:48Z</time>
      </trkpt>
      <trkpt lat="45.52398" lon="6.7318">
        <ele>2005</ele>
        <time>2021-08-12T12:47:49Z</time>
      </trkpt>
      <trkpt lat="45.52398" lon="6.73181">
        <ele>2005</ele>
        <time>2021-08-12T12:47:50Z</time>
      </trkpt>
      <trkpt lat="45.52398" lon="6.73182">
        <ele>2004.8</ele>
        <time>2021-08-12T12:47:51Z</time>
      </trkpt>
      <trkpt lat="45.52399" lon="6.73183">
        <ele>2004.7</ele>
        <time>2021-08-12T12:47:52Z</time>
      </trkpt>
      <trkpt lat="45.52399" lon="6.73184">
        <ele>2004.6</ele>
        <time>2021-08-12T12:47:53Z</time>
      </trkpt>
      <trkpt lat="45.52399" lon="6.73186">
        <ele>2004.4</ele>
        <time>2021-08-12T12:47:54Z</time>
      </trkpt>
      <trkpt lat="45.524" lon="6.73187">
        <ele>2004.3</ele>
        <time>2021-08-12T12:47:55Z</time>
      </trkpt>
      <trkpt lat="45.524" lon="6.73188">
        <ele>2004.2</ele>
        <time>2021-08-12T12:47:56Z</time>
      </trkpt>
      <trkpt lat="45.524" lon="6.7319">
        <ele>2004.1</ele>
        <time>2021-08-12T12:47:57Z</time>
      </trkpt>
      <trkpt lat="45.524" lon="6.73191">
        <ele>2004</ele>
        <time>2021-08-12T12:47:58Z</time>
      </trkpt>
      <trkpt lat="45.524" lon="6.73192">
        <ele>2003.9</ele>
        <time>2021-08-12T12:47:59Z</time>
      </trkpt>
      <trkpt lat="45.524" lon="6.73193">
        <ele>2003.8</ele>
        <time>2021-08-12T12:48:00Z</time>
      </trkpt>
      <trkpt lat="45.524" lon="6.73194">
        <ele>2003.7</ele>
        <time>2021-08-12T12:48:01Z</time>
      </trkpt>
      <trkpt lat="45.524" lon="6.73195">
        <ele>2003.5</ele>
        <time>2021-08-12T12:48:02Z</time>
      </trkpt>
      <trkpt lat="45.524" lon="6.73197">
        <ele>2003.4</ele>
        <time>2021-08-12T12:48:03Z</time>
      </trkpt>
      <trkpt lat="45.524" lon="6.73198">
        <ele>2003.3</ele>
        <time>2021-08-12T12:48:04Z</time>
      </trkpt>
      <trkpt lat="45.524" lon="6.73199">
        <ele>2003.2</ele>
        <time>2021-08-12T12:48:05Z</time>
      </trkpt>
      <trkpt lat="45.524" lon="6.732">
        <ele>2003.1</ele>
        <time>2021-08-12T12:48:06Z</time>
      </trkpt>
      <trkpt lat="45.524" lon="6.73202">
        <ele>2003</ele>
        <time>2021-08-12T12:48:07Z</time>
      </trkpt>
      <trkpt lat="45.524" lon="6.73203">
        <ele>2002.9</ele>
        <time>2021-08-12T12:48:08Z</time>
      </trkpt>
      <trkpt lat="45.524" lon="6.73204">
        <ele>2002.8</ele>
        <time>2021-08-12T12:48:09Z</time>
      </trkpt>
      <trkpt lat="45.524" lon="6.73205">
        <ele>2002.7</ele>
        <time>2021-08-12T12:48:10Z</time>
      </trkpt>
      <trkpt lat="45.524" lon="6.73207">
        <ele>2002.6</ele>
        <time>2021-08-12T12:48:11Z</time>
      </trkpt>
      <trkpt lat="45.524" lon="6.73208">
        <ele>2002.5</ele>
        <time>2021-08-12T12:48:12Z</time>
      </trkpt>
      <trkpt lat="45.524" lon="6.73209">
        <ele>2002.4</ele>
        <time>2021-08-12T12:48:13Z</time>
      </trkpt>
      <trkpt lat="45.524" lon="6.7321">
        <ele>2002.3</ele>
        <time>2021-08-12T12:48:14Z</time>
      </trkpt>
      <trkpt lat="45.52399" lon="6.73212">
        <ele>2002.2</ele>
        <time>2021-08-12T12:48:15Z</time>
      </trkpt>
      <trkpt lat="45.52399" lon="6.73213">
        <ele>2002.1</ele>
        <time>2021-08-12T12:48:16Z</time>
      </trkpt>
      <trkpt lat="45.52399" lon="6.73214">
        <ele>2002.1</ele>
        <time>2021-08-12T12:48:17Z</time>
      </trkpt>
      <trkpt lat="45.52399" lon="6.73215">
        <ele>2002</ele>
        <time>2021-08-12T12:48:18Z</time>
      </trkpt>
      <trkpt lat="45.52399" lon="6.73217">
        <ele>2001.9</ele>
        <time>2021-08-12T12:48:19Z</time>
      </trkpt>
      <trkpt lat="45.52399" lon="6.73218">
        <ele>2001.8</ele>
        <time>2021-08-12T12:48:20Z</time>
      </trkpt>
      <trkpt lat="45.52399" lon="6.73219">
        <ele>2001.7</ele>
        <time>2021-08-12T12:48:21Z</time>
      </trkpt>
      <trkpt lat="45.52399" lon="6.7322">
        <ele>2001.6</ele>
        <time>2021-08-12T12:48:22Z</time>
      </trkpt>
      <trkpt lat="45.52399" lon="6.73222">
        <ele>2001.5</ele>
        <time>2021-08-12T12:48:23Z</time>
      </trkpt>
      <trkpt lat="45.52398" lon="6.73223">
        <ele>2001.5</ele>
        <time>2021-08-12T12:48:24Z</time>
      </trkpt>
      <trkpt lat="45.52398" lon="6.73224">
        <ele>2001.4</ele>
        <time>2021-08-12T12:48:25Z</time>
      </trkpt>
      <trkpt lat="45.52398" lon="6.73225">
        <ele>2001.3</ele>
        <time>2021-08-12T12:48:26Z</time>
      </trkpt>
      <trkpt lat="45.52398" lon="6.73226">
        <ele>2001.2</ele>
        <time>2021-08-12T12:48:27Z</time>
      </trkpt>
      <trkpt lat="45.52398" lon="6.73228">
        <ele>2001.1</ele>
        <time>2021-08-12T12:48:28Z</time>
      </trkpt>
      <trkpt lat="45.52398" lon="6.73229">
        <ele>2001</ele>
        <time>2021-08-12T12:48:29Z</time>
      </trkpt>
      <trkpt lat="45.52398" lon="6.7323">
        <ele>2000.9</ele>
        <time>2021-08-12T12:48:30Z</time>
      </trkpt>
      <trkpt lat="45.52397" lon="6.73231">
        <ele>2000.8</ele>
        <time>2021-08-12T12:48:31Z</time>
      </trkpt>
      <trkpt lat="45.52397" lon="6.73232">
        <ele>2000.7</ele>
        <time>2021-08-12T12:48:32Z</time>
      </trkpt>
      <trkpt lat="45.52397" lon="6.73234">
        <ele>2000.6</ele>
        <time>2021-08-12T12:48:33Z</time>
      </trkpt>
      <trkpt lat="45.52397" lon="6.73235">
        <ele>2000.5</ele>
        <time>2021-08-12T12:48:34Z</time>
      </trkpt>
      <trkpt lat="45.52397" lon="6.73236">
        <ele>2000.4</ele>
        <time>2021-08-12T12:48:35Z</time>
      </trkpt>
      <trkpt lat="45.52397" lon="6.73237">
        <ele>2000.2</ele>
        <time>2021-08-12T12:48:36Z</time>
      </trkpt>
      <trkpt lat="45.52396" lon="6.73238">
        <ele>2000.1</ele>
        <time>2021-08-12T12:48:37Z</time>
      </trkpt>
      <trkpt lat="45.52396" lon="6.7324">
        <ele>2000</ele>
        <time>2021-08-12T12:48:38Z</time>
      </trkpt>
      <trkpt lat="45.52396" lon="6.73241">
        <ele>1999.8</ele>
        <time>2021-08-12T12:48:39Z</time>
      </trkpt>
      <trkpt lat="45.52396" lon="6.73242">
        <ele>1999.7</ele>
        <time>2021-08-12T12:48:40Z</time>
      </trkpt>
      <trkpt lat="45.52396" lon="6.73244">
        <ele>1999.6</ele>
        <time>2021-08-12T12:48:41Z</time>
      </trkpt>
      <trkpt lat="45.52396" lon="6.73245">
        <ele>1999.4</ele>
        <time>2021-08-12T12:48:42Z</time>
      </trkpt>
      <trkpt lat="45.52396" lon="6.73246">
        <ele>1999.3</ele>
        <time>2021-08-12T12:48:43Z</time>
      </trkpt>
      <trkpt lat="45.52396" lon="6.73248">
        <ele>1999.1</ele>
        <time>2021-08-12T12:48:44Z</time>
      </trkpt>
      <trkpt lat="45.52396" lon="6.73249">
        <ele>1998.9</ele>
        <time>2021-08-12T12:48:45Z</time>
      </trkpt>
      <trkpt lat="45.52396" lon="6.73251">
        <ele>1998.8</ele>
        <time>2021-08-12T12:48:46Z</time>
      </trkpt>
      <trkpt lat="45.52396" lon="6.73252">
        <ele>1998.6</ele>
        <time>2021-08-12T12:48:47Z</time>
      </trkpt>
      <trkpt lat="45.52396" lon="6.73253">
        <ele>1998.5</ele>
        <time>2021-08-12T12:48:48Z</time>
      </trkpt>
      <trkpt lat="45.52396" lon="6.73255">
        <ele>1998.3</ele>
        <time>2021-08-12T12:48:49Z</time>
      </trkpt>
      <trkpt lat="45.52396" lon="6.73256">
        <ele>1998.2</ele>
        <time>2021-08-12T12:48:50Z</time>
      </trkpt>
      <trkpt lat="45.52396" lon="6.73257">
        <ele>1998.1</ele>
        <time>2021-08-12T12:48:51Z</time>
      </trkpt>
      <trkpt lat="45.52396" lon="6.73258">
        <ele>1997.9</ele>
        <time>2021-08-12T12:48:52Z</time>
      </trkpt>
      <trkpt lat="45.52396" lon="6.7326">
        <ele>1997.8</ele>
        <time>2021-08-12T12:48:53Z</time>
      </trkpt>
      <trkpt lat="45.52396" lon="6.73261">
        <ele>1997.7</ele>
        <time>2021-08-12T12:48:54Z</time>
      </trkpt>
      <trkpt lat="45.52396" lon="6.73262">
        <ele>1997.5</ele>
        <time>2021-08-12T12:48:55Z</time>
      </trkpt>
      <trkpt lat="45.52396" lon="6.73263">
        <ele>1997.4</ele>
        <time>2021-08-12T12:48:56Z</time>
      </trkpt>
      <trkpt lat="45.52396" lon="6.73264">
        <ele>1997.3</ele>
        <time>2021-08-12T12:48:57Z</time>
      </trkpt>
      <trkpt lat="45.52396" lon="6.73266">
        <ele>1997.2</ele>
        <time>2021-08-12T12:48:58Z</time>
      </trkpt>
      <trkpt lat="45.52396" lon="6.73267">
        <ele>1997</ele>
        <time>2021-08-12T12:48:59Z</time>
      </trkpt>
      <trkpt lat="45.52396" lon="6.73268">
        <ele>1996.9</ele>
        <time>2021-08-12T12:49:00Z</time>
      </trkpt>
      <trkpt lat="45.52396" lon="6.73269">
        <ele>1996.8</ele>
        <time>2021-08-12T12:49:01Z</time>
      </trkpt>
      <trkpt lat="45.52396" lon="6.73271">
        <ele>1996.6</ele>
        <time>2021-08-12T12:49:02Z</time>
      </trkpt>
      <trkpt lat="45.52396" lon="6.73272">
        <ele>1996.5</ele>
        <time>2021-08-12T12:49:03Z</time>
      </trkpt>
      <trkpt lat="45.52396" lon="6.73273">
        <ele>1996.4</ele>
        <time>2021-08-12T12:49:04Z</time>
      </trkpt>
      <trkpt lat="45.52397" lon="6.73275">
        <ele>1996.2</ele>
        <time>2021-08-12T12:49:05Z</time>
      </trkpt>
      <trkpt lat="45.52397" lon="6.73276">
        <ele>1996.1</ele>
        <time>2021-08-12T12:49:06Z</time>
      </trkpt>
      <trkpt lat="45.52397" lon="6.73278">
        <ele>1995.9</ele>
        <time>2021-08-12T12:49:07Z</time>
      </trkpt>
      <trkpt lat="45.52397" lon="6.73279">
        <ele>1995.8</ele>
        <time>2021-08-12T12:49:08Z</time>
      </trkpt>
      <trkpt lat="45.52397" lon="6.7328">
        <ele>1995.6</ele>
        <time>2021-08-12T12:49:09Z</time>
      </trkpt>
      <trkpt lat="45.52398" lon="6.73282">
        <ele>1995.5</ele>
        <time>2021-08-12T12:49:10Z</time>
      </trkpt>
      <trkpt lat="45.52398" lon="6.73283">
        <ele>1995.3</ele>
        <time>2021-08-12T12:49:11Z</time>
      </trkpt>
      <trkpt lat="45.52398" lon="6.73284">
        <ele>1995.2</ele>
        <time>2021-08-12T12:49:12Z</time>
      </trkpt>
      <trkpt lat="45.52398" lon="6.73286">
        <ele>1995.1</ele>
        <time>2021-08-12T12:49:13Z</time>
      </trkpt>
      <trkpt lat="45.52398" lon="6.73287">
        <ele>1994.9</ele>
        <time>2021-08-12T12:49:14Z</time>
      </trkpt>
      <trkpt lat="45.52398" lon="6.73288">
        <ele>1994.8</ele>
        <time>2021-08-12T12:49:15Z</time>
      </trkpt>
      <trkpt lat="45.52398" lon="6.73289">
        <ele>1994.7</ele>
        <time>2021-08-12T12:49:16Z</time>
      </trkpt>
      <trkpt lat="45.52398" lon="6.7329">
        <ele>1994.6</ele>
        <time>2021-08-12T12:49:17Z</time>
      </trkpt>
      <trkpt lat="45.52398" lon="6.73292">
        <ele>1994.5</ele>
        <time>2021-08-12T12:49:18Z</time>
      </trkpt>
      <trkpt lat="45.52398" lon="6.73293">
        <ele>1994.3</ele>
        <time>2021-08-12T12:49:19Z</time>
      </trkpt>
      <trkpt lat="45.52398" lon="6.73294">
        <ele>1994.2</ele>
        <time>2021-08-12T12:49:20Z</time>
      </trkpt>
      <trkpt lat="45.52398" lon="6.73295">
        <ele>1994.1</ele>
        <time>2021-08-12T12:49:21Z</time>
      </trkpt>
      <trkpt lat="45.52398" lon="6.73296">
        <ele>1994</ele>
        <time>2021-08-12T12:49:22Z</time>
      </trkpt>
      <trkpt lat="45.52398" lon="6.73297">
        <ele>1993.9</ele>
        <time>2021-08-12T12:49:23Z</time>
      </trkpt>
      <trkpt lat="45.52399" lon="6.73298">
        <ele>1993.8</ele>
        <time>2021-08-12T12:49:24Z</time>
      </trkpt>
      <trkpt lat="45.52399" lon="6.73299">
        <ele>1993.7</ele>
        <time>2021-08-12T12:49:25Z</time>
      </trkpt>
      <trkpt lat="45.52399" lon="6.733">
        <ele>1993.6</ele>
        <time>2021-08-12T12:49:26Z</time>
      </trkpt>
      <trkpt lat="45.52399" lon="6.73301">
        <ele>1993.5</ele>
        <time>2021-08-12T12:49:27Z</time>
      </trkpt>
      <trkpt lat="45.52399" lon="6.73302">
        <ele>1993.4</ele>
        <time>2021-08-12T12:49:28Z</time>
      </trkpt>
      <trkpt lat="45.52399" lon="6.73303">
        <ele>1993.2</ele>
        <time>2021-08-12T12:49:29Z</time>
      </trkpt>
      <trkpt lat="45.52399" lon="6.73305">
        <ele>1993.1</ele>
        <time>2021-08-12T12:49:30Z</time>
      </trkpt>
      <trkpt lat="45.52399" lon="6.73306">
        <ele>1993</ele>
        <time>2021-08-12T12:49:31Z</time>
      </trkpt>
      <trkpt lat="45.52399" lon="6.73307">
        <ele>1992.9</ele>
        <time>2021-08-12T12:49:32Z</time>
      </trkpt>
      <trkpt lat="45.524" lon="6.73308">
        <ele>1992.7</ele>
        <time>2021-08-12T12:49:33Z</time>
      </trkpt>
      <trkpt lat="45.524" lon="6.73309">
        <ele>1992.6</ele>
        <time>2021-08-12T12:49:34Z</time>
      </trkpt>
      <trkpt lat="45.524" lon="6.73311">
        <ele>1992.5</ele>
        <time>2021-08-12T12:49:35Z</time>
      </trkpt>
      <trkpt lat="45.52401" lon="6.73312">
        <ele>1992.3</ele>
        <time>2021-08-12T12:49:36Z</time>
      </trkpt>
      <trkpt lat="45.52401" lon="6.73313">
        <ele>1992.2</ele>
        <time>2021-08-12T12:49:37Z</time>
      </trkpt>
      <trkpt lat="45.52401" lon="6.73315">
        <ele>1992.1</ele>
        <time>2021-08-12T12:49:38Z</time>
      </trkpt>
      <trkpt lat="45.52402" lon="6.73316">
        <ele>1991.9</ele>
        <time>2021-08-12T12:49:39Z</time>
      </trkpt>
      <trkpt lat="45.52402" lon="6.73317">
        <ele>1991.8</ele>
        <time>2021-08-12T12:49:40Z</time>
      </trkpt>
      <trkpt lat="45.52403" lon="6.73319">
        <ele>1991.6</ele>
        <time>2021-08-12T12:49:41Z</time>
      </trkpt>
      <trkpt lat="45.52403" lon="6.7332">
        <ele>1991.5</ele>
        <time>2021-08-12T12:49:42Z</time>
      </trkpt>
      <trkpt lat="45.52404" lon="6.73321">
        <ele>1991.3</ele>
        <time>2021-08-12T12:49:43Z</time>
      </trkpt>
      <trkpt lat="45.52404" lon="6.73323">
        <ele>1991.2</ele>
        <time>2021-08-12T12:49:44Z</time>
      </trkpt>
      <trkpt lat="45.52405" lon="6.73324">
        <ele>1991</ele>
        <time>2021-08-12T12:49:45Z</time>
      </trkpt>
      <trkpt lat="45.52406" lon="6.73325">
        <ele>1990.9</ele>
        <time>2021-08-12T12:49:46Z</time>
      </trkpt>
      <trkpt lat="45.52406" lon="6.73327">
        <ele>1990.7</ele>
        <time>2021-08-12T12:49:47Z</time>
      </trkpt>
      <trkpt lat="45.52407" lon="6.73328">
        <ele>1990.6</ele>
        <time>2021-08-12T12:49:48Z</time>
      </trkpt>
      <trkpt lat="45.52407" lon="6.73329">
        <ele>1990.4</ele>
        <time>2021-08-12T12:49:49Z</time>
      </trkpt>
      <trkpt lat="45.52408" lon="6.7333">
        <ele>1990.3</ele>
        <time>2021-08-12T12:49:50Z</time>
      </trkpt>
      <trkpt lat="45.52409" lon="6.73332">
        <ele>1990.2</ele>
        <time>2021-08-12T12:49:51Z</time>
      </trkpt>
      <trkpt lat="45.52409" lon="6.73333">
        <ele>1990</ele>
        <time>2021-08-12T12:49:52Z</time>
      </trkpt>
      <trkpt lat="45.5241" lon="6.73334">
        <ele>1989.9</ele>
        <time>2021-08-12T12:49:53Z</time>
      </trkpt>
      <trkpt lat="45.5241" lon="6.73335">
        <ele>1989.8</ele>
        <time>2021-08-12T12:49:54Z</time>
      </trkpt>
      <trkpt lat="45.52411" lon="6.73336">
        <ele>1989.6</ele>
        <time>2021-08-12T12:49:55Z</time>
      </trkpt>
      <trkpt lat="45.52411" lon="6.73337">
        <ele>1989.5</ele>
        <time>2021-08-12T12:49:56Z</time>
      </trkpt>
      <trkpt lat="45.52411" lon="6.73338">
        <ele>1989.4</ele>
        <time>2021-08-12T12:49:57Z</time>
      </trkpt>
      <trkpt lat="45.52412" lon="6.73339">
        <ele>1989.3</ele>
        <time>2021-08-12T12:49:58Z</time>
      </trkpt>
      <trkpt lat="45.52412" lon="6.7334">
        <ele>1989.2</ele>
        <time>2021-08-12T12:49:59Z</time>
      </trkpt>
      <trkpt lat="45.52413" lon="6.73341">
        <ele>1989</ele>
        <time>2021-08-12T12:50:00Z</time>
      </trkpt>
      <trkpt lat="45.52413" lon="6.73341">
        <ele>1988.9</ele>
        <time>2021-08-12T12:50:01Z</time>
      </trkpt>
      <trkpt lat="45.52414" lon="6.73342">
        <ele>1988.8</ele>
        <time>2021-08-12T12:50:02Z</time>
      </trkpt>
      <trkpt lat="45.52414" lon="6.73343">
        <ele>1988.7</ele>
        <time>2021-08-12T12:50:03Z</time>
      </trkpt>
      <trkpt lat="45.52415" lon="6.73344">
        <ele>1988.5</ele>
        <time>2021-08-12T12:50:04Z</time>
      </trkpt>
      <trkpt lat="45.52415" lon="6.73345">
        <ele>1988.4</ele>
        <time>2021-08-12T12:50:05Z</time>
      </trkpt>
      <trkpt lat="45.52416" lon="6.73346">
        <ele>1988.2</ele>
        <time>2021-08-12T12:50:06Z</time>
      </trkpt>
      <trkpt lat="45.52416" lon="6.73347">
        <ele>1988.1</ele>
        <time>2021-08-12T12:50:07Z</time>
      </trkpt>
      <trkpt lat="45.52417" lon="6.73348">
        <ele>1988</ele>
        <time>2021-08-12T12:50:08Z</time>
      </trkpt>
      <trkpt lat="45.52417" lon="6.73349">
        <ele>1987.8</ele>
        <time>2021-08-12T12:50:09Z</time>
      </trkpt>
      <trkpt lat="45.52418" lon="6.7335">
        <ele>1987.7</ele>
        <time>2021-08-12T12:50:10Z</time>
      </trkpt>
      <trkpt lat="45.52418" lon="6.73351">
        <ele>1987.5</ele>
        <time>2021-08-12T12:50:11Z</time>
      </trkpt>
      <trkpt lat="45.52419" lon="6.73351">
        <ele>1987.3</ele>
        <time>2021-08-12T12:50:12Z</time>
      </trkpt>
      <trkpt lat="45.5242" lon="6.73352">
        <ele>1987.2</ele>
        <time>2021-08-12T12:50:13Z</time>
      </trkpt>
      <trkpt lat="45.5242" lon="6.73353">
        <ele>1987</ele>
        <time>2021-08-12T12:50:14Z</time>
      </trkpt>
      <trkpt lat="45.52421" lon="6.73353">
        <ele>1986.9</ele>
        <time>2021-08-12T12:50:15Z</time>
      </trkpt>
      <trkpt lat="45.52421" lon="6.73354">
        <ele>1986.7</ele>
        <time>2021-08-12T12:50:16Z</time>
      </trkpt>
      <trkpt lat="45.52422" lon="6.73355">
        <ele>1986.6</ele>
        <time>2021-08-12T12:50:17Z</time>
      </trkpt>
      <trkpt lat="45.52423" lon="6.73355">
        <ele>1986.4</ele>
        <time>2021-08-12T12:50:18Z</time>
      </trkpt>
      <trkpt lat="45.52423" lon="6.73356">
        <ele>1986.3</ele>
        <time>2021-08-12T12:50:19Z</time>
      </trkpt>
      <trkpt lat="45.52424" lon="6.73357">
        <ele>1986.1</ele>
        <time>2021-08-12T12:50:20Z</time>
      </trkpt>
      <trkpt lat="45.52425" lon="6.73357">
        <ele>1986</ele>
        <time>2021-08-12T12:50:21Z</time>
      </trkpt>
      <trkpt lat="45.52425" lon="6.73358">
        <ele>1985.8</ele>
        <time>2021-08-12T12:50:22Z</time>
      </trkpt>
      <trkpt lat="45.52426" lon="6.73359">
        <ele>1985.6</ele>
        <time>2021-08-12T12:50:23Z</time>
      </trkpt>
      <trkpt lat="45.52427" lon="6.73359">
        <ele>1985.5</ele>
        <time>2021-08-12T12:50:24Z</time>
      </trkpt>
      <trkpt lat="45.52427" lon="6.7336">
        <ele>1985.3</ele>
        <time>2021-08-12T12:50:25Z</time>
      </trkpt>
      <trkpt lat="45.52428" lon="6.73361">
        <ele>1985.2</ele>
        <time>2021-08-12T12:50:26Z</time>
      </trkpt>
      <trkpt lat="45.52429" lon="6.73361">
        <ele>1985</ele>
        <time>2021-08-12T12:50:27Z</time>
      </trkpt>
      <trkpt lat="45.52429" lon="6.73362">
        <ele>1984.9</ele>
        <time>2021-08-12T12:50:28Z</time>
      </trkpt>
      <trkpt lat="45.5243" lon="6.73363">
        <ele>1984.8</ele>
        <time>2021-08-12T12:50:29Z</time>
      </trkpt>
      <trkpt lat="45.5243" lon="6.73364">
        <ele>1984.6</ele>
        <time>2021-08-12T12:50:30Z</time>
      </trkpt>
      <trkpt lat="45.52431" lon="6.73365">
        <ele>1984.5</ele>
        <time>2021-08-12T12:50:31Z</time>
      </trkpt>
      <trkpt lat="45.52431" lon="6.73366">
        <ele>1984.3</ele>
        <time>2021-08-12T12:50:32Z</time>
      </trkpt>
      <trkpt lat="45.52432" lon="6.73366">
        <ele>1984.2</ele>
        <time>2021-08-12T12:50:33Z</time>
      </trkpt>
      <trkpt lat="45.52432" lon="6.73367">
        <ele>1984.1</ele>
        <time>2021-08-12T12:50:34Z</time>
      </trkpt>
      <trkpt lat="45.52432" lon="6.73368">
        <ele>1984.1</ele>
        <time>2021-08-12T12:50:35Z</time>
      </trkpt>
      <trkpt lat="45.52432" lon="6.73368">
        <ele>1984</ele>
        <time>2021-08-12T12:50:36Z</time>
      </trkpt>
      <trkpt lat="45.52432" lon="6.73368">
        <ele>1984</ele>
        <time>2021-08-12T12:50:37Z</time>
      </trkpt>
      <trkpt lat="45.52432" lon="6.73368">
        <ele>1984</ele>
        <time>2021-08-12T12:50:38Z</time>
      </trkpt>
      <trkpt lat="45.52432" lon="6.73368">
        <ele>1984</ele>
        <time>2021-08-12T12:50:39Z</time>
      </trkpt>
      <trkpt lat="45.52432" lon="6.73368">
        <ele>1984</ele>
        <time>2021-08-12T12:50:40Z</time>
      </trkpt>
      <trkpt lat="45.52433" lon="6.73368">
        <ele>1983.9</ele>
        <time>2021-08-12T12:50:41Z</time>
      </trkpt>
      <trkpt lat="45.52433" lon="6.73369">
        <ele>1983.9</ele>
        <time>2021-08-12T12:50:42Z</time>
      </trkpt>
      <trkpt lat="45.52433" lon="6.73369">
        <ele>1983.8</ele>
        <time>2021-08-12T12:50:43Z</time>
      </trkpt>
      <trkpt lat="45.52434" lon="6.7337">
        <ele>1983.7</ele>
        <time>2021-08-12T12:50:44Z</time>
      </trkpt>
      <trkpt lat="45.52434" lon="6.73371">
        <ele>1983.6</ele>
        <time>2021-08-12T12:50:45Z</time>
      </trkpt>
      <trkpt lat="45.52435" lon="6.73371">
        <ele>1983.4</ele>
        <time>2021-08-12T12:50:46Z</time>
      </trkpt>
      <trkpt lat="45.52435" lon="6.73372">
        <ele>1983.3</ele>
        <time>2021-08-12T12:50:47Z</time>
      </trkpt>
      <trkpt lat="45.52436" lon="6.73373">
        <ele>1983.2</ele>
        <time>2021-08-12T12:50:48Z</time>
      </trkpt>
      <trkpt lat="45.52436" lon="6.73374">
        <ele>1983.1</ele>
        <time>2021-08-12T12:50:49Z</time>
      </trkpt>
      <trkpt lat="45.52437" lon="6.73374">
        <ele>1983</ele>
        <time>2021-08-12T12:50:50Z</time>
      </trkpt>
      <trkpt lat="45.52437" lon="6.73375">
        <ele>1982.9</ele>
        <time>2021-08-12T12:50:51Z</time>
      </trkpt>
      <trkpt lat="45.52437" lon="6.73375">
        <ele>1982.8</ele>
        <time>2021-08-12T12:50:52Z</time>
      </trkpt>
      <trkpt lat="45.52438" lon="6.73375">
        <ele>1982.8</ele>
        <time>2021-08-12T12:50:53Z</time>
      </trkpt>
      <trkpt lat="45.52438" lon="6.73375">
        <ele>1982.7</ele>
        <time>2021-08-12T12:50:54Z</time>
      </trkpt>
      <trkpt lat="45.52438" lon="6.73376">
        <ele>1982.7</ele>
        <time>2021-08-12T12:50:55Z</time>
      </trkpt>
      <trkpt lat="45.52438" lon="6.73376">
        <ele>1982.6</ele>
        <time>2021-08-12T12:50:56Z</time>
      </trkpt>
      <trkpt lat="45.52439" lon="6.73376">
        <ele>1982.6</ele>
        <time>2021-08-12T12:50:57Z</time>
      </trkpt>
      <trkpt lat="45.52439" lon="6.73376">
        <ele>1982.6</ele>
        <time>2021-08-12T12:50:58Z</time>
      </trkpt>
      <trkpt lat="45.52439" lon="6.73376">
        <ele>1982.5</ele>
        <time>2021-08-12T12:50:59Z</time>
      </trkpt>
      <trkpt lat="45.52439" lon="6.73376">
        <ele>1982.5</ele>
        <time>2021-08-12T12:51:00Z</time>
      </trkpt>
      <trkpt lat="45.52439" lon="6.73376">
        <ele>1982.5</ele>
        <time>2021-08-12T12:51:01Z</time>
      </trkpt>
      <trkpt lat="45.5244" lon="6.73376">
        <ele>1982.4</ele>
        <time>2021-08-12T12:51:02Z</time>
      </trkpt>
      <trkpt lat="45.5244" lon="6.73376">
        <ele>1982.4</ele>
        <time>2021-08-12T12:51:03Z</time>
      </trkpt>
      <trkpt lat="45.5244" lon="6.73376">
        <ele>1982.3</ele>
        <time>2021-08-12T12:51:04Z</time>
      </trkpt>
      <trkpt lat="45.52441" lon="6.73377">
        <ele>1982.3</ele>
        <time>2021-08-12T12:51:05Z</time>
      </trkpt>
      <trkpt lat="45.52441" lon="6.73377">
        <ele>1982.2</ele>
        <time>2021-08-12T12:51:06Z</time>
      </trkpt>
      <trkpt lat="45.52442" lon="6.73378">
        <ele>1982.1</ele>
        <time>2021-08-12T12:51:07Z</time>
      </trkpt>
      <trkpt lat="45.52442" lon="6.73378">
        <ele>1982</ele>
        <time>2021-08-12T12:51:08Z</time>
      </trkpt>
      <trkpt lat="45.52443" lon="6.73379">
        <ele>1981.8</ele>
        <time>2021-08-12T12:51:09Z</time>
      </trkpt>
      <trkpt lat="45.52444" lon="6.7338">
        <ele>1981.7</ele>
        <time>2021-08-12T12:51:10Z</time>
      </trkpt>
      <trkpt lat="45.52444" lon="6.73381">
        <ele>1981.5</ele>
        <time>2021-08-12T12:51:11Z</time>
      </trkpt>
      <trkpt lat="45.52445" lon="6.73381">
        <ele>1981.4</ele>
        <time>2021-08-12T12:51:12Z</time>
      </trkpt>
      <trkpt lat="45.52445" lon="6.73382">
        <ele>1981.2</ele>
        <time>2021-08-12T12:51:13Z</time>
      </trkpt>
      <trkpt lat="45.52446" lon="6.73383">
        <ele>1981.1</ele>
        <time>2021-08-12T12:51:14Z</time>
      </trkpt>
      <trkpt lat="45.52447" lon="6.73384">
        <ele>1980.9</ele>
        <time>2021-08-12T12:51:15Z</time>
      </trkpt>
      <trkpt lat="45.52447" lon="6.73384">
        <ele>1980.8</ele>
        <time>2021-08-12T12:51:16Z</time>
      </trkpt>
      <trkpt lat="45.52448" lon="6.73385">
        <ele>1980.6</ele>
        <time>2021-08-12T12:51:17Z</time>
      </trkpt>
      <trkpt lat="45.52449" lon="6.73386">
        <ele>1980.5</ele>
        <time>2021-08-12T12:51:18Z</time>
      </trkpt>
      <trkpt lat="45.52449" lon="6.73386">
        <ele>1980.4</ele>
        <time>2021-08-12T12:51:19Z</time>
      </trkpt>
      <trkpt lat="45.5245" lon="6.73387">
        <ele>1980.2</ele>
        <time>2021-08-12T12:51:20Z</time>
      </trkpt>
      <trkpt lat="45.52451" lon="6.73388">
        <ele>1980.1</ele>
        <time>2021-08-12T12:51:21Z</time>
      </trkpt>
      <trkpt lat="45.52451" lon="6.73388">
        <ele>1980</ele>
        <time>2021-08-12T12:51:22Z</time>
      </trkpt>
      <trkpt lat="45.52452" lon="6.73389">
        <ele>1979.8</ele>
        <time>2021-08-12T12:51:23Z</time>
      </trkpt>
      <trkpt lat="45.52453" lon="6.7339">
        <ele>1979.7</ele>
        <time>2021-08-12T12:51:24Z</time>
      </trkpt>
      <trkpt lat="45.52453" lon="6.7339">
        <ele>1979.6</ele>
        <time>2021-08-12T12:51:25Z</time>
      </trkpt>
      <trkpt lat="45.52454" lon="6.73391">
        <ele>1979.4</ele>
        <time>2021-08-12T12:51:26Z</time>
      </trkpt>
      <trkpt lat="45.52455" lon="6.73392">
        <ele>1979.3</ele>
        <time>2021-08-12T12:51:27Z</time>
      </trkpt>
      <trkpt lat="45.52455" lon="6.73392">
        <ele>1979.2</ele>
        <time>2021-08-12T12:51:28Z</time>
      </trkpt>
      <trkpt lat="45.52456" lon="6.73393">
        <ele>1979</ele>
        <time>2021-08-12T12:51:29Z</time>
      </trkpt>
      <trkpt lat="45.52457" lon="6.73394">
        <ele>1978.9</ele>
        <time>2021-08-12T12:51:30Z</time>
      </trkpt>
      <trkpt lat="45.52457" lon="6.73394">
        <ele>1978.8</ele>
        <time>2021-08-12T12:51:31Z</time>
      </trkpt>
      <trkpt lat="45.52458" lon="6.73395">
        <ele>1978.6</ele>
        <time>2021-08-12T12:51:32Z</time>
      </trkpt>
      <trkpt lat="45.52459" lon="6.73395">
        <ele>1978.5</ele>
        <time>2021-08-12T12:51:33Z</time>
      </trkpt>
      <trkpt lat="45.52459" lon="6.73396">
        <ele>1978.4</ele>
        <time>2021-08-12T12:51:34Z</time>
      </trkpt>
      <trkpt lat="45.5246" lon="6.73397">
        <ele>1978.3</ele>
        <time>2021-08-12T12:51:35Z</time>
      </trkpt>
      <trkpt lat="45.52461" lon="6.73397">
        <ele>1978.1</ele>
        <time>2021-08-12T12:51:36Z</time>
      </trkpt>
      <trkpt lat="45.52462" lon="6.73398">
        <ele>1978</ele>
        <time>2021-08-12T12:51:37Z</time>
      </trkpt>
      <trkpt lat="45.52462" lon="6.73399">
        <ele>1977.9</ele>
        <time>2021-08-12T12:51:38Z</time>
      </trkpt>
      <trkpt lat="45.52463" lon="6.73399">
        <ele>1977.8</ele>
        <time>2021-08-12T12:51:39Z</time>
      </trkpt>
      <trkpt lat="45.52463" lon="6.734">
        <ele>1977.7</ele>
        <time>2021-08-12T12:51:40Z</time>
      </trkpt>
      <trkpt lat="45.52464" lon="6.73401">
        <ele>1977.5</ele>
        <time>2021-08-12T12:51:41Z</time>
      </trkpt>
      <trkpt lat="45.52465" lon="6.73401">
        <ele>1977.4</ele>
        <time>2021-08-12T12:51:42Z</time>
      </trkpt>
      <trkpt lat="45.52465" lon="6.73402">
        <ele>1977.3</ele>
        <time>2021-08-12T12:51:43Z</time>
      </trkpt>
      <trkpt lat="45.52466" lon="6.73403">
        <ele>1977.2</ele>
        <time>2021-08-12T12:51:44Z</time>
      </trkpt>
      <trkpt lat="45.52466" lon="6.73403">
        <ele>1977.1</ele>
        <time>2021-08-12T12:51:45Z</time>
      </trkpt>
      <trkpt lat="45.52467" lon="6.73404">
        <ele>1977</ele>
        <time>2021-08-12T12:51:46Z</time>
      </trkpt>
      <trkpt lat="45.52467" lon="6.73405">
        <ele>1976.8</ele>
        <time>2021-08-12T12:51:47Z</time>
      </trkpt>
      <trkpt lat="45.52468" lon="6.73406">
        <ele>1976.7</ele>
        <time>2021-08-12T12:51:48Z</time>
      </trkpt>
      <trkpt lat="45.52468" lon="6.73406">
        <ele>1976.6</ele>
        <time>2021-08-12T12:51:49Z</time>
      </trkpt>
      <trkpt lat="45.52469" lon="6.73407">
        <ele>1976.5</ele>
        <time>2021-08-12T12:51:50Z</time>
      </trkpt>
      <trkpt lat="45.52469" lon="6.73408">
        <ele>1976.4</ele>
        <time>2021-08-12T12:51:51Z</time>
      </trkpt>
      <trkpt lat="45.5247" lon="6.73408">
        <ele>1976.3</ele>
        <time>2021-08-12T12:51:52Z</time>
      </trkpt>
      <trkpt lat="45.52471" lon="6.73409">
        <ele>1976.2</ele>
        <time>2021-08-12T12:51:53Z</time>
      </trkpt>
      <trkpt lat="45.52471" lon="6.73409">
        <ele>1976</ele>
        <time>2021-08-12T12:51:54Z</time>
      </trkpt>
      <trkpt lat="45.52472" lon="6.7341">
        <ele>1975.8</ele>
        <time>2021-08-12T12:51:55Z</time>
      </trkpt>
      <trkpt lat="45.52473" lon="6.7341">
        <ele>1975.7</ele>
        <time>2021-08-12T12:51:56Z</time>
      </trkpt>
      <trkpt lat="45.52474" lon="6.73411">
        <ele>1975.5</ele>
        <time>2021-08-12T12:51:57Z</time>
      </trkpt>
      <trkpt lat="45.52475" lon="6.73411">
        <ele>1975.3</ele>
        <time>2021-08-12T12:51:58Z</time>
      </trkpt>
      <trkpt lat="45.52476" lon="6.73412">
        <ele>1975.2</ele>
        <time>2021-08-12T12:51:59Z</time>
      </trkpt>
      <trkpt lat="45.52477" lon="6.73412">
        <ele>1975</ele>
        <time>2021-08-12T12:52:00Z</time>
      </trkpt>
      <trkpt lat="45.52478" lon="6.73413">
        <ele>1974.8</ele>
        <time>2021-08-12T12:52:01Z</time>
      </trkpt>
      <trkpt lat="45.52478" lon="6.73413">
        <ele>1974.7</ele>
        <time>2021-08-12T12:52:02Z</time>
      </trkpt>
      <trkpt lat="45.52479" lon="6.73414">
        <ele>1974.5</ele>
        <time>2021-08-12T12:52:03Z</time>
      </trkpt>
      <trkpt lat="45.5248" lon="6.73415">
        <ele>1974.4</ele>
        <time>2021-08-12T12:52:04Z</time>
      </trkpt>
      <trkpt lat="45.52481" lon="6.73415">
        <ele>1974.2</ele>
        <time>2021-08-12T12:52:05Z</time>
      </trkpt>
      <trkpt lat="45.52481" lon="6.73416">
        <ele>1974.1</ele>
        <time>2021-08-12T12:52:06Z</time>
      </trkpt>
      <trkpt lat="45.52482" lon="6.73416">
        <ele>1974</ele>
        <time>2021-08-12T12:52:07Z</time>
      </trkpt>
      <trkpt lat="45.52482" lon="6.73417">
        <ele>1973.9</ele>
        <time>2021-08-12T12:52:08Z</time>
      </trkpt>
      <trkpt lat="45.52482" lon="6.73417">
        <ele>1973.9</ele>
        <time>2021-08-12T12:52:09Z</time>
      </trkpt>
      <trkpt lat="45.52482" lon="6.73417">
        <ele>1973.9</ele>
        <time>2021-08-12T12:52:10Z</time>
      </trkpt>
      <trkpt lat="45.52483" lon="6.73417">
        <ele>1973.8</ele>
        <time>2021-08-12T12:52:11Z</time>
      </trkpt>
      <trkpt lat="45.52483" lon="6.73417">
        <ele>1973.8</ele>
        <time>2021-08-12T12:52:12Z</time>
      </trkpt>
      <trkpt lat="45.52483" lon="6.73418">
        <ele>1973.7</ele>
        <time>2021-08-12T12:52:13Z</time>
      </trkpt>
      <trkpt lat="45.52484" lon="6.73418">
        <ele>1973.5</ele>
        <time>2021-08-12T12:52:14Z</time>
      </trkpt>
      <trkpt lat="45.52485" lon="6.73419">
        <ele>1973.4</ele>
        <time>2021-08-12T12:52:15Z</time>
      </trkpt>
      <trkpt lat="45.52486" lon="6.7342">
        <ele>1973.2</ele>
        <time>2021-08-12T12:52:16Z</time>
      </trkpt>
      <trkpt lat="45.52486" lon="6.73421">
        <ele>1973</ele>
        <time>2021-08-12T12:52:17Z</time>
      </trkpt>
      <trkpt lat="45.52487" lon="6.73422">
        <ele>1972.9</ele>
        <time>2021-08-12T12:52:18Z</time>
      </trkpt>
      <trkpt lat="45.52488" lon="6.73422">
        <ele>1972.7</ele>
        <time>2021-08-12T12:52:19Z</time>
      </trkpt>
      <trkpt lat="45.52489" lon="6.73423">
        <ele>1972.6</ele>
        <time>2021-08-12T12:52:20Z</time>
      </trkpt>
      <trkpt lat="45.52489" lon="6.73423">
        <ele>1972.5</ele>
        <time>2021-08-12T12:52:21Z</time>
      </trkpt>
      <trkpt lat="45.5249" lon="6.73424">
        <ele>1972.3</ele>
        <time>2021-08-12T12:52:22Z</time>
      </trkpt>
      <trkpt lat="45.5249" lon="6.73424">
        <ele>1972.2</ele>
        <time>2021-08-12T12:52:23Z</time>
      </trkpt>
      <trkpt lat="45.52491" lon="6.73425">
        <ele>1972.1</ele>
        <time>2021-08-12T12:52:24Z</time>
      </trkpt>
      <trkpt lat="45.52491" lon="6.73425">
        <ele>1972</ele>
        <time>2021-08-12T12:52:25Z</time>
      </trkpt>
      <trkpt lat="45.52492" lon="6.73426">
        <ele>1971.9</ele>
        <time>2021-08-12T12:52:26Z</time>
      </trkpt>
      <trkpt lat="45.52493" lon="6.73426">
        <ele>1971.8</ele>
        <time>2021-08-12T12:52:27Z</time>
      </trkpt>
      <trkpt lat="45.52493" lon="6.73427">
        <ele>1971.7</ele>
        <time>2021-08-12T12:52:28Z</time>
      </trkpt>
      <trkpt lat="45.52494" lon="6.73427">
        <ele>1971.6</ele>
        <time>2021-08-12T12:52:29Z</time>
      </trkpt>
      <trkpt lat="45.52494" lon="6.73428">
        <ele>1971.5</ele>
        <time>2021-08-12T12:52:30Z</time>
      </trkpt>
      <trkpt lat="45.52495" lon="6.73428">
        <ele>1971.4</ele>
        <time>2021-08-12T12:52:31Z</time>
      </trkpt>
      <trkpt lat="45.52496" lon="6.73429">
        <ele>1971.3</ele>
        <time>2021-08-12T12:52:32Z</time>
      </trkpt>
      <trkpt lat="45.52496" lon="6.73429">
        <ele>1971.1</ele>
        <time>2021-08-12T12:52:33Z</time>
      </trkpt>
      <trkpt lat="45.52497" lon="6.7343">
        <ele>1971</ele>
        <time>2021-08-12T12:52:34Z</time>
      </trkpt>
      <trkpt lat="45.52498" lon="6.73431">
        <ele>1970.9</ele>
        <time>2021-08-12T12:52:35Z</time>
      </trkpt>
      <trkpt lat="45.52499" lon="6.73431">
        <ele>1970.7</ele>
        <time>2021-08-12T12:52:36Z</time>
      </trkpt>
      <trkpt lat="45.525" lon="6.73432">
        <ele>1970.5</ele>
        <time>2021-08-12T12:52:37Z</time>
      </trkpt>
      <trkpt lat="45.52501" lon="6.73432">
        <ele>1970.4</ele>
        <time>2021-08-12T12:52:38Z</time>
      </trkpt>
      <trkpt lat="45.52502" lon="6.73433">
        <ele>1970.2</ele>
        <time>2021-08-12T12:52:39Z</time>
      </trkpt>
      <trkpt lat="45.52503" lon="6.73434">
        <ele>1970</ele>
        <time>2021-08-12T12:52:40Z</time>
      </trkpt>
      <trkpt lat="45.52504" lon="6.73434">
        <ele>1969.8</ele>
        <time>2021-08-12T12:52:41Z</time>
      </trkpt>
      <trkpt lat="45.52505" lon="6.73435">
        <ele>1969.6</ele>
        <time>2021-08-12T12:52:42Z</time>
      </trkpt>
      <trkpt lat="45.52506" lon="6.73436">
        <ele>1969.5</ele>
        <time>2021-08-12T12:52:43Z</time>
      </trkpt>
      <trkpt lat="45.52506" lon="6.73437">
        <ele>1969.4</ele>
        <time>2021-08-12T12:52:44Z</time>
      </trkpt>
      <trkpt lat="45.52507" lon="6.73437">
        <ele>1969.2</ele>
        <time>2021-08-12T12:52:45Z</time>
      </trkpt>
      <trkpt lat="45.52507" lon="6.73438">
        <ele>1969.1</ele>
        <time>2021-08-12T12:52:46Z</time>
      </trkpt>
      <trkpt lat="45.52508" lon="6.73439">
        <ele>1969</ele>
        <time>2021-08-12T12:52:47Z</time>
      </trkpt>
      <trkpt lat="45.52508" lon="6.7344">
        <ele>1968.9</ele>
        <time>2021-08-12T12:52:48Z</time>
      </trkpt>
      <trkpt lat="45.52509" lon="6.73441">
        <ele>1968.7</ele>
        <time>2021-08-12T12:52:49Z</time>
      </trkpt>
      <trkpt lat="45.52509" lon="6.73442">
        <ele>1968.6</ele>
        <time>2021-08-12T12:52:50Z</time>
      </trkpt>
      <trkpt lat="45.5251" lon="6.73443">
        <ele>1968.5</ele>
        <time>2021-08-12T12:52:51Z</time>
      </trkpt>
      <trkpt lat="45.5251" lon="6.73444">
        <ele>1968.3</ele>
        <time>2021-08-12T12:52:52Z</time>
      </trkpt>
      <trkpt lat="45.52511" lon="6.73445">
        <ele>1968.2</ele>
        <time>2021-08-12T12:52:53Z</time>
      </trkpt>
      <trkpt lat="45.52511" lon="6.73446">
        <ele>1968.1</ele>
        <time>2021-08-12T12:52:54Z</time>
      </trkpt>
      <trkpt lat="45.52512" lon="6.73447">
        <ele>1967.9</ele>
        <time>2021-08-12T12:52:55Z</time>
      </trkpt>
      <trkpt lat="45.52513" lon="6.73448">
        <ele>1967.8</ele>
        <time>2021-08-12T12:52:56Z</time>
      </trkpt>
      <trkpt lat="45.52513" lon="6.73449">
        <ele>1967.7</ele>
        <time>2021-08-12T12:52:57Z</time>
      </trkpt>
      <trkpt lat="45.52514" lon="6.73449">
        <ele>1967.6</ele>
        <time>2021-08-12T12:52:58Z</time>
      </trkpt>
      <trkpt lat="45.52514" lon="6.7345">
        <ele>1967.4</ele>
        <time>2021-08-12T12:52:59Z</time>
      </trkpt>
      <trkpt lat="45.52515" lon="6.73451">
        <ele>1967.3</ele>
        <time>2021-08-12T12:53:00Z</time>
      </trkpt>
      <trkpt lat="45.52516" lon="6.73451">
        <ele>1967.2</ele>
        <time>2021-08-12T12:53:01Z</time>
      </trkpt>
      <trkpt lat="45.52516" lon="6.73452">
        <ele>1967.1</ele>
        <time>2021-08-12T12:53:02Z</time>
      </trkpt>
      <trkpt lat="45.52517" lon="6.73452">
        <ele>1967</ele>
        <time>2021-08-12T12:53:03Z</time>
      </trkpt>
      <trkpt lat="45.52517" lon="6.73453">
        <ele>1966.9</ele>
        <time>2021-08-12T12:53:04Z</time>
      </trkpt>
      <trkpt lat="45.52517" lon="6.73453">
        <ele>1966.9</ele>
        <time>2021-08-12T12:53:05Z</time>
      </trkpt>
      <trkpt lat="45.52518" lon="6.73453">
        <ele>1966.8</ele>
        <time>2021-08-12T12:53:06Z</time>
      </trkpt>
      <trkpt lat="45.52518" lon="6.73453">
        <ele>1966.8</ele>
        <time>2021-08-12T12:53:07Z</time>
      </trkpt>
      <trkpt lat="45.52518" lon="6.73453">
        <ele>1966.8</ele>
        <time>2021-08-12T12:53:08Z</time>
      </trkpt>
      <trkpt lat="45.52518" lon="6.73453">
        <ele>1966.8</ele>
        <time>2021-08-12T12:53:09Z</time>
      </trkpt>
      <trkpt lat="45.52518" lon="6.73453">
        <ele>1966.8</ele>
        <time>2021-08-12T12:53:10Z</time>
      </trkpt>
      <trkpt lat="45.52518" lon="6.73453">
        <ele>1966.8</ele>
        <time>2021-08-12T12:53:11Z</time>
      </trkpt>
      <trkpt lat="45.52518" lon="6.73453">
        <ele>1966.8</ele>
        <time>2021-08-12T12:53:12Z</time>
      </trkpt>
      <trkpt lat="45.52518" lon="6.73453">
        <ele>1966.8</ele>
        <time>2021-08-12T12:53:13Z</time>
      </trkpt>
      <trkpt lat="45.52518" lon="6.73454">
        <ele>1966.7</ele>
        <time>2021-08-12T12:53:14Z</time>
      </trkpt>
      <trkpt lat="45.52518" lon="6.73454">
        <ele>1966.7</ele>
        <time>2021-08-12T12:53:15Z</time>
      </trkpt>
      <trkpt lat="45.52519" lon="6.73454">
        <ele>1966.6</ele>
        <time>2021-08-12T12:53:16Z</time>
      </trkpt>
      <trkpt lat="45.52519" lon="6.73455">
        <ele>1966.5</ele>
        <time>2021-08-12T12:53:17Z</time>
      </trkpt>
      <trkpt lat="45.5252" lon="6.73456">
        <ele>1966.4</ele>
        <time>2021-08-12T12:53:18Z</time>
      </trkpt>
      <trkpt lat="45.5252" lon="6.73457">
        <ele>1966.3</ele>
        <time>2021-08-12T12:53:19Z</time>
      </trkpt>
      <trkpt lat="45.52521" lon="6.73457">
        <ele>1966.2</ele>
        <time>2021-08-12T12:53:20Z</time>
      </trkpt>
      <trkpt lat="45.52522" lon="6.73458">
        <ele>1966.1</ele>
        <time>2021-08-12T12:53:21Z</time>
      </trkpt>
      <trkpt lat="45.52522" lon="6.73459">
        <ele>1965.9</ele>
        <time>2021-08-12T12:53:22Z</time>
      </trkpt>
      <trkpt lat="45.52523" lon="6.73459">
        <ele>1965.9</ele>
        <time>2021-08-12T12:53:23Z</time>
      </trkpt>
      <trkpt lat="45.52523" lon="6.7346">
        <ele>1965.8</ele>
        <time>2021-08-12T12:53:24Z</time>
      </trkpt>
      <trkpt lat="45.52523" lon="6.7346">
        <ele>1965.7</ele>
        <time>2021-08-12T12:53:25Z</time>
      </trkpt>
      <trkpt lat="45.52524" lon="6.73461">
        <ele>1965.6</ele>
        <time>2021-08-12T12:53:26Z</time>
      </trkpt>
      <trkpt lat="45.52524" lon="6.73462">
        <ele>1965.5</ele>
        <time>2021-08-12T12:53:27Z</time>
      </trkpt>
      <trkpt lat="45.52525" lon="6.73462">
        <ele>1965.4</ele>
        <time>2021-08-12T12:53:28Z</time>
      </trkpt>
      <trkpt lat="45.52525" lon="6.73463">
        <ele>1965.3</ele>
        <time>2021-08-12T12:53:29Z</time>
      </trkpt>
      <trkpt lat="45.52526" lon="6.73463">
        <ele>1965.2</ele>
        <time>2021-08-12T12:53:30Z</time>
      </trkpt>
      <trkpt lat="45.52526" lon="6.73464">
        <ele>1965.1</ele>
        <time>2021-08-12T12:53:31Z</time>
      </trkpt>
      <trkpt lat="45.52527" lon="6.73465">
        <ele>1965</ele>
        <time>2021-08-12T12:53:32Z</time>
      </trkpt>
      <trkpt lat="45.52527" lon="6.73465">
        <ele>1964.9</ele>
        <time>2021-08-12T12:53:33Z</time>
      </trkpt>
      <trkpt lat="45.52528" lon="6.73466">
        <ele>1964.8</ele>
        <time>2021-08-12T12:53:34Z</time>
      </trkpt>
      <trkpt lat="45.52528" lon="6.73467">
        <ele>1964.7</ele>
        <time>2021-08-12T12:53:35Z</time>
      </trkpt>
      <trkpt lat="45.52529" lon="6.73468">
        <ele>1964.6</ele>
        <time>2021-08-12T12:53:36Z</time>
      </trkpt>
      <trkpt lat="45.52529" lon="6.73469">
        <ele>1964.5</ele>
        <time>2021-08-12T12:53:37Z</time>
      </trkpt>
      <trkpt lat="45.5253" lon="6.73469">
        <ele>1964.4</ele>
        <time>2021-08-12T12:53:38Z</time>
      </trkpt>
      <trkpt lat="45.5253" lon="6.7347">
        <ele>1964.2</ele>
        <time>2021-08-12T12:53:39Z</time>
      </trkpt>
      <trkpt lat="45.52531" lon="6.73471">
        <ele>1964.1</ele>
        <time>2021-08-12T12:53:40Z</time>
      </trkpt>
      <trkpt lat="45.52531" lon="6.73472">
        <ele>1964</ele>
        <time>2021-08-12T12:53:41Z</time>
      </trkpt>
      <trkpt lat="45.52531" lon="6.73473">
        <ele>1963.9</ele>
        <time>2021-08-12T12:53:42Z</time>
      </trkpt>
      <trkpt lat="45.52532" lon="6.73474">
        <ele>1963.7</ele>
        <time>2021-08-12T12:53:43Z</time>
      </trkpt>
      <trkpt lat="45.52532" lon="6.73475">
        <ele>1963.6</ele>
        <time>2021-08-12T12:53:44Z</time>
      </trkpt>
      <trkpt lat="45.52533" lon="6.73476">
        <ele>1963.5</ele>
        <time>2021-08-12T12:53:45Z</time>
      </trkpt>
      <trkpt lat="45.52533" lon="6.73477">
        <ele>1963.4</ele>
        <time>2021-08-12T12:53:46Z</time>
      </trkpt>
      <trkpt lat="45.52533" lon="6.73478">
        <ele>1963.2</ele>
        <time>2021-08-12T12:53:47Z</time>
      </trkpt>
      <trkpt lat="45.52534" lon="6.73479">
        <ele>1963.1</ele>
        <time>2021-08-12T12:53:48Z</time>
      </trkpt>
      <trkpt lat="45.52534" lon="6.73481">
        <ele>1963</ele>
        <time>2021-08-12T12:53:49Z</time>
      </trkpt>
      <trkpt lat="45.52534" lon="6.73482">
        <ele>1962.9</ele>
        <time>2021-08-12T12:53:50Z</time>
      </trkpt>
      <trkpt lat="45.52534" lon="6.73483">
        <ele>1962.7</ele>
        <time>2021-08-12T12:53:51Z</time>
      </trkpt>
      <trkpt lat="45.52534" lon="6.73484">
        <ele>1962.6</ele>
        <time>2021-08-12T12:53:52Z</time>
      </trkpt>
      <trkpt lat="45.52534" lon="6.73485">
        <ele>1962.5</ele>
        <time>2021-08-12T12:53:53Z</time>
      </trkpt>
      <trkpt lat="45.52534" lon="6.73486">
        <ele>1962.4</ele>
        <time>2021-08-12T12:53:54Z</time>
      </trkpt>
      <trkpt lat="45.52534" lon="6.73487">
        <ele>1962.3</ele>
        <time>2021-08-12T12:53:55Z</time>
      </trkpt>
      <trkpt lat="45.52534" lon="6.73487">
        <ele>1962.2</ele>
        <time>2021-08-12T12:53:56Z</time>
      </trkpt>
      <trkpt lat="45.52534" lon="6.73488">
        <ele>1962.1</ele>
        <time>2021-08-12T12:53:57Z</time>
      </trkpt>
      <trkpt lat="45.52534" lon="6.73489">
        <ele>1962</ele>
        <time>2021-08-12T12:53:58Z</time>
      </trkpt>
      <trkpt lat="45.52534" lon="6.7349">
        <ele>1961.9</ele>
        <time>2021-08-12T12:53:59Z</time>
      </trkpt>
      <trkpt lat="45.52534" lon="6.73491">
        <ele>1961.8</ele>
        <time>2021-08-12T12:54:00Z</time>
      </trkpt>
      <trkpt lat="45.52534" lon="6.73492">
        <ele>1961.8</ele>
        <time>2021-08-12T12:54:01Z</time>
      </trkpt>
      <trkpt lat="45.52534" lon="6.73492">
        <ele>1961.7</ele>
        <time>2021-08-12T12:54:02Z</time>
      </trkpt>
      <trkpt lat="45.52534" lon="6.73493">
        <ele>1961.5</ele>
        <time>2021-08-12T12:54:03Z</time>
      </trkpt>
      <trkpt lat="45.52534" lon="6.73494">
        <ele>1961.4</ele>
        <time>2021-08-12T12:54:04Z</time>
      </trkpt>
      <trkpt lat="45.52535" lon="6.73495">
        <ele>1961.3</ele>
        <time>2021-08-12T12:54:05Z</time>
      </trkpt>
      <trkpt lat="45.52535" lon="6.73496">
        <ele>1961.2</ele>
        <time>2021-08-12T12:54:06Z</time>
      </trkpt>
      <trkpt lat="45.52536" lon="6.73498">
        <ele>1961</ele>
        <time>2021-08-12T12:54:07Z</time>
      </trkpt>
      <trkpt lat="45.52536" lon="6.73499">
        <ele>1960.8</ele>
        <time>2021-08-12T12:54:08Z</time>
      </trkpt>
      <trkpt lat="45.52537" lon="6.735">
        <ele>1960.7</ele>
        <time>2021-08-12T12:54:09Z</time>
      </trkpt>
      <trkpt lat="45.52537" lon="6.73501">
        <ele>1960.5</ele>
        <time>2021-08-12T12:54:10Z</time>
      </trkpt>
      <trkpt lat="45.52538" lon="6.73502">
        <ele>1960.3</ele>
        <time>2021-08-12T12:54:11Z</time>
      </trkpt>
      <trkpt lat="45.52538" lon="6.73503">
        <ele>1960.2</ele>
        <time>2021-08-12T12:54:12Z</time>
      </trkpt>
      <trkpt lat="45.52538" lon="6.73504">
        <ele>1960.1</ele>
        <time>2021-08-12T12:54:13Z</time>
      </trkpt>
      <trkpt lat="45.52538" lon="6.73505">
        <ele>1959.9</ele>
        <time>2021-08-12T12:54:14Z</time>
      </trkpt>
      <trkpt lat="45.52538" lon="6.73506">
        <ele>1959.8</ele>
        <time>2021-08-12T12:54:15Z</time>
      </trkpt>
      <trkpt lat="45.52538" lon="6.73507">
        <ele>1959.7</ele>
        <time>2021-08-12T12:54:16Z</time>
      </trkpt>
      <trkpt lat="45.52537" lon="6.73508">
        <ele>1959.5</ele>
        <time>2021-08-12T12:54:17Z</time>
      </trkpt>
      <trkpt lat="45.52537" lon="6.73509">
        <ele>1959.3</ele>
        <time>2021-08-12T12:54:18Z</time>
      </trkpt>
      <trkpt lat="45.52536" lon="6.7351">
        <ele>1959.1</ele>
        <time>2021-08-12T12:54:19Z</time>
      </trkpt>
      <trkpt lat="45.52535" lon="6.73511">
        <ele>1958.9</ele>
        <time>2021-08-12T12:54:20Z</time>
      </trkpt>
      <trkpt lat="45.52534" lon="6.73512">
        <ele>1958.7</ele>
        <time>2021-08-12T12:54:21Z</time>
      </trkpt>
      <trkpt lat="45.52533" lon="6.73513">
        <ele>1958.5</ele>
        <time>2021-08-12T12:54:22Z</time>
      </trkpt>
      <trkpt lat="45.52532" lon="6.73513">
        <ele>1958.3</ele>
        <time>2021-08-12T12:54:23Z</time>
      </trkpt>
      <trkpt lat="45.52531" lon="6.73513">
        <ele>1958.1</ele>
        <time>2021-08-12T12:54:24Z</time>
      </trkpt>
      <trkpt lat="45.5253" lon="6.73513">
        <ele>1958</ele>
        <time>2021-08-12T12:54:25Z</time>
      </trkpt>
      <trkpt lat="45.52529" lon="6.73513">
        <ele>1957.9</ele>
        <time>2021-08-12T12:54:26Z</time>
      </trkpt>
      <trkpt lat="45.52528" lon="6.73512">
        <ele>1957.7</ele>
        <time>2021-08-12T12:54:27Z</time>
      </trkpt>
      <trkpt lat="45.52528" lon="6.73511">
        <ele>1957.6</ele>
        <time>2021-08-12T12:54:28Z</time>
      </trkpt>
      <trkpt lat="45.52527" lon="6.73511">
        <ele>1957.5</ele>
        <time>2021-08-12T12:54:29Z</time>
      </trkpt>
      <trkpt lat="45.52526" lon="6.7351">
        <ele>1957.4</ele>
        <time>2021-08-12T12:54:30Z</time>
      </trkpt>
      <trkpt lat="45.52526" lon="6.73509">
        <ele>1957.2</ele>
        <time>2021-08-12T12:54:31Z</time>
      </trkpt>
      <trkpt lat="45.52525" lon="6.73507">
        <ele>1957.1</ele>
        <time>2021-08-12T12:54:32Z</time>
      </trkpt>
      <trkpt lat="45.52525" lon="6.73506">
        <ele>1957</ele>
        <time>2021-08-12T12:54:33Z</time>
      </trkpt>
      <trkpt lat="45.52524" lon="6.73505">
        <ele>1956.9</ele>
        <time>2021-08-12T12:54:34Z</time>
      </trkpt>
      <trkpt lat="45.52524" lon="6.73504">
        <ele>1956.8</ele>
        <time>2021-08-12T12:54:35Z</time>
      </trkpt>
      <trkpt lat="45.52524" lon="6.73504">
        <ele>1956.7</ele>
        <time>2021-08-12T12:54:36Z</time>
      </trkpt>
      <trkpt lat="45.52523" lon="6.73503">
        <ele>1956.6</ele>
        <time>2021-08-12T12:54:37Z</time>
      </trkpt>
      <trkpt lat="45.52523" lon="6.73502">
        <ele>1956.5</ele>
        <time>2021-08-12T12:54:38Z</time>
      </trkpt>
      <trkpt lat="45.52522" lon="6.73501">
        <ele>1956.5</ele>
        <time>2021-08-12T12:54:39Z</time>
      </trkpt>
      <trkpt lat="45.52522" lon="6.735">
        <ele>1956.4</ele>
        <time>2021-08-12T12:54:40Z</time>
      </trkpt>
      <trkpt lat="45.52521" lon="6.73499">
        <ele>1956.3</ele>
        <time>2021-08-12T12:54:41Z</time>
      </trkpt>
      <trkpt lat="45.52521" lon="6.73499">
        <ele>1956.2</ele>
        <time>2021-08-12T12:54:42Z</time>
      </trkpt>
      <trkpt lat="45.5252" lon="6.73498">
        <ele>1956.1</ele>
        <time>2021-08-12T12:54:43Z</time>
      </trkpt>
      <trkpt lat="45.5252" lon="6.73497">
        <ele>1956</ele>
        <time>2021-08-12T12:54:44Z</time>
      </trkpt>
      <trkpt lat="45.52519" lon="6.73496">
        <ele>1955.9</ele>
        <time>2021-08-12T12:54:45Z</time>
      </trkpt>
      <trkpt lat="45.52519" lon="6.73495">
        <ele>1955.8</ele>
        <time>2021-08-12T12:54:46Z</time>
      </trkpt>
      <trkpt lat="45.52518" lon="6.73494">
        <ele>1955.7</ele>
        <time>2021-08-12T12:54:47Z</time>
      </trkpt>
      <trkpt lat="45.52517" lon="6.73494">
        <ele>1955.6</ele>
        <time>2021-08-12T12:54:48Z</time>
      </trkpt>
      <trkpt lat="45.52517" lon="6.73493">
        <ele>1955.5</ele>
        <time>2021-08-12T12:54:49Z</time>
      </trkpt>
      <trkpt lat="45.52516" lon="6.73492">
        <ele>1955.4</ele>
        <time>2021-08-12T12:54:50Z</time>
      </trkpt>
      <trkpt lat="45.52516" lon="6.73491">
        <ele>1955.3</ele>
        <time>2021-08-12T12:54:51Z</time>
      </trkpt>
      <trkpt lat="45.52515" lon="6.7349">
        <ele>1955.2</ele>
        <time>2021-08-12T12:54:52Z</time>
      </trkpt>
      <trkpt lat="45.52515" lon="6.7349">
        <ele>1955.1</ele>
        <time>2021-08-12T12:54:53Z</time>
      </trkpt>
      <trkpt lat="45.52514" lon="6.73489">
        <ele>1955</ele>
        <time>2021-08-12T12:54:54Z</time>
      </trkpt>
      <trkpt lat="45.52514" lon="6.73489">
        <ele>1955</ele>
        <time>2021-08-12T12:54:55Z</time>
      </trkpt>
      <trkpt lat="45.52514" lon="6.73488">
        <ele>1954.9</ele>
        <time>2021-08-12T12:54:56Z</time>
      </trkpt>
      <trkpt lat="45.52513" lon="6.73488">
        <ele>1954.8</ele>
        <time>2021-08-12T12:54:57Z</time>
      </trkpt>
      <trkpt lat="45.52513" lon="6.73487">
        <ele>1954.8</ele>
        <time>2021-08-12T12:54:58Z</time>
      </trkpt>
      <trkpt lat="45.52512" lon="6.73487">
        <ele>1954.7</ele>
        <time>2021-08-12T12:54:59Z</time>
      </trkpt>
      <trkpt lat="45.52512" lon="6.73486">
        <ele>1954.6</ele>
        <time>2021-08-12T12:55:00Z</time>
      </trkpt>
      <trkpt lat="45.52511" lon="6.73486">
        <ele>1954.6</ele>
        <time>2021-08-12T12:55:01Z</time>
      </trkpt>
      <trkpt lat="45.52511" lon="6.73486">
        <ele>1954.5</ele>
        <time>2021-08-12T12:55:02Z</time>
      </trkpt>
      <trkpt lat="45.5251" lon="6.73485">
        <ele>1954.4</ele>
        <time>2021-08-12T12:55:03Z</time>
      </trkpt>
      <trkpt lat="45.52509" lon="6.73485">
        <ele>1954.3</ele>
        <time>2021-08-12T12:55:04Z</time>
      </trkpt>
      <trkpt lat="45.52509" lon="6.73485">
        <ele>1954.2</ele>
        <time>2021-08-12T12:55:05Z</time>
      </trkpt>
      <trkpt lat="45.52508" lon="6.73485">
        <ele>1954.1</ele>
        <time>2021-08-12T12:55:06Z</time>
      </trkpt>
      <trkpt lat="45.52507" lon="6.73485">
        <ele>1954</ele>
        <time>2021-08-12T12:55:07Z</time>
      </trkpt>
      <trkpt lat="45.52507" lon="6.73485">
        <ele>1953.9</ele>
        <time>2021-08-12T12:55:08Z</time>
      </trkpt>
      <trkpt lat="45.52506" lon="6.73485">
        <ele>1953.9</ele>
        <time>2021-08-12T12:55:09Z</time>
      </trkpt>
      <trkpt lat="45.52505" lon="6.73485">
        <ele>1953.7</ele>
        <time>2021-08-12T12:55:10Z</time>
      </trkpt>
      <trkpt lat="45.52504" lon="6.73485">
        <ele>1953.6</ele>
        <time>2021-08-12T12:55:11Z</time>
      </trkpt>
      <trkpt lat="45.52504" lon="6.73485">
        <ele>1953.5</ele>
        <time>2021-08-12T12:55:12Z</time>
      </trkpt>
      <trkpt lat="45.52503" lon="6.73485">
        <ele>1953.4</ele>
        <time>2021-08-12T12:55:13Z</time>
      </trkpt>
      <trkpt lat="45.52502" lon="6.73485">
        <ele>1953.3</ele>
        <time>2021-08-12T12:55:14Z</time>
      </trkpt>
      <trkpt lat="45.52501" lon="6.73485">
        <ele>1953.2</ele>
        <time>2021-08-12T12:55:15Z</time>
      </trkpt>
      <trkpt lat="45.525" lon="6.73485">
        <ele>1953.1</ele>
        <time>2021-08-12T12:55:16Z</time>
      </trkpt>
      <trkpt lat="45.52499" lon="6.73485">
        <ele>1953</ele>
        <time>2021-08-12T12:55:17Z</time>
      </trkpt>
      <trkpt lat="45.52498" lon="6.73485">
        <ele>1952.9</ele>
        <time>2021-08-12T12:55:18Z</time>
      </trkpt>
      <trkpt lat="45.52498" lon="6.73486">
        <ele>1952.7</ele>
        <time>2021-08-12T12:55:19Z</time>
      </trkpt>
      <trkpt lat="45.52497" lon="6.73486">
        <ele>1952.6</ele>
        <time>2021-08-12T12:55:20Z</time>
      </trkpt>
      <trkpt lat="45.52496" lon="6.73486">
        <ele>1952.5</ele>
        <time>2021-08-12T12:55:21Z</time>
      </trkpt>
      <trkpt lat="45.52495" lon="6.73486">
        <ele>1952.4</ele>
        <time>2021-08-12T12:55:22Z</time>
      </trkpt>
      <trkpt lat="45.52494" lon="6.73486">
        <ele>1952.3</ele>
        <time>2021-08-12T12:55:23Z</time>
      </trkpt>
      <trkpt lat="45.52493" lon="6.73487">
        <ele>1952.2</ele>
        <time>2021-08-12T12:55:24Z</time>
      </trkpt>
      <trkpt lat="45.52492" lon="6.73487">
        <ele>1952</ele>
        <time>2021-08-12T12:55:25Z</time>
      </trkpt>
      <trkpt lat="45.52492" lon="6.73487">
        <ele>1951.9</ele>
        <time>2021-08-12T12:55:26Z</time>
      </trkpt>
      <trkpt lat="45.52491" lon="6.73488">
        <ele>1951.8</ele>
        <time>2021-08-12T12:55:27Z</time>
      </trkpt>
      <trkpt lat="45.5249" lon="6.73488">
        <ele>1951.7</ele>
        <time>2021-08-12T12:55:28Z</time>
      </trkpt>
      <trkpt lat="45.52489" lon="6.73488">
        <ele>1951.6</ele>
        <time>2021-08-12T12:55:29Z</time>
      </trkpt>
      <trkpt lat="45.52488" lon="6.73488">
        <ele>1951.5</ele>
        <time>2021-08-12T12:55:30Z</time>
      </trkpt>
      <trkpt lat="45.52488" lon="6.73489">
        <ele>1951.4</ele>
        <time>2021-08-12T12:55:31Z</time>
      </trkpt>
      <trkpt lat="45.52487" lon="6.73489">
        <ele>1951.3</ele>
        <time>2021-08-12T12:55:32Z</time>
      </trkpt>
      <trkpt lat="45.52486" lon="6.73489">
        <ele>1951.2</ele>
        <time>2021-08-12T12:55:33Z</time>
      </trkpt>
      <trkpt lat="45.52485" lon="6.7349">
        <ele>1951.1</ele>
        <time>2021-08-12T12:55:34Z</time>
      </trkpt>
      <trkpt lat="45.52484" lon="6.7349">
        <ele>1951</ele>
        <time>2021-08-12T12:55:35Z</time>
      </trkpt>
      <trkpt lat="45.52484" lon="6.7349">
        <ele>1950.9</ele>
        <time>2021-08-12T12:55:36Z</time>
      </trkpt>
      <trkpt lat="45.52483" lon="6.73491">
        <ele>1950.8</ele>
        <time>2021-08-12T12:55:37Z</time>
      </trkpt>
      <trkpt lat="45.52482" lon="6.73491">
        <ele>1950.7</ele>
        <time>2021-08-12T12:55:38Z</time>
      </trkpt>
      <trkpt lat="45.52481" lon="6.73491">
        <ele>1950.6</ele>
        <time>2021-08-12T12:55:39Z</time>
      </trkpt>
      <trkpt lat="45.5248" lon="6.73492">
        <ele>1950.5</ele>
        <time>2021-08-12T12:55:40Z</time>
      </trkpt>
      <trkpt lat="45.5248" lon="6.73492">
        <ele>1950.4</ele>
        <time>2021-08-12T12:55:41Z</time>
      </trkpt>
      <trkpt lat="45.52479" lon="6.73492">
        <ele>1950.3</ele>
        <time>2021-08-12T12:55:42Z</time>
      </trkpt>
      <trkpt lat="45.52478" lon="6.73492">
        <ele>1950.2</ele>
        <time>2021-08-12T12:55:43Z</time>
      </trkpt>
      <trkpt lat="45.52477" lon="6.73493">
        <ele>1950.1</ele>
        <time>2021-08-12T12:55:44Z</time>
      </trkpt>
      <trkpt lat="45.52476" lon="6.73493">
        <ele>1950</ele>
        <time>2021-08-12T12:55:45Z</time>
      </trkpt>
      <trkpt lat="45.52476" lon="6.73493">
        <ele>1949.9</ele>
        <time>2021-08-12T12:55:46Z</time>
      </trkpt>
      <trkpt lat="45.52475" lon="6.73493">
        <ele>1949.8</ele>
        <time>2021-08-12T12:55:47Z</time>
      </trkpt>
      <trkpt lat="45.52474" lon="6.73494">
        <ele>1949.7</ele>
        <time>2021-08-12T12:55:48Z</time>
      </trkpt>
      <trkpt lat="45.52473" lon="6.73494">
        <ele>1949.6</ele>
        <time>2021-08-12T12:55:49Z</time>
      </trkpt>
      <trkpt lat="45.52473" lon="6.73494">
        <ele>1949.6</ele>
        <time>2021-08-12T12:55:50Z</time>
      </trkpt>
      <trkpt lat="45.52472" lon="6.73494">
        <ele>1949.5</ele>
        <time>2021-08-12T12:55:51Z</time>
      </trkpt>
      <trkpt lat="45.52471" lon="6.73494">
        <ele>1949.4</ele>
        <time>2021-08-12T12:55:52Z</time>
      </trkpt>
      <trkpt lat="45.5247" lon="6.73494">
        <ele>1949.3</ele>
        <time>2021-08-12T12:55:53Z</time>
      </trkpt>
      <trkpt lat="45.52469" lon="6.73495">
        <ele>1949.2</ele>
        <time>2021-08-12T12:55:54Z</time>
      </trkpt>
      <trkpt lat="45.52469" lon="6.73495">
        <ele>1949</ele>
        <time>2021-08-12T12:55:55Z</time>
      </trkpt>
      <trkpt lat="45.52468" lon="6.73495">
        <ele>1948.9</ele>
        <time>2021-08-12T12:55:56Z</time>
      </trkpt>
      <trkpt lat="45.52467" lon="6.73495">
        <ele>1948.8</ele>
        <time>2021-08-12T12:55:57Z</time>
      </trkpt>
      <trkpt lat="45.52466" lon="6.73495">
        <ele>1948.7</ele>
        <time>2021-08-12T12:55:58Z</time>
      </trkpt>
      <trkpt lat="45.52465" lon="6.73495">
        <ele>1948.6</ele>
        <time>2021-08-12T12:55:59Z</time>
      </trkpt>
      <trkpt lat="45.52464" lon="6.73495">
        <ele>1948.5</ele>
        <time>2021-08-12T12:56:00Z</time>
      </trkpt>
      <trkpt lat="45.52464" lon="6.73495">
        <ele>1948.4</ele>
        <time>2021-08-12T12:56:01Z</time>
      </trkpt>
      <trkpt lat="45.52463" lon="6.73495">
        <ele>1948.3</ele>
        <time>2021-08-12T12:56:02Z</time>
      </trkpt>
      <trkpt lat="45.52462" lon="6.73494">
        <ele>1948.2</ele>
        <time>2021-08-12T12:56:03Z</time>
      </trkpt>
      <trkpt lat="45.52461" lon="6.73494">
        <ele>1948.1</ele>
        <time>2021-08-12T12:56:04Z</time>
      </trkpt>
      <trkpt lat="45.5246" lon="6.73494">
        <ele>1948</ele>
        <time>2021-08-12T12:56:05Z</time>
      </trkpt>
      <trkpt lat="45.5246" lon="6.73494">
        <ele>1947.9</ele>
        <time>2021-08-12T12:56:06Z</time>
      </trkpt>
      <trkpt lat="45.52459" lon="6.73494">
        <ele>1947.8</ele>
        <time>2021-08-12T12:56:07Z</time>
      </trkpt>
      <trkpt lat="45.52458" lon="6.73494">
        <ele>1947.6</ele>
        <time>2021-08-12T12:56:08Z</time>
      </trkpt>
      <trkpt lat="45.52457" lon="6.73494">
        <ele>1947.5</ele>
        <time>2021-08-12T12:56:09Z</time>
      </trkpt>
      <trkpt lat="45.52456" lon="6.73493">
        <ele>1947.4</ele>
        <time>2021-08-12T12:56:10Z</time>
      </trkpt>
      <trkpt lat="45.52455" lon="6.73493">
        <ele>1947.3</ele>
        <time>2021-08-12T12:56:11Z</time>
      </trkpt>
      <trkpt lat="45.52455" lon="6.73493">
        <ele>1947.2</ele>
        <time>2021-08-12T12:56:12Z</time>
      </trkpt>
      <trkpt lat="45.52454" lon="6.73493">
        <ele>1947.1</ele>
        <time>2021-08-12T12:56:13Z</time>
      </trkpt>
      <trkpt lat="45.52453" lon="6.73493">
        <ele>1947</ele>
        <time>2021-08-12T12:56:14Z</time>
      </trkpt>
      <trkpt lat="45.52452" lon="6.73493">
        <ele>1946.9</ele>
        <time>2021-08-12T12:56:15Z</time>
      </trkpt>
      <trkpt lat="45.52451" lon="6.73493">
        <ele>1946.8</ele>
        <time>2021-08-12T12:56:16Z</time>
      </trkpt>
      <trkpt lat="45.5245" lon="6.73493">
        <ele>1946.7</ele>
        <time>2021-08-12T12:56:17Z</time>
      </trkpt>
      <trkpt lat="45.5245" lon="6.73492">
        <ele>1946.6</ele>
        <time>2021-08-12T12:56:18Z</time>
      </trkpt>
      <trkpt lat="45.52449" lon="6.73492">
        <ele>1946.5</ele>
        <time>2021-08-12T12:56:19Z</time>
      </trkpt>
      <trkpt lat="45.52448" lon="6.73492">
        <ele>1946.4</ele>
        <time>2021-08-12T12:56:20Z</time>
      </trkpt>
      <trkpt lat="45.52447" lon="6.73493">
        <ele>1946.3</ele>
        <time>2021-08-12T12:56:21Z</time>
      </trkpt>
      <trkpt lat="45.52446" lon="6.73493">
        <ele>1946.2</ele>
        <time>2021-08-12T12:56:22Z</time>
      </trkpt>
      <trkpt lat="45.52446" lon="6.73493">
        <ele>1946.1</ele>
        <time>2021-08-12T12:56:23Z</time>
      </trkpt>
      <trkpt lat="45.52445" lon="6.73493">
        <ele>1946</ele>
        <time>2021-08-12T12:56:24Z</time>
      </trkpt>
      <trkpt lat="45.52444" lon="6.73493">
        <ele>1945.9</ele>
        <time>2021-08-12T12:56:25Z</time>
      </trkpt>
      <trkpt lat="45.52443" lon="6.73493">
        <ele>1945.8</ele>
        <time>2021-08-12T12:56:26Z</time>
      </trkpt>
      <trkpt lat="45.52443" lon="6.73493">
        <ele>1945.7</ele>
        <time>2021-08-12T12:56:27Z</time>
      </trkpt>
      <trkpt lat="45.52442" lon="6.73494">
        <ele>1945.7</ele>
        <time>2021-08-12T12:56:28Z</time>
      </trkpt>
      <trkpt lat="45.52441" lon="6.73494">
        <ele>1945.6</ele>
        <time>2021-08-12T12:56:29Z</time>
      </trkpt>
      <trkpt lat="45.5244" lon="6.73494">
        <ele>1945.5</ele>
        <time>2021-08-12T12:56:30Z</time>
      </trkpt>
      <trkpt lat="45.5244" lon="6.73494">
        <ele>1945.4</ele>
        <time>2021-08-12T12:56:31Z</time>
      </trkpt>
      <trkpt lat="45.52439" lon="6.73494">
        <ele>1945.3</ele>
        <time>2021-08-12T12:56:32Z</time>
      </trkpt>
      <trkpt lat="45.52438" lon="6.73495">
        <ele>1945.3</ele>
        <time>2021-08-12T12:56:33Z</time>
      </trkpt>
      <trkpt lat="45.52437" lon="6.73495">
        <ele>1945.2</ele>
        <time>2021-08-12T12:56:34Z</time>
      </trkpt>
      <trkpt lat="45.52437" lon="6.73495">
        <ele>1945.1</ele>
        <time>2021-08-12T12:56:35Z</time>
      </trkpt>
      <trkpt lat="45.52436" lon="6.73495">
        <ele>1945</ele>
        <time>2021-08-12T12:56:36Z</time>
      </trkpt>
      <trkpt lat="45.52435" lon="6.73495">
        <ele>1944.9</ele>
        <time>2021-08-12T12:56:37Z</time>
      </trkpt>
      <trkpt lat="45.52434" lon="6.73495">
        <ele>1944.9</ele>
        <time>2021-08-12T12:56:38Z</time>
      </trkpt>
      <trkpt lat="45.52434" lon="6.73496">
        <ele>1944.8</ele>
        <time>2021-08-12T12:56:39Z</time>
      </trkpt>
      <trkpt lat="45.52433" lon="6.73496">
        <ele>1944.7</ele>
        <time>2021-08-12T12:56:40Z</time>
      </trkpt>
      <trkpt lat="45.52432" lon="6.73496">
        <ele>1944.6</ele>
        <time>2021-08-12T12:56:41Z</time>
      </trkpt>
      <trkpt lat="45.52431" lon="6.73496">
        <ele>1944.5</ele>
        <time>2021-08-12T12:56:42Z</time>
      </trkpt>
      <trkpt lat="45.52431" lon="6.73496">
        <ele>1944.5</ele>
        <time>2021-08-12T12:56:43Z</time>
      </trkpt>
      <trkpt lat="45.5243" lon="6.73496">
        <ele>1944.4</ele>
        <time>2021-08-12T12:56:44Z</time>
      </trkpt>
      <trkpt lat="45.52429" lon="6.73495">
        <ele>1944.3</ele>
        <time>2021-08-12T12:56:45Z</time>
      </trkpt>
      <trkpt lat="45.52428" lon="6.73495">
        <ele>1944.2</ele>
        <time>2021-08-12T12:56:46Z</time>
      </trkpt>
      <trkpt lat="45.52428" lon="6.73495">
        <ele>1944.1</ele>
        <time>2021-08-12T12:56:47Z</time>
      </trkpt>
      <trkpt lat="45.52427" lon="6.73495">
        <ele>1944.1</ele>
        <time>2021-08-12T12:56:48Z</time>
      </trkpt>
      <trkpt lat="45.52426" lon="6.73495">
        <ele>1944</ele>
        <time>2021-08-12T12:56:49Z</time>
      </trkpt>
      <trkpt lat="45.52425" lon="6.73495">
        <ele>1943.9</ele>
        <time>2021-08-12T12:56:50Z</time>
      </trkpt>
      <trkpt lat="45.52424" lon="6.73494">
        <ele>1943.8</ele>
        <time>2021-08-12T12:56:51Z</time>
      </trkpt>
      <trkpt lat="45.52424" lon="6.73494">
        <ele>1943.7</ele>
        <time>2021-08-12T12:56:52Z</time>
      </trkpt>
      <trkpt lat="45.52423" lon="6.73494">
        <ele>1943.7</ele>
        <time>2021-08-12T12:56:53Z</time>
      </trkpt>
      <trkpt lat="45.52422" lon="6.73493">
        <ele>1943.6</ele>
        <time>2021-08-12T12:56:54Z</time>
      </trkpt>
      <trkpt lat="45.52421" lon="6.73493">
        <ele>1943.5</ele>
        <time>2021-08-12T12:56:55Z</time>
      </trkpt>
      <trkpt lat="45.52421" lon="6.73493">
        <ele>1943.4</ele>
        <time>2021-08-12T12:56:56Z</time>
      </trkpt>
      <trkpt lat="45.5242" lon="6.73492">
        <ele>1943.3</ele>
        <time>2021-08-12T12:56:57Z</time>
      </trkpt>
      <trkpt lat="45.52419" lon="6.73492">
        <ele>1943.2</ele>
        <time>2021-08-12T12:56:58Z</time>
      </trkpt>
      <trkpt lat="45.52418" lon="6.73491">
        <ele>1943.1</ele>
        <time>2021-08-12T12:56:59Z</time>
      </trkpt>
      <trkpt lat="45.52417" lon="6.73491">
        <ele>1943</ele>
        <time>2021-08-12T12:57:00Z</time>
      </trkpt>
      <trkpt lat="45.52417" lon="6.73491">
        <ele>1942.9</ele>
        <time>2021-08-12T12:57:01Z</time>
      </trkpt>
      <trkpt lat="45.52416" lon="6.7349">
        <ele>1942.8</ele>
        <time>2021-08-12T12:57:02Z</time>
      </trkpt>
      <trkpt lat="45.52415" lon="6.7349">
        <ele>1942.7</ele>
        <time>2021-08-12T12:57:03Z</time>
      </trkpt>
      <trkpt lat="45.52414" lon="6.73489">
        <ele>1942.6</ele>
        <time>2021-08-12T12:57:04Z</time>
      </trkpt>
      <trkpt lat="45.52413" lon="6.73488">
        <ele>1942.5</ele>
        <time>2021-08-12T12:57:05Z</time>
      </trkpt>
      <trkpt lat="45.52413" lon="6.73488">
        <ele>1942.4</ele>
        <time>2021-08-12T12:57:06Z</time>
      </trkpt>
      <trkpt lat="45.52412" lon="6.73487">
        <ele>1942.3</ele>
        <time>2021-08-12T12:57:07Z</time>
      </trkpt>
      <trkpt lat="45.52411" lon="6.73487">
        <ele>1942.2</ele>
        <time>2021-08-12T12:57:08Z</time>
      </trkpt>
      <trkpt lat="45.5241" lon="6.73486">
        <ele>1942.1</ele>
        <time>2021-08-12T12:57:09Z</time>
      </trkpt>
      <trkpt lat="45.52409" lon="6.73485">
        <ele>1942</ele>
        <time>2021-08-12T12:57:10Z</time>
      </trkpt>
      <trkpt lat="45.52409" lon="6.73485">
        <ele>1941.9</ele>
        <time>2021-08-12T12:57:11Z</time>
      </trkpt>
      <trkpt lat="45.52408" lon="6.73484">
        <ele>1941.8</ele>
        <time>2021-08-12T12:57:12Z</time>
      </trkpt>
      <trkpt lat="45.52407" lon="6.73483">
        <ele>1941.7</ele>
        <time>2021-08-12T12:57:13Z</time>
      </trkpt>
      <trkpt lat="45.52406" lon="6.73483">
        <ele>1941.6</ele>
        <time>2021-08-12T12:57:14Z</time>
      </trkpt>
      <trkpt lat="45.52406" lon="6.73482">
        <ele>1941.5</ele>
        <time>2021-08-12T12:57:15Z</time>
      </trkpt>
      <trkpt lat="45.52405" lon="6.73481">
        <ele>1941.4</ele>
        <time>2021-08-12T12:57:16Z</time>
      </trkpt>
      <trkpt lat="45.52404" lon="6.7348">
        <ele>1941.3</ele>
        <time>2021-08-12T12:57:17Z</time>
      </trkpt>
      <trkpt lat="45.52403" lon="6.7348">
        <ele>1941.2</ele>
        <time>2021-08-12T12:57:18Z</time>
      </trkpt>
      <trkpt lat="45.52402" lon="6.73479">
        <ele>1941.1</ele>
        <time>2021-08-12T12:57:19Z</time>
      </trkpt>
      <trkpt lat="45.52402" lon="6.73478">
        <ele>1941</ele>
        <time>2021-08-12T12:57:20Z</time>
      </trkpt>
      <trkpt lat="45.52401" lon="6.73477">
        <ele>1940.9</ele>
        <time>2021-08-12T12:57:21Z</time>
      </trkpt>
      <trkpt lat="45.524" lon="6.73477">
        <ele>1940.8</ele>
        <time>2021-08-12T12:57:22Z</time>
      </trkpt>
      <trkpt lat="45.52399" lon="6.73476">
        <ele>1940.7</ele>
        <time>2021-08-12T12:57:23Z</time>
      </trkpt>
      <trkpt lat="45.52398" lon="6.73475">
        <ele>1940.6</ele>
        <time>2021-08-12T12:57:24Z</time>
      </trkpt>
      <trkpt lat="45.52398" lon="6.73474">
        <ele>1940.5</ele>
        <time>2021-08-12T12:57:25Z</time>
      </trkpt>
      <trkpt lat="45.52397" lon="6.73474">
        <ele>1940.4</ele>
        <time>2021-08-12T12:57:26Z</time>
      </trkpt>
      <trkpt lat="45.52396" lon="6.73473">
        <ele>1940.3</ele>
        <time>2021-08-12T12:57:27Z</time>
      </trkpt>
      <trkpt lat="45.52395" lon="6.73472">
        <ele>1940.2</ele>
        <time>2021-08-12T12:57:28Z</time>
      </trkpt>
      <trkpt lat="45.52395" lon="6.73471">
        <ele>1940.1</ele>
        <time>2021-08-12T12:57:29Z</time>
      </trkpt>
      <trkpt lat="45.52394" lon="6.73471">
        <ele>1940</ele>
        <time>2021-08-12T12:57:30Z</time>
      </trkpt>
      <trkpt lat="45.52393" lon="6.7347">
        <ele>1939.9</ele>
        <time>2021-08-12T12:57:31Z</time>
      </trkpt>
      <trkpt lat="45.52392" lon="6.73469">
        <ele>1939.8</ele>
        <time>2021-08-12T12:57:32Z</time>
      </trkpt>
      <trkpt lat="45.52391" lon="6.73469">
        <ele>1939.7</ele>
        <time>2021-08-12T12:57:33Z</time>
      </trkpt>
      <trkpt lat="45.52391" lon="6.73468">
        <ele>1939.6</ele>
        <time>2021-08-12T12:57:34Z</time>
      </trkpt>
      <trkpt lat="45.5239" lon="6.73468">
        <ele>1939.5</ele>
        <time>2021-08-12T12:57:35Z</time>
      </trkpt>
      <trkpt lat="45.52389" lon="6.73467">
        <ele>1939.4</ele>
        <time>2021-08-12T12:57:36Z</time>
      </trkpt>
      <trkpt lat="45.52388" lon="6.73467">
        <ele>1939.3</ele>
        <time>2021-08-12T12:57:37Z</time>
      </trkpt>
      <trkpt lat="45.52387" lon="6.73466">
        <ele>1939.2</ele>
        <time>2021-08-12T12:57:38Z</time>
      </trkpt>
      <trkpt lat="45.52387" lon="6.73466">
        <ele>1939.2</ele>
        <time>2021-08-12T12:57:39Z</time>
      </trkpt>
      <trkpt lat="45.52386" lon="6.73465">
        <ele>1939.1</ele>
        <time>2021-08-12T12:57:40Z</time>
      </trkpt>
      <trkpt lat="45.52385" lon="6.73465">
        <ele>1939</ele>
        <time>2021-08-12T12:57:41Z</time>
      </trkpt>
      <trkpt lat="45.52384" lon="6.73465">
        <ele>1939</ele>
        <time>2021-08-12T12:57:42Z</time>
      </trkpt>
      <trkpt lat="45.52384" lon="6.73464">
        <ele>1938.9</ele>
        <time>2021-08-12T12:57:43Z</time>
      </trkpt>
      <trkpt lat="45.52383" lon="6.73464">
        <ele>1938.8</ele>
        <time>2021-08-12T12:57:44Z</time>
      </trkpt>
      <trkpt lat="45.52382" lon="6.73464">
        <ele>1938.8</ele>
        <time>2021-08-12T12:57:45Z</time>
      </trkpt>
      <trkpt lat="45.52382" lon="6.73464">
        <ele>1938.7</ele>
        <time>2021-08-12T12:57:46Z</time>
      </trkpt>
      <trkpt lat="45.52381" lon="6.73464">
        <ele>1938.7</ele>
        <time>2021-08-12T12:57:47Z</time>
      </trkpt>
      <trkpt lat="45.52381" lon="6.73463">
        <ele>1938.6</ele>
        <time>2021-08-12T12:57:48Z</time>
      </trkpt>
      <trkpt lat="45.5238" lon="6.73463">
        <ele>1938.6</ele>
        <time>2021-08-12T12:57:49Z</time>
      </trkpt>
      <trkpt lat="45.5238" lon="6.73463">
        <ele>1938.6</ele>
        <time>2021-08-12T12:57:50Z</time>
      </trkpt>
      <trkpt lat="45.52379" lon="6.73463">
        <ele>1938.5</ele>
        <time>2021-08-12T12:57:51Z</time>
      </trkpt>
      <trkpt lat="45.52379" lon="6.73463">
        <ele>1938.5</ele>
        <time>2021-08-12T12:57:52Z</time>
      </trkpt>
      <trkpt lat="45.52379" lon="6.73463">
        <ele>1938.5</ele>
        <time>2021-08-12T12:57:53Z</time>
      </trkpt>
      <trkpt lat="45.52379" lon="6.73463">
        <ele>1938.4</ele>
        <time>2021-08-12T12:57:54Z</time>
      </trkpt>
      <trkpt lat="45.52378" lon="6.73463">
        <ele>1938.4</ele>
        <time>2021-08-12T12:57:55Z</time>
      </trkpt>
      <trkpt lat="45.52378" lon="6.73463">
        <ele>1938.4</ele>
        <time>2021-08-12T12:57:56Z</time>
      </trkpt>
      <trkpt lat="45.52377" lon="6.73463">
        <ele>1938.3</ele>
        <time>2021-08-12T12:57:57Z</time>
      </trkpt>
      <trkpt lat="45.52377" lon="6.73463">
        <ele>1938.3</ele>
        <time>2021-08-12T12:57:58Z</time>
      </trkpt>
      <trkpt lat="45.52376" lon="6.73463">
        <ele>1938.3</ele>
        <time>2021-08-12T12:57:59Z</time>
      </trkpt>
      <trkpt lat="45.52376" lon="6.73463">
        <ele>1938.2</ele>
        <time>2021-08-12T12:58:00Z</time>
      </trkpt>
      <trkpt lat="45.52375" lon="6.73462">
        <ele>1938.2</ele>
        <time>2021-08-12T12:58:01Z</time>
      </trkpt>
      <trkpt lat="45.52375" lon="6.73462">
        <ele>1938.1</ele>
        <time>2021-08-12T12:58:02Z</time>
      </trkpt>
      <trkpt lat="45.52374" lon="6.73462">
        <ele>1938</ele>
        <time>2021-08-12T12:58:03Z</time>
      </trkpt>
      <trkpt lat="45.52373" lon="6.73462">
        <ele>1938</ele>
        <time>2021-08-12T12:58:04Z</time>
      </trkpt>
      <trkpt lat="45.52372" lon="6.73462">
        <ele>1937.9</ele>
        <time>2021-08-12T12:58:05Z</time>
      </trkpt>
      <trkpt lat="45.52372" lon="6.73461">
        <ele>1937.8</ele>
        <time>2021-08-12T12:58:06Z</time>
      </trkpt>
      <trkpt lat="45.52371" lon="6.73461">
        <ele>1937.7</ele>
        <time>2021-08-12T12:58:07Z</time>
      </trkpt>
      <trkpt lat="45.5237" lon="6.73461">
        <ele>1937.7</ele>
        <time>2021-08-12T12:58:08Z</time>
      </trkpt>
      <trkpt lat="45.52369" lon="6.7346">
        <ele>1937.6</ele>
        <time>2021-08-12T12:58:09Z</time>
      </trkpt>
      <trkpt lat="45.52368" lon="6.7346">
        <ele>1937.5</ele>
        <time>2021-08-12T12:58:10Z</time>
      </trkpt>
      <trkpt lat="45.52367" lon="6.7346">
        <ele>1937.4</ele>
        <time>2021-08-12T12:58:11Z</time>
      </trkpt>
      <trkpt lat="45.52367" lon="6.7346">
        <ele>1937.3</ele>
        <time>2021-08-12T12:58:12Z</time>
      </trkpt>
      <trkpt lat="45.52366" lon="6.7346">
        <ele>1937.2</ele>
        <time>2021-08-12T12:58:13Z</time>
      </trkpt>
      <trkpt lat="45.52365" lon="6.73459">
        <ele>1937.1</ele>
        <time>2021-08-12T12:58:14Z</time>
      </trkpt>
      <trkpt lat="45.52364" lon="6.73459">
        <ele>1937.1</ele>
        <time>2021-08-12T12:58:15Z</time>
      </trkpt>
      <trkpt lat="45.52363" lon="6.73459">
        <ele>1937</ele>
        <time>2021-08-12T12:58:16Z</time>
      </trkpt>
      <trkpt lat="45.52362" lon="6.7346">
        <ele>1936.9</ele>
        <time>2021-08-12T12:58:17Z</time>
      </trkpt>
      <trkpt lat="45.52361" lon="6.7346">
        <ele>1936.8</ele>
        <time>2021-08-12T12:58:18Z</time>
      </trkpt>
      <trkpt lat="45.52361" lon="6.7346">
        <ele>1936.7</ele>
        <time>2021-08-12T12:58:19Z</time>
      </trkpt>
      <trkpt lat="45.5236" lon="6.73461">
        <ele>1936.6</ele>
        <time>2021-08-12T12:58:20Z</time>
      </trkpt>
      <trkpt lat="45.52359" lon="6.73461">
        <ele>1936.5</ele>
        <time>2021-08-12T12:58:21Z</time>
      </trkpt>
      <trkpt lat="45.52358" lon="6.73462">
        <ele>1936.4</ele>
        <time>2021-08-12T12:58:22Z</time>
      </trkpt>
      <trkpt lat="45.52358" lon="6.73462">
        <ele>1936.3</ele>
        <time>2021-08-12T12:58:23Z</time>
      </trkpt>
      <trkpt lat="45.52357" lon="6.73463">
        <ele>1936.3</ele>
        <time>2021-08-12T12:58:24Z</time>
      </trkpt>
      <trkpt lat="45.52357" lon="6.73464">
        <ele>1936.2</ele>
        <time>2021-08-12T12:58:25Z</time>
      </trkpt>
      <trkpt lat="45.52356" lon="6.73465">
        <ele>1936.1</ele>
        <time>2021-08-12T12:58:26Z</time>
      </trkpt>
      <trkpt lat="45.52356" lon="6.73466">
        <ele>1936.1</ele>
        <time>2021-08-12T12:58:27Z</time>
      </trkpt>
      <trkpt lat="45.52356" lon="6.73466">
        <ele>1936</ele>
        <time>2021-08-12T12:58:28Z</time>
      </trkpt>
      <trkpt lat="45.52357" lon="6.73467">
        <ele>1936</ele>
        <time>2021-08-12T12:58:29Z</time>
      </trkpt>
      <trkpt lat="45.52357" lon="6.73468">
        <ele>1935.9</ele>
        <time>2021-08-12T12:58:30Z</time>
      </trkpt>
      <trkpt lat="45.52357" lon="6.73469">
        <ele>1935.9</ele>
        <time>2021-08-12T12:58:31Z</time>
      </trkpt>
      <trkpt lat="45.52358" lon="6.7347">
        <ele>1935.8</ele>
        <time>2021-08-12T12:58:32Z</time>
      </trkpt>
      <trkpt lat="45.52358" lon="6.7347">
        <ele>1935.7</ele>
        <time>2021-08-12T12:58:33Z</time>
      </trkpt>
      <trkpt lat="45.52359" lon="6.73471">
        <ele>1935.7</ele>
        <time>2021-08-12T12:58:34Z</time>
      </trkpt>
      <trkpt lat="45.52359" lon="6.73471">
        <ele>1935.6</ele>
        <time>2021-08-12T12:58:35Z</time>
      </trkpt>
      <trkpt lat="45.5236" lon="6.73472">
        <ele>1935.6</ele>
        <time>2021-08-12T12:58:36Z</time>
      </trkpt>
      <trkpt lat="45.5236" lon="6.73472">
        <ele>1935.6</ele>
        <time>2021-08-12T12:58:37Z</time>
      </trkpt>
      <trkpt lat="45.5236" lon="6.73472">
        <ele>1935.6</ele>
        <time>2021-08-12T12:58:38Z</time>
      </trkpt>
      <trkpt lat="45.5236" lon="6.73472">
        <ele>1935.6</ele>
        <time>2021-08-12T12:58:39Z</time>
      </trkpt>
      <trkpt lat="45.5236" lon="6.73472">
        <ele>1935.6</ele>
        <time>2021-08-12T12:58:40Z</time>
      </trkpt>
      <trkpt lat="45.5236" lon="6.73472">
        <ele>1935.6</ele>
        <time>2021-08-12T12:58:41Z</time>
      </trkpt>
      <trkpt lat="45.5236" lon="6.73472">
        <ele>1935.5</ele>
        <time>2021-08-12T12:58:42Z</time>
      </trkpt>
      <trkpt lat="45.5236" lon="6.73472">
        <ele>1935.5</ele>
        <time>2021-08-12T12:58:43Z</time>
      </trkpt>
      <trkpt lat="45.5236" lon="6.73472">
        <ele>1935.5</ele>
        <time>2021-08-12T12:58:44Z</time>
      </trkpt>
      <trkpt lat="45.5236" lon="6.73472">
        <ele>1935.5</ele>
        <time>2021-08-12T12:58:45Z</time>
      </trkpt>
      <trkpt lat="45.5236" lon="6.73472">
        <ele>1935.5</ele>
        <time>2021-08-12T12:58:46Z</time>
      </trkpt>
      <trkpt lat="45.5236" lon="6.73472">
        <ele>1935.5</ele>
        <time>2021-08-12T12:58:47Z</time>
      </trkpt>
      <trkpt lat="45.5236" lon="6.73472">
        <ele>1935.5</ele>
        <time>2021-08-12T12:58:48Z</time>
      </trkpt>
      <trkpt lat="45.52361" lon="6.73472">
        <ele>1935.5</ele>
        <time>2021-08-12T12:58:49Z</time>
      </trkpt>
      <trkpt lat="45.52361" lon="6.73472">
        <ele>1935.4</ele>
        <time>2021-08-12T12:58:50Z</time>
      </trkpt>
      <trkpt lat="45.52361" lon="6.73472">
        <ele>1935.4</ele>
        <time>2021-08-12T12:58:51Z</time>
      </trkpt>
      <trkpt lat="45.52362" lon="6.73472">
        <ele>1935.4</ele>
        <time>2021-08-12T12:58:52Z</time>
      </trkpt>
      <trkpt lat="45.52362" lon="6.73472">
        <ele>1935.3</ele>
        <time>2021-08-12T12:58:53Z</time>
      </trkpt>
      <trkpt lat="45.52363" lon="6.73472">
        <ele>1935.3</ele>
        <time>2021-08-12T12:58:54Z</time>
      </trkpt>
      <trkpt lat="45.52364" lon="6.73471">
        <ele>1935.2</ele>
        <time>2021-08-12T12:58:55Z</time>
      </trkpt>
      <trkpt lat="45.52365" lon="6.73471">
        <ele>1935.2</ele>
        <time>2021-08-12T12:58:56Z</time>
      </trkpt>
      <trkpt lat="45.52365" lon="6.73471">
        <ele>1935.1</ele>
        <time>2021-08-12T12:58:57Z</time>
      </trkpt>
      <trkpt lat="45.52366" lon="6.7347">
        <ele>1935</ele>
        <time>2021-08-12T12:58:58Z</time>
      </trkpt>
      <trkpt lat="45.52367" lon="6.7347">
        <ele>1935</ele>
        <time>2021-08-12T12:58:59Z</time>
      </trkpt>
      <trkpt lat="45.52368" lon="6.73469">
        <ele>1934.9</ele>
        <time>2021-08-12T12:59:00Z</time>
      </trkpt>
      <trkpt lat="45.52368" lon="6.73469">
        <ele>1934.9</ele>
        <time>2021-08-12T12:59:01Z</time>
      </trkpt>
      <trkpt lat="45.52369" lon="6.73469">
        <ele>1934.8</ele>
        <time>2021-08-12T12:59:02Z</time>
      </trkpt>
      <trkpt lat="45.5237" lon="6.73469">
        <ele>1934.8</ele>
        <time>2021-08-12T12:59:03Z</time>
      </trkpt>
      <trkpt lat="45.5237" lon="6.73469">
        <ele>1934.7</ele>
        <time>2021-08-12T12:59:04Z</time>
      </trkpt>
      <trkpt lat="45.52371" lon="6.7347">
        <ele>1934.7</ele>
        <time>2021-08-12T12:59:05Z</time>
      </trkpt>
      <trkpt lat="45.52372" lon="6.7347">
        <ele>1934.6</ele>
        <time>2021-08-12T12:59:06Z</time>
      </trkpt>
      <trkpt lat="45.52373" lon="6.73471">
        <ele>1934.6</ele>
        <time>2021-08-12T12:59:07Z</time>
      </trkpt>
      <trkpt lat="45.52374" lon="6.73471">
        <ele>1934.5</ele>
        <time>2021-08-12T12:59:08Z</time>
      </trkpt>
      <trkpt lat="45.52375" lon="6.73472">
        <ele>1934.4</ele>
        <time>2021-08-12T12:59:09Z</time>
      </trkpt>
      <trkpt lat="45.52376" lon="6.73472">
        <ele>1934.3</ele>
        <time>2021-08-12T12:59:10Z</time>
      </trkpt>
      <trkpt lat="45.52377" lon="6.73473">
        <ele>1934.2</ele>
        <time>2021-08-12T12:59:11Z</time>
      </trkpt>
      <trkpt lat="45.52378" lon="6.73474">
        <ele>1934.1</ele>
        <time>2021-08-12T12:59:12Z</time>
      </trkpt>
      <trkpt lat="45.52379" lon="6.73474">
        <ele>1934</ele>
        <time>2021-08-12T12:59:13Z</time>
      </trkpt>
      <trkpt lat="45.5238" lon="6.73475">
        <ele>1933.9</ele>
        <time>2021-08-12T12:59:14Z</time>
      </trkpt>
      <trkpt lat="45.52381" lon="6.73476">
        <ele>1933.8</ele>
        <time>2021-08-12T12:59:15Z</time>
      </trkpt>
      <trkpt lat="45.52382" lon="6.73477">
        <ele>1933.7</ele>
        <time>2021-08-12T12:59:16Z</time>
      </trkpt>
      <trkpt lat="45.52383" lon="6.73477">
        <ele>1933.6</ele>
        <time>2021-08-12T12:59:17Z</time>
      </trkpt>
      <trkpt lat="45.52384" lon="6.73478">
        <ele>1933.5</ele>
        <time>2021-08-12T12:59:18Z</time>
      </trkpt>
      <trkpt lat="45.52385" lon="6.73479">
        <ele>1933.4</ele>
        <time>2021-08-12T12:59:19Z</time>
      </trkpt>
      <trkpt lat="45.52386" lon="6.7348">
        <ele>1933.3</ele>
        <time>2021-08-12T12:59:20Z</time>
      </trkpt>
      <trkpt lat="45.52387" lon="6.73481">
        <ele>1933.2</ele>
        <time>2021-08-12T12:59:21Z</time>
      </trkpt>
      <trkpt lat="45.52388" lon="6.73482">
        <ele>1933.2</ele>
        <time>2021-08-12T12:59:22Z</time>
      </trkpt>
      <trkpt lat="45.52389" lon="6.73483">
        <ele>1933.1</ele>
        <time>2021-08-12T12:59:23Z</time>
      </trkpt>
      <trkpt lat="45.5239" lon="6.73484">
        <ele>1933</ele>
        <time>2021-08-12T12:59:24Z</time>
      </trkpt>
      <trkpt lat="45.52391" lon="6.73485">
        <ele>1932.9</ele>
        <time>2021-08-12T12:59:25Z</time>
      </trkpt>
      <trkpt lat="45.52392" lon="6.73485">
        <ele>1932.8</ele>
        <time>2021-08-12T12:59:26Z</time>
      </trkpt>
      <trkpt lat="45.52393" lon="6.73486">
        <ele>1932.7</ele>
        <time>2021-08-12T12:59:27Z</time>
      </trkpt>
      <trkpt lat="45.52394" lon="6.73488">
        <ele>1932.6</ele>
        <time>2021-08-12T12:59:28Z</time>
      </trkpt>
      <trkpt lat="45.52395" lon="6.73489">
        <ele>1932.5</ele>
        <time>2021-08-12T12:59:29Z</time>
      </trkpt>
      <trkpt lat="45.52395" lon="6.7349">
        <ele>1932.4</ele>
        <time>2021-08-12T12:59:30Z</time>
      </trkpt>
      <trkpt lat="45.52396" lon="6.73491">
        <ele>1932.3</ele>
        <time>2021-08-12T12:59:31Z</time>
      </trkpt>
      <trkpt lat="45.52397" lon="6.73492">
        <ele>1932.2</ele>
        <time>2021-08-12T12:59:32Z</time>
      </trkpt>
      <trkpt lat="45.52398" lon="6.73493">
        <ele>1932.1</ele>
        <time>2021-08-12T12:59:33Z</time>
      </trkpt>
      <trkpt lat="45.52398" lon="6.73494">
        <ele>1932</ele>
        <time>2021-08-12T12:59:34Z</time>
      </trkpt>
      <trkpt lat="45.52399" lon="6.73495">
        <ele>1931.9</ele>
        <time>2021-08-12T12:59:35Z</time>
      </trkpt>
      <trkpt lat="45.524" lon="6.73496">
        <ele>1931.8</ele>
        <time>2021-08-12T12:59:36Z</time>
      </trkpt>
      <trkpt lat="45.524" lon="6.73497">
        <ele>1931.7</ele>
        <time>2021-08-12T12:59:37Z</time>
      </trkpt>
      <trkpt lat="45.52401" lon="6.73499">
        <ele>1931.6</ele>
        <time>2021-08-12T12:59:38Z</time>
      </trkpt>
      <trkpt lat="45.52401" lon="6.735">
        <ele>1931.5</ele>
        <time>2021-08-12T12:59:39Z</time>
      </trkpt>
      <trkpt lat="45.52402" lon="6.73501">
        <ele>1931.4</ele>
        <time>2021-08-12T12:59:40Z</time>
      </trkpt>
      <trkpt lat="45.52402" lon="6.73502">
        <ele>1931.3</ele>
        <time>2021-08-12T12:59:41Z</time>
      </trkpt>
      <trkpt lat="45.52403" lon="6.73504">
        <ele>1931.2</ele>
        <time>2021-08-12T12:59:42Z</time>
      </trkpt>
      <trkpt lat="45.52403" lon="6.73505">
        <ele>1931.1</ele>
        <time>2021-08-12T12:59:43Z</time>
      </trkpt>
      <trkpt lat="45.52404" lon="6.73506">
        <ele>1931</ele>
        <time>2021-08-12T12:59:44Z</time>
      </trkpt>
      <trkpt lat="45.52404" lon="6.73507">
        <ele>1930.9</ele>
        <time>2021-08-12T12:59:45Z</time>
      </trkpt>
      <trkpt lat="45.52404" lon="6.73509">
        <ele>1930.8</ele>
        <time>2021-08-12T12:59:46Z</time>
      </trkpt>
      <trkpt lat="45.52405" lon="6.7351">
        <ele>1930.7</ele>
        <time>2021-08-12T12:59:47Z</time>
      </trkpt>
      <trkpt lat="45.52405" lon="6.73511">
        <ele>1930.5</ele>
        <time>2021-08-12T12:59:48Z</time>
      </trkpt>
      <trkpt lat="45.52405" lon="6.73512">
        <ele>1930.4</ele>
        <time>2021-08-12T12:59:49Z</time>
      </trkpt>
      <trkpt lat="45.52406" lon="6.73514">
        <ele>1930.3</ele>
        <time>2021-08-12T12:59:50Z</time>
      </trkpt>
      <trkpt lat="45.52406" lon="6.73515">
        <ele>1930.2</ele>
        <time>2021-08-12T12:59:51Z</time>
      </trkpt>
      <trkpt lat="45.52406" lon="6.73516">
        <ele>1930.1</ele>
        <time>2021-08-12T12:59:52Z</time>
      </trkpt>
      <trkpt lat="45.52407" lon="6.73517">
        <ele>1930</ele>
        <time>2021-08-12T12:59:53Z</time>
      </trkpt>
      <trkpt lat="45.52407" lon="6.73519">
        <ele>1929.9</ele>
        <time>2021-08-12T12:59:54Z</time>
      </trkpt>
      <trkpt lat="45.52407" lon="6.7352">
        <ele>1929.8</ele>
        <time>2021-08-12T12:59:55Z</time>
      </trkpt>
      <trkpt lat="45.52407" lon="6.73521">
        <ele>1929.7</ele>
        <time>2021-08-12T12:59:56Z</time>
      </trkpt>
      <trkpt lat="45.52407" lon="6.73522">
        <ele>1929.6</ele>
        <time>2021-08-12T12:59:57Z</time>
      </trkpt>
      <trkpt lat="45.52408" lon="6.73524">
        <ele>1929.5</ele>
        <time>2021-08-12T12:59:58Z</time>
      </trkpt>
      <trkpt lat="45.52408" lon="6.73525">
        <ele>1929.4</ele>
        <time>2021-08-12T12:59:59Z</time>
      </trkpt>
      <trkpt lat="45.52408" lon="6.73526">
        <ele>1929.2</ele>
        <time>2021-08-12T13:00:00Z</time>
      </trkpt>
      <trkpt lat="45.52408" lon="6.73527">
        <ele>1929.1</ele>
        <time>2021-08-12T13:00:01Z</time>
      </trkpt>
      <trkpt lat="45.52409" lon="6.73528">
        <ele>1929</ele>
        <time>2021-08-12T13:00:02Z</time>
      </trkpt>
      <trkpt lat="45.52409" lon="6.73529">
        <ele>1928.9</ele>
        <time>2021-08-12T13:00:03Z</time>
      </trkpt>
      <trkpt lat="45.52409" lon="6.73531">
        <ele>1928.8</ele>
        <time>2021-08-12T13:00:04Z</time>
      </trkpt>
      <trkpt lat="45.5241" lon="6.73532">
        <ele>1928.7</ele>
        <time>2021-08-12T13:00:05Z</time>
      </trkpt>
      <trkpt lat="45.5241" lon="6.73533">
        <ele>1928.6</ele>
        <time>2021-08-12T13:00:06Z</time>
      </trkpt>
      <trkpt lat="45.5241" lon="6.73534">
        <ele>1928.5</ele>
        <time>2021-08-12T13:00:07Z</time>
      </trkpt>
      <trkpt lat="45.52411" lon="6.73535">
        <ele>1928.4</ele>
        <time>2021-08-12T13:00:08Z</time>
      </trkpt>
      <trkpt lat="45.52411" lon="6.73536">
        <ele>1928.3</ele>
        <time>2021-08-12T13:00:09Z</time>
      </trkpt>
      <trkpt lat="45.52412" lon="6.73537">
        <ele>1928.1</ele>
        <time>2021-08-12T13:00:10Z</time>
      </trkpt>
      <trkpt lat="45.52412" lon="6.73538">
        <ele>1928</ele>
        <time>2021-08-12T13:00:11Z</time>
      </trkpt>
      <trkpt lat="45.52413" lon="6.73539">
        <ele>1927.9</ele>
        <time>2021-08-12T13:00:12Z</time>
      </trkpt>
      <trkpt lat="45.52413" lon="6.7354">
        <ele>1927.8</ele>
        <time>2021-08-12T13:00:13Z</time>
      </trkpt>
      <trkpt lat="45.52413" lon="6.73541">
        <ele>1927.7</ele>
        <time>2021-08-12T13:00:14Z</time>
      </trkpt>
      <trkpt lat="45.52413" lon="6.73542">
        <ele>1927.6</ele>
        <time>2021-08-12T13:00:15Z</time>
      </trkpt>
      <trkpt lat="45.52414" lon="6.73543">
        <ele>1927.5</ele>
        <time>2021-08-12T13:00:16Z</time>
      </trkpt>
      <trkpt lat="45.52414" lon="6.73544">
        <ele>1927.5</ele>
        <time>2021-08-12T13:00:17Z</time>
      </trkpt>
      <trkpt lat="45.52414" lon="6.73545">
        <ele>1927.4</ele>
        <time>2021-08-12T13:00:18Z</time>
      </trkpt>
      <trkpt lat="45.52414" lon="6.73546">
        <ele>1927.3</ele>
        <time>2021-08-12T13:00:19Z</time>
      </trkpt>
      <trkpt lat="45.52415" lon="6.73547">
        <ele>1927.2</ele>
        <time>2021-08-12T13:00:20Z</time>
      </trkpt>
      <trkpt lat="45.52415" lon="6.73548">
        <ele>1927.1</ele>
        <time>2021-08-12T13:00:21Z</time>
      </trkpt>
      <trkpt lat="45.52415" lon="6.73549">
        <ele>1927</ele>
        <time>2021-08-12T13:00:22Z</time>
      </trkpt>
      <trkpt lat="45.52415" lon="6.73549">
        <ele>1927</ele>
        <time>2021-08-12T13:00:23Z</time>
      </trkpt>
      <trkpt lat="45.52416" lon="6.7355">
        <ele>1926.9</ele>
        <time>2021-08-12T13:00:24Z</time>
      </trkpt>
      <trkpt lat="45.52416" lon="6.73551">
        <ele>1926.8</ele>
        <time>2021-08-12T13:00:25Z</time>
      </trkpt>
      <trkpt lat="45.52417" lon="6.73552">
        <ele>1926.7</ele>
        <time>2021-08-12T13:00:26Z</time>
      </trkpt>
      <trkpt lat="45.52417" lon="6.73553">
        <ele>1926.6</ele>
        <time>2021-08-12T13:00:27Z</time>
      </trkpt>
      <trkpt lat="45.52417" lon="6.73553">
        <ele>1926.5</ele>
        <time>2021-08-12T13:00:28Z</time>
      </trkpt>
      <trkpt lat="45.52418" lon="6.73554">
        <ele>1926.5</ele>
        <time>2021-08-12T13:00:29Z</time>
      </trkpt>
      <trkpt lat="45.52418" lon="6.73555">
        <ele>1926.4</ele>
        <time>2021-08-12T13:00:30Z</time>
      </trkpt>
      <trkpt lat="45.52419" lon="6.73555">
        <ele>1926.3</ele>
        <time>2021-08-12T13:00:31Z</time>
      </trkpt>
      <trkpt lat="45.5242" lon="6.73556">
        <ele>1926.2</ele>
        <time>2021-08-12T13:00:32Z</time>
      </trkpt>
      <trkpt lat="45.5242" lon="6.73557">
        <ele>1926.1</ele>
        <time>2021-08-12T13:00:33Z</time>
      </trkpt>
      <trkpt lat="45.52421" lon="6.73558">
        <ele>1926</ele>
        <time>2021-08-12T13:00:34Z</time>
      </trkpt>
      <trkpt lat="45.52421" lon="6.73558">
        <ele>1925.9</ele>
        <time>2021-08-12T13:00:35Z</time>
      </trkpt>
      <trkpt lat="45.52422" lon="6.73559">
        <ele>1925.8</ele>
        <time>2021-08-12T13:00:36Z</time>
      </trkpt>
      <trkpt lat="45.52423" lon="6.7356">
        <ele>1925.7</ele>
        <time>2021-08-12T13:00:37Z</time>
      </trkpt>
      <trkpt lat="45.52424" lon="6.73561">
        <ele>1925.6</ele>
        <time>2021-08-12T13:00:38Z</time>
      </trkpt>
      <trkpt lat="45.52425" lon="6.73561">
        <ele>1925.5</ele>
        <time>2021-08-12T13:00:39Z</time>
      </trkpt>
      <trkpt lat="45.52425" lon="6.73562">
        <ele>1925.3</ele>
        <time>2021-08-12T13:00:40Z</time>
      </trkpt>
      <trkpt lat="45.52426" lon="6.73563">
        <ele>1925.2</ele>
        <time>2021-08-12T13:00:41Z</time>
      </trkpt>
      <trkpt lat="45.52427" lon="6.73564">
        <ele>1925.1</ele>
        <time>2021-08-12T13:00:42Z</time>
      </trkpt>
      <trkpt lat="45.52428" lon="6.73565">
        <ele>1925</ele>
        <time>2021-08-12T13:00:43Z</time>
      </trkpt>
      <trkpt lat="45.52429" lon="6.73566">
        <ele>1924.8</ele>
        <time>2021-08-12T13:00:44Z</time>
      </trkpt>
      <trkpt lat="45.5243" lon="6.73567">
        <ele>1924.7</ele>
        <time>2021-08-12T13:00:45Z</time>
      </trkpt>
      <trkpt lat="45.52431" lon="6.73567">
        <ele>1924.5</ele>
        <time>2021-08-12T13:00:46Z</time>
      </trkpt>
      <trkpt lat="45.52432" lon="6.73568">
        <ele>1924.4</ele>
        <time>2021-08-12T13:00:47Z</time>
      </trkpt>
      <trkpt lat="45.52433" lon="6.73569">
        <ele>1924.3</ele>
        <time>2021-08-12T13:00:48Z</time>
      </trkpt>
      <trkpt lat="45.52434" lon="6.7357">
        <ele>1924.1</ele>
        <time>2021-08-12T13:00:49Z</time>
      </trkpt>
      <trkpt lat="45.52435" lon="6.73571">
        <ele>1924</ele>
        <time>2021-08-12T13:00:50Z</time>
      </trkpt>
      <trkpt lat="45.52436" lon="6.73572">
        <ele>1923.9</ele>
        <time>2021-08-12T13:00:51Z</time>
      </trkpt>
      <trkpt lat="45.52437" lon="6.73572">
        <ele>1923.7</ele>
        <time>2021-08-12T13:00:52Z</time>
      </trkpt>
      <trkpt lat="45.52438" lon="6.73573">
        <ele>1923.6</ele>
        <time>2021-08-12T13:00:53Z</time>
      </trkpt>
      <trkpt lat="45.52439" lon="6.73574">
        <ele>1923.5</ele>
        <time>2021-08-12T13:00:54Z</time>
      </trkpt>
      <trkpt lat="45.52439" lon="6.73574">
        <ele>1923.4</ele>
        <time>2021-08-12T13:00:55Z</time>
      </trkpt>
      <trkpt lat="45.5244" lon="6.73575">
        <ele>1923.3</ele>
        <time>2021-08-12T13:00:56Z</time>
      </trkpt>
      <trkpt lat="45.52441" lon="6.73575">
        <ele>1923.2</ele>
        <time>2021-08-12T13:00:57Z</time>
      </trkpt>
      <trkpt lat="45.52442" lon="6.73576">
        <ele>1923.1</ele>
        <time>2021-08-12T13:00:58Z</time>
      </trkpt>
      <trkpt lat="45.52442" lon="6.73576">
        <ele>1923</ele>
        <time>2021-08-12T13:00:59Z</time>
      </trkpt>
      <trkpt lat="45.52443" lon="6.73577">
        <ele>1923</ele>
        <time>2021-08-12T13:01:00Z</time>
      </trkpt>
      <trkpt lat="45.52444" lon="6.73577">
        <ele>1922.9</ele>
        <time>2021-08-12T13:01:01Z</time>
      </trkpt>
      <trkpt lat="45.52444" lon="6.73578">
        <ele>1922.8</ele>
        <time>2021-08-12T13:01:02Z</time>
      </trkpt>
      <trkpt lat="45.52445" lon="6.73578">
        <ele>1922.7</ele>
        <time>2021-08-12T13:01:03Z</time>
      </trkpt>
      <trkpt lat="45.52446" lon="6.73579">
        <ele>1922.6</ele>
        <time>2021-08-12T13:01:04Z</time>
      </trkpt>
      <trkpt lat="45.52446" lon="6.73579">
        <ele>1922.6</ele>
        <time>2021-08-12T13:01:05Z</time>
      </trkpt>
      <trkpt lat="45.52447" lon="6.7358">
        <ele>1922.5</ele>
        <time>2021-08-12T13:01:06Z</time>
      </trkpt>
      <trkpt lat="45.52448" lon="6.7358">
        <ele>1922.4</ele>
        <time>2021-08-12T13:01:07Z</time>
      </trkpt>
      <trkpt lat="45.52448" lon="6.7358">
        <ele>1922.3</ele>
        <time>2021-08-12T13:01:08Z</time>
      </trkpt>
      <trkpt lat="45.52449" lon="6.73581">
        <ele>1922.3</ele>
        <time>2021-08-12T13:01:09Z</time>
      </trkpt>
      <trkpt lat="45.5245" lon="6.73581">
        <ele>1922.2</ele>
        <time>2021-08-12T13:01:10Z</time>
      </trkpt>
      <trkpt lat="45.52451" lon="6.73582">
        <ele>1922.1</ele>
        <time>2021-08-12T13:01:11Z</time>
      </trkpt>
      <trkpt lat="45.52451" lon="6.73582">
        <ele>1922</ele>
        <time>2021-08-12T13:01:12Z</time>
      </trkpt>
      <trkpt lat="45.52452" lon="6.73583">
        <ele>1921.9</ele>
        <time>2021-08-12T13:01:13Z</time>
      </trkpt>
      <trkpt lat="45.52453" lon="6.73583">
        <ele>1921.8</ele>
        <time>2021-08-12T13:01:14Z</time>
      </trkpt>
      <trkpt lat="45.52454" lon="6.73583">
        <ele>1921.7</ele>
        <time>2021-08-12T13:01:15Z</time>
      </trkpt>
      <trkpt lat="45.52455" lon="6.73584">
        <ele>1921.6</ele>
        <time>2021-08-12T13:01:16Z</time>
      </trkpt>
      <trkpt lat="45.52456" lon="6.73584">
        <ele>1921.6</ele>
        <time>2021-08-12T13:01:17Z</time>
      </trkpt>
      <trkpt lat="45.52456" lon="6.73585">
        <ele>1921.5</ele>
        <time>2021-08-12T13:01:18Z</time>
      </trkpt>
      <trkpt lat="45.52457" lon="6.73585">
        <ele>1921.4</ele>
        <time>2021-08-12T13:01:19Z</time>
      </trkpt>
      <trkpt lat="45.52458" lon="6.73586">
        <ele>1921.3</ele>
        <time>2021-08-12T13:01:20Z</time>
      </trkpt>
      <trkpt lat="45.52458" lon="6.73586">
        <ele>1921.2</ele>
        <time>2021-08-12T13:01:21Z</time>
      </trkpt>
      <trkpt lat="45.52459" lon="6.73586">
        <ele>1921.1</ele>
        <time>2021-08-12T13:01:22Z</time>
      </trkpt>
      <trkpt lat="45.52459" lon="6.73587">
        <ele>1921.1</ele>
        <time>2021-08-12T13:01:23Z</time>
      </trkpt>
      <trkpt lat="45.5246" lon="6.73587">
        <ele>1921</ele>
        <time>2021-08-12T13:01:24Z</time>
      </trkpt>
      <trkpt lat="45.5246" lon="6.73588">
        <ele>1921</ele>
        <time>2021-08-12T13:01:25Z</time>
      </trkpt>
      <trkpt lat="45.52461" lon="6.73588">
        <ele>1920.9</ele>
        <time>2021-08-12T13:01:26Z</time>
      </trkpt>
      <trkpt lat="45.52461" lon="6.73588">
        <ele>1920.8</ele>
        <time>2021-08-12T13:01:27Z</time>
      </trkpt>
      <trkpt lat="45.52461" lon="6.73589">
        <ele>1920.8</ele>
        <time>2021-08-12T13:01:28Z</time>
      </trkpt>
      <trkpt lat="45.52462" lon="6.7359">
        <ele>1920.7</ele>
        <time>2021-08-12T13:01:29Z</time>
      </trkpt>
      <trkpt lat="45.52462" lon="6.7359">
        <ele>1920.6</ele>
        <time>2021-08-12T13:01:30Z</time>
      </trkpt>
      <trkpt lat="45.52463" lon="6.73591">
        <ele>1920.5</ele>
        <time>2021-08-12T13:01:31Z</time>
      </trkpt>
      <trkpt lat="45.52464" lon="6.73592">
        <ele>1920.4</ele>
        <time>2021-08-12T13:01:32Z</time>
      </trkpt>
      <trkpt lat="45.52464" lon="6.73593">
        <ele>1920.3</ele>
        <time>2021-08-12T13:01:33Z</time>
      </trkpt>
      <trkpt lat="45.52465" lon="6.73594">
        <ele>1920.2</ele>
        <time>2021-08-12T13:01:34Z</time>
      </trkpt>
      <trkpt lat="45.52466" lon="6.73595">
        <ele>1920.1</ele>
        <time>2021-08-12T13:01:35Z</time>
      </trkpt>
      <trkpt lat="45.52466" lon="6.73595">
        <ele>1920</ele>
        <time>2021-08-12T13:01:36Z</time>
      </trkpt>
      <trkpt lat="45.52467" lon="6.73596">
        <ele>1919.9</ele>
        <time>2021-08-12T13:01:37Z</time>
      </trkpt>
      <trkpt lat="45.52467" lon="6.73597">
        <ele>1919.8</ele>
        <time>2021-08-12T13:01:38Z</time>
      </trkpt>
      <trkpt lat="45.52468" lon="6.73599">
        <ele>1919.7</ele>
        <time>2021-08-12T13:01:39Z</time>
      </trkpt>
      <trkpt lat="45.52468" lon="6.73599">
        <ele>1919.6</ele>
        <time>2021-08-12T13:01:40Z</time>
      </trkpt>
      <trkpt lat="45.52469" lon="6.736">
        <ele>1919.6</ele>
        <time>2021-08-12T13:01:41Z</time>
      </trkpt>
      <trkpt lat="45.52469" lon="6.73601">
        <ele>1919.5</ele>
        <time>2021-08-12T13:01:42Z</time>
      </trkpt>
      <trkpt lat="45.52469" lon="6.73602">
        <ele>1919.4</ele>
        <time>2021-08-12T13:01:43Z</time>
      </trkpt>
      <trkpt lat="45.5247" lon="6.73602">
        <ele>1919.4</ele>
        <time>2021-08-12T13:01:44Z</time>
      </trkpt>
      <trkpt lat="45.5247" lon="6.73603">
        <ele>1919.3</ele>
        <time>2021-08-12T13:01:45Z</time>
      </trkpt>
      <trkpt lat="45.5247" lon="6.73604">
        <ele>1919.2</ele>
        <time>2021-08-12T13:01:46Z</time>
      </trkpt>
      <trkpt lat="45.52471" lon="6.73605">
        <ele>1919.2</ele>
        <time>2021-08-12T13:01:47Z</time>
      </trkpt>
      <trkpt lat="45.52471" lon="6.73605">
        <ele>1919.1</ele>
        <time>2021-08-12T13:01:48Z</time>
      </trkpt>
      <trkpt lat="45.52471" lon="6.73606">
        <ele>1919</ele>
        <time>2021-08-12T13:01:49Z</time>
      </trkpt>
      <trkpt lat="45.52472" lon="6.73607">
        <ele>1918.9</ele>
        <time>2021-08-12T13:01:50Z</time>
      </trkpt>
      <trkpt lat="45.52472" lon="6.73608">
        <ele>1918.9</ele>
        <time>2021-08-12T13:01:51Z</time>
      </trkpt>
      <trkpt lat="45.52472" lon="6.73608">
        <ele>1918.8</ele>
        <time>2021-08-12T13:01:52Z</time>
      </trkpt>
      <trkpt lat="45.52473" lon="6.73609">
        <ele>1918.7</ele>
        <time>2021-08-12T13:01:53Z</time>
      </trkpt>
      <trkpt lat="45.52473" lon="6.7361">
        <ele>1918.7</ele>
        <time>2021-08-12T13:01:54Z</time>
      </trkpt>
      <trkpt lat="45.52473" lon="6.73611">
        <ele>1918.6</ele>
        <time>2021-08-12T13:01:55Z</time>
      </trkpt>
      <trkpt lat="45.52474" lon="6.73611">
        <ele>1918.5</ele>
        <time>2021-08-12T13:01:56Z</time>
      </trkpt>
      <trkpt lat="45.52474" lon="6.73612">
        <ele>1918.4</ele>
        <time>2021-08-12T13:01:57Z</time>
      </trkpt>
      <trkpt lat="45.52474" lon="6.73613">
        <ele>1918.4</ele>
        <time>2021-08-12T13:01:58Z</time>
      </trkpt>
      <trkpt lat="45.52475" lon="6.73614">
        <ele>1918.3</ele>
        <time>2021-08-12T13:01:59Z</time>
      </trkpt>
      <trkpt lat="45.52475" lon="6.73614">
        <ele>1918.2</ele>
        <time>2021-08-12T13:02:00Z</time>
      </trkpt>
      <trkpt lat="45.52475" lon="6.73615">
        <ele>1918.1</ele>
        <time>2021-08-12T13:02:01Z</time>
      </trkpt>
      <trkpt lat="45.52476" lon="6.73616">
        <ele>1918.1</ele>
        <time>2021-08-12T13:02:02Z</time>
      </trkpt>
      <trkpt lat="45.52476" lon="6.73617">
        <ele>1918</ele>
        <time>2021-08-12T13:02:03Z</time>
      </trkpt>
      <trkpt lat="45.52477" lon="6.73617">
        <ele>1917.9</ele>
        <time>2021-08-12T13:02:04Z</time>
      </trkpt>
      <trkpt lat="45.52477" lon="6.73618">
        <ele>1917.8</ele>
        <time>2021-08-12T13:02:05Z</time>
      </trkpt>
      <trkpt lat="45.52477" lon="6.73619">
        <ele>1917.7</ele>
        <time>2021-08-12T13:02:06Z</time>
      </trkpt>
      <trkpt lat="45.52478" lon="6.7362">
        <ele>1917.7</ele>
        <time>2021-08-12T13:02:07Z</time>
      </trkpt>
      <trkpt lat="45.52478" lon="6.7362">
        <ele>1917.6</ele>
        <time>2021-08-12T13:02:08Z</time>
      </trkpt>
      <trkpt lat="45.52478" lon="6.73621">
        <ele>1917.5</ele>
        <time>2021-08-12T13:02:09Z</time>
      </trkpt>
      <trkpt lat="45.52479" lon="6.73622">
        <ele>1917.4</ele>
        <time>2021-08-12T13:02:10Z</time>
      </trkpt>
      <trkpt lat="45.52479" lon="6.73623">
        <ele>1917.4</ele>
        <time>2021-08-12T13:02:11Z</time>
      </trkpt>
      <trkpt lat="45.52479" lon="6.73624">
        <ele>1917.3</ele>
        <time>2021-08-12T13:02:12Z</time>
      </trkpt>
      <trkpt lat="45.5248" lon="6.73624">
        <ele>1917.2</ele>
        <time>2021-08-12T13:02:13Z</time>
      </trkpt>
      <trkpt lat="45.5248" lon="6.73625">
        <ele>1917.1</ele>
        <time>2021-08-12T13:02:14Z</time>
      </trkpt>
      <trkpt lat="45.5248" lon="6.73626">
        <ele>1917.1</ele>
        <time>2021-08-12T13:02:15Z</time>
      </trkpt>
      <trkpt lat="45.52481" lon="6.73627">
        <ele>1917</ele>
        <time>2021-08-12T13:02:16Z</time>
      </trkpt>
      <trkpt lat="45.52481" lon="6.73627">
        <ele>1916.9</ele>
        <time>2021-08-12T13:02:17Z</time>
      </trkpt>
      <trkpt lat="45.52481" lon="6.73628">
        <ele>1916.8</ele>
        <time>2021-08-12T13:02:18Z</time>
      </trkpt>
      <trkpt lat="45.52482" lon="6.73629">
        <ele>1916.7</ele>
        <time>2021-08-12T13:02:19Z</time>
      </trkpt>
      <trkpt lat="45.52482" lon="6.7363">
        <ele>1916.6</ele>
        <time>2021-08-12T13:02:20Z</time>
      </trkpt>
      <trkpt lat="45.52482" lon="6.7363">
        <ele>1916.5</ele>
        <time>2021-08-12T13:02:21Z</time>
      </trkpt>
      <trkpt lat="45.52483" lon="6.73631">
        <ele>1916.4</ele>
        <time>2021-08-12T13:02:22Z</time>
      </trkpt>
      <trkpt lat="45.52483" lon="6.73632">
        <ele>1916.4</ele>
        <time>2021-08-12T13:02:23Z</time>
      </trkpt>
      <trkpt lat="45.52483" lon="6.73633">
        <ele>1916.3</ele>
        <time>2021-08-12T13:02:24Z</time>
      </trkpt>
      <trkpt lat="45.52484" lon="6.73633">
        <ele>1916.2</ele>
        <time>2021-08-12T13:02:25Z</time>
      </trkpt>
      <trkpt lat="45.52484" lon="6.73634">
        <ele>1916.1</ele>
        <time>2021-08-12T13:02:26Z</time>
      </trkpt>
      <trkpt lat="45.52484" lon="6.73635">
        <ele>1916</ele>
        <time>2021-08-12T13:02:27Z</time>
      </trkpt>
      <trkpt lat="45.52485" lon="6.73636">
        <ele>1915.9</ele>
        <time>2021-08-12T13:02:28Z</time>
      </trkpt>
      <trkpt lat="45.52485" lon="6.73636">
        <ele>1915.8</ele>
        <time>2021-08-12T13:02:29Z</time>
      </trkpt>
      <trkpt lat="45.52485" lon="6.73637">
        <ele>1915.7</ele>
        <time>2021-08-12T13:02:30Z</time>
      </trkpt>
      <trkpt lat="45.52486" lon="6.73638">
        <ele>1915.6</ele>
        <time>2021-08-12T13:02:31Z</time>
      </trkpt>
      <trkpt lat="45.52486" lon="6.73639">
        <ele>1915.5</ele>
        <time>2021-08-12T13:02:32Z</time>
      </trkpt>
      <trkpt lat="45.52486" lon="6.73639">
        <ele>1915.4</ele>
        <time>2021-08-12T13:02:33Z</time>
      </trkpt>
      <trkpt lat="45.52487" lon="6.7364">
        <ele>1915.3</ele>
        <time>2021-08-12T13:02:34Z</time>
      </trkpt>
      <trkpt lat="45.52487" lon="6.73641">
        <ele>1915.2</ele>
        <time>2021-08-12T13:02:35Z</time>
      </trkpt>
      <trkpt lat="45.52487" lon="6.73642">
        <ele>1915.1</ele>
        <time>2021-08-12T13:02:36Z</time>
      </trkpt>
      <trkpt lat="45.52488" lon="6.73642">
        <ele>1914.9</ele>
        <time>2021-08-12T13:02:37Z</time>
      </trkpt>
      <trkpt lat="45.52488" lon="6.73643">
        <ele>1914.8</ele>
        <time>2021-08-12T13:02:38Z</time>
      </trkpt>
      <trkpt lat="45.52488" lon="6.73644">
        <ele>1914.7</ele>
        <time>2021-08-12T13:02:39Z</time>
      </trkpt>
      <trkpt lat="45.52489" lon="6.73645">
        <ele>1914.6</ele>
        <time>2021-08-12T13:02:40Z</time>
      </trkpt>
      <trkpt lat="45.52489" lon="6.73645">
        <ele>1914.5</ele>
        <time>2021-08-12T13:02:41Z</time>
      </trkpt>
      <trkpt lat="45.52489" lon="6.73646">
        <ele>1914.4</ele>
        <time>2021-08-12T13:02:42Z</time>
      </trkpt>
      <trkpt lat="45.5249" lon="6.73647">
        <ele>1914.3</ele>
        <time>2021-08-12T13:02:43Z</time>
      </trkpt>
      <trkpt lat="45.5249" lon="6.73648">
        <ele>1914.1</ele>
        <time>2021-08-12T13:02:44Z</time>
      </trkpt>
      <trkpt lat="45.52491" lon="6.73649">
        <ele>1914</ele>
        <time>2021-08-12T13:02:45Z</time>
      </trkpt>
      <trkpt lat="45.52491" lon="6.73649">
        <ele>1913.9</ele>
        <time>2021-08-12T13:02:46Z</time>
      </trkpt>
      <trkpt lat="45.52491" lon="6.7365">
        <ele>1913.8</ele>
        <time>2021-08-12T13:02:47Z</time>
      </trkpt>
      <trkpt lat="45.52492" lon="6.73651">
        <ele>1913.5</ele>
        <time>2021-08-12T13:02:48Z</time>
      </trkpt>
      <trkpt lat="45.52492" lon="6.73652">
        <ele>1913.4</ele>
        <time>2021-08-12T13:02:49Z</time>
      </trkpt>
      <trkpt lat="45.52492" lon="6.73652">
        <ele>1913.3</ele>
        <time>2021-08-12T13:02:50Z</time>
      </trkpt>
      <trkpt lat="45.52493" lon="6.73653">
        <ele>1913.2</ele>
        <time>2021-08-12T13:02:51Z</time>
      </trkpt>
      <trkpt lat="45.52492" lon="6.73654">
        <ele>1913.1</ele>
        <time>2021-08-12T13:02:52Z</time>
      </trkpt>
      <trkpt lat="45.52491" lon="6.73654">
        <ele>1913</ele>
        <time>2021-08-12T13:02:53Z</time>
      </trkpt>
      <trkpt lat="45.5249" lon="6.73655">
        <ele>1912.8</ele>
        <time>2021-08-12T13:02:54Z</time>
      </trkpt>
      <trkpt lat="45.52489" lon="6.73655">
        <ele>1912.7</ele>
        <time>2021-08-12T13:02:55Z</time>
      </trkpt>
      <trkpt lat="45.52488" lon="6.73656">
        <ele>1912.6</ele>
        <time>2021-08-12T13:02:56Z</time>
      </trkpt>
      <trkpt lat="45.52486" lon="6.73656">
        <ele>1912.4</ele>
        <time>2021-08-12T13:02:57Z</time>
      </trkpt>
      <trkpt lat="45.52485" lon="6.73656">
        <ele>1912.3</ele>
        <time>2021-08-12T13:02:58Z</time>
      </trkpt>
      <trkpt lat="45.52484" lon="6.73656">
        <ele>1912.2</ele>
        <time>2021-08-12T13:02:59Z</time>
      </trkpt>
      <trkpt lat="45.52483" lon="6.73656">
        <ele>1912</ele>
        <time>2021-08-12T13:03:00Z</time>
      </trkpt>
      <trkpt lat="45.52482" lon="6.73656">
        <ele>1911.9</ele>
        <time>2021-08-12T13:03:01Z</time>
      </trkpt>
      <trkpt lat="45.52481" lon="6.73656">
        <ele>1911.8</ele>
        <time>2021-08-12T13:03:02Z</time>
      </trkpt>
      <trkpt lat="45.5248" lon="6.73656">
        <ele>1911.7</ele>
        <time>2021-08-12T13:03:03Z</time>
      </trkpt>
      <trkpt lat="45.5248" lon="6.73655">
        <ele>1911.6</ele>
        <time>2021-08-12T13:03:04Z</time>
      </trkpt>
      <trkpt lat="45.52479" lon="6.73655">
        <ele>1911.5</ele>
        <time>2021-08-12T13:03:05Z</time>
      </trkpt>
      <trkpt lat="45.52478" lon="6.73655">
        <ele>1911.4</ele>
        <time>2021-08-12T13:03:06Z</time>
      </trkpt>
      <trkpt lat="45.52477" lon="6.73655">
        <ele>1911.2</ele>
        <time>2021-08-12T13:03:07Z</time>
      </trkpt>
      <trkpt lat="45.52476" lon="6.73655">
        <ele>1911.1</ele>
        <time>2021-08-12T13:03:08Z</time>
      </trkpt>
      <trkpt lat="45.52475" lon="6.73655">
        <ele>1911</ele>
        <time>2021-08-12T13:03:09Z</time>
      </trkpt>
      <trkpt lat="45.52475" lon="6.73654">
        <ele>1910.9</ele>
        <time>2021-08-12T13:03:10Z</time>
      </trkpt>
      <trkpt lat="45.52474" lon="6.73654">
        <ele>1910.8</ele>
        <time>2021-08-12T13:03:11Z</time>
      </trkpt>
      <trkpt lat="45.52473" lon="6.73654">
        <ele>1910.7</ele>
        <time>2021-08-12T13:03:12Z</time>
      </trkpt>
      <trkpt lat="45.52472" lon="6.73654">
        <ele>1910.6</ele>
        <time>2021-08-12T13:03:13Z</time>
      </trkpt>
      <trkpt lat="45.52471" lon="6.73654">
        <ele>1910.5</ele>
        <time>2021-08-12T13:03:14Z</time>
      </trkpt>
      <trkpt lat="45.5247" lon="6.73654">
        <ele>1910.4</ele>
        <time>2021-08-12T13:03:15Z</time>
      </trkpt>
      <trkpt lat="45.5247" lon="6.73654">
        <ele>1910.3</ele>
        <time>2021-08-12T13:03:16Z</time>
      </trkpt>
      <trkpt lat="45.52469" lon="6.73654">
        <ele>1910.2</ele>
        <time>2021-08-12T13:03:17Z</time>
      </trkpt>
      <trkpt lat="45.52468" lon="6.73653">
        <ele>1910.1</ele>
        <time>2021-08-12T13:03:18Z</time>
      </trkpt>
      <trkpt lat="45.52467" lon="6.73653">
        <ele>1910</ele>
        <time>2021-08-12T13:03:19Z</time>
      </trkpt>
      <trkpt lat="45.52466" lon="6.73653">
        <ele>1909.9</ele>
        <time>2021-08-12T13:03:20Z</time>
      </trkpt>
      <trkpt lat="45.52466" lon="6.73652">
        <ele>1909.8</ele>
        <time>2021-08-12T13:03:21Z</time>
      </trkpt>
      <trkpt lat="45.52465" lon="6.73652">
        <ele>1909.7</ele>
        <time>2021-08-12T13:03:22Z</time>
      </trkpt>
      <trkpt lat="45.52464" lon="6.73651">
        <ele>1909.6</ele>
        <time>2021-08-12T13:03:23Z</time>
      </trkpt>
      <trkpt lat="45.52463" lon="6.7365">
        <ele>1909.5</ele>
        <time>2021-08-12T13:03:24Z</time>
      </trkpt>
      <trkpt lat="45.52463" lon="6.7365">
        <ele>1909.4</ele>
        <time>2021-08-12T13:03:25Z</time>
      </trkpt>
      <trkpt lat="45.52462" lon="6.73649">
        <ele>1909.3</ele>
        <time>2021-08-12T13:03:26Z</time>
      </trkpt>
      <trkpt lat="45.52461" lon="6.73648">
        <ele>1909.2</ele>
        <time>2021-08-12T13:03:27Z</time>
      </trkpt>
      <trkpt lat="45.5246" lon="6.73648">
        <ele>1909.1</ele>
        <time>2021-08-12T13:03:28Z</time>
      </trkpt>
      <trkpt lat="45.5246" lon="6.73647">
        <ele>1909</ele>
        <time>2021-08-12T13:03:29Z</time>
      </trkpt>
      <trkpt lat="45.52459" lon="6.73646">
        <ele>1908.9</ele>
        <time>2021-08-12T13:03:30Z</time>
      </trkpt>
      <trkpt lat="45.52458" lon="6.73646">
        <ele>1908.8</ele>
        <time>2021-08-12T13:03:31Z</time>
      </trkpt>
      <trkpt lat="45.52458" lon="6.73645">
        <ele>1908.7</ele>
        <time>2021-08-12T13:03:32Z</time>
      </trkpt>
      <trkpt lat="45.52457" lon="6.73644">
        <ele>1908.6</ele>
        <time>2021-08-12T13:03:33Z</time>
      </trkpt>
      <trkpt lat="45.52456" lon="6.73644">
        <ele>1908.5</ele>
        <time>2021-08-12T13:03:34Z</time>
      </trkpt>
      <trkpt lat="45.52456" lon="6.73643">
        <ele>1908.4</ele>
        <time>2021-08-12T13:03:35Z</time>
      </trkpt>
      <trkpt lat="45.52455" lon="6.73643">
        <ele>1908.3</ele>
        <time>2021-08-12T13:03:36Z</time>
      </trkpt>
      <trkpt lat="45.52455" lon="6.73642">
        <ele>1908.2</ele>
        <time>2021-08-12T13:03:37Z</time>
      </trkpt>
      <trkpt lat="45.52454" lon="6.73642">
        <ele>1908.1</ele>
        <time>2021-08-12T13:03:38Z</time>
      </trkpt>
      <trkpt lat="45.52453" lon="6.73641">
        <ele>1908</ele>
        <time>2021-08-12T13:03:39Z</time>
      </trkpt>
      <trkpt lat="45.52452" lon="6.73641">
        <ele>1907.9</ele>
        <time>2021-08-12T13:03:40Z</time>
      </trkpt>
      <trkpt lat="45.52452" lon="6.7364">
        <ele>1907.8</ele>
        <time>2021-08-12T13:03:41Z</time>
      </trkpt>
      <trkpt lat="45.52451" lon="6.7364">
        <ele>1907.7</ele>
        <time>2021-08-12T13:03:42Z</time>
      </trkpt>
      <trkpt lat="45.5245" lon="6.73639">
        <ele>1907.6</ele>
        <time>2021-08-12T13:03:43Z</time>
      </trkpt>
      <trkpt lat="45.52449" lon="6.73639">
        <ele>1907.5</ele>
        <time>2021-08-12T13:03:44Z</time>
      </trkpt>
      <trkpt lat="45.52449" lon="6.73638">
        <ele>1907.4</ele>
        <time>2021-08-12T13:03:45Z</time>
      </trkpt>
      <trkpt lat="45.52448" lon="6.73638">
        <ele>1907.3</ele>
        <time>2021-08-12T13:03:46Z</time>
      </trkpt>
      <trkpt lat="45.52447" lon="6.73638">
        <ele>1907.2</ele>
        <time>2021-08-12T13:03:47Z</time>
      </trkpt>
      <trkpt lat="45.52446" lon="6.73637">
        <ele>1907.1</ele>
        <time>2021-08-12T13:03:48Z</time>
      </trkpt>
      <trkpt lat="45.52446" lon="6.73637">
        <ele>1907</ele>
        <time>2021-08-12T13:03:49Z</time>
      </trkpt>
      <trkpt lat="45.52445" lon="6.73637">
        <ele>1906.9</ele>
        <time>2021-08-12T13:03:50Z</time>
      </trkpt>
      <trkpt lat="45.52444" lon="6.73636">
        <ele>1906.8</ele>
        <time>2021-08-12T13:03:51Z</time>
      </trkpt>
      <trkpt lat="45.52443" lon="6.73636">
        <ele>1906.7</ele>
        <time>2021-08-12T13:03:52Z</time>
      </trkpt>
      <trkpt lat="45.52443" lon="6.73636">
        <ele>1906.6</ele>
        <time>2021-08-12T13:03:53Z</time>
      </trkpt>
      <trkpt lat="45.52442" lon="6.73636">
        <ele>1906.5</ele>
        <time>2021-08-12T13:03:54Z</time>
      </trkpt>
      <trkpt lat="45.52441" lon="6.73635">
        <ele>1906.4</ele>
        <time>2021-08-12T13:03:55Z</time>
      </trkpt>
      <trkpt lat="45.5244" lon="6.73635">
        <ele>1906.3</ele>
        <time>2021-08-12T13:03:56Z</time>
      </trkpt>
      <trkpt lat="45.5244" lon="6.73635">
        <ele>1906.3</ele>
        <time>2021-08-12T13:03:57Z</time>
      </trkpt>
      <trkpt lat="45.52439" lon="6.73634">
        <ele>1906.2</ele>
        <time>2021-08-12T13:03:58Z</time>
      </trkpt>
      <trkpt lat="45.52438" lon="6.73634">
        <ele>1906.1</ele>
        <time>2021-08-12T13:03:59Z</time>
      </trkpt>
      <trkpt lat="45.52437" lon="6.73634">
        <ele>1906</ele>
        <time>2021-08-12T13:04:00Z</time>
      </trkpt>
      <trkpt lat="45.52437" lon="6.73633">
        <ele>1905.9</ele>
        <time>2021-08-12T13:04:01Z</time>
      </trkpt>
      <trkpt lat="45.52436" lon="6.73633">
        <ele>1905.8</ele>
        <time>2021-08-12T13:04:02Z</time>
      </trkpt>
      <trkpt lat="45.52435" lon="6.73633">
        <ele>1905.7</ele>
        <time>2021-08-12T13:04:03Z</time>
      </trkpt>
      <trkpt lat="45.52434" lon="6.73632">
        <ele>1905.6</ele>
        <time>2021-08-12T13:04:04Z</time>
      </trkpt>
      <trkpt lat="45.52434" lon="6.73632">
        <ele>1905.5</ele>
        <time>2021-08-12T13:04:05Z</time>
      </trkpt>
      <trkpt lat="45.52433" lon="6.73632">
        <ele>1905.4</ele>
        <time>2021-08-12T13:04:06Z</time>
      </trkpt>
      <trkpt lat="45.52432" lon="6.73631">
        <ele>1905.3</ele>
        <time>2021-08-12T13:04:07Z</time>
      </trkpt>
      <trkpt lat="45.52431" lon="6.73631">
        <ele>1905.2</ele>
        <time>2021-08-12T13:04:08Z</time>
      </trkpt>
      <trkpt lat="45.5243" lon="6.73631">
        <ele>1905.1</ele>
        <time>2021-08-12T13:04:09Z</time>
      </trkpt>
      <trkpt lat="45.5243" lon="6.7363">
        <ele>1904.9</ele>
        <time>2021-08-12T13:04:10Z</time>
      </trkpt>
      <trkpt lat="45.52429" lon="6.7363">
        <ele>1904.8</ele>
        <time>2021-08-12T13:04:11Z</time>
      </trkpt>
      <trkpt lat="45.52428" lon="6.73629">
        <ele>1904.7</ele>
        <time>2021-08-12T13:04:12Z</time>
      </trkpt>
      <trkpt lat="45.52427" lon="6.73629">
        <ele>1904.6</ele>
        <time>2021-08-12T13:04:13Z</time>
      </trkpt>
      <trkpt lat="45.52426" lon="6.73628">
        <ele>1904.5</ele>
        <time>2021-08-12T13:04:14Z</time>
      </trkpt>
      <trkpt lat="45.52425" lon="6.73628">
        <ele>1904.4</ele>
        <time>2021-08-12T13:04:15Z</time>
      </trkpt>
      <trkpt lat="45.52425" lon="6.73628">
        <ele>1904.3</ele>
        <time>2021-08-12T13:04:16Z</time>
      </trkpt>
      <trkpt lat="45.52424" lon="6.73627">
        <ele>1904.2</ele>
        <time>2021-08-12T13:04:17Z</time>
      </trkpt>
      <trkpt lat="45.52423" lon="6.73627">
        <ele>1904.1</ele>
        <time>2021-08-12T13:04:18Z</time>
      </trkpt>
      <trkpt lat="45.52422" lon="6.73626">
        <ele>1904</ele>
        <time>2021-08-12T13:04:19Z</time>
      </trkpt>
      <trkpt lat="45.52421" lon="6.73626">
        <ele>1903.9</ele>
        <time>2021-08-12T13:04:20Z</time>
      </trkpt>
      <trkpt lat="45.52421" lon="6.73625">
        <ele>1903.8</ele>
        <time>2021-08-12T13:04:21Z</time>
      </trkpt>
      <trkpt lat="45.5242" lon="6.73625">
        <ele>1903.6</ele>
        <time>2021-08-12T13:04:22Z</time>
      </trkpt>
      <trkpt lat="45.52419" lon="6.73624">
        <ele>1903.5</ele>
        <time>2021-08-12T13:04:23Z</time>
      </trkpt>
      <trkpt lat="45.52418" lon="6.73624">
        <ele>1903.4</ele>
        <time>2021-08-12T13:04:24Z</time>
      </trkpt>
      <trkpt lat="45.52417" lon="6.73624">
        <ele>1903.3</ele>
        <time>2021-08-12T13:04:25Z</time>
      </trkpt>
      <trkpt lat="45.52417" lon="6.73623">
        <ele>1903.2</ele>
        <time>2021-08-12T13:04:26Z</time>
      </trkpt>
      <trkpt lat="45.52416" lon="6.73623">
        <ele>1903.1</ele>
        <time>2021-08-12T13:04:27Z</time>
      </trkpt>
      <trkpt lat="45.52415" lon="6.73622">
        <ele>1903</ele>
        <time>2021-08-12T13:04:28Z</time>
      </trkpt>
      <trkpt lat="45.52414" lon="6.73622">
        <ele>1902.9</ele>
        <time>2021-08-12T13:04:29Z</time>
      </trkpt>
      <trkpt lat="45.52414" lon="6.73621">
        <ele>1902.8</ele>
        <time>2021-08-12T13:04:30Z</time>
      </trkpt>
      <trkpt lat="45.52413" lon="6.73621">
        <ele>1902.8</ele>
        <time>2021-08-12T13:04:31Z</time>
      </trkpt>
      <trkpt lat="45.52412" lon="6.73621">
        <ele>1902.7</ele>
        <time>2021-08-12T13:04:32Z</time>
      </trkpt>
      <trkpt lat="45.52412" lon="6.7362">
        <ele>1902.6</ele>
        <time>2021-08-12T13:04:33Z</time>
      </trkpt>
      <trkpt lat="45.52411" lon="6.7362">
        <ele>1902.5</ele>
        <time>2021-08-12T13:04:34Z</time>
      </trkpt>
      <trkpt lat="45.5241" lon="6.7362">
        <ele>1902.4</ele>
        <time>2021-08-12T13:04:35Z</time>
      </trkpt>
      <trkpt lat="45.52409" lon="6.73619">
        <ele>1902.3</ele>
        <time>2021-08-12T13:04:36Z</time>
      </trkpt>
      <trkpt lat="45.52409" lon="6.73619">
        <ele>1902.2</ele>
        <time>2021-08-12T13:04:37Z</time>
      </trkpt>
      <trkpt lat="45.52408" lon="6.73618">
        <ele>1902.1</ele>
        <time>2021-08-12T13:04:38Z</time>
      </trkpt>
      <trkpt lat="45.52407" lon="6.73618">
        <ele>1902</ele>
        <time>2021-08-12T13:04:39Z</time>
      </trkpt>
      <trkpt lat="45.52407" lon="6.73618">
        <ele>1901.9</ele>
        <time>2021-08-12T13:04:40Z</time>
      </trkpt>
      <trkpt lat="45.52406" lon="6.73617">
        <ele>1901.8</ele>
        <time>2021-08-12T13:04:41Z</time>
      </trkpt>
      <trkpt lat="45.52405" lon="6.73617">
        <ele>1901.7</ele>
        <time>2021-08-12T13:04:42Z</time>
      </trkpt>
      <trkpt lat="45.52405" lon="6.73617">
        <ele>1901.6</ele>
        <time>2021-08-12T13:04:43Z</time>
      </trkpt>
      <trkpt lat="45.52404" lon="6.73616">
        <ele>1901.5</ele>
        <time>2021-08-12T13:04:44Z</time>
      </trkpt>
      <trkpt lat="45.52403" lon="6.73616">
        <ele>1901.4</ele>
        <time>2021-08-12T13:04:45Z</time>
      </trkpt>
      <trkpt lat="45.52402" lon="6.73615">
        <ele>1901.3</ele>
        <time>2021-08-12T13:04:46Z</time>
      </trkpt>
      <trkpt lat="45.52402" lon="6.73615">
        <ele>1901.2</ele>
        <time>2021-08-12T13:04:47Z</time>
      </trkpt>
      <trkpt lat="45.52401" lon="6.73615">
        <ele>1901.1</ele>
        <time>2021-08-12T13:04:48Z</time>
      </trkpt>
      <trkpt lat="45.524" lon="6.73614">
        <ele>1901</ele>
        <time>2021-08-12T13:04:49Z</time>
      </trkpt>
      <trkpt lat="45.52399" lon="6.73614">
        <ele>1900.9</ele>
        <time>2021-08-12T13:04:50Z</time>
      </trkpt>
      <trkpt lat="45.52399" lon="6.73613">
        <ele>1900.8</ele>
        <time>2021-08-12T13:04:51Z</time>
      </trkpt>
      <trkpt lat="45.52398" lon="6.73613">
        <ele>1900.7</ele>
        <time>2021-08-12T13:04:52Z</time>
      </trkpt>
      <trkpt lat="45.52397" lon="6.73613">
        <ele>1900.6</ele>
        <time>2021-08-12T13:04:53Z</time>
      </trkpt>
      <trkpt lat="45.52396" lon="6.73612">
        <ele>1900.5</ele>
        <time>2021-08-12T13:04:54Z</time>
      </trkpt>
      <trkpt lat="45.52395" lon="6.73612">
        <ele>1900.4</ele>
        <time>2021-08-12T13:04:55Z</time>
      </trkpt>
      <trkpt lat="45.52395" lon="6.73611">
        <ele>1900.3</ele>
        <time>2021-08-12T13:04:56Z</time>
      </trkpt>
      <trkpt lat="45.52394" lon="6.73611">
        <ele>1900.2</ele>
        <time>2021-08-12T13:04:57Z</time>
      </trkpt>
      <trkpt lat="45.52393" lon="6.7361">
        <ele>1900.1</ele>
        <time>2021-08-12T13:04:58Z</time>
      </trkpt>
      <trkpt lat="45.52392" lon="6.7361">
        <ele>1900</ele>
        <time>2021-08-12T13:04:59Z</time>
      </trkpt>
      <trkpt lat="45.52391" lon="6.7361">
        <ele>1899.9</ele>
        <time>2021-08-12T13:05:00Z</time>
      </trkpt>
      <trkpt lat="45.52391" lon="6.73609">
        <ele>1899.8</ele>
        <time>2021-08-12T13:05:01Z</time>
      </trkpt>
      <trkpt lat="45.5239" lon="6.73609">
        <ele>1899.6</ele>
        <time>2021-08-12T13:05:02Z</time>
      </trkpt>
      <trkpt lat="45.52389" lon="6.73608">
        <ele>1899.5</ele>
        <time>2021-08-12T13:05:03Z</time>
      </trkpt>
      <trkpt lat="45.52388" lon="6.73608">
        <ele>1899.4</ele>
        <time>2021-08-12T13:05:04Z</time>
      </trkpt>
      <trkpt lat="45.52387" lon="6.73607">
        <ele>1899.3</ele>
        <time>2021-08-12T13:05:05Z</time>
      </trkpt>
      <trkpt lat="45.52387" lon="6.73607">
        <ele>1899.2</ele>
        <time>2021-08-12T13:05:06Z</time>
      </trkpt>
      <trkpt lat="45.52386" lon="6.73607">
        <ele>1899.1</ele>
        <time>2021-08-12T13:05:07Z</time>
      </trkpt>
      <trkpt lat="45.52385" lon="6.73606">
        <ele>1899</ele>
        <time>2021-08-12T13:05:08Z</time>
      </trkpt>
      <trkpt lat="45.52384" lon="6.73606">
        <ele>1898.9</ele>
        <time>2021-08-12T13:05:09Z</time>
      </trkpt>
      <trkpt lat="45.52383" lon="6.73605">
        <ele>1898.8</ele>
        <time>2021-08-12T13:05:10Z</time>
      </trkpt>
      <trkpt lat="45.52383" lon="6.73605">
        <ele>1898.7</ele>
        <time>2021-08-12T13:05:11Z</time>
      </trkpt>
      <trkpt lat="45.52382" lon="6.73605">
        <ele>1898.6</ele>
        <time>2021-08-12T13:05:12Z</time>
      </trkpt>
      <trkpt lat="45.52381" lon="6.73604">
        <ele>1898.5</ele>
        <time>2021-08-12T13:05:13Z</time>
      </trkpt>
      <trkpt lat="45.5238" lon="6.73604">
        <ele>1898.4</ele>
        <time>2021-08-12T13:05:14Z</time>
      </trkpt>
      <trkpt lat="45.5238" lon="6.73603">
        <ele>1898.3</ele>
        <time>2021-08-12T13:05:15Z</time>
      </trkpt>
      <trkpt lat="45.52379" lon="6.73603">
        <ele>1898.2</ele>
        <time>2021-08-12T13:05:16Z</time>
      </trkpt>
      <trkpt lat="45.52378" lon="6.73603">
        <ele>1898.1</ele>
        <time>2021-08-12T13:05:17Z</time>
      </trkpt>
      <trkpt lat="45.52377" lon="6.73602">
        <ele>1898</ele>
        <time>2021-08-12T13:05:18Z</time>
      </trkpt>
      <trkpt lat="45.52377" lon="6.73602">
        <ele>1897.9</ele>
        <time>2021-08-12T13:05:19Z</time>
      </trkpt>
      <trkpt lat="45.52376" lon="6.73602">
        <ele>1897.8</ele>
        <time>2021-08-12T13:05:20Z</time>
      </trkpt>
      <trkpt lat="45.52375" lon="6.73601">
        <ele>1897.7</ele>
        <time>2021-08-12T13:05:21Z</time>
      </trkpt>
      <trkpt lat="45.52374" lon="6.73601">
        <ele>1897.6</ele>
        <time>2021-08-12T13:05:22Z</time>
      </trkpt>
      <trkpt lat="45.52374" lon="6.73601">
        <ele>1897.5</ele>
        <time>2021-08-12T13:05:23Z</time>
      </trkpt>
      <trkpt lat="45.52373" lon="6.736">
        <ele>1897.4</ele>
        <time>2021-08-12T13:05:24Z</time>
      </trkpt>
      <trkpt lat="45.52372" lon="6.736">
        <ele>1897.3</ele>
        <time>2021-08-12T13:05:25Z</time>
      </trkpt>
      <trkpt lat="45.52372" lon="6.736">
        <ele>1897.2</ele>
        <time>2021-08-12T13:05:26Z</time>
      </trkpt>
      <trkpt lat="45.52371" lon="6.73599">
        <ele>1897.1</ele>
        <time>2021-08-12T13:05:27Z</time>
      </trkpt>
      <trkpt lat="45.5237" lon="6.73599">
        <ele>1897</ele>
        <time>2021-08-12T13:05:28Z</time>
      </trkpt>
      <trkpt lat="45.5237" lon="6.73599">
        <ele>1897</ele>
        <time>2021-08-12T13:05:29Z</time>
      </trkpt>
      <trkpt lat="45.52369" lon="6.73599">
        <ele>1896.9</ele>
        <time>2021-08-12T13:05:30Z</time>
      </trkpt>
      <trkpt lat="45.52368" lon="6.73598">
        <ele>1896.8</ele>
        <time>2021-08-12T13:05:31Z</time>
      </trkpt>
      <trkpt lat="45.52368" lon="6.73598">
        <ele>1896.7</ele>
        <time>2021-08-12T13:05:32Z</time>
      </trkpt>
      <trkpt lat="45.52367" lon="6.73598">
        <ele>1896.6</ele>
        <time>2021-08-12T13:05:33Z</time>
      </trkpt>
      <trkpt lat="45.52366" lon="6.73597">
        <ele>1896.4</ele>
        <time>2021-08-12T13:05:34Z</time>
      </trkpt>
      <trkpt lat="45.52366" lon="6.73597">
        <ele>1896.3</ele>
        <time>2021-08-12T13:05:35Z</time>
      </trkpt>
      <trkpt lat="45.52365" lon="6.73597">
        <ele>1896.3</ele>
        <time>2021-08-12T13:05:36Z</time>
      </trkpt>
      <trkpt lat="45.52364" lon="6.73596">
        <ele>1896.2</ele>
        <time>2021-08-12T13:05:37Z</time>
      </trkpt>
      <trkpt lat="45.52363" lon="6.73596">
        <ele>1896.1</ele>
        <time>2021-08-12T13:05:38Z</time>
      </trkpt>
      <trkpt lat="45.52363" lon="6.73596">
        <ele>1896</ele>
        <time>2021-08-12T13:05:39Z</time>
      </trkpt>
      <trkpt lat="45.52362" lon="6.73595">
        <ele>1895.9</ele>
        <time>2021-08-12T13:05:40Z</time>
      </trkpt>
      <trkpt lat="45.52361" lon="6.73595">
        <ele>1895.8</ele>
        <time>2021-08-12T13:05:41Z</time>
      </trkpt>
      <trkpt lat="45.5236" lon="6.73594">
        <ele>1895.7</ele>
        <time>2021-08-12T13:05:42Z</time>
      </trkpt>
      <trkpt lat="45.5236" lon="6.73594">
        <ele>1895.6</ele>
        <time>2021-08-12T13:05:43Z</time>
      </trkpt>
      <trkpt lat="45.52359" lon="6.73593">
        <ele>1895.4</ele>
        <time>2021-08-12T13:05:44Z</time>
      </trkpt>
      <trkpt lat="45.52358" lon="6.73593">
        <ele>1895.3</ele>
        <time>2021-08-12T13:05:45Z</time>
      </trkpt>
      <trkpt lat="45.52357" lon="6.73592">
        <ele>1895.2</ele>
        <time>2021-08-12T13:05:46Z</time>
      </trkpt>
      <trkpt lat="45.52356" lon="6.73592">
        <ele>1895.1</ele>
        <time>2021-08-12T13:05:47Z</time>
      </trkpt>
      <trkpt lat="45.52356" lon="6.73591">
        <ele>1895</ele>
        <time>2021-08-12T13:05:48Z</time>
      </trkpt>
      <trkpt lat="45.52355" lon="6.73591">
        <ele>1894.9</ele>
        <time>2021-08-12T13:05:49Z</time>
      </trkpt>
      <trkpt lat="45.52354" lon="6.7359">
        <ele>1894.8</ele>
        <time>2021-08-12T13:05:50Z</time>
      </trkpt>
      <trkpt lat="45.52354" lon="6.7359">
        <ele>1894.7</ele>
        <time>2021-08-12T13:05:51Z</time>
      </trkpt>
      <trkpt lat="45.52353" lon="6.73589">
        <ele>1894.6</ele>
        <time>2021-08-12T13:05:52Z</time>
      </trkpt>
      <trkpt lat="45.52352" lon="6.73589">
        <ele>1894.5</ele>
        <time>2021-08-12T13:05:53Z</time>
      </trkpt>
      <trkpt lat="45.52352" lon="6.73589">
        <ele>1894.5</ele>
        <time>2021-08-12T13:05:54Z</time>
      </trkpt>
      <trkpt lat="45.52351" lon="6.73589">
        <ele>1894.4</ele>
        <time>2021-08-12T13:05:55Z</time>
      </trkpt>
      <trkpt lat="45.52351" lon="6.73589">
        <ele>1894.4</ele>
        <time>2021-08-12T13:05:56Z</time>
      </trkpt>
      <trkpt lat="45.52351" lon="6.73589">
        <ele>1894.3</ele>
        <time>2021-08-12T13:05:57Z</time>
      </trkpt>
      <trkpt lat="45.5235" lon="6.73589">
        <ele>1894.3</ele>
        <time>2021-08-12T13:05:58Z</time>
      </trkpt>
      <trkpt lat="45.5235" lon="6.73589">
        <ele>1894.2</ele>
        <time>2021-08-12T13:05:59Z</time>
      </trkpt>
      <trkpt lat="45.5235" lon="6.73589">
        <ele>1894.2</ele>
        <time>2021-08-12T13:06:00Z</time>
      </trkpt>
      <trkpt lat="45.52349" lon="6.73589">
        <ele>1894.2</ele>
        <time>2021-08-12T13:06:01Z</time>
      </trkpt>
      <trkpt lat="45.52349" lon="6.73589">
        <ele>1894.1</ele>
        <time>2021-08-12T13:06:02Z</time>
      </trkpt>
      <trkpt lat="45.52349" lon="6.73589">
        <ele>1894.1</ele>
        <time>2021-08-12T13:06:03Z</time>
      </trkpt>
      <trkpt lat="45.52348" lon="6.73589">
        <ele>1894</ele>
        <time>2021-08-12T13:06:04Z</time>
      </trkpt>
      <trkpt lat="45.52347" lon="6.73589">
        <ele>1893.9</ele>
        <time>2021-08-12T13:06:05Z</time>
      </trkpt>
      <trkpt lat="45.52347" lon="6.73588">
        <ele>1893.8</ele>
        <time>2021-08-12T13:06:06Z</time>
      </trkpt>
      <trkpt lat="45.52346" lon="6.73588">
        <ele>1893.7</ele>
        <time>2021-08-12T13:06:07Z</time>
      </trkpt>
      <trkpt lat="45.52345" lon="6.73588">
        <ele>1893.7</ele>
        <time>2021-08-12T13:06:08Z</time>
      </trkpt>
      <trkpt lat="45.52345" lon="6.73587">
        <ele>1893.6</ele>
        <time>2021-08-12T13:06:09Z</time>
      </trkpt>
      <trkpt lat="45.52344" lon="6.73587">
        <ele>1893.5</ele>
        <time>2021-08-12T13:06:10Z</time>
      </trkpt>
      <trkpt lat="45.52343" lon="6.73587">
        <ele>1893.4</ele>
        <time>2021-08-12T13:06:11Z</time>
      </trkpt>
      <trkpt lat="45.52342" lon="6.73586">
        <ele>1893.2</ele>
        <time>2021-08-12T13:06:12Z</time>
      </trkpt>
      <trkpt lat="45.52341" lon="6.73586">
        <ele>1893.1</ele>
        <time>2021-08-12T13:06:13Z</time>
      </trkpt>
      <trkpt lat="45.52341" lon="6.73586">
        <ele>1893</ele>
        <time>2021-08-12T13:06:14Z</time>
      </trkpt>
      <trkpt lat="45.5234" lon="6.73586">
        <ele>1892.9</ele>
        <time>2021-08-12T13:06:15Z</time>
      </trkpt>
      <trkpt lat="45.52339" lon="6.73585">
        <ele>1892.8</ele>
        <time>2021-08-12T13:06:16Z</time>
      </trkpt>
      <trkpt lat="45.52338" lon="6.73585">
        <ele>1892.7</ele>
        <time>2021-08-12T13:06:17Z</time>
      </trkpt>
      <trkpt lat="45.52337" lon="6.73585">
        <ele>1892.6</ele>
        <time>2021-08-12T13:06:18Z</time>
      </trkpt>
      <trkpt lat="45.52337" lon="6.73584">
        <ele>1892.5</ele>
        <time>2021-08-12T13:06:19Z</time>
      </trkpt>
      <trkpt lat="45.52336" lon="6.73584">
        <ele>1892.4</ele>
        <time>2021-08-12T13:06:20Z</time>
      </trkpt>
      <trkpt lat="45.52335" lon="6.73584">
        <ele>1892.3</ele>
        <time>2021-08-12T13:06:21Z</time>
      </trkpt>
      <trkpt lat="45.52334" lon="6.73584">
        <ele>1892.2</ele>
        <time>2021-08-12T13:06:22Z</time>
      </trkpt>
      <trkpt lat="45.52334" lon="6.73583">
        <ele>1892.1</ele>
        <time>2021-08-12T13:06:23Z</time>
      </trkpt>
      <trkpt lat="45.52333" lon="6.73583">
        <ele>1892</ele>
        <time>2021-08-12T13:06:24Z</time>
      </trkpt>
      <trkpt lat="45.52332" lon="6.73582">
        <ele>1891.9</ele>
        <time>2021-08-12T13:06:25Z</time>
      </trkpt>
      <trkpt lat="45.52331" lon="6.73582">
        <ele>1891.8</ele>
        <time>2021-08-12T13:06:26Z</time>
      </trkpt>
      <trkpt lat="45.52331" lon="6.73582">
        <ele>1891.7</ele>
        <time>2021-08-12T13:06:27Z</time>
      </trkpt>
      <trkpt lat="45.5233" lon="6.73581">
        <ele>1891.6</ele>
        <time>2021-08-12T13:06:28Z</time>
      </trkpt>
      <trkpt lat="45.52329" lon="6.73581">
        <ele>1891.5</ele>
        <time>2021-08-12T13:06:29Z</time>
      </trkpt>
      <trkpt lat="45.52329" lon="6.7358">
        <ele>1891.4</ele>
        <time>2021-08-12T13:06:30Z</time>
      </trkpt>
      <trkpt lat="45.52328" lon="6.7358">
        <ele>1891.3</ele>
        <time>2021-08-12T13:06:31Z</time>
      </trkpt>
      <trkpt lat="45.52327" lon="6.73579">
        <ele>1891.2</ele>
        <time>2021-08-12T13:06:32Z</time>
      </trkpt>
      <trkpt lat="45.52326" lon="6.73579">
        <ele>1891.1</ele>
        <time>2021-08-12T13:06:33Z</time>
      </trkpt>
      <trkpt lat="45.52326" lon="6.73578">
        <ele>1891</ele>
        <time>2021-08-12T13:06:34Z</time>
      </trkpt>
      <trkpt lat="45.52325" lon="6.73578">
        <ele>1890.9</ele>
        <time>2021-08-12T13:06:35Z</time>
      </trkpt>
      <trkpt lat="45.52324" lon="6.73577">
        <ele>1890.8</ele>
        <time>2021-08-12T13:06:36Z</time>
      </trkpt>
      <trkpt lat="45.52324" lon="6.73577">
        <ele>1890.8</ele>
        <time>2021-08-12T13:06:37Z</time>
      </trkpt>
      <trkpt lat="45.52323" lon="6.73577">
        <ele>1890.7</ele>
        <time>2021-08-12T13:06:38Z</time>
      </trkpt>
      <trkpt lat="45.52323" lon="6.73576">
        <ele>1890.6</ele>
        <time>2021-08-12T13:06:39Z</time>
      </trkpt>
      <trkpt lat="45.52322" lon="6.73576">
        <ele>1890.6</ele>
        <time>2021-08-12T13:06:40Z</time>
      </trkpt>
      <trkpt lat="45.52322" lon="6.73576">
        <ele>1890.5</ele>
        <time>2021-08-12T13:06:41Z</time>
      </trkpt>
      <trkpt lat="45.52322" lon="6.73575">
        <ele>1890.5</ele>
        <time>2021-08-12T13:06:42Z</time>
      </trkpt>
      <trkpt lat="45.52321" lon="6.73575">
        <ele>1890.4</ele>
        <time>2021-08-12T13:06:43Z</time>
      </trkpt>
      <trkpt lat="45.52321" lon="6.73574">
        <ele>1890.3</ele>
        <time>2021-08-12T13:06:44Z</time>
      </trkpt>
      <trkpt lat="45.5232" lon="6.73574">
        <ele>1890.3</ele>
        <time>2021-08-12T13:06:45Z</time>
      </trkpt>
      <trkpt lat="45.5232" lon="6.73573">
        <ele>1890.2</ele>
        <time>2021-08-12T13:06:46Z</time>
      </trkpt>
      <trkpt lat="45.52319" lon="6.73573">
        <ele>1890.1</ele>
        <time>2021-08-12T13:06:47Z</time>
      </trkpt>
      <trkpt lat="45.52319" lon="6.73572">
        <ele>1890</ele>
        <time>2021-08-12T13:06:48Z</time>
      </trkpt>
      <trkpt lat="45.52318" lon="6.73571">
        <ele>1889.8</ele>
        <time>2021-08-12T13:06:49Z</time>
      </trkpt>
      <trkpt lat="45.52317" lon="6.7357">
        <ele>1889.7</ele>
        <time>2021-08-12T13:06:50Z</time>
      </trkpt>
      <trkpt lat="45.52316" lon="6.7357">
        <ele>1889.6</ele>
        <time>2021-08-12T13:06:51Z</time>
      </trkpt>
      <trkpt lat="45.52315" lon="6.73569">
        <ele>1889.5</ele>
        <time>2021-08-12T13:06:52Z</time>
      </trkpt>
      <trkpt lat="45.52315" lon="6.73568">
        <ele>1889.4</ele>
        <time>2021-08-12T13:06:53Z</time>
      </trkpt>
      <trkpt lat="45.52314" lon="6.73568">
        <ele>1889.2</ele>
        <time>2021-08-12T13:06:54Z</time>
      </trkpt>
      <trkpt lat="45.52313" lon="6.73567">
        <ele>1889.1</ele>
        <time>2021-08-12T13:06:55Z</time>
      </trkpt>
      <trkpt lat="45.52312" lon="6.73566">
        <ele>1889</ele>
        <time>2021-08-12T13:06:56Z</time>
      </trkpt>
      <trkpt lat="45.52311" lon="6.73565">
        <ele>1888.9</ele>
        <time>2021-08-12T13:06:57Z</time>
      </trkpt>
      <trkpt lat="45.5231" lon="6.73565">
        <ele>1888.7</ele>
        <time>2021-08-12T13:06:58Z</time>
      </trkpt>
      <trkpt lat="45.52309" lon="6.73564">
        <ele>1888.6</ele>
        <time>2021-08-12T13:06:59Z</time>
      </trkpt>
      <trkpt lat="45.52308" lon="6.73564">
        <ele>1888.5</ele>
        <time>2021-08-12T13:07:00Z</time>
      </trkpt>
      <trkpt lat="45.52307" lon="6.73563">
        <ele>1888.3</ele>
        <time>2021-08-12T13:07:01Z</time>
      </trkpt>
      <trkpt lat="45.52306" lon="6.73562">
        <ele>1888.2</ele>
        <time>2021-08-12T13:07:02Z</time>
      </trkpt>
      <trkpt lat="45.52305" lon="6.73562">
        <ele>1888.1</ele>
        <time>2021-08-12T13:07:03Z</time>
      </trkpt>
      <trkpt lat="45.52304" lon="6.73561">
        <ele>1888</ele>
        <time>2021-08-12T13:07:04Z</time>
      </trkpt>
      <trkpt lat="45.52304" lon="6.7356">
        <ele>1887.8</ele>
        <time>2021-08-12T13:07:05Z</time>
      </trkpt>
      <trkpt lat="45.52303" lon="6.7356">
        <ele>1887.7</ele>
        <time>2021-08-12T13:07:06Z</time>
      </trkpt>
      <trkpt lat="45.52302" lon="6.73559">
        <ele>1887.6</ele>
        <time>2021-08-12T13:07:07Z</time>
      </trkpt>
      <trkpt lat="45.52301" lon="6.73558">
        <ele>1887.5</ele>
        <time>2021-08-12T13:07:08Z</time>
      </trkpt>
      <trkpt lat="45.523" lon="6.73558">
        <ele>1887.3</ele>
        <time>2021-08-12T13:07:09Z</time>
      </trkpt>
      <trkpt lat="45.52299" lon="6.73557">
        <ele>1887.2</ele>
        <time>2021-08-12T13:07:10Z</time>
      </trkpt>
      <trkpt lat="45.52298" lon="6.73556">
        <ele>1887.1</ele>
        <time>2021-08-12T13:07:11Z</time>
      </trkpt>
      <trkpt lat="45.52298" lon="6.73556">
        <ele>1887</ele>
        <time>2021-08-12T13:07:12Z</time>
      </trkpt>
      <trkpt lat="45.52297" lon="6.73555">
        <ele>1886.8</ele>
        <time>2021-08-12T13:07:13Z</time>
      </trkpt>
      <trkpt lat="45.52296" lon="6.73554">
        <ele>1886.7</ele>
        <time>2021-08-12T13:07:14Z</time>
      </trkpt>
      <trkpt lat="45.52295" lon="6.73553">
        <ele>1886.6</ele>
        <time>2021-08-12T13:07:15Z</time>
      </trkpt>
      <trkpt lat="45.52294" lon="6.73553">
        <ele>1886.5</ele>
        <time>2021-08-12T13:07:16Z</time>
      </trkpt>
      <trkpt lat="45.52293" lon="6.73552">
        <ele>1886.4</ele>
        <time>2021-08-12T13:07:17Z</time>
      </trkpt>
      <trkpt lat="45.52293" lon="6.73551">
        <ele>1886.2</ele>
        <time>2021-08-12T13:07:18Z</time>
      </trkpt>
      <trkpt lat="45.52292" lon="6.7355">
        <ele>1886.1</ele>
        <time>2021-08-12T13:07:19Z</time>
      </trkpt>
      <trkpt lat="45.52291" lon="6.73549">
        <ele>1886</ele>
        <time>2021-08-12T13:07:20Z</time>
      </trkpt>
      <trkpt lat="45.5229" lon="6.73548">
        <ele>1885.9</ele>
        <time>2021-08-12T13:07:21Z</time>
      </trkpt>
      <trkpt lat="45.5229" lon="6.73547">
        <ele>1885.7</ele>
        <time>2021-08-12T13:07:22Z</time>
      </trkpt>
      <trkpt lat="45.52289" lon="6.73546">
        <ele>1885.6</ele>
        <time>2021-08-12T13:07:23Z</time>
      </trkpt>
      <trkpt lat="45.52288" lon="6.73546">
        <ele>1885.5</ele>
        <time>2021-08-12T13:07:24Z</time>
      </trkpt>
      <trkpt lat="45.52287" lon="6.73545">
        <ele>1885.4</ele>
        <time>2021-08-12T13:07:25Z</time>
      </trkpt>
      <trkpt lat="45.52287" lon="6.73544">
        <ele>1885.3</ele>
        <time>2021-08-12T13:07:26Z</time>
      </trkpt>
      <trkpt lat="45.52286" lon="6.73543">
        <ele>1885.2</ele>
        <time>2021-08-12T13:07:27Z</time>
      </trkpt>
      <trkpt lat="45.52286" lon="6.73542">
        <ele>1885.1</ele>
        <time>2021-08-12T13:07:28Z</time>
      </trkpt>
      <trkpt lat="45.52285" lon="6.73542">
        <ele>1885</ele>
        <time>2021-08-12T13:07:29Z</time>
      </trkpt>
      <trkpt lat="45.52285" lon="6.73541">
        <ele>1884.9</ele>
        <time>2021-08-12T13:07:30Z</time>
      </trkpt>
      <trkpt lat="45.52285" lon="6.7354">
        <ele>1884.9</ele>
        <time>2021-08-12T13:07:31Z</time>
      </trkpt>
      <trkpt lat="45.52284" lon="6.7354">
        <ele>1884.8</ele>
        <time>2021-08-12T13:07:32Z</time>
      </trkpt>
      <trkpt lat="45.52284" lon="6.7354">
        <ele>1884.8</ele>
        <time>2021-08-12T13:07:33Z</time>
      </trkpt>
      <trkpt lat="45.52284" lon="6.7354">
        <ele>1884.8</ele>
        <time>2021-08-12T13:07:34Z</time>
      </trkpt>
      <trkpt lat="45.52284" lon="6.7354">
        <ele>1884.8</ele>
        <time>2021-08-12T13:07:35Z</time>
      </trkpt>
      <trkpt lat="45.52284" lon="6.7354">
        <ele>1884.8</ele>
        <time>2021-08-12T13:07:36Z</time>
      </trkpt>
      <trkpt lat="45.52284" lon="6.7354">
        <ele>1884.8</ele>
        <time>2021-08-12T13:07:37Z</time>
      </trkpt>
      <trkpt lat="45.52284" lon="6.7354">
        <ele>1884.8</ele>
        <time>2021-08-12T13:07:38Z</time>
      </trkpt>
      <trkpt lat="45.52284" lon="6.7354">
        <ele>1884.7</ele>
        <time>2021-08-12T13:07:39Z</time>
      </trkpt>
      <trkpt lat="45.52284" lon="6.7354">
        <ele>1884.7</ele>
        <time>2021-08-12T13:07:40Z</time>
      </trkpt>
      <trkpt lat="45.52283" lon="6.7354">
        <ele>1884.7</ele>
        <time>2021-08-12T13:07:41Z</time>
      </trkpt>
      <trkpt lat="45.52283" lon="6.73539">
        <ele>1884.6</ele>
        <time>2021-08-12T13:07:42Z</time>
      </trkpt>
      <trkpt lat="45.52282" lon="6.73539">
        <ele>1884.5</ele>
        <time>2021-08-12T13:07:43Z</time>
      </trkpt>
      <trkpt lat="45.52282" lon="6.73539">
        <ele>1884.5</ele>
        <time>2021-08-12T13:07:44Z</time>
      </trkpt>
      <trkpt lat="45.52281" lon="6.73538">
        <ele>1884.4</ele>
        <time>2021-08-12T13:07:45Z</time>
      </trkpt>
      <trkpt lat="45.5228" lon="6.73538">
        <ele>1884.3</ele>
        <time>2021-08-12T13:07:46Z</time>
      </trkpt>
      <trkpt lat="45.5228" lon="6.73537">
        <ele>1884.2</ele>
        <time>2021-08-12T13:07:47Z</time>
      </trkpt>
      <trkpt lat="45.52279" lon="6.73537">
        <ele>1884.1</ele>
        <time>2021-08-12T13:07:48Z</time>
      </trkpt>
      <trkpt lat="45.52278" lon="6.73536">
        <ele>1883.9</ele>
        <time>2021-08-12T13:07:49Z</time>
      </trkpt>
      <trkpt lat="45.52277" lon="6.73535">
        <ele>1883.8</ele>
        <time>2021-08-12T13:07:50Z</time>
      </trkpt>
      <trkpt lat="45.52277" lon="6.73534">
        <ele>1883.7</ele>
        <time>2021-08-12T13:07:51Z</time>
      </trkpt>
      <trkpt lat="45.52276" lon="6.73534">
        <ele>1883.6</ele>
        <time>2021-08-12T13:07:52Z</time>
      </trkpt>
      <trkpt lat="45.52275" lon="6.73533">
        <ele>1883.5</ele>
        <time>2021-08-12T13:07:53Z</time>
      </trkpt>
      <trkpt lat="45.52275" lon="6.73532">
        <ele>1883.4</ele>
        <time>2021-08-12T13:07:54Z</time>
      </trkpt>
      <trkpt lat="45.52274" lon="6.73532">
        <ele>1883.3</ele>
        <time>2021-08-12T13:07:55Z</time>
      </trkpt>
      <trkpt lat="45.52274" lon="6.73531">
        <ele>1883.2</ele>
        <time>2021-08-12T13:07:56Z</time>
      </trkpt>
      <trkpt lat="45.52273" lon="6.73531">
        <ele>1883.2</ele>
        <time>2021-08-12T13:07:57Z</time>
      </trkpt>
      <trkpt lat="45.52273" lon="6.73531">
        <ele>1883.1</ele>
        <time>2021-08-12T13:07:58Z</time>
      </trkpt>
      <trkpt lat="45.52273" lon="6.7353">
        <ele>1883.1</ele>
        <time>2021-08-12T13:07:59Z</time>
      </trkpt>
      <trkpt lat="45.52272" lon="6.7353">
        <ele>1883</ele>
        <time>2021-08-12T13:08:00Z</time>
      </trkpt>
      <trkpt lat="45.52272" lon="6.7353">
        <ele>1883</ele>
        <time>2021-08-12T13:08:01Z</time>
      </trkpt>
      <trkpt lat="45.52271" lon="6.7353">
        <ele>1882.9</ele>
        <time>2021-08-12T13:08:02Z</time>
      </trkpt>
      <trkpt lat="45.52271" lon="6.73529">
        <ele>1882.9</ele>
        <time>2021-08-12T13:08:03Z</time>
      </trkpt>
      <trkpt lat="45.5227" lon="6.73529">
        <ele>1882.8</ele>
        <time>2021-08-12T13:08:04Z</time>
      </trkpt>
      <trkpt lat="45.5227" lon="6.73529">
        <ele>1882.7</ele>
        <time>2021-08-12T13:08:05Z</time>
      </trkpt>
      <trkpt lat="45.52269" lon="6.73528">
        <ele>1882.6</ele>
        <time>2021-08-12T13:08:06Z</time>
      </trkpt>
      <trkpt lat="45.52268" lon="6.73528">
        <ele>1882.5</ele>
        <time>2021-08-12T13:08:07Z</time>
      </trkpt>
      <trkpt lat="45.52267" lon="6.73528">
        <ele>1882.4</ele>
        <time>2021-08-12T13:08:08Z</time>
      </trkpt>
      <trkpt lat="45.52267" lon="6.73527">
        <ele>1882.3</ele>
        <time>2021-08-12T13:08:09Z</time>
      </trkpt>
      <trkpt lat="45.52266" lon="6.73527">
        <ele>1882.2</ele>
        <time>2021-08-12T13:08:10Z</time>
      </trkpt>
      <trkpt lat="45.52265" lon="6.73526">
        <ele>1882.1</ele>
        <time>2021-08-12T13:08:11Z</time>
      </trkpt>
      <trkpt lat="45.52264" lon="6.73526">
        <ele>1882</ele>
        <time>2021-08-12T13:08:12Z</time>
      </trkpt>
      <trkpt lat="45.52263" lon="6.73525">
        <ele>1881.9</ele>
        <time>2021-08-12T13:08:13Z</time>
      </trkpt>
      <trkpt lat="45.52263" lon="6.73525">
        <ele>1881.7</ele>
        <time>2021-08-12T13:08:14Z</time>
      </trkpt>
      <trkpt lat="45.52262" lon="6.73524">
        <ele>1881.6</ele>
        <time>2021-08-12T13:08:15Z</time>
      </trkpt>
      <trkpt lat="45.52261" lon="6.73524">
        <ele>1881.5</ele>
        <time>2021-08-12T13:08:16Z</time>
      </trkpt>
      <trkpt lat="45.5226" lon="6.73523">
        <ele>1881.4</ele>
        <time>2021-08-12T13:08:17Z</time>
      </trkpt>
      <trkpt lat="45.52259" lon="6.73523">
        <ele>1881.3</ele>
        <time>2021-08-12T13:08:18Z</time>
      </trkpt>
      <trkpt lat="45.52258" lon="6.73522">
        <ele>1881.2</ele>
        <time>2021-08-12T13:08:19Z</time>
      </trkpt>
      <trkpt lat="45.52258" lon="6.73522">
        <ele>1881.1</ele>
        <time>2021-08-12T13:08:20Z</time>
      </trkpt>
      <trkpt lat="45.52257" lon="6.73521">
        <ele>1881</ele>
        <time>2021-08-12T13:08:21Z</time>
      </trkpt>
      <trkpt lat="45.52256" lon="6.73521">
        <ele>1880.9</ele>
        <time>2021-08-12T13:08:22Z</time>
      </trkpt>
      <trkpt lat="45.52256" lon="6.7352">
        <ele>1880.8</ele>
        <time>2021-08-12T13:08:23Z</time>
      </trkpt>
      <trkpt lat="45.52255" lon="6.7352">
        <ele>1880.7</ele>
        <time>2021-08-12T13:08:24Z</time>
      </trkpt>
      <trkpt lat="45.52254" lon="6.7352">
        <ele>1880.6</ele>
        <time>2021-08-12T13:08:25Z</time>
      </trkpt>
      <trkpt lat="45.52254" lon="6.73519">
        <ele>1880.5</ele>
        <time>2021-08-12T13:08:26Z</time>
      </trkpt>
      <trkpt lat="45.52253" lon="6.73519">
        <ele>1880.4</ele>
        <time>2021-08-12T13:08:27Z</time>
      </trkpt>
      <trkpt lat="45.52252" lon="6.73518">
        <ele>1880.3</ele>
        <time>2021-08-12T13:08:28Z</time>
      </trkpt>
      <trkpt lat="45.52252" lon="6.73518">
        <ele>1880.3</ele>
        <time>2021-08-12T13:08:29Z</time>
      </trkpt>
      <trkpt lat="45.52251" lon="6.73518">
        <ele>1880.2</ele>
        <time>2021-08-12T13:08:30Z</time>
      </trkpt>
      <trkpt lat="45.5225" lon="6.73518">
        <ele>1880.1</ele>
        <time>2021-08-12T13:08:31Z</time>
      </trkpt>
      <trkpt lat="45.5225" lon="6.73517">
        <ele>1880</ele>
        <time>2021-08-12T13:08:32Z</time>
      </trkpt>
      <trkpt lat="45.52249" lon="6.73517">
        <ele>1879.9</ele>
        <time>2021-08-12T13:08:33Z</time>
      </trkpt>
      <trkpt lat="45.52248" lon="6.73517">
        <ele>1879.8</ele>
        <time>2021-08-12T13:08:34Z</time>
      </trkpt>
      <trkpt lat="45.52248" lon="6.73517">
        <ele>1879.8</ele>
        <time>2021-08-12T13:08:35Z</time>
      </trkpt>
      <trkpt lat="45.52247" lon="6.73517">
        <ele>1879.7</ele>
        <time>2021-08-12T13:08:36Z</time>
      </trkpt>
      <trkpt lat="45.52246" lon="6.73517">
        <ele>1879.6</ele>
        <time>2021-08-12T13:08:37Z</time>
      </trkpt>
      <trkpt lat="45.52246" lon="6.73517">
        <ele>1879.5</ele>
        <time>2021-08-12T13:08:38Z</time>
      </trkpt>
      <trkpt lat="45.52245" lon="6.73517">
        <ele>1879.4</ele>
        <time>2021-08-12T13:08:39Z</time>
      </trkpt>
      <trkpt lat="45.52244" lon="6.73517">
        <ele>1879.3</ele>
        <time>2021-08-12T13:08:40Z</time>
      </trkpt>
      <trkpt lat="45.52243" lon="6.73517">
        <ele>1879.2</ele>
        <time>2021-08-12T13:08:41Z</time>
      </trkpt>
      <trkpt lat="45.52242" lon="6.73517">
        <ele>1879</ele>
        <time>2021-08-12T13:08:42Z</time>
      </trkpt>
      <trkpt lat="45.52241" lon="6.73518">
        <ele>1878.9</ele>
        <time>2021-08-12T13:08:43Z</time>
      </trkpt>
      <trkpt lat="45.5224" lon="6.73518">
        <ele>1878.8</ele>
        <time>2021-08-12T13:08:44Z</time>
      </trkpt>
      <trkpt lat="45.52239" lon="6.73518">
        <ele>1878.7</ele>
        <time>2021-08-12T13:08:45Z</time>
      </trkpt>
      <trkpt lat="45.52239" lon="6.73518">
        <ele>1878.6</ele>
        <time>2021-08-12T13:08:46Z</time>
      </trkpt>
      <trkpt lat="45.52238" lon="6.73519">
        <ele>1878.5</ele>
        <time>2021-08-12T13:08:47Z</time>
      </trkpt>
      <trkpt lat="45.52237" lon="6.73519">
        <ele>1878.3</ele>
        <time>2021-08-12T13:08:48Z</time>
      </trkpt>
      <trkpt lat="45.52236" lon="6.7352">
        <ele>1878.2</ele>
        <time>2021-08-12T13:08:49Z</time>
      </trkpt>
      <trkpt lat="45.52235" lon="6.7352">
        <ele>1878.1</ele>
        <time>2021-08-12T13:08:50Z</time>
      </trkpt>
      <trkpt lat="45.52234" lon="6.7352">
        <ele>1878</ele>
        <time>2021-08-12T13:08:51Z</time>
      </trkpt>
      <trkpt lat="45.52233" lon="6.73521">
        <ele>1877.9</ele>
        <time>2021-08-12T13:08:52Z</time>
      </trkpt>
      <trkpt lat="45.52233" lon="6.73521">
        <ele>1877.8</ele>
        <time>2021-08-12T13:08:53Z</time>
      </trkpt>
      <trkpt lat="45.52232" lon="6.73522">
        <ele>1877.7</ele>
        <time>2021-08-12T13:08:54Z</time>
      </trkpt>
      <trkpt lat="45.52231" lon="6.73522">
        <ele>1877.6</ele>
        <time>2021-08-12T13:08:55Z</time>
      </trkpt>
      <trkpt lat="45.5223" lon="6.73522">
        <ele>1877.5</ele>
        <time>2021-08-12T13:08:56Z</time>
      </trkpt>
      <trkpt lat="45.5223" lon="6.73523">
        <ele>1877.4</ele>
        <time>2021-08-12T13:08:57Z</time>
      </trkpt>
      <trkpt lat="45.52229" lon="6.73523">
        <ele>1877.3</ele>
        <time>2021-08-12T13:08:58Z</time>
      </trkpt>
      <trkpt lat="45.52228" lon="6.73524">
        <ele>1877.2</ele>
        <time>2021-08-12T13:08:59Z</time>
      </trkpt>
      <trkpt lat="45.52227" lon="6.73524">
        <ele>1877.1</ele>
        <time>2021-08-12T13:09:00Z</time>
      </trkpt>
      <trkpt lat="45.52227" lon="6.73525">
        <ele>1877</ele>
        <time>2021-08-12T13:09:01Z</time>
      </trkpt>
      <trkpt lat="45.52226" lon="6.73525">
        <ele>1876.9</ele>
        <time>2021-08-12T13:09:02Z</time>
      </trkpt>
      <trkpt lat="45.52225" lon="6.73526">
        <ele>1876.8</ele>
        <time>2021-08-12T13:09:03Z</time>
      </trkpt>
      <trkpt lat="45.52224" lon="6.73527">
        <ele>1876.7</ele>
        <time>2021-08-12T13:09:04Z</time>
      </trkpt>
      <trkpt lat="45.52224" lon="6.73527">
        <ele>1876.6</ele>
        <time>2021-08-12T13:09:05Z</time>
      </trkpt>
      <trkpt lat="45.52223" lon="6.73528">
        <ele>1876.4</ele>
        <time>2021-08-12T13:09:06Z</time>
      </trkpt>
      <trkpt lat="45.52222" lon="6.73528">
        <ele>1876.3</ele>
        <time>2021-08-12T13:09:07Z</time>
      </trkpt>
      <trkpt lat="45.52221" lon="6.73529">
        <ele>1876.2</ele>
        <time>2021-08-12T13:09:08Z</time>
      </trkpt>
      <trkpt lat="45.52221" lon="6.7353">
        <ele>1876.1</ele>
        <time>2021-08-12T13:09:09Z</time>
      </trkpt>
      <trkpt lat="45.5222" lon="6.7353">
        <ele>1876</ele>
        <time>2021-08-12T13:09:10Z</time>
      </trkpt>
      <trkpt lat="45.52219" lon="6.73531">
        <ele>1875.9</ele>
        <time>2021-08-12T13:09:11Z</time>
      </trkpt>
      <trkpt lat="45.52218" lon="6.73532">
        <ele>1875.7</ele>
        <time>2021-08-12T13:09:12Z</time>
      </trkpt>
      <trkpt lat="45.52217" lon="6.73532">
        <ele>1875.6</ele>
        <time>2021-08-12T13:09:13Z</time>
      </trkpt>
      <trkpt lat="45.52216" lon="6.73533">
        <ele>1875.5</ele>
        <time>2021-08-12T13:09:14Z</time>
      </trkpt>
      <trkpt lat="45.52216" lon="6.73534">
        <ele>1875.4</ele>
        <time>2021-08-12T13:09:15Z</time>
      </trkpt>
      <trkpt lat="45.52215" lon="6.73535">
        <ele>1875.3</ele>
        <time>2021-08-12T13:09:16Z</time>
      </trkpt>
      <trkpt lat="45.52214" lon="6.73535">
        <ele>1875.1</ele>
        <time>2021-08-12T13:09:17Z</time>
      </trkpt>
      <trkpt lat="45.52213" lon="6.73536">
        <ele>1875</ele>
        <time>2021-08-12T13:09:18Z</time>
      </trkpt>
      <trkpt lat="45.52212" lon="6.73536">
        <ele>1874.9</ele>
        <time>2021-08-12T13:09:19Z</time>
      </trkpt>
      <trkpt lat="45.52211" lon="6.73537">
        <ele>1874.8</ele>
        <time>2021-08-12T13:09:20Z</time>
      </trkpt>
      <trkpt lat="45.5221" lon="6.73537">
        <ele>1874.6</ele>
        <time>2021-08-12T13:09:21Z</time>
      </trkpt>
      <trkpt lat="45.52209" lon="6.73538">
        <ele>1874.5</ele>
        <time>2021-08-12T13:09:22Z</time>
      </trkpt>
      <trkpt lat="45.52208" lon="6.73538">
        <ele>1874.4</ele>
        <time>2021-08-12T13:09:23Z</time>
      </trkpt>
      <trkpt lat="45.52207" lon="6.73539">
        <ele>1874.3</ele>
        <time>2021-08-12T13:09:24Z</time>
      </trkpt>
      <trkpt lat="45.52206" lon="6.73539">
        <ele>1874.1</ele>
        <time>2021-08-12T13:09:25Z</time>
      </trkpt>
      <trkpt lat="45.52205" lon="6.7354">
        <ele>1874</ele>
        <time>2021-08-12T13:09:26Z</time>
      </trkpt>
      <trkpt lat="45.52204" lon="6.7354">
        <ele>1873.9</ele>
        <time>2021-08-12T13:09:27Z</time>
      </trkpt>
      <trkpt lat="45.52203" lon="6.73541">
        <ele>1873.7</ele>
        <time>2021-08-12T13:09:28Z</time>
      </trkpt>
      <trkpt lat="45.52202" lon="6.73541">
        <ele>1873.6</ele>
        <time>2021-08-12T13:09:29Z</time>
      </trkpt>
      <trkpt lat="45.52201" lon="6.73542">
        <ele>1873.5</ele>
        <time>2021-08-12T13:09:30Z</time>
      </trkpt>
      <trkpt lat="45.522" lon="6.73542">
        <ele>1873.3</ele>
        <time>2021-08-12T13:09:31Z</time>
      </trkpt>
      <trkpt lat="45.52199" lon="6.73542">
        <ele>1873.2</ele>
        <time>2021-08-12T13:09:32Z</time>
      </trkpt>
      <trkpt lat="45.52198" lon="6.73543">
        <ele>1873.1</ele>
        <time>2021-08-12T13:09:33Z</time>
      </trkpt>
      <trkpt lat="45.52197" lon="6.73543">
        <ele>1872.9</ele>
        <time>2021-08-12T13:09:34Z</time>
      </trkpt>
      <trkpt lat="45.52196" lon="6.73544">
        <ele>1872.8</ele>
        <time>2021-08-12T13:09:35Z</time>
      </trkpt>
      <trkpt lat="45.52195" lon="6.73544">
        <ele>1872.7</ele>
        <time>2021-08-12T13:09:36Z</time>
      </trkpt>
      <trkpt lat="45.52194" lon="6.73544">
        <ele>1872.5</ele>
        <time>2021-08-12T13:09:37Z</time>
      </trkpt>
      <trkpt lat="45.52193" lon="6.73545">
        <ele>1872.4</ele>
        <time>2021-08-12T13:09:38Z</time>
      </trkpt>
      <trkpt lat="45.52192" lon="6.73545">
        <ele>1872.3</ele>
        <time>2021-08-12T13:09:39Z</time>
      </trkpt>
      <trkpt lat="45.52191" lon="6.73545">
        <ele>1872.1</ele>
        <time>2021-08-12T13:09:40Z</time>
      </trkpt>
      <trkpt lat="45.5219" lon="6.73546">
        <ele>1872</ele>
        <time>2021-08-12T13:09:41Z</time>
      </trkpt>
      <trkpt lat="45.52189" lon="6.73546">
        <ele>1871.9</ele>
        <time>2021-08-12T13:09:42Z</time>
      </trkpt>
      <trkpt lat="45.52188" lon="6.73547">
        <ele>1871.8</ele>
        <time>2021-08-12T13:09:43Z</time>
      </trkpt>
      <trkpt lat="45.52187" lon="6.73547">
        <ele>1871.6</ele>
        <time>2021-08-12T13:09:44Z</time>
      </trkpt>
      <trkpt lat="45.52186" lon="6.73547">
        <ele>1871.5</ele>
        <time>2021-08-12T13:09:45Z</time>
      </trkpt>
      <trkpt lat="45.52185" lon="6.73548">
        <ele>1871.4</ele>
        <time>2021-08-12T13:09:46Z</time>
      </trkpt>
      <trkpt lat="45.52184" lon="6.73548">
        <ele>1871.2</ele>
        <time>2021-08-12T13:09:47Z</time>
      </trkpt>
      <trkpt lat="45.52183" lon="6.73548">
        <ele>1871.1</ele>
        <time>2021-08-12T13:09:48Z</time>
      </trkpt>
      <trkpt lat="45.52182" lon="6.73549">
        <ele>1871</ele>
        <time>2021-08-12T13:09:49Z</time>
      </trkpt>
      <trkpt lat="45.52181" lon="6.73549">
        <ele>1870.9</ele>
        <time>2021-08-12T13:09:50Z</time>
      </trkpt>
      <trkpt lat="45.5218" lon="6.73549">
        <ele>1870.8</ele>
        <time>2021-08-12T13:09:51Z</time>
      </trkpt>
      <trkpt lat="45.52179" lon="6.7355">
        <ele>1870.6</ele>
        <time>2021-08-12T13:09:52Z</time>
      </trkpt>
      <trkpt lat="45.52178" lon="6.7355">
        <ele>1870.5</ele>
        <time>2021-08-12T13:09:53Z</time>
      </trkpt>
      <trkpt lat="45.52178" lon="6.7355">
        <ele>1870.4</ele>
        <time>2021-08-12T13:09:54Z</time>
      </trkpt>
      <trkpt lat="45.52177" lon="6.73551">
        <ele>1870.3</ele>
        <time>2021-08-12T13:09:55Z</time>
      </trkpt>
      <trkpt lat="45.52176" lon="6.73551">
        <ele>1870.1</ele>
        <time>2021-08-12T13:09:56Z</time>
      </trkpt>
      <trkpt lat="45.52175" lon="6.73551">
        <ele>1870</ele>
        <time>2021-08-12T13:09:57Z</time>
      </trkpt>
      <trkpt lat="45.52174" lon="6.73552">
        <ele>1869.9</ele>
        <time>2021-08-12T13:09:58Z</time>
      </trkpt>
      <trkpt lat="45.52173" lon="6.73552">
        <ele>1869.8</ele>
        <time>2021-08-12T13:09:59Z</time>
      </trkpt>
      <trkpt lat="45.52172" lon="6.73553">
        <ele>1869.7</ele>
        <time>2021-08-12T13:10:00Z</time>
      </trkpt>
      <trkpt lat="45.52171" lon="6.73553">
        <ele>1869.6</ele>
        <time>2021-08-12T13:10:01Z</time>
      </trkpt>
      <trkpt lat="45.5217" lon="6.73553">
        <ele>1869.5</ele>
        <time>2021-08-12T13:10:02Z</time>
      </trkpt>
      <trkpt lat="45.52169" lon="6.73554">
        <ele>1869.3</ele>
        <time>2021-08-12T13:10:03Z</time>
      </trkpt>
      <trkpt lat="45.52169" lon="6.73554">
        <ele>1869.2</ele>
        <time>2021-08-12T13:10:04Z</time>
      </trkpt>
      <trkpt lat="45.52168" lon="6.73555">
        <ele>1869.1</ele>
        <time>2021-08-12T13:10:05Z</time>
      </trkpt>
      <trkpt lat="45.52167" lon="6.73555">
        <ele>1869</ele>
        <time>2021-08-12T13:10:06Z</time>
      </trkpt>
      <trkpt lat="45.52166" lon="6.73556">
        <ele>1868.9</ele>
        <time>2021-08-12T13:10:07Z</time>
      </trkpt>
      <trkpt lat="45.52165" lon="6.73556">
        <ele>1868.8</ele>
        <time>2021-08-12T13:10:08Z</time>
      </trkpt>
      <trkpt lat="45.52164" lon="6.73557">
        <ele>1868.6</ele>
        <time>2021-08-12T13:10:09Z</time>
      </trkpt>
      <trkpt lat="45.52164" lon="6.73557">
        <ele>1868.5</ele>
        <time>2021-08-12T13:10:10Z</time>
      </trkpt>
      <trkpt lat="45.52163" lon="6.73558">
        <ele>1868.4</ele>
        <time>2021-08-12T13:10:11Z</time>
      </trkpt>
      <trkpt lat="45.52162" lon="6.73558">
        <ele>1868.3</ele>
        <time>2021-08-12T13:10:12Z</time>
      </trkpt>
      <trkpt lat="45.52161" lon="6.73559">
        <ele>1868.2</ele>
        <time>2021-08-12T13:10:13Z</time>
      </trkpt>
      <trkpt lat="45.5216" lon="6.73559">
        <ele>1868.1</ele>
        <time>2021-08-12T13:10:14Z</time>
      </trkpt>
      <trkpt lat="45.5216" lon="6.7356">
        <ele>1868</ele>
        <time>2021-08-12T13:10:15Z</time>
      </trkpt>
      <trkpt lat="45.52159" lon="6.73561">
        <ele>1867.9</ele>
        <time>2021-08-12T13:10:16Z</time>
      </trkpt>
      <trkpt lat="45.52158" lon="6.73561">
        <ele>1867.8</ele>
        <time>2021-08-12T13:10:17Z</time>
      </trkpt>
      <trkpt lat="45.52157" lon="6.73562">
        <ele>1867.6</ele>
        <time>2021-08-12T13:10:18Z</time>
      </trkpt>
      <trkpt lat="45.52156" lon="6.73562">
        <ele>1867.5</ele>
        <time>2021-08-12T13:10:19Z</time>
      </trkpt>
      <trkpt lat="45.52156" lon="6.73563">
        <ele>1867.4</ele>
        <time>2021-08-12T13:10:20Z</time>
      </trkpt>
      <trkpt lat="45.52155" lon="6.73564">
        <ele>1867.3</ele>
        <time>2021-08-12T13:10:21Z</time>
      </trkpt>
      <trkpt lat="45.52154" lon="6.73565">
        <ele>1867.2</ele>
        <time>2021-08-12T13:10:22Z</time>
      </trkpt>
      <trkpt lat="45.52153" lon="6.73565">
        <ele>1867.1</ele>
        <time>2021-08-12T13:10:23Z</time>
      </trkpt>
      <trkpt lat="45.52153" lon="6.73566">
        <ele>1867</ele>
        <time>2021-08-12T13:10:24Z</time>
      </trkpt>
      <trkpt lat="45.52152" lon="6.73567">
        <ele>1866.8</ele>
        <time>2021-08-12T13:10:25Z</time>
      </trkpt>
      <trkpt lat="45.52151" lon="6.73567">
        <ele>1866.7</ele>
        <time>2021-08-12T13:10:26Z</time>
      </trkpt>
      <trkpt lat="45.5215" lon="6.73568">
        <ele>1866.6</ele>
        <time>2021-08-12T13:10:27Z</time>
      </trkpt>
      <trkpt lat="45.52149" lon="6.73569">
        <ele>1866.5</ele>
        <time>2021-08-12T13:10:28Z</time>
      </trkpt>
      <trkpt lat="45.52149" lon="6.7357">
        <ele>1866.4</ele>
        <time>2021-08-12T13:10:29Z</time>
      </trkpt>
      <trkpt lat="45.52148" lon="6.7357">
        <ele>1866.3</ele>
        <time>2021-08-12T13:10:30Z</time>
      </trkpt>
      <trkpt lat="45.52147" lon="6.73571">
        <ele>1866.1</ele>
        <time>2021-08-12T13:10:31Z</time>
      </trkpt>
      <trkpt lat="45.52146" lon="6.73572">
        <ele>1866</ele>
        <time>2021-08-12T13:10:32Z</time>
      </trkpt>
      <trkpt lat="45.52145" lon="6.73572">
        <ele>1865.9</ele>
        <time>2021-08-12T13:10:33Z</time>
      </trkpt>
      <trkpt lat="45.52145" lon="6.73573">
        <ele>1865.8</ele>
        <time>2021-08-12T13:10:34Z</time>
      </trkpt>
      <trkpt lat="45.52144" lon="6.73573">
        <ele>1865.7</ele>
        <time>2021-08-12T13:10:35Z</time>
      </trkpt>
      <trkpt lat="45.52143" lon="6.73574">
        <ele>1865.5</ele>
        <time>2021-08-12T13:10:36Z</time>
      </trkpt>
      <trkpt lat="45.52142" lon="6.73575">
        <ele>1865.4</ele>
        <time>2021-08-12T13:10:37Z</time>
      </trkpt>
      <trkpt lat="45.52141" lon="6.73575">
        <ele>1865.3</ele>
        <time>2021-08-12T13:10:38Z</time>
      </trkpt>
      <trkpt lat="45.5214" lon="6.73576">
        <ele>1865.2</ele>
        <time>2021-08-12T13:10:39Z</time>
      </trkpt>
      <trkpt lat="45.52139" lon="6.73576">
        <ele>1865.1</ele>
        <time>2021-08-12T13:10:40Z</time>
      </trkpt>
      <trkpt lat="45.52138" lon="6.73576">
        <ele>1864.9</ele>
        <time>2021-08-12T13:10:41Z</time>
      </trkpt>
      <trkpt lat="45.52137" lon="6.73577">
        <ele>1864.8</ele>
        <time>2021-08-12T13:10:42Z</time>
      </trkpt>
      <trkpt lat="45.52136" lon="6.73577">
        <ele>1864.7</ele>
        <time>2021-08-12T13:10:43Z</time>
      </trkpt>
      <trkpt lat="45.52135" lon="6.73578">
        <ele>1864.6</ele>
        <time>2021-08-12T13:10:44Z</time>
      </trkpt>
      <trkpt lat="45.52134" lon="6.73578">
        <ele>1864.4</ele>
        <time>2021-08-12T13:10:45Z</time>
      </trkpt>
      <trkpt lat="45.52133" lon="6.73578">
        <ele>1864.3</ele>
        <time>2021-08-12T13:10:46Z</time>
      </trkpt>
      <trkpt lat="45.52132" lon="6.73579">
        <ele>1864.2</ele>
        <time>2021-08-12T13:10:47Z</time>
      </trkpt>
      <trkpt lat="45.52132" lon="6.73579">
        <ele>1864.1</ele>
        <time>2021-08-12T13:10:48Z</time>
      </trkpt>
      <trkpt lat="45.52131" lon="6.73579">
        <ele>1863.9</ele>
        <time>2021-08-12T13:10:49Z</time>
      </trkpt>
      <trkpt lat="45.5213" lon="6.73579">
        <ele>1863.8</ele>
        <time>2021-08-12T13:10:50Z</time>
      </trkpt>
      <trkpt lat="45.52129" lon="6.73579">
        <ele>1863.7</ele>
        <time>2021-08-12T13:10:51Z</time>
      </trkpt>
      <trkpt lat="45.52128" lon="6.7358">
        <ele>1863.6</ele>
        <time>2021-08-12T13:10:52Z</time>
      </trkpt>
      <trkpt lat="45.52126" lon="6.7358">
        <ele>1863.4</ele>
        <time>2021-08-12T13:10:53Z</time>
      </trkpt>
      <trkpt lat="45.52125" lon="6.7358">
        <ele>1863.3</ele>
        <time>2021-08-12T13:10:54Z</time>
      </trkpt>
      <trkpt lat="45.52124" lon="6.7358">
        <ele>1863.2</ele>
        <time>2021-08-12T13:10:55Z</time>
      </trkpt>
      <trkpt lat="45.52123" lon="6.7358">
        <ele>1863</ele>
        <time>2021-08-12T13:10:56Z</time>
      </trkpt>
      <trkpt lat="45.52122" lon="6.7358">
        <ele>1862.9</ele>
        <time>2021-08-12T13:10:57Z</time>
      </trkpt>
      <trkpt lat="45.52121" lon="6.7358">
        <ele>1862.8</ele>
        <time>2021-08-12T13:10:58Z</time>
      </trkpt>
      <trkpt lat="45.5212" lon="6.7358">
        <ele>1862.7</ele>
        <time>2021-08-12T13:10:59Z</time>
      </trkpt>
      <trkpt lat="45.52119" lon="6.7358">
        <ele>1862.5</ele>
        <time>2021-08-12T13:11:00Z</time>
      </trkpt>
      <trkpt lat="45.52118" lon="6.7358">
        <ele>1862.4</ele>
        <time>2021-08-12T13:11:01Z</time>
      </trkpt>
      <trkpt lat="45.52117" lon="6.7358">
        <ele>1862.3</ele>
        <time>2021-08-12T13:11:02Z</time>
      </trkpt>
      <trkpt lat="45.52116" lon="6.7358">
        <ele>1862.2</ele>
        <time>2021-08-12T13:11:03Z</time>
      </trkpt>
      <trkpt lat="45.52115" lon="6.7358">
        <ele>1862</ele>
        <time>2021-08-12T13:11:04Z</time>
      </trkpt>
      <trkpt lat="45.52114" lon="6.73579">
        <ele>1861.9</ele>
        <time>2021-08-12T13:11:05Z</time>
      </trkpt>
      <trkpt lat="45.52113" lon="6.73579">
        <ele>1861.8</ele>
        <time>2021-08-12T13:11:06Z</time>
      </trkpt>
      <trkpt lat="45.52113" lon="6.73579">
        <ele>1861.7</ele>
        <time>2021-08-12T13:11:07Z</time>
      </trkpt>
      <trkpt lat="45.52112" lon="6.73579">
        <ele>1861.5</ele>
        <time>2021-08-12T13:11:08Z</time>
      </trkpt>
      <trkpt lat="45.52111" lon="6.73578">
        <ele>1861.4</ele>
        <time>2021-08-12T13:11:09Z</time>
      </trkpt>
      <trkpt lat="45.5211" lon="6.73578">
        <ele>1861.3</ele>
        <time>2021-08-12T13:11:10Z</time>
      </trkpt>
      <trkpt lat="45.52109" lon="6.73578">
        <ele>1861.2</ele>
        <time>2021-08-12T13:11:11Z</time>
      </trkpt>
      <trkpt lat="45.52108" lon="6.73577">
        <ele>1861.1</ele>
        <time>2021-08-12T13:11:12Z</time>
      </trkpt>
      <trkpt lat="45.52107" lon="6.73577">
        <ele>1860.9</ele>
        <time>2021-08-12T13:11:13Z</time>
      </trkpt>
      <trkpt lat="45.52106" lon="6.73577">
        <ele>1860.8</ele>
        <time>2021-08-12T13:11:14Z</time>
      </trkpt>
      <trkpt lat="45.52105" lon="6.73576">
        <ele>1860.7</ele>
        <time>2021-08-12T13:11:15Z</time>
      </trkpt>
      <trkpt lat="45.52104" lon="6.73576">
        <ele>1860.6</ele>
        <time>2021-08-12T13:11:16Z</time>
      </trkpt>
      <trkpt lat="45.52103" lon="6.73575">
        <ele>1860.5</ele>
        <time>2021-08-12T13:11:17Z</time>
      </trkpt>
      <trkpt lat="45.52103" lon="6.73575">
        <ele>1860.4</ele>
        <time>2021-08-12T13:11:18Z</time>
      </trkpt>
      <trkpt lat="45.52102" lon="6.73574">
        <ele>1860.3</ele>
        <time>2021-08-12T13:11:19Z</time>
      </trkpt>
      <trkpt lat="45.52101" lon="6.73574">
        <ele>1860.2</ele>
        <time>2021-08-12T13:11:20Z</time>
      </trkpt>
      <trkpt lat="45.521" lon="6.73573">
        <ele>1860</ele>
        <time>2021-08-12T13:11:21Z</time>
      </trkpt>
      <trkpt lat="45.52099" lon="6.73573">
        <ele>1859.9</ele>
        <time>2021-08-12T13:11:22Z</time>
      </trkpt>
      <trkpt lat="45.52099" lon="6.73572">
        <ele>1859.8</ele>
        <time>2021-08-12T13:11:23Z</time>
      </trkpt>
      <trkpt lat="45.52098" lon="6.73572">
        <ele>1859.7</ele>
        <time>2021-08-12T13:11:24Z</time>
      </trkpt>
      <trkpt lat="45.52097" lon="6.73571">
        <ele>1859.6</ele>
        <time>2021-08-12T13:11:25Z</time>
      </trkpt>
      <trkpt lat="45.52096" lon="6.73571">
        <ele>1859.5</ele>
        <time>2021-08-12T13:11:26Z</time>
      </trkpt>
      <trkpt lat="45.52096" lon="6.7357">
        <ele>1859.4</ele>
        <time>2021-08-12T13:11:27Z</time>
      </trkpt>
      <trkpt lat="45.52095" lon="6.7357">
        <ele>1859.3</ele>
        <time>2021-08-12T13:11:28Z</time>
      </trkpt>
      <trkpt lat="45.52094" lon="6.7357">
        <ele>1859.2</ele>
        <time>2021-08-12T13:11:29Z</time>
      </trkpt>
      <trkpt lat="45.52093" lon="6.7357">
        <ele>1859.1</ele>
        <time>2021-08-12T13:11:30Z</time>
      </trkpt>
      <trkpt lat="45.52092" lon="6.73569">
        <ele>1859</ele>
        <time>2021-08-12T13:11:31Z</time>
      </trkpt>
      <trkpt lat="45.52092" lon="6.73569">
        <ele>1858.9</ele>
        <time>2021-08-12T13:11:32Z</time>
      </trkpt>
      <trkpt lat="45.52091" lon="6.73569">
        <ele>1858.8</ele>
        <time>2021-08-12T13:11:33Z</time>
      </trkpt>
      <trkpt lat="45.5209" lon="6.73569">
        <ele>1858.7</ele>
        <time>2021-08-12T13:11:34Z</time>
      </trkpt>
      <trkpt lat="45.52089" lon="6.73569">
        <ele>1858.6</ele>
        <time>2021-08-12T13:11:35Z</time>
      </trkpt>
      <trkpt lat="45.52089" lon="6.73569">
        <ele>1858.5</ele>
        <time>2021-08-12T13:11:36Z</time>
      </trkpt>
      <trkpt lat="45.52088" lon="6.7357">
        <ele>1858.4</ele>
        <time>2021-08-12T13:11:37Z</time>
      </trkpt>
      <trkpt lat="45.52087" lon="6.7357">
        <ele>1858.3</ele>
        <time>2021-08-12T13:11:38Z</time>
      </trkpt>
      <trkpt lat="45.52086" lon="6.7357">
        <ele>1858.2</ele>
        <time>2021-08-12T13:11:39Z</time>
      </trkpt>
      <trkpt lat="45.52085" lon="6.73571">
        <ele>1858.1</ele>
        <time>2021-08-12T13:11:40Z</time>
      </trkpt>
      <trkpt lat="45.52085" lon="6.73571">
        <ele>1858</ele>
        <time>2021-08-12T13:11:41Z</time>
      </trkpt>
      <trkpt lat="45.52084" lon="6.73572">
        <ele>1857.9</ele>
        <time>2021-08-12T13:11:42Z</time>
      </trkpt>
      <trkpt lat="45.52083" lon="6.73572">
        <ele>1857.8</ele>
        <time>2021-08-12T13:11:43Z</time>
      </trkpt>
      <trkpt lat="45.52082" lon="6.73572">
        <ele>1857.7</ele>
        <time>2021-08-12T13:11:44Z</time>
      </trkpt>
      <trkpt lat="45.52081" lon="6.73573">
        <ele>1857.6</ele>
        <time>2021-08-12T13:11:45Z</time>
      </trkpt>
      <trkpt lat="45.52081" lon="6.73573">
        <ele>1857.5</ele>
        <time>2021-08-12T13:11:46Z</time>
      </trkpt>
      <trkpt lat="45.5208" lon="6.73574">
        <ele>1857.3</ele>
        <time>2021-08-12T13:11:47Z</time>
      </trkpt>
      <trkpt lat="45.52079" lon="6.73574">
        <ele>1857.2</ele>
        <time>2021-08-12T13:11:48Z</time>
      </trkpt>
      <trkpt lat="45.52078" lon="6.73575">
        <ele>1857.1</ele>
        <time>2021-08-12T13:11:49Z</time>
      </trkpt>
      <trkpt lat="45.52077" lon="6.73575">
        <ele>1857</ele>
        <time>2021-08-12T13:11:50Z</time>
      </trkpt>
      <trkpt lat="45.52076" lon="6.73575">
        <ele>1856.9</ele>
        <time>2021-08-12T13:11:51Z</time>
      </trkpt>
      <trkpt lat="45.52075" lon="6.73576">
        <ele>1856.8</ele>
        <time>2021-08-12T13:11:52Z</time>
      </trkpt>
      <trkpt lat="45.52075" lon="6.73576">
        <ele>1856.7</ele>
        <time>2021-08-12T13:11:53Z</time>
      </trkpt>
      <trkpt lat="45.52074" lon="6.73576">
        <ele>1856.6</ele>
        <time>2021-08-12T13:11:54Z</time>
      </trkpt>
      <trkpt lat="45.52073" lon="6.73576">
        <ele>1856.5</ele>
        <time>2021-08-12T13:11:55Z</time>
      </trkpt>
      <trkpt lat="45.52072" lon="6.73576">
        <ele>1856.3</ele>
        <time>2021-08-12T13:11:56Z</time>
      </trkpt>
      <trkpt lat="45.52071" lon="6.73576">
        <ele>1856.2</ele>
        <time>2021-08-12T13:11:57Z</time>
      </trkpt>
      <trkpt lat="45.5207" lon="6.73576">
        <ele>1856.1</ele>
        <time>2021-08-12T13:11:58Z</time>
      </trkpt>
      <trkpt lat="45.52069" lon="6.73576">
        <ele>1856</ele>
        <time>2021-08-12T13:11:59Z</time>
      </trkpt>
      <trkpt lat="45.52069" lon="6.73576">
        <ele>1855.9</ele>
        <time>2021-08-12T13:12:00Z</time>
      </trkpt>
      <trkpt lat="45.52068" lon="6.73576">
        <ele>1855.8</ele>
        <time>2021-08-12T13:12:01Z</time>
      </trkpt>
      <trkpt lat="45.52067" lon="6.73577">
        <ele>1855.7</ele>
        <time>2021-08-12T13:12:02Z</time>
      </trkpt>
      <trkpt lat="45.52066" lon="6.73577">
        <ele>1855.6</ele>
        <time>2021-08-12T13:12:03Z</time>
      </trkpt>
      <trkpt lat="45.52065" lon="6.73577">
        <ele>1855.5</ele>
        <time>2021-08-12T13:12:04Z</time>
      </trkpt>
      <trkpt lat="45.52064" lon="6.73577">
        <ele>1855.4</ele>
        <time>2021-08-12T13:12:05Z</time>
      </trkpt>
      <trkpt lat="45.52063" lon="6.73578">
        <ele>1855.3</ele>
        <time>2021-08-12T13:12:06Z</time>
      </trkpt>
      <trkpt lat="45.52063" lon="6.73578">
        <ele>1855.1</ele>
        <time>2021-08-12T13:12:07Z</time>
      </trkpt>
      <trkpt lat="45.52062" lon="6.73579">
        <ele>1855</ele>
        <time>2021-08-12T13:12:08Z</time>
      </trkpt>
      <trkpt lat="45.52061" lon="6.73579">
        <ele>1854.9</ele>
        <time>2021-08-12T13:12:09Z</time>
      </trkpt>
      <trkpt lat="45.5206" lon="6.7358">
        <ele>1854.8</ele>
        <time>2021-08-12T13:12:10Z</time>
      </trkpt>
      <trkpt lat="45.52059" lon="6.7358">
        <ele>1854.7</ele>
        <time>2021-08-12T13:12:11Z</time>
      </trkpt>
      <trkpt lat="45.52058" lon="6.73581">
        <ele>1854.6</ele>
        <time>2021-08-12T13:12:12Z</time>
      </trkpt>
      <trkpt lat="45.52058" lon="6.73581">
        <ele>1854.5</ele>
        <time>2021-08-12T13:12:13Z</time>
      </trkpt>
      <trkpt lat="45.52057" lon="6.73582">
        <ele>1854.3</ele>
        <time>2021-08-12T13:12:14Z</time>
      </trkpt>
      <trkpt lat="45.52056" lon="6.73582">
        <ele>1854.2</ele>
        <time>2021-08-12T13:12:15Z</time>
      </trkpt>
      <trkpt lat="45.52055" lon="6.73582">
        <ele>1854.1</ele>
        <time>2021-08-12T13:12:16Z</time>
      </trkpt>
      <trkpt lat="45.52054" lon="6.73582">
        <ele>1854</ele>
        <time>2021-08-12T13:12:17Z</time>
      </trkpt>
      <trkpt lat="45.52053" lon="6.73582">
        <ele>1853.9</ele>
        <time>2021-08-12T13:12:18Z</time>
      </trkpt>
      <trkpt lat="45.52052" lon="6.73583">
        <ele>1853.7</ele>
        <time>2021-08-12T13:12:19Z</time>
      </trkpt>
      <trkpt lat="45.52051" lon="6.73583">
        <ele>1853.6</ele>
        <time>2021-08-12T13:12:20Z</time>
      </trkpt>
      <trkpt lat="45.5205" lon="6.73583">
        <ele>1853.5</ele>
        <time>2021-08-12T13:12:21Z</time>
      </trkpt>
      <trkpt lat="45.52049" lon="6.73583">
        <ele>1853.4</ele>
        <time>2021-08-12T13:12:22Z</time>
      </trkpt>
      <trkpt lat="45.52048" lon="6.73583">
        <ele>1853.3</ele>
        <time>2021-08-12T13:12:23Z</time>
      </trkpt>
      <trkpt lat="45.52048" lon="6.73583">
        <ele>1853.2</ele>
        <time>2021-08-12T13:12:24Z</time>
      </trkpt>
      <trkpt lat="45.52047" lon="6.73583">
        <ele>1853.1</ele>
        <time>2021-08-12T13:12:25Z</time>
      </trkpt>
      <trkpt lat="45.52046" lon="6.73583">
        <ele>1853</ele>
        <time>2021-08-12T13:12:26Z</time>
      </trkpt>
      <trkpt lat="45.52045" lon="6.73584">
        <ele>1852.9</ele>
        <time>2021-08-12T13:12:27Z</time>
      </trkpt>
      <trkpt lat="45.52045" lon="6.73584">
        <ele>1852.8</ele>
        <time>2021-08-12T13:12:28Z</time>
      </trkpt>
      <trkpt lat="45.52044" lon="6.73584">
        <ele>1852.7</ele>
        <time>2021-08-12T13:12:29Z</time>
      </trkpt>
      <trkpt lat="45.52043" lon="6.73585">
        <ele>1852.6</ele>
        <time>2021-08-12T13:12:30Z</time>
      </trkpt>
      <trkpt lat="45.52043" lon="6.73585">
        <ele>1852.5</ele>
        <time>2021-08-12T13:12:31Z</time>
      </trkpt>
      <trkpt lat="45.52042" lon="6.73586">
        <ele>1852.4</ele>
        <time>2021-08-12T13:12:32Z</time>
      </trkpt>
      <trkpt lat="45.52041" lon="6.73586">
        <ele>1852.3</ele>
        <time>2021-08-12T13:12:33Z</time>
      </trkpt>
      <trkpt lat="45.5204" lon="6.73587">
        <ele>1852.2</ele>
        <time>2021-08-12T13:12:34Z</time>
      </trkpt>
      <trkpt lat="45.52039" lon="6.73587">
        <ele>1852.1</ele>
        <time>2021-08-12T13:12:35Z</time>
      </trkpt>
      <trkpt lat="45.52039" lon="6.73588">
        <ele>1852</ele>
        <time>2021-08-12T13:12:36Z</time>
      </trkpt>
      <trkpt lat="45.52038" lon="6.73589">
        <ele>1851.9</ele>
        <time>2021-08-12T13:12:37Z</time>
      </trkpt>
      <trkpt lat="45.52037" lon="6.7359">
        <ele>1851.7</ele>
        <time>2021-08-12T13:12:38Z</time>
      </trkpt>
      <trkpt lat="45.52036" lon="6.7359">
        <ele>1851.6</ele>
        <time>2021-08-12T13:12:39Z</time>
      </trkpt>
      <trkpt lat="45.52036" lon="6.73591">
        <ele>1851.5</ele>
        <time>2021-08-12T13:12:40Z</time>
      </trkpt>
      <trkpt lat="45.52035" lon="6.73592">
        <ele>1851.4</ele>
        <time>2021-08-12T13:12:41Z</time>
      </trkpt>
      <trkpt lat="45.52034" lon="6.73593">
        <ele>1851.3</ele>
        <time>2021-08-12T13:12:42Z</time>
      </trkpt>
      <trkpt lat="45.52034" lon="6.73594">
        <ele>1851.2</ele>
        <time>2021-08-12T13:12:43Z</time>
      </trkpt>
      <trkpt lat="45.52034" lon="6.73595">
        <ele>1851.1</ele>
        <time>2021-08-12T13:12:44Z</time>
      </trkpt>
      <trkpt lat="45.52033" lon="6.73596">
        <ele>1851</ele>
        <time>2021-08-12T13:12:45Z</time>
      </trkpt>
      <trkpt lat="45.52033" lon="6.73596">
        <ele>1850.9</ele>
        <time>2021-08-12T13:12:46Z</time>
      </trkpt>
      <trkpt lat="45.52033" lon="6.73597">
        <ele>1850.9</ele>
        <time>2021-08-12T13:12:47Z</time>
      </trkpt>
      <trkpt lat="45.52033" lon="6.73598">
        <ele>1850.8</ele>
        <time>2021-08-12T13:12:48Z</time>
      </trkpt>
      <trkpt lat="45.52033" lon="6.73599">
        <ele>1850.7</ele>
        <time>2021-08-12T13:12:49Z</time>
      </trkpt>
      <trkpt lat="45.52033" lon="6.736">
        <ele>1850.6</ele>
        <time>2021-08-12T13:12:50Z</time>
      </trkpt>
      <trkpt lat="45.52032" lon="6.73601">
        <ele>1850.5</ele>
        <time>2021-08-12T13:12:51Z</time>
      </trkpt>
      <trkpt lat="45.52032" lon="6.73602">
        <ele>1850.5</ele>
        <time>2021-08-12T13:12:52Z</time>
      </trkpt>
      <trkpt lat="45.52032" lon="6.73603">
        <ele>1850.4</ele>
        <time>2021-08-12T13:12:53Z</time>
      </trkpt>
      <trkpt lat="45.52032" lon="6.73604">
        <ele>1850.3</ele>
        <time>2021-08-12T13:12:54Z</time>
      </trkpt>
      <trkpt lat="45.52032" lon="6.73605">
        <ele>1850.2</ele>
        <time>2021-08-12T13:12:55Z</time>
      </trkpt>
      <trkpt lat="45.52032" lon="6.73606">
        <ele>1850.1</ele>
        <time>2021-08-12T13:12:56Z</time>
      </trkpt>
      <trkpt lat="45.52031" lon="6.73607">
        <ele>1850</ele>
        <time>2021-08-12T13:12:57Z</time>
      </trkpt>
      <trkpt lat="45.52031" lon="6.73608">
        <ele>1849.9</ele>
        <time>2021-08-12T13:12:58Z</time>
      </trkpt>
      <trkpt lat="45.52031" lon="6.73609">
        <ele>1849.8</ele>
        <time>2021-08-12T13:12:59Z</time>
      </trkpt>
      <trkpt lat="45.52031" lon="6.73611">
        <ele>1849.7</ele>
        <time>2021-08-12T13:13:00Z</time>
      </trkpt>
      <trkpt lat="45.5203" lon="6.73612">
        <ele>1849.5</ele>
        <time>2021-08-12T13:13:01Z</time>
      </trkpt>
      <trkpt lat="45.5203" lon="6.73613">
        <ele>1849.4</ele>
        <time>2021-08-12T13:13:02Z</time>
      </trkpt>
      <trkpt lat="45.5203" lon="6.73614">
        <ele>1849.3</ele>
        <time>2021-08-12T13:13:03Z</time>
      </trkpt>
      <trkpt lat="45.52029" lon="6.73616">
        <ele>1849.2</ele>
        <time>2021-08-12T13:13:04Z</time>
      </trkpt>
      <trkpt lat="45.52029" lon="6.73617">
        <ele>1849.1</ele>
        <time>2021-08-12T13:13:05Z</time>
      </trkpt>
      <trkpt lat="45.52029" lon="6.73618">
        <ele>1849</ele>
        <time>2021-08-12T13:13:06Z</time>
      </trkpt>
      <trkpt lat="45.52028" lon="6.7362">
        <ele>1848.8</ele>
        <time>2021-08-12T13:13:07Z</time>
      </trkpt>
      <trkpt lat="45.52028" lon="6.73621">
        <ele>1848.7</ele>
        <time>2021-08-12T13:13:08Z</time>
      </trkpt>
      <trkpt lat="45.52028" lon="6.73622">
        <ele>1848.6</ele>
        <time>2021-08-12T13:13:09Z</time>
      </trkpt>
      <trkpt lat="45.52027" lon="6.73624">
        <ele>1848.5</ele>
        <time>2021-08-12T13:13:10Z</time>
      </trkpt>
      <trkpt lat="45.52027" lon="6.73625">
        <ele>1848.3</ele>
        <time>2021-08-12T13:13:11Z</time>
      </trkpt>
      <trkpt lat="45.52027" lon="6.73626">
        <ele>1848.2</ele>
        <time>2021-08-12T13:13:12Z</time>
      </trkpt>
      <trkpt lat="45.52026" lon="6.73628">
        <ele>1848.1</ele>
        <time>2021-08-12T13:13:13Z</time>
      </trkpt>
      <trkpt lat="45.52026" lon="6.73629">
        <ele>1847.9</ele>
        <time>2021-08-12T13:13:14Z</time>
      </trkpt>
      <trkpt lat="45.52026" lon="6.7363">
        <ele>1847.8</ele>
        <time>2021-08-12T13:13:15Z</time>
      </trkpt>
      <trkpt lat="45.52026" lon="6.73632">
        <ele>1847.7</ele>
        <time>2021-08-12T13:13:16Z</time>
      </trkpt>
      <trkpt lat="45.52025" lon="6.73633">
        <ele>1847.6</ele>
        <time>2021-08-12T13:13:17Z</time>
      </trkpt>
      <trkpt lat="45.52025" lon="6.73634">
        <ele>1847.5</ele>
        <time>2021-08-12T13:13:18Z</time>
      </trkpt>
      <trkpt lat="45.52025" lon="6.73636">
        <ele>1847.3</ele>
        <time>2021-08-12T13:13:19Z</time>
      </trkpt>
      <trkpt lat="45.52024" lon="6.73637">
        <ele>1847.2</ele>
        <time>2021-08-12T13:13:20Z</time>
      </trkpt>
      <trkpt lat="45.52024" lon="6.73638">
        <ele>1847.1</ele>
        <time>2021-08-12T13:13:21Z</time>
      </trkpt>
      <trkpt lat="45.52023" lon="6.73639">
        <ele>1847</ele>
        <time>2021-08-12T13:13:22Z</time>
      </trkpt>
      <trkpt lat="45.52023" lon="6.7364">
        <ele>1846.9</ele>
        <time>2021-08-12T13:13:23Z</time>
      </trkpt>
      <trkpt lat="45.52023" lon="6.73641">
        <ele>1846.8</ele>
        <time>2021-08-12T13:13:24Z</time>
      </trkpt>
      <trkpt lat="45.52022" lon="6.73642">
        <ele>1846.7</ele>
        <time>2021-08-12T13:13:25Z</time>
      </trkpt>
      <trkpt lat="45.52022" lon="6.73643">
        <ele>1846.6</ele>
        <time>2021-08-12T13:13:26Z</time>
      </trkpt>
      <trkpt lat="45.52021" lon="6.73644">
        <ele>1846.5</ele>
        <time>2021-08-12T13:13:27Z</time>
      </trkpt>
      <trkpt lat="45.52021" lon="6.73645">
        <ele>1846.4</ele>
        <time>2021-08-12T13:13:28Z</time>
      </trkpt>
      <trkpt lat="45.5202" lon="6.73646">
        <ele>1846.3</ele>
        <time>2021-08-12T13:13:29Z</time>
      </trkpt>
      <trkpt lat="45.5202" lon="6.73647">
        <ele>1846.2</ele>
        <time>2021-08-12T13:13:30Z</time>
      </trkpt>
      <trkpt lat="45.52019" lon="6.73647">
        <ele>1846.1</ele>
        <time>2021-08-12T13:13:31Z</time>
      </trkpt>
      <trkpt lat="45.52018" lon="6.73648">
        <ele>1846</ele>
        <time>2021-08-12T13:13:32Z</time>
      </trkpt>
      <trkpt lat="45.52018" lon="6.73649">
        <ele>1845.9</ele>
        <time>2021-08-12T13:13:33Z</time>
      </trkpt>
      <trkpt lat="45.52017" lon="6.7365">
        <ele>1845.7</ele>
        <time>2021-08-12T13:13:34Z</time>
      </trkpt>
      <trkpt lat="45.52017" lon="6.73651">
        <ele>1845.6</ele>
        <time>2021-08-12T13:13:35Z</time>
      </trkpt>
      <trkpt lat="45.52016" lon="6.73652">
        <ele>1845.5</ele>
        <time>2021-08-12T13:13:36Z</time>
      </trkpt>
      <trkpt lat="45.52016" lon="6.73653">
        <ele>1845.4</ele>
        <time>2021-08-12T13:13:37Z</time>
      </trkpt>
      <trkpt lat="45.52015" lon="6.73654">
        <ele>1845.3</ele>
        <time>2021-08-12T13:13:38Z</time>
      </trkpt>
      <trkpt lat="45.52014" lon="6.73655">
        <ele>1845.2</ele>
        <time>2021-08-12T13:13:39Z</time>
      </trkpt>
      <trkpt lat="45.52014" lon="6.73656">
        <ele>1845.1</ele>
        <time>2021-08-12T13:13:40Z</time>
      </trkpt>
      <trkpt lat="45.52013" lon="6.73657">
        <ele>1845</ele>
        <time>2021-08-12T13:13:41Z</time>
      </trkpt>
      <trkpt lat="45.52013" lon="6.73658">
        <ele>1844.8</ele>
        <time>2021-08-12T13:13:42Z</time>
      </trkpt>
      <trkpt lat="45.52012" lon="6.73659">
        <ele>1844.7</ele>
        <time>2021-08-12T13:13:43Z</time>
      </trkpt>
      <trkpt lat="45.52011" lon="6.7366">
        <ele>1844.6</ele>
        <time>2021-08-12T13:13:44Z</time>
      </trkpt>
      <trkpt lat="45.52011" lon="6.73661">
        <ele>1844.5</ele>
        <time>2021-08-12T13:13:45Z</time>
      </trkpt>
      <trkpt lat="45.5201" lon="6.73662">
        <ele>1844.4</ele>
        <time>2021-08-12T13:13:46Z</time>
      </trkpt>
      <trkpt lat="45.52009" lon="6.73663">
        <ele>1844.3</ele>
        <time>2021-08-12T13:13:47Z</time>
      </trkpt>
      <trkpt lat="45.52009" lon="6.73664">
        <ele>1844.1</ele>
        <time>2021-08-12T13:13:48Z</time>
      </trkpt>
      <trkpt lat="45.52008" lon="6.73665">
        <ele>1844</ele>
        <time>2021-08-12T13:13:49Z</time>
      </trkpt>
      <trkpt lat="45.52007" lon="6.73666">
        <ele>1843.9</ele>
        <time>2021-08-12T13:13:50Z</time>
      </trkpt>
      <trkpt lat="45.52007" lon="6.73666">
        <ele>1843.8</ele>
        <time>2021-08-12T13:13:51Z</time>
      </trkpt>
      <trkpt lat="45.52006" lon="6.73667">
        <ele>1843.7</ele>
        <time>2021-08-12T13:13:52Z</time>
      </trkpt>
      <trkpt lat="45.52005" lon="6.73668">
        <ele>1843.6</ele>
        <time>2021-08-12T13:13:53Z</time>
      </trkpt>
      <trkpt lat="45.52004" lon="6.73669">
        <ele>1843.4</ele>
        <time>2021-08-12T13:13:54Z</time>
      </trkpt>
      <trkpt lat="45.52004" lon="6.7367">
        <ele>1843.3</ele>
        <time>2021-08-12T13:13:55Z</time>
      </trkpt>
      <trkpt lat="45.52003" lon="6.73671">
        <ele>1843.2</ele>
        <time>2021-08-12T13:13:56Z</time>
      </trkpt>
      <trkpt lat="45.52002" lon="6.73671">
        <ele>1843.1</ele>
        <time>2021-08-12T13:13:57Z</time>
      </trkpt>
      <trkpt lat="45.52002" lon="6.73672">
        <ele>1843</ele>
        <time>2021-08-12T13:13:58Z</time>
      </trkpt>
      <trkpt lat="45.52001" lon="6.73673">
        <ele>1842.9</ele>
        <time>2021-08-12T13:13:59Z</time>
      </trkpt>
      <trkpt lat="45.52" lon="6.73674">
        <ele>1842.7</ele>
        <time>2021-08-12T13:14:00Z</time>
      </trkpt>
      <trkpt lat="45.51999" lon="6.73675">
        <ele>1842.6</ele>
        <time>2021-08-12T13:14:01Z</time>
      </trkpt>
      <trkpt lat="45.51998" lon="6.73675">
        <ele>1842.5</ele>
        <time>2021-08-12T13:14:02Z</time>
      </trkpt>
      <trkpt lat="45.51998" lon="6.73676">
        <ele>1842.4</ele>
        <time>2021-08-12T13:14:03Z</time>
      </trkpt>
      <trkpt lat="45.51997" lon="6.73677">
        <ele>1842.3</ele>
        <time>2021-08-12T13:14:04Z</time>
      </trkpt>
      <trkpt lat="45.51996" lon="6.73677">
        <ele>1842.2</ele>
        <time>2021-08-12T13:14:05Z</time>
      </trkpt>
      <trkpt lat="45.51995" lon="6.73678">
        <ele>1842</ele>
        <time>2021-08-12T13:14:06Z</time>
      </trkpt>
      <trkpt lat="45.51995" lon="6.73679">
        <ele>1841.9</ele>
        <time>2021-08-12T13:14:07Z</time>
      </trkpt>
      <trkpt lat="45.51994" lon="6.7368">
        <ele>1841.8</ele>
        <time>2021-08-12T13:14:08Z</time>
      </trkpt>
      <trkpt lat="45.51993" lon="6.7368">
        <ele>1841.7</ele>
        <time>2021-08-12T13:14:09Z</time>
      </trkpt>
      <trkpt lat="45.51992" lon="6.73681">
        <ele>1841.6</ele>
        <time>2021-08-12T13:14:10Z</time>
      </trkpt>
      <trkpt lat="45.51991" lon="6.73682">
        <ele>1841.5</ele>
        <time>2021-08-12T13:14:11Z</time>
      </trkpt>
      <trkpt lat="45.51991" lon="6.73683">
        <ele>1841.3</ele>
        <time>2021-08-12T13:14:12Z</time>
      </trkpt>
      <trkpt lat="45.5199" lon="6.73683">
        <ele>1841.2</ele>
        <time>2021-08-12T13:14:13Z</time>
      </trkpt>
      <trkpt lat="45.51989" lon="6.73684">
        <ele>1841.1</ele>
        <time>2021-08-12T13:14:14Z</time>
      </trkpt>
      <trkpt lat="45.51988" lon="6.73685">
        <ele>1841</ele>
        <time>2021-08-12T13:14:15Z</time>
      </trkpt>
      <trkpt lat="45.51988" lon="6.73685">
        <ele>1840.9</ele>
        <time>2021-08-12T13:14:16Z</time>
      </trkpt>
      <trkpt lat="45.51987" lon="6.73686">
        <ele>1840.8</ele>
        <time>2021-08-12T13:14:17Z</time>
      </trkpt>
      <trkpt lat="45.51986" lon="6.73687">
        <ele>1840.7</ele>
        <time>2021-08-12T13:14:18Z</time>
      </trkpt>
      <trkpt lat="45.51986" lon="6.73687">
        <ele>1840.6</ele>
        <time>2021-08-12T13:14:19Z</time>
      </trkpt>
      <trkpt lat="45.51985" lon="6.73688">
        <ele>1840.5</ele>
        <time>2021-08-12T13:14:20Z</time>
      </trkpt>
      <trkpt lat="45.51985" lon="6.73689">
        <ele>1840.4</ele>
        <time>2021-08-12T13:14:21Z</time>
      </trkpt>
      <trkpt lat="45.51984" lon="6.73689">
        <ele>1840.4</ele>
        <time>2021-08-12T13:14:22Z</time>
      </trkpt>
      <trkpt lat="45.51984" lon="6.7369">
        <ele>1840.3</ele>
        <time>2021-08-12T13:14:23Z</time>
      </trkpt>
      <trkpt lat="45.51983" lon="6.7369">
        <ele>1840.2</ele>
        <time>2021-08-12T13:14:24Z</time>
      </trkpt>
      <trkpt lat="45.51983" lon="6.73691">
        <ele>1840.1</ele>
        <time>2021-08-12T13:14:25Z</time>
      </trkpt>
      <trkpt lat="45.51982" lon="6.73691">
        <ele>1840</ele>
        <time>2021-08-12T13:14:26Z</time>
      </trkpt>
      <trkpt lat="45.51982" lon="6.73692">
        <ele>1840</ele>
        <time>2021-08-12T13:14:27Z</time>
      </trkpt>
      <trkpt lat="45.51981" lon="6.73692">
        <ele>1839.9</ele>
        <time>2021-08-12T13:14:28Z</time>
      </trkpt>
      <trkpt lat="45.5198" lon="6.73693">
        <ele>1839.8</ele>
        <time>2021-08-12T13:14:29Z</time>
      </trkpt>
      <trkpt lat="45.5198" lon="6.73694">
        <ele>1839.7</ele>
        <time>2021-08-12T13:14:30Z</time>
      </trkpt>
      <trkpt lat="45.51979" lon="6.73694">
        <ele>1839.5</ele>
        <time>2021-08-12T13:14:31Z</time>
      </trkpt>
      <trkpt lat="45.51978" lon="6.73695">
        <ele>1839.4</ele>
        <time>2021-08-12T13:14:32Z</time>
      </trkpt>
      <trkpt lat="45.51977" lon="6.73695">
        <ele>1839.3</ele>
        <time>2021-08-12T13:14:33Z</time>
      </trkpt>
      <trkpt lat="45.51976" lon="6.73696">
        <ele>1839.1</ele>
        <time>2021-08-12T13:14:34Z</time>
      </trkpt>
      <trkpt lat="45.51975" lon="6.73697">
        <ele>1839</ele>
        <time>2021-08-12T13:14:35Z</time>
      </trkpt>
      <trkpt lat="45.51974" lon="6.73697">
        <ele>1838.9</ele>
        <time>2021-08-12T13:14:36Z</time>
      </trkpt>
      <trkpt lat="45.51973" lon="6.73698">
        <ele>1838.7</ele>
        <time>2021-08-12T13:14:37Z</time>
      </trkpt>
      <trkpt lat="45.51972" lon="6.73699">
        <ele>1838.6</ele>
        <time>2021-08-12T13:14:38Z</time>
      </trkpt>
      <trkpt lat="45.51971" lon="6.73699">
        <ele>1838.5</ele>
        <time>2021-08-12T13:14:39Z</time>
      </trkpt>
      <trkpt lat="45.51971" lon="6.737">
        <ele>1838.4</ele>
        <time>2021-08-12T13:14:40Z</time>
      </trkpt>
      <trkpt lat="45.5197" lon="6.737">
        <ele>1838.3</ele>
        <time>2021-08-12T13:14:41Z</time>
      </trkpt>
      <trkpt lat="45.51969" lon="6.73701">
        <ele>1838.2</ele>
        <time>2021-08-12T13:14:42Z</time>
      </trkpt>
      <trkpt lat="45.51969" lon="6.73702">
        <ele>1838.1</ele>
        <time>2021-08-12T13:14:43Z</time>
      </trkpt>
      <trkpt lat="45.51969" lon="6.73702">
        <ele>1838</ele>
        <time>2021-08-12T13:14:44Z</time>
      </trkpt>
      <trkpt lat="45.51968" lon="6.73703">
        <ele>1838</ele>
        <time>2021-08-12T13:14:45Z</time>
      </trkpt>
      <trkpt lat="45.51968" lon="6.73704">
        <ele>1837.9</ele>
        <time>2021-08-12T13:14:46Z</time>
      </trkpt>
      <trkpt lat="45.51967" lon="6.73705">
        <ele>1837.8</ele>
        <time>2021-08-12T13:14:47Z</time>
      </trkpt>
      <trkpt lat="45.51967" lon="6.73705">
        <ele>1837.7</ele>
        <time>2021-08-12T13:14:48Z</time>
      </trkpt>
      <trkpt lat="45.51966" lon="6.73706">
        <ele>1837.6</ele>
        <time>2021-08-12T13:14:49Z</time>
      </trkpt>
      <trkpt lat="45.51965" lon="6.73707">
        <ele>1837.5</ele>
        <time>2021-08-12T13:14:50Z</time>
      </trkpt>
      <trkpt lat="45.51964" lon="6.73708">
        <ele>1837.3</ele>
        <time>2021-08-12T13:14:51Z</time>
      </trkpt>
      <trkpt lat="45.51964" lon="6.73708">
        <ele>1837.2</ele>
        <time>2021-08-12T13:14:52Z</time>
      </trkpt>
      <trkpt lat="45.51963" lon="6.73709">
        <ele>1837.1</ele>
        <time>2021-08-12T13:14:53Z</time>
      </trkpt>
      <trkpt lat="45.51962" lon="6.7371">
        <ele>1837</ele>
        <time>2021-08-12T13:14:54Z</time>
      </trkpt>
      <trkpt lat="45.51961" lon="6.73711">
        <ele>1836.8</ele>
        <time>2021-08-12T13:14:55Z</time>
      </trkpt>
      <trkpt lat="45.5196" lon="6.73711">
        <ele>1836.7</ele>
        <time>2021-08-12T13:14:56Z</time>
      </trkpt>
      <trkpt lat="45.51959" lon="6.73712">
        <ele>1836.6</ele>
        <time>2021-08-12T13:14:57Z</time>
      </trkpt>
      <trkpt lat="45.51958" lon="6.73713">
        <ele>1836.4</ele>
        <time>2021-08-12T13:14:58Z</time>
      </trkpt>
      <trkpt lat="45.51957" lon="6.73713">
        <ele>1836.3</ele>
        <time>2021-08-12T13:14:59Z</time>
      </trkpt>
      <trkpt lat="45.51956" lon="6.73714">
        <ele>1836.2</ele>
        <time>2021-08-12T13:15:00Z</time>
      </trkpt>
      <trkpt lat="45.51955" lon="6.73714">
        <ele>1836.1</ele>
        <time>2021-08-12T13:15:01Z</time>
      </trkpt>
      <trkpt lat="45.51955" lon="6.73715">
        <ele>1836</ele>
        <time>2021-08-12T13:15:02Z</time>
      </trkpt>
      <trkpt lat="45.51954" lon="6.73715">
        <ele>1835.9</ele>
        <time>2021-08-12T13:15:03Z</time>
      </trkpt>
      <trkpt lat="45.51953" lon="6.73715">
        <ele>1835.7</ele>
        <time>2021-08-12T13:15:04Z</time>
      </trkpt>
      <trkpt lat="45.51952" lon="6.73716">
        <ele>1835.7</ele>
        <time>2021-08-12T13:15:05Z</time>
      </trkpt>
      <trkpt lat="45.51952" lon="6.73716">
        <ele>1835.6</ele>
        <time>2021-08-12T13:15:06Z</time>
      </trkpt>
      <trkpt lat="45.51951" lon="6.73717">
        <ele>1835.5</ele>
        <time>2021-08-12T13:15:07Z</time>
      </trkpt>
      <trkpt lat="45.5195" lon="6.73717">
        <ele>1835.4</ele>
        <time>2021-08-12T13:15:08Z</time>
      </trkpt>
      <trkpt lat="45.5195" lon="6.73718">
        <ele>1835.3</ele>
        <time>2021-08-12T13:15:09Z</time>
      </trkpt>
      <trkpt lat="45.51949" lon="6.73719">
        <ele>1835.2</ele>
        <time>2021-08-12T13:15:10Z</time>
      </trkpt>
      <trkpt lat="45.51949" lon="6.7372">
        <ele>1835.1</ele>
        <time>2021-08-12T13:15:11Z</time>
      </trkpt>
      <trkpt lat="45.51948" lon="6.73721">
        <ele>1835</ele>
        <time>2021-08-12T13:15:12Z</time>
      </trkpt>
      <trkpt lat="45.51948" lon="6.73721">
        <ele>1834.9</ele>
        <time>2021-08-12T13:15:13Z</time>
      </trkpt>
      <trkpt lat="45.51948" lon="6.73722">
        <ele>1834.8</ele>
        <time>2021-08-12T13:15:14Z</time>
      </trkpt>
      <trkpt lat="45.51948" lon="6.73723">
        <ele>1833.8</ele>
        <time>2021-08-12T13:15:15Z</time>
      </trkpt>
      <trkpt lat="45.51948" lon="6.73724">
        <ele>1833.7</ele>
        <time>2021-08-12T13:15:16Z</time>
      </trkpt>
      <trkpt lat="45.51948" lon="6.73725">
        <ele>1833.7</ele>
        <time>2021-08-12T13:15:17Z</time>
      </trkpt>
      <trkpt lat="45.51949" lon="6.73726">
        <ele>1833.6</ele>
        <time>2021-08-12T13:15:18Z</time>
      </trkpt>
      <trkpt lat="45.51949" lon="6.73727">
        <ele>1833.5</ele>
        <time>2021-08-12T13:15:19Z</time>
      </trkpt>
      <trkpt lat="45.5195" lon="6.73728">
        <ele>1833.5</ele>
        <time>2021-08-12T13:15:20Z</time>
      </trkpt>
      <trkpt lat="45.5195" lon="6.73728">
        <ele>1833.4</ele>
        <time>2021-08-12T13:15:21Z</time>
      </trkpt>
      <trkpt lat="45.51951" lon="6.73729">
        <ele>1833.3</ele>
        <time>2021-08-12T13:15:22Z</time>
      </trkpt>
      <trkpt lat="45.51952" lon="6.7373">
        <ele>1833.2</ele>
        <time>2021-08-12T13:15:23Z</time>
      </trkpt>
      <trkpt lat="45.51952" lon="6.7373">
        <ele>1833.1</ele>
        <time>2021-08-12T13:15:24Z</time>
      </trkpt>
      <trkpt lat="45.51953" lon="6.73731">
        <ele>1833.1</ele>
        <time>2021-08-12T13:15:25Z</time>
      </trkpt>
      <trkpt lat="45.51953" lon="6.73731">
        <ele>1833</ele>
        <time>2021-08-12T13:15:26Z</time>
      </trkpt>
      <trkpt lat="45.51954" lon="6.73732">
        <ele>1833</ele>
        <time>2021-08-12T13:15:27Z</time>
      </trkpt>
      <trkpt lat="45.51954" lon="6.73732">
        <ele>1832.9</ele>
        <time>2021-08-12T13:15:28Z</time>
      </trkpt>
      <trkpt lat="45.51954" lon="6.73732">
        <ele>1832.9</ele>
        <time>2021-08-12T13:15:29Z</time>
      </trkpt>
      <trkpt lat="45.51954" lon="6.73732">
        <ele>1832.9</ele>
        <time>2021-08-12T13:15:30Z</time>
      </trkpt>
      <trkpt lat="45.51954" lon="6.73732">
        <ele>1832.9</ele>
        <time>2021-08-12T13:15:31Z</time>
      </trkpt>
      <trkpt lat="45.51954" lon="6.73732">
        <ele>1832.9</ele>
        <time>2021-08-12T13:15:32Z</time>
      </trkpt>
      <trkpt lat="45.51954" lon="6.73732">
        <ele>1832.9</ele>
        <time>2021-08-12T13:15:33Z</time>
      </trkpt>
      <trkpt lat="45.51954" lon="6.73732">
        <ele>1832.9</ele>
        <time>2021-08-12T13:15:34Z</time>
      </trkpt>
      <trkpt lat="45.51955" lon="6.73732">
        <ele>1832.9</ele>
        <time>2021-08-12T13:15:35Z</time>
      </trkpt>
      <trkpt lat="45.51955" lon="6.73732">
        <ele>1832.8</ele>
        <time>2021-08-12T13:15:36Z</time>
      </trkpt>
      <trkpt lat="45.51955" lon="6.73731">
        <ele>1832.8</ele>
        <time>2021-08-12T13:15:37Z</time>
      </trkpt>
      <trkpt lat="45.51955" lon="6.73731">
        <ele>1832.8</ele>
        <time>2021-08-12T13:15:38Z</time>
      </trkpt>
      <trkpt lat="45.51956" lon="6.73731">
        <ele>1832.7</ele>
        <time>2021-08-12T13:15:39Z</time>
      </trkpt>
      <trkpt lat="45.51957" lon="6.7373">
        <ele>1832.7</ele>
        <time>2021-08-12T13:15:40Z</time>
      </trkpt>
      <trkpt lat="45.51957" lon="6.7373">
        <ele>1832.6</ele>
        <time>2021-08-12T13:15:41Z</time>
      </trkpt>
      <trkpt lat="45.51958" lon="6.7373">
        <ele>1832.5</ele>
        <time>2021-08-12T13:15:42Z</time>
      </trkpt>
      <trkpt lat="45.51959" lon="6.7373">
        <ele>1832.4</ele>
        <time>2021-08-12T13:15:43Z</time>
      </trkpt>
      <trkpt lat="45.5196" lon="6.73729">
        <ele>1832.3</ele>
        <time>2021-08-12T13:15:44Z</time>
      </trkpt>
      <trkpt lat="45.51961" lon="6.73729">
        <ele>1832.3</ele>
        <time>2021-08-12T13:15:45Z</time>
      </trkpt>
      <trkpt lat="45.51962" lon="6.7373">
        <ele>1832.2</ele>
        <time>2021-08-12T13:15:46Z</time>
      </trkpt>
      <trkpt lat="45.51962" lon="6.7373">
        <ele>1832.1</ele>
        <time>2021-08-12T13:15:47Z</time>
      </trkpt>
      <trkpt lat="45.51963" lon="6.7373">
        <ele>1832</ele>
        <time>2021-08-12T13:15:48Z</time>
      </trkpt>
      <trkpt lat="45.51964" lon="6.73731">
        <ele>1831.9</ele>
        <time>2021-08-12T13:15:49Z</time>
      </trkpt>
      <trkpt lat="45.51965" lon="6.73731">
        <ele>1831.9</ele>
        <time>2021-08-12T13:15:50Z</time>
      </trkpt>
      <trkpt lat="45.51965" lon="6.73732">
        <ele>1831.8</ele>
        <time>2021-08-12T13:15:51Z</time>
      </trkpt>
      <trkpt lat="45.51966" lon="6.73733">
        <ele>1831.7</ele>
        <time>2021-08-12T13:15:52Z</time>
      </trkpt>
      <trkpt lat="45.51966" lon="6.73734">
        <ele>1831.7</ele>
        <time>2021-08-12T13:15:53Z</time>
      </trkpt>
      <trkpt lat="45.51966" lon="6.73735">
        <ele>1831.6</ele>
        <time>2021-08-12T13:15:54Z</time>
      </trkpt>
      <trkpt lat="45.51967" lon="6.73736">
        <ele>1831.5</ele>
        <time>2021-08-12T13:15:55Z</time>
      </trkpt>
      <trkpt lat="45.51967" lon="6.73737">
        <ele>1831.4</ele>
        <time>2021-08-12T13:15:56Z</time>
      </trkpt>
      <trkpt lat="45.51966" lon="6.73738">
        <ele>1831.4</ele>
        <time>2021-08-12T13:15:57Z</time>
      </trkpt>
      <trkpt lat="45.51966" lon="6.73739">
        <ele>1831.3</ele>
        <time>2021-08-12T13:15:58Z</time>
      </trkpt>
      <trkpt lat="45.51966" lon="6.7374">
        <ele>1831.2</ele>
        <time>2021-08-12T13:15:59Z</time>
      </trkpt>
      <trkpt lat="45.51965" lon="6.73741">
        <ele>1831.1</ele>
        <time>2021-08-12T13:16:00Z</time>
      </trkpt>
      <trkpt lat="45.51964" lon="6.73742">
        <ele>1831.1</ele>
        <time>2021-08-12T13:16:01Z</time>
      </trkpt>
      <trkpt lat="45.51964" lon="6.73743">
        <ele>1831</ele>
        <time>2021-08-12T13:16:02Z</time>
      </trkpt>
      <trkpt lat="45.51963" lon="6.73744">
        <ele>1830.9</ele>
        <time>2021-08-12T13:16:03Z</time>
      </trkpt>
      <trkpt lat="45.51962" lon="6.73744">
        <ele>1830.8</ele>
        <time>2021-08-12T13:16:04Z</time>
      </trkpt>
      <trkpt lat="45.51961" lon="6.73745">
        <ele>1830.7</ele>
        <time>2021-08-12T13:16:05Z</time>
      </trkpt>
      <trkpt lat="45.5196" lon="6.73745">
        <ele>1830.6</ele>
        <time>2021-08-12T13:16:06Z</time>
      </trkpt>
      <trkpt lat="45.51959" lon="6.73746">
        <ele>1830.5</ele>
        <time>2021-08-12T13:16:07Z</time>
      </trkpt>
      <trkpt lat="45.51958" lon="6.73746">
        <ele>1830.4</ele>
        <time>2021-08-12T13:16:08Z</time>
      </trkpt>
      <trkpt lat="45.51957" lon="6.73746">
        <ele>1830.3</ele>
        <time>2021-08-12T13:16:09Z</time>
      </trkpt>
      <trkpt lat="45.51956" lon="6.73746">
        <ele>1830.2</ele>
        <time>2021-08-12T13:16:10Z</time>
      </trkpt>
      <trkpt lat="45.51955" lon="6.73746">
        <ele>1830.2</ele>
        <time>2021-08-12T13:16:11Z</time>
      </trkpt>
      <trkpt lat="45.51954" lon="6.73746">
        <ele>1830.1</ele>
        <time>2021-08-12T13:16:12Z</time>
      </trkpt>
      <trkpt lat="45.51954" lon="6.73746">
        <ele>1830</ele>
        <time>2021-08-12T13:16:13Z</time>
      </trkpt>
      <trkpt lat="45.51953" lon="6.73746">
        <ele>1830</ele>
        <time>2021-08-12T13:16:14Z</time>
      </trkpt>
      <trkpt lat="45.51953" lon="6.73746">
        <ele>1829.9</ele>
        <time>2021-08-12T13:16:15Z</time>
      </trkpt>
      <trkpt lat="45.51952" lon="6.73746">
        <ele>1829.9</ele>
        <time>2021-08-12T13:16:16Z</time>
      </trkpt>
      <trkpt lat="45.51952" lon="6.73746">
        <ele>1829.9</ele>
        <time>2021-08-12T13:16:17Z</time>
      </trkpt>
      <trkpt lat="45.51952" lon="6.73746">
        <ele>1829.9</ele>
        <time>2021-08-12T13:16:18Z</time>
      </trkpt>
      <trkpt lat="45.51952" lon="6.73746">
        <ele>1829.9</ele>
        <time>2021-08-12T13:16:19Z</time>
      </trkpt>
      <trkpt lat="45.51953" lon="6.73746">
        <ele>1829.9</ele>
        <time>2021-08-12T13:16:20Z</time>
      </trkpt>
      <trkpt lat="45.51953" lon="6.73746">
        <ele>1829.8</ele>
        <time>2021-08-12T13:16:21Z</time>
      </trkpt>
      <trkpt lat="45.51953" lon="6.73746">
        <ele>1829.8</ele>
        <time>2021-08-12T13:16:22Z</time>
      </trkpt>
      <trkpt lat="45.51954" lon="6.73746">
        <ele>1829.7</ele>
        <time>2021-08-12T13:16:23Z</time>
      </trkpt>
      <trkpt lat="45.51955" lon="6.73746">
        <ele>1829.7</ele>
        <time>2021-08-12T13:16:24Z</time>
      </trkpt>
      <trkpt lat="45.51955" lon="6.73746">
        <ele>1829.6</ele>
        <time>2021-08-12T13:16:25Z</time>
      </trkpt>
      <trkpt lat="45.51956" lon="6.73746">
        <ele>1829.6</ele>
        <time>2021-08-12T13:16:26Z</time>
      </trkpt>
      <trkpt lat="45.51957" lon="6.73746">
        <ele>1829.5</ele>
        <time>2021-08-12T13:16:27Z</time>
      </trkpt>
      <trkpt lat="45.51958" lon="6.73746">
        <ele>1829.5</ele>
        <time>2021-08-12T13:16:28Z</time>
      </trkpt>
      <trkpt lat="45.51958" lon="6.73746">
        <ele>1829.4</ele>
        <time>2021-08-12T13:16:29Z</time>
      </trkpt>
      <trkpt lat="45.51959" lon="6.73745">
        <ele>1829.3</ele>
        <time>2021-08-12T13:16:30Z</time>
      </trkpt>
      <trkpt lat="45.5196" lon="6.73745">
        <ele>1829.2</ele>
        <time>2021-08-12T13:16:31Z</time>
      </trkpt>
      <trkpt lat="45.51961" lon="6.73745">
        <ele>1829.2</ele>
        <time>2021-08-12T13:16:32Z</time>
      </trkpt>
      <trkpt lat="45.51962" lon="6.73744">
        <ele>1829.1</ele>
        <time>2021-08-12T13:16:33Z</time>
      </trkpt>
      <trkpt lat="45.51963" lon="6.73744">
        <ele>1829</ele>
        <time>2021-08-12T13:16:34Z</time>
      </trkpt>
      <trkpt lat="45.51964" lon="6.73743">
        <ele>1828.9</ele>
        <time>2021-08-12T13:16:35Z</time>
      </trkpt>
      <trkpt lat="45.51965" lon="6.73742">
        <ele>1828.8</ele>
        <time>2021-08-12T13:16:36Z</time>
      </trkpt>
      <trkpt lat="45.51966" lon="6.73742">
        <ele>1828.7</ele>
        <time>2021-08-12T13:16:37Z</time>
      </trkpt>
      <trkpt lat="45.51967" lon="6.73741">
        <ele>1828.7</ele>
        <time>2021-08-12T13:16:38Z</time>
      </trkpt>
      <trkpt lat="45.51968" lon="6.73741">
        <ele>1828.6</ele>
        <time>2021-08-12T13:16:39Z</time>
      </trkpt>
      <trkpt lat="45.51969" lon="6.7374">
        <ele>1828.5</ele>
        <time>2021-08-12T13:16:40Z</time>
      </trkpt>
      <trkpt lat="45.5197" lon="6.73739">
        <ele>1828.4</ele>
        <time>2021-08-12T13:16:41Z</time>
      </trkpt>
      <trkpt lat="45.5197" lon="6.73739">
        <ele>1828.3</ele>
        <time>2021-08-12T13:16:42Z</time>
      </trkpt>
      <trkpt lat="45.51971" lon="6.73738">
        <ele>1828.2</ele>
        <time>2021-08-12T13:16:43Z</time>
      </trkpt>
      <trkpt lat="45.51972" lon="6.73738">
        <ele>1828.1</ele>
        <time>2021-08-12T13:16:44Z</time>
      </trkpt>
      <trkpt lat="45.51973" lon="6.73737">
        <ele>1828</ele>
        <time>2021-08-12T13:16:45Z</time>
      </trkpt>
      <trkpt lat="45.51974" lon="6.73737">
        <ele>1827.9</ele>
        <time>2021-08-12T13:16:46Z</time>
      </trkpt>
      <trkpt lat="45.51975" lon="6.73737">
        <ele>1827.8</ele>
        <time>2021-08-12T13:16:47Z</time>
      </trkpt>
      <trkpt lat="45.51976" lon="6.73736">
        <ele>1827.7</ele>
        <time>2021-08-12T13:16:48Z</time>
      </trkpt>
      <trkpt lat="45.51977" lon="6.73736">
        <ele>1827.6</ele>
        <time>2021-08-12T13:16:49Z</time>
      </trkpt>
      <trkpt lat="45.51978" lon="6.73736">
        <ele>1827.5</ele>
        <time>2021-08-12T13:16:50Z</time>
      </trkpt>
      <trkpt lat="45.51979" lon="6.73735">
        <ele>1827.4</ele>
        <time>2021-08-12T13:16:51Z</time>
      </trkpt>
      <trkpt lat="45.5198" lon="6.73735">
        <ele>1827.3</ele>
        <time>2021-08-12T13:16:52Z</time>
      </trkpt>
      <trkpt lat="45.51981" lon="6.73735">
        <ele>1827.3</ele>
        <time>2021-08-12T13:16:53Z</time>
      </trkpt>
      <trkpt lat="45.51982" lon="6.73735">
        <ele>1827.2</ele>
        <time>2021-08-12T13:16:54Z</time>
      </trkpt>
      <trkpt lat="45.51983" lon="6.73735">
        <ele>1827.1</ele>
        <time>2021-08-12T13:16:55Z</time>
      </trkpt>
      <trkpt lat="45.51984" lon="6.73735">
        <ele>1827</ele>
        <time>2021-08-12T13:16:56Z</time>
      </trkpt>
      <trkpt lat="45.51984" lon="6.73735">
        <ele>1826.9</ele>
        <time>2021-08-12T13:16:57Z</time>
      </trkpt>
      <trkpt lat="45.51985" lon="6.73734">
        <ele>1826.8</ele>
        <time>2021-08-12T13:16:58Z</time>
      </trkpt>
      <trkpt lat="45.51986" lon="6.73734">
        <ele>1826.7</ele>
        <time>2021-08-12T13:16:59Z</time>
      </trkpt>
      <trkpt lat="45.51987" lon="6.73734">
        <ele>1826.7</ele>
        <time>2021-08-12T13:17:00Z</time>
      </trkpt>
      <trkpt lat="45.51988" lon="6.73734">
        <ele>1826.6</ele>
        <time>2021-08-12T13:17:01Z</time>
      </trkpt>
      <trkpt lat="45.51989" lon="6.73734">
        <ele>1826.5</ele>
        <time>2021-08-12T13:17:02Z</time>
      </trkpt>
      <trkpt lat="45.5199" lon="6.73734">
        <ele>1826.4</ele>
        <time>2021-08-12T13:17:03Z</time>
      </trkpt>
      <trkpt lat="45.51991" lon="6.73734">
        <ele>1826.3</ele>
        <time>2021-08-12T13:17:04Z</time>
      </trkpt>
      <trkpt lat="45.51992" lon="6.73734">
        <ele>1826.2</ele>
        <time>2021-08-12T13:17:05Z</time>
      </trkpt>
      <trkpt lat="45.51993" lon="6.73734">
        <ele>1826.1</ele>
        <time>2021-08-12T13:17:06Z</time>
      </trkpt>
      <trkpt lat="45.51994" lon="6.73734">
        <ele>1826</ele>
        <time>2021-08-12T13:17:07Z</time>
      </trkpt>
      <trkpt lat="45.51994" lon="6.73734">
        <ele>1826</ele>
        <time>2021-08-12T13:17:08Z</time>
      </trkpt>
      <trkpt lat="45.51995" lon="6.73734">
        <ele>1825.9</ele>
        <time>2021-08-12T13:17:09Z</time>
      </trkpt>
      <trkpt lat="45.51996" lon="6.73734">
        <ele>1825.8</ele>
        <time>2021-08-12T13:17:10Z</time>
      </trkpt>
      <trkpt lat="45.51997" lon="6.73734">
        <ele>1825.7</ele>
        <time>2021-08-12T13:17:11Z</time>
      </trkpt>
      <trkpt lat="45.51998" lon="6.73733">
        <ele>1825.6</ele>
        <time>2021-08-12T13:17:12Z</time>
      </trkpt>
      <trkpt lat="45.51999" lon="6.73733">
        <ele>1825.5</ele>
        <time>2021-08-12T13:17:13Z</time>
      </trkpt>
      <trkpt lat="45.52" lon="6.73733">
        <ele>1825.4</ele>
        <time>2021-08-12T13:17:14Z</time>
      </trkpt>
      <trkpt lat="45.52001" lon="6.73733">
        <ele>1825.3</ele>
        <time>2021-08-12T13:17:15Z</time>
      </trkpt>
      <trkpt lat="45.52002" lon="6.73733">
        <ele>1825.2</ele>
        <time>2021-08-12T13:17:16Z</time>
      </trkpt>
      <trkpt lat="45.52003" lon="6.73734">
        <ele>1825.1</ele>
        <time>2021-08-12T13:17:17Z</time>
      </trkpt>
      <trkpt lat="45.52004" lon="6.73734">
        <ele>1825</ele>
        <time>2021-08-12T13:17:18Z</time>
      </trkpt>
      <trkpt lat="45.52005" lon="6.73734">
        <ele>1824.9</ele>
        <time>2021-08-12T13:17:19Z</time>
      </trkpt>
      <trkpt lat="45.52006" lon="6.73734">
        <ele>1824.8</ele>
        <time>2021-08-12T13:17:20Z</time>
      </trkpt>
      <trkpt lat="45.52007" lon="6.73734">
        <ele>1824.7</ele>
        <time>2021-08-12T13:17:21Z</time>
      </trkpt>
      <trkpt lat="45.52008" lon="6.73734">
        <ele>1824.6</ele>
        <time>2021-08-12T13:17:22Z</time>
      </trkpt>
      <trkpt lat="45.52009" lon="6.73735">
        <ele>1824.5</ele>
        <time>2021-08-12T13:17:23Z</time>
      </trkpt>
      <trkpt lat="45.5201" lon="6.73735">
        <ele>1824.4</ele>
        <time>2021-08-12T13:17:24Z</time>
      </trkpt>
      <trkpt lat="45.52011" lon="6.73735">
        <ele>1824.3</ele>
        <time>2021-08-12T13:17:25Z</time>
      </trkpt>
      <trkpt lat="45.52012" lon="6.73736">
        <ele>1824.2</ele>
        <time>2021-08-12T13:17:26Z</time>
      </trkpt>
      <trkpt lat="45.52013" lon="6.73736">
        <ele>1824.1</ele>
        <time>2021-08-12T13:17:27Z</time>
      </trkpt>
      <trkpt lat="45.52014" lon="6.73737">
        <ele>1824</ele>
        <time>2021-08-12T13:17:28Z</time>
      </trkpt>
      <trkpt lat="45.52015" lon="6.73737">
        <ele>1823.9</ele>
        <time>2021-08-12T13:17:29Z</time>
      </trkpt>
      <trkpt lat="45.52016" lon="6.73738">
        <ele>1823.8</ele>
        <time>2021-08-12T13:17:30Z</time>
      </trkpt>
      <trkpt lat="45.52017" lon="6.73738">
        <ele>1823.7</ele>
        <time>2021-08-12T13:17:31Z</time>
      </trkpt>
      <trkpt lat="45.52018" lon="6.73739">
        <ele>1823.6</ele>
        <time>2021-08-12T13:17:32Z</time>
      </trkpt>
      <trkpt lat="45.52019" lon="6.73739">
        <ele>1823.5</ele>
        <time>2021-08-12T13:17:33Z</time>
      </trkpt>
      <trkpt lat="45.5202" lon="6.7374">
        <ele>1823.4</ele>
        <time>2021-08-12T13:17:34Z</time>
      </trkpt>
      <trkpt lat="45.52021" lon="6.7374">
        <ele>1823.3</ele>
        <time>2021-08-12T13:17:35Z</time>
      </trkpt>
      <trkpt lat="45.52022" lon="6.7374">
        <ele>1823.3</ele>
        <time>2021-08-12T13:17:36Z</time>
      </trkpt>
      <trkpt lat="45.52023" lon="6.73741">
        <ele>1823.2</ele>
        <time>2021-08-12T13:17:37Z</time>
      </trkpt>
      <trkpt lat="45.52023" lon="6.73741">
        <ele>1823.1</ele>
        <time>2021-08-12T13:17:38Z</time>
      </trkpt>
      <trkpt lat="45.52024" lon="6.73741">
        <ele>1823.1</ele>
        <time>2021-08-12T13:17:39Z</time>
      </trkpt>
      <trkpt lat="45.52025" lon="6.73741">
        <ele>1823</ele>
        <time>2021-08-12T13:17:40Z</time>
      </trkpt>
      <trkpt lat="45.52026" lon="6.73741">
        <ele>1822.9</ele>
        <time>2021-08-12T13:17:41Z</time>
      </trkpt>
      <trkpt lat="45.52026" lon="6.73741">
        <ele>1822.9</ele>
        <time>2021-08-12T13:17:42Z</time>
      </trkpt>
      <trkpt lat="45.52027" lon="6.7374">
        <ele>1822.8</ele>
        <time>2021-08-12T13:17:43Z</time>
      </trkpt>
      <trkpt lat="45.52028" lon="6.7374">
        <ele>1822.8</ele>
        <time>2021-08-12T13:17:44Z</time>
      </trkpt>
      <trkpt lat="45.52028" lon="6.73739">
        <ele>1822.7</ele>
        <time>2021-08-12T13:17:45Z</time>
      </trkpt>
      <trkpt lat="45.52029" lon="6.73739">
        <ele>1822.6</ele>
        <time>2021-08-12T13:17:46Z</time>
      </trkpt>
      <trkpt lat="45.52029" lon="6.73738">
        <ele>1822.6</ele>
        <time>2021-08-12T13:17:47Z</time>
      </trkpt>
      <trkpt lat="45.5203" lon="6.73737">
        <ele>1822.5</ele>
        <time>2021-08-12T13:17:48Z</time>
      </trkpt>
      <trkpt lat="45.52031" lon="6.73737">
        <ele>1822.4</ele>
        <time>2021-08-12T13:17:49Z</time>
      </trkpt>
      <trkpt lat="45.52032" lon="6.73736">
        <ele>1822.3</ele>
        <time>2021-08-12T13:17:50Z</time>
      </trkpt>
      <trkpt lat="45.52033" lon="6.73736">
        <ele>1822.3</ele>
        <time>2021-08-12T13:17:51Z</time>
      </trkpt>
      <trkpt lat="45.52034" lon="6.73736">
        <ele>1822.2</ele>
        <time>2021-08-12T13:17:52Z</time>
      </trkpt>
      <trkpt lat="45.52035" lon="6.73735">
        <ele>1822.1</ele>
        <time>2021-08-12T13:17:53Z</time>
      </trkpt>
      <trkpt lat="45.52036" lon="6.73735">
        <ele>1822</ele>
        <time>2021-08-12T13:17:54Z</time>
      </trkpt>
      <trkpt lat="45.52037" lon="6.73734">
        <ele>1821.9</ele>
        <time>2021-08-12T13:17:55Z</time>
      </trkpt>
      <trkpt lat="45.52038" lon="6.73734">
        <ele>1821.8</ele>
        <time>2021-08-12T13:17:56Z</time>
      </trkpt>
      <trkpt lat="45.52038" lon="6.73733">
        <ele>1821.7</ele>
        <time>2021-08-12T13:17:57Z</time>
      </trkpt>
      <trkpt lat="45.52039" lon="6.73732">
        <ele>1821.6</ele>
        <time>2021-08-12T13:17:58Z</time>
      </trkpt>
      <trkpt lat="45.5204" lon="6.73732">
        <ele>1821.5</ele>
        <time>2021-08-12T13:17:59Z</time>
      </trkpt>
      <trkpt lat="45.5204" lon="6.73731">
        <ele>1821.4</ele>
        <time>2021-08-12T13:18:00Z</time>
      </trkpt>
      <trkpt lat="45.52041" lon="6.7373">
        <ele>1821.4</ele>
        <time>2021-08-12T13:18:01Z</time>
      </trkpt>
      <trkpt lat="45.52041" lon="6.73729">
        <ele>1821.3</ele>
        <time>2021-08-12T13:18:02Z</time>
      </trkpt>
      <trkpt lat="45.52042" lon="6.73728">
        <ele>1821.2</ele>
        <time>2021-08-12T13:18:03Z</time>
      </trkpt>
      <trkpt lat="45.52042" lon="6.73727">
        <ele>1821.1</ele>
        <time>2021-08-12T13:18:04Z</time>
      </trkpt>
      <trkpt lat="45.52043" lon="6.73726">
        <ele>1821</ele>
        <time>2021-08-12T13:18:05Z</time>
      </trkpt>
      <trkpt lat="45.52043" lon="6.73725">
        <ele>1820.9</ele>
        <time>2021-08-12T13:18:06Z</time>
      </trkpt>
      <trkpt lat="45.52044" lon="6.73724">
        <ele>1820.9</ele>
        <time>2021-08-12T13:18:07Z</time>
      </trkpt>
      <trkpt lat="45.52044" lon="6.73723">
        <ele>1820.8</ele>
        <time>2021-08-12T13:18:08Z</time>
      </trkpt>
      <trkpt lat="45.52045" lon="6.73723">
        <ele>1820.7</ele>
        <time>2021-08-12T13:18:09Z</time>
      </trkpt>
      <trkpt lat="45.52045" lon="6.73722">
        <ele>1820.6</ele>
        <time>2021-08-12T13:18:10Z</time>
      </trkpt>
      <trkpt lat="45.52046" lon="6.73721">
        <ele>1820.5</ele>
        <time>2021-08-12T13:18:11Z</time>
      </trkpt>
      <trkpt lat="45.52046" lon="6.7372">
        <ele>1820.4</ele>
        <time>2021-08-12T13:18:12Z</time>
      </trkpt>
      <trkpt lat="45.52046" lon="6.73719">
        <ele>1820.3</ele>
        <time>2021-08-12T13:18:13Z</time>
      </trkpt>
      <trkpt lat="45.52047" lon="6.73718">
        <ele>1820.2</ele>
        <time>2021-08-12T13:18:14Z</time>
      </trkpt>
      <trkpt lat="45.52047" lon="6.73717">
        <ele>1820.2</ele>
        <time>2021-08-12T13:18:15Z</time>
      </trkpt>
      <trkpt lat="45.52048" lon="6.73716">
        <ele>1820.1</ele>
        <time>2021-08-12T13:18:16Z</time>
      </trkpt>
      <trkpt lat="45.52048" lon="6.73715">
        <ele>1820</ele>
        <time>2021-08-12T13:18:17Z</time>
      </trkpt>
      <trkpt lat="45.52049" lon="6.73714">
        <ele>1819.9</ele>
        <time>2021-08-12T13:18:18Z</time>
      </trkpt>
      <trkpt lat="45.52049" lon="6.73714">
        <ele>1819.8</ele>
        <time>2021-08-12T13:18:19Z</time>
      </trkpt>
      <trkpt lat="45.5205" lon="6.73713">
        <ele>1819.7</ele>
        <time>2021-08-12T13:18:20Z</time>
      </trkpt>
      <trkpt lat="45.5205" lon="6.73712">
        <ele>1819.6</ele>
        <time>2021-08-12T13:18:21Z</time>
      </trkpt>
      <trkpt lat="45.52051" lon="6.73711">
        <ele>1819.5</ele>
        <time>2021-08-12T13:18:22Z</time>
      </trkpt>
      <trkpt lat="45.52051" lon="6.7371">
        <ele>1819.4</ele>
        <time>2021-08-12T13:18:23Z</time>
      </trkpt>
      <trkpt lat="45.52052" lon="6.73709">
        <ele>1819.3</ele>
        <time>2021-08-12T13:18:24Z</time>
      </trkpt>
      <trkpt lat="45.52052" lon="6.73708">
        <ele>1819.2</ele>
        <time>2021-08-12T13:18:25Z</time>
      </trkpt>
      <trkpt lat="45.52053" lon="6.73707">
        <ele>1819.1</ele>
        <time>2021-08-12T13:18:26Z</time>
      </trkpt>
      <trkpt lat="45.52054" lon="6.73706">
        <ele>1819</ele>
        <time>2021-08-12T13:18:27Z</time>
      </trkpt>
      <trkpt lat="45.52054" lon="6.73705">
        <ele>1818.9</ele>
        <time>2021-08-12T13:18:28Z</time>
      </trkpt>
      <trkpt lat="45.52055" lon="6.73704">
        <ele>1818.8</ele>
        <time>2021-08-12T13:18:29Z</time>
      </trkpt>
      <trkpt lat="45.52056" lon="6.73703">
        <ele>1818.7</ele>
        <time>2021-08-12T13:18:30Z</time>
      </trkpt>
      <trkpt lat="45.52057" lon="6.73702">
        <ele>1818.6</ele>
        <time>2021-08-12T13:18:31Z</time>
      </trkpt>
      <trkpt lat="45.52057" lon="6.73701">
        <ele>1818.5</ele>
        <time>2021-08-12T13:18:32Z</time>
      </trkpt>
      <trkpt lat="45.52058" lon="6.737">
        <ele>1818.4</ele>
        <time>2021-08-12T13:18:33Z</time>
      </trkpt>
      <trkpt lat="45.52059" lon="6.73699">
        <ele>1818.3</ele>
        <time>2021-08-12T13:18:34Z</time>
      </trkpt>
      <trkpt lat="45.5206" lon="6.73698">
        <ele>1818.2</ele>
        <time>2021-08-12T13:18:35Z</time>
      </trkpt>
      <trkpt lat="45.52061" lon="6.73697">
        <ele>1818.1</ele>
        <time>2021-08-12T13:18:36Z</time>
      </trkpt>
      <trkpt lat="45.52061" lon="6.73697">
        <ele>1818</ele>
        <time>2021-08-12T13:18:37Z</time>
      </trkpt>
      <trkpt lat="45.52062" lon="6.73696">
        <ele>1817.8</ele>
        <time>2021-08-12T13:18:38Z</time>
      </trkpt>
      <trkpt lat="45.52063" lon="6.73696">
        <ele>1817.8</ele>
        <time>2021-08-12T13:18:39Z</time>
      </trkpt>
      <trkpt lat="45.52064" lon="6.73695">
        <ele>1817.6</ele>
        <time>2021-08-12T13:18:40Z</time>
      </trkpt>
      <trkpt lat="45.52065" lon="6.73695">
        <ele>1817.5</ele>
        <time>2021-08-12T13:18:41Z</time>
      </trkpt>
      <trkpt lat="45.52066" lon="6.73694">
        <ele>1817.4</ele>
        <time>2021-08-12T13:18:42Z</time>
      </trkpt>
      <trkpt lat="45.52067" lon="6.73694">
        <ele>1817.4</ele>
        <time>2021-08-12T13:18:43Z</time>
      </trkpt>
      <trkpt lat="45.52068" lon="6.73694">
        <ele>1817.3</ele>
        <time>2021-08-12T13:18:44Z</time>
      </trkpt>
      <trkpt lat="45.5207" lon="6.73694">
        <ele>1817.2</ele>
        <time>2021-08-12T13:18:45Z</time>
      </trkpt>
      <trkpt lat="45.52071" lon="6.73694">
        <ele>1817.1</ele>
        <time>2021-08-12T13:18:46Z</time>
      </trkpt>
      <trkpt lat="45.52073" lon="6.73694">
        <ele>1816.9</ele>
        <time>2021-08-12T13:18:47Z</time>
      </trkpt>
      <trkpt lat="45.52073" lon="6.73694">
        <ele>1816.8</ele>
        <time>2021-08-12T13:18:48Z</time>
      </trkpt>
      <trkpt lat="45.52074" lon="6.73694">
        <ele>1816.7</ele>
        <time>2021-08-12T13:18:49Z</time>
      </trkpt>
      <trkpt lat="45.52075" lon="6.73694">
        <ele>1816.7</ele>
        <time>2021-08-12T13:18:50Z</time>
      </trkpt>
      <trkpt lat="45.52076" lon="6.73694">
        <ele>1816.6</ele>
        <time>2021-08-12T13:18:51Z</time>
      </trkpt>
      <trkpt lat="45.52077" lon="6.73695">
        <ele>1816.5</ele>
        <time>2021-08-12T13:18:52Z</time>
      </trkpt>
      <trkpt lat="45.52078" lon="6.73695">
        <ele>1816.4</ele>
        <time>2021-08-12T13:18:53Z</time>
      </trkpt>
      <trkpt lat="45.52079" lon="6.73695">
        <ele>1816.3</ele>
        <time>2021-08-12T13:18:54Z</time>
      </trkpt>
      <trkpt lat="45.5208" lon="6.73695">
        <ele>1816.2</ele>
        <time>2021-08-12T13:18:55Z</time>
      </trkpt>
      <trkpt lat="45.52082" lon="6.73695">
        <ele>1816.1</ele>
        <time>2021-08-12T13:18:56Z</time>
      </trkpt>
      <trkpt lat="45.52083" lon="6.73695">
        <ele>1816</ele>
        <time>2021-08-12T13:18:57Z</time>
      </trkpt>
      <trkpt lat="45.52084" lon="6.73695">
        <ele>1815.9</ele>
        <time>2021-08-12T13:18:58Z</time>
      </trkpt>
      <trkpt lat="45.52085" lon="6.73695">
        <ele>1815.8</ele>
        <time>2021-08-12T13:18:59Z</time>
      </trkpt>
      <trkpt lat="45.52086" lon="6.73695">
        <ele>1815.7</ele>
        <time>2021-08-12T13:19:00Z</time>
      </trkpt>
      <trkpt lat="45.52087" lon="6.73695">
        <ele>1815.6</ele>
        <time>2021-08-12T13:19:01Z</time>
      </trkpt>
      <trkpt lat="45.52088" lon="6.73696">
        <ele>1815.5</ele>
        <time>2021-08-12T13:19:02Z</time>
      </trkpt>
      <trkpt lat="45.52089" lon="6.73696">
        <ele>1815.4</ele>
        <time>2021-08-12T13:19:03Z</time>
      </trkpt>
      <trkpt lat="45.5209" lon="6.73696">
        <ele>1815.2</ele>
        <time>2021-08-12T13:19:04Z</time>
      </trkpt>
      <trkpt lat="45.52091" lon="6.73696">
        <ele>1815.1</ele>
        <time>2021-08-12T13:19:05Z</time>
      </trkpt>
      <trkpt lat="45.52092" lon="6.73696">
        <ele>1815</ele>
        <time>2021-08-12T13:19:06Z</time>
      </trkpt>
      <trkpt lat="45.52093" lon="6.73696">
        <ele>1814.9</ele>
        <time>2021-08-12T13:19:07Z</time>
      </trkpt>
      <trkpt lat="45.52095" lon="6.73696">
        <ele>1814.8</ele>
        <time>2021-08-12T13:19:08Z</time>
      </trkpt>
      <trkpt lat="45.52096" lon="6.73697">
        <ele>1814.7</ele>
        <time>2021-08-12T13:19:09Z</time>
      </trkpt>
      <trkpt lat="45.52097" lon="6.73697">
        <ele>1814.6</ele>
        <time>2021-08-12T13:19:10Z</time>
      </trkpt>
      <trkpt lat="45.52098" lon="6.73697">
        <ele>1814.5</ele>
        <time>2021-08-12T13:19:11Z</time>
      </trkpt>
      <trkpt lat="45.52099" lon="6.73697">
        <ele>1814.3</ele>
        <time>2021-08-12T13:19:12Z</time>
      </trkpt>
      <trkpt lat="45.521" lon="6.73698">
        <ele>1814.2</ele>
        <time>2021-08-12T13:19:13Z</time>
      </trkpt>
      <trkpt lat="45.52101" lon="6.73698">
        <ele>1814.1</ele>
        <time>2021-08-12T13:19:14Z</time>
      </trkpt>
      <trkpt lat="45.52102" lon="6.73698">
        <ele>1814</ele>
        <time>2021-08-12T13:19:15Z</time>
      </trkpt>
      <trkpt lat="45.52103" lon="6.73699">
        <ele>1813.9</ele>
        <time>2021-08-12T13:19:16Z</time>
      </trkpt>
      <trkpt lat="45.52104" lon="6.73699">
        <ele>1813.8</ele>
        <time>2021-08-12T13:19:17Z</time>
      </trkpt>
      <trkpt lat="45.52105" lon="6.737">
        <ele>1813.7</ele>
        <time>2021-08-12T13:19:18Z</time>
      </trkpt>
      <trkpt lat="45.52106" lon="6.737">
        <ele>1813.5</ele>
        <time>2021-08-12T13:19:19Z</time>
      </trkpt>
      <trkpt lat="45.52107" lon="6.73701">
        <ele>1813.4</ele>
        <time>2021-08-12T13:19:20Z</time>
      </trkpt>
      <trkpt lat="45.52108" lon="6.73702">
        <ele>1813.3</ele>
        <time>2021-08-12T13:19:21Z</time>
      </trkpt>
      <trkpt lat="45.52109" lon="6.73702">
        <ele>1813.2</ele>
        <time>2021-08-12T13:19:22Z</time>
      </trkpt>
      <trkpt lat="45.5211" lon="6.73703">
        <ele>1813.1</ele>
        <time>2021-08-12T13:19:23Z</time>
      </trkpt>
      <trkpt lat="45.52111" lon="6.73703">
        <ele>1813</ele>
        <time>2021-08-12T13:19:24Z</time>
      </trkpt>
      <trkpt lat="45.52112" lon="6.73704">
        <ele>1812.9</ele>
        <time>2021-08-12T13:19:25Z</time>
      </trkpt>
      <trkpt lat="45.52113" lon="6.73705">
        <ele>1812.8</ele>
        <time>2021-08-12T13:19:26Z</time>
      </trkpt>
      <trkpt lat="45.52113" lon="6.73705">
        <ele>1812.7</ele>
        <time>2021-08-12T13:19:27Z</time>
      </trkpt>
      <trkpt lat="45.52114" lon="6.73706">
        <ele>1812.6</ele>
        <time>2021-08-12T13:19:28Z</time>
      </trkpt>
      <trkpt lat="45.52114" lon="6.73706">
        <ele>1812.5</ele>
        <time>2021-08-12T13:19:29Z</time>
      </trkpt>
      <trkpt lat="45.52115" lon="6.73707">
        <ele>1812.5</ele>
        <time>2021-08-12T13:19:30Z</time>
      </trkpt>
      <trkpt lat="45.52116" lon="6.73707">
        <ele>1812.4</ele>
        <time>2021-08-12T13:19:31Z</time>
      </trkpt>
      <trkpt lat="45.52116" lon="6.73708">
        <ele>1812.3</ele>
        <time>2021-08-12T13:19:32Z</time>
      </trkpt>
      <trkpt lat="45.52117" lon="6.73709">
        <ele>1812.2</ele>
        <time>2021-08-12T13:19:33Z</time>
      </trkpt>
      <trkpt lat="45.52117" lon="6.7371">
        <ele>1812.1</ele>
        <time>2021-08-12T13:19:34Z</time>
      </trkpt>
      <trkpt lat="45.52118" lon="6.73711">
        <ele>1812</ele>
        <time>2021-08-12T13:19:35Z</time>
      </trkpt>
      <trkpt lat="45.52119" lon="6.73712">
        <ele>1811.9</ele>
        <time>2021-08-12T13:19:36Z</time>
      </trkpt>
      <trkpt lat="45.52119" lon="6.73713">
        <ele>1811.8</ele>
        <time>2021-08-12T13:19:37Z</time>
      </trkpt>
      <trkpt lat="45.5212" lon="6.73715">
        <ele>1811.7</ele>
        <time>2021-08-12T13:19:38Z</time>
      </trkpt>
      <trkpt lat="45.5212" lon="6.73716">
        <ele>1811.5</ele>
        <time>2021-08-12T13:19:39Z</time>
      </trkpt>
      <trkpt lat="45.52121" lon="6.73717">
        <ele>1811.4</ele>
        <time>2021-08-12T13:19:40Z</time>
      </trkpt>
      <trkpt lat="45.52122" lon="6.73718">
        <ele>1811.3</ele>
        <time>2021-08-12T13:19:41Z</time>
      </trkpt>
      <trkpt lat="45.52122" lon="6.7372">
        <ele>1811.2</ele>
        <time>2021-08-12T13:19:42Z</time>
      </trkpt>
      <trkpt lat="45.52123" lon="6.73721">
        <ele>1811.1</ele>
        <time>2021-08-12T13:19:43Z</time>
      </trkpt>
      <trkpt lat="45.52123" lon="6.73722">
        <ele>1811</ele>
        <time>2021-08-12T13:19:44Z</time>
      </trkpt>
      <trkpt lat="45.52124" lon="6.73723">
        <ele>1810.9</ele>
        <time>2021-08-12T13:19:45Z</time>
      </trkpt>
      <trkpt lat="45.52124" lon="6.73724">
        <ele>1810.8</ele>
        <time>2021-08-12T13:19:46Z</time>
      </trkpt>
      <trkpt lat="45.52125" lon="6.73726">
        <ele>1810.7</ele>
        <time>2021-08-12T13:19:47Z</time>
      </trkpt>
      <trkpt lat="45.52126" lon="6.73727">
        <ele>1810.6</ele>
        <time>2021-08-12T13:19:48Z</time>
      </trkpt>
      <trkpt lat="45.52126" lon="6.73728">
        <ele>1810.5</ele>
        <time>2021-08-12T13:19:49Z</time>
      </trkpt>
      <trkpt lat="45.52127" lon="6.73729">
        <ele>1810.4</ele>
        <time>2021-08-12T13:19:50Z</time>
      </trkpt>
      <trkpt lat="45.52127" lon="6.7373">
        <ele>1810.3</ele>
        <time>2021-08-12T13:19:51Z</time>
      </trkpt>
      <trkpt lat="45.52128" lon="6.73731">
        <ele>1810.2</ele>
        <time>2021-08-12T13:19:52Z</time>
      </trkpt>
      <trkpt lat="45.52129" lon="6.73732">
        <ele>1810.1</ele>
        <time>2021-08-12T13:19:53Z</time>
      </trkpt>
      <trkpt lat="45.52129" lon="6.73734">
        <ele>1810</ele>
        <time>2021-08-12T13:19:54Z</time>
      </trkpt>
      <trkpt lat="45.5213" lon="6.73735">
        <ele>1809.9</ele>
        <time>2021-08-12T13:19:55Z</time>
      </trkpt>
      <trkpt lat="45.52131" lon="6.73736">
        <ele>1809.8</ele>
        <time>2021-08-12T13:19:56Z</time>
      </trkpt>
      <trkpt lat="45.52131" lon="6.73737">
        <ele>1809.7</ele>
        <time>2021-08-12T13:19:57Z</time>
      </trkpt>
      <trkpt lat="45.52132" lon="6.73738">
        <ele>1809.6</ele>
        <time>2021-08-12T13:19:58Z</time>
      </trkpt>
      <trkpt lat="45.52133" lon="6.73739">
        <ele>1809.4</ele>
        <time>2021-08-12T13:19:59Z</time>
      </trkpt>
      <trkpt lat="45.52133" lon="6.7374">
        <ele>1809.3</ele>
        <time>2021-08-12T13:20:00Z</time>
      </trkpt>
      <trkpt lat="45.52134" lon="6.73741">
        <ele>1809.2</ele>
        <time>2021-08-12T13:20:01Z</time>
      </trkpt>
      <trkpt lat="45.52135" lon="6.73743">
        <ele>1809.1</ele>
        <time>2021-08-12T13:20:02Z</time>
      </trkpt>
      <trkpt lat="45.52135" lon="6.73744">
        <ele>1809</ele>
        <time>2021-08-12T13:20:03Z</time>
      </trkpt>
      <trkpt lat="45.52136" lon="6.73745">
        <ele>1808.9</ele>
        <time>2021-08-12T13:20:04Z</time>
      </trkpt>
      <trkpt lat="45.52137" lon="6.73746">
        <ele>1808.8</ele>
        <time>2021-08-12T13:20:05Z</time>
      </trkpt>
      <trkpt lat="45.52138" lon="6.73747">
        <ele>1808.7</ele>
        <time>2021-08-12T13:20:06Z</time>
      </trkpt>
      <trkpt lat="45.52138" lon="6.73748">
        <ele>1808.5</ele>
        <time>2021-08-12T13:20:07Z</time>
      </trkpt>
      <trkpt lat="45.52139" lon="6.7375">
        <ele>1808.4</ele>
        <time>2021-08-12T13:20:08Z</time>
      </trkpt>
      <trkpt lat="45.5214" lon="6.73751">
        <ele>1808.3</ele>
        <time>2021-08-12T13:20:09Z</time>
      </trkpt>
      <trkpt lat="45.52141" lon="6.73752">
        <ele>1808.2</ele>
        <time>2021-08-12T13:20:10Z</time>
      </trkpt>
      <trkpt lat="45.52141" lon="6.73753">
        <ele>1808.1</ele>
        <time>2021-08-12T13:20:11Z</time>
      </trkpt>
      <trkpt lat="45.52142" lon="6.73754">
        <ele>1808</ele>
        <time>2021-08-12T13:20:12Z</time>
      </trkpt>
      <trkpt lat="45.52143" lon="6.73755">
        <ele>1807.9</ele>
        <time>2021-08-12T13:20:13Z</time>
      </trkpt>
      <trkpt lat="45.52144" lon="6.73756">
        <ele>1807.8</ele>
        <time>2021-08-12T13:20:14Z</time>
      </trkpt>
      <trkpt lat="45.52144" lon="6.73758">
        <ele>1807.7</ele>
        <time>2021-08-12T13:20:15Z</time>
      </trkpt>
      <trkpt lat="45.52145" lon="6.73759">
        <ele>1807.6</ele>
        <time>2021-08-12T13:20:16Z</time>
      </trkpt>
      <trkpt lat="45.52145" lon="6.7376">
        <ele>1807.5</ele>
        <time>2021-08-12T13:20:17Z</time>
      </trkpt>
      <trkpt lat="45.52146" lon="6.73761">
        <ele>1807.5</ele>
        <time>2021-08-12T13:20:18Z</time>
      </trkpt>
      <trkpt lat="45.52147" lon="6.73762">
        <ele>1807.4</ele>
        <time>2021-08-12T13:20:19Z</time>
      </trkpt>
      <trkpt lat="45.52147" lon="6.73763">
        <ele>1807.3</ele>
        <time>2021-08-12T13:20:20Z</time>
      </trkpt>
      <trkpt lat="45.52148" lon="6.73764">
        <ele>1807.2</ele>
        <time>2021-08-12T13:20:21Z</time>
      </trkpt>
      <trkpt lat="45.52148" lon="6.73765">
        <ele>1807.2</ele>
        <time>2021-08-12T13:20:22Z</time>
      </trkpt>
      <trkpt lat="45.52149" lon="6.73766">
        <ele>1807.1</ele>
        <time>2021-08-12T13:20:23Z</time>
      </trkpt>
      <trkpt lat="45.52149" lon="6.73767">
        <ele>1807</ele>
        <time>2021-08-12T13:20:24Z</time>
      </trkpt>
      <trkpt lat="45.5215" lon="6.73768">
        <ele>1807</ele>
        <time>2021-08-12T13:20:25Z</time>
      </trkpt>
      <trkpt lat="45.5215" lon="6.73769">
        <ele>1806.9</ele>
        <time>2021-08-12T13:20:26Z</time>
      </trkpt>
      <trkpt lat="45.52151" lon="6.7377">
        <ele>1806.8</ele>
        <time>2021-08-12T13:20:27Z</time>
      </trkpt>
      <trkpt lat="45.52151" lon="6.73772">
        <ele>1806.7</ele>
        <time>2021-08-12T13:20:28Z</time>
      </trkpt>
      <trkpt lat="45.52152" lon="6.73773">
        <ele>1806.7</ele>
        <time>2021-08-12T13:20:29Z</time>
      </trkpt>
      <trkpt lat="45.52152" lon="6.73774">
        <ele>1806.6</ele>
        <time>2021-08-12T13:20:30Z</time>
      </trkpt>
      <trkpt lat="45.52153" lon="6.73775">
        <ele>1806.5</ele>
        <time>2021-08-12T13:20:31Z</time>
      </trkpt>
      <trkpt lat="45.52154" lon="6.73776">
        <ele>1806.4</ele>
        <time>2021-08-12T13:20:32Z</time>
      </trkpt>
      <trkpt lat="45.52154" lon="6.73777">
        <ele>1806.3</ele>
        <time>2021-08-12T13:20:33Z</time>
      </trkpt>
      <trkpt lat="45.52155" lon="6.73778">
        <ele>1806.2</ele>
        <time>2021-08-12T13:20:34Z</time>
      </trkpt>
      <trkpt lat="45.52156" lon="6.7378">
        <ele>1806.2</ele>
        <time>2021-08-12T13:20:35Z</time>
      </trkpt>
      <trkpt lat="45.52157" lon="6.73781">
        <ele>1806.1</ele>
        <time>2021-08-12T13:20:36Z</time>
      </trkpt>
      <trkpt lat="45.52157" lon="6.73782">
        <ele>1806</ele>
        <time>2021-08-12T13:20:37Z</time>
      </trkpt>
      <trkpt lat="45.52158" lon="6.73783">
        <ele>1805.9</ele>
        <time>2021-08-12T13:20:38Z</time>
      </trkpt>
      <trkpt lat="45.52159" lon="6.73784">
        <ele>1805.8</ele>
        <time>2021-08-12T13:20:39Z</time>
      </trkpt>
      <trkpt lat="45.52159" lon="6.73785">
        <ele>1805.8</ele>
        <time>2021-08-12T13:20:40Z</time>
      </trkpt>
      <trkpt lat="45.5216" lon="6.73786">
        <ele>1805.7</ele>
        <time>2021-08-12T13:20:41Z</time>
      </trkpt>
      <trkpt lat="45.5216" lon="6.73787">
        <ele>1805.6</ele>
        <time>2021-08-12T13:20:42Z</time>
      </trkpt>
      <trkpt lat="45.52161" lon="6.73789">
        <ele>1805.6</ele>
        <time>2021-08-12T13:20:43Z</time>
      </trkpt>
      <trkpt lat="45.52162" lon="6.7379">
        <ele>1805.5</ele>
        <time>2021-08-12T13:20:44Z</time>
      </trkpt>
      <trkpt lat="45.52162" lon="6.73791">
        <ele>1805.4</ele>
        <time>2021-08-12T13:20:45Z</time>
      </trkpt>
      <trkpt lat="45.52163" lon="6.73792">
        <ele>1805.4</ele>
        <time>2021-08-12T13:20:46Z</time>
      </trkpt>
      <trkpt lat="45.52164" lon="6.73793">
        <ele>1805.3</ele>
        <time>2021-08-12T13:20:47Z</time>
      </trkpt>
      <trkpt lat="45.52165" lon="6.73794">
        <ele>1805.2</ele>
        <time>2021-08-12T13:20:48Z</time>
      </trkpt>
      <trkpt lat="45.52165" lon="6.73795">
        <ele>1805.2</ele>
        <time>2021-08-12T13:20:49Z</time>
      </trkpt>
      <trkpt lat="45.52166" lon="6.73796">
        <ele>1805.1</ele>
        <time>2021-08-12T13:20:50Z</time>
      </trkpt>
      <trkpt lat="45.52167" lon="6.73797">
        <ele>1805</ele>
        <time>2021-08-12T13:20:51Z</time>
      </trkpt>
      <trkpt lat="45.52168" lon="6.73798">
        <ele>1805</ele>
        <time>2021-08-12T13:20:52Z</time>
      </trkpt>
      <trkpt lat="45.52169" lon="6.73799">
        <ele>1804.9</ele>
        <time>2021-08-12T13:20:53Z</time>
      </trkpt>
      <trkpt lat="45.5217" lon="6.738">
        <ele>1804.8</ele>
        <time>2021-08-12T13:20:54Z</time>
      </trkpt>
      <trkpt lat="45.52171" lon="6.73801">
        <ele>1804.8</ele>
        <time>2021-08-12T13:20:55Z</time>
      </trkpt>
      <trkpt lat="45.52172" lon="6.73802">
        <ele>1804.7</ele>
        <time>2021-08-12T13:20:56Z</time>
      </trkpt>
      <trkpt lat="45.52173" lon="6.73803">
        <ele>1804.6</ele>
        <time>2021-08-12T13:20:57Z</time>
      </trkpt>
      <trkpt lat="45.52174" lon="6.73804">
        <ele>1804.6</ele>
        <time>2021-08-12T13:20:58Z</time>
      </trkpt>
      <trkpt lat="45.52174" lon="6.73805">
        <ele>1804.5</ele>
        <time>2021-08-12T13:20:59Z</time>
      </trkpt>
      <trkpt lat="45.52175" lon="6.73806">
        <ele>1804.5</ele>
        <time>2021-08-12T13:21:00Z</time>
      </trkpt>
      <trkpt lat="45.52176" lon="6.73807">
        <ele>1804.4</ele>
        <time>2021-08-12T13:21:01Z</time>
      </trkpt>
      <trkpt lat="45.52177" lon="6.73808">
        <ele>1804.3</ele>
        <time>2021-08-12T13:21:02Z</time>
      </trkpt>
      <trkpt lat="45.52178" lon="6.73808">
        <ele>1804.3</ele>
        <time>2021-08-12T13:21:03Z</time>
      </trkpt>
      <trkpt lat="45.52179" lon="6.73809">
        <ele>1804.2</ele>
        <time>2021-08-12T13:21:04Z</time>
      </trkpt>
      <trkpt lat="45.5218" lon="6.7381">
        <ele>1804.2</ele>
        <time>2021-08-12T13:21:05Z</time>
      </trkpt>
      <trkpt lat="45.52181" lon="6.73811">
        <ele>1804.1</ele>
        <time>2021-08-12T13:21:06Z</time>
      </trkpt>
      <trkpt lat="45.52181" lon="6.73812">
        <ele>1804</ele>
        <time>2021-08-12T13:21:07Z</time>
      </trkpt>
      <trkpt lat="45.52182" lon="6.73812">
        <ele>1804</ele>
        <time>2021-08-12T13:21:08Z</time>
      </trkpt>
      <trkpt lat="45.52183" lon="6.73813">
        <ele>1803.9</ele>
        <time>2021-08-12T13:21:09Z</time>
      </trkpt>
      <trkpt lat="45.52184" lon="6.73814">
        <ele>1803.9</ele>
        <time>2021-08-12T13:21:10Z</time>
      </trkpt>
      <trkpt lat="45.52185" lon="6.73815">
        <ele>1803.8</ele>
        <time>2021-08-12T13:21:11Z</time>
      </trkpt>
      <trkpt lat="45.52186" lon="6.73815">
        <ele>1803.8</ele>
        <time>2021-08-12T13:21:12Z</time>
      </trkpt>
      <trkpt lat="45.52187" lon="6.73816">
        <ele>1803.7</ele>
        <time>2021-08-12T13:21:13Z</time>
      </trkpt>
      <trkpt lat="45.52188" lon="6.73817">
        <ele>1803.6</ele>
        <time>2021-08-12T13:21:14Z</time>
      </trkpt>
      <trkpt lat="45.52188" lon="6.73817">
        <ele>1803.6</ele>
        <time>2021-08-12T13:21:15Z</time>
      </trkpt>
      <trkpt lat="45.52189" lon="6.73818">
        <ele>1803.5</ele>
        <time>2021-08-12T13:21:16Z</time>
      </trkpt>
      <trkpt lat="45.5219" lon="6.73818">
        <ele>1803.4</ele>
        <time>2021-08-12T13:21:17Z</time>
      </trkpt>
      <trkpt lat="45.52191" lon="6.73819">
        <ele>1803.4</ele>
        <time>2021-08-12T13:21:18Z</time>
      </trkpt>
      <trkpt lat="45.52192" lon="6.7382">
        <ele>1803.3</ele>
        <time>2021-08-12T13:21:19Z</time>
      </trkpt>
      <trkpt lat="45.52193" lon="6.7382">
        <ele>1803.3</ele>
        <time>2021-08-12T13:21:20Z</time>
      </trkpt>
      <trkpt lat="45.52194" lon="6.73821">
        <ele>1803.2</ele>
        <time>2021-08-12T13:21:21Z</time>
      </trkpt>
      <trkpt lat="45.52195" lon="6.73821">
        <ele>1803.1</ele>
        <time>2021-08-12T13:21:22Z</time>
      </trkpt>
      <trkpt lat="45.52196" lon="6.73822">
        <ele>1803</ele>
        <time>2021-08-12T13:21:23Z</time>
      </trkpt>
      <trkpt lat="45.52197" lon="6.73822">
        <ele>1803</ele>
        <time>2021-08-12T13:21:24Z</time>
      </trkpt>
      <trkpt lat="45.52198" lon="6.73823">
        <ele>1802.9</ele>
        <time>2021-08-12T13:21:25Z</time>
      </trkpt>
      <trkpt lat="45.52199" lon="6.73823">
        <ele>1802.8</ele>
        <time>2021-08-12T13:21:26Z</time>
      </trkpt>
      <trkpt lat="45.522" lon="6.73824">
        <ele>1802.8</ele>
        <time>2021-08-12T13:21:27Z</time>
      </trkpt>
      <trkpt lat="45.52201" lon="6.73825">
        <ele>1802.7</ele>
        <time>2021-08-12T13:21:28Z</time>
      </trkpt>
      <trkpt lat="45.52202" lon="6.73825">
        <ele>1802.6</ele>
        <time>2021-08-12T13:21:29Z</time>
      </trkpt>
      <trkpt lat="45.52203" lon="6.73826">
        <ele>1802.6</ele>
        <time>2021-08-12T13:21:30Z</time>
      </trkpt>
      <trkpt lat="45.52204" lon="6.73826">
        <ele>1802.5</ele>
        <time>2021-08-12T13:21:31Z</time>
      </trkpt>
      <trkpt lat="45.52205" lon="6.73827">
        <ele>1802.4</ele>
        <time>2021-08-12T13:21:32Z</time>
      </trkpt>
      <trkpt lat="45.52206" lon="6.73828">
        <ele>1802.3</ele>
        <time>2021-08-12T13:21:33Z</time>
      </trkpt>
      <trkpt lat="45.52206" lon="6.73828">
        <ele>1802.3</ele>
        <time>2021-08-12T13:21:34Z</time>
      </trkpt>
      <trkpt lat="45.52207" lon="6.73829">
        <ele>1802.2</ele>
        <time>2021-08-12T13:21:35Z</time>
      </trkpt>
      <trkpt lat="45.52208" lon="6.7383">
        <ele>1802.1</ele>
        <time>2021-08-12T13:21:36Z</time>
      </trkpt>
      <trkpt lat="45.52209" lon="6.7383">
        <ele>1802</ele>
        <time>2021-08-12T13:21:37Z</time>
      </trkpt>
      <trkpt lat="45.5221" lon="6.73831">
        <ele>1802</ele>
        <time>2021-08-12T13:21:38Z</time>
      </trkpt>
      <trkpt lat="45.52211" lon="6.73832">
        <ele>1801.9</ele>
        <time>2021-08-12T13:21:39Z</time>
      </trkpt>
      <trkpt lat="45.52211" lon="6.73833">
        <ele>1801.8</ele>
        <time>2021-08-12T13:21:40Z</time>
      </trkpt>
      <trkpt lat="45.52212" lon="6.73834">
        <ele>1801.7</ele>
        <time>2021-08-12T13:21:41Z</time>
      </trkpt>
      <trkpt lat="45.52213" lon="6.73834">
        <ele>1801.7</ele>
        <time>2021-08-12T13:21:42Z</time>
      </trkpt>
      <trkpt lat="45.52214" lon="6.73835">
        <ele>1801.6</ele>
        <time>2021-08-12T13:21:43Z</time>
      </trkpt>
      <trkpt lat="45.52214" lon="6.73836">
        <ele>1801.5</ele>
        <time>2021-08-12T13:21:44Z</time>
      </trkpt>
      <trkpt lat="45.52215" lon="6.73837">
        <ele>1801.4</ele>
        <time>2021-08-12T13:21:45Z</time>
      </trkpt>
      <trkpt lat="45.52216" lon="6.73838">
        <ele>1801.4</ele>
        <time>2021-08-12T13:21:46Z</time>
      </trkpt>
      <trkpt lat="45.52216" lon="6.73839">
        <ele>1801.3</ele>
        <time>2021-08-12T13:21:47Z</time>
      </trkpt>
      <trkpt lat="45.52217" lon="6.7384">
        <ele>1801.2</ele>
        <time>2021-08-12T13:21:48Z</time>
      </trkpt>
      <trkpt lat="45.52218" lon="6.73841">
        <ele>1801.1</ele>
        <time>2021-08-12T13:21:49Z</time>
      </trkpt>
      <trkpt lat="45.52218" lon="6.73843">
        <ele>1801.1</ele>
        <time>2021-08-12T13:21:50Z</time>
      </trkpt>
      <trkpt lat="45.52219" lon="6.73844">
        <ele>1801</ele>
        <time>2021-08-12T13:21:51Z</time>
      </trkpt>
      <trkpt lat="45.52219" lon="6.73845">
        <ele>1800.9</ele>
        <time>2021-08-12T13:21:52Z</time>
      </trkpt>
      <trkpt lat="45.5222" lon="6.73846">
        <ele>1800.9</ele>
        <time>2021-08-12T13:21:53Z</time>
      </trkpt>
      <trkpt lat="45.52221" lon="6.73847">
        <ele>1800.8</ele>
        <time>2021-08-12T13:21:54Z</time>
      </trkpt>
      <trkpt lat="45.52221" lon="6.73848">
        <ele>1800.7</ele>
        <time>2021-08-12T13:21:55Z</time>
      </trkpt>
      <trkpt lat="45.52222" lon="6.7385">
        <ele>1800.6</ele>
        <time>2021-08-12T13:21:56Z</time>
      </trkpt>
      <trkpt lat="45.52222" lon="6.73851">
        <ele>1800.6</ele>
        <time>2021-08-12T13:21:57Z</time>
      </trkpt>
      <trkpt lat="45.52223" lon="6.73852">
        <ele>1800.5</ele>
        <time>2021-08-12T13:21:58Z</time>
      </trkpt>
      <trkpt lat="45.52224" lon="6.73853">
        <ele>1800.4</ele>
        <time>2021-08-12T13:21:59Z</time>
      </trkpt>
      <trkpt lat="45.52224" lon="6.73854">
        <ele>1800.4</ele>
        <time>2021-08-12T13:22:00Z</time>
      </trkpt>
      <trkpt lat="45.52225" lon="6.73855">
        <ele>1800.3</ele>
        <time>2021-08-12T13:22:01Z</time>
      </trkpt>
      <trkpt lat="45.52225" lon="6.73856">
        <ele>1800.2</ele>
        <time>2021-08-12T13:22:02Z</time>
      </trkpt>
      <trkpt lat="45.52226" lon="6.73857">
        <ele>1800.2</ele>
        <time>2021-08-12T13:22:03Z</time>
      </trkpt>
      <trkpt lat="45.52227" lon="6.73858">
        <ele>1800.1</ele>
        <time>2021-08-12T13:22:04Z</time>
      </trkpt>
      <trkpt lat="45.52228" lon="6.73859">
        <ele>1800</ele>
        <time>2021-08-12T13:22:05Z</time>
      </trkpt>
      <trkpt lat="45.52228" lon="6.73859">
        <ele>1800</ele>
        <time>2021-08-12T13:22:06Z</time>
      </trkpt>
      <trkpt lat="45.52229" lon="6.73859">
        <ele>1799.9</ele>
        <time>2021-08-12T13:22:07Z</time>
      </trkpt>
      <trkpt lat="45.5223" lon="6.73859">
        <ele>1799.9</ele>
        <time>2021-08-12T13:22:08Z</time>
      </trkpt>
      <trkpt lat="45.52231" lon="6.73859">
        <ele>1799.8</ele>
        <time>2021-08-12T13:22:09Z</time>
      </trkpt>
      <trkpt lat="45.52232" lon="6.73859">
        <ele>1799.7</ele>
        <time>2021-08-12T13:22:10Z</time>
      </trkpt>
      <trkpt lat="45.52233" lon="6.73858">
        <ele>1799.7</ele>
        <time>2021-08-12T13:22:11Z</time>
      </trkpt>
      <trkpt lat="45.52234" lon="6.73858">
        <ele>1799.6</ele>
        <time>2021-08-12T13:22:12Z</time>
      </trkpt>
      <trkpt lat="45.52234" lon="6.73857">
        <ele>1799.5</ele>
        <time>2021-08-12T13:22:13Z</time>
      </trkpt>
      <trkpt lat="45.52235" lon="6.73857">
        <ele>1799.5</ele>
        <time>2021-08-12T13:22:14Z</time>
      </trkpt>
      <trkpt lat="45.52236" lon="6.73856">
        <ele>1799.4</ele>
        <time>2021-08-12T13:22:15Z</time>
      </trkpt>
      <trkpt lat="45.52237" lon="6.73855">
        <ele>1799.3</ele>
        <time>2021-08-12T13:22:16Z</time>
      </trkpt>
      <trkpt lat="45.52238" lon="6.73855">
        <ele>1799.2</ele>
        <time>2021-08-12T13:22:17Z</time>
      </trkpt>
      <trkpt lat="45.52239" lon="6.73855">
        <ele>1799.2</ele>
        <time>2021-08-12T13:22:18Z</time>
      </trkpt>
      <trkpt lat="45.5224" lon="6.73854">
        <ele>1799.1</ele>
        <time>2021-08-12T13:22:19Z</time>
      </trkpt>
      <trkpt lat="45.52241" lon="6.73854">
        <ele>1799</ele>
        <time>2021-08-12T13:22:20Z</time>
      </trkpt>
      <trkpt lat="45.52242" lon="6.73854">
        <ele>1798.9</ele>
        <time>2021-08-12T13:22:21Z</time>
      </trkpt>
      <trkpt lat="45.52243" lon="6.73854">
        <ele>1798.8</ele>
        <time>2021-08-12T13:22:22Z</time>
      </trkpt>
      <trkpt lat="45.52245" lon="6.73854">
        <ele>1798.7</ele>
        <time>2021-08-12T13:22:23Z</time>
      </trkpt>
      <trkpt lat="45.52246" lon="6.73854">
        <ele>1798.6</ele>
        <time>2021-08-12T13:22:24Z</time>
      </trkpt>
      <trkpt lat="45.52247" lon="6.73854">
        <ele>1798.5</ele>
        <time>2021-08-12T13:22:25Z</time>
      </trkpt>
      <trkpt lat="45.52248" lon="6.73854">
        <ele>1798.4</ele>
        <time>2021-08-12T13:22:26Z</time>
      </trkpt>
      <trkpt lat="45.52249" lon="6.73854">
        <ele>1798.3</ele>
        <time>2021-08-12T13:22:27Z</time>
      </trkpt>
      <trkpt lat="45.5225" lon="6.73854">
        <ele>1798.2</ele>
        <time>2021-08-12T13:22:28Z</time>
      </trkpt>
      <trkpt lat="45.52251" lon="6.73854">
        <ele>1798</ele>
        <time>2021-08-12T13:22:29Z</time>
      </trkpt>
      <trkpt lat="45.52252" lon="6.73855">
        <ele>1797.9</ele>
        <time>2021-08-12T13:22:30Z</time>
      </trkpt>
      <trkpt lat="45.52254" lon="6.73855">
        <ele>1797.8</ele>
        <time>2021-08-12T13:22:31Z</time>
      </trkpt>
      <trkpt lat="45.52255" lon="6.73855">
        <ele>1797.7</ele>
        <time>2021-08-12T13:22:32Z</time>
      </trkpt>
      <trkpt lat="45.52256" lon="6.73855">
        <ele>1797.6</ele>
        <time>2021-08-12T13:22:33Z</time>
      </trkpt>
      <trkpt lat="45.52257" lon="6.73856">
        <ele>1797.5</ele>
        <time>2021-08-12T13:22:34Z</time>
      </trkpt>
      <trkpt lat="45.52258" lon="6.73856">
        <ele>1797.4</ele>
        <time>2021-08-12T13:22:35Z</time>
      </trkpt>
      <trkpt lat="45.52259" lon="6.73856">
        <ele>1797.3</ele>
        <time>2021-08-12T13:22:36Z</time>
      </trkpt>
      <trkpt lat="45.5226" lon="6.73857">
        <ele>1797.2</ele>
        <time>2021-08-12T13:22:37Z</time>
      </trkpt>
      <trkpt lat="45.52261" lon="6.73857">
        <ele>1797.1</ele>
        <time>2021-08-12T13:22:38Z</time>
      </trkpt>
      <trkpt lat="45.52261" lon="6.73857">
        <ele>1797</ele>
        <time>2021-08-12T13:22:39Z</time>
      </trkpt>
      <trkpt lat="45.52262" lon="6.73858">
        <ele>1797</ele>
        <time>2021-08-12T13:22:40Z</time>
      </trkpt>
      <trkpt lat="45.52263" lon="6.73858">
        <ele>1796.9</ele>
        <time>2021-08-12T13:22:41Z</time>
      </trkpt>
      <trkpt lat="45.52263" lon="6.73859">
        <ele>1796.8</ele>
        <time>2021-08-12T13:22:42Z</time>
      </trkpt>
      <trkpt lat="45.52264" lon="6.7386">
        <ele>1796.8</ele>
        <time>2021-08-12T13:22:43Z</time>
      </trkpt>
      <trkpt lat="45.52264" lon="6.7386">
        <ele>1796.7</ele>
        <time>2021-08-12T13:22:44Z</time>
      </trkpt>
      <trkpt lat="45.52265" lon="6.73861">
        <ele>1796.6</ele>
        <time>2021-08-12T13:22:45Z</time>
      </trkpt>
      <trkpt lat="45.52265" lon="6.73862">
        <ele>1796.6</ele>
        <time>2021-08-12T13:22:46Z</time>
      </trkpt>
      <trkpt lat="45.52266" lon="6.73862">
        <ele>1796.5</ele>
        <time>2021-08-12T13:22:47Z</time>
      </trkpt>
      <trkpt lat="45.52267" lon="6.73863">
        <ele>1796.4</ele>
        <time>2021-08-12T13:22:48Z</time>
      </trkpt>
      <trkpt lat="45.52267" lon="6.73864">
        <ele>1796.3</ele>
        <time>2021-08-12T13:22:49Z</time>
      </trkpt>
      <trkpt lat="45.52268" lon="6.73865">
        <ele>1796.2</ele>
        <time>2021-08-12T13:22:50Z</time>
      </trkpt>
      <trkpt lat="45.52269" lon="6.73865">
        <ele>1796.2</ele>
        <time>2021-08-12T13:22:51Z</time>
      </trkpt>
      <trkpt lat="45.52269" lon="6.73866">
        <ele>1796.1</ele>
        <time>2021-08-12T13:22:52Z</time>
      </trkpt>
      <trkpt lat="45.5227" lon="6.73867">
        <ele>1796</ele>
        <time>2021-08-12T13:22:53Z</time>
      </trkpt>
      <trkpt lat="45.52271" lon="6.73868">
        <ele>1795.8</ele>
        <time>2021-08-12T13:22:54Z</time>
      </trkpt>
      <trkpt lat="45.52272" lon="6.73869">
        <ele>1795.7</ele>
        <time>2021-08-12T13:22:55Z</time>
      </trkpt>
      <trkpt lat="45.52273" lon="6.7387">
        <ele>1795.6</ele>
        <time>2021-08-12T13:22:56Z</time>
      </trkpt>
      <trkpt lat="45.52274" lon="6.73871">
        <ele>1795.5</ele>
        <time>2021-08-12T13:22:57Z</time>
      </trkpt>
      <trkpt lat="45.52275" lon="6.73872">
        <ele>1795.4</ele>
        <time>2021-08-12T13:22:58Z</time>
      </trkpt>
      <trkpt lat="45.52276" lon="6.73873">
        <ele>1795.3</ele>
        <time>2021-08-12T13:22:59Z</time>
      </trkpt>
      <trkpt lat="45.52277" lon="6.73874">
        <ele>1795.1</ele>
        <time>2021-08-12T13:23:00Z</time>
      </trkpt>
      <trkpt lat="45.52278" lon="6.73875">
        <ele>1795</ele>
        <time>2021-08-12T13:23:01Z</time>
      </trkpt>
      <trkpt lat="45.52279" lon="6.73876">
        <ele>1794.9</ele>
        <time>2021-08-12T13:23:02Z</time>
      </trkpt>
      <trkpt lat="45.52281" lon="6.73877">
        <ele>1794.7</ele>
        <time>2021-08-12T13:23:03Z</time>
      </trkpt>
      <trkpt lat="45.52282" lon="6.73878">
        <ele>1794.6</ele>
        <time>2021-08-12T13:23:04Z</time>
      </trkpt>
      <trkpt lat="45.52283" lon="6.73879">
        <ele>1794.5</ele>
        <time>2021-08-12T13:23:05Z</time>
      </trkpt>
      <trkpt lat="45.52284" lon="6.7388">
        <ele>1794.3</ele>
        <time>2021-08-12T13:23:06Z</time>
      </trkpt>
      <trkpt lat="45.52285" lon="6.73881">
        <ele>1794.2</ele>
        <time>2021-08-12T13:23:07Z</time>
      </trkpt>
      <trkpt lat="45.52285" lon="6.73882">
        <ele>1794.1</ele>
        <time>2021-08-12T13:23:08Z</time>
      </trkpt>
      <trkpt lat="45.52286" lon="6.73883">
        <ele>1794</ele>
        <time>2021-08-12T13:23:09Z</time>
      </trkpt>
      <trkpt lat="45.52287" lon="6.73884">
        <ele>1793.9</ele>
        <time>2021-08-12T13:23:10Z</time>
      </trkpt>
      <trkpt lat="45.52288" lon="6.73885">
        <ele>1793.8</ele>
        <time>2021-08-12T13:23:11Z</time>
      </trkpt>
      <trkpt lat="45.52289" lon="6.73886">
        <ele>1793.6</ele>
        <time>2021-08-12T13:23:12Z</time>
      </trkpt>
      <trkpt lat="45.5229" lon="6.73887">
        <ele>1793.5</ele>
        <time>2021-08-12T13:23:13Z</time>
      </trkpt>
      <trkpt lat="45.5229" lon="6.73888">
        <ele>1793.4</ele>
        <time>2021-08-12T13:23:14Z</time>
      </trkpt>
      <trkpt lat="45.52291" lon="6.73889">
        <ele>1793.3</ele>
        <time>2021-08-12T13:23:15Z</time>
      </trkpt>
      <trkpt lat="45.52292" lon="6.73889">
        <ele>1793.2</ele>
        <time>2021-08-12T13:23:16Z</time>
      </trkpt>
      <trkpt lat="45.52293" lon="6.7389">
        <ele>1793.1</ele>
        <time>2021-08-12T13:23:17Z</time>
      </trkpt>
      <trkpt lat="45.52293" lon="6.73891">
        <ele>1793</ele>
        <time>2021-08-12T13:23:18Z</time>
      </trkpt>
      <trkpt lat="45.52294" lon="6.73892">
        <ele>1792.9</ele>
        <time>2021-08-12T13:23:19Z</time>
      </trkpt>
      <trkpt lat="45.52295" lon="6.73893">
        <ele>1792.8</ele>
        <time>2021-08-12T13:23:20Z</time>
      </trkpt>
      <trkpt lat="45.52296" lon="6.73894">
        <ele>1792.7</ele>
        <time>2021-08-12T13:23:21Z</time>
      </trkpt>
      <trkpt lat="45.52296" lon="6.73895">
        <ele>1792.6</ele>
        <time>2021-08-12T13:23:22Z</time>
      </trkpt>
      <trkpt lat="45.52297" lon="6.73896">
        <ele>1792.5</ele>
        <time>2021-08-12T13:23:23Z</time>
      </trkpt>
      <trkpt lat="45.52298" lon="6.73897">
        <ele>1792.4</ele>
        <time>2021-08-12T13:23:24Z</time>
      </trkpt>
      <trkpt lat="45.52299" lon="6.73898">
        <ele>1792.3</ele>
        <time>2021-08-12T13:23:25Z</time>
      </trkpt>
      <trkpt lat="45.52299" lon="6.73899">
        <ele>1792.2</ele>
        <time>2021-08-12T13:23:26Z</time>
      </trkpt>
      <trkpt lat="45.523" lon="6.73899">
        <ele>1792.1</ele>
        <time>2021-08-12T13:23:27Z</time>
      </trkpt>
      <trkpt lat="45.52301" lon="6.739">
        <ele>1792</ele>
        <time>2021-08-12T13:23:28Z</time>
      </trkpt>
      <trkpt lat="45.52302" lon="6.73901">
        <ele>1791.9</ele>
        <time>2021-08-12T13:23:29Z</time>
      </trkpt>
      <trkpt lat="45.52302" lon="6.73902">
        <ele>1791.8</ele>
        <time>2021-08-12T13:23:30Z</time>
      </trkpt>
      <trkpt lat="45.52303" lon="6.73903">
        <ele>1791.7</ele>
        <time>2021-08-12T13:23:31Z</time>
      </trkpt>
      <trkpt lat="45.52304" lon="6.73904">
        <ele>1791.6</ele>
        <time>2021-08-12T13:23:32Z</time>
      </trkpt>
      <trkpt lat="45.52304" lon="6.73905">
        <ele>1791.5</ele>
        <time>2021-08-12T13:23:33Z</time>
      </trkpt>
      <trkpt lat="45.52305" lon="6.73906">
        <ele>1791.3</ele>
        <time>2021-08-12T13:23:34Z</time>
      </trkpt>
      <trkpt lat="45.52306" lon="6.73907">
        <ele>1791.2</ele>
        <time>2021-08-12T13:23:35Z</time>
      </trkpt>
      <trkpt lat="45.52307" lon="6.73908">
        <ele>1791.1</ele>
        <time>2021-08-12T13:23:36Z</time>
      </trkpt>
      <trkpt lat="45.52307" lon="6.73909">
        <ele>1791</ele>
        <time>2021-08-12T13:23:37Z</time>
      </trkpt>
      <trkpt lat="45.52308" lon="6.7391">
        <ele>1790.9</ele>
        <time>2021-08-12T13:23:38Z</time>
      </trkpt>
      <trkpt lat="45.52309" lon="6.7391">
        <ele>1790.8</ele>
        <time>2021-08-12T13:23:39Z</time>
      </trkpt>
      <trkpt lat="45.52309" lon="6.73911">
        <ele>1790.7</ele>
        <time>2021-08-12T13:23:40Z</time>
      </trkpt>
      <trkpt lat="45.5231" lon="6.73912">
        <ele>1790.6</ele>
        <time>2021-08-12T13:23:41Z</time>
      </trkpt>
      <trkpt lat="45.52311" lon="6.73913">
        <ele>1790.5</ele>
        <time>2021-08-12T13:23:42Z</time>
      </trkpt>
      <trkpt lat="45.52312" lon="6.73914">
        <ele>1790.4</ele>
        <time>2021-08-12T13:23:43Z</time>
      </trkpt>
      <trkpt lat="45.52312" lon="6.73915">
        <ele>1790.3</ele>
        <time>2021-08-12T13:23:44Z</time>
      </trkpt>
      <trkpt lat="45.52313" lon="6.73916">
        <ele>1790.2</ele>
        <time>2021-08-12T13:23:45Z</time>
      </trkpt>
      <trkpt lat="45.52314" lon="6.73917">
        <ele>1790.1</ele>
        <time>2021-08-12T13:23:46Z</time>
      </trkpt>
      <trkpt lat="45.52314" lon="6.73918">
        <ele>1790</ele>
        <time>2021-08-12T13:23:47Z</time>
      </trkpt>
      <trkpt lat="45.52315" lon="6.73919">
        <ele>1789.9</ele>
        <time>2021-08-12T13:23:48Z</time>
      </trkpt>
      <trkpt lat="45.52316" lon="6.7392">
        <ele>1789.8</ele>
        <time>2021-08-12T13:23:49Z</time>
      </trkpt>
      <trkpt lat="45.52317" lon="6.73921">
        <ele>1789.7</ele>
        <time>2021-08-12T13:23:50Z</time>
      </trkpt>
      <trkpt lat="45.52317" lon="6.73922">
        <ele>1789.5</ele>
        <time>2021-08-12T13:23:51Z</time>
      </trkpt>
      <trkpt lat="45.52318" lon="6.73923">
        <ele>1789.4</ele>
        <time>2021-08-12T13:23:52Z</time>
      </trkpt>
      <trkpt lat="45.52319" lon="6.73924">
        <ele>1789.3</ele>
        <time>2021-08-12T13:23:53Z</time>
      </trkpt>
      <trkpt lat="45.52319" lon="6.73925">
        <ele>1789.2</ele>
        <time>2021-08-12T13:23:54Z</time>
      </trkpt>
      <trkpt lat="45.5232" lon="6.73926">
        <ele>1789.1</ele>
        <time>2021-08-12T13:23:55Z</time>
      </trkpt>
      <trkpt lat="45.52321" lon="6.73927">
        <ele>1789</ele>
        <time>2021-08-12T13:23:56Z</time>
      </trkpt>
      <trkpt lat="45.52321" lon="6.73928">
        <ele>1788.9</ele>
        <time>2021-08-12T13:23:57Z</time>
      </trkpt>
      <trkpt lat="45.52322" lon="6.73929">
        <ele>1788.8</ele>
        <time>2021-08-12T13:23:58Z</time>
      </trkpt>
      <trkpt lat="45.52323" lon="6.7393">
        <ele>1788.7</ele>
        <time>2021-08-12T13:23:59Z</time>
      </trkpt>
      <trkpt lat="45.52323" lon="6.73931">
        <ele>1788.5</ele>
        <time>2021-08-12T13:24:00Z</time>
      </trkpt>
      <trkpt lat="45.52324" lon="6.73932">
        <ele>1788.4</ele>
        <time>2021-08-12T13:24:01Z</time>
      </trkpt>
      <trkpt lat="45.52325" lon="6.73933">
        <ele>1788.3</ele>
        <time>2021-08-12T13:24:02Z</time>
      </trkpt>
      <trkpt lat="45.52325" lon="6.73934">
        <ele>1788.2</ele>
        <time>2021-08-12T13:24:03Z</time>
      </trkpt>
      <trkpt lat="45.52326" lon="6.73935">
        <ele>1788.1</ele>
        <time>2021-08-12T13:24:04Z</time>
      </trkpt>
      <trkpt lat="45.52327" lon="6.73936">
        <ele>1788</ele>
        <time>2021-08-12T13:24:05Z</time>
      </trkpt>
      <trkpt lat="45.52327" lon="6.73937">
        <ele>1787.9</ele>
        <time>2021-08-12T13:24:06Z</time>
      </trkpt>
      <trkpt lat="45.52328" lon="6.73938">
        <ele>1787.8</ele>
        <time>2021-08-12T13:24:07Z</time>
      </trkpt>
      <trkpt lat="45.52328" lon="6.73939">
        <ele>1787.8</ele>
        <time>2021-08-12T13:24:08Z</time>
      </trkpt>
      <trkpt lat="45.52329" lon="6.73941">
        <ele>1787.7</ele>
        <time>2021-08-12T13:24:09Z</time>
      </trkpt>
      <trkpt lat="45.5233" lon="6.73942">
        <ele>1787.6</ele>
        <time>2021-08-12T13:24:10Z</time>
      </trkpt>
      <trkpt lat="45.5233" lon="6.73943">
        <ele>1787.5</ele>
        <time>2021-08-12T13:24:11Z</time>
      </trkpt>
      <trkpt lat="45.52331" lon="6.73944">
        <ele>1787.4</ele>
        <time>2021-08-12T13:24:12Z</time>
      </trkpt>
      <trkpt lat="45.52331" lon="6.73945">
        <ele>1787.3</ele>
        <time>2021-08-12T13:24:13Z</time>
      </trkpt>
      <trkpt lat="45.52332" lon="6.73946">
        <ele>1787.2</ele>
        <time>2021-08-12T13:24:14Z</time>
      </trkpt>
      <trkpt lat="45.52333" lon="6.73947">
        <ele>1787.1</ele>
        <time>2021-08-12T13:24:15Z</time>
      </trkpt>
      <trkpt lat="45.52333" lon="6.73948">
        <ele>1787</ele>
        <time>2021-08-12T13:24:16Z</time>
      </trkpt>
      <trkpt lat="45.52334" lon="6.73949">
        <ele>1786.9</ele>
        <time>2021-08-12T13:24:17Z</time>
      </trkpt>
      <trkpt lat="45.52335" lon="6.7395">
        <ele>1786.8</ele>
        <time>2021-08-12T13:24:18Z</time>
      </trkpt>
      <trkpt lat="45.52336" lon="6.7395">
        <ele>1786.8</ele>
        <time>2021-08-12T13:24:19Z</time>
      </trkpt>
      <trkpt lat="45.52336" lon="6.73951">
        <ele>1786.7</ele>
        <time>2021-08-12T13:24:20Z</time>
      </trkpt>
      <trkpt lat="45.52337" lon="6.73952">
        <ele>1786.6</ele>
        <time>2021-08-12T13:24:21Z</time>
      </trkpt>
      <trkpt lat="45.52338" lon="6.73953">
        <ele>1786.5</ele>
        <time>2021-08-12T13:24:22Z</time>
      </trkpt>
      <trkpt lat="45.52338" lon="6.73954">
        <ele>1786.4</ele>
        <time>2021-08-12T13:24:23Z</time>
      </trkpt>
      <trkpt lat="45.52339" lon="6.73955">
        <ele>1786.3</ele>
        <time>2021-08-12T13:24:24Z</time>
      </trkpt>
      <trkpt lat="45.5234" lon="6.73955">
        <ele>1786.2</ele>
        <time>2021-08-12T13:24:25Z</time>
      </trkpt>
      <trkpt lat="45.52341" lon="6.73956">
        <ele>1786.1</ele>
        <time>2021-08-12T13:24:26Z</time>
      </trkpt>
      <trkpt lat="45.52342" lon="6.73957">
        <ele>1786</ele>
        <time>2021-08-12T13:24:27Z</time>
      </trkpt>
      <trkpt lat="45.52342" lon="6.73958">
        <ele>1786</ele>
        <time>2021-08-12T13:24:28Z</time>
      </trkpt>
      <trkpt lat="45.52343" lon="6.73958">
        <ele>1785.9</ele>
        <time>2021-08-12T13:24:29Z</time>
      </trkpt>
      <trkpt lat="45.52344" lon="6.73959">
        <ele>1785.8</ele>
        <time>2021-08-12T13:24:30Z</time>
      </trkpt>
      <trkpt lat="45.52345" lon="6.7396">
        <ele>1785.7</ele>
        <time>2021-08-12T13:24:31Z</time>
      </trkpt>
      <trkpt lat="45.52346" lon="6.7396">
        <ele>1785.6</ele>
        <time>2021-08-12T13:24:32Z</time>
      </trkpt>
      <trkpt lat="45.52347" lon="6.73961">
        <ele>1785.5</ele>
        <time>2021-08-12T13:24:33Z</time>
      </trkpt>
      <trkpt lat="45.52348" lon="6.73962">
        <ele>1785.4</ele>
        <time>2021-08-12T13:24:34Z</time>
      </trkpt>
      <trkpt lat="45.52348" lon="6.73962">
        <ele>1785.3</ele>
        <time>2021-08-12T13:24:35Z</time>
      </trkpt>
      <trkpt lat="45.52349" lon="6.73963">
        <ele>1785.2</ele>
        <time>2021-08-12T13:24:36Z</time>
      </trkpt>
      <trkpt lat="45.5235" lon="6.73963">
        <ele>1785.1</ele>
        <time>2021-08-12T13:24:37Z</time>
      </trkpt>
      <trkpt lat="45.52351" lon="6.73964">
        <ele>1785</ele>
        <time>2021-08-12T13:24:38Z</time>
      </trkpt>
      <trkpt lat="45.52352" lon="6.73964">
        <ele>1784.9</ele>
        <time>2021-08-12T13:24:39Z</time>
      </trkpt>
      <trkpt lat="45.52353" lon="6.73965">
        <ele>1784.8</ele>
        <time>2021-08-12T13:24:40Z</time>
      </trkpt>
      <trkpt lat="45.52354" lon="6.73965">
        <ele>1784.7</ele>
        <time>2021-08-12T13:24:41Z</time>
      </trkpt>
      <trkpt lat="45.52355" lon="6.73966">
        <ele>1784.6</ele>
        <time>2021-08-12T13:24:42Z</time>
      </trkpt>
      <trkpt lat="45.52356" lon="6.73966">
        <ele>1784.5</ele>
        <time>2021-08-12T13:24:43Z</time>
      </trkpt>
      <trkpt lat="45.52356" lon="6.73967">
        <ele>1784.4</ele>
        <time>2021-08-12T13:24:44Z</time>
      </trkpt>
      <trkpt lat="45.52357" lon="6.73967">
        <ele>1784.3</ele>
        <time>2021-08-12T13:24:45Z</time>
      </trkpt>
      <trkpt lat="45.52358" lon="6.73968">
        <ele>1784.2</ele>
        <time>2021-08-12T13:24:46Z</time>
      </trkpt>
      <trkpt lat="45.52359" lon="6.73968">
        <ele>1784.1</ele>
        <time>2021-08-12T13:24:47Z</time>
      </trkpt>
      <trkpt lat="45.5236" lon="6.73969">
        <ele>1784</ele>
        <time>2021-08-12T13:24:48Z</time>
      </trkpt>
      <trkpt lat="45.52361" lon="6.73969">
        <ele>1783.9</ele>
        <time>2021-08-12T13:24:49Z</time>
      </trkpt>
      <trkpt lat="45.52362" lon="6.7397">
        <ele>1783.8</ele>
        <time>2021-08-12T13:24:50Z</time>
      </trkpt>
      <trkpt lat="45.52363" lon="6.7397">
        <ele>1783.7</ele>
        <time>2021-08-12T13:24:51Z</time>
      </trkpt>
      <trkpt lat="45.52364" lon="6.7397">
        <ele>1783.6</ele>
        <time>2021-08-12T13:24:52Z</time>
      </trkpt>
      <trkpt lat="45.52365" lon="6.73971">
        <ele>1783.5</ele>
        <time>2021-08-12T13:24:53Z</time>
      </trkpt>
      <trkpt lat="45.52366" lon="6.73971">
        <ele>1783.4</ele>
        <time>2021-08-12T13:24:54Z</time>
      </trkpt>
      <trkpt lat="45.52367" lon="6.73972">
        <ele>1783.3</ele>
        <time>2021-08-12T13:24:55Z</time>
      </trkpt>
      <trkpt lat="45.52368" lon="6.73972">
        <ele>1783.2</ele>
        <time>2021-08-12T13:24:56Z</time>
      </trkpt>
      <trkpt lat="45.52369" lon="6.73972">
        <ele>1783.1</ele>
        <time>2021-08-12T13:24:57Z</time>
      </trkpt>
      <trkpt lat="45.5237" lon="6.73973">
        <ele>1783</ele>
        <time>2021-08-12T13:24:58Z</time>
      </trkpt>
      <trkpt lat="45.52371" lon="6.73973">
        <ele>1782.9</ele>
        <time>2021-08-12T13:24:59Z</time>
      </trkpt>
      <trkpt lat="45.52371" lon="6.73973">
        <ele>1782.8</ele>
        <time>2021-08-12T13:25:00Z</time>
      </trkpt>
      <trkpt lat="45.52372" lon="6.73974">
        <ele>1782.7</ele>
        <time>2021-08-12T13:25:01Z</time>
      </trkpt>
      <trkpt lat="45.52373" lon="6.73974">
        <ele>1782.6</ele>
        <time>2021-08-12T13:25:02Z</time>
      </trkpt>
      <trkpt lat="45.52374" lon="6.73974">
        <ele>1782.5</ele>
        <time>2021-08-12T13:25:03Z</time>
      </trkpt>
      <trkpt lat="45.52375" lon="6.73975">
        <ele>1782.4</ele>
        <time>2021-08-12T13:25:04Z</time>
      </trkpt>
      <trkpt lat="45.52376" lon="6.73975">
        <ele>1782.3</ele>
        <time>2021-08-12T13:25:05Z</time>
      </trkpt>
      <trkpt lat="45.52377" lon="6.73975">
        <ele>1782.2</ele>
        <time>2021-08-12T13:25:06Z</time>
      </trkpt>
      <trkpt lat="45.52378" lon="6.73976">
        <ele>1782.1</ele>
        <time>2021-08-12T13:25:07Z</time>
      </trkpt>
      <trkpt lat="45.52379" lon="6.73976">
        <ele>1782</ele>
        <time>2021-08-12T13:25:08Z</time>
      </trkpt>
      <trkpt lat="45.5238" lon="6.73976">
        <ele>1781.9</ele>
        <time>2021-08-12T13:25:09Z</time>
      </trkpt>
      <trkpt lat="45.52381" lon="6.73977">
        <ele>1781.8</ele>
        <time>2021-08-12T13:25:10Z</time>
      </trkpt>
    </trkseg>
  </trk>
</gpx>